<?xml version="1.0" encoding="UTF-8" standalone="no" ?>
<gpx xmlns="http://www.topografix.com/GPX/1/1" xmlns:xsi="http://www.w3.org/2001/XMLSchema-instance" xsi:schemaLocation="http://www.topografix.com/GPX/1/1 http://www.topografix.com/GPX/1/1/gpx.xsd" version="1.1" creator="VisuGPX - https://www.visugpx.com">
  <metadata>
    <name>-Sortie ASV VTT 2017-07-23</name>
    <desc><![CDATA[Randonnée hebdo des guerriers Viennois ... ASV VTT]]></desc>
  </metadata>
  <trk>
    <name><![CDATA[-Sortie ASV VTT 2017-07-23_1]]></name>
    <trkseg>
      <trkpt lat="47.80151" lon="2.13654">
        <ele>103</ele>
        <time>2017-07-23T06:32:38.121Z</time>
      </trkpt>
      <trkpt lat="47.80151" lon="2.13654">
        <ele>103</ele>
        <time>2017-07-23T06:32:39.129Z</time>
      </trkpt>
      <trkpt lat="47.80151" lon="2.13654">
        <ele>103</ele>
        <time>2017-07-23T06:32:40.136Z</time>
      </trkpt>
      <trkpt lat="47.80144" lon="2.13658">
        <ele>103</ele>
        <time>2017-07-23T06:32:41.143Z</time>
      </trkpt>
      <trkpt lat="47.8014" lon="2.13658">
        <ele>103</ele>
        <time>2017-07-23T06:32:42.148Z</time>
      </trkpt>
      <trkpt lat="47.8014" lon="2.13658">
        <ele>103</ele>
        <time>2017-07-23T06:32:43.141Z</time>
      </trkpt>
      <trkpt lat="47.80132" lon="2.13661">
        <ele>103</ele>
        <time>2017-07-23T06:32:44.118Z</time>
      </trkpt>
      <trkpt lat="47.80132" lon="2.13661">
        <ele>103</ele>
        <time>2017-07-23T06:32:45.132Z</time>
      </trkpt>
      <trkpt lat="47.80125" lon="2.13672">
        <ele>104</ele>
        <time>2017-07-23T06:32:46.145Z</time>
      </trkpt>
      <trkpt lat="47.80125" lon="2.13672">
        <ele>104</ele>
        <time>2017-07-23T06:32:47.142Z</time>
      </trkpt>
      <trkpt lat="47.8012" lon="2.1369">
        <ele>104</ele>
        <time>2017-07-23T06:32:48.145Z</time>
      </trkpt>
      <trkpt lat="47.80118" lon="2.13699">
        <ele>105</ele>
        <time>2017-07-23T06:32:49.146Z</time>
      </trkpt>
      <trkpt lat="47.80118" lon="2.13699">
        <ele>105</ele>
        <time>2017-07-23T06:32:50.114Z</time>
      </trkpt>
      <trkpt lat="47.80114" lon="2.13718">
        <ele>106</ele>
        <time>2017-07-23T06:32:51.145Z</time>
      </trkpt>
      <trkpt lat="47.80114" lon="2.13718">
        <ele>106</ele>
        <time>2017-07-23T06:32:52.142Z</time>
      </trkpt>
      <trkpt lat="47.8011" lon="2.13737">
        <ele>106</ele>
        <time>2017-07-23T06:32:53.144Z</time>
      </trkpt>
      <trkpt lat="47.80108" lon="2.13746">
        <ele>106</ele>
        <time>2017-07-23T06:32:54.145Z</time>
      </trkpt>
      <trkpt lat="47.80108" lon="2.13746">
        <ele>106</ele>
        <time>2017-07-23T06:32:55.141Z</time>
      </trkpt>
      <trkpt lat="47.80106" lon="2.13765">
        <ele>107</ele>
        <time>2017-07-23T06:32:56.146Z</time>
      </trkpt>
      <trkpt lat="47.80105" lon="2.13775">
        <ele>107</ele>
        <time>2017-07-23T06:32:57.145Z</time>
      </trkpt>
      <trkpt lat="47.80105" lon="2.13775">
        <ele>107</ele>
        <time>2017-07-23T06:32:58.142Z</time>
      </trkpt>
      <trkpt lat="47.80107" lon="2.13796">
        <ele>107</ele>
        <time>2017-07-23T06:32:59.145Z</time>
      </trkpt>
      <trkpt lat="47.80107" lon="2.13796">
        <ele>107</ele>
        <time>2017-07-23T06:33:00.114Z</time>
      </trkpt>
      <trkpt lat="47.80111" lon="2.13818">
        <ele>107</ele>
        <time>2017-07-23T06:33:01.112Z</time>
      </trkpt>
      <trkpt lat="47.80111" lon="2.13818">
        <ele>107</ele>
        <time>2017-07-23T06:33:02.142Z</time>
      </trkpt>
      <trkpt lat="47.80115" lon="2.1384">
        <ele>108</ele>
        <time>2017-07-23T06:33:03.146Z</time>
      </trkpt>
      <trkpt lat="47.80115" lon="2.1384">
        <ele>108</ele>
        <time>2017-07-23T06:33:04.140Z</time>
      </trkpt>
      <trkpt lat="47.80121" lon="2.13861">
        <ele>108</ele>
        <time>2017-07-23T06:33:05.142Z</time>
      </trkpt>
      <trkpt lat="47.80121" lon="2.13861">
        <ele>108</ele>
        <time>2017-07-23T06:33:06.134Z</time>
      </trkpt>
      <trkpt lat="47.80127" lon="2.1388">
        <ele>108</ele>
        <time>2017-07-23T06:33:07.146Z</time>
      </trkpt>
      <trkpt lat="47.80127" lon="2.1388">
        <ele>108</ele>
        <time>2017-07-23T06:33:08.139Z</time>
      </trkpt>
      <trkpt lat="47.80132" lon="2.13898">
        <ele>109</ele>
        <time>2017-07-23T06:33:09.147Z</time>
      </trkpt>
      <trkpt lat="47.80132" lon="2.13898">
        <ele>109</ele>
        <time>2017-07-23T06:33:10.143Z</time>
      </trkpt>
      <trkpt lat="47.80137" lon="2.13916">
        <ele>109</ele>
        <time>2017-07-23T06:33:11.146Z</time>
      </trkpt>
      <trkpt lat="47.8014" lon="2.13925">
        <ele>109</ele>
        <time>2017-07-23T06:33:12.142Z</time>
      </trkpt>
      <trkpt lat="47.80143" lon="2.13933">
        <ele>109</ele>
        <time>2017-07-23T06:33:13.108Z</time>
      </trkpt>
      <trkpt lat="47.80143" lon="2.13933">
        <ele>109</ele>
        <time>2017-07-23T06:33:14.141Z</time>
      </trkpt>
      <trkpt lat="47.80147" lon="2.1395">
        <ele>109</ele>
        <time>2017-07-23T06:33:15.114Z</time>
      </trkpt>
      <trkpt lat="47.80149" lon="2.13958">
        <ele>109</ele>
        <time>2017-07-23T06:33:16.119Z</time>
      </trkpt>
      <trkpt lat="47.80149" lon="2.13958">
        <ele>109</ele>
        <time>2017-07-23T06:33:17.111Z</time>
      </trkpt>
      <trkpt lat="47.80151" lon="2.13973">
        <ele>110</ele>
        <time>2017-07-23T06:33:18.146Z</time>
      </trkpt>
      <trkpt lat="47.80151" lon="2.13973">
        <ele>110</ele>
        <time>2017-07-23T06:33:19.142Z</time>
      </trkpt>
      <trkpt lat="47.80149" lon="2.13983">
        <ele>110</ele>
        <time>2017-07-23T06:33:20.137Z</time>
      </trkpt>
      <trkpt lat="47.80148" lon="2.13986">
        <ele>110</ele>
        <time>2017-07-23T06:33:21.145Z</time>
      </trkpt>
      <trkpt lat="47.80148" lon="2.13986">
        <ele>110</ele>
        <time>2017-07-23T06:33:22.140Z</time>
      </trkpt>
      <trkpt lat="47.8015" lon="2.13995">
        <ele>110</ele>
        <time>2017-07-23T06:33:23.144Z</time>
      </trkpt>
      <trkpt lat="47.80152" lon="2.13999">
        <ele>110</ele>
        <time>2017-07-23T06:33:24.142Z</time>
      </trkpt>
      <trkpt lat="47.80155" lon="2.14002">
        <ele>110</ele>
        <time>2017-07-23T06:33:25.146Z</time>
      </trkpt>
      <trkpt lat="47.80155" lon="2.14002">
        <ele>110</ele>
        <time>2017-07-23T06:33:26.142Z</time>
      </trkpt>
      <trkpt lat="47.80164" lon="2.14007">
        <ele>109</ele>
        <time>2017-07-23T06:33:27.142Z</time>
      </trkpt>
      <trkpt lat="47.80164" lon="2.14007">
        <ele>109</ele>
        <time>2017-07-23T06:33:28.134Z</time>
      </trkpt>
      <trkpt lat="47.80175" lon="2.14011">
        <ele>109</ele>
        <time>2017-07-23T06:33:29.145Z</time>
      </trkpt>
      <trkpt lat="47.80181" lon="2.14013">
        <ele>109</ele>
        <time>2017-07-23T06:33:30.147Z</time>
      </trkpt>
      <trkpt lat="47.80187" lon="2.14017">
        <ele>109</ele>
        <time>2017-07-23T06:33:31.108Z</time>
      </trkpt>
      <trkpt lat="47.80187" lon="2.14017">
        <ele>109</ele>
        <time>2017-07-23T06:33:32.142Z</time>
      </trkpt>
      <trkpt lat="47.80198" lon="2.14024">
        <ele>108</ele>
        <time>2017-07-23T06:33:33.143Z</time>
      </trkpt>
      <trkpt lat="47.80198" lon="2.14024">
        <ele>108</ele>
        <time>2017-07-23T06:33:34.139Z</time>
      </trkpt>
      <trkpt lat="47.8021" lon="2.14032">
        <ele>108</ele>
        <time>2017-07-23T06:33:35.146Z</time>
      </trkpt>
      <trkpt lat="47.8021" lon="2.14032">
        <ele>108</ele>
        <time>2017-07-23T06:33:36.142Z</time>
      </trkpt>
      <trkpt lat="47.80221" lon="2.14039">
        <ele>107</ele>
        <time>2017-07-23T06:33:37.147Z</time>
      </trkpt>
      <trkpt lat="47.80221" lon="2.14039">
        <ele>107</ele>
        <time>2017-07-23T06:33:38.142Z</time>
      </trkpt>
      <trkpt lat="47.80233" lon="2.14047">
        <ele>107</ele>
        <time>2017-07-23T06:33:39.145Z</time>
      </trkpt>
      <trkpt lat="47.80233" lon="2.14047">
        <ele>107</ele>
        <time>2017-07-23T06:33:40.119Z</time>
      </trkpt>
      <trkpt lat="47.80244" lon="2.14055">
        <ele>107</ele>
        <time>2017-07-23T06:33:41.115Z</time>
      </trkpt>
      <trkpt lat="47.80244" lon="2.14055">
        <ele>107</ele>
        <time>2017-07-23T06:33:42.146Z</time>
      </trkpt>
      <trkpt lat="47.80254" lon="2.14062">
        <ele>107</ele>
        <time>2017-07-23T06:33:43.118Z</time>
      </trkpt>
      <trkpt lat="47.80254" lon="2.14062">
        <ele>107</ele>
        <time>2017-07-23T06:33:44.129Z</time>
      </trkpt>
      <trkpt lat="47.80266" lon="2.14069">
        <ele>107</ele>
        <time>2017-07-23T06:33:45.119Z</time>
      </trkpt>
      <trkpt lat="47.80266" lon="2.14069">
        <ele>107</ele>
        <time>2017-07-23T06:33:46.111Z</time>
      </trkpt>
      <trkpt lat="47.80277" lon="2.14077">
        <ele>107</ele>
        <time>2017-07-23T06:33:47.145Z</time>
      </trkpt>
      <trkpt lat="47.80283" lon="2.1408">
        <ele>107</ele>
        <time>2017-07-23T06:33:48.146Z</time>
      </trkpt>
      <trkpt lat="47.80289" lon="2.14084">
        <ele>107</ele>
        <time>2017-07-23T06:33:49.148Z</time>
      </trkpt>
      <trkpt lat="47.80289" lon="2.14084">
        <ele>107</ele>
        <time>2017-07-23T06:33:50.143Z</time>
      </trkpt>
      <trkpt lat="47.803" lon="2.14091">
        <ele>107</ele>
        <time>2017-07-23T06:33:51.146Z</time>
      </trkpt>
      <trkpt lat="47.80305" lon="2.14095">
        <ele>107</ele>
        <time>2017-07-23T06:33:52.142Z</time>
      </trkpt>
      <trkpt lat="47.80305" lon="2.14095">
        <ele>107</ele>
        <time>2017-07-23T06:33:53.142Z</time>
      </trkpt>
      <trkpt lat="47.80315" lon="2.14104">
        <ele>106</ele>
        <time>2017-07-23T06:33:54.143Z</time>
      </trkpt>
      <trkpt lat="47.8032" lon="2.14108">
        <ele>106</ele>
        <time>2017-07-23T06:33:55.108Z</time>
      </trkpt>
      <trkpt lat="47.8032" lon="2.14108">
        <ele>106</ele>
        <time>2017-07-23T06:33:56.142Z</time>
      </trkpt>
      <trkpt lat="47.8033" lon="2.14114">
        <ele>106</ele>
        <time>2017-07-23T06:33:57.146Z</time>
      </trkpt>
      <trkpt lat="47.8033" lon="2.14114">
        <ele>106</ele>
        <time>2017-07-23T06:33:58.143Z</time>
      </trkpt>
      <trkpt lat="47.8034" lon="2.14121">
        <ele>106</ele>
        <time>2017-07-23T06:33:59.142Z</time>
      </trkpt>
      <trkpt lat="47.8034" lon="2.14121">
        <ele>106</ele>
        <time>2017-07-23T06:34:00.148Z</time>
      </trkpt>
      <trkpt lat="47.80351" lon="2.14128">
        <ele>106</ele>
        <time>2017-07-23T06:34:01.120Z</time>
      </trkpt>
      <trkpt lat="47.80351" lon="2.14128">
        <ele>106</ele>
        <time>2017-07-23T06:34:02.121Z</time>
      </trkpt>
      <trkpt lat="47.80362" lon="2.14136">
        <ele>105</ele>
        <time>2017-07-23T06:34:03.111Z</time>
      </trkpt>
      <trkpt lat="47.80368" lon="2.1414">
        <ele>105</ele>
        <time>2017-07-23T06:34:04.142Z</time>
      </trkpt>
      <trkpt lat="47.80368" lon="2.1414">
        <ele>105</ele>
        <time>2017-07-23T06:34:05.142Z</time>
      </trkpt>
      <trkpt lat="47.80381" lon="2.1415">
        <ele>105</ele>
        <time>2017-07-23T06:34:06.144Z</time>
      </trkpt>
      <trkpt lat="47.80387" lon="2.14155">
        <ele>104</ele>
        <time>2017-07-23T06:34:07.109Z</time>
      </trkpt>
      <trkpt lat="47.80387" lon="2.14155">
        <ele>104</ele>
        <time>2017-07-23T06:34:08.132Z</time>
      </trkpt>
      <trkpt lat="47.804" lon="2.14166">
        <ele>104</ele>
        <time>2017-07-23T06:34:09.119Z</time>
      </trkpt>
      <trkpt lat="47.804" lon="2.14166">
        <ele>104</ele>
        <time>2017-07-23T06:34:10.115Z</time>
      </trkpt>
      <trkpt lat="47.80413" lon="2.14179">
        <ele>103</ele>
        <time>2017-07-23T06:34:11.109Z</time>
      </trkpt>
      <trkpt lat="47.80413" lon="2.14179">
        <ele>103</ele>
        <time>2017-07-23T06:34:12.147Z</time>
      </trkpt>
      <trkpt lat="47.80426" lon="2.14192">
        <ele>102</ele>
        <time>2017-07-23T06:34:13.144Z</time>
      </trkpt>
      <trkpt lat="47.80426" lon="2.14192">
        <ele>102</ele>
        <time>2017-07-23T06:34:14.142Z</time>
      </trkpt>
      <trkpt lat="47.80438" lon="2.14204">
        <ele>102</ele>
        <time>2017-07-23T06:34:15.146Z</time>
      </trkpt>
      <trkpt lat="47.80445" lon="2.1421">
        <ele>102</ele>
        <time>2017-07-23T06:34:16.147Z</time>
      </trkpt>
      <trkpt lat="47.80445" lon="2.1421">
        <ele>102</ele>
        <time>2017-07-23T06:34:17.142Z</time>
      </trkpt>
      <trkpt lat="47.80457" lon="2.14222">
        <ele>102</ele>
        <time>2017-07-23T06:34:18.143Z</time>
      </trkpt>
      <trkpt lat="47.80464" lon="2.14229">
        <ele>102</ele>
        <time>2017-07-23T06:34:19.111Z</time>
      </trkpt>
      <trkpt lat="47.80464" lon="2.14229">
        <ele>102</ele>
        <time>2017-07-23T06:34:20.141Z</time>
      </trkpt>
      <trkpt lat="47.80476" lon="2.14241">
        <ele>101</ele>
        <time>2017-07-23T06:34:21.143Z</time>
      </trkpt>
      <trkpt lat="47.80482" lon="2.14247">
        <ele>101</ele>
        <time>2017-07-23T06:34:22.143Z</time>
      </trkpt>
      <trkpt lat="47.80482" lon="2.14247">
        <ele>101</ele>
        <time>2017-07-23T06:34:23.140Z</time>
      </trkpt>
      <trkpt lat="47.80494" lon="2.14259">
        <ele>101</ele>
        <time>2017-07-23T06:34:24.142Z</time>
      </trkpt>
      <trkpt lat="47.80499" lon="2.14265">
        <ele>101</ele>
        <time>2017-07-23T06:34:25.108Z</time>
      </trkpt>
      <trkpt lat="47.80499" lon="2.14265">
        <ele>101</ele>
        <time>2017-07-23T06:34:26.143Z</time>
      </trkpt>
      <trkpt lat="47.80511" lon="2.14277">
        <ele>101</ele>
        <time>2017-07-23T06:34:27.142Z</time>
      </trkpt>
      <trkpt lat="47.80511" lon="2.14277">
        <ele>101</ele>
        <time>2017-07-23T06:34:28.140Z</time>
      </trkpt>
      <trkpt lat="47.80522" lon="2.14288">
        <ele>101</ele>
        <time>2017-07-23T06:34:29.147Z</time>
      </trkpt>
      <trkpt lat="47.80522" lon="2.14288">
        <ele>101</ele>
        <time>2017-07-23T06:34:30.144Z</time>
      </trkpt>
      <trkpt lat="47.80534" lon="2.14301">
        <ele>101</ele>
        <time>2017-07-23T06:34:31.108Z</time>
      </trkpt>
      <trkpt lat="47.80534" lon="2.14301">
        <ele>101</ele>
        <time>2017-07-23T06:34:32.117Z</time>
      </trkpt>
      <trkpt lat="47.80545" lon="2.14312">
        <ele>101</ele>
        <time>2017-07-23T06:34:33.108Z</time>
      </trkpt>
      <trkpt lat="47.80545" lon="2.14312">
        <ele>101</ele>
        <time>2017-07-23T06:34:34.142Z</time>
      </trkpt>
      <trkpt lat="47.80557" lon="2.14322">
        <ele>101</ele>
        <time>2017-07-23T06:34:35.144Z</time>
      </trkpt>
      <trkpt lat="47.80563" lon="2.14327">
        <ele>101</ele>
        <time>2017-07-23T06:34:36.146Z</time>
      </trkpt>
      <trkpt lat="47.80569" lon="2.14332">
        <ele>102</ele>
        <time>2017-07-23T06:34:37.147Z</time>
      </trkpt>
      <trkpt lat="47.80569" lon="2.14332">
        <ele>102</ele>
        <time>2017-07-23T06:34:38.142Z</time>
      </trkpt>
      <trkpt lat="47.8058" lon="2.14344">
        <ele>102</ele>
        <time>2017-07-23T06:34:39.146Z</time>
      </trkpt>
      <trkpt lat="47.8058" lon="2.14344">
        <ele>102</ele>
        <time>2017-07-23T06:34:40.115Z</time>
      </trkpt>
      <trkpt lat="47.80591" lon="2.14354">
        <ele>102</ele>
        <time>2017-07-23T06:34:41.115Z</time>
      </trkpt>
      <trkpt lat="47.80591" lon="2.14354">
        <ele>102</ele>
        <time>2017-07-23T06:34:42.145Z</time>
      </trkpt>
      <trkpt lat="47.80602" lon="2.14365">
        <ele>102</ele>
        <time>2017-07-23T06:34:43.109Z</time>
      </trkpt>
      <trkpt lat="47.80602" lon="2.14365">
        <ele>102</ele>
        <time>2017-07-23T06:34:44.141Z</time>
      </trkpt>
      <trkpt lat="47.80613" lon="2.14376">
        <ele>102</ele>
        <time>2017-07-23T06:34:45.146Z</time>
      </trkpt>
      <trkpt lat="47.80613" lon="2.14376">
        <ele>102</ele>
        <time>2017-07-23T06:34:46.142Z</time>
      </trkpt>
      <trkpt lat="47.80625" lon="2.14388">
        <ele>102</ele>
        <time>2017-07-23T06:34:47.142Z</time>
      </trkpt>
      <trkpt lat="47.80625" lon="2.14388">
        <ele>102</ele>
        <time>2017-07-23T06:34:48.140Z</time>
      </trkpt>
      <trkpt lat="47.80635" lon="2.14401">
        <ele>101</ele>
        <time>2017-07-23T06:34:49.108Z</time>
      </trkpt>
      <trkpt lat="47.80635" lon="2.14401">
        <ele>101</ele>
        <time>2017-07-23T06:34:50.141Z</time>
      </trkpt>
      <trkpt lat="47.80646" lon="2.14414">
        <ele>101</ele>
        <time>2017-07-23T06:34:51.109Z</time>
      </trkpt>
      <trkpt lat="47.80651" lon="2.14421">
        <ele>101</ele>
        <time>2017-07-23T06:34:52.142Z</time>
      </trkpt>
      <trkpt lat="47.80651" lon="2.14421">
        <ele>101</ele>
        <time>2017-07-23T06:34:53.140Z</time>
      </trkpt>
      <trkpt lat="47.80661" lon="2.14434">
        <ele>101</ele>
        <time>2017-07-23T06:34:54.147Z</time>
      </trkpt>
      <trkpt lat="47.80666" lon="2.14441">
        <ele>101</ele>
        <time>2017-07-23T06:34:55.147Z</time>
      </trkpt>
      <trkpt lat="47.80666" lon="2.14441">
        <ele>101</ele>
        <time>2017-07-23T06:34:56.140Z</time>
      </trkpt>
      <trkpt lat="47.80676" lon="2.14455">
        <ele>101</ele>
        <time>2017-07-23T06:34:57.145Z</time>
      </trkpt>
      <trkpt lat="47.80681" lon="2.14462">
        <ele>101</ele>
        <time>2017-07-23T06:34:58.142Z</time>
      </trkpt>
      <trkpt lat="47.80681" lon="2.14462">
        <ele>101</ele>
        <time>2017-07-23T06:34:59.142Z</time>
      </trkpt>
      <trkpt lat="47.80691" lon="2.14476">
        <ele>101</ele>
        <time>2017-07-23T06:35:00.144Z</time>
      </trkpt>
      <trkpt lat="47.80697" lon="2.14482">
        <ele>101</ele>
        <time>2017-07-23T06:35:01.124Z</time>
      </trkpt>
      <trkpt lat="47.80697" lon="2.14482">
        <ele>101</ele>
        <time>2017-07-23T06:35:02.117Z</time>
      </trkpt>
      <trkpt lat="47.80707" lon="2.14496">
        <ele>101</ele>
        <time>2017-07-23T06:35:03.146Z</time>
      </trkpt>
      <trkpt lat="47.80707" lon="2.14496">
        <ele>101</ele>
        <time>2017-07-23T06:35:04.139Z</time>
      </trkpt>
      <trkpt lat="47.80718" lon="2.14509">
        <ele>101</ele>
        <time>2017-07-23T06:35:05.145Z</time>
      </trkpt>
      <trkpt lat="47.80718" lon="2.14509">
        <ele>101</ele>
        <time>2017-07-23T06:35:06.139Z</time>
      </trkpt>
      <trkpt lat="47.80729" lon="2.14521">
        <ele>101</ele>
        <time>2017-07-23T06:35:07.121Z</time>
      </trkpt>
      <trkpt lat="47.80729" lon="2.14521">
        <ele>101</ele>
        <time>2017-07-23T06:35:08.128Z</time>
      </trkpt>
      <trkpt lat="47.80741" lon="2.14532">
        <ele>101</ele>
        <time>2017-07-23T06:35:09.118Z</time>
      </trkpt>
      <trkpt lat="47.80741" lon="2.14532">
        <ele>101</ele>
        <time>2017-07-23T06:35:10.115Z</time>
      </trkpt>
      <trkpt lat="47.80754" lon="2.14541">
        <ele>101</ele>
        <time>2017-07-23T06:35:11.110Z</time>
      </trkpt>
      <trkpt lat="47.80754" lon="2.14541">
        <ele>101</ele>
        <time>2017-07-23T06:35:12.142Z</time>
      </trkpt>
      <trkpt lat="47.80767" lon="2.14549">
        <ele>101</ele>
        <time>2017-07-23T06:35:13.148Z</time>
      </trkpt>
      <trkpt lat="47.80767" lon="2.14549">
        <ele>101</ele>
        <time>2017-07-23T06:35:14.140Z</time>
      </trkpt>
      <trkpt lat="47.80781" lon="2.14556">
        <ele>101</ele>
        <time>2017-07-23T06:35:15.147Z</time>
      </trkpt>
      <trkpt lat="47.80781" lon="2.14556">
        <ele>101</ele>
        <time>2017-07-23T06:35:16.143Z</time>
      </trkpt>
      <trkpt lat="47.80794" lon="2.14562">
        <ele>101</ele>
        <time>2017-07-23T06:35:17.143Z</time>
      </trkpt>
      <trkpt lat="47.80801" lon="2.14565">
        <ele>101</ele>
        <time>2017-07-23T06:35:18.145Z</time>
      </trkpt>
      <trkpt lat="47.80808" lon="2.14568">
        <ele>101</ele>
        <time>2017-07-23T06:35:19.108Z</time>
      </trkpt>
      <trkpt lat="47.80808" lon="2.14568">
        <ele>101</ele>
        <time>2017-07-23T06:35:20.139Z</time>
      </trkpt>
      <trkpt lat="47.80821" lon="2.14574">
        <ele>101</ele>
        <time>2017-07-23T06:35:21.121Z</time>
      </trkpt>
      <trkpt lat="47.80827" lon="2.14577">
        <ele>101</ele>
        <time>2017-07-23T06:35:22.115Z</time>
      </trkpt>
      <trkpt lat="47.80827" lon="2.14577">
        <ele>101</ele>
        <time>2017-07-23T06:35:23.144Z</time>
      </trkpt>
      <trkpt lat="47.8084" lon="2.14583">
        <ele>101</ele>
        <time>2017-07-23T06:35:24.143Z</time>
      </trkpt>
      <trkpt lat="47.80847" lon="2.14586">
        <ele>101</ele>
        <time>2017-07-23T06:35:25.147Z</time>
      </trkpt>
      <trkpt lat="47.80847" lon="2.14586">
        <ele>101</ele>
        <time>2017-07-23T06:35:26.144Z</time>
      </trkpt>
      <trkpt lat="47.8086" lon="2.14592">
        <ele>101</ele>
        <time>2017-07-23T06:35:27.147Z</time>
      </trkpt>
      <trkpt lat="47.8086" lon="2.14592">
        <ele>101</ele>
        <time>2017-07-23T06:35:28.142Z</time>
      </trkpt>
      <trkpt lat="47.80874" lon="2.14598">
        <ele>101</ele>
        <time>2017-07-23T06:35:29.146Z</time>
      </trkpt>
      <trkpt lat="47.80874" lon="2.14598">
        <ele>101</ele>
        <time>2017-07-23T06:35:30.139Z</time>
      </trkpt>
      <trkpt lat="47.80887" lon="2.14604">
        <ele>101</ele>
        <time>2017-07-23T06:35:31.115Z</time>
      </trkpt>
      <trkpt lat="47.80887" lon="2.14604">
        <ele>101</ele>
        <time>2017-07-23T06:35:32.139Z</time>
      </trkpt>
      <trkpt lat="47.80901" lon="2.1461">
        <ele>101</ele>
        <time>2017-07-23T06:35:33.145Z</time>
      </trkpt>
      <trkpt lat="47.80901" lon="2.1461">
        <ele>101</ele>
        <time>2017-07-23T06:35:34.140Z</time>
      </trkpt>
      <trkpt lat="47.80915" lon="2.14616">
        <ele>101</ele>
        <time>2017-07-23T06:35:35.142Z</time>
      </trkpt>
      <trkpt lat="47.80915" lon="2.14616">
        <ele>101</ele>
        <time>2017-07-23T06:35:36.140Z</time>
      </trkpt>
      <trkpt lat="47.80929" lon="2.14621">
        <ele>100</ele>
        <time>2017-07-23T06:35:37.108Z</time>
      </trkpt>
      <trkpt lat="47.80929" lon="2.14621">
        <ele>100</ele>
        <time>2017-07-23T06:35:38.140Z</time>
      </trkpt>
      <trkpt lat="47.80943" lon="2.14627">
        <ele>100</ele>
        <time>2017-07-23T06:35:39.146Z</time>
      </trkpt>
      <trkpt lat="47.80943" lon="2.14627">
        <ele>100</ele>
        <time>2017-07-23T06:35:40.140Z</time>
      </trkpt>
      <trkpt lat="47.80957" lon="2.14633">
        <ele>100</ele>
        <time>2017-07-23T06:35:41.108Z</time>
      </trkpt>
      <trkpt lat="47.80957" lon="2.14633">
        <ele>100</ele>
        <time>2017-07-23T06:35:42.142Z</time>
      </trkpt>
      <trkpt lat="47.80971" lon="2.14639">
        <ele>100</ele>
        <time>2017-07-23T06:35:43.148Z</time>
      </trkpt>
      <trkpt lat="47.80971" lon="2.14639">
        <ele>100</ele>
        <time>2017-07-23T06:35:44.140Z</time>
      </trkpt>
      <trkpt lat="47.80985" lon="2.14646">
        <ele>100</ele>
        <time>2017-07-23T06:35:45.147Z</time>
      </trkpt>
      <trkpt lat="47.80985" lon="2.14646">
        <ele>100</ele>
        <time>2017-07-23T06:35:46.140Z</time>
      </trkpt>
      <trkpt lat="47.81" lon="2.14651">
        <ele>100</ele>
        <time>2017-07-23T06:35:47.143Z</time>
      </trkpt>
      <trkpt lat="47.81" lon="2.14651">
        <ele>100</ele>
        <time>2017-07-23T06:35:48.140Z</time>
      </trkpt>
      <trkpt lat="47.81014" lon="2.14657">
        <ele>100</ele>
        <time>2017-07-23T06:35:49.108Z</time>
      </trkpt>
      <trkpt lat="47.81014" lon="2.14657">
        <ele>100</ele>
        <time>2017-07-23T06:35:50.138Z</time>
      </trkpt>
      <trkpt lat="47.81028" lon="2.14664">
        <ele>101</ele>
        <time>2017-07-23T06:35:51.109Z</time>
      </trkpt>
      <trkpt lat="47.81028" lon="2.14664">
        <ele>101</ele>
        <time>2017-07-23T06:35:52.145Z</time>
      </trkpt>
      <trkpt lat="47.81042" lon="2.1467">
        <ele>101</ele>
        <time>2017-07-23T06:35:53.142Z</time>
      </trkpt>
      <trkpt lat="47.81042" lon="2.1467">
        <ele>101</ele>
        <time>2017-07-23T06:35:54.142Z</time>
      </trkpt>
      <trkpt lat="47.81057" lon="2.14677">
        <ele>101</ele>
        <time>2017-07-23T06:35:55.146Z</time>
      </trkpt>
      <trkpt lat="47.81057" lon="2.14677">
        <ele>101</ele>
        <time>2017-07-23T06:35:56.139Z</time>
      </trkpt>
      <trkpt lat="47.81071" lon="2.14683">
        <ele>101</ele>
        <time>2017-07-23T06:35:57.146Z</time>
      </trkpt>
      <trkpt lat="47.81071" lon="2.14683">
        <ele>101</ele>
        <time>2017-07-23T06:35:58.140Z</time>
      </trkpt>
      <trkpt lat="47.81084" lon="2.14689">
        <ele>101</ele>
        <time>2017-07-23T06:35:59.142Z</time>
      </trkpt>
      <trkpt lat="47.81084" lon="2.14689">
        <ele>101</ele>
        <time>2017-07-23T06:36:00.140Z</time>
      </trkpt>
      <trkpt lat="47.81098" lon="2.14694">
        <ele>101</ele>
        <time>2017-07-23T06:36:01.147Z</time>
      </trkpt>
      <trkpt lat="47.81098" lon="2.14694">
        <ele>101</ele>
        <time>2017-07-23T06:36:02.145Z</time>
      </trkpt>
      <trkpt lat="47.81112" lon="2.147">
        <ele>101</ele>
        <time>2017-07-23T06:36:03.146Z</time>
      </trkpt>
      <trkpt lat="47.81112" lon="2.147">
        <ele>101</ele>
        <time>2017-07-23T06:36:04.142Z</time>
      </trkpt>
      <trkpt lat="47.81125" lon="2.14706">
        <ele>101</ele>
        <time>2017-07-23T06:36:05.147Z</time>
      </trkpt>
      <trkpt lat="47.81125" lon="2.14706">
        <ele>101</ele>
        <time>2017-07-23T06:36:06.143Z</time>
      </trkpt>
      <trkpt lat="47.81138" lon="2.14711">
        <ele>101</ele>
        <time>2017-07-23T06:36:07.148Z</time>
      </trkpt>
      <trkpt lat="47.81138" lon="2.14711">
        <ele>101</ele>
        <time>2017-07-23T06:36:08.110Z</time>
      </trkpt>
      <trkpt lat="47.8115" lon="2.14716">
        <ele>101</ele>
        <time>2017-07-23T06:36:09.147Z</time>
      </trkpt>
      <trkpt lat="47.8115" lon="2.14716">
        <ele>101</ele>
        <time>2017-07-23T06:36:10.141Z</time>
      </trkpt>
      <trkpt lat="47.81162" lon="2.14721">
        <ele>101</ele>
        <time>2017-07-23T06:36:11.143Z</time>
      </trkpt>
      <trkpt lat="47.81162" lon="2.14721">
        <ele>101</ele>
        <time>2017-07-23T06:36:12.141Z</time>
      </trkpt>
      <trkpt lat="47.81172" lon="2.14726">
        <ele>101</ele>
        <time>2017-07-23T06:36:13.108Z</time>
      </trkpt>
      <trkpt lat="47.81172" lon="2.14726">
        <ele>101</ele>
        <time>2017-07-23T06:36:14.140Z</time>
      </trkpt>
      <trkpt lat="47.8118" lon="2.14727">
        <ele>101</ele>
        <time>2017-07-23T06:36:15.145Z</time>
      </trkpt>
      <trkpt lat="47.8118" lon="2.14727">
        <ele>101</ele>
        <time>2017-07-23T06:36:16.141Z</time>
      </trkpt>
      <trkpt lat="47.81184" lon="2.14717">
        <ele>101</ele>
        <time>2017-07-23T06:36:17.143Z</time>
      </trkpt>
      <trkpt lat="47.81184" lon="2.14717">
        <ele>101</ele>
        <time>2017-07-23T06:36:18.140Z</time>
      </trkpt>
      <trkpt lat="47.81188" lon="2.14702">
        <ele>101</ele>
        <time>2017-07-23T06:36:19.147Z</time>
      </trkpt>
      <trkpt lat="47.81188" lon="2.14702">
        <ele>101</ele>
        <time>2017-07-23T06:36:20.138Z</time>
      </trkpt>
      <trkpt lat="47.81192" lon="2.14685">
        <ele>101</ele>
        <time>2017-07-23T06:36:21.146Z</time>
      </trkpt>
      <trkpt lat="47.81192" lon="2.14685">
        <ele>101</ele>
        <time>2017-07-23T06:36:22.142Z</time>
      </trkpt>
      <trkpt lat="47.81197" lon="2.14666">
        <ele>100</ele>
        <time>2017-07-23T06:36:23.146Z</time>
      </trkpt>
      <trkpt lat="47.81197" lon="2.14666">
        <ele>100</ele>
        <time>2017-07-23T06:36:24.143Z</time>
      </trkpt>
      <trkpt lat="47.81202" lon="2.14646">
        <ele>100</ele>
        <time>2017-07-23T06:36:25.148Z</time>
      </trkpt>
      <trkpt lat="47.81202" lon="2.14646">
        <ele>100</ele>
        <time>2017-07-23T06:36:26.140Z</time>
      </trkpt>
      <trkpt lat="47.81206" lon="2.14627">
        <ele>100</ele>
        <time>2017-07-23T06:36:27.143Z</time>
      </trkpt>
      <trkpt lat="47.81206" lon="2.14627">
        <ele>100</ele>
        <time>2017-07-23T06:36:28.140Z</time>
      </trkpt>
      <trkpt lat="47.81211" lon="2.14609">
        <ele>100</ele>
        <time>2017-07-23T06:36:29.143Z</time>
      </trkpt>
      <trkpt lat="47.81211" lon="2.14609">
        <ele>100</ele>
        <time>2017-07-23T06:36:30.140Z</time>
      </trkpt>
      <trkpt lat="47.81215" lon="2.14591">
        <ele>99</ele>
        <time>2017-07-23T06:36:31.147Z</time>
      </trkpt>
      <trkpt lat="47.81215" lon="2.14591">
        <ele>99</ele>
        <time>2017-07-23T06:36:32.123Z</time>
      </trkpt>
      <trkpt lat="47.81219" lon="2.14574">
        <ele>99</ele>
        <time>2017-07-23T06:36:33.115Z</time>
      </trkpt>
      <trkpt lat="47.81219" lon="2.14574">
        <ele>99</ele>
        <time>2017-07-23T06:36:34.109Z</time>
      </trkpt>
      <trkpt lat="47.81224" lon="2.14557">
        <ele>99</ele>
        <time>2017-07-23T06:36:35.143Z</time>
      </trkpt>
      <trkpt lat="47.81224" lon="2.14557">
        <ele>99</ele>
        <time>2017-07-23T06:36:36.144Z</time>
      </trkpt>
      <trkpt lat="47.81228" lon="2.1454">
        <ele>98</ele>
        <time>2017-07-23T06:36:37.148Z</time>
      </trkpt>
      <trkpt lat="47.81228" lon="2.1454">
        <ele>98</ele>
        <time>2017-07-23T06:36:38.142Z</time>
      </trkpt>
      <trkpt lat="47.81232" lon="2.14523">
        <ele>97</ele>
        <time>2017-07-23T06:36:39.147Z</time>
      </trkpt>
      <trkpt lat="47.81235" lon="2.14514">
        <ele>97</ele>
        <time>2017-07-23T06:36:40.140Z</time>
      </trkpt>
      <trkpt lat="47.81237" lon="2.14506">
        <ele>97</ele>
        <time>2017-07-23T06:36:41.145Z</time>
      </trkpt>
      <trkpt lat="47.81237" lon="2.14506">
        <ele>97</ele>
        <time>2017-07-23T06:36:42.144Z</time>
      </trkpt>
      <trkpt lat="47.81241" lon="2.14489">
        <ele>97</ele>
        <time>2017-07-23T06:36:43.110Z</time>
      </trkpt>
      <trkpt lat="47.81241" lon="2.14489">
        <ele>97</ele>
        <time>2017-07-23T06:36:44.142Z</time>
      </trkpt>
      <trkpt lat="47.81245" lon="2.14473">
        <ele>96</ele>
        <time>2017-07-23T06:36:45.108Z</time>
      </trkpt>
      <trkpt lat="47.81245" lon="2.14473">
        <ele>96</ele>
        <time>2017-07-23T06:36:46.143Z</time>
      </trkpt>
      <trkpt lat="47.81249" lon="2.14456">
        <ele>96</ele>
        <time>2017-07-23T06:36:47.108Z</time>
      </trkpt>
      <trkpt lat="47.81249" lon="2.14456">
        <ele>96</ele>
        <time>2017-07-23T06:36:48.142Z</time>
      </trkpt>
      <trkpt lat="47.81253" lon="2.1444">
        <ele>96</ele>
        <time>2017-07-23T06:36:49.108Z</time>
      </trkpt>
      <trkpt lat="47.81255" lon="2.14432">
        <ele>97</ele>
        <time>2017-07-23T06:36:50.129Z</time>
      </trkpt>
      <trkpt lat="47.81255" lon="2.14432">
        <ele>97</ele>
        <time>2017-07-23T06:36:51.108Z</time>
      </trkpt>
      <trkpt lat="47.81259" lon="2.14416">
        <ele>97</ele>
        <time>2017-07-23T06:36:52.114Z</time>
      </trkpt>
      <trkpt lat="47.81261" lon="2.14408">
        <ele>97</ele>
        <time>2017-07-23T06:36:53.120Z</time>
      </trkpt>
      <trkpt lat="47.81261" lon="2.14408">
        <ele>97</ele>
        <time>2017-07-23T06:36:54.108Z</time>
      </trkpt>
      <trkpt lat="47.81265" lon="2.14391">
        <ele>97</ele>
        <time>2017-07-23T06:36:55.109Z</time>
      </trkpt>
      <trkpt lat="47.81265" lon="2.14391">
        <ele>97</ele>
        <time>2017-07-23T06:36:56.147Z</time>
      </trkpt>
      <trkpt lat="47.81269" lon="2.14374">
        <ele>97</ele>
        <time>2017-07-23T06:36:57.108Z</time>
      </trkpt>
      <trkpt lat="47.81269" lon="2.14374">
        <ele>97</ele>
        <time>2017-07-23T06:36:58.141Z</time>
      </trkpt>
      <trkpt lat="47.81273" lon="2.14357">
        <ele>97</ele>
        <time>2017-07-23T06:36:59.144Z</time>
      </trkpt>
      <trkpt lat="47.81273" lon="2.14357">
        <ele>97</ele>
        <time>2017-07-23T06:37:00.139Z</time>
      </trkpt>
      <trkpt lat="47.81277" lon="2.1434">
        <ele>97</ele>
        <time>2017-07-23T06:37:01.120Z</time>
      </trkpt>
      <trkpt lat="47.81277" lon="2.1434">
        <ele>97</ele>
        <time>2017-07-23T06:37:02.109Z</time>
      </trkpt>
      <trkpt lat="47.81281" lon="2.14323">
        <ele>97</ele>
        <time>2017-07-23T06:37:03.115Z</time>
      </trkpt>
      <trkpt lat="47.81281" lon="2.14323">
        <ele>97</ele>
        <time>2017-07-23T06:37:04.119Z</time>
      </trkpt>
      <trkpt lat="47.81286" lon="2.14305">
        <ele>97</ele>
        <time>2017-07-23T06:37:05.114Z</time>
      </trkpt>
      <trkpt lat="47.81286" lon="2.14305">
        <ele>97</ele>
        <time>2017-07-23T06:37:06.116Z</time>
      </trkpt>
      <trkpt lat="47.8129" lon="2.14288">
        <ele>97</ele>
        <time>2017-07-23T06:37:07.117Z</time>
      </trkpt>
      <trkpt lat="47.8129" lon="2.14288">
        <ele>97</ele>
        <time>2017-07-23T06:37:08.135Z</time>
      </trkpt>
      <trkpt lat="47.81294" lon="2.14271">
        <ele>97</ele>
        <time>2017-07-23T06:37:09.111Z</time>
      </trkpt>
      <trkpt lat="47.81294" lon="2.14271">
        <ele>97</ele>
        <time>2017-07-23T06:37:10.115Z</time>
      </trkpt>
      <trkpt lat="47.81298" lon="2.14255">
        <ele>97</ele>
        <time>2017-07-23T06:37:11.116Z</time>
      </trkpt>
      <trkpt lat="47.813" lon="2.14248">
        <ele>97</ele>
        <time>2017-07-23T06:37:12.119Z</time>
      </trkpt>
      <trkpt lat="47.81302" lon="2.1424">
        <ele>98</ele>
        <time>2017-07-23T06:37:13.110Z</time>
      </trkpt>
      <trkpt lat="47.81302" lon="2.1424">
        <ele>98</ele>
        <time>2017-07-23T06:37:14.113Z</time>
      </trkpt>
      <trkpt lat="47.81306" lon="2.14223">
        <ele>97</ele>
        <time>2017-07-23T06:37:15.119Z</time>
      </trkpt>
      <trkpt lat="47.81308" lon="2.14215">
        <ele>98</ele>
        <time>2017-07-23T06:37:16.121Z</time>
      </trkpt>
      <trkpt lat="47.81308" lon="2.14215">
        <ele>98</ele>
        <time>2017-07-23T06:37:17.116Z</time>
      </trkpt>
      <trkpt lat="47.81312" lon="2.14199">
        <ele>98</ele>
        <time>2017-07-23T06:37:18.118Z</time>
      </trkpt>
      <trkpt lat="47.81315" lon="2.1419">
        <ele>98</ele>
        <time>2017-07-23T06:37:19.112Z</time>
      </trkpt>
      <trkpt lat="47.81315" lon="2.1419">
        <ele>98</ele>
        <time>2017-07-23T06:37:20.123Z</time>
      </trkpt>
      <trkpt lat="47.81319" lon="2.14173">
        <ele>97</ele>
        <time>2017-07-23T06:37:21.124Z</time>
      </trkpt>
      <trkpt lat="47.81321" lon="2.14165">
        <ele>97</ele>
        <time>2017-07-23T06:37:22.109Z</time>
      </trkpt>
      <trkpt lat="47.81321" lon="2.14165">
        <ele>97</ele>
        <time>2017-07-23T06:37:23.119Z</time>
      </trkpt>
      <trkpt lat="47.81325" lon="2.14149">
        <ele>97</ele>
        <time>2017-07-23T06:37:24.113Z</time>
      </trkpt>
      <trkpt lat="47.81327" lon="2.14142">
        <ele>97</ele>
        <time>2017-07-23T06:37:25.115Z</time>
      </trkpt>
      <trkpt lat="47.81327" lon="2.14142">
        <ele>97</ele>
        <time>2017-07-23T06:37:26.120Z</time>
      </trkpt>
      <trkpt lat="47.81332" lon="2.14127">
        <ele>97</ele>
        <time>2017-07-23T06:37:27.119Z</time>
      </trkpt>
      <trkpt lat="47.81334" lon="2.14119">
        <ele>97</ele>
        <time>2017-07-23T06:37:28.120Z</time>
      </trkpt>
      <trkpt lat="47.81334" lon="2.14119">
        <ele>97</ele>
        <time>2017-07-23T06:37:29.116Z</time>
      </trkpt>
      <trkpt lat="47.81338" lon="2.14103">
        <ele>96</ele>
        <time>2017-07-23T06:37:30.118Z</time>
      </trkpt>
      <trkpt lat="47.8134" lon="2.14095">
        <ele>96</ele>
        <time>2017-07-23T06:37:31.111Z</time>
      </trkpt>
      <trkpt lat="47.8134" lon="2.14095">
        <ele>96</ele>
        <time>2017-07-23T06:37:32.147Z</time>
      </trkpt>
      <trkpt lat="47.81344" lon="2.14078">
        <ele>96</ele>
        <time>2017-07-23T06:37:33.108Z</time>
      </trkpt>
      <trkpt lat="47.81346" lon="2.14069">
        <ele>96</ele>
        <time>2017-07-23T06:37:34.126Z</time>
      </trkpt>
      <trkpt lat="47.81346" lon="2.14069">
        <ele>96</ele>
        <time>2017-07-23T06:37:35.122Z</time>
      </trkpt>
      <trkpt lat="47.8135" lon="2.14051">
        <ele>96</ele>
        <time>2017-07-23T06:37:36.121Z</time>
      </trkpt>
      <trkpt lat="47.81353" lon="2.14042">
        <ele>96</ele>
        <time>2017-07-23T06:37:37.118Z</time>
      </trkpt>
      <trkpt lat="47.81353" lon="2.14042">
        <ele>96</ele>
        <time>2017-07-23T06:37:38.145Z</time>
      </trkpt>
      <trkpt lat="47.81357" lon="2.14025">
        <ele>96</ele>
        <time>2017-07-23T06:37:39.108Z</time>
      </trkpt>
      <trkpt lat="47.81357" lon="2.14025">
        <ele>96</ele>
        <time>2017-07-23T06:37:40.139Z</time>
      </trkpt>
      <trkpt lat="47.81361" lon="2.14008">
        <ele>96</ele>
        <time>2017-07-23T06:37:41.148Z</time>
      </trkpt>
      <trkpt lat="47.81361" lon="2.14008">
        <ele>96</ele>
        <time>2017-07-23T06:37:42.143Z</time>
      </trkpt>
      <trkpt lat="47.81366" lon="2.13992">
        <ele>96</ele>
        <time>2017-07-23T06:37:43.148Z</time>
      </trkpt>
      <trkpt lat="47.81366" lon="2.13992">
        <ele>96</ele>
        <time>2017-07-23T06:37:44.145Z</time>
      </trkpt>
      <trkpt lat="47.8137" lon="2.13975">
        <ele>96</ele>
        <time>2017-07-23T06:37:45.147Z</time>
      </trkpt>
      <trkpt lat="47.8137" lon="2.13975">
        <ele>96</ele>
        <time>2017-07-23T06:37:46.145Z</time>
      </trkpt>
      <trkpt lat="47.81374" lon="2.13957">
        <ele>96</ele>
        <time>2017-07-23T06:37:47.146Z</time>
      </trkpt>
      <trkpt lat="47.81374" lon="2.13957">
        <ele>96</ele>
        <time>2017-07-23T06:37:48.141Z</time>
      </trkpt>
      <trkpt lat="47.81378" lon="2.1394">
        <ele>96</ele>
        <time>2017-07-23T06:37:49.109Z</time>
      </trkpt>
      <trkpt lat="47.81378" lon="2.1394">
        <ele>96</ele>
        <time>2017-07-23T06:37:50.123Z</time>
      </trkpt>
      <trkpt lat="47.81383" lon="2.13923">
        <ele>96</ele>
        <time>2017-07-23T06:37:51.118Z</time>
      </trkpt>
      <trkpt lat="47.81383" lon="2.13923">
        <ele>96</ele>
        <time>2017-07-23T06:37:52.110Z</time>
      </trkpt>
      <trkpt lat="47.81388" lon="2.13906">
        <ele>96</ele>
        <time>2017-07-23T06:37:53.145Z</time>
      </trkpt>
      <trkpt lat="47.8139" lon="2.13898">
        <ele>96</ele>
        <time>2017-07-23T06:37:54.148Z</time>
      </trkpt>
      <trkpt lat="47.81392" lon="2.1389">
        <ele>96</ele>
        <time>2017-07-23T06:37:55.108Z</time>
      </trkpt>
      <trkpt lat="47.81392" lon="2.1389">
        <ele>96</ele>
        <time>2017-07-23T06:37:56.144Z</time>
      </trkpt>
      <trkpt lat="47.81396" lon="2.13873">
        <ele>96</ele>
        <time>2017-07-23T06:37:57.135Z</time>
      </trkpt>
      <trkpt lat="47.81396" lon="2.13873">
        <ele>96</ele>
        <time>2017-07-23T06:37:58.142Z</time>
      </trkpt>
      <trkpt lat="47.814" lon="2.13856">
        <ele>95</ele>
        <time>2017-07-23T06:37:59.108Z</time>
      </trkpt>
      <trkpt lat="47.814" lon="2.13856">
        <ele>95</ele>
        <time>2017-07-23T06:38:00.142Z</time>
      </trkpt>
      <trkpt lat="47.81403" lon="2.13839">
        <ele>96</ele>
        <time>2017-07-23T06:38:01.109Z</time>
      </trkpt>
      <trkpt lat="47.81403" lon="2.13839">
        <ele>96</ele>
        <time>2017-07-23T06:38:02.144Z</time>
      </trkpt>
      <trkpt lat="47.81406" lon="2.13824">
        <ele>96</ele>
        <time>2017-07-23T06:38:03.147Z</time>
      </trkpt>
      <trkpt lat="47.81406" lon="2.13824">
        <ele>96</ele>
        <time>2017-07-23T06:38:04.144Z</time>
      </trkpt>
      <trkpt lat="47.81409" lon="2.1381">
        <ele>96</ele>
        <time>2017-07-23T06:38:05.108Z</time>
      </trkpt>
      <trkpt lat="47.81409" lon="2.1381">
        <ele>96</ele>
        <time>2017-07-23T06:38:06.140Z</time>
      </trkpt>
      <trkpt lat="47.81412" lon="2.13799">
        <ele>96</ele>
        <time>2017-07-23T06:38:07.148Z</time>
      </trkpt>
      <trkpt lat="47.81412" lon="2.13799">
        <ele>96</ele>
        <time>2017-07-23T06:38:08.142Z</time>
      </trkpt>
      <trkpt lat="47.81417" lon="2.13793">
        <ele>97</ele>
        <time>2017-07-23T06:38:09.146Z</time>
      </trkpt>
      <trkpt lat="47.81417" lon="2.13793">
        <ele>97</ele>
        <time>2017-07-23T06:38:10.138Z</time>
      </trkpt>
      <trkpt lat="47.81424" lon="2.13795">
        <ele>98</ele>
        <time>2017-07-23T06:38:11.144Z</time>
      </trkpt>
      <trkpt lat="47.81428" lon="2.13798">
        <ele>98</ele>
        <time>2017-07-23T06:38:12.147Z</time>
      </trkpt>
      <trkpt lat="47.81433" lon="2.13802">
        <ele>98</ele>
        <time>2017-07-23T06:38:13.148Z</time>
      </trkpt>
      <trkpt lat="47.81433" lon="2.13802">
        <ele>98</ele>
        <time>2017-07-23T06:38:14.142Z</time>
      </trkpt>
      <trkpt lat="47.81442" lon="2.1381">
        <ele>98</ele>
        <time>2017-07-23T06:38:15.147Z</time>
      </trkpt>
      <trkpt lat="47.81442" lon="2.1381">
        <ele>98</ele>
        <time>2017-07-23T06:38:16.141Z</time>
      </trkpt>
      <trkpt lat="47.81453" lon="2.13818">
        <ele>98</ele>
        <time>2017-07-23T06:38:17.144Z</time>
      </trkpt>
      <trkpt lat="47.81453" lon="2.13818">
        <ele>98</ele>
        <time>2017-07-23T06:38:18.141Z</time>
      </trkpt>
      <trkpt lat="47.81464" lon="2.13825">
        <ele>99</ele>
        <time>2017-07-23T06:38:19.108Z</time>
      </trkpt>
      <trkpt lat="47.81464" lon="2.13825">
        <ele>99</ele>
        <time>2017-07-23T06:38:20.139Z</time>
      </trkpt>
      <trkpt lat="47.81474" lon="2.13832">
        <ele>99</ele>
        <time>2017-07-23T06:38:21.146Z</time>
      </trkpt>
      <trkpt lat="47.81474" lon="2.13832">
        <ele>99</ele>
        <time>2017-07-23T06:38:22.141Z</time>
      </trkpt>
      <trkpt lat="47.81485" lon="2.13839">
        <ele>99</ele>
        <time>2017-07-23T06:38:23.147Z</time>
      </trkpt>
      <trkpt lat="47.81485" lon="2.13839">
        <ele>99</ele>
        <time>2017-07-23T06:38:24.141Z</time>
      </trkpt>
      <trkpt lat="47.81496" lon="2.13846">
        <ele>99</ele>
        <time>2017-07-23T06:38:25.148Z</time>
      </trkpt>
      <trkpt lat="47.81496" lon="2.13846">
        <ele>99</ele>
        <time>2017-07-23T06:38:26.143Z</time>
      </trkpt>
      <trkpt lat="47.81507" lon="2.13853">
        <ele>98</ele>
        <time>2017-07-23T06:38:27.109Z</time>
      </trkpt>
      <trkpt lat="47.81507" lon="2.13853">
        <ele>98</ele>
        <time>2017-07-23T06:38:28.142Z</time>
      </trkpt>
      <trkpt lat="47.81517" lon="2.1386">
        <ele>98</ele>
        <time>2017-07-23T06:38:29.148Z</time>
      </trkpt>
      <trkpt lat="47.81517" lon="2.1386">
        <ele>98</ele>
        <time>2017-07-23T06:38:30.138Z</time>
      </trkpt>
      <trkpt lat="47.81527" lon="2.13867">
        <ele>98</ele>
        <time>2017-07-23T06:38:31.145Z</time>
      </trkpt>
      <trkpt lat="47.81532" lon="2.13871">
        <ele>98</ele>
        <time>2017-07-23T06:38:32.147Z</time>
      </trkpt>
      <trkpt lat="47.81532" lon="2.13871">
        <ele>98</ele>
        <time>2017-07-23T06:38:33.143Z</time>
      </trkpt>
      <trkpt lat="47.81543" lon="2.13877">
        <ele>98</ele>
        <time>2017-07-23T06:38:34.143Z</time>
      </trkpt>
      <trkpt lat="47.81543" lon="2.13877">
        <ele>98</ele>
        <time>2017-07-23T06:38:35.143Z</time>
      </trkpt>
      <trkpt lat="47.81554" lon="2.13884">
        <ele>99</ele>
        <time>2017-07-23T06:38:36.108Z</time>
      </trkpt>
      <trkpt lat="47.81559" lon="2.13888">
        <ele>99</ele>
        <time>2017-07-23T06:38:37.109Z</time>
      </trkpt>
      <trkpt lat="47.81559" lon="2.13888">
        <ele>99</ele>
        <time>2017-07-23T06:38:38.141Z</time>
      </trkpt>
      <trkpt lat="47.8157" lon="2.13895">
        <ele>99</ele>
        <time>2017-07-23T06:38:39.148Z</time>
      </trkpt>
      <trkpt lat="47.8157" lon="2.13895">
        <ele>99</ele>
        <time>2017-07-23T06:38:40.137Z</time>
      </trkpt>
      <trkpt lat="47.8158" lon="2.13902">
        <ele>99</ele>
        <time>2017-07-23T06:38:41.145Z</time>
      </trkpt>
      <trkpt lat="47.81586" lon="2.13906">
        <ele>99</ele>
        <time>2017-07-23T06:38:42.146Z</time>
      </trkpt>
      <trkpt lat="47.81591" lon="2.13909">
        <ele>98</ele>
        <time>2017-07-23T06:38:43.108Z</time>
      </trkpt>
      <trkpt lat="47.81591" lon="2.13909">
        <ele>98</ele>
        <time>2017-07-23T06:38:44.146Z</time>
      </trkpt>
      <trkpt lat="47.81601" lon="2.13916">
        <ele>98</ele>
        <time>2017-07-23T06:38:45.108Z</time>
      </trkpt>
      <trkpt lat="47.81601" lon="2.13916">
        <ele>98</ele>
        <time>2017-07-23T06:38:46.110Z</time>
      </trkpt>
      <trkpt lat="47.81611" lon="2.13924">
        <ele>98</ele>
        <time>2017-07-23T06:38:47.143Z</time>
      </trkpt>
      <trkpt lat="47.81617" lon="2.13927">
        <ele>98</ele>
        <time>2017-07-23T06:38:48.148Z</time>
      </trkpt>
      <trkpt lat="47.81622" lon="2.13931">
        <ele>98</ele>
        <time>2017-07-23T06:38:49.109Z</time>
      </trkpt>
      <trkpt lat="47.81622" lon="2.13931">
        <ele>98</ele>
        <time>2017-07-23T06:38:50.124Z</time>
      </trkpt>
      <trkpt lat="47.81633" lon="2.13938">
        <ele>98</ele>
        <time>2017-07-23T06:38:51.113Z</time>
      </trkpt>
      <trkpt lat="47.81638" lon="2.13941">
        <ele>98</ele>
        <time>2017-07-23T06:38:52.148Z</time>
      </trkpt>
      <trkpt lat="47.81638" lon="2.13941">
        <ele>98</ele>
        <time>2017-07-23T06:38:53.141Z</time>
      </trkpt>
      <trkpt lat="47.81649" lon="2.13948">
        <ele>98</ele>
        <time>2017-07-23T06:38:54.146Z</time>
      </trkpt>
      <trkpt lat="47.81654" lon="2.13952">
        <ele>98</ele>
        <time>2017-07-23T06:38:55.108Z</time>
      </trkpt>
      <trkpt lat="47.81654" lon="2.13952">
        <ele>98</ele>
        <time>2017-07-23T06:38:56.144Z</time>
      </trkpt>
      <trkpt lat="47.81666" lon="2.13959">
        <ele>98</ele>
        <time>2017-07-23T06:38:57.108Z</time>
      </trkpt>
      <trkpt lat="47.81671" lon="2.13963">
        <ele>99</ele>
        <time>2017-07-23T06:38:58.108Z</time>
      </trkpt>
      <trkpt lat="47.81671" lon="2.13963">
        <ele>99</ele>
        <time>2017-07-23T06:38:59.144Z</time>
      </trkpt>
      <trkpt lat="47.81682" lon="2.1397">
        <ele>98</ele>
        <time>2017-07-23T06:39:00.141Z</time>
      </trkpt>
      <trkpt lat="47.81687" lon="2.13973">
        <ele>98</ele>
        <time>2017-07-23T06:39:01.127Z</time>
      </trkpt>
      <trkpt lat="47.81687" lon="2.13973">
        <ele>98</ele>
        <time>2017-07-23T06:39:02.124Z</time>
      </trkpt>
      <trkpt lat="47.81699" lon="2.1398">
        <ele>98</ele>
        <time>2017-07-23T06:39:03.118Z</time>
      </trkpt>
      <trkpt lat="47.81704" lon="2.13983">
        <ele>98</ele>
        <time>2017-07-23T06:39:04.110Z</time>
      </trkpt>
      <trkpt lat="47.81704" lon="2.13983">
        <ele>98</ele>
        <time>2017-07-23T06:39:05.141Z</time>
      </trkpt>
      <trkpt lat="47.81715" lon="2.1399">
        <ele>98</ele>
        <time>2017-07-23T06:39:06.144Z</time>
      </trkpt>
      <trkpt lat="47.81721" lon="2.13992">
        <ele>99</ele>
        <time>2017-07-23T06:39:07.148Z</time>
      </trkpt>
      <trkpt lat="47.81726" lon="2.13995">
        <ele>99</ele>
        <time>2017-07-23T06:39:08.108Z</time>
      </trkpt>
      <trkpt lat="47.81726" lon="2.13995">
        <ele>99</ele>
        <time>2017-07-23T06:39:09.142Z</time>
      </trkpt>
      <trkpt lat="47.81737" lon="2.14002">
        <ele>100</ele>
        <time>2017-07-23T06:39:10.139Z</time>
      </trkpt>
      <trkpt lat="47.81743" lon="2.14006">
        <ele>100</ele>
        <time>2017-07-23T06:39:11.148Z</time>
      </trkpt>
      <trkpt lat="47.81743" lon="2.14006">
        <ele>100</ele>
        <time>2017-07-23T06:39:12.142Z</time>
      </trkpt>
      <trkpt lat="47.81754" lon="2.14012">
        <ele>100</ele>
        <time>2017-07-23T06:39:13.108Z</time>
      </trkpt>
      <trkpt lat="47.81754" lon="2.14012">
        <ele>100</ele>
        <time>2017-07-23T06:39:14.143Z</time>
      </trkpt>
      <trkpt lat="47.81764" lon="2.14019">
        <ele>100</ele>
        <time>2017-07-23T06:39:15.147Z</time>
      </trkpt>
      <trkpt lat="47.81764" lon="2.14019">
        <ele>100</ele>
        <time>2017-07-23T06:39:16.141Z</time>
      </trkpt>
      <trkpt lat="47.81775" lon="2.14026">
        <ele>101</ele>
        <time>2017-07-23T06:39:17.108Z</time>
      </trkpt>
      <trkpt lat="47.81775" lon="2.14026">
        <ele>101</ele>
        <time>2017-07-23T06:39:18.141Z</time>
      </trkpt>
      <trkpt lat="47.81786" lon="2.14033">
        <ele>101</ele>
        <time>2017-07-23T06:39:19.147Z</time>
      </trkpt>
      <trkpt lat="47.81786" lon="2.14033">
        <ele>101</ele>
        <time>2017-07-23T06:39:20.137Z</time>
      </trkpt>
      <trkpt lat="47.81797" lon="2.1404">
        <ele>101</ele>
        <time>2017-07-23T06:39:21.147Z</time>
      </trkpt>
      <trkpt lat="47.81797" lon="2.1404">
        <ele>101</ele>
        <time>2017-07-23T06:39:22.141Z</time>
      </trkpt>
      <trkpt lat="47.81808" lon="2.14046">
        <ele>102</ele>
        <time>2017-07-23T06:39:23.147Z</time>
      </trkpt>
      <trkpt lat="47.81808" lon="2.14046">
        <ele>102</ele>
        <time>2017-07-23T06:39:24.138Z</time>
      </trkpt>
      <trkpt lat="47.81819" lon="2.14053">
        <ele>103</ele>
        <time>2017-07-23T06:39:25.108Z</time>
      </trkpt>
      <trkpt lat="47.81819" lon="2.14053">
        <ele>103</ele>
        <time>2017-07-23T06:39:26.120Z</time>
      </trkpt>
      <trkpt lat="47.8183" lon="2.14059">
        <ele>103</ele>
        <time>2017-07-23T06:39:27.113Z</time>
      </trkpt>
      <trkpt lat="47.81835" lon="2.14063">
        <ele>103</ele>
        <time>2017-07-23T06:39:28.143Z</time>
      </trkpt>
      <trkpt lat="47.81835" lon="2.14063">
        <ele>103</ele>
        <time>2017-07-23T06:39:29.135Z</time>
      </trkpt>
      <trkpt lat="47.81847" lon="2.14071">
        <ele>103</ele>
        <time>2017-07-23T06:39:30.135Z</time>
      </trkpt>
      <trkpt lat="47.81853" lon="2.14075">
        <ele>103</ele>
        <time>2017-07-23T06:39:31.124Z</time>
      </trkpt>
      <trkpt lat="47.81853" lon="2.14075">
        <ele>103</ele>
        <time>2017-07-23T06:39:32.124Z</time>
      </trkpt>
      <trkpt lat="47.81864" lon="2.14083">
        <ele>103</ele>
        <time>2017-07-23T06:39:33.115Z</time>
      </trkpt>
      <trkpt lat="47.81864" lon="2.14083">
        <ele>103</ele>
        <time>2017-07-23T06:39:34.112Z</time>
      </trkpt>
      <trkpt lat="47.81876" lon="2.1409">
        <ele>102</ele>
        <time>2017-07-23T06:39:35.144Z</time>
      </trkpt>
      <trkpt lat="47.81882" lon="2.14094">
        <ele>102</ele>
        <time>2017-07-23T06:39:36.108Z</time>
      </trkpt>
      <trkpt lat="47.81888" lon="2.14098">
        <ele>102</ele>
        <time>2017-07-23T06:39:37.109Z</time>
      </trkpt>
      <trkpt lat="47.81894" lon="2.14101">
        <ele>102</ele>
        <time>2017-07-23T06:39:38.146Z</time>
      </trkpt>
      <trkpt lat="47.81894" lon="2.14101">
        <ele>102</ele>
        <time>2017-07-23T06:39:39.138Z</time>
      </trkpt>
      <trkpt lat="47.81906" lon="2.14108">
        <ele>102</ele>
        <time>2017-07-23T06:39:40.141Z</time>
      </trkpt>
      <trkpt lat="47.81911" lon="2.14112">
        <ele>102</ele>
        <time>2017-07-23T06:39:41.121Z</time>
      </trkpt>
      <trkpt lat="47.81911" lon="2.14112">
        <ele>102</ele>
        <time>2017-07-23T06:39:42.110Z</time>
      </trkpt>
      <trkpt lat="47.81922" lon="2.14119">
        <ele>102</ele>
        <time>2017-07-23T06:39:43.108Z</time>
      </trkpt>
      <trkpt lat="47.81922" lon="2.14119">
        <ele>102</ele>
        <time>2017-07-23T06:39:44.141Z</time>
      </trkpt>
      <trkpt lat="47.81933" lon="2.14127">
        <ele>102</ele>
        <time>2017-07-23T06:39:45.108Z</time>
      </trkpt>
      <trkpt lat="47.81939" lon="2.14131">
        <ele>102</ele>
        <time>2017-07-23T06:39:46.110Z</time>
      </trkpt>
      <trkpt lat="47.81944" lon="2.14135">
        <ele>102</ele>
        <time>2017-07-23T06:39:47.114Z</time>
      </trkpt>
      <trkpt lat="47.81944" lon="2.14135">
        <ele>102</ele>
        <time>2017-07-23T06:39:48.144Z</time>
      </trkpt>
      <trkpt lat="47.81956" lon="2.14144">
        <ele>102</ele>
        <time>2017-07-23T06:39:49.108Z</time>
      </trkpt>
      <trkpt lat="47.81956" lon="2.14144">
        <ele>102</ele>
        <time>2017-07-23T06:39:50.138Z</time>
      </trkpt>
      <trkpt lat="47.81967" lon="2.14154">
        <ele>102</ele>
        <time>2017-07-23T06:39:51.121Z</time>
      </trkpt>
      <trkpt lat="47.81967" lon="2.14154">
        <ele>102</ele>
        <time>2017-07-23T06:39:52.118Z</time>
      </trkpt>
      <trkpt lat="47.81978" lon="2.14163">
        <ele>101</ele>
        <time>2017-07-23T06:39:53.109Z</time>
      </trkpt>
      <trkpt lat="47.81978" lon="2.14163">
        <ele>101</ele>
        <time>2017-07-23T06:39:54.143Z</time>
      </trkpt>
      <trkpt lat="47.81989" lon="2.14172">
        <ele>102</ele>
        <time>2017-07-23T06:39:55.109Z</time>
      </trkpt>
      <trkpt lat="47.81989" lon="2.14172">
        <ele>102</ele>
        <time>2017-07-23T06:39:56.143Z</time>
      </trkpt>
      <trkpt lat="47.81998" lon="2.14181">
        <ele>102</ele>
        <time>2017-07-23T06:39:57.108Z</time>
      </trkpt>
      <trkpt lat="47.82003" lon="2.14185">
        <ele>102</ele>
        <time>2017-07-23T06:39:58.148Z</time>
      </trkpt>
      <trkpt lat="47.82003" lon="2.14185">
        <ele>102</ele>
        <time>2017-07-23T06:39:59.142Z</time>
      </trkpt>
      <trkpt lat="47.82012" lon="2.14194">
        <ele>102</ele>
        <time>2017-07-23T06:40:00.144Z</time>
      </trkpt>
      <trkpt lat="47.82017" lon="2.14199">
        <ele>102</ele>
        <time>2017-07-23T06:40:01.115Z</time>
      </trkpt>
      <trkpt lat="47.82017" lon="2.14199">
        <ele>102</ele>
        <time>2017-07-23T06:40:02.108Z</time>
      </trkpt>
      <trkpt lat="47.82026" lon="2.14208">
        <ele>103</ele>
        <time>2017-07-23T06:40:03.148Z</time>
      </trkpt>
      <trkpt lat="47.82031" lon="2.14212">
        <ele>103</ele>
        <time>2017-07-23T06:40:04.148Z</time>
      </trkpt>
      <trkpt lat="47.82031" lon="2.14212">
        <ele>103</ele>
        <time>2017-07-23T06:40:05.142Z</time>
      </trkpt>
      <trkpt lat="47.82041" lon="2.14222">
        <ele>103</ele>
        <time>2017-07-23T06:40:06.147Z</time>
      </trkpt>
      <trkpt lat="47.82046" lon="2.14226">
        <ele>103</ele>
        <time>2017-07-23T06:40:07.108Z</time>
      </trkpt>
      <trkpt lat="47.82046" lon="2.14226">
        <ele>103</ele>
        <time>2017-07-23T06:40:08.142Z</time>
      </trkpt>
      <trkpt lat="47.82055" lon="2.14235">
        <ele>103</ele>
        <time>2017-07-23T06:40:09.147Z</time>
      </trkpt>
      <trkpt lat="47.82055" lon="2.14235">
        <ele>103</ele>
        <time>2017-07-23T06:40:10.138Z</time>
      </trkpt>
      <trkpt lat="47.82066" lon="2.14244">
        <ele>102</ele>
        <time>2017-07-23T06:40:11.147Z</time>
      </trkpt>
      <trkpt lat="47.82066" lon="2.14244">
        <ele>102</ele>
        <time>2017-07-23T06:40:12.144Z</time>
      </trkpt>
      <trkpt lat="47.82076" lon="2.14253">
        <ele>102</ele>
        <time>2017-07-23T06:40:13.108Z</time>
      </trkpt>
      <trkpt lat="47.82076" lon="2.14253">
        <ele>102</ele>
        <time>2017-07-23T06:40:14.142Z</time>
      </trkpt>
      <trkpt lat="47.82086" lon="2.14261">
        <ele>102</ele>
        <time>2017-07-23T06:40:15.148Z</time>
      </trkpt>
      <trkpt lat="47.82086" lon="2.14261">
        <ele>102</ele>
        <time>2017-07-23T06:40:16.143Z</time>
      </trkpt>
      <trkpt lat="47.82095" lon="2.1427">
        <ele>102</ele>
        <time>2017-07-23T06:40:17.147Z</time>
      </trkpt>
      <trkpt lat="47.821" lon="2.14273">
        <ele>102</ele>
        <time>2017-07-23T06:40:18.147Z</time>
      </trkpt>
      <trkpt lat="47.82104" lon="2.14277">
        <ele>102</ele>
        <time>2017-07-23T06:40:19.108Z</time>
      </trkpt>
      <trkpt lat="47.82104" lon="2.14277">
        <ele>102</ele>
        <time>2017-07-23T06:40:20.124Z</time>
      </trkpt>
      <trkpt lat="47.8211" lon="2.14282">
        <ele>102</ele>
        <time>2017-07-23T06:40:21.115Z</time>
      </trkpt>
      <trkpt lat="47.82112" lon="2.14284">
        <ele>101</ele>
        <time>2017-07-23T06:40:22.108Z</time>
      </trkpt>
      <trkpt lat="47.82112" lon="2.14284">
        <ele>101</ele>
        <time>2017-07-23T06:40:23.140Z</time>
      </trkpt>
      <trkpt lat="47.82117" lon="2.14288">
        <ele>101</ele>
        <time>2017-07-23T06:40:24.147Z</time>
      </trkpt>
      <trkpt lat="47.8212" lon="2.14291">
        <ele>101</ele>
        <time>2017-07-23T06:40:25.119Z</time>
      </trkpt>
      <trkpt lat="47.8212" lon="2.14291">
        <ele>101</ele>
        <time>2017-07-23T06:40:26.108Z</time>
      </trkpt>
      <trkpt lat="47.82128" lon="2.14297">
        <ele>101</ele>
        <time>2017-07-23T06:40:27.147Z</time>
      </trkpt>
      <trkpt lat="47.82132" lon="2.14301">
        <ele>101</ele>
        <time>2017-07-23T06:40:28.108Z</time>
      </trkpt>
      <trkpt lat="47.82132" lon="2.14301">
        <ele>101</ele>
        <time>2017-07-23T06:40:29.142Z</time>
      </trkpt>
      <trkpt lat="47.82142" lon="2.14309">
        <ele>101</ele>
        <time>2017-07-23T06:40:30.141Z</time>
      </trkpt>
      <trkpt lat="47.82147" lon="2.14314">
        <ele>101</ele>
        <time>2017-07-23T06:40:31.109Z</time>
      </trkpt>
      <trkpt lat="47.82147" lon="2.14314">
        <ele>101</ele>
        <time>2017-07-23T06:40:32.141Z</time>
      </trkpt>
      <trkpt lat="47.82156" lon="2.14324">
        <ele>102</ele>
        <time>2017-07-23T06:40:33.146Z</time>
      </trkpt>
      <trkpt lat="47.82156" lon="2.14324">
        <ele>102</ele>
        <time>2017-07-23T06:40:34.142Z</time>
      </trkpt>
      <trkpt lat="47.82165" lon="2.14335">
        <ele>102</ele>
        <time>2017-07-23T06:40:35.143Z</time>
      </trkpt>
      <trkpt lat="47.82169" lon="2.14341">
        <ele>102</ele>
        <time>2017-07-23T06:40:36.109Z</time>
      </trkpt>
      <trkpt lat="47.82173" lon="2.14347">
        <ele>102</ele>
        <time>2017-07-23T06:40:37.108Z</time>
      </trkpt>
      <trkpt lat="47.82173" lon="2.14347">
        <ele>102</ele>
        <time>2017-07-23T06:40:38.142Z</time>
      </trkpt>
      <trkpt lat="47.8218" lon="2.1436">
        <ele>102</ele>
        <time>2017-07-23T06:40:39.148Z</time>
      </trkpt>
      <trkpt lat="47.8218" lon="2.1436">
        <ele>102</ele>
        <time>2017-07-23T06:40:40.138Z</time>
      </trkpt>
      <trkpt lat="47.82187" lon="2.14373">
        <ele>102</ele>
        <time>2017-07-23T06:40:41.114Z</time>
      </trkpt>
      <trkpt lat="47.82187" lon="2.14373">
        <ele>102</ele>
        <time>2017-07-23T06:40:42.145Z</time>
      </trkpt>
      <trkpt lat="47.82195" lon="2.14386">
        <ele>102</ele>
        <time>2017-07-23T06:40:43.108Z</time>
      </trkpt>
      <trkpt lat="47.82195" lon="2.14386">
        <ele>102</ele>
        <time>2017-07-23T06:40:44.142Z</time>
      </trkpt>
      <trkpt lat="47.82203" lon="2.144">
        <ele>101</ele>
        <time>2017-07-23T06:40:45.108Z</time>
      </trkpt>
      <trkpt lat="47.82203" lon="2.144">
        <ele>101</ele>
        <time>2017-07-23T06:40:46.135Z</time>
      </trkpt>
      <trkpt lat="47.82212" lon="2.14411">
        <ele>101</ele>
        <time>2017-07-23T06:40:47.144Z</time>
      </trkpt>
      <trkpt lat="47.82212" lon="2.14411">
        <ele>101</ele>
        <time>2017-07-23T06:40:48.141Z</time>
      </trkpt>
      <trkpt lat="47.82222" lon="2.14422">
        <ele>101</ele>
        <time>2017-07-23T06:40:49.109Z</time>
      </trkpt>
      <trkpt lat="47.82222" lon="2.14422">
        <ele>101</ele>
        <time>2017-07-23T06:40:50.124Z</time>
      </trkpt>
      <trkpt lat="47.82232" lon="2.14433">
        <ele>102</ele>
        <time>2017-07-23T06:40:51.116Z</time>
      </trkpt>
      <trkpt lat="47.82238" lon="2.14439">
        <ele>102</ele>
        <time>2017-07-23T06:40:52.108Z</time>
      </trkpt>
      <trkpt lat="47.82238" lon="2.14439">
        <ele>102</ele>
        <time>2017-07-23T06:40:53.142Z</time>
      </trkpt>
      <trkpt lat="47.82248" lon="2.14449">
        <ele>102</ele>
        <time>2017-07-23T06:40:54.108Z</time>
      </trkpt>
      <trkpt lat="47.82248" lon="2.14449">
        <ele>102</ele>
        <time>2017-07-23T06:40:55.142Z</time>
      </trkpt>
      <trkpt lat="47.82259" lon="2.14461">
        <ele>102</ele>
        <time>2017-07-23T06:40:56.108Z</time>
      </trkpt>
      <trkpt lat="47.82264" lon="2.14467">
        <ele>102</ele>
        <time>2017-07-23T06:40:57.147Z</time>
      </trkpt>
      <trkpt lat="47.82264" lon="2.14467">
        <ele>102</ele>
        <time>2017-07-23T06:40:58.141Z</time>
      </trkpt>
      <trkpt lat="47.82274" lon="2.14479">
        <ele>102</ele>
        <time>2017-07-23T06:40:59.146Z</time>
      </trkpt>
      <trkpt lat="47.82274" lon="2.14479">
        <ele>102</ele>
        <time>2017-07-23T06:41:00.142Z</time>
      </trkpt>
      <trkpt lat="47.82283" lon="2.14492">
        <ele>102</ele>
        <time>2017-07-23T06:41:01.109Z</time>
      </trkpt>
      <trkpt lat="47.82283" lon="2.14492">
        <ele>102</ele>
        <time>2017-07-23T06:41:02.141Z</time>
      </trkpt>
      <trkpt lat="47.82292" lon="2.14506">
        <ele>102</ele>
        <time>2017-07-23T06:41:03.108Z</time>
      </trkpt>
      <trkpt lat="47.82292" lon="2.14506">
        <ele>102</ele>
        <time>2017-07-23T06:41:04.141Z</time>
      </trkpt>
      <trkpt lat="47.823" lon="2.14519">
        <ele>102</ele>
        <time>2017-07-23T06:41:05.146Z</time>
      </trkpt>
      <trkpt lat="47.82304" lon="2.14526">
        <ele>102</ele>
        <time>2017-07-23T06:41:06.147Z</time>
      </trkpt>
      <trkpt lat="47.82308" lon="2.14533">
        <ele>102</ele>
        <time>2017-07-23T06:41:07.109Z</time>
      </trkpt>
      <trkpt lat="47.82308" lon="2.14533">
        <ele>102</ele>
        <time>2017-07-23T06:41:08.141Z</time>
      </trkpt>
      <trkpt lat="47.82314" lon="2.14547">
        <ele>102</ele>
        <time>2017-07-23T06:41:09.108Z</time>
      </trkpt>
      <trkpt lat="47.82314" lon="2.14547">
        <ele>102</ele>
        <time>2017-07-23T06:41:10.137Z</time>
      </trkpt>
      <trkpt lat="47.82322" lon="2.14562">
        <ele>102</ele>
        <time>2017-07-23T06:41:11.127Z</time>
      </trkpt>
      <trkpt lat="47.82326" lon="2.14569">
        <ele>102</ele>
        <time>2017-07-23T06:41:12.118Z</time>
      </trkpt>
      <trkpt lat="47.82326" lon="2.14569">
        <ele>102</ele>
        <time>2017-07-23T06:41:13.146Z</time>
      </trkpt>
      <trkpt lat="47.82335" lon="2.14583">
        <ele>102</ele>
        <time>2017-07-23T06:41:14.146Z</time>
      </trkpt>
      <trkpt lat="47.8234" lon="2.1459">
        <ele>102</ele>
        <time>2017-07-23T06:41:15.146Z</time>
      </trkpt>
      <trkpt lat="47.8234" lon="2.1459">
        <ele>102</ele>
        <time>2017-07-23T06:41:16.141Z</time>
      </trkpt>
      <trkpt lat="47.82351" lon="2.14603">
        <ele>101</ele>
        <time>2017-07-23T06:41:17.113Z</time>
      </trkpt>
      <trkpt lat="47.82351" lon="2.14603">
        <ele>101</ele>
        <time>2017-07-23T06:41:18.144Z</time>
      </trkpt>
      <trkpt lat="47.82362" lon="2.14614">
        <ele>101</ele>
        <time>2017-07-23T06:41:19.109Z</time>
      </trkpt>
      <trkpt lat="47.82362" lon="2.14614">
        <ele>101</ele>
        <time>2017-07-23T06:41:20.140Z</time>
      </trkpt>
      <trkpt lat="47.82373" lon="2.14625">
        <ele>101</ele>
        <time>2017-07-23T06:41:21.116Z</time>
      </trkpt>
      <trkpt lat="47.82379" lon="2.14631">
        <ele>101</ele>
        <time>2017-07-23T06:41:22.147Z</time>
      </trkpt>
      <trkpt lat="47.82379" lon="2.14631">
        <ele>101</ele>
        <time>2017-07-23T06:41:23.141Z</time>
      </trkpt>
      <trkpt lat="47.82389" lon="2.14641">
        <ele>101</ele>
        <time>2017-07-23T06:41:24.108Z</time>
      </trkpt>
      <trkpt lat="47.82394" lon="2.14647">
        <ele>101</ele>
        <time>2017-07-23T06:41:25.108Z</time>
      </trkpt>
      <trkpt lat="47.82399" lon="2.14652">
        <ele>101</ele>
        <time>2017-07-23T06:41:26.146Z</time>
      </trkpt>
      <trkpt lat="47.82399" lon="2.14652">
        <ele>101</ele>
        <time>2017-07-23T06:41:27.145Z</time>
      </trkpt>
      <trkpt lat="47.8241" lon="2.14663">
        <ele>101</ele>
        <time>2017-07-23T06:41:28.148Z</time>
      </trkpt>
      <trkpt lat="47.8241" lon="2.14663">
        <ele>101</ele>
        <time>2017-07-23T06:41:29.142Z</time>
      </trkpt>
      <trkpt lat="47.8242" lon="2.14674">
        <ele>101</ele>
        <time>2017-07-23T06:41:30.141Z</time>
      </trkpt>
      <trkpt lat="47.82425" lon="2.1468">
        <ele>101</ele>
        <time>2017-07-23T06:41:31.109Z</time>
      </trkpt>
      <trkpt lat="47.82425" lon="2.1468">
        <ele>101</ele>
        <time>2017-07-23T06:41:32.141Z</time>
      </trkpt>
      <trkpt lat="47.82435" lon="2.14691">
        <ele>100</ele>
        <time>2017-07-23T06:41:33.147Z</time>
      </trkpt>
      <trkpt lat="47.8244" lon="2.14697">
        <ele>100</ele>
        <time>2017-07-23T06:41:34.148Z</time>
      </trkpt>
      <trkpt lat="47.82445" lon="2.14702">
        <ele>100</ele>
        <time>2017-07-23T06:41:35.108Z</time>
      </trkpt>
      <trkpt lat="47.82445" lon="2.14702">
        <ele>100</ele>
        <time>2017-07-23T06:41:36.143Z</time>
      </trkpt>
      <trkpt lat="47.82454" lon="2.1471">
        <ele>101</ele>
        <time>2017-07-23T06:41:37.108Z</time>
      </trkpt>
      <trkpt lat="47.82454" lon="2.1471">
        <ele>101</ele>
        <time>2017-07-23T06:41:38.114Z</time>
      </trkpt>
      <trkpt lat="47.82464" lon="2.14718">
        <ele>100</ele>
        <time>2017-07-23T06:41:39.148Z</time>
      </trkpt>
      <trkpt lat="47.82464" lon="2.14718">
        <ele>100</ele>
        <time>2017-07-23T06:41:40.137Z</time>
      </trkpt>
      <trkpt lat="47.82474" lon="2.14725">
        <ele>100</ele>
        <time>2017-07-23T06:41:41.127Z</time>
      </trkpt>
      <trkpt lat="47.82479" lon="2.14728">
        <ele>100</ele>
        <time>2017-07-23T06:41:42.112Z</time>
      </trkpt>
      <trkpt lat="47.82483" lon="2.14732">
        <ele>100</ele>
        <time>2017-07-23T06:41:43.113Z</time>
      </trkpt>
      <trkpt lat="47.82483" lon="2.14732">
        <ele>100</ele>
        <time>2017-07-23T06:41:44.146Z</time>
      </trkpt>
      <trkpt lat="47.82493" lon="2.14739">
        <ele>101</ele>
        <time>2017-07-23T06:41:45.146Z</time>
      </trkpt>
      <trkpt lat="47.82493" lon="2.14739">
        <ele>101</ele>
        <time>2017-07-23T06:41:46.144Z</time>
      </trkpt>
      <trkpt lat="47.82503" lon="2.14747">
        <ele>101</ele>
        <time>2017-07-23T06:41:47.109Z</time>
      </trkpt>
      <trkpt lat="47.82503" lon="2.14747">
        <ele>101</ele>
        <time>2017-07-23T06:41:48.142Z</time>
      </trkpt>
      <trkpt lat="47.82512" lon="2.14758">
        <ele>101</ele>
        <time>2017-07-23T06:41:49.109Z</time>
      </trkpt>
      <trkpt lat="47.82512" lon="2.14758">
        <ele>101</ele>
        <time>2017-07-23T06:41:50.139Z</time>
      </trkpt>
      <trkpt lat="47.82521" lon="2.14768">
        <ele>101</ele>
        <time>2017-07-23T06:41:51.148Z</time>
      </trkpt>
      <trkpt lat="47.82525" lon="2.14773">
        <ele>101</ele>
        <time>2017-07-23T06:41:52.108Z</time>
      </trkpt>
      <trkpt lat="47.82525" lon="2.14773">
        <ele>101</ele>
        <time>2017-07-23T06:41:53.141Z</time>
      </trkpt>
      <trkpt lat="47.82533" lon="2.14783">
        <ele>101</ele>
        <time>2017-07-23T06:41:54.148Z</time>
      </trkpt>
      <trkpt lat="47.82537" lon="2.14789">
        <ele>100</ele>
        <time>2017-07-23T06:41:55.109Z</time>
      </trkpt>
      <trkpt lat="47.82537" lon="2.14789">
        <ele>100</ele>
        <time>2017-07-23T06:41:56.134Z</time>
      </trkpt>
      <trkpt lat="47.82545" lon="2.14799">
        <ele>100</ele>
        <time>2017-07-23T06:41:57.123Z</time>
      </trkpt>
      <trkpt lat="47.82549" lon="2.14805">
        <ele>100</ele>
        <time>2017-07-23T06:41:58.113Z</time>
      </trkpt>
      <trkpt lat="47.82549" lon="2.14805">
        <ele>100</ele>
        <time>2017-07-23T06:41:59.143Z</time>
      </trkpt>
      <trkpt lat="47.82556" lon="2.14817">
        <ele>100</ele>
        <time>2017-07-23T06:42:00.110Z</time>
      </trkpt>
      <trkpt lat="47.82559" lon="2.14823">
        <ele>100</ele>
        <time>2017-07-23T06:42:01.109Z</time>
      </trkpt>
      <trkpt lat="47.82563" lon="2.1483">
        <ele>100</ele>
        <time>2017-07-23T06:42:02.108Z</time>
      </trkpt>
      <trkpt lat="47.82563" lon="2.1483">
        <ele>100</ele>
        <time>2017-07-23T06:42:03.144Z</time>
      </trkpt>
      <trkpt lat="47.82567" lon="2.14845">
        <ele>100</ele>
        <time>2017-07-23T06:42:04.147Z</time>
      </trkpt>
      <trkpt lat="47.82567" lon="2.14845">
        <ele>100</ele>
        <time>2017-07-23T06:42:05.141Z</time>
      </trkpt>
      <trkpt lat="47.82569" lon="2.14861">
        <ele>101</ele>
        <time>2017-07-23T06:42:06.143Z</time>
      </trkpt>
      <trkpt lat="47.82568" lon="2.14869">
        <ele>101</ele>
        <time>2017-07-23T06:42:07.108Z</time>
      </trkpt>
      <trkpt lat="47.82568" lon="2.14869">
        <ele>101</ele>
        <time>2017-07-23T06:42:08.141Z</time>
      </trkpt>
      <trkpt lat="47.82565" lon="2.14886">
        <ele>101</ele>
        <time>2017-07-23T06:42:09.148Z</time>
      </trkpt>
      <trkpt lat="47.82564" lon="2.14894">
        <ele>102</ele>
        <time>2017-07-23T06:42:10.108Z</time>
      </trkpt>
      <trkpt lat="47.82564" lon="2.14894">
        <ele>102</ele>
        <time>2017-07-23T06:42:11.142Z</time>
      </trkpt>
      <trkpt lat="47.82561" lon="2.1491">
        <ele>102</ele>
        <time>2017-07-23T06:42:12.144Z</time>
      </trkpt>
      <trkpt lat="47.82559" lon="2.14918">
        <ele>103</ele>
        <time>2017-07-23T06:42:13.108Z</time>
      </trkpt>
      <trkpt lat="47.82559" lon="2.14918">
        <ele>103</ele>
        <time>2017-07-23T06:42:14.115Z</time>
      </trkpt>
      <trkpt lat="47.82556" lon="2.14934">
        <ele>103</ele>
        <time>2017-07-23T06:42:15.148Z</time>
      </trkpt>
      <trkpt lat="47.82556" lon="2.14934">
        <ele>103</ele>
        <time>2017-07-23T06:42:16.142Z</time>
      </trkpt>
      <trkpt lat="47.82553" lon="2.14949">
        <ele>103</ele>
        <time>2017-07-23T06:42:17.108Z</time>
      </trkpt>
      <trkpt lat="47.82553" lon="2.14949">
        <ele>103</ele>
        <time>2017-07-23T06:42:18.142Z</time>
      </trkpt>
      <trkpt lat="47.82554" lon="2.14961">
        <ele>103</ele>
        <time>2017-07-23T06:42:19.109Z</time>
      </trkpt>
      <trkpt lat="47.82554" lon="2.14961">
        <ele>103</ele>
        <time>2017-07-23T06:42:20.142Z</time>
      </trkpt>
      <trkpt lat="47.82554" lon="2.14967">
        <ele>103</ele>
        <time>2017-07-23T06:42:21.148Z</time>
      </trkpt>
      <trkpt lat="47.82555" lon="2.1497">
        <ele>103</ele>
        <time>2017-07-23T06:42:22.147Z</time>
      </trkpt>
      <trkpt lat="47.82555" lon="2.1497">
        <ele>103</ele>
        <time>2017-07-23T06:42:23.142Z</time>
      </trkpt>
      <trkpt lat="47.82558" lon="2.14975">
        <ele>103</ele>
        <time>2017-07-23T06:42:24.147Z</time>
      </trkpt>
      <trkpt lat="47.8256" lon="2.14977">
        <ele>103</ele>
        <time>2017-07-23T06:42:25.110Z</time>
      </trkpt>
      <trkpt lat="47.8256" lon="2.14977">
        <ele>103</ele>
        <time>2017-07-23T06:42:26.146Z</time>
      </trkpt>
      <trkpt lat="47.82566" lon="2.14978">
        <ele>103</ele>
        <time>2017-07-23T06:42:27.147Z</time>
      </trkpt>
      <trkpt lat="47.82569" lon="2.14977">
        <ele>103</ele>
        <time>2017-07-23T06:42:28.148Z</time>
      </trkpt>
      <trkpt lat="47.82569" lon="2.14977">
        <ele>103</ele>
        <time>2017-07-23T06:42:29.142Z</time>
      </trkpt>
      <trkpt lat="47.82576" lon="2.14972">
        <ele>103</ele>
        <time>2017-07-23T06:42:30.142Z</time>
      </trkpt>
      <trkpt lat="47.8258" lon="2.1497">
        <ele>103</ele>
        <time>2017-07-23T06:42:31.109Z</time>
      </trkpt>
      <trkpt lat="47.8258" lon="2.1497">
        <ele>103</ele>
        <time>2017-07-23T06:42:32.142Z</time>
      </trkpt>
      <trkpt lat="47.82588" lon="2.14971">
        <ele>103</ele>
        <time>2017-07-23T06:42:33.147Z</time>
      </trkpt>
      <trkpt lat="47.82588" lon="2.14971">
        <ele>103</ele>
        <time>2017-07-23T06:42:34.141Z</time>
      </trkpt>
      <trkpt lat="47.82596" lon="2.1498">
        <ele>104</ele>
        <time>2017-07-23T06:42:35.118Z</time>
      </trkpt>
      <trkpt lat="47.82596" lon="2.1498">
        <ele>104</ele>
        <time>2017-07-23T06:42:36.147Z</time>
      </trkpt>
      <trkpt lat="47.82603" lon="2.14992">
        <ele>104</ele>
        <time>2017-07-23T06:42:37.109Z</time>
      </trkpt>
      <trkpt lat="47.82603" lon="2.14992">
        <ele>104</ele>
        <time>2017-07-23T06:42:38.142Z</time>
      </trkpt>
      <trkpt lat="47.8261" lon="2.15005">
        <ele>104</ele>
        <time>2017-07-23T06:42:39.108Z</time>
      </trkpt>
      <trkpt lat="47.82614" lon="2.15011">
        <ele>104</ele>
        <time>2017-07-23T06:42:40.108Z</time>
      </trkpt>
      <trkpt lat="47.82614" lon="2.15011">
        <ele>104</ele>
        <time>2017-07-23T06:42:41.145Z</time>
      </trkpt>
      <trkpt lat="47.82623" lon="2.15022">
        <ele>103</ele>
        <time>2017-07-23T06:42:42.114Z</time>
      </trkpt>
      <trkpt lat="47.82628" lon="2.15027">
        <ele>103</ele>
        <time>2017-07-23T06:42:43.109Z</time>
      </trkpt>
      <trkpt lat="47.82628" lon="2.15027">
        <ele>103</ele>
        <time>2017-07-23T06:42:44.142Z</time>
      </trkpt>
      <trkpt lat="47.8264" lon="2.15033">
        <ele>103</ele>
        <time>2017-07-23T06:42:45.148Z</time>
      </trkpt>
      <trkpt lat="47.8264" lon="2.15033">
        <ele>103</ele>
        <time>2017-07-23T06:42:46.147Z</time>
      </trkpt>
      <trkpt lat="47.82652" lon="2.15038">
        <ele>103</ele>
        <time>2017-07-23T06:42:47.108Z</time>
      </trkpt>
      <trkpt lat="47.82658" lon="2.15041">
        <ele>104</ele>
        <time>2017-07-23T06:42:48.108Z</time>
      </trkpt>
      <trkpt lat="47.82658" lon="2.15041">
        <ele>104</ele>
        <time>2017-07-23T06:42:49.142Z</time>
      </trkpt>
      <trkpt lat="47.82671" lon="2.15045">
        <ele>104</ele>
        <time>2017-07-23T06:42:50.119Z</time>
      </trkpt>
      <trkpt lat="47.82671" lon="2.15045">
        <ele>104</ele>
        <time>2017-07-23T06:42:51.119Z</time>
      </trkpt>
      <trkpt lat="47.82683" lon="2.15049">
        <ele>104</ele>
        <time>2017-07-23T06:42:52.125Z</time>
      </trkpt>
      <trkpt lat="47.82683" lon="2.15049">
        <ele>104</ele>
        <time>2017-07-23T06:42:53.141Z</time>
      </trkpt>
      <trkpt lat="47.82695" lon="2.15053">
        <ele>104</ele>
        <time>2017-07-23T06:42:54.147Z</time>
      </trkpt>
      <trkpt lat="47.82701" lon="2.15055">
        <ele>104</ele>
        <time>2017-07-23T06:42:55.109Z</time>
      </trkpt>
      <trkpt lat="47.82701" lon="2.15055">
        <ele>104</ele>
        <time>2017-07-23T06:42:56.141Z</time>
      </trkpt>
      <trkpt lat="47.82713" lon="2.1506">
        <ele>104</ele>
        <time>2017-07-23T06:42:57.109Z</time>
      </trkpt>
      <trkpt lat="47.82713" lon="2.1506">
        <ele>104</ele>
        <time>2017-07-23T06:42:58.141Z</time>
      </trkpt>
      <trkpt lat="47.82724" lon="2.15064">
        <ele>104</ele>
        <time>2017-07-23T06:42:59.146Z</time>
      </trkpt>
      <trkpt lat="47.8273" lon="2.15066">
        <ele>104</ele>
        <time>2017-07-23T06:43:00.108Z</time>
      </trkpt>
      <trkpt lat="47.8273" lon="2.15066">
        <ele>104</ele>
        <time>2017-07-23T06:43:01.142Z</time>
      </trkpt>
      <trkpt lat="47.82741" lon="2.15069">
        <ele>104</ele>
        <time>2017-07-23T06:43:02.147Z</time>
      </trkpt>
      <trkpt lat="47.82741" lon="2.15069">
        <ele>104</ele>
        <time>2017-07-23T06:43:03.142Z</time>
      </trkpt>
      <trkpt lat="47.82752" lon="2.15074">
        <ele>104</ele>
        <time>2017-07-23T06:43:04.147Z</time>
      </trkpt>
      <trkpt lat="47.82758" lon="2.15076">
        <ele>104</ele>
        <time>2017-07-23T06:43:05.147Z</time>
      </trkpt>
      <trkpt lat="47.82758" lon="2.15076">
        <ele>104</ele>
        <time>2017-07-23T06:43:06.142Z</time>
      </trkpt>
      <trkpt lat="47.8277" lon="2.15079">
        <ele>104</ele>
        <time>2017-07-23T06:43:07.108Z</time>
      </trkpt>
      <trkpt lat="47.8277" lon="2.15079">
        <ele>104</ele>
        <time>2017-07-23T06:43:08.142Z</time>
      </trkpt>
      <trkpt lat="47.82781" lon="2.15084">
        <ele>104</ele>
        <time>2017-07-23T06:43:09.148Z</time>
      </trkpt>
      <trkpt lat="47.82781" lon="2.15084">
        <ele>104</ele>
        <time>2017-07-23T06:43:10.114Z</time>
      </trkpt>
      <trkpt lat="47.82792" lon="2.15088">
        <ele>104</ele>
        <time>2017-07-23T06:43:11.109Z</time>
      </trkpt>
      <trkpt lat="47.82792" lon="2.15088">
        <ele>104</ele>
        <time>2017-07-23T06:43:12.143Z</time>
      </trkpt>
      <trkpt lat="47.82801" lon="2.15094">
        <ele>104</ele>
        <time>2017-07-23T06:43:13.110Z</time>
      </trkpt>
      <trkpt lat="47.82801" lon="2.15094">
        <ele>104</ele>
        <time>2017-07-23T06:43:14.143Z</time>
      </trkpt>
      <trkpt lat="47.8281" lon="2.15104">
        <ele>104</ele>
        <time>2017-07-23T06:43:15.108Z</time>
      </trkpt>
      <trkpt lat="47.82812" lon="2.1511">
        <ele>104</ele>
        <time>2017-07-23T06:43:16.108Z</time>
      </trkpt>
      <trkpt lat="47.82812" lon="2.1511">
        <ele>104</ele>
        <time>2017-07-23T06:43:17.142Z</time>
      </trkpt>
      <trkpt lat="47.82815" lon="2.15125">
        <ele>104</ele>
        <time>2017-07-23T06:43:18.148Z</time>
      </trkpt>
      <trkpt lat="47.82814" lon="2.15133">
        <ele>104</ele>
        <time>2017-07-23T06:43:19.109Z</time>
      </trkpt>
      <trkpt lat="47.82814" lon="2.15133">
        <ele>104</ele>
        <time>2017-07-23T06:43:20.143Z</time>
      </trkpt>
      <trkpt lat="47.82812" lon="2.15148">
        <ele>105</ele>
        <time>2017-07-23T06:43:21.145Z</time>
      </trkpt>
      <trkpt lat="47.82812" lon="2.15157">
        <ele>105</ele>
        <time>2017-07-23T06:43:22.147Z</time>
      </trkpt>
      <trkpt lat="47.82812" lon="2.15157">
        <ele>105</ele>
        <time>2017-07-23T06:43:23.142Z</time>
      </trkpt>
      <trkpt lat="47.82813" lon="2.15174">
        <ele>105</ele>
        <time>2017-07-23T06:43:24.109Z</time>
      </trkpt>
      <trkpt lat="47.82813" lon="2.15174">
        <ele>105</ele>
        <time>2017-07-23T06:43:25.143Z</time>
      </trkpt>
      <trkpt lat="47.82818" lon="2.15189">
        <ele>105</ele>
        <time>2017-07-23T06:43:26.147Z</time>
      </trkpt>
      <trkpt lat="47.82822" lon="2.15197">
        <ele>103</ele>
        <time>2017-07-23T06:43:27.148Z</time>
      </trkpt>
      <trkpt lat="47.82827" lon="2.15204">
        <ele>103</ele>
        <time>2017-07-23T06:43:28.148Z</time>
      </trkpt>
      <trkpt lat="47.82827" lon="2.15204">
        <ele>103</ele>
        <time>2017-07-23T06:43:29.142Z</time>
      </trkpt>
      <trkpt lat="47.82838" lon="2.15211">
        <ele>102</ele>
        <time>2017-07-23T06:43:30.144Z</time>
      </trkpt>
      <trkpt lat="47.82844" lon="2.15214">
        <ele>102</ele>
        <time>2017-07-23T06:43:31.121Z</time>
      </trkpt>
      <trkpt lat="47.82844" lon="2.15214">
        <ele>102</ele>
        <time>2017-07-23T06:43:32.110Z</time>
      </trkpt>
      <trkpt lat="47.82856" lon="2.1522">
        <ele>102</ele>
        <time>2017-07-23T06:43:33.147Z</time>
      </trkpt>
      <trkpt lat="47.82856" lon="2.1522">
        <ele>102</ele>
        <time>2017-07-23T06:43:34.142Z</time>
      </trkpt>
      <trkpt lat="47.82867" lon="2.15227">
        <ele>102</ele>
        <time>2017-07-23T06:43:35.147Z</time>
      </trkpt>
      <trkpt lat="47.82867" lon="2.15227">
        <ele>102</ele>
        <time>2017-07-23T06:43:36.142Z</time>
      </trkpt>
      <trkpt lat="47.82879" lon="2.15233">
        <ele>102</ele>
        <time>2017-07-23T06:43:37.109Z</time>
      </trkpt>
      <trkpt lat="47.82879" lon="2.15233">
        <ele>102</ele>
        <time>2017-07-23T06:43:38.142Z</time>
      </trkpt>
      <trkpt lat="47.82892" lon="2.1524">
        <ele>102</ele>
        <time>2017-07-23T06:43:39.108Z</time>
      </trkpt>
      <trkpt lat="47.82892" lon="2.1524">
        <ele>102</ele>
        <time>2017-07-23T06:43:40.139Z</time>
      </trkpt>
      <trkpt lat="47.82905" lon="2.15247">
        <ele>102</ele>
        <time>2017-07-23T06:43:41.148Z</time>
      </trkpt>
      <trkpt lat="47.82911" lon="2.1525">
        <ele>103</ele>
        <time>2017-07-23T06:43:42.108Z</time>
      </trkpt>
      <trkpt lat="47.82916" lon="2.15253">
        <ele>103</ele>
        <time>2017-07-23T06:43:43.110Z</time>
      </trkpt>
      <trkpt lat="47.82916" lon="2.15253">
        <ele>103</ele>
        <time>2017-07-23T06:43:44.142Z</time>
      </trkpt>
      <trkpt lat="47.82926" lon="2.15259">
        <ele>103</ele>
        <time>2017-07-23T06:43:45.124Z</time>
      </trkpt>
      <trkpt lat="47.82926" lon="2.15259">
        <ele>103</ele>
        <time>2017-07-23T06:43:46.113Z</time>
      </trkpt>
      <trkpt lat="47.82936" lon="2.15264">
        <ele>103</ele>
        <time>2017-07-23T06:43:47.144Z</time>
      </trkpt>
      <trkpt lat="47.82941" lon="2.15267">
        <ele>103</ele>
        <time>2017-07-23T06:43:48.147Z</time>
      </trkpt>
      <trkpt lat="47.82946" lon="2.15269">
        <ele>103</ele>
        <time>2017-07-23T06:43:49.109Z</time>
      </trkpt>
      <trkpt lat="47.82946" lon="2.15269">
        <ele>103</ele>
        <time>2017-07-23T06:43:50.144Z</time>
      </trkpt>
      <trkpt lat="47.82955" lon="2.15275">
        <ele>103</ele>
        <time>2017-07-23T06:43:51.148Z</time>
      </trkpt>
      <trkpt lat="47.82959" lon="2.15279">
        <ele>102</ele>
        <time>2017-07-23T06:43:52.147Z</time>
      </trkpt>
      <trkpt lat="47.82959" lon="2.15279">
        <ele>102</ele>
        <time>2017-07-23T06:43:53.142Z</time>
      </trkpt>
      <trkpt lat="47.82961" lon="2.15291">
        <ele>103</ele>
        <time>2017-07-23T06:43:54.148Z</time>
      </trkpt>
      <trkpt lat="47.82961" lon="2.15299">
        <ele>103</ele>
        <time>2017-07-23T06:43:55.111Z</time>
      </trkpt>
      <trkpt lat="47.82961" lon="2.15299">
        <ele>103</ele>
        <time>2017-07-23T06:43:56.142Z</time>
      </trkpt>
      <trkpt lat="47.82957" lon="2.15315">
        <ele>103</ele>
        <time>2017-07-23T06:43:57.148Z</time>
      </trkpt>
      <trkpt lat="47.82956" lon="2.15323">
        <ele>103</ele>
        <time>2017-07-23T06:43:58.108Z</time>
      </trkpt>
      <trkpt lat="47.82956" lon="2.15323">
        <ele>103</ele>
        <time>2017-07-23T06:43:59.142Z</time>
      </trkpt>
      <trkpt lat="47.82952" lon="2.15339">
        <ele>103</ele>
        <time>2017-07-23T06:44:00.145Z</time>
      </trkpt>
      <trkpt lat="47.8295" lon="2.15347">
        <ele>103</ele>
        <time>2017-07-23T06:44:01.147Z</time>
      </trkpt>
      <trkpt lat="47.8295" lon="2.15347">
        <ele>103</ele>
        <time>2017-07-23T06:44:02.142Z</time>
      </trkpt>
      <trkpt lat="47.82946" lon="2.15363">
        <ele>103</ele>
        <time>2017-07-23T06:44:03.147Z</time>
      </trkpt>
      <trkpt lat="47.82946" lon="2.15363">
        <ele>103</ele>
        <time>2017-07-23T06:44:04.142Z</time>
      </trkpt>
      <trkpt lat="47.82942" lon="2.15379">
        <ele>104</ele>
        <time>2017-07-23T06:44:05.148Z</time>
      </trkpt>
      <trkpt lat="47.82942" lon="2.15379">
        <ele>104</ele>
        <time>2017-07-23T06:44:06.142Z</time>
      </trkpt>
      <trkpt lat="47.82938" lon="2.15395">
        <ele>104</ele>
        <time>2017-07-23T06:44:07.147Z</time>
      </trkpt>
      <trkpt lat="47.82936" lon="2.15403">
        <ele>104</ele>
        <time>2017-07-23T06:44:08.124Z</time>
      </trkpt>
      <trkpt lat="47.82936" lon="2.15403">
        <ele>104</ele>
        <time>2017-07-23T06:44:09.114Z</time>
      </trkpt>
      <trkpt lat="47.82932" lon="2.1542">
        <ele>104</ele>
        <time>2017-07-23T06:44:10.108Z</time>
      </trkpt>
      <trkpt lat="47.82932" lon="2.1542">
        <ele>104</ele>
        <time>2017-07-23T06:44:11.144Z</time>
      </trkpt>
      <trkpt lat="47.82929" lon="2.15436">
        <ele>104</ele>
        <time>2017-07-23T06:44:12.147Z</time>
      </trkpt>
      <trkpt lat="47.82926" lon="2.15445">
        <ele>104</ele>
        <time>2017-07-23T06:44:13.111Z</time>
      </trkpt>
      <trkpt lat="47.82926" lon="2.15445">
        <ele>104</ele>
        <time>2017-07-23T06:44:14.142Z</time>
      </trkpt>
      <trkpt lat="47.82922" lon="2.15461">
        <ele>104</ele>
        <time>2017-07-23T06:44:15.148Z</time>
      </trkpt>
      <trkpt lat="47.82922" lon="2.15461">
        <ele>104</ele>
        <time>2017-07-23T06:44:16.143Z</time>
      </trkpt>
      <trkpt lat="47.82918" lon="2.15477">
        <ele>104</ele>
        <time>2017-07-23T06:44:17.108Z</time>
      </trkpt>
      <trkpt lat="47.82917" lon="2.15485">
        <ele>104</ele>
        <time>2017-07-23T06:44:18.108Z</time>
      </trkpt>
      <trkpt lat="47.82917" lon="2.15485">
        <ele>104</ele>
        <time>2017-07-23T06:44:19.143Z</time>
      </trkpt>
      <trkpt lat="47.82913" lon="2.15501">
        <ele>104</ele>
        <time>2017-07-23T06:44:20.140Z</time>
      </trkpt>
      <trkpt lat="47.82912" lon="2.15509">
        <ele>104</ele>
        <time>2017-07-23T06:44:21.109Z</time>
      </trkpt>
      <trkpt lat="47.82912" lon="2.15509">
        <ele>104</ele>
        <time>2017-07-23T06:44:22.141Z</time>
      </trkpt>
      <trkpt lat="47.8291" lon="2.15526">
        <ele>104</ele>
        <time>2017-07-23T06:44:23.148Z</time>
      </trkpt>
      <trkpt lat="47.8291" lon="2.15526">
        <ele>104</ele>
        <time>2017-07-23T06:44:24.142Z</time>
      </trkpt>
      <trkpt lat="47.82911" lon="2.15543">
        <ele>105</ele>
        <time>2017-07-23T06:44:25.109Z</time>
      </trkpt>
      <trkpt lat="47.82911" lon="2.15543">
        <ele>105</ele>
        <time>2017-07-23T06:44:26.143Z</time>
      </trkpt>
      <trkpt lat="47.82913" lon="2.15561">
        <ele>105</ele>
        <time>2017-07-23T06:44:27.108Z</time>
      </trkpt>
      <trkpt lat="47.82913" lon="2.1557">
        <ele>105</ele>
        <time>2017-07-23T06:44:28.108Z</time>
      </trkpt>
      <trkpt lat="47.82913" lon="2.1557">
        <ele>105</ele>
        <time>2017-07-23T06:44:29.143Z</time>
      </trkpt>
      <trkpt lat="47.82914" lon="2.15588">
        <ele>105</ele>
        <time>2017-07-23T06:44:30.147Z</time>
      </trkpt>
      <trkpt lat="47.82914" lon="2.15588">
        <ele>105</ele>
        <time>2017-07-23T06:44:31.144Z</time>
      </trkpt>
      <trkpt lat="47.82915" lon="2.15604">
        <ele>105</ele>
        <time>2017-07-23T06:44:32.148Z</time>
      </trkpt>
      <trkpt lat="47.82915" lon="2.15613">
        <ele>105</ele>
        <time>2017-07-23T06:44:33.147Z</time>
      </trkpt>
      <trkpt lat="47.82915" lon="2.15613">
        <ele>105</ele>
        <time>2017-07-23T06:44:34.143Z</time>
      </trkpt>
      <trkpt lat="47.82916" lon="2.15631">
        <ele>106</ele>
        <time>2017-07-23T06:44:35.148Z</time>
      </trkpt>
      <trkpt lat="47.82916" lon="2.15631">
        <ele>106</ele>
        <time>2017-07-23T06:44:36.143Z</time>
      </trkpt>
      <trkpt lat="47.82917" lon="2.15649">
        <ele>105</ele>
        <time>2017-07-23T06:44:37.109Z</time>
      </trkpt>
      <trkpt lat="47.82917" lon="2.15649">
        <ele>105</ele>
        <time>2017-07-23T06:44:38.111Z</time>
      </trkpt>
      <trkpt lat="47.82918" lon="2.15667">
        <ele>105</ele>
        <time>2017-07-23T06:44:39.109Z</time>
      </trkpt>
      <trkpt lat="47.82918" lon="2.15667">
        <ele>105</ele>
        <time>2017-07-23T06:44:40.141Z</time>
      </trkpt>
      <trkpt lat="47.82919" lon="2.15686">
        <ele>105</ele>
        <time>2017-07-23T06:44:41.145Z</time>
      </trkpt>
      <trkpt lat="47.82918" lon="2.15695">
        <ele>105</ele>
        <time>2017-07-23T06:44:42.148Z</time>
      </trkpt>
      <trkpt lat="47.82918" lon="2.15703">
        <ele>105</ele>
        <time>2017-07-23T06:44:43.109Z</time>
      </trkpt>
      <trkpt lat="47.82918" lon="2.15703">
        <ele>105</ele>
        <time>2017-07-23T06:44:44.142Z</time>
      </trkpt>
      <trkpt lat="47.82914" lon="2.15719">
        <ele>105</ele>
        <time>2017-07-23T06:44:45.147Z</time>
      </trkpt>
      <trkpt lat="47.82914" lon="2.15719">
        <ele>105</ele>
        <time>2017-07-23T06:44:46.144Z</time>
      </trkpt>
      <trkpt lat="47.82908" lon="2.15734">
        <ele>105</ele>
        <time>2017-07-23T06:44:47.114Z</time>
      </trkpt>
      <trkpt lat="47.82905" lon="2.15741">
        <ele>105</ele>
        <time>2017-07-23T06:44:48.109Z</time>
      </trkpt>
      <trkpt lat="47.82901" lon="2.15748">
        <ele>105</ele>
        <time>2017-07-23T06:44:49.109Z</time>
      </trkpt>
      <trkpt lat="47.82901" lon="2.15748">
        <ele>105</ele>
        <time>2017-07-23T06:44:50.143Z</time>
      </trkpt>
      <trkpt lat="47.82893" lon="2.15761">
        <ele>105</ele>
        <time>2017-07-23T06:44:51.145Z</time>
      </trkpt>
      <trkpt lat="47.82889" lon="2.15768">
        <ele>105</ele>
        <time>2017-07-23T06:44:52.109Z</time>
      </trkpt>
      <trkpt lat="47.82889" lon="2.15768">
        <ele>105</ele>
        <time>2017-07-23T06:44:53.142Z</time>
      </trkpt>
      <trkpt lat="47.82882" lon="2.15783">
        <ele>104</ele>
        <time>2017-07-23T06:44:54.109Z</time>
      </trkpt>
      <trkpt lat="47.8288" lon="2.15791">
        <ele>104</ele>
        <time>2017-07-23T06:44:55.110Z</time>
      </trkpt>
      <trkpt lat="47.8288" lon="2.15791">
        <ele>104</ele>
        <time>2017-07-23T06:44:56.143Z</time>
      </trkpt>
      <trkpt lat="47.82879" lon="2.15809">
        <ele>104</ele>
        <time>2017-07-23T06:44:57.108Z</time>
      </trkpt>
      <trkpt lat="47.82879" lon="2.15809">
        <ele>104</ele>
        <time>2017-07-23T06:44:58.146Z</time>
      </trkpt>
      <trkpt lat="47.8288" lon="2.15826">
        <ele>103</ele>
        <time>2017-07-23T06:44:59.147Z</time>
      </trkpt>
      <trkpt lat="47.8288" lon="2.15826">
        <ele>103</ele>
        <time>2017-07-23T06:45:00.143Z</time>
      </trkpt>
      <trkpt lat="47.82884" lon="2.15844">
        <ele>103</ele>
        <time>2017-07-23T06:45:01.124Z</time>
      </trkpt>
      <trkpt lat="47.82884" lon="2.15844">
        <ele>103</ele>
        <time>2017-07-23T06:45:02.120Z</time>
      </trkpt>
      <trkpt lat="47.82889" lon="2.15862">
        <ele>103</ele>
        <time>2017-07-23T06:45:03.108Z</time>
      </trkpt>
      <trkpt lat="47.82889" lon="2.15862">
        <ele>103</ele>
        <time>2017-07-23T06:45:04.143Z</time>
      </trkpt>
      <trkpt lat="47.82893" lon="2.15879">
        <ele>104</ele>
        <time>2017-07-23T06:45:05.108Z</time>
      </trkpt>
      <trkpt lat="47.82895" lon="2.15888">
        <ele>104</ele>
        <time>2017-07-23T06:45:06.122Z</time>
      </trkpt>
      <trkpt lat="47.82895" lon="2.15888">
        <ele>104</ele>
        <time>2017-07-23T06:45:07.111Z</time>
      </trkpt>
      <trkpt lat="47.82898" lon="2.15905">
        <ele>104</ele>
        <time>2017-07-23T06:45:08.147Z</time>
      </trkpt>
      <trkpt lat="47.829" lon="2.15914">
        <ele>104</ele>
        <time>2017-07-23T06:45:09.117Z</time>
      </trkpt>
      <trkpt lat="47.829" lon="2.15914">
        <ele>104</ele>
        <time>2017-07-23T06:45:10.108Z</time>
      </trkpt>
      <trkpt lat="47.82904" lon="2.15932">
        <ele>104</ele>
        <time>2017-07-23T06:45:11.110Z</time>
      </trkpt>
      <trkpt lat="47.82906" lon="2.1594">
        <ele>104</ele>
        <time>2017-07-23T06:45:12.109Z</time>
      </trkpt>
      <trkpt lat="47.82908" lon="2.15949">
        <ele>104</ele>
        <time>2017-07-23T06:45:13.115Z</time>
      </trkpt>
      <trkpt lat="47.82908" lon="2.15949">
        <ele>104</ele>
        <time>2017-07-23T06:45:14.145Z</time>
      </trkpt>
      <trkpt lat="47.82912" lon="2.15966">
        <ele>105</ele>
        <time>2017-07-23T06:45:15.108Z</time>
      </trkpt>
      <trkpt lat="47.82915" lon="2.15974">
        <ele>105</ele>
        <time>2017-07-23T06:45:16.110Z</time>
      </trkpt>
      <trkpt lat="47.82915" lon="2.15974">
        <ele>105</ele>
        <time>2017-07-23T06:45:17.143Z</time>
      </trkpt>
      <trkpt lat="47.8292" lon="2.15991">
        <ele>104</ele>
        <time>2017-07-23T06:45:18.147Z</time>
      </trkpt>
      <trkpt lat="47.82923" lon="2.15999">
        <ele>105</ele>
        <time>2017-07-23T06:45:19.109Z</time>
      </trkpt>
      <trkpt lat="47.82923" lon="2.15999">
        <ele>105</ele>
        <time>2017-07-23T06:45:20.142Z</time>
      </trkpt>
      <trkpt lat="47.82928" lon="2.16014">
        <ele>105</ele>
        <time>2017-07-23T06:45:21.108Z</time>
      </trkpt>
      <trkpt lat="47.82928" lon="2.16014">
        <ele>105</ele>
        <time>2017-07-23T06:45:22.143Z</time>
      </trkpt>
      <trkpt lat="47.82934" lon="2.16031">
        <ele>105</ele>
        <time>2017-07-23T06:45:23.147Z</time>
      </trkpt>
      <trkpt lat="47.82936" lon="2.1604">
        <ele>105</ele>
        <time>2017-07-23T06:45:24.108Z</time>
      </trkpt>
      <trkpt lat="47.82939" lon="2.16048">
        <ele>105</ele>
        <time>2017-07-23T06:45:25.147Z</time>
      </trkpt>
      <trkpt lat="47.82939" lon="2.16048">
        <ele>105</ele>
        <time>2017-07-23T06:45:26.143Z</time>
      </trkpt>
      <trkpt lat="47.82944" lon="2.16064">
        <ele>105</ele>
        <time>2017-07-23T06:45:27.108Z</time>
      </trkpt>
      <trkpt lat="47.82944" lon="2.16064">
        <ele>105</ele>
        <time>2017-07-23T06:45:28.142Z</time>
      </trkpt>
      <trkpt lat="47.82949" lon="2.1608">
        <ele>105</ele>
        <time>2017-07-23T06:45:29.148Z</time>
      </trkpt>
      <trkpt lat="47.82949" lon="2.1608">
        <ele>105</ele>
        <time>2017-07-23T06:45:30.142Z</time>
      </trkpt>
      <trkpt lat="47.82954" lon="2.16097">
        <ele>105</ele>
        <time>2017-07-23T06:45:31.110Z</time>
      </trkpt>
      <trkpt lat="47.82954" lon="2.16097">
        <ele>105</ele>
        <time>2017-07-23T06:45:32.141Z</time>
      </trkpt>
      <trkpt lat="47.82959" lon="2.16113">
        <ele>105</ele>
        <time>2017-07-23T06:45:33.108Z</time>
      </trkpt>
      <trkpt lat="47.82962" lon="2.16121">
        <ele>105</ele>
        <time>2017-07-23T06:45:34.109Z</time>
      </trkpt>
      <trkpt lat="47.82962" lon="2.16121">
        <ele>105</ele>
        <time>2017-07-23T06:45:35.143Z</time>
      </trkpt>
      <trkpt lat="47.82967" lon="2.16138">
        <ele>105</ele>
        <time>2017-07-23T06:45:36.144Z</time>
      </trkpt>
      <trkpt lat="47.8297" lon="2.16147">
        <ele>105</ele>
        <time>2017-07-23T06:45:37.109Z</time>
      </trkpt>
      <trkpt lat="47.8297" lon="2.16147">
        <ele>105</ele>
        <time>2017-07-23T06:45:38.141Z</time>
      </trkpt>
      <trkpt lat="47.82975" lon="2.16163">
        <ele>105</ele>
        <time>2017-07-23T06:45:39.126Z</time>
      </trkpt>
      <trkpt lat="47.82975" lon="2.16163">
        <ele>105</ele>
        <time>2017-07-23T06:45:40.130Z</time>
      </trkpt>
      <trkpt lat="47.82981" lon="2.16179">
        <ele>105</ele>
        <time>2017-07-23T06:45:41.119Z</time>
      </trkpt>
      <trkpt lat="47.82981" lon="2.16179">
        <ele>105</ele>
        <time>2017-07-23T06:45:42.108Z</time>
      </trkpt>
      <trkpt lat="47.82985" lon="2.16196">
        <ele>105</ele>
        <time>2017-07-23T06:45:43.109Z</time>
      </trkpt>
      <trkpt lat="47.82985" lon="2.16196">
        <ele>105</ele>
        <time>2017-07-23T06:45:44.143Z</time>
      </trkpt>
      <trkpt lat="47.8299" lon="2.16213">
        <ele>105</ele>
        <time>2017-07-23T06:45:45.148Z</time>
      </trkpt>
      <trkpt lat="47.8299" lon="2.16213">
        <ele>105</ele>
        <time>2017-07-23T06:45:46.143Z</time>
      </trkpt>
      <trkpt lat="47.82995" lon="2.1623">
        <ele>105</ele>
        <time>2017-07-23T06:45:47.120Z</time>
      </trkpt>
      <trkpt lat="47.82995" lon="2.1623">
        <ele>105</ele>
        <time>2017-07-23T06:45:48.109Z</time>
      </trkpt>
      <trkpt lat="47.82999" lon="2.16248">
        <ele>105</ele>
        <time>2017-07-23T06:45:49.109Z</time>
      </trkpt>
      <trkpt lat="47.82999" lon="2.16248">
        <ele>105</ele>
        <time>2017-07-23T06:45:50.145Z</time>
      </trkpt>
      <trkpt lat="47.83002" lon="2.16266">
        <ele>105</ele>
        <time>2017-07-23T06:45:51.147Z</time>
      </trkpt>
      <trkpt lat="47.83004" lon="2.16275">
        <ele>105</ele>
        <time>2017-07-23T06:45:52.108Z</time>
      </trkpt>
      <trkpt lat="47.83004" lon="2.16275">
        <ele>105</ele>
        <time>2017-07-23T06:45:53.144Z</time>
      </trkpt>
      <trkpt lat="47.83007" lon="2.16293">
        <ele>105</ele>
        <time>2017-07-23T06:45:54.109Z</time>
      </trkpt>
      <trkpt lat="47.83009" lon="2.16302">
        <ele>104</ele>
        <time>2017-07-23T06:45:55.109Z</time>
      </trkpt>
      <trkpt lat="47.83009" lon="2.16302">
        <ele>104</ele>
        <time>2017-07-23T06:45:56.143Z</time>
      </trkpt>
      <trkpt lat="47.83013" lon="2.1632">
        <ele>104</ele>
        <time>2017-07-23T06:45:57.108Z</time>
      </trkpt>
      <trkpt lat="47.83013" lon="2.1632">
        <ele>104</ele>
        <time>2017-07-23T06:45:58.144Z</time>
      </trkpt>
      <trkpt lat="47.83019" lon="2.16337">
        <ele>104</ele>
        <time>2017-07-23T06:45:59.108Z</time>
      </trkpt>
      <trkpt lat="47.83019" lon="2.16337">
        <ele>104</ele>
        <time>2017-07-23T06:46:00.143Z</time>
      </trkpt>
      <trkpt lat="47.83026" lon="2.16353">
        <ele>103</ele>
        <time>2017-07-23T06:46:01.129Z</time>
      </trkpt>
      <trkpt lat="47.83026" lon="2.16353">
        <ele>103</ele>
        <time>2017-07-23T06:46:02.118Z</time>
      </trkpt>
      <trkpt lat="47.83032" lon="2.1637">
        <ele>103</ele>
        <time>2017-07-23T06:46:03.147Z</time>
      </trkpt>
      <trkpt lat="47.83032" lon="2.1637">
        <ele>103</ele>
        <time>2017-07-23T06:46:04.142Z</time>
      </trkpt>
      <trkpt lat="47.83038" lon="2.16386">
        <ele>103</ele>
        <time>2017-07-23T06:46:05.108Z</time>
      </trkpt>
      <trkpt lat="47.83038" lon="2.16386">
        <ele>103</ele>
        <time>2017-07-23T06:46:06.141Z</time>
      </trkpt>
      <trkpt lat="47.83044" lon="2.16404">
        <ele>103</ele>
        <time>2017-07-23T06:46:07.109Z</time>
      </trkpt>
      <trkpt lat="47.83044" lon="2.16404">
        <ele>103</ele>
        <time>2017-07-23T06:46:08.143Z</time>
      </trkpt>
      <trkpt lat="47.83048" lon="2.16422">
        <ele>103</ele>
        <time>2017-07-23T06:46:09.108Z</time>
      </trkpt>
      <trkpt lat="47.83048" lon="2.16422">
        <ele>103</ele>
        <time>2017-07-23T06:46:10.142Z</time>
      </trkpt>
      <trkpt lat="47.83052" lon="2.16441">
        <ele>103</ele>
        <time>2017-07-23T06:46:11.115Z</time>
      </trkpt>
      <trkpt lat="47.83053" lon="2.16451">
        <ele>103</ele>
        <time>2017-07-23T06:46:12.109Z</time>
      </trkpt>
      <trkpt lat="47.83054" lon="2.16461">
        <ele>103</ele>
        <time>2017-07-23T06:46:13.109Z</time>
      </trkpt>
      <trkpt lat="47.83054" lon="2.16461">
        <ele>103</ele>
        <time>2017-07-23T06:46:14.143Z</time>
      </trkpt>
      <trkpt lat="47.83056" lon="2.1648">
        <ele>103</ele>
        <time>2017-07-23T06:46:15.108Z</time>
      </trkpt>
      <trkpt lat="47.83056" lon="2.1648">
        <ele>103</ele>
        <time>2017-07-23T06:46:16.143Z</time>
      </trkpt>
      <trkpt lat="47.83057" lon="2.16499">
        <ele>103</ele>
        <time>2017-07-23T06:46:17.109Z</time>
      </trkpt>
      <trkpt lat="47.83057" lon="2.16499">
        <ele>103</ele>
        <time>2017-07-23T06:46:18.144Z</time>
      </trkpt>
      <trkpt lat="47.83058" lon="2.16518">
        <ele>103</ele>
        <time>2017-07-23T06:46:19.110Z</time>
      </trkpt>
      <trkpt lat="47.83058" lon="2.16518">
        <ele>103</ele>
        <time>2017-07-23T06:46:20.142Z</time>
      </trkpt>
      <trkpt lat="47.83059" lon="2.16537">
        <ele>103</ele>
        <time>2017-07-23T06:46:21.109Z</time>
      </trkpt>
      <trkpt lat="47.83058" lon="2.16547">
        <ele>103</ele>
        <time>2017-07-23T06:46:22.108Z</time>
      </trkpt>
      <trkpt lat="47.83058" lon="2.16547">
        <ele>103</ele>
        <time>2017-07-23T06:46:23.143Z</time>
      </trkpt>
      <trkpt lat="47.83057" lon="2.16565">
        <ele>103</ele>
        <time>2017-07-23T06:46:24.108Z</time>
      </trkpt>
      <trkpt lat="47.83055" lon="2.16575">
        <ele>103</ele>
        <time>2017-07-23T06:46:25.110Z</time>
      </trkpt>
      <trkpt lat="47.83055" lon="2.16575">
        <ele>103</ele>
        <time>2017-07-23T06:46:26.142Z</time>
      </trkpt>
      <trkpt lat="47.83052" lon="2.16593">
        <ele>103</ele>
        <time>2017-07-23T06:46:27.147Z</time>
      </trkpt>
      <trkpt lat="47.8305" lon="2.16602">
        <ele>103</ele>
        <time>2017-07-23T06:46:28.109Z</time>
      </trkpt>
      <trkpt lat="47.8305" lon="2.16602">
        <ele>103</ele>
        <time>2017-07-23T06:46:29.115Z</time>
      </trkpt>
      <trkpt lat="47.83049" lon="2.16621">
        <ele>103</ele>
        <time>2017-07-23T06:46:30.122Z</time>
      </trkpt>
      <trkpt lat="47.83049" lon="2.1663">
        <ele>103</ele>
        <time>2017-07-23T06:46:31.111Z</time>
      </trkpt>
      <trkpt lat="47.83049" lon="2.1663">
        <ele>103</ele>
        <time>2017-07-23T06:46:32.143Z</time>
      </trkpt>
      <trkpt lat="47.83052" lon="2.16649">
        <ele>103</ele>
        <time>2017-07-23T06:46:33.108Z</time>
      </trkpt>
      <trkpt lat="47.83054" lon="2.16659">
        <ele>103</ele>
        <time>2017-07-23T06:46:34.108Z</time>
      </trkpt>
      <trkpt lat="47.83056" lon="2.16667">
        <ele>103</ele>
        <time>2017-07-23T06:46:35.122Z</time>
      </trkpt>
      <trkpt lat="47.83056" lon="2.16667">
        <ele>103</ele>
        <time>2017-07-23T06:46:36.110Z</time>
      </trkpt>
      <trkpt lat="47.8306" lon="2.16685">
        <ele>104</ele>
        <time>2017-07-23T06:46:37.110Z</time>
      </trkpt>
      <trkpt lat="47.8306" lon="2.16685">
        <ele>104</ele>
        <time>2017-07-23T06:46:38.113Z</time>
      </trkpt>
      <trkpt lat="47.83063" lon="2.16703">
        <ele>104</ele>
        <time>2017-07-23T06:46:39.119Z</time>
      </trkpt>
      <trkpt lat="47.83064" lon="2.16712">
        <ele>104</ele>
        <time>2017-07-23T06:46:40.110Z</time>
      </trkpt>
      <trkpt lat="47.83064" lon="2.16712">
        <ele>104</ele>
        <time>2017-07-23T06:46:41.144Z</time>
      </trkpt>
      <trkpt lat="47.83068" lon="2.16729">
        <ele>105</ele>
        <time>2017-07-23T06:46:42.108Z</time>
      </trkpt>
      <trkpt lat="47.83069" lon="2.16738">
        <ele>105</ele>
        <time>2017-07-23T06:46:43.110Z</time>
      </trkpt>
      <trkpt lat="47.83069" lon="2.16738">
        <ele>105</ele>
        <time>2017-07-23T06:46:44.143Z</time>
      </trkpt>
      <trkpt lat="47.83072" lon="2.16756">
        <ele>106</ele>
        <time>2017-07-23T06:46:45.108Z</time>
      </trkpt>
      <trkpt lat="47.83072" lon="2.16756">
        <ele>106</ele>
        <time>2017-07-23T06:46:46.143Z</time>
      </trkpt>
      <trkpt lat="47.83075" lon="2.16774">
        <ele>106</ele>
        <time>2017-07-23T06:46:47.109Z</time>
      </trkpt>
      <trkpt lat="47.83075" lon="2.16774">
        <ele>106</ele>
        <time>2017-07-23T06:46:48.144Z</time>
      </trkpt>
      <trkpt lat="47.83079" lon="2.16792">
        <ele>107</ele>
        <time>2017-07-23T06:46:49.110Z</time>
      </trkpt>
      <trkpt lat="47.83079" lon="2.16792">
        <ele>107</ele>
        <time>2017-07-23T06:46:50.143Z</time>
      </trkpt>
      <trkpt lat="47.83082" lon="2.16809">
        <ele>108</ele>
        <time>2017-07-23T06:46:51.135Z</time>
      </trkpt>
      <trkpt lat="47.83083" lon="2.16817">
        <ele>108</ele>
        <time>2017-07-23T06:46:52.109Z</time>
      </trkpt>
      <trkpt lat="47.83083" lon="2.16817">
        <ele>108</ele>
        <time>2017-07-23T06:46:53.143Z</time>
      </trkpt>
      <trkpt lat="47.83085" lon="2.16834">
        <ele>108</ele>
        <time>2017-07-23T06:46:54.108Z</time>
      </trkpt>
      <trkpt lat="47.83087" lon="2.16843">
        <ele>108</ele>
        <time>2017-07-23T06:46:55.110Z</time>
      </trkpt>
      <trkpt lat="47.83087" lon="2.16843">
        <ele>108</ele>
        <time>2017-07-23T06:46:56.144Z</time>
      </trkpt>
      <trkpt lat="47.83089" lon="2.16861">
        <ele>109</ele>
        <time>2017-07-23T06:46:57.147Z</time>
      </trkpt>
      <trkpt lat="47.83089" lon="2.16861">
        <ele>109</ele>
        <time>2017-07-23T06:46:58.142Z</time>
      </trkpt>
      <trkpt lat="47.83092" lon="2.16879">
        <ele>109</ele>
        <time>2017-07-23T06:46:59.108Z</time>
      </trkpt>
      <trkpt lat="47.83093" lon="2.16887">
        <ele>109</ele>
        <time>2017-07-23T06:47:00.109Z</time>
      </trkpt>
      <trkpt lat="47.83093" lon="2.16887">
        <ele>109</ele>
        <time>2017-07-23T06:47:01.145Z</time>
      </trkpt>
      <trkpt lat="47.83095" lon="2.16905">
        <ele>109</ele>
        <time>2017-07-23T06:47:02.108Z</time>
      </trkpt>
      <trkpt lat="47.83095" lon="2.16905">
        <ele>109</ele>
        <time>2017-07-23T06:47:03.140Z</time>
      </trkpt>
      <trkpt lat="47.83097" lon="2.16924">
        <ele>110</ele>
        <time>2017-07-23T06:47:04.110Z</time>
      </trkpt>
      <trkpt lat="47.83097" lon="2.16924">
        <ele>110</ele>
        <time>2017-07-23T06:47:05.143Z</time>
      </trkpt>
      <trkpt lat="47.83097" lon="2.16942">
        <ele>110</ele>
        <time>2017-07-23T06:47:06.147Z</time>
      </trkpt>
      <trkpt lat="47.83097" lon="2.16952">
        <ele>110</ele>
        <time>2017-07-23T06:47:07.110Z</time>
      </trkpt>
      <trkpt lat="47.83097" lon="2.16952">
        <ele>110</ele>
        <time>2017-07-23T06:47:08.114Z</time>
      </trkpt>
      <trkpt lat="47.83097" lon="2.1697">
        <ele>110</ele>
        <time>2017-07-23T06:47:09.109Z</time>
      </trkpt>
      <trkpt lat="47.83097" lon="2.1697">
        <ele>110</ele>
        <time>2017-07-23T06:47:10.140Z</time>
      </trkpt>
      <trkpt lat="47.83098" lon="2.1699">
        <ele>110</ele>
        <time>2017-07-23T06:47:11.108Z</time>
      </trkpt>
      <trkpt lat="47.83099" lon="2.17">
        <ele>110</ele>
        <time>2017-07-23T06:47:12.110Z</time>
      </trkpt>
      <trkpt lat="47.831" lon="2.17009">
        <ele>110</ele>
        <time>2017-07-23T06:47:13.110Z</time>
      </trkpt>
      <trkpt lat="47.831" lon="2.17009">
        <ele>110</ele>
        <time>2017-07-23T06:47:14.143Z</time>
      </trkpt>
      <trkpt lat="47.83103" lon="2.17028">
        <ele>109</ele>
        <time>2017-07-23T06:47:15.108Z</time>
      </trkpt>
      <trkpt lat="47.83104" lon="2.17039">
        <ele>109</ele>
        <time>2017-07-23T06:47:16.109Z</time>
      </trkpt>
      <trkpt lat="47.83104" lon="2.17039">
        <ele>109</ele>
        <time>2017-07-23T06:47:17.112Z</time>
      </trkpt>
      <trkpt lat="47.83106" lon="2.17058">
        <ele>108</ele>
        <time>2017-07-23T06:47:18.108Z</time>
      </trkpt>
      <trkpt lat="47.83106" lon="2.17058">
        <ele>108</ele>
        <time>2017-07-23T06:47:19.142Z</time>
      </trkpt>
      <trkpt lat="47.83108" lon="2.17078">
        <ele>107</ele>
        <time>2017-07-23T06:47:20.148Z</time>
      </trkpt>
      <trkpt lat="47.83108" lon="2.17078">
        <ele>107</ele>
        <time>2017-07-23T06:47:21.142Z</time>
      </trkpt>
      <trkpt lat="47.8311" lon="2.17097">
        <ele>107</ele>
        <time>2017-07-23T06:47:22.108Z</time>
      </trkpt>
      <trkpt lat="47.8311" lon="2.17097">
        <ele>107</ele>
        <time>2017-07-23T06:47:23.143Z</time>
      </trkpt>
      <trkpt lat="47.83113" lon="2.17117">
        <ele>107</ele>
        <time>2017-07-23T06:47:24.148Z</time>
      </trkpt>
      <trkpt lat="47.83114" lon="2.17127">
        <ele>107</ele>
        <time>2017-07-23T06:47:25.112Z</time>
      </trkpt>
      <trkpt lat="47.83114" lon="2.17127">
        <ele>107</ele>
        <time>2017-07-23T06:47:26.142Z</time>
      </trkpt>
      <trkpt lat="47.83116" lon="2.17147">
        <ele>107</ele>
        <time>2017-07-23T06:47:27.147Z</time>
      </trkpt>
      <trkpt lat="47.83118" lon="2.17157">
        <ele>107</ele>
        <time>2017-07-23T06:47:28.108Z</time>
      </trkpt>
      <trkpt lat="47.83118" lon="2.17157">
        <ele>107</ele>
        <time>2017-07-23T06:47:29.145Z</time>
      </trkpt>
      <trkpt lat="47.8312" lon="2.17176">
        <ele>106</ele>
        <time>2017-07-23T06:47:30.130Z</time>
      </trkpt>
      <trkpt lat="47.83121" lon="2.17186">
        <ele>106</ele>
        <time>2017-07-23T06:47:31.129Z</time>
      </trkpt>
      <trkpt lat="47.83121" lon="2.17186">
        <ele>106</ele>
        <time>2017-07-23T06:47:32.119Z</time>
      </trkpt>
      <trkpt lat="47.83123" lon="2.17205">
        <ele>106</ele>
        <time>2017-07-23T06:47:33.110Z</time>
      </trkpt>
      <trkpt lat="47.83123" lon="2.17205">
        <ele>106</ele>
        <time>2017-07-23T06:47:34.117Z</time>
      </trkpt>
      <trkpt lat="47.83126" lon="2.17225">
        <ele>106</ele>
        <time>2017-07-23T06:47:35.108Z</time>
      </trkpt>
      <trkpt lat="47.83126" lon="2.17225">
        <ele>106</ele>
        <time>2017-07-23T06:47:36.144Z</time>
      </trkpt>
      <trkpt lat="47.83128" lon="2.17244">
        <ele>106</ele>
        <time>2017-07-23T06:47:37.110Z</time>
      </trkpt>
      <trkpt lat="47.83128" lon="2.17244">
        <ele>106</ele>
        <time>2017-07-23T06:47:38.144Z</time>
      </trkpt>
      <trkpt lat="47.83131" lon="2.17263">
        <ele>106</ele>
        <time>2017-07-23T06:47:39.109Z</time>
      </trkpt>
      <trkpt lat="47.83132" lon="2.17273">
        <ele>106</ele>
        <time>2017-07-23T06:47:40.108Z</time>
      </trkpt>
      <trkpt lat="47.83132" lon="2.17273">
        <ele>106</ele>
        <time>2017-07-23T06:47:41.143Z</time>
      </trkpt>
      <trkpt lat="47.83134" lon="2.17292">
        <ele>106</ele>
        <time>2017-07-23T06:47:42.108Z</time>
      </trkpt>
      <trkpt lat="47.83135" lon="2.17302">
        <ele>106</ele>
        <time>2017-07-23T06:47:43.108Z</time>
      </trkpt>
      <trkpt lat="47.83135" lon="2.17302">
        <ele>106</ele>
        <time>2017-07-23T06:47:44.143Z</time>
      </trkpt>
      <trkpt lat="47.83138" lon="2.17321">
        <ele>106</ele>
        <time>2017-07-23T06:47:45.109Z</time>
      </trkpt>
      <trkpt lat="47.83138" lon="2.17321">
        <ele>106</ele>
        <time>2017-07-23T06:47:46.142Z</time>
      </trkpt>
      <trkpt lat="47.83139" lon="2.17341">
        <ele>106</ele>
        <time>2017-07-23T06:47:47.108Z</time>
      </trkpt>
      <trkpt lat="47.83139" lon="2.17341">
        <ele>106</ele>
        <time>2017-07-23T06:47:48.143Z</time>
      </trkpt>
      <trkpt lat="47.83142" lon="2.1736">
        <ele>106</ele>
        <time>2017-07-23T06:47:49.110Z</time>
      </trkpt>
      <trkpt lat="47.83142" lon="2.1736">
        <ele>106</ele>
        <time>2017-07-23T06:47:50.109Z</time>
      </trkpt>
      <trkpt lat="47.83144" lon="2.17379">
        <ele>105</ele>
        <time>2017-07-23T06:47:51.110Z</time>
      </trkpt>
      <trkpt lat="47.83145" lon="2.17389">
        <ele>105</ele>
        <time>2017-07-23T06:47:52.114Z</time>
      </trkpt>
      <trkpt lat="47.83145" lon="2.17389">
        <ele>105</ele>
        <time>2017-07-23T06:47:53.144Z</time>
      </trkpt>
      <trkpt lat="47.83148" lon="2.17409">
        <ele>105</ele>
        <time>2017-07-23T06:47:54.147Z</time>
      </trkpt>
      <trkpt lat="47.83149" lon="2.17418">
        <ele>105</ele>
        <time>2017-07-23T06:47:55.109Z</time>
      </trkpt>
      <trkpt lat="47.83149" lon="2.17418">
        <ele>105</ele>
        <time>2017-07-23T06:47:56.143Z</time>
      </trkpt>
      <trkpt lat="47.83151" lon="2.17438">
        <ele>105</ele>
        <time>2017-07-23T06:47:57.109Z</time>
      </trkpt>
      <trkpt lat="47.83152" lon="2.17448">
        <ele>105</ele>
        <time>2017-07-23T06:47:58.108Z</time>
      </trkpt>
      <trkpt lat="47.83152" lon="2.17448">
        <ele>105</ele>
        <time>2017-07-23T06:47:59.144Z</time>
      </trkpt>
      <trkpt lat="47.83155" lon="2.17468">
        <ele>105</ele>
        <time>2017-07-23T06:48:00.108Z</time>
      </trkpt>
      <trkpt lat="47.83157" lon="2.17478">
        <ele>105</ele>
        <time>2017-07-23T06:48:01.110Z</time>
      </trkpt>
      <trkpt lat="47.83158" lon="2.17488">
        <ele>105</ele>
        <time>2017-07-23T06:48:02.109Z</time>
      </trkpt>
      <trkpt lat="47.83158" lon="2.17488">
        <ele>105</ele>
        <time>2017-07-23T06:48:03.144Z</time>
      </trkpt>
      <trkpt lat="47.8316" lon="2.17507">
        <ele>105</ele>
        <time>2017-07-23T06:48:04.109Z</time>
      </trkpt>
      <trkpt lat="47.8316" lon="2.17507">
        <ele>105</ele>
        <time>2017-07-23T06:48:05.144Z</time>
      </trkpt>
      <trkpt lat="47.83162" lon="2.17526">
        <ele>106</ele>
        <time>2017-07-23T06:48:06.109Z</time>
      </trkpt>
      <trkpt lat="47.83164" lon="2.17536">
        <ele>106</ele>
        <time>2017-07-23T06:48:07.111Z</time>
      </trkpt>
      <trkpt lat="47.83164" lon="2.17536">
        <ele>106</ele>
        <time>2017-07-23T06:48:08.144Z</time>
      </trkpt>
      <trkpt lat="47.83166" lon="2.17554">
        <ele>106</ele>
        <time>2017-07-23T06:48:09.108Z</time>
      </trkpt>
      <trkpt lat="47.83166" lon="2.17554">
        <ele>106</ele>
        <time>2017-07-23T06:48:10.147Z</time>
      </trkpt>
      <trkpt lat="47.83168" lon="2.17572">
        <ele>106</ele>
        <time>2017-07-23T06:48:11.108Z</time>
      </trkpt>
      <trkpt lat="47.83169" lon="2.17581">
        <ele>106</ele>
        <time>2017-07-23T06:48:12.147Z</time>
      </trkpt>
      <trkpt lat="47.8317" lon="2.17589">
        <ele>106</ele>
        <time>2017-07-23T06:48:13.108Z</time>
      </trkpt>
      <trkpt lat="47.8317" lon="2.17589">
        <ele>106</ele>
        <time>2017-07-23T06:48:14.114Z</time>
      </trkpt>
      <trkpt lat="47.83172" lon="2.17608">
        <ele>106</ele>
        <time>2017-07-23T06:48:15.109Z</time>
      </trkpt>
      <trkpt lat="47.83172" lon="2.17608">
        <ele>106</ele>
        <time>2017-07-23T06:48:16.142Z</time>
      </trkpt>
      <trkpt lat="47.83175" lon="2.17627">
        <ele>105</ele>
        <time>2017-07-23T06:48:17.108Z</time>
      </trkpt>
      <trkpt lat="47.83175" lon="2.17627">
        <ele>105</ele>
        <time>2017-07-23T06:48:18.143Z</time>
      </trkpt>
      <trkpt lat="47.83177" lon="2.17648">
        <ele>106</ele>
        <time>2017-07-23T06:48:19.110Z</time>
      </trkpt>
      <trkpt lat="47.83177" lon="2.17648">
        <ele>106</ele>
        <time>2017-07-23T06:48:20.144Z</time>
      </trkpt>
      <trkpt lat="47.8318" lon="2.17667">
        <ele>105</ele>
        <time>2017-07-23T06:48:21.108Z</time>
      </trkpt>
      <trkpt lat="47.83181" lon="2.17677">
        <ele>105</ele>
        <time>2017-07-23T06:48:22.108Z</time>
      </trkpt>
      <trkpt lat="47.83181" lon="2.17677">
        <ele>105</ele>
        <time>2017-07-23T06:48:23.143Z</time>
      </trkpt>
      <trkpt lat="47.83186" lon="2.17696">
        <ele>105</ele>
        <time>2017-07-23T06:48:24.108Z</time>
      </trkpt>
      <trkpt lat="47.83188" lon="2.17705">
        <ele>105</ele>
        <time>2017-07-23T06:48:25.110Z</time>
      </trkpt>
      <trkpt lat="47.83188" lon="2.17705">
        <ele>105</ele>
        <time>2017-07-23T06:48:26.144Z</time>
      </trkpt>
      <trkpt lat="47.83194" lon="2.17723">
        <ele>105</ele>
        <time>2017-07-23T06:48:27.108Z</time>
      </trkpt>
      <trkpt lat="47.83194" lon="2.17723">
        <ele>105</ele>
        <time>2017-07-23T06:48:28.143Z</time>
      </trkpt>
      <trkpt lat="47.832" lon="2.17739">
        <ele>105</ele>
        <time>2017-07-23T06:48:29.109Z</time>
      </trkpt>
      <trkpt lat="47.832" lon="2.17739">
        <ele>105</ele>
        <time>2017-07-23T06:48:30.144Z</time>
      </trkpt>
      <trkpt lat="47.83204" lon="2.17757">
        <ele>105</ele>
        <time>2017-07-23T06:48:31.109Z</time>
      </trkpt>
      <trkpt lat="47.83204" lon="2.17757">
        <ele>105</ele>
        <time>2017-07-23T06:48:32.144Z</time>
      </trkpt>
      <trkpt lat="47.83208" lon="2.17776">
        <ele>105</ele>
        <time>2017-07-23T06:48:33.109Z</time>
      </trkpt>
      <trkpt lat="47.83209" lon="2.17785">
        <ele>105</ele>
        <time>2017-07-23T06:48:34.147Z</time>
      </trkpt>
      <trkpt lat="47.83209" lon="2.17785">
        <ele>105</ele>
        <time>2017-07-23T06:48:35.144Z</time>
      </trkpt>
      <trkpt lat="47.8321" lon="2.17802">
        <ele>106</ele>
        <time>2017-07-23T06:48:36.108Z</time>
      </trkpt>
      <trkpt lat="47.83211" lon="2.1781">
        <ele>106</ele>
        <time>2017-07-23T06:48:37.110Z</time>
      </trkpt>
      <trkpt lat="47.83211" lon="2.1781">
        <ele>106</ele>
        <time>2017-07-23T06:48:38.144Z</time>
      </trkpt>
      <trkpt lat="47.83211" lon="2.17824">
        <ele>106</ele>
        <time>2017-07-23T06:48:39.109Z</time>
      </trkpt>
      <trkpt lat="47.83211" lon="2.17824">
        <ele>106</ele>
        <time>2017-07-23T06:48:40.144Z</time>
      </trkpt>
      <trkpt lat="47.8321" lon="2.17834">
        <ele>106</ele>
        <time>2017-07-23T06:48:41.109Z</time>
      </trkpt>
      <trkpt lat="47.8321" lon="2.17834">
        <ele>106</ele>
        <time>2017-07-23T06:48:42.144Z</time>
      </trkpt>
      <trkpt lat="47.8321" lon="2.17841">
        <ele>107</ele>
        <time>2017-07-23T06:48:43.110Z</time>
      </trkpt>
      <trkpt lat="47.8321" lon="2.17841">
        <ele>107</ele>
        <time>2017-07-23T06:48:44.143Z</time>
      </trkpt>
      <trkpt lat="47.83211" lon="2.17848">
        <ele>107</ele>
        <time>2017-07-23T06:48:45.109Z</time>
      </trkpt>
      <trkpt lat="47.83211" lon="2.17848">
        <ele>107</ele>
        <time>2017-07-23T06:48:46.142Z</time>
      </trkpt>
      <trkpt lat="47.83217" lon="2.17854">
        <ele>107</ele>
        <time>2017-07-23T06:48:47.108Z</time>
      </trkpt>
      <trkpt lat="47.83217" lon="2.17854">
        <ele>107</ele>
        <time>2017-07-23T06:48:48.144Z</time>
      </trkpt>
      <trkpt lat="47.83224" lon="2.1786">
        <ele>108</ele>
        <time>2017-07-23T06:48:49.110Z</time>
      </trkpt>
      <trkpt lat="47.83224" lon="2.1786">
        <ele>108</ele>
        <time>2017-07-23T06:48:50.139Z</time>
      </trkpt>
      <trkpt lat="47.83233" lon="2.17865">
        <ele>107</ele>
        <time>2017-07-23T06:48:51.108Z</time>
      </trkpt>
      <trkpt lat="47.83233" lon="2.17865">
        <ele>107</ele>
        <time>2017-07-23T06:48:52.144Z</time>
      </trkpt>
      <trkpt lat="47.83243" lon="2.17871">
        <ele>108</ele>
        <time>2017-07-23T06:48:53.109Z</time>
      </trkpt>
      <trkpt lat="47.83243" lon="2.17871">
        <ele>108</ele>
        <time>2017-07-23T06:48:54.144Z</time>
      </trkpt>
      <trkpt lat="47.83254" lon="2.17873">
        <ele>108</ele>
        <time>2017-07-23T06:48:55.108Z</time>
      </trkpt>
      <trkpt lat="47.83254" lon="2.17873">
        <ele>108</ele>
        <time>2017-07-23T06:48:56.144Z</time>
      </trkpt>
      <trkpt lat="47.83266" lon="2.17872">
        <ele>108</ele>
        <time>2017-07-23T06:48:57.108Z</time>
      </trkpt>
      <trkpt lat="47.83266" lon="2.17872">
        <ele>108</ele>
        <time>2017-07-23T06:48:58.126Z</time>
      </trkpt>
      <trkpt lat="47.83277" lon="2.17868">
        <ele>108</ele>
        <time>2017-07-23T06:48:59.116Z</time>
      </trkpt>
      <trkpt lat="47.83277" lon="2.17868">
        <ele>108</ele>
        <time>2017-07-23T06:49:00.113Z</time>
      </trkpt>
      <trkpt lat="47.83288" lon="2.17869">
        <ele>109</ele>
        <time>2017-07-23T06:49:01.111Z</time>
      </trkpt>
      <trkpt lat="47.83288" lon="2.17869">
        <ele>109</ele>
        <time>2017-07-23T06:49:02.144Z</time>
      </trkpt>
      <trkpt lat="47.83297" lon="2.17881">
        <ele>108</ele>
        <time>2017-07-23T06:49:03.109Z</time>
      </trkpt>
      <trkpt lat="47.833" lon="2.1789">
        <ele>108</ele>
        <time>2017-07-23T06:49:04.110Z</time>
      </trkpt>
      <trkpt lat="47.833" lon="2.1789">
        <ele>108</ele>
        <time>2017-07-23T06:49:05.143Z</time>
      </trkpt>
      <trkpt lat="47.83306" lon="2.17908">
        <ele>108</ele>
        <time>2017-07-23T06:49:06.108Z</time>
      </trkpt>
      <trkpt lat="47.8331" lon="2.17916">
        <ele>108</ele>
        <time>2017-07-23T06:49:07.110Z</time>
      </trkpt>
      <trkpt lat="47.8331" lon="2.17916">
        <ele>108</ele>
        <time>2017-07-23T06:49:08.145Z</time>
      </trkpt>
      <trkpt lat="47.83319" lon="2.17931">
        <ele>107</ele>
        <time>2017-07-23T06:49:09.109Z</time>
      </trkpt>
      <trkpt lat="47.83319" lon="2.17931">
        <ele>107</ele>
        <time>2017-07-23T06:49:10.144Z</time>
      </trkpt>
      <trkpt lat="47.83331" lon="2.17941">
        <ele>107</ele>
        <time>2017-07-23T06:49:11.108Z</time>
      </trkpt>
      <trkpt lat="47.83337" lon="2.17944">
        <ele>106</ele>
        <time>2017-07-23T06:49:12.110Z</time>
      </trkpt>
      <trkpt lat="47.83344" lon="2.17946">
        <ele>106</ele>
        <time>2017-07-23T06:49:13.110Z</time>
      </trkpt>
      <trkpt lat="47.83344" lon="2.17946">
        <ele>106</ele>
        <time>2017-07-23T06:49:14.144Z</time>
      </trkpt>
      <trkpt lat="47.83358" lon="2.17948">
        <ele>105</ele>
        <time>2017-07-23T06:49:15.109Z</time>
      </trkpt>
      <trkpt lat="47.83358" lon="2.17948">
        <ele>105</ele>
        <time>2017-07-23T06:49:16.144Z</time>
      </trkpt>
      <trkpt lat="47.83372" lon="2.1795">
        <ele>105</ele>
        <time>2017-07-23T06:49:17.147Z</time>
      </trkpt>
      <trkpt lat="47.83372" lon="2.1795">
        <ele>105</ele>
        <time>2017-07-23T06:49:18.144Z</time>
      </trkpt>
      <trkpt lat="47.83386" lon="2.17952">
        <ele>104</ele>
        <time>2017-07-23T06:49:19.110Z</time>
      </trkpt>
      <trkpt lat="47.83386" lon="2.17952">
        <ele>104</ele>
        <time>2017-07-23T06:49:20.143Z</time>
      </trkpt>
      <trkpt lat="47.834" lon="2.17954">
        <ele>103</ele>
        <time>2017-07-23T06:49:21.109Z</time>
      </trkpt>
      <trkpt lat="47.834" lon="2.17954">
        <ele>103</ele>
        <time>2017-07-23T06:49:22.144Z</time>
      </trkpt>
      <trkpt lat="47.83415" lon="2.17956">
        <ele>103</ele>
        <time>2017-07-23T06:49:23.109Z</time>
      </trkpt>
      <trkpt lat="47.83415" lon="2.17956">
        <ele>103</ele>
        <time>2017-07-23T06:49:24.143Z</time>
      </trkpt>
      <trkpt lat="47.83428" lon="2.17961">
        <ele>103</ele>
        <time>2017-07-23T06:49:25.110Z</time>
      </trkpt>
      <trkpt lat="47.83428" lon="2.17961">
        <ele>103</ele>
        <time>2017-07-23T06:49:26.143Z</time>
      </trkpt>
      <trkpt lat="47.83442" lon="2.17968">
        <ele>104</ele>
        <time>2017-07-23T06:49:27.108Z</time>
      </trkpt>
      <trkpt lat="47.83442" lon="2.17968">
        <ele>104</ele>
        <time>2017-07-23T06:49:28.144Z</time>
      </trkpt>
      <trkpt lat="47.83456" lon="2.17974">
        <ele>104</ele>
        <time>2017-07-23T06:49:29.109Z</time>
      </trkpt>
      <trkpt lat="47.83456" lon="2.17974">
        <ele>104</ele>
        <time>2017-07-23T06:49:30.132Z</time>
      </trkpt>
      <trkpt lat="47.83469" lon="2.17979">
        <ele>103</ele>
        <time>2017-07-23T06:49:31.121Z</time>
      </trkpt>
      <trkpt lat="47.83476" lon="2.1798">
        <ele>103</ele>
        <time>2017-07-23T06:49:32.136Z</time>
      </trkpt>
      <trkpt lat="47.83476" lon="2.1798">
        <ele>103</ele>
        <time>2017-07-23T06:49:33.144Z</time>
      </trkpt>
      <trkpt lat="47.83489" lon="2.17982">
        <ele>103</ele>
        <time>2017-07-23T06:49:34.108Z</time>
      </trkpt>
      <trkpt lat="47.83489" lon="2.17982">
        <ele>103</ele>
        <time>2017-07-23T06:49:35.145Z</time>
      </trkpt>
      <trkpt lat="47.83502" lon="2.17986">
        <ele>103</ele>
        <time>2017-07-23T06:49:36.146Z</time>
      </trkpt>
      <trkpt lat="47.83509" lon="2.17989">
        <ele>103</ele>
        <time>2017-07-23T06:49:37.110Z</time>
      </trkpt>
      <trkpt lat="47.83509" lon="2.17989">
        <ele>103</ele>
        <time>2017-07-23T06:49:38.144Z</time>
      </trkpt>
      <trkpt lat="47.83524" lon="2.17995">
        <ele>102</ele>
        <time>2017-07-23T06:49:39.109Z</time>
      </trkpt>
      <trkpt lat="47.83524" lon="2.17995">
        <ele>102</ele>
        <time>2017-07-23T06:49:40.143Z</time>
      </trkpt>
      <trkpt lat="47.83538" lon="2.18003">
        <ele>101</ele>
        <time>2017-07-23T06:49:41.124Z</time>
      </trkpt>
      <trkpt lat="47.83546" lon="2.18006">
        <ele>101</ele>
        <time>2017-07-23T06:49:42.115Z</time>
      </trkpt>
      <trkpt lat="47.83553" lon="2.18011">
        <ele>101</ele>
        <time>2017-07-23T06:49:43.111Z</time>
      </trkpt>
      <trkpt lat="47.83553" lon="2.18011">
        <ele>101</ele>
        <time>2017-07-23T06:49:44.144Z</time>
      </trkpt>
      <trkpt lat="47.83567" lon="2.18019">
        <ele>102</ele>
        <time>2017-07-23T06:49:45.108Z</time>
      </trkpt>
      <trkpt lat="47.83573" lon="2.18022">
        <ele>102</ele>
        <time>2017-07-23T06:49:46.109Z</time>
      </trkpt>
      <trkpt lat="47.83573" lon="2.18022">
        <ele>102</ele>
        <time>2017-07-23T06:49:47.144Z</time>
      </trkpt>
      <trkpt lat="47.83587" lon="2.18028">
        <ele>102</ele>
        <time>2017-07-23T06:49:48.109Z</time>
      </trkpt>
      <trkpt lat="47.83594" lon="2.1803">
        <ele>102</ele>
        <time>2017-07-23T06:49:49.110Z</time>
      </trkpt>
      <trkpt lat="47.83594" lon="2.1803">
        <ele>102</ele>
        <time>2017-07-23T06:49:50.144Z</time>
      </trkpt>
      <trkpt lat="47.83609" lon="2.18034">
        <ele>102</ele>
        <time>2017-07-23T06:49:51.114Z</time>
      </trkpt>
      <trkpt lat="47.83609" lon="2.18034">
        <ele>102</ele>
        <time>2017-07-23T06:49:52.113Z</time>
      </trkpt>
      <trkpt lat="47.83624" lon="2.18038">
        <ele>102</ele>
        <time>2017-07-23T06:49:53.110Z</time>
      </trkpt>
      <trkpt lat="47.83631" lon="2.1804">
        <ele>102</ele>
        <time>2017-07-23T06:49:54.110Z</time>
      </trkpt>
      <trkpt lat="47.83631" lon="2.1804">
        <ele>102</ele>
        <time>2017-07-23T06:49:55.108Z</time>
      </trkpt>
      <trkpt lat="47.83645" lon="2.18045">
        <ele>102</ele>
        <time>2017-07-23T06:49:56.142Z</time>
      </trkpt>
      <trkpt lat="47.83652" lon="2.18047">
        <ele>102</ele>
        <time>2017-07-23T06:49:57.108Z</time>
      </trkpt>
      <trkpt lat="47.8366" lon="2.18049">
        <ele>102</ele>
        <time>2017-07-23T06:49:58.115Z</time>
      </trkpt>
      <trkpt lat="47.8366" lon="2.18049">
        <ele>102</ele>
        <time>2017-07-23T06:49:59.147Z</time>
      </trkpt>
      <trkpt lat="47.83674" lon="2.18054">
        <ele>102</ele>
        <time>2017-07-23T06:50:00.111Z</time>
      </trkpt>
      <trkpt lat="47.83682" lon="2.18056">
        <ele>102</ele>
        <time>2017-07-23T06:50:01.123Z</time>
      </trkpt>
      <trkpt lat="47.83682" lon="2.18056">
        <ele>102</ele>
        <time>2017-07-23T06:50:02.121Z</time>
      </trkpt>
      <trkpt lat="47.83696" lon="2.1806">
        <ele>101</ele>
        <time>2017-07-23T06:50:03.110Z</time>
      </trkpt>
      <trkpt lat="47.83696" lon="2.1806">
        <ele>101</ele>
        <time>2017-07-23T06:50:04.144Z</time>
      </trkpt>
      <trkpt lat="47.8371" lon="2.18063">
        <ele>102</ele>
        <time>2017-07-23T06:50:05.108Z</time>
      </trkpt>
      <trkpt lat="47.83717" lon="2.18065">
        <ele>102</ele>
        <time>2017-07-23T06:50:06.109Z</time>
      </trkpt>
      <trkpt lat="47.83724" lon="2.18067">
        <ele>101</ele>
        <time>2017-07-23T06:50:07.110Z</time>
      </trkpt>
      <trkpt lat="47.83724" lon="2.18067">
        <ele>101</ele>
        <time>2017-07-23T06:50:08.144Z</time>
      </trkpt>
      <trkpt lat="47.83738" lon="2.18072">
        <ele>101</ele>
        <time>2017-07-23T06:50:09.109Z</time>
      </trkpt>
      <trkpt lat="47.83746" lon="2.18074">
        <ele>101</ele>
        <time>2017-07-23T06:50:10.109Z</time>
      </trkpt>
      <trkpt lat="47.83753" lon="2.18076">
        <ele>101</ele>
        <time>2017-07-23T06:50:11.113Z</time>
      </trkpt>
      <trkpt lat="47.83753" lon="2.18076">
        <ele>101</ele>
        <time>2017-07-23T06:50:12.144Z</time>
      </trkpt>
      <trkpt lat="47.83767" lon="2.18081">
        <ele>101</ele>
        <time>2017-07-23T06:50:13.110Z</time>
      </trkpt>
      <trkpt lat="47.83767" lon="2.18081">
        <ele>101</ele>
        <time>2017-07-23T06:50:14.144Z</time>
      </trkpt>
      <trkpt lat="47.83781" lon="2.18086">
        <ele>101</ele>
        <time>2017-07-23T06:50:15.109Z</time>
      </trkpt>
      <trkpt lat="47.83781" lon="2.18086">
        <ele>101</ele>
        <time>2017-07-23T06:50:16.144Z</time>
      </trkpt>
      <trkpt lat="47.83795" lon="2.18089">
        <ele>101</ele>
        <time>2017-07-23T06:50:17.109Z</time>
      </trkpt>
      <trkpt lat="47.83795" lon="2.18089">
        <ele>101</ele>
        <time>2017-07-23T06:50:18.144Z</time>
      </trkpt>
      <trkpt lat="47.83809" lon="2.18093">
        <ele>101</ele>
        <time>2017-07-23T06:50:19.110Z</time>
      </trkpt>
      <trkpt lat="47.83817" lon="2.18095">
        <ele>101</ele>
        <time>2017-07-23T06:50:20.110Z</time>
      </trkpt>
      <trkpt lat="47.83817" lon="2.18095">
        <ele>101</ele>
        <time>2017-07-23T06:50:21.115Z</time>
      </trkpt>
      <trkpt lat="47.83832" lon="2.181">
        <ele>101</ele>
        <time>2017-07-23T06:50:22.147Z</time>
      </trkpt>
      <trkpt lat="47.83832" lon="2.181">
        <ele>101</ele>
        <time>2017-07-23T06:50:23.144Z</time>
      </trkpt>
      <trkpt lat="47.83847" lon="2.18103">
        <ele>101</ele>
        <time>2017-07-23T06:50:24.109Z</time>
      </trkpt>
      <trkpt lat="47.83855" lon="2.18104">
        <ele>100</ele>
        <time>2017-07-23T06:50:25.113Z</time>
      </trkpt>
      <trkpt lat="47.83855" lon="2.18104">
        <ele>100</ele>
        <time>2017-07-23T06:50:26.143Z</time>
      </trkpt>
      <trkpt lat="47.8387" lon="2.18107">
        <ele>100</ele>
        <time>2017-07-23T06:50:27.111Z</time>
      </trkpt>
      <trkpt lat="47.8387" lon="2.18107">
        <ele>100</ele>
        <time>2017-07-23T06:50:28.144Z</time>
      </trkpt>
      <trkpt lat="47.83884" lon="2.1811">
        <ele>100</ele>
        <time>2017-07-23T06:50:29.109Z</time>
      </trkpt>
      <trkpt lat="47.83884" lon="2.1811">
        <ele>100</ele>
        <time>2017-07-23T06:50:30.111Z</time>
      </trkpt>
      <trkpt lat="47.83899" lon="2.18112">
        <ele>101</ele>
        <time>2017-07-23T06:50:31.145Z</time>
      </trkpt>
      <trkpt lat="47.83906" lon="2.18114">
        <ele>101</ele>
        <time>2017-07-23T06:50:32.109Z</time>
      </trkpt>
      <trkpt lat="47.83914" lon="2.18115">
        <ele>101</ele>
        <time>2017-07-23T06:50:33.110Z</time>
      </trkpt>
      <trkpt lat="47.83921" lon="2.18117">
        <ele>101</ele>
        <time>2017-07-23T06:50:34.109Z</time>
      </trkpt>
      <trkpt lat="47.83921" lon="2.18117">
        <ele>101</ele>
        <time>2017-07-23T06:50:35.144Z</time>
      </trkpt>
      <trkpt lat="47.83936" lon="2.1812">
        <ele>101</ele>
        <time>2017-07-23T06:50:36.109Z</time>
      </trkpt>
      <trkpt lat="47.83943" lon="2.18121">
        <ele>101</ele>
        <time>2017-07-23T06:50:37.109Z</time>
      </trkpt>
      <trkpt lat="47.83943" lon="2.18121">
        <ele>101</ele>
        <time>2017-07-23T06:50:38.145Z</time>
      </trkpt>
      <trkpt lat="47.83957" lon="2.18124">
        <ele>101</ele>
        <time>2017-07-23T06:50:39.109Z</time>
      </trkpt>
      <trkpt lat="47.83964" lon="2.18125">
        <ele>101</ele>
        <time>2017-07-23T06:50:40.109Z</time>
      </trkpt>
      <trkpt lat="47.83964" lon="2.18125">
        <ele>101</ele>
        <time>2017-07-23T06:50:41.126Z</time>
      </trkpt>
      <trkpt lat="47.83979" lon="2.18128">
        <ele>101</ele>
        <time>2017-07-23T06:50:42.109Z</time>
      </trkpt>
      <trkpt lat="47.83986" lon="2.18129">
        <ele>100</ele>
        <time>2017-07-23T06:50:43.111Z</time>
      </trkpt>
      <trkpt lat="47.83986" lon="2.18129">
        <ele>100</ele>
        <time>2017-07-23T06:50:44.144Z</time>
      </trkpt>
      <trkpt lat="47.84" lon="2.18132">
        <ele>101</ele>
        <time>2017-07-23T06:50:45.109Z</time>
      </trkpt>
      <trkpt lat="47.84" lon="2.18132">
        <ele>101</ele>
        <time>2017-07-23T06:50:46.146Z</time>
      </trkpt>
      <trkpt lat="47.84015" lon="2.18134">
        <ele>101</ele>
        <time>2017-07-23T06:50:47.109Z</time>
      </trkpt>
      <trkpt lat="47.84015" lon="2.18134">
        <ele>101</ele>
        <time>2017-07-23T06:50:48.144Z</time>
      </trkpt>
      <trkpt lat="47.84029" lon="2.18135">
        <ele>101</ele>
        <time>2017-07-23T06:50:49.110Z</time>
      </trkpt>
      <trkpt lat="47.84029" lon="2.18135">
        <ele>101</ele>
        <time>2017-07-23T06:50:50.144Z</time>
      </trkpt>
      <trkpt lat="47.84043" lon="2.18133">
        <ele>101</ele>
        <time>2017-07-23T06:50:51.115Z</time>
      </trkpt>
      <trkpt lat="47.8405" lon="2.18132">
        <ele>101</ele>
        <time>2017-07-23T06:50:52.109Z</time>
      </trkpt>
      <trkpt lat="47.8405" lon="2.18132">
        <ele>101</ele>
        <time>2017-07-23T06:50:53.123Z</time>
      </trkpt>
      <trkpt lat="47.84064" lon="2.18128">
        <ele>101</ele>
        <time>2017-07-23T06:50:54.112Z</time>
      </trkpt>
      <trkpt lat="47.84071" lon="2.18125">
        <ele>101</ele>
        <time>2017-07-23T06:50:55.111Z</time>
      </trkpt>
      <trkpt lat="47.84071" lon="2.18125">
        <ele>101</ele>
        <time>2017-07-23T06:50:56.110Z</time>
      </trkpt>
      <trkpt lat="47.84085" lon="2.18121">
        <ele>101</ele>
        <time>2017-07-23T06:50:57.110Z</time>
      </trkpt>
      <trkpt lat="47.84085" lon="2.18121">
        <ele>101</ele>
        <time>2017-07-23T06:50:58.144Z</time>
      </trkpt>
      <trkpt lat="47.84099" lon="2.18117">
        <ele>100</ele>
        <time>2017-07-23T06:50:59.128Z</time>
      </trkpt>
      <trkpt lat="47.84099" lon="2.18117">
        <ele>100</ele>
        <time>2017-07-23T06:51:00.145Z</time>
      </trkpt>
      <trkpt lat="47.84112" lon="2.18113">
        <ele>101</ele>
        <time>2017-07-23T06:51:01.129Z</time>
      </trkpt>
      <trkpt lat="47.84112" lon="2.18113">
        <ele>101</ele>
        <time>2017-07-23T06:51:02.124Z</time>
      </trkpt>
      <trkpt lat="47.84125" lon="2.18111">
        <ele>101</ele>
        <time>2017-07-23T06:51:03.112Z</time>
      </trkpt>
      <trkpt lat="47.84125" lon="2.18111">
        <ele>101</ele>
        <time>2017-07-23T06:51:04.147Z</time>
      </trkpt>
      <trkpt lat="47.8414" lon="2.18112">
        <ele>101</ele>
        <time>2017-07-23T06:51:05.109Z</time>
      </trkpt>
      <trkpt lat="47.8414" lon="2.18112">
        <ele>101</ele>
        <time>2017-07-23T06:51:06.144Z</time>
      </trkpt>
      <trkpt lat="47.84152" lon="2.1812">
        <ele>102</ele>
        <time>2017-07-23T06:51:07.110Z</time>
      </trkpt>
      <trkpt lat="47.84152" lon="2.1812">
        <ele>102</ele>
        <time>2017-07-23T06:51:08.145Z</time>
      </trkpt>
      <trkpt lat="47.84161" lon="2.18135">
        <ele>101</ele>
        <time>2017-07-23T06:51:09.110Z</time>
      </trkpt>
      <trkpt lat="47.84161" lon="2.18135">
        <ele>101</ele>
        <time>2017-07-23T06:51:10.146Z</time>
      </trkpt>
      <trkpt lat="47.84167" lon="2.18155">
        <ele>102</ele>
        <time>2017-07-23T06:51:11.113Z</time>
      </trkpt>
      <trkpt lat="47.84167" lon="2.18155">
        <ele>102</ele>
        <time>2017-07-23T06:51:12.147Z</time>
      </trkpt>
      <trkpt lat="47.84173" lon="2.18176">
        <ele>102</ele>
        <time>2017-07-23T06:51:13.110Z</time>
      </trkpt>
      <trkpt lat="47.84177" lon="2.18186">
        <ele>102</ele>
        <time>2017-07-23T06:51:14.109Z</time>
      </trkpt>
      <trkpt lat="47.84177" lon="2.18186">
        <ele>102</ele>
        <time>2017-07-23T06:51:15.144Z</time>
      </trkpt>
      <trkpt lat="47.84183" lon="2.18206">
        <ele>102</ele>
        <time>2017-07-23T06:51:16.110Z</time>
      </trkpt>
      <trkpt lat="47.84183" lon="2.18206">
        <ele>102</ele>
        <time>2017-07-23T06:51:17.144Z</time>
      </trkpt>
      <trkpt lat="47.84189" lon="2.18226">
        <ele>102</ele>
        <time>2017-07-23T06:51:18.109Z</time>
      </trkpt>
      <trkpt lat="47.84189" lon="2.18226">
        <ele>102</ele>
        <time>2017-07-23T06:51:19.112Z</time>
      </trkpt>
      <trkpt lat="47.84195" lon="2.18245">
        <ele>102</ele>
        <time>2017-07-23T06:51:20.145Z</time>
      </trkpt>
      <trkpt lat="47.84197" lon="2.18255">
        <ele>102</ele>
        <time>2017-07-23T06:51:21.150Z</time>
      </trkpt>
      <trkpt lat="47.842" lon="2.18265">
        <ele>103</ele>
        <time>2017-07-23T06:51:22.109Z</time>
      </trkpt>
      <trkpt lat="47.842" lon="2.18265">
        <ele>103</ele>
        <time>2017-07-23T06:51:23.144Z</time>
      </trkpt>
      <trkpt lat="47.84204" lon="2.18283">
        <ele>103</ele>
        <time>2017-07-23T06:51:24.109Z</time>
      </trkpt>
      <trkpt lat="47.84206" lon="2.18292">
        <ele>103</ele>
        <time>2017-07-23T06:51:25.127Z</time>
      </trkpt>
      <trkpt lat="47.84206" lon="2.18292">
        <ele>103</ele>
        <time>2017-07-23T06:51:26.118Z</time>
      </trkpt>
      <trkpt lat="47.8421" lon="2.18309">
        <ele>103</ele>
        <time>2017-07-23T06:51:27.111Z</time>
      </trkpt>
      <trkpt lat="47.84211" lon="2.18317">
        <ele>103</ele>
        <time>2017-07-23T06:51:28.110Z</time>
      </trkpt>
      <trkpt lat="47.84211" lon="2.18317">
        <ele>103</ele>
        <time>2017-07-23T06:51:29.145Z</time>
      </trkpt>
      <trkpt lat="47.84212" lon="2.18333">
        <ele>103</ele>
        <time>2017-07-23T06:51:30.109Z</time>
      </trkpt>
      <trkpt lat="47.84214" lon="2.1834">
        <ele>103</ele>
        <time>2017-07-23T06:51:31.110Z</time>
      </trkpt>
      <trkpt lat="47.84214" lon="2.1834">
        <ele>103</ele>
        <time>2017-07-23T06:51:32.146Z</time>
      </trkpt>
      <trkpt lat="47.84224" lon="2.18348">
        <ele>103</ele>
        <time>2017-07-23T06:51:33.109Z</time>
      </trkpt>
      <trkpt lat="47.84229" lon="2.1835">
        <ele>103</ele>
        <time>2017-07-23T06:51:34.109Z</time>
      </trkpt>
      <trkpt lat="47.84236" lon="2.1835">
        <ele>103</ele>
        <time>2017-07-23T06:51:35.110Z</time>
      </trkpt>
      <trkpt lat="47.84236" lon="2.1835">
        <ele>103</ele>
        <time>2017-07-23T06:51:36.145Z</time>
      </trkpt>
      <trkpt lat="47.8425" lon="2.18352">
        <ele>103</ele>
        <time>2017-07-23T06:51:37.111Z</time>
      </trkpt>
      <trkpt lat="47.8425" lon="2.18352">
        <ele>103</ele>
        <time>2017-07-23T06:51:38.115Z</time>
      </trkpt>
      <trkpt lat="47.84263" lon="2.18352">
        <ele>102</ele>
        <time>2017-07-23T06:51:39.110Z</time>
      </trkpt>
      <trkpt lat="47.84271" lon="2.18353">
        <ele>102</ele>
        <time>2017-07-23T06:51:40.110Z</time>
      </trkpt>
      <trkpt lat="47.84271" lon="2.18353">
        <ele>102</ele>
        <time>2017-07-23T06:51:41.144Z</time>
      </trkpt>
      <trkpt lat="47.84286" lon="2.18355">
        <ele>102</ele>
        <time>2017-07-23T06:51:42.110Z</time>
      </trkpt>
      <trkpt lat="47.84286" lon="2.18355">
        <ele>102</ele>
        <time>2017-07-23T06:51:43.146Z</time>
      </trkpt>
      <trkpt lat="47.84301" lon="2.18357">
        <ele>102</ele>
        <time>2017-07-23T06:51:44.110Z</time>
      </trkpt>
      <trkpt lat="47.84308" lon="2.18357">
        <ele>101</ele>
        <time>2017-07-23T06:51:45.147Z</time>
      </trkpt>
      <trkpt lat="47.84308" lon="2.18357">
        <ele>101</ele>
        <time>2017-07-23T06:51:46.144Z</time>
      </trkpt>
      <trkpt lat="47.84323" lon="2.18359">
        <ele>101</ele>
        <time>2017-07-23T06:51:47.114Z</time>
      </trkpt>
      <trkpt lat="47.84323" lon="2.18359">
        <ele>101</ele>
        <time>2017-07-23T06:51:48.144Z</time>
      </trkpt>
      <trkpt lat="47.84337" lon="2.18361">
        <ele>101</ele>
        <time>2017-07-23T06:51:49.111Z</time>
      </trkpt>
      <trkpt lat="47.84337" lon="2.18361">
        <ele>101</ele>
        <time>2017-07-23T06:51:50.144Z</time>
      </trkpt>
      <trkpt lat="47.84351" lon="2.18363">
        <ele>101</ele>
        <time>2017-07-23T06:51:51.111Z</time>
      </trkpt>
      <trkpt lat="47.84351" lon="2.18363">
        <ele>101</ele>
        <time>2017-07-23T06:51:52.108Z</time>
      </trkpt>
      <trkpt lat="47.84365" lon="2.18364">
        <ele>101</ele>
        <time>2017-07-23T06:51:53.110Z</time>
      </trkpt>
      <trkpt lat="47.84365" lon="2.18364">
        <ele>101</ele>
        <time>2017-07-23T06:51:54.145Z</time>
      </trkpt>
      <trkpt lat="47.84379" lon="2.18365">
        <ele>101</ele>
        <time>2017-07-23T06:51:55.109Z</time>
      </trkpt>
      <trkpt lat="47.84379" lon="2.18365">
        <ele>101</ele>
        <time>2017-07-23T06:51:56.144Z</time>
      </trkpt>
      <trkpt lat="47.84392" lon="2.18368">
        <ele>101</ele>
        <time>2017-07-23T06:51:57.109Z</time>
      </trkpt>
      <trkpt lat="47.84399" lon="2.18369">
        <ele>101</ele>
        <time>2017-07-23T06:51:58.110Z</time>
      </trkpt>
      <trkpt lat="47.84406" lon="2.1837">
        <ele>101</ele>
        <time>2017-07-23T06:51:59.108Z</time>
      </trkpt>
      <trkpt lat="47.84406" lon="2.1837">
        <ele>101</ele>
        <time>2017-07-23T06:52:00.119Z</time>
      </trkpt>
      <trkpt lat="47.8442" lon="2.18372">
        <ele>101</ele>
        <time>2017-07-23T06:52:01.110Z</time>
      </trkpt>
      <trkpt lat="47.8442" lon="2.18372">
        <ele>101</ele>
        <time>2017-07-23T06:52:02.145Z</time>
      </trkpt>
      <trkpt lat="47.84435" lon="2.18374">
        <ele>101</ele>
        <time>2017-07-23T06:52:03.111Z</time>
      </trkpt>
      <trkpt lat="47.84435" lon="2.18374">
        <ele>101</ele>
        <time>2017-07-23T06:52:04.117Z</time>
      </trkpt>
      <trkpt lat="47.84449" lon="2.18376">
        <ele>101</ele>
        <time>2017-07-23T06:52:05.138Z</time>
      </trkpt>
      <trkpt lat="47.84456" lon="2.18377">
        <ele>100</ele>
        <time>2017-07-23T06:52:06.110Z</time>
      </trkpt>
      <trkpt lat="47.84463" lon="2.18378">
        <ele>100</ele>
        <time>2017-07-23T06:52:07.111Z</time>
      </trkpt>
      <trkpt lat="47.8447" lon="2.18379">
        <ele>100</ele>
        <time>2017-07-23T06:52:08.110Z</time>
      </trkpt>
      <trkpt lat="47.8447" lon="2.18379">
        <ele>100</ele>
        <time>2017-07-23T06:52:09.145Z</time>
      </trkpt>
      <trkpt lat="47.84485" lon="2.18381">
        <ele>100</ele>
        <time>2017-07-23T06:52:10.145Z</time>
      </trkpt>
      <trkpt lat="47.84485" lon="2.18381">
        <ele>100</ele>
        <time>2017-07-23T06:52:11.144Z</time>
      </trkpt>
      <trkpt lat="47.845" lon="2.18382">
        <ele>100</ele>
        <time>2017-07-23T06:52:12.110Z</time>
      </trkpt>
      <trkpt lat="47.845" lon="2.18382">
        <ele>100</ele>
        <time>2017-07-23T06:52:13.108Z</time>
      </trkpt>
      <trkpt lat="47.84514" lon="2.18384">
        <ele>100</ele>
        <time>2017-07-23T06:52:14.109Z</time>
      </trkpt>
      <trkpt lat="47.84514" lon="2.18384">
        <ele>100</ele>
        <time>2017-07-23T06:52:15.144Z</time>
      </trkpt>
      <trkpt lat="47.84529" lon="2.18386">
        <ele>100</ele>
        <time>2017-07-23T06:52:16.110Z</time>
      </trkpt>
      <trkpt lat="47.84536" lon="2.18387">
        <ele>99</ele>
        <time>2017-07-23T06:52:17.110Z</time>
      </trkpt>
      <trkpt lat="47.84536" lon="2.18387">
        <ele>99</ele>
        <time>2017-07-23T06:52:18.145Z</time>
      </trkpt>
      <trkpt lat="47.8455" lon="2.18388">
        <ele>100</ele>
        <time>2017-07-23T06:52:19.110Z</time>
      </trkpt>
      <trkpt lat="47.8455" lon="2.18388">
        <ele>100</ele>
        <time>2017-07-23T06:52:20.144Z</time>
      </trkpt>
      <trkpt lat="47.84563" lon="2.1839">
        <ele>101</ele>
        <time>2017-07-23T06:52:21.110Z</time>
      </trkpt>
      <trkpt lat="47.84563" lon="2.1839">
        <ele>101</ele>
        <time>2017-07-23T06:52:22.111Z</time>
      </trkpt>
      <trkpt lat="47.84574" lon="2.18391">
        <ele>102</ele>
        <time>2017-07-23T06:52:23.109Z</time>
      </trkpt>
      <trkpt lat="47.84574" lon="2.18391">
        <ele>102</ele>
        <time>2017-07-23T06:52:24.145Z</time>
      </trkpt>
      <trkpt lat="47.84585" lon="2.18393">
        <ele>104</ele>
        <time>2017-07-23T06:52:25.111Z</time>
      </trkpt>
      <trkpt lat="47.8459" lon="2.18396">
        <ele>104</ele>
        <time>2017-07-23T06:52:26.109Z</time>
      </trkpt>
      <trkpt lat="47.8459" lon="2.18396">
        <ele>104</ele>
        <time>2017-07-23T06:52:27.145Z</time>
      </trkpt>
      <trkpt lat="47.84598" lon="2.18405">
        <ele>105</ele>
        <time>2017-07-23T06:52:28.147Z</time>
      </trkpt>
      <trkpt lat="47.846" lon="2.18413">
        <ele>105</ele>
        <time>2017-07-23T06:52:29.110Z</time>
      </trkpt>
      <trkpt lat="47.846" lon="2.18413">
        <ele>105</ele>
        <time>2017-07-23T06:52:30.144Z</time>
      </trkpt>
      <trkpt lat="47.84598" lon="2.18431">
        <ele>106</ele>
        <time>2017-07-23T06:52:31.130Z</time>
      </trkpt>
      <trkpt lat="47.84596" lon="2.1844">
        <ele>106</ele>
        <time>2017-07-23T06:52:32.120Z</time>
      </trkpt>
      <trkpt lat="47.84596" lon="2.1844">
        <ele>106</ele>
        <time>2017-07-23T06:52:33.114Z</time>
      </trkpt>
      <trkpt lat="47.84594" lon="2.18459">
        <ele>106</ele>
        <time>2017-07-23T06:52:34.126Z</time>
      </trkpt>
      <trkpt lat="47.84594" lon="2.18459">
        <ele>106</ele>
        <time>2017-07-23T06:52:35.115Z</time>
      </trkpt>
      <trkpt lat="47.84591" lon="2.18478">
        <ele>107</ele>
        <time>2017-07-23T06:52:36.109Z</time>
      </trkpt>
      <trkpt lat="47.8459" lon="2.18488">
        <ele>107</ele>
        <time>2017-07-23T06:52:37.108Z</time>
      </trkpt>
      <trkpt lat="47.84589" lon="2.18498">
        <ele>107</ele>
        <time>2017-07-23T06:52:38.110Z</time>
      </trkpt>
      <trkpt lat="47.84589" lon="2.18498">
        <ele>107</ele>
        <time>2017-07-23T06:52:39.145Z</time>
      </trkpt>
      <trkpt lat="47.84588" lon="2.18519">
        <ele>107</ele>
        <time>2017-07-23T06:52:40.147Z</time>
      </trkpt>
      <trkpt lat="47.84588" lon="2.18519">
        <ele>107</ele>
        <time>2017-07-23T06:52:41.144Z</time>
      </trkpt>
      <trkpt lat="47.84587" lon="2.18542">
        <ele>107</ele>
        <time>2017-07-23T06:52:42.110Z</time>
      </trkpt>
      <trkpt lat="47.84587" lon="2.18542">
        <ele>107</ele>
        <time>2017-07-23T06:52:43.109Z</time>
      </trkpt>
      <trkpt lat="47.84587" lon="2.18565">
        <ele>107</ele>
        <time>2017-07-23T06:52:44.110Z</time>
      </trkpt>
      <trkpt lat="47.84587" lon="2.18577">
        <ele>107</ele>
        <time>2017-07-23T06:52:45.110Z</time>
      </trkpt>
      <trkpt lat="47.84587" lon="2.18577">
        <ele>107</ele>
        <time>2017-07-23T06:52:46.108Z</time>
      </trkpt>
      <trkpt lat="47.84586" lon="2.18601">
        <ele>107</ele>
        <time>2017-07-23T06:52:47.111Z</time>
      </trkpt>
      <trkpt lat="47.84586" lon="2.18601">
        <ele>107</ele>
        <time>2017-07-23T06:52:48.108Z</time>
      </trkpt>
      <trkpt lat="47.84586" lon="2.18624">
        <ele>107</ele>
        <time>2017-07-23T06:52:49.111Z</time>
      </trkpt>
      <trkpt lat="47.84586" lon="2.18624">
        <ele>107</ele>
        <time>2017-07-23T06:52:50.147Z</time>
      </trkpt>
      <trkpt lat="47.84585" lon="2.18646">
        <ele>108</ele>
        <time>2017-07-23T06:52:51.111Z</time>
      </trkpt>
      <trkpt lat="47.84585" lon="2.18646">
        <ele>108</ele>
        <time>2017-07-23T06:52:52.108Z</time>
      </trkpt>
      <trkpt lat="47.84585" lon="2.18667">
        <ele>108</ele>
        <time>2017-07-23T06:52:53.110Z</time>
      </trkpt>
      <trkpt lat="47.84585" lon="2.18678">
        <ele>108</ele>
        <time>2017-07-23T06:52:54.109Z</time>
      </trkpt>
      <trkpt lat="47.84585" lon="2.18678">
        <ele>108</ele>
        <time>2017-07-23T06:52:55.148Z</time>
      </trkpt>
      <trkpt lat="47.84584" lon="2.187">
        <ele>108</ele>
        <time>2017-07-23T06:52:56.110Z</time>
      </trkpt>
      <trkpt lat="47.84583" lon="2.18711">
        <ele>108</ele>
        <time>2017-07-23T06:52:57.110Z</time>
      </trkpt>
      <trkpt lat="47.84583" lon="2.18711">
        <ele>108</ele>
        <time>2017-07-23T06:52:58.108Z</time>
      </trkpt>
      <trkpt lat="47.84581" lon="2.18733">
        <ele>108</ele>
        <time>2017-07-23T06:52:59.108Z</time>
      </trkpt>
      <trkpt lat="47.84581" lon="2.18733">
        <ele>108</ele>
        <time>2017-07-23T06:53:00.139Z</time>
      </trkpt>
      <trkpt lat="47.8458" lon="2.18755">
        <ele>108</ele>
        <time>2017-07-23T06:53:01.120Z</time>
      </trkpt>
      <trkpt lat="47.84579" lon="2.18766">
        <ele>108</ele>
        <time>2017-07-23T06:53:02.119Z</time>
      </trkpt>
      <trkpt lat="47.84579" lon="2.18766">
        <ele>108</ele>
        <time>2017-07-23T06:53:03.110Z</time>
      </trkpt>
      <trkpt lat="47.84578" lon="2.18788">
        <ele>108</ele>
        <time>2017-07-23T06:53:04.111Z</time>
      </trkpt>
      <trkpt lat="47.84578" lon="2.18788">
        <ele>108</ele>
        <time>2017-07-23T06:53:05.147Z</time>
      </trkpt>
      <trkpt lat="47.84576" lon="2.18809">
        <ele>108</ele>
        <time>2017-07-23T06:53:06.111Z</time>
      </trkpt>
      <trkpt lat="47.84575" lon="2.18821">
        <ele>108</ele>
        <time>2017-07-23T06:53:07.112Z</time>
      </trkpt>
      <trkpt lat="47.84575" lon="2.18821">
        <ele>108</ele>
        <time>2017-07-23T06:53:08.145Z</time>
      </trkpt>
      <trkpt lat="47.84574" lon="2.18844">
        <ele>108</ele>
        <time>2017-07-23T06:53:09.111Z</time>
      </trkpt>
      <trkpt lat="47.84573" lon="2.18855">
        <ele>108</ele>
        <time>2017-07-23T06:53:10.111Z</time>
      </trkpt>
      <trkpt lat="47.84573" lon="2.18855">
        <ele>108</ele>
        <time>2017-07-23T06:53:11.146Z</time>
      </trkpt>
      <trkpt lat="47.84574" lon="2.18878">
        <ele>108</ele>
        <time>2017-07-23T06:53:12.111Z</time>
      </trkpt>
      <trkpt lat="47.84574" lon="2.18878">
        <ele>108</ele>
        <time>2017-07-23T06:53:13.146Z</time>
      </trkpt>
      <trkpt lat="47.84575" lon="2.18902">
        <ele>108</ele>
        <time>2017-07-23T06:53:14.111Z</time>
      </trkpt>
      <trkpt lat="47.84575" lon="2.18913">
        <ele>109</ele>
        <time>2017-07-23T06:53:15.109Z</time>
      </trkpt>
      <trkpt lat="47.84575" lon="2.18913">
        <ele>109</ele>
        <time>2017-07-23T06:53:16.108Z</time>
      </trkpt>
      <trkpt lat="47.84577" lon="2.18937">
        <ele>109</ele>
        <time>2017-07-23T06:53:17.111Z</time>
      </trkpt>
      <trkpt lat="47.84577" lon="2.18937">
        <ele>109</ele>
        <time>2017-07-23T06:53:18.147Z</time>
      </trkpt>
      <trkpt lat="47.84578" lon="2.1896">
        <ele>109</ele>
        <time>2017-07-23T06:53:19.112Z</time>
      </trkpt>
      <trkpt lat="47.84578" lon="2.1896">
        <ele>109</ele>
        <time>2017-07-23T06:53:20.108Z</time>
      </trkpt>
      <trkpt lat="47.84579" lon="2.18983">
        <ele>108</ele>
        <time>2017-07-23T06:53:21.111Z</time>
      </trkpt>
      <trkpt lat="47.84579" lon="2.18983">
        <ele>108</ele>
        <time>2017-07-23T06:53:22.146Z</time>
      </trkpt>
      <trkpt lat="47.84581" lon="2.19006">
        <ele>109</ele>
        <time>2017-07-23T06:53:23.110Z</time>
      </trkpt>
      <trkpt lat="47.84581" lon="2.19017">
        <ele>109</ele>
        <time>2017-07-23T06:53:24.111Z</time>
      </trkpt>
      <trkpt lat="47.84581" lon="2.19017">
        <ele>109</ele>
        <time>2017-07-23T06:53:25.109Z</time>
      </trkpt>
      <trkpt lat="47.84583" lon="2.1904">
        <ele>109</ele>
        <time>2017-07-23T06:53:26.109Z</time>
      </trkpt>
      <trkpt lat="47.84584" lon="2.19051">
        <ele>109</ele>
        <time>2017-07-23T06:53:27.110Z</time>
      </trkpt>
      <trkpt lat="47.84584" lon="2.19051">
        <ele>109</ele>
        <time>2017-07-23T06:53:28.108Z</time>
      </trkpt>
      <trkpt lat="47.84585" lon="2.19074">
        <ele>109</ele>
        <time>2017-07-23T06:53:29.111Z</time>
      </trkpt>
      <trkpt lat="47.84586" lon="2.19085">
        <ele>109</ele>
        <time>2017-07-23T06:53:30.111Z</time>
      </trkpt>
      <trkpt lat="47.84586" lon="2.19085">
        <ele>109</ele>
        <time>2017-07-23T06:53:31.147Z</time>
      </trkpt>
      <trkpt lat="47.84588" lon="2.19108">
        <ele>109</ele>
        <time>2017-07-23T06:53:32.111Z</time>
      </trkpt>
      <trkpt lat="47.84588" lon="2.19108">
        <ele>109</ele>
        <time>2017-07-23T06:53:33.141Z</time>
      </trkpt>
      <trkpt lat="47.84589" lon="2.19131">
        <ele>109</ele>
        <time>2017-07-23T06:53:34.111Z</time>
      </trkpt>
      <trkpt lat="47.84589" lon="2.19131">
        <ele>109</ele>
        <time>2017-07-23T06:53:35.145Z</time>
      </trkpt>
      <trkpt lat="47.8459" lon="2.19154">
        <ele>109</ele>
        <time>2017-07-23T06:53:36.110Z</time>
      </trkpt>
      <trkpt lat="47.84591" lon="2.19166">
        <ele>109</ele>
        <time>2017-07-23T06:53:37.112Z</time>
      </trkpt>
      <trkpt lat="47.84591" lon="2.19166">
        <ele>109</ele>
        <time>2017-07-23T06:53:38.109Z</time>
      </trkpt>
      <trkpt lat="47.84593" lon="2.19188">
        <ele>108</ele>
        <time>2017-07-23T06:53:39.111Z</time>
      </trkpt>
      <trkpt lat="47.84593" lon="2.19188">
        <ele>108</ele>
        <time>2017-07-23T06:53:40.145Z</time>
      </trkpt>
      <trkpt lat="47.84594" lon="2.19211">
        <ele>109</ele>
        <time>2017-07-23T06:53:41.111Z</time>
      </trkpt>
      <trkpt lat="47.84594" lon="2.19211">
        <ele>109</ele>
        <time>2017-07-23T06:53:42.111Z</time>
      </trkpt>
      <trkpt lat="47.84596" lon="2.19234">
        <ele>109</ele>
        <time>2017-07-23T06:53:43.129Z</time>
      </trkpt>
      <trkpt lat="47.84596" lon="2.19245">
        <ele>109</ele>
        <time>2017-07-23T06:53:44.120Z</time>
      </trkpt>
      <trkpt lat="47.84597" lon="2.19257">
        <ele>109</ele>
        <time>2017-07-23T06:53:45.110Z</time>
      </trkpt>
      <trkpt lat="47.84597" lon="2.19257">
        <ele>109</ele>
        <time>2017-07-23T06:53:46.108Z</time>
      </trkpt>
      <trkpt lat="47.846" lon="2.1928">
        <ele>109</ele>
        <time>2017-07-23T06:53:47.110Z</time>
      </trkpt>
      <trkpt lat="47.84601" lon="2.19292">
        <ele>108</ele>
        <time>2017-07-23T06:53:48.108Z</time>
      </trkpt>
      <trkpt lat="47.84602" lon="2.19304">
        <ele>109</ele>
        <time>2017-07-23T06:53:49.112Z</time>
      </trkpt>
      <trkpt lat="47.84602" lon="2.19304">
        <ele>109</ele>
        <time>2017-07-23T06:53:50.143Z</time>
      </trkpt>
      <trkpt lat="47.84605" lon="2.19327">
        <ele>109</ele>
        <time>2017-07-23T06:53:51.131Z</time>
      </trkpt>
      <trkpt lat="47.84607" lon="2.19338">
        <ele>109</ele>
        <time>2017-07-23T06:53:52.120Z</time>
      </trkpt>
      <trkpt lat="47.84607" lon="2.19338">
        <ele>109</ele>
        <time>2017-07-23T06:53:53.109Z</time>
      </trkpt>
      <trkpt lat="47.8461" lon="2.19361">
        <ele>109</ele>
        <time>2017-07-23T06:53:54.111Z</time>
      </trkpt>
      <trkpt lat="47.8461" lon="2.19361">
        <ele>109</ele>
        <time>2017-07-23T06:53:55.110Z</time>
      </trkpt>
      <trkpt lat="47.84614" lon="2.19383">
        <ele>109</ele>
        <time>2017-07-23T06:53:56.110Z</time>
      </trkpt>
      <trkpt lat="47.84616" lon="2.19394">
        <ele>109</ele>
        <time>2017-07-23T06:53:57.117Z</time>
      </trkpt>
      <trkpt lat="47.84616" lon="2.19394">
        <ele>109</ele>
        <time>2017-07-23T06:53:58.109Z</time>
      </trkpt>
      <trkpt lat="47.8462" lon="2.19415">
        <ele>109</ele>
        <time>2017-07-23T06:53:59.111Z</time>
      </trkpt>
      <trkpt lat="47.84623" lon="2.19426">
        <ele>109</ele>
        <time>2017-07-23T06:54:00.120Z</time>
      </trkpt>
      <trkpt lat="47.84623" lon="2.19426">
        <ele>109</ele>
        <time>2017-07-23T06:54:01.147Z</time>
      </trkpt>
      <trkpt lat="47.84627" lon="2.19448">
        <ele>109</ele>
        <time>2017-07-23T06:54:02.112Z</time>
      </trkpt>
      <trkpt lat="47.84627" lon="2.19448">
        <ele>109</ele>
        <time>2017-07-23T06:54:03.152Z</time>
      </trkpt>
      <trkpt lat="47.84632" lon="2.1947">
        <ele>109</ele>
        <time>2017-07-23T06:54:04.114Z</time>
      </trkpt>
      <trkpt lat="47.84635" lon="2.19481">
        <ele>108</ele>
        <time>2017-07-23T06:54:05.120Z</time>
      </trkpt>
      <trkpt lat="47.84635" lon="2.19481">
        <ele>108</ele>
        <time>2017-07-23T06:54:06.126Z</time>
      </trkpt>
      <trkpt lat="47.84639" lon="2.19504">
        <ele>108</ele>
        <time>2017-07-23T06:54:07.116Z</time>
      </trkpt>
      <trkpt lat="47.84639" lon="2.19504">
        <ele>108</ele>
        <time>2017-07-23T06:54:08.108Z</time>
      </trkpt>
      <trkpt lat="47.84644" lon="2.19526">
        <ele>108</ele>
        <time>2017-07-23T06:54:09.111Z</time>
      </trkpt>
      <trkpt lat="47.84644" lon="2.19526">
        <ele>108</ele>
        <time>2017-07-23T06:54:10.144Z</time>
      </trkpt>
      <trkpt lat="47.84649" lon="2.19547">
        <ele>108</ele>
        <time>2017-07-23T06:54:11.111Z</time>
      </trkpt>
      <trkpt lat="47.84651" lon="2.19558">
        <ele>108</ele>
        <time>2017-07-23T06:54:12.108Z</time>
      </trkpt>
      <trkpt lat="47.84651" lon="2.19558">
        <ele>108</ele>
        <time>2017-07-23T06:54:13.147Z</time>
      </trkpt>
      <trkpt lat="47.84656" lon="2.19579">
        <ele>108</ele>
        <time>2017-07-23T06:54:14.111Z</time>
      </trkpt>
      <trkpt lat="47.84658" lon="2.1959">
        <ele>108</ele>
        <time>2017-07-23T06:54:15.111Z</time>
      </trkpt>
      <trkpt lat="47.84658" lon="2.1959">
        <ele>108</ele>
        <time>2017-07-23T06:54:16.147Z</time>
      </trkpt>
      <trkpt lat="47.84663" lon="2.19612">
        <ele>108</ele>
        <time>2017-07-23T06:54:17.111Z</time>
      </trkpt>
      <trkpt lat="47.84665" lon="2.19623">
        <ele>108</ele>
        <time>2017-07-23T06:54:18.112Z</time>
      </trkpt>
      <trkpt lat="47.84665" lon="2.19623">
        <ele>108</ele>
        <time>2017-07-23T06:54:19.109Z</time>
      </trkpt>
      <trkpt lat="47.84669" lon="2.19645">
        <ele>108</ele>
        <time>2017-07-23T06:54:20.111Z</time>
      </trkpt>
      <trkpt lat="47.84672" lon="2.19656">
        <ele>108</ele>
        <time>2017-07-23T06:54:21.110Z</time>
      </trkpt>
      <trkpt lat="47.84672" lon="2.19656">
        <ele>108</ele>
        <time>2017-07-23T06:54:22.145Z</time>
      </trkpt>
      <trkpt lat="47.84676" lon="2.19678">
        <ele>107</ele>
        <time>2017-07-23T06:54:23.111Z</time>
      </trkpt>
      <trkpt lat="47.84679" lon="2.1969">
        <ele>107</ele>
        <time>2017-07-23T06:54:24.117Z</time>
      </trkpt>
      <trkpt lat="47.84679" lon="2.1969">
        <ele>107</ele>
        <time>2017-07-23T06:54:25.109Z</time>
      </trkpt>
      <trkpt lat="47.84683" lon="2.19712">
        <ele>107</ele>
        <time>2017-07-23T06:54:26.148Z</time>
      </trkpt>
      <trkpt lat="47.84686" lon="2.19724">
        <ele>107</ele>
        <time>2017-07-23T06:54:27.110Z</time>
      </trkpt>
      <trkpt lat="47.84686" lon="2.19724">
        <ele>107</ele>
        <time>2017-07-23T06:54:28.108Z</time>
      </trkpt>
      <trkpt lat="47.84691" lon="2.19746">
        <ele>107</ele>
        <time>2017-07-23T06:54:29.108Z</time>
      </trkpt>
      <trkpt lat="47.84691" lon="2.19746">
        <ele>107</ele>
        <time>2017-07-23T06:54:30.108Z</time>
      </trkpt>
      <trkpt lat="47.84695" lon="2.19768">
        <ele>107</ele>
        <time>2017-07-23T06:54:31.112Z</time>
      </trkpt>
      <trkpt lat="47.84695" lon="2.19768">
        <ele>107</ele>
        <time>2017-07-23T06:54:32.109Z</time>
      </trkpt>
      <trkpt lat="47.847" lon="2.19791">
        <ele>107</ele>
        <time>2017-07-23T06:54:33.110Z</time>
      </trkpt>
      <trkpt lat="47.847" lon="2.19791">
        <ele>107</ele>
        <time>2017-07-23T06:54:34.109Z</time>
      </trkpt>
      <trkpt lat="47.84704" lon="2.19813">
        <ele>107</ele>
        <time>2017-07-23T06:54:35.136Z</time>
      </trkpt>
      <trkpt lat="47.84707" lon="2.19824">
        <ele>108</ele>
        <time>2017-07-23T06:54:36.125Z</time>
      </trkpt>
      <trkpt lat="47.84707" lon="2.19824">
        <ele>108</ele>
        <time>2017-07-23T06:54:37.115Z</time>
      </trkpt>
      <trkpt lat="47.84712" lon="2.19846">
        <ele>108</ele>
        <time>2017-07-23T06:54:38.126Z</time>
      </trkpt>
      <trkpt lat="47.84714" lon="2.19856">
        <ele>108</ele>
        <time>2017-07-23T06:54:39.116Z</time>
      </trkpt>
      <trkpt lat="47.84714" lon="2.19856">
        <ele>108</ele>
        <time>2017-07-23T06:54:40.112Z</time>
      </trkpt>
      <trkpt lat="47.84718" lon="2.19878">
        <ele>108</ele>
        <time>2017-07-23T06:54:41.110Z</time>
      </trkpt>
      <trkpt lat="47.84718" lon="2.19878">
        <ele>108</ele>
        <time>2017-07-23T06:54:42.111Z</time>
      </trkpt>
      <trkpt lat="47.84723" lon="2.199">
        <ele>108</ele>
        <time>2017-07-23T06:54:43.112Z</time>
      </trkpt>
      <trkpt lat="47.84723" lon="2.199">
        <ele>108</ele>
        <time>2017-07-23T06:54:44.145Z</time>
      </trkpt>
      <trkpt lat="47.84728" lon="2.19921">
        <ele>108</ele>
        <time>2017-07-23T06:54:45.110Z</time>
      </trkpt>
      <trkpt lat="47.84728" lon="2.19921">
        <ele>108</ele>
        <time>2017-07-23T06:54:46.109Z</time>
      </trkpt>
      <trkpt lat="47.84732" lon="2.19943">
        <ele>108</ele>
        <time>2017-07-23T06:54:47.111Z</time>
      </trkpt>
      <trkpt lat="47.84735" lon="2.19953">
        <ele>108</ele>
        <time>2017-07-23T06:54:48.110Z</time>
      </trkpt>
      <trkpt lat="47.84737" lon="2.19963">
        <ele>108</ele>
        <time>2017-07-23T06:54:49.117Z</time>
      </trkpt>
      <trkpt lat="47.84737" lon="2.19963">
        <ele>108</ele>
        <time>2017-07-23T06:54:50.147Z</time>
      </trkpt>
      <trkpt lat="47.84742" lon="2.19983">
        <ele>108</ele>
        <time>2017-07-23T06:54:51.111Z</time>
      </trkpt>
      <trkpt lat="47.84744" lon="2.19992">
        <ele>108</ele>
        <time>2017-07-23T06:54:52.111Z</time>
      </trkpt>
      <trkpt lat="47.84744" lon="2.19992">
        <ele>108</ele>
        <time>2017-07-23T06:54:53.146Z</time>
      </trkpt>
      <trkpt lat="47.84749" lon="2.20007">
        <ele>108</ele>
        <time>2017-07-23T06:54:54.110Z</time>
      </trkpt>
      <trkpt lat="47.84752" lon="2.20013">
        <ele>108</ele>
        <time>2017-07-23T06:54:55.112Z</time>
      </trkpt>
      <trkpt lat="47.84755" lon="2.20019">
        <ele>108</ele>
        <time>2017-07-23T06:54:56.118Z</time>
      </trkpt>
      <trkpt lat="47.84757" lon="2.20024">
        <ele>108</ele>
        <time>2017-07-23T06:54:57.110Z</time>
      </trkpt>
      <trkpt lat="47.84757" lon="2.20024">
        <ele>108</ele>
        <time>2017-07-23T06:54:58.146Z</time>
      </trkpt>
      <trkpt lat="47.84761" lon="2.20039">
        <ele>107</ele>
        <time>2017-07-23T06:54:59.110Z</time>
      </trkpt>
      <trkpt lat="47.84761" lon="2.20039">
        <ele>107</ele>
        <time>2017-07-23T06:55:00.112Z</time>
      </trkpt>
      <trkpt lat="47.84765" lon="2.20056">
        <ele>106</ele>
        <time>2017-07-23T06:55:01.120Z</time>
      </trkpt>
      <trkpt lat="47.84765" lon="2.20056">
        <ele>106</ele>
        <time>2017-07-23T06:55:02.109Z</time>
      </trkpt>
      <trkpt lat="47.84769" lon="2.20075">
        <ele>104</ele>
        <time>2017-07-23T06:55:03.111Z</time>
      </trkpt>
      <trkpt lat="47.84769" lon="2.20075">
        <ele>104</ele>
        <time>2017-07-23T06:55:04.147Z</time>
      </trkpt>
      <trkpt lat="47.84772" lon="2.20094">
        <ele>103</ele>
        <time>2017-07-23T06:55:05.114Z</time>
      </trkpt>
      <trkpt lat="47.84772" lon="2.20094">
        <ele>103</ele>
        <time>2017-07-23T06:55:06.109Z</time>
      </trkpt>
      <trkpt lat="47.8478" lon="2.20107">
        <ele>102</ele>
        <time>2017-07-23T06:55:07.112Z</time>
      </trkpt>
      <trkpt lat="47.8478" lon="2.20107">
        <ele>102</ele>
        <time>2017-07-23T06:55:08.109Z</time>
      </trkpt>
      <trkpt lat="47.84792" lon="2.20109">
        <ele>101</ele>
        <time>2017-07-23T06:55:09.111Z</time>
      </trkpt>
      <trkpt lat="47.84792" lon="2.20109">
        <ele>101</ele>
        <time>2017-07-23T06:55:10.112Z</time>
      </trkpt>
      <trkpt lat="47.84802" lon="2.20108">
        <ele>100</ele>
        <time>2017-07-23T06:55:11.110Z</time>
      </trkpt>
      <trkpt lat="47.84807" lon="2.20107">
        <ele>100</ele>
        <time>2017-07-23T06:55:12.111Z</time>
      </trkpt>
      <trkpt lat="47.84807" lon="2.20107">
        <ele>100</ele>
        <time>2017-07-23T06:55:13.110Z</time>
      </trkpt>
      <trkpt lat="47.84817" lon="2.20105">
        <ele>99</ele>
        <time>2017-07-23T06:55:14.118Z</time>
      </trkpt>
      <trkpt lat="47.84822" lon="2.20103">
        <ele>100</ele>
        <time>2017-07-23T06:55:15.108Z</time>
      </trkpt>
      <trkpt lat="47.84822" lon="2.20103">
        <ele>100</ele>
        <time>2017-07-23T06:55:16.145Z</time>
      </trkpt>
      <trkpt lat="47.84833" lon="2.20101">
        <ele>99</ele>
        <time>2017-07-23T06:55:17.111Z</time>
      </trkpt>
      <trkpt lat="47.84838" lon="2.20103">
        <ele>100</ele>
        <time>2017-07-23T06:55:18.111Z</time>
      </trkpt>
      <trkpt lat="47.84838" lon="2.20103">
        <ele>100</ele>
        <time>2017-07-23T06:55:19.110Z</time>
      </trkpt>
      <trkpt lat="47.84848" lon="2.20111">
        <ele>99</ele>
        <time>2017-07-23T06:55:20.108Z</time>
      </trkpt>
      <trkpt lat="47.84848" lon="2.20111">
        <ele>99</ele>
        <time>2017-07-23T06:55:21.145Z</time>
      </trkpt>
      <trkpt lat="47.84858" lon="2.20123">
        <ele>99</ele>
        <time>2017-07-23T06:55:22.111Z</time>
      </trkpt>
      <trkpt lat="47.84858" lon="2.20123">
        <ele>99</ele>
        <time>2017-07-23T06:55:23.108Z</time>
      </trkpt>
      <trkpt lat="47.84866" lon="2.20137">
        <ele>99</ele>
        <time>2017-07-23T06:55:24.109Z</time>
      </trkpt>
      <trkpt lat="47.84869" lon="2.20145">
        <ele>99</ele>
        <time>2017-07-23T06:55:25.111Z</time>
      </trkpt>
      <trkpt lat="47.84869" lon="2.20145">
        <ele>99</ele>
        <time>2017-07-23T06:55:26.108Z</time>
      </trkpt>
      <trkpt lat="47.84876" lon="2.20161">
        <ele>100</ele>
        <time>2017-07-23T06:55:27.108Z</time>
      </trkpt>
      <trkpt lat="47.84876" lon="2.20161">
        <ele>100</ele>
        <time>2017-07-23T06:55:28.109Z</time>
      </trkpt>
      <trkpt lat="47.84883" lon="2.20176">
        <ele>100</ele>
        <time>2017-07-23T06:55:29.111Z</time>
      </trkpt>
      <trkpt lat="47.84883" lon="2.20176">
        <ele>100</ele>
        <time>2017-07-23T06:55:30.145Z</time>
      </trkpt>
      <trkpt lat="47.84891" lon="2.2019">
        <ele>100</ele>
        <time>2017-07-23T06:55:31.112Z</time>
      </trkpt>
      <trkpt lat="47.84891" lon="2.2019">
        <ele>100</ele>
        <time>2017-07-23T06:55:32.123Z</time>
      </trkpt>
      <trkpt lat="47.84899" lon="2.20204">
        <ele>101</ele>
        <time>2017-07-23T06:55:33.112Z</time>
      </trkpt>
      <trkpt lat="47.84903" lon="2.20212">
        <ele>101</ele>
        <time>2017-07-23T06:55:34.112Z</time>
      </trkpt>
      <trkpt lat="47.84903" lon="2.20212">
        <ele>101</ele>
        <time>2017-07-23T06:55:35.147Z</time>
      </trkpt>
      <trkpt lat="47.84911" lon="2.20227">
        <ele>101</ele>
        <time>2017-07-23T06:55:36.111Z</time>
      </trkpt>
      <trkpt lat="47.84915" lon="2.20234">
        <ele>101</ele>
        <time>2017-07-23T06:55:37.109Z</time>
      </trkpt>
      <trkpt lat="47.84915" lon="2.20234">
        <ele>101</ele>
        <time>2017-07-23T06:55:38.120Z</time>
      </trkpt>
      <trkpt lat="47.84922" lon="2.20249">
        <ele>102</ele>
        <time>2017-07-23T06:55:39.111Z</time>
      </trkpt>
      <trkpt lat="47.84922" lon="2.20249">
        <ele>102</ele>
        <time>2017-07-23T06:55:40.145Z</time>
      </trkpt>
      <trkpt lat="47.8493" lon="2.20263">
        <ele>102</ele>
        <time>2017-07-23T06:55:41.110Z</time>
      </trkpt>
      <trkpt lat="47.84934" lon="2.20269">
        <ele>102</ele>
        <time>2017-07-23T06:55:42.112Z</time>
      </trkpt>
      <trkpt lat="47.84938" lon="2.20276">
        <ele>102</ele>
        <time>2017-07-23T06:55:43.111Z</time>
      </trkpt>
      <trkpt lat="47.84938" lon="2.20276">
        <ele>102</ele>
        <time>2017-07-23T06:55:44.109Z</time>
      </trkpt>
      <trkpt lat="47.84946" lon="2.20288">
        <ele>102</ele>
        <time>2017-07-23T06:55:45.112Z</time>
      </trkpt>
      <trkpt lat="47.84946" lon="2.20288">
        <ele>102</ele>
        <time>2017-07-23T06:55:46.145Z</time>
      </trkpt>
      <trkpt lat="47.84954" lon="2.203">
        <ele>103</ele>
        <time>2017-07-23T06:55:47.111Z</time>
      </trkpt>
      <trkpt lat="47.84954" lon="2.203">
        <ele>103</ele>
        <time>2017-07-23T06:55:48.146Z</time>
      </trkpt>
      <trkpt lat="47.84962" lon="2.20312">
        <ele>103</ele>
        <time>2017-07-23T06:55:49.111Z</time>
      </trkpt>
      <trkpt lat="47.84962" lon="2.20312">
        <ele>103</ele>
        <time>2017-07-23T06:55:50.144Z</time>
      </trkpt>
      <trkpt lat="47.8497" lon="2.20324">
        <ele>103</ele>
        <time>2017-07-23T06:55:51.112Z</time>
      </trkpt>
      <trkpt lat="47.8497" lon="2.20324">
        <ele>103</ele>
        <time>2017-07-23T06:55:52.108Z</time>
      </trkpt>
      <trkpt lat="47.84976" lon="2.20338">
        <ele>103</ele>
        <time>2017-07-23T06:55:53.110Z</time>
      </trkpt>
      <trkpt lat="47.8498" lon="2.20345">
        <ele>103</ele>
        <time>2017-07-23T06:55:54.112Z</time>
      </trkpt>
      <trkpt lat="47.84984" lon="2.20351">
        <ele>103</ele>
        <time>2017-07-23T06:55:55.112Z</time>
      </trkpt>
      <trkpt lat="47.84984" lon="2.20351">
        <ele>103</ele>
        <time>2017-07-23T06:55:56.109Z</time>
      </trkpt>
      <trkpt lat="47.84992" lon="2.20364">
        <ele>104</ele>
        <time>2017-07-23T06:55:57.108Z</time>
      </trkpt>
      <trkpt lat="47.84992" lon="2.20364">
        <ele>104</ele>
        <time>2017-07-23T06:55:58.146Z</time>
      </trkpt>
      <trkpt lat="47.85" lon="2.20378">
        <ele>104</ele>
        <time>2017-07-23T06:55:59.110Z</time>
      </trkpt>
      <trkpt lat="47.85" lon="2.20378">
        <ele>104</ele>
        <time>2017-07-23T06:56:00.113Z</time>
      </trkpt>
      <trkpt lat="47.85007" lon="2.20392">
        <ele>104</ele>
        <time>2017-07-23T06:56:01.113Z</time>
      </trkpt>
      <trkpt lat="47.85007" lon="2.20392">
        <ele>104</ele>
        <time>2017-07-23T06:56:02.109Z</time>
      </trkpt>
      <trkpt lat="47.85013" lon="2.20406">
        <ele>105</ele>
        <time>2017-07-23T06:56:03.132Z</time>
      </trkpt>
      <trkpt lat="47.85013" lon="2.20406">
        <ele>105</ele>
        <time>2017-07-23T06:56:04.124Z</time>
      </trkpt>
      <trkpt lat="47.85022" lon="2.20417">
        <ele>105</ele>
        <time>2017-07-23T06:56:05.112Z</time>
      </trkpt>
      <trkpt lat="47.85027" lon="2.20423">
        <ele>105</ele>
        <time>2017-07-23T06:56:06.111Z</time>
      </trkpt>
      <trkpt lat="47.85031" lon="2.20429">
        <ele>105</ele>
        <time>2017-07-23T06:56:07.123Z</time>
      </trkpt>
      <trkpt lat="47.85031" lon="2.20429">
        <ele>105</ele>
        <time>2017-07-23T06:56:08.111Z</time>
      </trkpt>
      <trkpt lat="47.85041" lon="2.2044">
        <ele>105</ele>
        <time>2017-07-23T06:56:09.112Z</time>
      </trkpt>
      <trkpt lat="47.85041" lon="2.2044">
        <ele>105</ele>
        <time>2017-07-23T06:56:10.145Z</time>
      </trkpt>
      <trkpt lat="47.8505" lon="2.20452">
        <ele>105</ele>
        <time>2017-07-23T06:56:11.112Z</time>
      </trkpt>
      <trkpt lat="47.85054" lon="2.20458">
        <ele>106</ele>
        <time>2017-07-23T06:56:12.110Z</time>
      </trkpt>
      <trkpt lat="47.85054" lon="2.20458">
        <ele>106</ele>
        <time>2017-07-23T06:56:13.108Z</time>
      </trkpt>
      <trkpt lat="47.85062" lon="2.20469">
        <ele>106</ele>
        <time>2017-07-23T06:56:14.110Z</time>
      </trkpt>
      <trkpt lat="47.85066" lon="2.20475">
        <ele>106</ele>
        <time>2017-07-23T06:56:15.111Z</time>
      </trkpt>
      <trkpt lat="47.85066" lon="2.20475">
        <ele>106</ele>
        <time>2017-07-23T06:56:16.108Z</time>
      </trkpt>
      <trkpt lat="47.85074" lon="2.20487">
        <ele>106</ele>
        <time>2017-07-23T06:56:17.121Z</time>
      </trkpt>
      <trkpt lat="47.85077" lon="2.20492">
        <ele>107</ele>
        <time>2017-07-23T06:56:18.111Z</time>
      </trkpt>
      <trkpt lat="47.85077" lon="2.20492">
        <ele>107</ele>
        <time>2017-07-23T06:56:19.148Z</time>
      </trkpt>
      <trkpt lat="47.85084" lon="2.20506">
        <ele>107</ele>
        <time>2017-07-23T06:56:20.111Z</time>
      </trkpt>
      <trkpt lat="47.85084" lon="2.20506">
        <ele>107</ele>
        <time>2017-07-23T06:56:21.141Z</time>
      </trkpt>
      <trkpt lat="47.85092" lon="2.20513">
        <ele>108</ele>
        <time>2017-07-23T06:56:22.147Z</time>
      </trkpt>
      <trkpt lat="47.85096" lon="2.20517">
        <ele>108</ele>
        <time>2017-07-23T06:56:23.113Z</time>
      </trkpt>
      <trkpt lat="47.851" lon="2.20521">
        <ele>108</ele>
        <time>2017-07-23T06:56:24.112Z</time>
      </trkpt>
      <trkpt lat="47.851" lon="2.20521">
        <ele>108</ele>
        <time>2017-07-23T06:56:25.110Z</time>
      </trkpt>
      <trkpt lat="47.85109" lon="2.20532">
        <ele>109</ele>
        <time>2017-07-23T06:56:26.110Z</time>
      </trkpt>
      <trkpt lat="47.85113" lon="2.20539">
        <ele>109</ele>
        <time>2017-07-23T06:56:27.128Z</time>
      </trkpt>
      <trkpt lat="47.85113" lon="2.20539">
        <ele>109</ele>
        <time>2017-07-23T06:56:28.117Z</time>
      </trkpt>
      <trkpt lat="47.8512" lon="2.20551">
        <ele>110</ele>
        <time>2017-07-23T06:56:29.111Z</time>
      </trkpt>
      <trkpt lat="47.8512" lon="2.20551">
        <ele>110</ele>
        <time>2017-07-23T06:56:30.145Z</time>
      </trkpt>
      <trkpt lat="47.85127" lon="2.20564">
        <ele>111</ele>
        <time>2017-07-23T06:56:31.137Z</time>
      </trkpt>
      <trkpt lat="47.85127" lon="2.20564">
        <ele>111</ele>
        <time>2017-07-23T06:56:32.126Z</time>
      </trkpt>
      <trkpt lat="47.85134" lon="2.20578">
        <ele>112</ele>
        <time>2017-07-23T06:56:33.117Z</time>
      </trkpt>
      <trkpt lat="47.85134" lon="2.20578">
        <ele>112</ele>
        <time>2017-07-23T06:56:34.109Z</time>
      </trkpt>
      <trkpt lat="47.8514" lon="2.20592">
        <ele>112</ele>
        <time>2017-07-23T06:56:35.110Z</time>
      </trkpt>
      <trkpt lat="47.85144" lon="2.20603">
        <ele>113</ele>
        <time>2017-07-23T06:56:36.110Z</time>
      </trkpt>
      <trkpt lat="47.85148" lon="2.2061">
        <ele>113</ele>
        <time>2017-07-23T06:56:37.111Z</time>
      </trkpt>
      <trkpt lat="47.85152" lon="2.20617">
        <ele>113</ele>
        <time>2017-07-23T06:56:38.109Z</time>
      </trkpt>
      <trkpt lat="47.85152" lon="2.20617">
        <ele>113</ele>
        <time>2017-07-23T06:56:39.142Z</time>
      </trkpt>
      <trkpt lat="47.85159" lon="2.2063">
        <ele>114</ele>
        <time>2017-07-23T06:56:40.130Z</time>
      </trkpt>
      <trkpt lat="47.85159" lon="2.2063">
        <ele>114</ele>
        <time>2017-07-23T06:56:41.118Z</time>
      </trkpt>
      <trkpt lat="47.85166" lon="2.20643">
        <ele>116</ele>
        <time>2017-07-23T06:56:42.110Z</time>
      </trkpt>
      <trkpt lat="47.8517" lon="2.20651">
        <ele>116</ele>
        <time>2017-07-23T06:56:43.111Z</time>
      </trkpt>
      <trkpt lat="47.8517" lon="2.20651">
        <ele>116</ele>
        <time>2017-07-23T06:56:44.146Z</time>
      </trkpt>
      <trkpt lat="47.85175" lon="2.20667">
        <ele>117</ele>
        <time>2017-07-23T06:56:45.110Z</time>
      </trkpt>
      <trkpt lat="47.85178" lon="2.20675">
        <ele>118</ele>
        <time>2017-07-23T06:56:46.138Z</time>
      </trkpt>
      <trkpt lat="47.85178" lon="2.20675">
        <ele>118</ele>
        <time>2017-07-23T06:56:47.109Z</time>
      </trkpt>
      <trkpt lat="47.85186" lon="2.20689">
        <ele>119</ele>
        <time>2017-07-23T06:56:48.111Z</time>
      </trkpt>
      <trkpt lat="47.85189" lon="2.20695">
        <ele>119</ele>
        <time>2017-07-23T06:56:49.114Z</time>
      </trkpt>
      <trkpt lat="47.85189" lon="2.20695">
        <ele>119</ele>
        <time>2017-07-23T06:56:50.108Z</time>
      </trkpt>
      <trkpt lat="47.85197" lon="2.20708">
        <ele>121</ele>
        <time>2017-07-23T06:56:51.111Z</time>
      </trkpt>
      <trkpt lat="47.85197" lon="2.20708">
        <ele>121</ele>
        <time>2017-07-23T06:56:52.109Z</time>
      </trkpt>
      <trkpt lat="47.85203" lon="2.20719">
        <ele>122</ele>
        <time>2017-07-23T06:56:53.111Z</time>
      </trkpt>
      <trkpt lat="47.85206" lon="2.20726">
        <ele>122</ele>
        <time>2017-07-23T06:56:54.112Z</time>
      </trkpt>
      <trkpt lat="47.85206" lon="2.20726">
        <ele>122</ele>
        <time>2017-07-23T06:56:55.109Z</time>
      </trkpt>
      <trkpt lat="47.85214" lon="2.20738">
        <ele>123</ele>
        <time>2017-07-23T06:56:56.111Z</time>
      </trkpt>
      <trkpt lat="47.85219" lon="2.20745">
        <ele>124</ele>
        <time>2017-07-23T06:56:57.111Z</time>
      </trkpt>
      <trkpt lat="47.85219" lon="2.20745">
        <ele>124</ele>
        <time>2017-07-23T06:56:58.147Z</time>
      </trkpt>
      <trkpt lat="47.85226" lon="2.20759">
        <ele>125</ele>
        <time>2017-07-23T06:56:59.111Z</time>
      </trkpt>
      <trkpt lat="47.85226" lon="2.20759">
        <ele>125</ele>
        <time>2017-07-23T06:57:00.153Z</time>
      </trkpt>
      <trkpt lat="47.85231" lon="2.20774">
        <ele>126</ele>
        <time>2017-07-23T06:57:01.147Z</time>
      </trkpt>
      <trkpt lat="47.85231" lon="2.20774">
        <ele>126</ele>
        <time>2017-07-23T06:57:02.108Z</time>
      </trkpt>
      <trkpt lat="47.85238" lon="2.20791">
        <ele>127</ele>
        <time>2017-07-23T06:57:03.111Z</time>
      </trkpt>
      <trkpt lat="47.85238" lon="2.20791">
        <ele>127</ele>
        <time>2017-07-23T06:57:04.109Z</time>
      </trkpt>
      <trkpt lat="47.85244" lon="2.20807">
        <ele>127</ele>
        <time>2017-07-23T06:57:05.111Z</time>
      </trkpt>
      <trkpt lat="47.85244" lon="2.20807">
        <ele>127</ele>
        <time>2017-07-23T06:57:06.108Z</time>
      </trkpt>
      <trkpt lat="47.85248" lon="2.2082">
        <ele>128</ele>
        <time>2017-07-23T06:57:07.112Z</time>
      </trkpt>
      <trkpt lat="47.85248" lon="2.2082">
        <ele>128</ele>
        <time>2017-07-23T06:57:08.146Z</time>
      </trkpt>
      <trkpt lat="47.85246" lon="2.20833">
        <ele>129</ele>
        <time>2017-07-23T06:57:09.112Z</time>
      </trkpt>
      <trkpt lat="47.85246" lon="2.20833">
        <ele>129</ele>
        <time>2017-07-23T06:57:10.108Z</time>
      </trkpt>
      <trkpt lat="47.85243" lon="2.20847">
        <ele>130</ele>
        <time>2017-07-23T06:57:11.110Z</time>
      </trkpt>
      <trkpt lat="47.85243" lon="2.20854">
        <ele>130</ele>
        <time>2017-07-23T06:57:12.108Z</time>
      </trkpt>
      <trkpt lat="47.85247" lon="2.2086">
        <ele>131</ele>
        <time>2017-07-23T06:57:13.111Z</time>
      </trkpt>
      <trkpt lat="47.85247" lon="2.2086">
        <ele>131</ele>
        <time>2017-07-23T06:57:14.147Z</time>
      </trkpt>
      <trkpt lat="47.85256" lon="2.20872">
        <ele>131</ele>
        <time>2017-07-23T06:57:15.110Z</time>
      </trkpt>
      <trkpt lat="47.85256" lon="2.20872">
        <ele>131</ele>
        <time>2017-07-23T06:57:16.145Z</time>
      </trkpt>
      <trkpt lat="47.85265" lon="2.20887">
        <ele>131</ele>
        <time>2017-07-23T06:57:17.110Z</time>
      </trkpt>
      <trkpt lat="47.85265" lon="2.20887">
        <ele>131</ele>
        <time>2017-07-23T06:57:18.125Z</time>
      </trkpt>
      <trkpt lat="47.85276" lon="2.20902">
        <ele>131</ele>
        <time>2017-07-23T06:57:19.114Z</time>
      </trkpt>
      <trkpt lat="47.85276" lon="2.20902">
        <ele>131</ele>
        <time>2017-07-23T06:57:20.108Z</time>
      </trkpt>
      <trkpt lat="47.85285" lon="2.20918">
        <ele>132</ele>
        <time>2017-07-23T06:57:21.110Z</time>
      </trkpt>
      <trkpt lat="47.85286" lon="2.20925">
        <ele>132</ele>
        <time>2017-07-23T06:57:22.111Z</time>
      </trkpt>
      <trkpt lat="47.85288" lon="2.20933">
        <ele>133</ele>
        <time>2017-07-23T06:57:23.110Z</time>
      </trkpt>
      <trkpt lat="47.85288" lon="2.20933">
        <ele>133</ele>
        <time>2017-07-23T06:57:24.108Z</time>
      </trkpt>
      <trkpt lat="47.8529" lon="2.20947">
        <ele>133</ele>
        <time>2017-07-23T06:57:25.108Z</time>
      </trkpt>
      <trkpt lat="47.8529" lon="2.20947">
        <ele>133</ele>
        <time>2017-07-23T06:57:26.146Z</time>
      </trkpt>
      <trkpt lat="47.85294" lon="2.20961">
        <ele>134</ele>
        <time>2017-07-23T06:57:27.110Z</time>
      </trkpt>
      <trkpt lat="47.85294" lon="2.20961">
        <ele>134</ele>
        <time>2017-07-23T06:57:28.148Z</time>
      </trkpt>
      <trkpt lat="47.853" lon="2.20975">
        <ele>134</ele>
        <time>2017-07-23T06:57:29.111Z</time>
      </trkpt>
      <trkpt lat="47.853" lon="2.20975">
        <ele>134</ele>
        <time>2017-07-23T06:57:30.144Z</time>
      </trkpt>
      <trkpt lat="47.85307" lon="2.20986">
        <ele>135</ele>
        <time>2017-07-23T06:57:31.112Z</time>
      </trkpt>
      <trkpt lat="47.85307" lon="2.20986">
        <ele>135</ele>
        <time>2017-07-23T06:57:32.108Z</time>
      </trkpt>
      <trkpt lat="47.85313" lon="2.20998">
        <ele>135</ele>
        <time>2017-07-23T06:57:33.110Z</time>
      </trkpt>
      <trkpt lat="47.85316" lon="2.21005">
        <ele>135</ele>
        <time>2017-07-23T06:57:34.109Z</time>
      </trkpt>
      <trkpt lat="47.85316" lon="2.21005">
        <ele>135</ele>
        <time>2017-07-23T06:57:35.108Z</time>
      </trkpt>
      <trkpt lat="47.85323" lon="2.21018">
        <ele>134</ele>
        <time>2017-07-23T06:57:36.110Z</time>
      </trkpt>
      <trkpt lat="47.85327" lon="2.21025">
        <ele>134</ele>
        <time>2017-07-23T06:57:37.112Z</time>
      </trkpt>
      <trkpt lat="47.85327" lon="2.21025">
        <ele>134</ele>
        <time>2017-07-23T06:57:38.146Z</time>
      </trkpt>
      <trkpt lat="47.85332" lon="2.21043">
        <ele>129</ele>
        <time>2017-07-23T06:57:39.111Z</time>
      </trkpt>
      <trkpt lat="47.85337" lon="2.2105">
        <ele>127</ele>
        <time>2017-07-23T06:57:40.109Z</time>
      </trkpt>
      <trkpt lat="47.85337" lon="2.2105">
        <ele>127</ele>
        <time>2017-07-23T06:57:41.111Z</time>
      </trkpt>
      <trkpt lat="47.85345" lon="2.21066">
        <ele>124</ele>
        <time>2017-07-23T06:57:42.111Z</time>
      </trkpt>
      <trkpt lat="47.8535" lon="2.21074">
        <ele>123</ele>
        <time>2017-07-23T06:57:43.110Z</time>
      </trkpt>
      <trkpt lat="47.8535" lon="2.21074">
        <ele>123</ele>
        <time>2017-07-23T06:57:44.108Z</time>
      </trkpt>
      <trkpt lat="47.85358" lon="2.21089">
        <ele>121</ele>
        <time>2017-07-23T06:57:45.110Z</time>
      </trkpt>
      <trkpt lat="47.85358" lon="2.21089">
        <ele>121</ele>
        <time>2017-07-23T06:57:46.145Z</time>
      </trkpt>
      <trkpt lat="47.85365" lon="2.21105">
        <ele>120</ele>
        <time>2017-07-23T06:57:47.111Z</time>
      </trkpt>
      <trkpt lat="47.85365" lon="2.21105">
        <ele>120</ele>
        <time>2017-07-23T06:57:48.108Z</time>
      </trkpt>
      <trkpt lat="47.85373" lon="2.21121">
        <ele>119</ele>
        <time>2017-07-23T06:57:49.111Z</time>
      </trkpt>
      <trkpt lat="47.85373" lon="2.21121">
        <ele>119</ele>
        <time>2017-07-23T06:57:50.147Z</time>
      </trkpt>
      <trkpt lat="47.8538" lon="2.21136">
        <ele>118</ele>
        <time>2017-07-23T06:57:51.111Z</time>
      </trkpt>
      <trkpt lat="47.85383" lon="2.21143">
        <ele>118</ele>
        <time>2017-07-23T06:57:52.110Z</time>
      </trkpt>
      <trkpt lat="47.85383" lon="2.21143">
        <ele>118</ele>
        <time>2017-07-23T06:57:53.108Z</time>
      </trkpt>
      <trkpt lat="47.85391" lon="2.21158">
        <ele>116</ele>
        <time>2017-07-23T06:57:54.110Z</time>
      </trkpt>
      <trkpt lat="47.85395" lon="2.21166">
        <ele>115</ele>
        <time>2017-07-23T06:57:55.112Z</time>
      </trkpt>
      <trkpt lat="47.85395" lon="2.21166">
        <ele>115</ele>
        <time>2017-07-23T06:57:56.147Z</time>
      </trkpt>
      <trkpt lat="47.85401" lon="2.2118">
        <ele>114</ele>
        <time>2017-07-23T06:57:57.148Z</time>
      </trkpt>
      <trkpt lat="47.85404" lon="2.21188">
        <ele>114</ele>
        <time>2017-07-23T06:57:58.110Z</time>
      </trkpt>
      <trkpt lat="47.85404" lon="2.21188">
        <ele>114</ele>
        <time>2017-07-23T06:57:59.145Z</time>
      </trkpt>
      <trkpt lat="47.85411" lon="2.21202">
        <ele>113</ele>
        <time>2017-07-23T06:58:00.117Z</time>
      </trkpt>
      <trkpt lat="47.85415" lon="2.2121">
        <ele>112</ele>
        <time>2017-07-23T06:58:01.112Z</time>
      </trkpt>
      <trkpt lat="47.85415" lon="2.2121">
        <ele>112</ele>
        <time>2017-07-23T06:58:02.108Z</time>
      </trkpt>
      <trkpt lat="47.8542" lon="2.21225">
        <ele>112</ele>
        <time>2017-07-23T06:58:03.147Z</time>
      </trkpt>
      <trkpt lat="47.85423" lon="2.21232">
        <ele>112</ele>
        <time>2017-07-23T06:58:04.110Z</time>
      </trkpt>
      <trkpt lat="47.85423" lon="2.21232">
        <ele>112</ele>
        <time>2017-07-23T06:58:05.114Z</time>
      </trkpt>
      <trkpt lat="47.85428" lon="2.21246">
        <ele>111</ele>
        <time>2017-07-23T06:58:06.110Z</time>
      </trkpt>
      <trkpt lat="47.85431" lon="2.21254">
        <ele>110</ele>
        <time>2017-07-23T06:58:07.110Z</time>
      </trkpt>
      <trkpt lat="47.85431" lon="2.21254">
        <ele>110</ele>
        <time>2017-07-23T06:58:08.108Z</time>
      </trkpt>
      <trkpt lat="47.85437" lon="2.21267">
        <ele>110</ele>
        <time>2017-07-23T06:58:09.137Z</time>
      </trkpt>
      <trkpt lat="47.85437" lon="2.21267">
        <ele>110</ele>
        <time>2017-07-23T06:58:10.126Z</time>
      </trkpt>
      <trkpt lat="47.85442" lon="2.21282">
        <ele>109</ele>
        <time>2017-07-23T06:58:11.124Z</time>
      </trkpt>
      <trkpt lat="47.85445" lon="2.21289">
        <ele>109</ele>
        <time>2017-07-23T06:58:12.115Z</time>
      </trkpt>
      <trkpt lat="47.85448" lon="2.21296">
        <ele>109</ele>
        <time>2017-07-23T06:58:13.112Z</time>
      </trkpt>
      <trkpt lat="47.85448" lon="2.21296">
        <ele>109</ele>
        <time>2017-07-23T06:58:14.113Z</time>
      </trkpt>
      <trkpt lat="47.85454" lon="2.21311">
        <ele>108</ele>
        <time>2017-07-23T06:58:15.110Z</time>
      </trkpt>
      <trkpt lat="47.85454" lon="2.21311">
        <ele>108</ele>
        <time>2017-07-23T06:58:16.147Z</time>
      </trkpt>
      <trkpt lat="47.85459" lon="2.21327">
        <ele>108</ele>
        <time>2017-07-23T06:58:17.110Z</time>
      </trkpt>
      <trkpt lat="47.85459" lon="2.21327">
        <ele>108</ele>
        <time>2017-07-23T06:58:18.148Z</time>
      </trkpt>
      <trkpt lat="47.85464" lon="2.21343">
        <ele>108</ele>
        <time>2017-07-23T06:58:19.111Z</time>
      </trkpt>
      <trkpt lat="47.85464" lon="2.21343">
        <ele>108</ele>
        <time>2017-07-23T06:58:20.108Z</time>
      </trkpt>
      <trkpt lat="47.8547" lon="2.21359">
        <ele>107</ele>
        <time>2017-07-23T06:58:21.110Z</time>
      </trkpt>
      <trkpt lat="47.85472" lon="2.21367">
        <ele>106</ele>
        <time>2017-07-23T06:58:22.111Z</time>
      </trkpt>
      <trkpt lat="47.85472" lon="2.21367">
        <ele>106</ele>
        <time>2017-07-23T06:58:23.147Z</time>
      </trkpt>
      <trkpt lat="47.85477" lon="2.2138">
        <ele>106</ele>
        <time>2017-07-23T06:58:24.109Z</time>
      </trkpt>
      <trkpt lat="47.85479" lon="2.21387">
        <ele>106</ele>
        <time>2017-07-23T06:58:25.109Z</time>
      </trkpt>
      <trkpt lat="47.85479" lon="2.21387">
        <ele>106</ele>
        <time>2017-07-23T06:58:26.145Z</time>
      </trkpt>
      <trkpt lat="47.85484" lon="2.21401">
        <ele>106</ele>
        <time>2017-07-23T06:58:27.111Z</time>
      </trkpt>
      <trkpt lat="47.85484" lon="2.21401">
        <ele>106</ele>
        <time>2017-07-23T06:58:28.108Z</time>
      </trkpt>
      <trkpt lat="47.85489" lon="2.21416">
        <ele>105</ele>
        <time>2017-07-23T06:58:29.110Z</time>
      </trkpt>
      <trkpt lat="47.85491" lon="2.21424">
        <ele>106</ele>
        <time>2017-07-23T06:58:30.110Z</time>
      </trkpt>
      <trkpt lat="47.85493" lon="2.21432">
        <ele>106</ele>
        <time>2017-07-23T06:58:31.112Z</time>
      </trkpt>
      <trkpt lat="47.85493" lon="2.21432">
        <ele>106</ele>
        <time>2017-07-23T06:58:32.108Z</time>
      </trkpt>
      <trkpt lat="47.85498" lon="2.21447">
        <ele>106</ele>
        <time>2017-07-23T06:58:33.110Z</time>
      </trkpt>
      <trkpt lat="47.855" lon="2.21454">
        <ele>106</ele>
        <time>2017-07-23T06:58:34.108Z</time>
      </trkpt>
      <trkpt lat="47.855" lon="2.21454">
        <ele>106</ele>
        <time>2017-07-23T06:58:35.146Z</time>
      </trkpt>
      <trkpt lat="47.85504" lon="2.21469">
        <ele>106</ele>
        <time>2017-07-23T06:58:36.143Z</time>
      </trkpt>
      <trkpt lat="47.85506" lon="2.21476">
        <ele>106</ele>
        <time>2017-07-23T06:58:37.110Z</time>
      </trkpt>
      <trkpt lat="47.85506" lon="2.21476">
        <ele>106</ele>
        <time>2017-07-23T06:58:38.108Z</time>
      </trkpt>
      <trkpt lat="47.85511" lon="2.21491">
        <ele>106</ele>
        <time>2017-07-23T06:58:39.110Z</time>
      </trkpt>
      <trkpt lat="47.85513" lon="2.21498">
        <ele>107</ele>
        <time>2017-07-23T06:58:40.109Z</time>
      </trkpt>
      <trkpt lat="47.85513" lon="2.21498">
        <ele>107</ele>
        <time>2017-07-23T06:58:41.147Z</time>
      </trkpt>
      <trkpt lat="47.85517" lon="2.21513">
        <ele>107</ele>
        <time>2017-07-23T06:58:42.111Z</time>
      </trkpt>
      <trkpt lat="47.85519" lon="2.2152">
        <ele>107</ele>
        <time>2017-07-23T06:58:43.111Z</time>
      </trkpt>
      <trkpt lat="47.85519" lon="2.2152">
        <ele>107</ele>
        <time>2017-07-23T06:58:44.146Z</time>
      </trkpt>
      <trkpt lat="47.85523" lon="2.21536">
        <ele>107</ele>
        <time>2017-07-23T06:58:45.110Z</time>
      </trkpt>
      <trkpt lat="47.85523" lon="2.21536">
        <ele>107</ele>
        <time>2017-07-23T06:58:46.128Z</time>
      </trkpt>
      <trkpt lat="47.85525" lon="2.21552">
        <ele>107</ele>
        <time>2017-07-23T06:58:47.119Z</time>
      </trkpt>
      <trkpt lat="47.85525" lon="2.21552">
        <ele>107</ele>
        <time>2017-07-23T06:58:48.147Z</time>
      </trkpt>
      <trkpt lat="47.85528" lon="2.21567">
        <ele>107</ele>
        <time>2017-07-23T06:58:49.111Z</time>
      </trkpt>
      <trkpt lat="47.85528" lon="2.21567">
        <ele>107</ele>
        <time>2017-07-23T06:58:50.109Z</time>
      </trkpt>
      <trkpt lat="47.85532" lon="2.21581">
        <ele>107</ele>
        <time>2017-07-23T06:58:51.110Z</time>
      </trkpt>
      <trkpt lat="47.85533" lon="2.21589">
        <ele>108</ele>
        <time>2017-07-23T06:58:52.110Z</time>
      </trkpt>
      <trkpt lat="47.85533" lon="2.21589">
        <ele>108</ele>
        <time>2017-07-23T06:58:53.108Z</time>
      </trkpt>
      <trkpt lat="47.85535" lon="2.21603">
        <ele>108</ele>
        <time>2017-07-23T06:58:54.120Z</time>
      </trkpt>
      <trkpt lat="47.85535" lon="2.21603">
        <ele>108</ele>
        <time>2017-07-23T06:58:55.110Z</time>
      </trkpt>
      <trkpt lat="47.85538" lon="2.21617">
        <ele>108</ele>
        <time>2017-07-23T06:58:56.112Z</time>
      </trkpt>
      <trkpt lat="47.85538" lon="2.21617">
        <ele>108</ele>
        <time>2017-07-23T06:58:57.149Z</time>
      </trkpt>
      <trkpt lat="47.85541" lon="2.21632">
        <ele>109</ele>
        <time>2017-07-23T06:58:58.143Z</time>
      </trkpt>
      <trkpt lat="47.85541" lon="2.21632">
        <ele>109</ele>
        <time>2017-07-23T06:58:59.109Z</time>
      </trkpt>
      <trkpt lat="47.85545" lon="2.21645">
        <ele>110</ele>
        <time>2017-07-23T06:59:00.115Z</time>
      </trkpt>
      <trkpt lat="47.85546" lon="2.21652">
        <ele>110</ele>
        <time>2017-07-23T06:59:01.121Z</time>
      </trkpt>
      <trkpt lat="47.85547" lon="2.21659">
        <ele>110</ele>
        <time>2017-07-23T06:59:02.111Z</time>
      </trkpt>
      <trkpt lat="47.85547" lon="2.21659">
        <ele>110</ele>
        <time>2017-07-23T06:59:03.145Z</time>
      </trkpt>
      <trkpt lat="47.85549" lon="2.21671">
        <ele>111</ele>
        <time>2017-07-23T06:59:04.110Z</time>
      </trkpt>
      <trkpt lat="47.85549" lon="2.21671">
        <ele>111</ele>
        <time>2017-07-23T06:59:05.147Z</time>
      </trkpt>
      <trkpt lat="47.85552" lon="2.21684">
        <ele>112</ele>
        <time>2017-07-23T06:59:06.113Z</time>
      </trkpt>
      <trkpt lat="47.85552" lon="2.21684">
        <ele>112</ele>
        <time>2017-07-23T06:59:07.109Z</time>
      </trkpt>
      <trkpt lat="47.85557" lon="2.21698">
        <ele>113</ele>
        <time>2017-07-23T06:59:08.110Z</time>
      </trkpt>
      <trkpt lat="47.85557" lon="2.21698">
        <ele>113</ele>
        <time>2017-07-23T06:59:09.147Z</time>
      </trkpt>
      <trkpt lat="47.85562" lon="2.2171">
        <ele>114</ele>
        <time>2017-07-23T06:59:10.111Z</time>
      </trkpt>
      <trkpt lat="47.85562" lon="2.2171">
        <ele>114</ele>
        <time>2017-07-23T06:59:11.146Z</time>
      </trkpt>
      <trkpt lat="47.85566" lon="2.21724">
        <ele>115</ele>
        <time>2017-07-23T06:59:12.110Z</time>
      </trkpt>
      <trkpt lat="47.85568" lon="2.21732">
        <ele>115</ele>
        <time>2017-07-23T06:59:13.111Z</time>
      </trkpt>
      <trkpt lat="47.85568" lon="2.21732">
        <ele>115</ele>
        <time>2017-07-23T06:59:14.146Z</time>
      </trkpt>
      <trkpt lat="47.85571" lon="2.21747">
        <ele>116</ele>
        <time>2017-07-23T06:59:15.110Z</time>
      </trkpt>
      <trkpt lat="47.85571" lon="2.21747">
        <ele>116</ele>
        <time>2017-07-23T06:59:16.108Z</time>
      </trkpt>
      <trkpt lat="47.85572" lon="2.2176">
        <ele>117</ele>
        <time>2017-07-23T06:59:17.110Z</time>
      </trkpt>
      <trkpt lat="47.85573" lon="2.21767">
        <ele>117</ele>
        <time>2017-07-23T06:59:18.111Z</time>
      </trkpt>
      <trkpt lat="47.85575" lon="2.21776">
        <ele>117</ele>
        <time>2017-07-23T06:59:19.112Z</time>
      </trkpt>
      <trkpt lat="47.85575" lon="2.21776">
        <ele>117</ele>
        <time>2017-07-23T06:59:20.108Z</time>
      </trkpt>
      <trkpt lat="47.8558" lon="2.21788">
        <ele>118</ele>
        <time>2017-07-23T06:59:21.111Z</time>
      </trkpt>
      <trkpt lat="47.8558" lon="2.21788">
        <ele>118</ele>
        <time>2017-07-23T06:59:22.145Z</time>
      </trkpt>
      <trkpt lat="47.85584" lon="2.21802">
        <ele>118</ele>
        <time>2017-07-23T06:59:23.111Z</time>
      </trkpt>
      <trkpt lat="47.85584" lon="2.21802">
        <ele>118</ele>
        <time>2017-07-23T06:59:24.108Z</time>
      </trkpt>
      <trkpt lat="47.85586" lon="2.21816">
        <ele>119</ele>
        <time>2017-07-23T06:59:25.111Z</time>
      </trkpt>
      <trkpt lat="47.85586" lon="2.21816">
        <ele>119</ele>
        <time>2017-07-23T06:59:26.147Z</time>
      </trkpt>
      <trkpt lat="47.85588" lon="2.21832">
        <ele>120</ele>
        <time>2017-07-23T06:59:27.111Z</time>
      </trkpt>
      <trkpt lat="47.85588" lon="2.21841">
        <ele>120</ele>
        <time>2017-07-23T06:59:28.111Z</time>
      </trkpt>
      <trkpt lat="47.85588" lon="2.21841">
        <ele>120</ele>
        <time>2017-07-23T06:59:29.123Z</time>
      </trkpt>
      <trkpt lat="47.85592" lon="2.21858">
        <ele>121</ele>
        <time>2017-07-23T06:59:30.112Z</time>
      </trkpt>
      <trkpt lat="47.85593" lon="2.21867">
        <ele>121</ele>
        <time>2017-07-23T06:59:31.110Z</time>
      </trkpt>
      <trkpt lat="47.85593" lon="2.21867">
        <ele>121</ele>
        <time>2017-07-23T06:59:32.108Z</time>
      </trkpt>
      <trkpt lat="47.85596" lon="2.21885">
        <ele>123</ele>
        <time>2017-07-23T06:59:33.110Z</time>
      </trkpt>
      <trkpt lat="47.85597" lon="2.21894">
        <ele>123</ele>
        <time>2017-07-23T06:59:34.111Z</time>
      </trkpt>
      <trkpt lat="47.85597" lon="2.21894">
        <ele>123</ele>
        <time>2017-07-23T06:59:35.109Z</time>
      </trkpt>
      <trkpt lat="47.85601" lon="2.21913">
        <ele>125</ele>
        <time>2017-07-23T06:59:36.110Z</time>
      </trkpt>
      <trkpt lat="47.85602" lon="2.21922">
        <ele>125</ele>
        <time>2017-07-23T06:59:37.112Z</time>
      </trkpt>
      <trkpt lat="47.85602" lon="2.21922">
        <ele>125</ele>
        <time>2017-07-23T06:59:38.108Z</time>
      </trkpt>
      <trkpt lat="47.85605" lon="2.2194">
        <ele>127</ele>
        <time>2017-07-23T06:59:39.110Z</time>
      </trkpt>
      <trkpt lat="47.85605" lon="2.2194">
        <ele>127</ele>
        <time>2017-07-23T06:59:40.146Z</time>
      </trkpt>
      <trkpt lat="47.85609" lon="2.21958">
        <ele>128</ele>
        <time>2017-07-23T06:59:41.110Z</time>
      </trkpt>
      <trkpt lat="47.85609" lon="2.21958">
        <ele>128</ele>
        <time>2017-07-23T06:59:42.108Z</time>
      </trkpt>
      <trkpt lat="47.85611" lon="2.21977">
        <ele>129</ele>
        <time>2017-07-23T06:59:43.112Z</time>
      </trkpt>
      <trkpt lat="47.85611" lon="2.21977">
        <ele>129</ele>
        <time>2017-07-23T06:59:44.145Z</time>
      </trkpt>
      <trkpt lat="47.85613" lon="2.21997">
        <ele>130</ele>
        <time>2017-07-23T06:59:45.110Z</time>
      </trkpt>
      <trkpt lat="47.85613" lon="2.21997">
        <ele>130</ele>
        <time>2017-07-23T06:59:46.113Z</time>
      </trkpt>
      <trkpt lat="47.85614" lon="2.22014">
        <ele>131</ele>
        <time>2017-07-23T06:59:47.110Z</time>
      </trkpt>
      <trkpt lat="47.85616" lon="2.22023">
        <ele>131</ele>
        <time>2017-07-23T06:59:48.108Z</time>
      </trkpt>
      <trkpt lat="47.85621" lon="2.22039">
        <ele>131</ele>
        <time>2017-07-23T06:59:49.111Z</time>
      </trkpt>
      <trkpt lat="47.85621" lon="2.22039">
        <ele>131</ele>
        <time>2017-07-23T06:59:50.145Z</time>
      </trkpt>
      <trkpt lat="47.85623" lon="2.22055">
        <ele>132</ele>
        <time>2017-07-23T06:59:51.110Z</time>
      </trkpt>
      <trkpt lat="47.85623" lon="2.22055">
        <ele>132</ele>
        <time>2017-07-23T06:59:52.108Z</time>
      </trkpt>
      <trkpt lat="47.85626" lon="2.2207">
        <ele>133</ele>
        <time>2017-07-23T06:59:53.110Z</time>
      </trkpt>
      <trkpt lat="47.85626" lon="2.2207">
        <ele>133</ele>
        <time>2017-07-23T06:59:54.108Z</time>
      </trkpt>
      <trkpt lat="47.85629" lon="2.22087">
        <ele>134</ele>
        <time>2017-07-23T06:59:55.111Z</time>
      </trkpt>
      <trkpt lat="47.85629" lon="2.22087">
        <ele>134</ele>
        <time>2017-07-23T06:59:56.145Z</time>
      </trkpt>
      <trkpt lat="47.85631" lon="2.22104">
        <ele>135</ele>
        <time>2017-07-23T06:59:57.110Z</time>
      </trkpt>
      <trkpt lat="47.85632" lon="2.22113">
        <ele>135</ele>
        <time>2017-07-23T06:59:58.110Z</time>
      </trkpt>
      <trkpt lat="47.85632" lon="2.22113">
        <ele>135</ele>
        <time>2017-07-23T06:59:59.108Z</time>
      </trkpt>
      <trkpt lat="47.85633" lon="2.22128">
        <ele>136</ele>
        <time>2017-07-23T07:00:00.143Z</time>
      </trkpt>
      <trkpt lat="47.85634" lon="2.22136">
        <ele>137</ele>
        <time>2017-07-23T07:00:01.114Z</time>
      </trkpt>
      <trkpt lat="47.85634" lon="2.22136">
        <ele>137</ele>
        <time>2017-07-23T07:00:02.148Z</time>
      </trkpt>
      <trkpt lat="47.85636" lon="2.22152">
        <ele>138</ele>
        <time>2017-07-23T07:00:03.110Z</time>
      </trkpt>
      <trkpt lat="47.85636" lon="2.22152">
        <ele>138</ele>
        <time>2017-07-23T07:00:04.147Z</time>
      </trkpt>
      <trkpt lat="47.85637" lon="2.2217">
        <ele>138</ele>
        <time>2017-07-23T07:00:05.110Z</time>
      </trkpt>
      <trkpt lat="47.85637" lon="2.2217">
        <ele>138</ele>
        <time>2017-07-23T07:00:06.108Z</time>
      </trkpt>
      <trkpt lat="47.85638" lon="2.22188">
        <ele>139</ele>
        <time>2017-07-23T07:00:07.111Z</time>
      </trkpt>
      <trkpt lat="47.85639" lon="2.22197">
        <ele>140</ele>
        <time>2017-07-23T07:00:08.111Z</time>
      </trkpt>
      <trkpt lat="47.85639" lon="2.22206">
        <ele>140</ele>
        <time>2017-07-23T07:00:09.108Z</time>
      </trkpt>
      <trkpt lat="47.85639" lon="2.22206">
        <ele>140</ele>
        <time>2017-07-23T07:00:10.144Z</time>
      </trkpt>
      <trkpt lat="47.85639" lon="2.22227">
        <ele>140</ele>
        <time>2017-07-23T07:00:11.111Z</time>
      </trkpt>
      <trkpt lat="47.85636" lon="2.22235">
        <ele>139</ele>
        <time>2017-07-23T07:00:12.110Z</time>
      </trkpt>
      <trkpt lat="47.85636" lon="2.22235">
        <ele>139</ele>
        <time>2017-07-23T07:00:13.109Z</time>
      </trkpt>
      <trkpt lat="47.85633" lon="2.22253">
        <ele>139</ele>
        <time>2017-07-23T07:00:14.111Z</time>
      </trkpt>
      <trkpt lat="47.85633" lon="2.22253">
        <ele>139</ele>
        <time>2017-07-23T07:00:15.140Z</time>
      </trkpt>
      <trkpt lat="47.8563" lon="2.22272">
        <ele>138</ele>
        <time>2017-07-23T07:00:16.111Z</time>
      </trkpt>
      <trkpt lat="47.8563" lon="2.22272">
        <ele>138</ele>
        <time>2017-07-23T07:00:17.108Z</time>
      </trkpt>
      <trkpt lat="47.85626" lon="2.22291">
        <ele>137</ele>
        <time>2017-07-23T07:00:18.111Z</time>
      </trkpt>
      <trkpt lat="47.85625" lon="2.22301">
        <ele>136</ele>
        <time>2017-07-23T07:00:19.112Z</time>
      </trkpt>
      <trkpt lat="47.85625" lon="2.22301">
        <ele>136</ele>
        <time>2017-07-23T07:00:20.145Z</time>
      </trkpt>
      <trkpt lat="47.8562" lon="2.22321">
        <ele>133</ele>
        <time>2017-07-23T07:00:21.110Z</time>
      </trkpt>
      <trkpt lat="47.85618" lon="2.22324">
        <ele>132</ele>
        <time>2017-07-23T07:00:22.111Z</time>
      </trkpt>
      <trkpt lat="47.85618" lon="2.22324">
        <ele>132</ele>
        <time>2017-07-23T07:00:23.108Z</time>
      </trkpt>
      <trkpt lat="47.85617" lon="2.2233">
        <ele>130</ele>
        <time>2017-07-23T07:00:24.108Z</time>
      </trkpt>
      <trkpt lat="47.85616" lon="2.22333">
        <ele>129</ele>
        <time>2017-07-23T07:00:25.110Z</time>
      </trkpt>
      <trkpt lat="47.85616" lon="2.22333">
        <ele>129</ele>
        <time>2017-07-23T07:00:26.130Z</time>
      </trkpt>
      <trkpt lat="47.85616" lon="2.2234">
        <ele>126</ele>
        <time>2017-07-23T07:00:27.124Z</time>
      </trkpt>
      <trkpt lat="47.85616" lon="2.22344">
        <ele>125</ele>
        <time>2017-07-23T07:00:28.116Z</time>
      </trkpt>
      <trkpt lat="47.85616" lon="2.22344">
        <ele>125</ele>
        <time>2017-07-23T07:00:29.146Z</time>
      </trkpt>
      <trkpt lat="47.85617" lon="2.2235">
        <ele>123</ele>
        <time>2017-07-23T07:00:30.111Z</time>
      </trkpt>
      <trkpt lat="47.85617" lon="2.2235">
        <ele>123</ele>
        <time>2017-07-23T07:00:31.110Z</time>
      </trkpt>
      <trkpt lat="47.85618" lon="2.22356">
        <ele>121</ele>
        <time>2017-07-23T07:00:32.112Z</time>
      </trkpt>
      <trkpt lat="47.85619" lon="2.22359">
        <ele>120</ele>
        <time>2017-07-23T07:00:33.111Z</time>
      </trkpt>
      <trkpt lat="47.85619" lon="2.22359">
        <ele>120</ele>
        <time>2017-07-23T07:00:34.109Z</time>
      </trkpt>
      <trkpt lat="47.85625" lon="2.22364">
        <ele>119</ele>
        <time>2017-07-23T07:00:35.111Z</time>
      </trkpt>
      <trkpt lat="47.85625" lon="2.22364">
        <ele>119</ele>
        <time>2017-07-23T07:00:36.110Z</time>
      </trkpt>
      <trkpt lat="47.85633" lon="2.22366">
        <ele>118</ele>
        <time>2017-07-23T07:00:37.115Z</time>
      </trkpt>
      <trkpt lat="47.85637" lon="2.22366">
        <ele>117</ele>
        <time>2017-07-23T07:00:38.111Z</time>
      </trkpt>
      <trkpt lat="47.85642" lon="2.22365">
        <ele>117</ele>
        <time>2017-07-23T07:00:39.111Z</time>
      </trkpt>
      <trkpt lat="47.85642" lon="2.22365">
        <ele>117</ele>
        <time>2017-07-23T07:00:40.109Z</time>
      </trkpt>
      <trkpt lat="47.85652" lon="2.22363">
        <ele>116</ele>
        <time>2017-07-23T07:00:41.110Z</time>
      </trkpt>
      <trkpt lat="47.85652" lon="2.22363">
        <ele>116</ele>
        <time>2017-07-23T07:00:42.146Z</time>
      </trkpt>
      <trkpt lat="47.85661" lon="2.22362">
        <ele>115</ele>
        <time>2017-07-23T07:00:43.111Z</time>
      </trkpt>
      <trkpt lat="47.85661" lon="2.22362">
        <ele>115</ele>
        <time>2017-07-23T07:00:44.108Z</time>
      </trkpt>
      <trkpt lat="47.85671" lon="2.2236">
        <ele>115</ele>
        <time>2017-07-23T07:00:45.111Z</time>
      </trkpt>
      <trkpt lat="47.85671" lon="2.2236">
        <ele>115</ele>
        <time>2017-07-23T07:00:46.145Z</time>
      </trkpt>
      <trkpt lat="47.8568" lon="2.22358">
        <ele>115</ele>
        <time>2017-07-23T07:00:47.112Z</time>
      </trkpt>
      <trkpt lat="47.8568" lon="2.22358">
        <ele>115</ele>
        <time>2017-07-23T07:00:48.108Z</time>
      </trkpt>
      <trkpt lat="47.8569" lon="2.22356">
        <ele>115</ele>
        <time>2017-07-23T07:00:49.112Z</time>
      </trkpt>
      <trkpt lat="47.8569" lon="2.22356">
        <ele>115</ele>
        <time>2017-07-23T07:00:50.145Z</time>
      </trkpt>
      <trkpt lat="47.85699" lon="2.22356">
        <ele>115</ele>
        <time>2017-07-23T07:00:51.111Z</time>
      </trkpt>
      <trkpt lat="47.85703" lon="2.22356">
        <ele>115</ele>
        <time>2017-07-23T07:00:52.111Z</time>
      </trkpt>
      <trkpt lat="47.85703" lon="2.22356">
        <ele>115</ele>
        <time>2017-07-23T07:00:53.108Z</time>
      </trkpt>
      <trkpt lat="47.85712" lon="2.22354">
        <ele>117</ele>
        <time>2017-07-23T07:00:54.111Z</time>
      </trkpt>
      <trkpt lat="47.85716" lon="2.22353">
        <ele>116</ele>
        <time>2017-07-23T07:00:55.112Z</time>
      </trkpt>
      <trkpt lat="47.85716" lon="2.22353">
        <ele>116</ele>
        <time>2017-07-23T07:00:56.147Z</time>
      </trkpt>
      <trkpt lat="47.85726" lon="2.22353">
        <ele>116</ele>
        <time>2017-07-23T07:00:57.111Z</time>
      </trkpt>
      <trkpt lat="47.85726" lon="2.22353">
        <ele>116</ele>
        <time>2017-07-23T07:00:58.145Z</time>
      </trkpt>
      <trkpt lat="47.85734" lon="2.22352">
        <ele>117</ele>
        <time>2017-07-23T07:00:59.111Z</time>
      </trkpt>
      <trkpt lat="47.85739" lon="2.22352">
        <ele>117</ele>
        <time>2017-07-23T07:01:00.113Z</time>
      </trkpt>
      <trkpt lat="47.85739" lon="2.22352">
        <ele>117</ele>
        <time>2017-07-23T07:01:01.110Z</time>
      </trkpt>
      <trkpt lat="47.85748" lon="2.22351">
        <ele>117</ele>
        <time>2017-07-23T07:01:02.111Z</time>
      </trkpt>
      <trkpt lat="47.85752" lon="2.22351">
        <ele>117</ele>
        <time>2017-07-23T07:01:03.108Z</time>
      </trkpt>
      <trkpt lat="47.85752" lon="2.22351">
        <ele>117</ele>
        <time>2017-07-23T07:01:04.146Z</time>
      </trkpt>
      <trkpt lat="47.85762" lon="2.2235">
        <ele>116</ele>
        <time>2017-07-23T07:01:05.110Z</time>
      </trkpt>
      <trkpt lat="47.85767" lon="2.2235">
        <ele>116</ele>
        <time>2017-07-23T07:01:06.111Z</time>
      </trkpt>
      <trkpt lat="47.85767" lon="2.2235">
        <ele>116</ele>
        <time>2017-07-23T07:01:07.109Z</time>
      </trkpt>
      <trkpt lat="47.85776" lon="2.22348">
        <ele>115</ele>
        <time>2017-07-23T07:01:08.108Z</time>
      </trkpt>
      <trkpt lat="47.85781" lon="2.22347">
        <ele>114</ele>
        <time>2017-07-23T07:01:09.120Z</time>
      </trkpt>
      <trkpt lat="47.85781" lon="2.22347">
        <ele>114</ele>
        <time>2017-07-23T07:01:10.110Z</time>
      </trkpt>
      <trkpt lat="47.8579" lon="2.22347">
        <ele>115</ele>
        <time>2017-07-23T07:01:11.111Z</time>
      </trkpt>
      <trkpt lat="47.8579" lon="2.22347">
        <ele>115</ele>
        <time>2017-07-23T07:01:12.109Z</time>
      </trkpt>
      <trkpt lat="47.858" lon="2.22346">
        <ele>115</ele>
        <time>2017-07-23T07:01:13.114Z</time>
      </trkpt>
      <trkpt lat="47.858" lon="2.22346">
        <ele>115</ele>
        <time>2017-07-23T07:01:14.108Z</time>
      </trkpt>
      <trkpt lat="47.8581" lon="2.22345">
        <ele>115</ele>
        <time>2017-07-23T07:01:15.112Z</time>
      </trkpt>
      <trkpt lat="47.8581" lon="2.22345">
        <ele>115</ele>
        <time>2017-07-23T07:01:16.146Z</time>
      </trkpt>
      <trkpt lat="47.85819" lon="2.22344">
        <ele>115</ele>
        <time>2017-07-23T07:01:17.111Z</time>
      </trkpt>
      <trkpt lat="47.85819" lon="2.22344">
        <ele>115</ele>
        <time>2017-07-23T07:01:18.114Z</time>
      </trkpt>
      <trkpt lat="47.85829" lon="2.22343">
        <ele>116</ele>
        <time>2017-07-23T07:01:19.112Z</time>
      </trkpt>
      <trkpt lat="47.85829" lon="2.22343">
        <ele>116</ele>
        <time>2017-07-23T07:01:20.109Z</time>
      </trkpt>
      <trkpt lat="47.85838" lon="2.22343">
        <ele>116</ele>
        <time>2017-07-23T07:01:21.111Z</time>
      </trkpt>
      <trkpt lat="47.85843" lon="2.22343">
        <ele>116</ele>
        <time>2017-07-23T07:01:22.111Z</time>
      </trkpt>
      <trkpt lat="47.85848" lon="2.22343">
        <ele>116</ele>
        <time>2017-07-23T07:01:23.111Z</time>
      </trkpt>
      <trkpt lat="47.85848" lon="2.22343">
        <ele>116</ele>
        <time>2017-07-23T07:01:24.109Z</time>
      </trkpt>
      <trkpt lat="47.85858" lon="2.22342">
        <ele>116</ele>
        <time>2017-07-23T07:01:25.109Z</time>
      </trkpt>
      <trkpt lat="47.85858" lon="2.22342">
        <ele>116</ele>
        <time>2017-07-23T07:01:26.146Z</time>
      </trkpt>
      <trkpt lat="47.85868" lon="2.22342">
        <ele>116</ele>
        <time>2017-07-23T07:01:27.112Z</time>
      </trkpt>
      <trkpt lat="47.85868" lon="2.22342">
        <ele>116</ele>
        <time>2017-07-23T07:01:28.117Z</time>
      </trkpt>
      <trkpt lat="47.85878" lon="2.22341">
        <ele>116</ele>
        <time>2017-07-23T07:01:29.111Z</time>
      </trkpt>
      <trkpt lat="47.85878" lon="2.22341">
        <ele>116</ele>
        <time>2017-07-23T07:01:30.146Z</time>
      </trkpt>
      <trkpt lat="47.85888" lon="2.22339">
        <ele>115</ele>
        <time>2017-07-23T07:01:31.111Z</time>
      </trkpt>
      <trkpt lat="47.85888" lon="2.22339">
        <ele>115</ele>
        <time>2017-07-23T07:01:32.108Z</time>
      </trkpt>
      <trkpt lat="47.85899" lon="2.22337">
        <ele>114</ele>
        <time>2017-07-23T07:01:33.111Z</time>
      </trkpt>
      <trkpt lat="47.85899" lon="2.22337">
        <ele>114</ele>
        <time>2017-07-23T07:01:34.145Z</time>
      </trkpt>
      <trkpt lat="47.85909" lon="2.22336">
        <ele>113</ele>
        <time>2017-07-23T07:01:35.111Z</time>
      </trkpt>
      <trkpt lat="47.85909" lon="2.22336">
        <ele>113</ele>
        <time>2017-07-23T07:01:36.109Z</time>
      </trkpt>
      <trkpt lat="47.85919" lon="2.22335">
        <ele>112</ele>
        <time>2017-07-23T07:01:37.112Z</time>
      </trkpt>
      <trkpt lat="47.85919" lon="2.22335">
        <ele>112</ele>
        <time>2017-07-23T07:01:38.125Z</time>
      </trkpt>
      <trkpt lat="47.85929" lon="2.22333">
        <ele>112</ele>
        <time>2017-07-23T07:01:39.120Z</time>
      </trkpt>
      <trkpt lat="47.85929" lon="2.22333">
        <ele>112</ele>
        <time>2017-07-23T07:01:40.125Z</time>
      </trkpt>
      <trkpt lat="47.85939" lon="2.22333">
        <ele>112</ele>
        <time>2017-07-23T07:01:41.114Z</time>
      </trkpt>
      <trkpt lat="47.85939" lon="2.22333">
        <ele>112</ele>
        <time>2017-07-23T07:01:42.146Z</time>
      </trkpt>
      <trkpt lat="47.85948" lon="2.22332">
        <ele>112</ele>
        <time>2017-07-23T07:01:43.112Z</time>
      </trkpt>
      <trkpt lat="47.85948" lon="2.22332">
        <ele>112</ele>
        <time>2017-07-23T07:01:44.109Z</time>
      </trkpt>
      <trkpt lat="47.85957" lon="2.22332">
        <ele>112</ele>
        <time>2017-07-23T07:01:45.108Z</time>
      </trkpt>
      <trkpt lat="47.85957" lon="2.22332">
        <ele>112</ele>
        <time>2017-07-23T07:01:46.146Z</time>
      </trkpt>
      <trkpt lat="47.85966" lon="2.22331">
        <ele>112</ele>
        <time>2017-07-23T07:01:47.110Z</time>
      </trkpt>
      <trkpt lat="47.85966" lon="2.22331">
        <ele>112</ele>
        <time>2017-07-23T07:01:48.147Z</time>
      </trkpt>
      <trkpt lat="47.85976" lon="2.2233">
        <ele>111</ele>
        <time>2017-07-23T07:01:49.111Z</time>
      </trkpt>
      <trkpt lat="47.85981" lon="2.22329">
        <ele>112</ele>
        <time>2017-07-23T07:01:50.131Z</time>
      </trkpt>
      <trkpt lat="47.85981" lon="2.22329">
        <ele>112</ele>
        <time>2017-07-23T07:01:51.120Z</time>
      </trkpt>
      <trkpt lat="47.85989" lon="2.22334">
        <ele>114</ele>
        <time>2017-07-23T07:01:52.112Z</time>
      </trkpt>
      <trkpt lat="47.85989" lon="2.22334">
        <ele>114</ele>
        <time>2017-07-23T07:01:53.109Z</time>
      </trkpt>
      <trkpt lat="47.85993" lon="2.22346">
        <ele>114</ele>
        <time>2017-07-23T07:01:54.147Z</time>
      </trkpt>
      <trkpt lat="47.85993" lon="2.22353">
        <ele>114</ele>
        <time>2017-07-23T07:01:55.113Z</time>
      </trkpt>
      <trkpt lat="47.85993" lon="2.22353">
        <ele>114</ele>
        <time>2017-07-23T07:01:56.120Z</time>
      </trkpt>
      <trkpt lat="47.85992" lon="2.22368">
        <ele>114</ele>
        <time>2017-07-23T07:01:57.127Z</time>
      </trkpt>
      <trkpt lat="47.85992" lon="2.22368">
        <ele>114</ele>
        <time>2017-07-23T07:01:58.122Z</time>
      </trkpt>
      <trkpt lat="47.85991" lon="2.22385">
        <ele>115</ele>
        <time>2017-07-23T07:01:59.111Z</time>
      </trkpt>
      <trkpt lat="47.85991" lon="2.22385">
        <ele>115</ele>
        <time>2017-07-23T07:02:00.110Z</time>
      </trkpt>
      <trkpt lat="47.85991" lon="2.22403">
        <ele>115</ele>
        <time>2017-07-23T07:02:01.132Z</time>
      </trkpt>
      <trkpt lat="47.85991" lon="2.22403">
        <ele>115</ele>
        <time>2017-07-23T07:02:02.121Z</time>
      </trkpt>
      <trkpt lat="47.85992" lon="2.22419">
        <ele>115</ele>
        <time>2017-07-23T07:02:03.111Z</time>
      </trkpt>
      <trkpt lat="47.85992" lon="2.22419">
        <ele>115</ele>
        <time>2017-07-23T07:02:04.109Z</time>
      </trkpt>
      <trkpt lat="47.85993" lon="2.22436">
        <ele>115</ele>
        <time>2017-07-23T07:02:05.111Z</time>
      </trkpt>
      <trkpt lat="47.85993" lon="2.22436">
        <ele>115</ele>
        <time>2017-07-23T07:02:06.145Z</time>
      </trkpt>
      <trkpt lat="47.85994" lon="2.22452">
        <ele>115</ele>
        <time>2017-07-23T07:02:07.111Z</time>
      </trkpt>
      <trkpt lat="47.85994" lon="2.22452">
        <ele>115</ele>
        <time>2017-07-23T07:02:08.146Z</time>
      </trkpt>
      <trkpt lat="47.85994" lon="2.22468">
        <ele>115</ele>
        <time>2017-07-23T07:02:09.112Z</time>
      </trkpt>
      <trkpt lat="47.85994" lon="2.22468">
        <ele>115</ele>
        <time>2017-07-23T07:02:10.109Z</time>
      </trkpt>
      <trkpt lat="47.85995" lon="2.22485">
        <ele>116</ele>
        <time>2017-07-23T07:02:11.111Z</time>
      </trkpt>
      <trkpt lat="47.85995" lon="2.22494">
        <ele>116</ele>
        <time>2017-07-23T07:02:12.111Z</time>
      </trkpt>
      <trkpt lat="47.85995" lon="2.22502">
        <ele>116</ele>
        <time>2017-07-23T07:02:13.112Z</time>
      </trkpt>
      <trkpt lat="47.85995" lon="2.22502">
        <ele>116</ele>
        <time>2017-07-23T07:02:14.108Z</time>
      </trkpt>
      <trkpt lat="47.85995" lon="2.22519">
        <ele>115</ele>
        <time>2017-07-23T07:02:15.112Z</time>
      </trkpt>
      <trkpt lat="47.85995" lon="2.22519">
        <ele>115</ele>
        <time>2017-07-23T07:02:16.147Z</time>
      </trkpt>
      <trkpt lat="47.85995" lon="2.22535">
        <ele>115</ele>
        <time>2017-07-23T07:02:17.111Z</time>
      </trkpt>
      <trkpt lat="47.85995" lon="2.22535">
        <ele>115</ele>
        <time>2017-07-23T07:02:18.144Z</time>
      </trkpt>
      <trkpt lat="47.85996" lon="2.22551">
        <ele>115</ele>
        <time>2017-07-23T07:02:19.109Z</time>
      </trkpt>
      <trkpt lat="47.85996" lon="2.22551">
        <ele>115</ele>
        <time>2017-07-23T07:02:20.145Z</time>
      </trkpt>
      <trkpt lat="47.85997" lon="2.22567">
        <ele>115</ele>
        <time>2017-07-23T07:02:21.110Z</time>
      </trkpt>
      <trkpt lat="47.85997" lon="2.22567">
        <ele>115</ele>
        <time>2017-07-23T07:02:22.108Z</time>
      </trkpt>
      <trkpt lat="47.85998" lon="2.22583">
        <ele>115</ele>
        <time>2017-07-23T07:02:23.110Z</time>
      </trkpt>
      <trkpt lat="47.85999" lon="2.22592">
        <ele>115</ele>
        <time>2017-07-23T07:02:24.108Z</time>
      </trkpt>
      <trkpt lat="47.86" lon="2.22601">
        <ele>114</ele>
        <time>2017-07-23T07:02:25.112Z</time>
      </trkpt>
      <trkpt lat="47.86" lon="2.22601">
        <ele>114</ele>
        <time>2017-07-23T07:02:26.124Z</time>
      </trkpt>
      <trkpt lat="47.86" lon="2.22619">
        <ele>114</ele>
        <time>2017-07-23T07:02:27.113Z</time>
      </trkpt>
      <trkpt lat="47.85999" lon="2.22629">
        <ele>113</ele>
        <time>2017-07-23T07:02:28.120Z</time>
      </trkpt>
      <trkpt lat="47.85999" lon="2.22629">
        <ele>113</ele>
        <time>2017-07-23T07:02:29.113Z</time>
      </trkpt>
      <trkpt lat="47.85999" lon="2.22649">
        <ele>112</ele>
        <time>2017-07-23T07:02:30.112Z</time>
      </trkpt>
      <trkpt lat="47.85999" lon="2.22649">
        <ele>112</ele>
        <time>2017-07-23T07:02:31.110Z</time>
      </trkpt>
      <trkpt lat="47.85998" lon="2.22669">
        <ele>112</ele>
        <time>2017-07-23T07:02:32.111Z</time>
      </trkpt>
      <trkpt lat="47.85996" lon="2.22677">
        <ele>111</ele>
        <time>2017-07-23T07:02:33.112Z</time>
      </trkpt>
      <trkpt lat="47.85996" lon="2.22677">
        <ele>111</ele>
        <time>2017-07-23T07:02:34.108Z</time>
      </trkpt>
      <trkpt lat="47.85993" lon="2.22691">
        <ele>111</ele>
        <time>2017-07-23T07:02:35.111Z</time>
      </trkpt>
      <trkpt lat="47.85992" lon="2.22698">
        <ele>111</ele>
        <time>2017-07-23T07:02:36.111Z</time>
      </trkpt>
      <trkpt lat="47.85992" lon="2.22698">
        <ele>111</ele>
        <time>2017-07-23T07:02:37.109Z</time>
      </trkpt>
      <trkpt lat="47.85988" lon="2.22715">
        <ele>110</ele>
        <time>2017-07-23T07:02:38.122Z</time>
      </trkpt>
      <trkpt lat="47.85987" lon="2.22724">
        <ele>110</ele>
        <time>2017-07-23T07:02:39.113Z</time>
      </trkpt>
      <trkpt lat="47.85987" lon="2.22724">
        <ele>110</ele>
        <time>2017-07-23T07:02:40.109Z</time>
      </trkpt>
      <trkpt lat="47.85987" lon="2.22745">
        <ele>109</ele>
        <time>2017-07-23T07:02:41.111Z</time>
      </trkpt>
      <trkpt lat="47.85987" lon="2.22745">
        <ele>109</ele>
        <time>2017-07-23T07:02:42.146Z</time>
      </trkpt>
      <trkpt lat="47.85987" lon="2.22767">
        <ele>109</ele>
        <time>2017-07-23T07:02:43.112Z</time>
      </trkpt>
      <trkpt lat="47.85987" lon="2.22767">
        <ele>109</ele>
        <time>2017-07-23T07:02:44.109Z</time>
      </trkpt>
      <trkpt lat="47.85985" lon="2.2279">
        <ele>108</ele>
        <time>2017-07-23T07:02:45.111Z</time>
      </trkpt>
      <trkpt lat="47.85985" lon="2.2279">
        <ele>108</ele>
        <time>2017-07-23T07:02:46.147Z</time>
      </trkpt>
      <trkpt lat="47.85983" lon="2.22816">
        <ele>108</ele>
        <time>2017-07-23T07:02:47.110Z</time>
      </trkpt>
      <trkpt lat="47.85983" lon="2.22816">
        <ele>108</ele>
        <time>2017-07-23T07:02:48.112Z</time>
      </trkpt>
      <trkpt lat="47.85982" lon="2.22836">
        <ele>107</ele>
        <time>2017-07-23T07:02:49.111Z</time>
      </trkpt>
      <trkpt lat="47.85982" lon="2.22836">
        <ele>107</ele>
        <time>2017-07-23T07:02:50.108Z</time>
      </trkpt>
      <trkpt lat="47.8598" lon="2.22856">
        <ele>107</ele>
        <time>2017-07-23T07:02:51.111Z</time>
      </trkpt>
      <trkpt lat="47.8598" lon="2.22856">
        <ele>107</ele>
        <time>2017-07-23T07:02:52.108Z</time>
      </trkpt>
      <trkpt lat="47.85979" lon="2.22872">
        <ele>106</ele>
        <time>2017-07-23T07:02:53.111Z</time>
      </trkpt>
      <trkpt lat="47.85979" lon="2.22872">
        <ele>106</ele>
        <time>2017-07-23T07:02:54.109Z</time>
      </trkpt>
      <trkpt lat="47.85979" lon="2.22887">
        <ele>106</ele>
        <time>2017-07-23T07:02:55.111Z</time>
      </trkpt>
      <trkpt lat="47.85978" lon="2.22896">
        <ele>106</ele>
        <time>2017-07-23T07:02:56.112Z</time>
      </trkpt>
      <trkpt lat="47.85977" lon="2.22904">
        <ele>106</ele>
        <time>2017-07-23T07:02:57.112Z</time>
      </trkpt>
      <trkpt lat="47.85977" lon="2.22904">
        <ele>106</ele>
        <time>2017-07-23T07:02:58.118Z</time>
      </trkpt>
      <trkpt lat="47.85974" lon="2.2292">
        <ele>106</ele>
        <time>2017-07-23T07:02:59.108Z</time>
      </trkpt>
      <trkpt lat="47.85972" lon="2.22928">
        <ele>106</ele>
        <time>2017-07-23T07:03:00.119Z</time>
      </trkpt>
      <trkpt lat="47.85972" lon="2.22928">
        <ele>106</ele>
        <time>2017-07-23T07:03:01.109Z</time>
      </trkpt>
      <trkpt lat="47.85968" lon="2.22944">
        <ele>105</ele>
        <time>2017-07-23T07:03:02.111Z</time>
      </trkpt>
      <trkpt lat="47.85968" lon="2.22944">
        <ele>105</ele>
        <time>2017-07-23T07:03:03.110Z</time>
      </trkpt>
      <trkpt lat="47.85966" lon="2.22962">
        <ele>105</ele>
        <time>2017-07-23T07:03:04.111Z</time>
      </trkpt>
      <trkpt lat="47.85966" lon="2.22962">
        <ele>105</ele>
        <time>2017-07-23T07:03:05.108Z</time>
      </trkpt>
      <trkpt lat="47.85963" lon="2.22979">
        <ele>105</ele>
        <time>2017-07-23T07:03:06.114Z</time>
      </trkpt>
      <trkpt lat="47.85963" lon="2.22979">
        <ele>105</ele>
        <time>2017-07-23T07:03:07.109Z</time>
      </trkpt>
      <trkpt lat="47.8596" lon="2.22993">
        <ele>105</ele>
        <time>2017-07-23T07:03:08.121Z</time>
      </trkpt>
      <trkpt lat="47.85959" lon="2.23">
        <ele>105</ele>
        <time>2017-07-23T07:03:09.121Z</time>
      </trkpt>
      <trkpt lat="47.85959" lon="2.23">
        <ele>105</ele>
        <time>2017-07-23T07:03:10.110Z</time>
      </trkpt>
      <trkpt lat="47.85956" lon="2.23014">
        <ele>105</ele>
        <time>2017-07-23T07:03:11.111Z</time>
      </trkpt>
      <trkpt lat="47.85956" lon="2.23014">
        <ele>105</ele>
        <time>2017-07-23T07:03:12.109Z</time>
      </trkpt>
      <trkpt lat="47.85954" lon="2.2303">
        <ele>105</ele>
        <time>2017-07-23T07:03:13.111Z</time>
      </trkpt>
      <trkpt lat="47.85954" lon="2.2303">
        <ele>105</ele>
        <time>2017-07-23T07:03:14.108Z</time>
      </trkpt>
      <trkpt lat="47.8595" lon="2.23048">
        <ele>105</ele>
        <time>2017-07-23T07:03:15.111Z</time>
      </trkpt>
      <trkpt lat="47.8595" lon="2.23048">
        <ele>105</ele>
        <time>2017-07-23T07:03:16.109Z</time>
      </trkpt>
      <trkpt lat="47.85948" lon="2.23062">
        <ele>105</ele>
        <time>2017-07-23T07:03:17.111Z</time>
      </trkpt>
      <trkpt lat="47.85948" lon="2.23062">
        <ele>105</ele>
        <time>2017-07-23T07:03:18.108Z</time>
      </trkpt>
      <trkpt lat="47.85946" lon="2.23075">
        <ele>105</ele>
        <time>2017-07-23T07:03:19.111Z</time>
      </trkpt>
      <trkpt lat="47.85946" lon="2.23075">
        <ele>105</ele>
        <time>2017-07-23T07:03:20.108Z</time>
      </trkpt>
      <trkpt lat="47.85942" lon="2.23089">
        <ele>105</ele>
        <time>2017-07-23T07:03:21.108Z</time>
      </trkpt>
      <trkpt lat="47.85942" lon="2.23089">
        <ele>105</ele>
        <time>2017-07-23T07:03:22.109Z</time>
      </trkpt>
      <trkpt lat="47.8594" lon="2.23104">
        <ele>105</ele>
        <time>2017-07-23T07:03:23.108Z</time>
      </trkpt>
      <trkpt lat="47.85939" lon="2.2311">
        <ele>105</ele>
        <time>2017-07-23T07:03:24.114Z</time>
      </trkpt>
      <trkpt lat="47.85938" lon="2.23117">
        <ele>105</ele>
        <time>2017-07-23T07:03:25.123Z</time>
      </trkpt>
      <trkpt lat="47.85938" lon="2.23117">
        <ele>105</ele>
        <time>2017-07-23T07:03:26.115Z</time>
      </trkpt>
      <trkpt lat="47.85931" lon="2.23147">
        <ele>106</ele>
        <time>2017-07-23T07:03:27.113Z</time>
      </trkpt>
      <trkpt lat="47.85931" lon="2.23147">
        <ele>106</ele>
        <time>2017-07-23T07:03:28.147Z</time>
      </trkpt>
      <trkpt lat="47.85927" lon="2.23167">
        <ele>106</ele>
        <time>2017-07-23T07:03:29.111Z</time>
      </trkpt>
      <trkpt lat="47.85927" lon="2.23167">
        <ele>106</ele>
        <time>2017-07-23T07:03:30.111Z</time>
      </trkpt>
      <trkpt lat="47.85922" lon="2.2319">
        <ele>106</ele>
        <time>2017-07-23T07:03:31.112Z</time>
      </trkpt>
      <trkpt lat="47.85922" lon="2.2319">
        <ele>106</ele>
        <time>2017-07-23T07:03:32.146Z</time>
      </trkpt>
      <trkpt lat="47.85918" lon="2.2321">
        <ele>106</ele>
        <time>2017-07-23T07:03:33.110Z</time>
      </trkpt>
      <trkpt lat="47.85918" lon="2.2321">
        <ele>106</ele>
        <time>2017-07-23T07:03:34.109Z</time>
      </trkpt>
      <trkpt lat="47.85914" lon="2.2323">
        <ele>106</ele>
        <time>2017-07-23T07:03:35.111Z</time>
      </trkpt>
      <trkpt lat="47.85914" lon="2.2323">
        <ele>106</ele>
        <time>2017-07-23T07:03:36.109Z</time>
      </trkpt>
      <trkpt lat="47.8591" lon="2.23246">
        <ele>106</ele>
        <time>2017-07-23T07:03:37.112Z</time>
      </trkpt>
      <trkpt lat="47.8591" lon="2.23246">
        <ele>106</ele>
        <time>2017-07-23T07:03:38.109Z</time>
      </trkpt>
      <trkpt lat="47.85907" lon="2.23264">
        <ele>106</ele>
        <time>2017-07-23T07:03:39.112Z</time>
      </trkpt>
      <trkpt lat="47.85906" lon="2.23273">
        <ele>106</ele>
        <time>2017-07-23T07:03:40.112Z</time>
      </trkpt>
      <trkpt lat="47.85906" lon="2.23273">
        <ele>106</ele>
        <time>2017-07-23T07:03:41.109Z</time>
      </trkpt>
      <trkpt lat="47.85902" lon="2.23294">
        <ele>106</ele>
        <time>2017-07-23T07:03:42.111Z</time>
      </trkpt>
      <trkpt lat="47.85901" lon="2.23302">
        <ele>106</ele>
        <time>2017-07-23T07:03:43.112Z</time>
      </trkpt>
      <trkpt lat="47.85901" lon="2.23302">
        <ele>106</ele>
        <time>2017-07-23T07:03:44.108Z</time>
      </trkpt>
      <trkpt lat="47.85897" lon="2.2332">
        <ele>106</ele>
        <time>2017-07-23T07:03:45.111Z</time>
      </trkpt>
      <trkpt lat="47.85897" lon="2.2332">
        <ele>106</ele>
        <time>2017-07-23T07:03:46.146Z</time>
      </trkpt>
      <trkpt lat="47.85894" lon="2.23335">
        <ele>106</ele>
        <time>2017-07-23T07:03:47.111Z</time>
      </trkpt>
      <trkpt lat="47.85894" lon="2.23335">
        <ele>106</ele>
        <time>2017-07-23T07:03:48.109Z</time>
      </trkpt>
      <trkpt lat="47.85891" lon="2.23352">
        <ele>107</ele>
        <time>2017-07-23T07:03:49.112Z</time>
      </trkpt>
      <trkpt lat="47.85891" lon="2.23352">
        <ele>107</ele>
        <time>2017-07-23T07:03:50.147Z</time>
      </trkpt>
      <trkpt lat="47.85889" lon="2.23367">
        <ele>107</ele>
        <time>2017-07-23T07:03:51.112Z</time>
      </trkpt>
      <trkpt lat="47.85889" lon="2.23367">
        <ele>107</ele>
        <time>2017-07-23T07:03:52.109Z</time>
      </trkpt>
      <trkpt lat="47.85888" lon="2.23379">
        <ele>107</ele>
        <time>2017-07-23T07:03:53.111Z</time>
      </trkpt>
      <trkpt lat="47.85888" lon="2.23379">
        <ele>107</ele>
        <time>2017-07-23T07:03:54.146Z</time>
      </trkpt>
      <trkpt lat="47.85887" lon="2.23394">
        <ele>108</ele>
        <time>2017-07-23T07:03:55.112Z</time>
      </trkpt>
      <trkpt lat="47.85887" lon="2.23394">
        <ele>108</ele>
        <time>2017-07-23T07:03:56.110Z</time>
      </trkpt>
      <trkpt lat="47.85882" lon="2.23415">
        <ele>108</ele>
        <time>2017-07-23T07:03:57.112Z</time>
      </trkpt>
      <trkpt lat="47.85882" lon="2.23415">
        <ele>108</ele>
        <time>2017-07-23T07:03:58.108Z</time>
      </trkpt>
      <trkpt lat="47.85879" lon="2.23432">
        <ele>109</ele>
        <time>2017-07-23T07:03:59.111Z</time>
      </trkpt>
      <trkpt lat="47.85879" lon="2.23432">
        <ele>109</ele>
        <time>2017-07-23T07:04:00.112Z</time>
      </trkpt>
      <trkpt lat="47.85875" lon="2.23448">
        <ele>109</ele>
        <time>2017-07-23T07:04:01.115Z</time>
      </trkpt>
      <trkpt lat="47.85875" lon="2.23448">
        <ele>109</ele>
        <time>2017-07-23T07:04:02.109Z</time>
      </trkpt>
      <trkpt lat="47.8587" lon="2.23465">
        <ele>110</ele>
        <time>2017-07-23T07:04:03.112Z</time>
      </trkpt>
      <trkpt lat="47.8587" lon="2.23465">
        <ele>110</ele>
        <time>2017-07-23T07:04:04.108Z</time>
      </trkpt>
      <trkpt lat="47.85855" lon="2.23513">
        <ele>111</ele>
        <time>2017-07-23T07:04:05.112Z</time>
      </trkpt>
      <trkpt lat="47.85855" lon="2.23513">
        <ele>111</ele>
        <time>2017-07-23T07:04:06.109Z</time>
      </trkpt>
      <trkpt lat="47.85849" lon="2.23543">
        <ele>113</ele>
        <time>2017-07-23T07:04:07.111Z</time>
      </trkpt>
      <trkpt lat="47.85849" lon="2.23543">
        <ele>113</ele>
        <time>2017-07-23T07:04:08.108Z</time>
      </trkpt>
      <trkpt lat="47.85845" lon="2.23564">
        <ele>113</ele>
        <time>2017-07-23T07:04:09.125Z</time>
      </trkpt>
      <trkpt lat="47.85841" lon="2.2358">
        <ele>114</ele>
        <time>2017-07-23T07:04:10.132Z</time>
      </trkpt>
      <trkpt lat="47.85841" lon="2.2358">
        <ele>114</ele>
        <time>2017-07-23T07:04:11.121Z</time>
      </trkpt>
      <trkpt lat="47.85832" lon="2.23617">
        <ele>114</ele>
        <time>2017-07-23T07:04:12.112Z</time>
      </trkpt>
      <trkpt lat="47.85829" lon="2.2363">
        <ele>114</ele>
        <time>2017-07-23T07:04:13.116Z</time>
      </trkpt>
      <trkpt lat="47.85829" lon="2.2363">
        <ele>114</ele>
        <time>2017-07-23T07:04:14.109Z</time>
      </trkpt>
      <trkpt lat="47.85821" lon="2.2366">
        <ele>115</ele>
        <time>2017-07-23T07:04:15.112Z</time>
      </trkpt>
      <trkpt lat="47.85821" lon="2.2366">
        <ele>115</ele>
        <time>2017-07-23T07:04:16.111Z</time>
      </trkpt>
      <trkpt lat="47.85815" lon="2.23683">
        <ele>115</ele>
        <time>2017-07-23T07:04:17.132Z</time>
      </trkpt>
      <trkpt lat="47.85815" lon="2.23683">
        <ele>115</ele>
        <time>2017-07-23T07:04:18.142Z</time>
      </trkpt>
      <trkpt lat="47.85803" lon="2.23724">
        <ele>117</ele>
        <time>2017-07-23T07:04:19.109Z</time>
      </trkpt>
      <trkpt lat="47.85799" lon="2.23749">
        <ele>116</ele>
        <time>2017-07-23T07:04:20.125Z</time>
      </trkpt>
      <trkpt lat="47.85795" lon="2.23761">
        <ele>116</ele>
        <time>2017-07-23T07:04:21.131Z</time>
      </trkpt>
      <trkpt lat="47.85795" lon="2.23761">
        <ele>116</ele>
        <time>2017-07-23T07:04:22.121Z</time>
      </trkpt>
      <trkpt lat="47.85789" lon="2.23783">
        <ele>116</ele>
        <time>2017-07-23T07:04:23.112Z</time>
      </trkpt>
      <trkpt lat="47.85789" lon="2.23783">
        <ele>116</ele>
        <time>2017-07-23T07:04:24.109Z</time>
      </trkpt>
      <trkpt lat="47.85784" lon="2.23801">
        <ele>113</ele>
        <time>2017-07-23T07:04:25.112Z</time>
      </trkpt>
      <trkpt lat="47.85784" lon="2.23801">
        <ele>113</ele>
        <time>2017-07-23T07:04:26.109Z</time>
      </trkpt>
      <trkpt lat="47.85781" lon="2.23819">
        <ele>112</ele>
        <time>2017-07-23T07:04:27.112Z</time>
      </trkpt>
      <trkpt lat="47.85781" lon="2.23819">
        <ele>112</ele>
        <time>2017-07-23T07:04:28.109Z</time>
      </trkpt>
      <trkpt lat="47.85778" lon="2.23838">
        <ele>112</ele>
        <time>2017-07-23T07:04:29.111Z</time>
      </trkpt>
      <trkpt lat="47.85777" lon="2.23848">
        <ele>111</ele>
        <time>2017-07-23T07:04:30.112Z</time>
      </trkpt>
      <trkpt lat="47.85777" lon="2.23848">
        <ele>111</ele>
        <time>2017-07-23T07:04:31.109Z</time>
      </trkpt>
      <trkpt lat="47.85775" lon="2.23867">
        <ele>111</ele>
        <time>2017-07-23T07:04:32.111Z</time>
      </trkpt>
      <trkpt lat="47.85773" lon="2.23877">
        <ele>111</ele>
        <time>2017-07-23T07:04:33.112Z</time>
      </trkpt>
      <trkpt lat="47.85773" lon="2.23877">
        <ele>111</ele>
        <time>2017-07-23T07:04:34.146Z</time>
      </trkpt>
      <trkpt lat="47.85769" lon="2.23895">
        <ele>110</ele>
        <time>2017-07-23T07:04:35.111Z</time>
      </trkpt>
      <trkpt lat="47.85769" lon="2.23895">
        <ele>110</ele>
        <time>2017-07-23T07:04:36.109Z</time>
      </trkpt>
      <trkpt lat="47.85764" lon="2.23914">
        <ele>110</ele>
        <time>2017-07-23T07:04:37.110Z</time>
      </trkpt>
      <trkpt lat="47.85764" lon="2.23914">
        <ele>110</ele>
        <time>2017-07-23T07:04:38.147Z</time>
      </trkpt>
      <trkpt lat="47.85759" lon="2.23933">
        <ele>109</ele>
        <time>2017-07-23T07:04:39.113Z</time>
      </trkpt>
      <trkpt lat="47.85759" lon="2.23933">
        <ele>109</ele>
        <time>2017-07-23T07:04:40.109Z</time>
      </trkpt>
      <trkpt lat="47.85755" lon="2.23952">
        <ele>109</ele>
        <time>2017-07-23T07:04:41.112Z</time>
      </trkpt>
      <trkpt lat="47.85755" lon="2.23952">
        <ele>109</ele>
        <time>2017-07-23T07:04:42.146Z</time>
      </trkpt>
      <trkpt lat="47.85751" lon="2.23969">
        <ele>109</ele>
        <time>2017-07-23T07:04:43.113Z</time>
      </trkpt>
      <trkpt lat="47.85751" lon="2.23969">
        <ele>109</ele>
        <time>2017-07-23T07:04:44.109Z</time>
      </trkpt>
      <trkpt lat="47.85747" lon="2.23987">
        <ele>108</ele>
        <time>2017-07-23T07:04:45.111Z</time>
      </trkpt>
      <trkpt lat="47.85744" lon="2.23996">
        <ele>108</ele>
        <time>2017-07-23T07:04:46.111Z</time>
      </trkpt>
      <trkpt lat="47.85744" lon="2.23996">
        <ele>108</ele>
        <time>2017-07-23T07:04:47.147Z</time>
      </trkpt>
      <trkpt lat="47.8574" lon="2.24014">
        <ele>108</ele>
        <time>2017-07-23T07:04:48.111Z</time>
      </trkpt>
      <trkpt lat="47.85738" lon="2.24022">
        <ele>107</ele>
        <time>2017-07-23T07:04:49.112Z</time>
      </trkpt>
      <trkpt lat="47.85738" lon="2.24022">
        <ele>107</ele>
        <time>2017-07-23T07:04:50.147Z</time>
      </trkpt>
      <trkpt lat="47.85733" lon="2.24039">
        <ele>107</ele>
        <time>2017-07-23T07:04:51.112Z</time>
      </trkpt>
      <trkpt lat="47.85731" lon="2.24047">
        <ele>107</ele>
        <time>2017-07-23T07:04:52.111Z</time>
      </trkpt>
      <trkpt lat="47.85731" lon="2.24047">
        <ele>107</ele>
        <time>2017-07-23T07:04:53.110Z</time>
      </trkpt>
      <trkpt lat="47.85727" lon="2.24063">
        <ele>107</ele>
        <time>2017-07-23T07:04:54.112Z</time>
      </trkpt>
      <trkpt lat="47.85727" lon="2.24063">
        <ele>107</ele>
        <time>2017-07-23T07:04:55.109Z</time>
      </trkpt>
      <trkpt lat="47.85724" lon="2.24078">
        <ele>107</ele>
        <time>2017-07-23T07:04:56.111Z</time>
      </trkpt>
      <trkpt lat="47.85722" lon="2.24084">
        <ele>107</ele>
        <time>2017-07-23T07:04:57.109Z</time>
      </trkpt>
      <trkpt lat="47.85722" lon="2.24084">
        <ele>107</ele>
        <time>2017-07-23T07:04:58.147Z</time>
      </trkpt>
      <trkpt lat="47.85718" lon="2.24101">
        <ele>107</ele>
        <time>2017-07-23T07:04:59.111Z</time>
      </trkpt>
      <trkpt lat="47.85718" lon="2.24101">
        <ele>107</ele>
        <time>2017-07-23T07:05:00.111Z</time>
      </trkpt>
      <trkpt lat="47.85715" lon="2.24117">
        <ele>107</ele>
        <time>2017-07-23T07:05:01.113Z</time>
      </trkpt>
      <trkpt lat="47.85715" lon="2.24117">
        <ele>107</ele>
        <time>2017-07-23T07:05:02.112Z</time>
      </trkpt>
      <trkpt lat="47.85712" lon="2.24129">
        <ele>106</ele>
        <time>2017-07-23T07:05:03.111Z</time>
      </trkpt>
      <trkpt lat="47.85712" lon="2.24129">
        <ele>106</ele>
        <time>2017-07-23T07:05:04.108Z</time>
      </trkpt>
      <trkpt lat="47.85706" lon="2.24131">
        <ele>107</ele>
        <time>2017-07-23T07:05:05.111Z</time>
      </trkpt>
      <trkpt lat="47.85704" lon="2.24131">
        <ele>106</ele>
        <time>2017-07-23T07:05:06.111Z</time>
      </trkpt>
      <trkpt lat="47.85701" lon="2.2413">
        <ele>106</ele>
        <time>2017-07-23T07:05:07.113Z</time>
      </trkpt>
      <trkpt lat="47.85701" lon="2.2413">
        <ele>106</ele>
        <time>2017-07-23T07:05:08.109Z</time>
      </trkpt>
      <trkpt lat="47.85693" lon="2.24132">
        <ele>106</ele>
        <time>2017-07-23T07:05:09.112Z</time>
      </trkpt>
      <trkpt lat="47.85693" lon="2.24132">
        <ele>106</ele>
        <time>2017-07-23T07:05:10.121Z</time>
      </trkpt>
      <trkpt lat="47.85684" lon="2.2414">
        <ele>105</ele>
        <time>2017-07-23T07:05:11.112Z</time>
      </trkpt>
      <trkpt lat="47.85684" lon="2.2414">
        <ele>105</ele>
        <time>2017-07-23T07:05:12.109Z</time>
      </trkpt>
      <trkpt lat="47.85676" lon="2.2415">
        <ele>105</ele>
        <time>2017-07-23T07:05:13.112Z</time>
      </trkpt>
      <trkpt lat="47.85671" lon="2.24155">
        <ele>105</ele>
        <time>2017-07-23T07:05:14.110Z</time>
      </trkpt>
      <trkpt lat="47.85671" lon="2.24155">
        <ele>105</ele>
        <time>2017-07-23T07:05:15.109Z</time>
      </trkpt>
      <trkpt lat="47.85661" lon="2.24165">
        <ele>105</ele>
        <time>2017-07-23T07:05:16.112Z</time>
      </trkpt>
      <trkpt lat="47.85661" lon="2.24165">
        <ele>105</ele>
        <time>2017-07-23T07:05:17.109Z</time>
      </trkpt>
      <trkpt lat="47.8565" lon="2.24175">
        <ele>106</ele>
        <time>2017-07-23T07:05:18.112Z</time>
      </trkpt>
      <trkpt lat="47.8565" lon="2.24175">
        <ele>106</ele>
        <time>2017-07-23T07:05:19.110Z</time>
      </trkpt>
      <trkpt lat="47.85639" lon="2.24184">
        <ele>106</ele>
        <time>2017-07-23T07:05:20.112Z</time>
      </trkpt>
      <trkpt lat="47.85639" lon="2.24184">
        <ele>106</ele>
        <time>2017-07-23T07:05:21.114Z</time>
      </trkpt>
      <trkpt lat="47.85629" lon="2.24193">
        <ele>106</ele>
        <time>2017-07-23T07:05:22.112Z</time>
      </trkpt>
      <trkpt lat="47.85629" lon="2.24193">
        <ele>106</ele>
        <time>2017-07-23T07:05:23.109Z</time>
      </trkpt>
      <trkpt lat="47.85618" lon="2.24203">
        <ele>106</ele>
        <time>2017-07-23T07:05:24.113Z</time>
      </trkpt>
      <trkpt lat="47.85618" lon="2.24203">
        <ele>106</ele>
        <time>2017-07-23T07:05:25.109Z</time>
      </trkpt>
      <trkpt lat="47.85607" lon="2.24214">
        <ele>106</ele>
        <time>2017-07-23T07:05:26.110Z</time>
      </trkpt>
      <trkpt lat="47.85602" lon="2.24219">
        <ele>106</ele>
        <time>2017-07-23T07:05:27.112Z</time>
      </trkpt>
      <trkpt lat="47.85602" lon="2.24219">
        <ele>106</ele>
        <time>2017-07-23T07:05:28.108Z</time>
      </trkpt>
      <trkpt lat="47.85591" lon="2.2423">
        <ele>105</ele>
        <time>2017-07-23T07:05:29.110Z</time>
      </trkpt>
      <trkpt lat="47.85591" lon="2.2423">
        <ele>105</ele>
        <time>2017-07-23T07:05:30.109Z</time>
      </trkpt>
      <trkpt lat="47.85581" lon="2.2424">
        <ele>105</ele>
        <time>2017-07-23T07:05:31.112Z</time>
      </trkpt>
      <trkpt lat="47.85581" lon="2.2424">
        <ele>105</ele>
        <time>2017-07-23T07:05:32.109Z</time>
      </trkpt>
      <trkpt lat="47.8557" lon="2.24251">
        <ele>105</ele>
        <time>2017-07-23T07:05:33.112Z</time>
      </trkpt>
      <trkpt lat="47.8557" lon="2.24251">
        <ele>105</ele>
        <time>2017-07-23T07:05:34.109Z</time>
      </trkpt>
      <trkpt lat="47.8556" lon="2.24262">
        <ele>105</ele>
        <time>2017-07-23T07:05:35.112Z</time>
      </trkpt>
      <trkpt lat="47.8556" lon="2.24262">
        <ele>105</ele>
        <time>2017-07-23T07:05:36.109Z</time>
      </trkpt>
      <trkpt lat="47.85548" lon="2.24272">
        <ele>105</ele>
        <time>2017-07-23T07:05:37.112Z</time>
      </trkpt>
      <trkpt lat="47.85548" lon="2.24272">
        <ele>105</ele>
        <time>2017-07-23T07:05:38.111Z</time>
      </trkpt>
      <trkpt lat="47.85538" lon="2.24282">
        <ele>105</ele>
        <time>2017-07-23T07:05:39.120Z</time>
      </trkpt>
      <trkpt lat="47.85538" lon="2.24282">
        <ele>105</ele>
        <time>2017-07-23T07:05:40.125Z</time>
      </trkpt>
      <trkpt lat="47.85527" lon="2.24292">
        <ele>105</ele>
        <time>2017-07-23T07:05:41.117Z</time>
      </trkpt>
      <trkpt lat="47.85522" lon="2.24297">
        <ele>105</ele>
        <time>2017-07-23T07:05:42.111Z</time>
      </trkpt>
      <trkpt lat="47.85522" lon="2.24297">
        <ele>105</ele>
        <time>2017-07-23T07:05:43.108Z</time>
      </trkpt>
      <trkpt lat="47.85511" lon="2.24306">
        <ele>105</ele>
        <time>2017-07-23T07:05:44.112Z</time>
      </trkpt>
      <trkpt lat="47.85505" lon="2.24311">
        <ele>105</ele>
        <time>2017-07-23T07:05:45.113Z</time>
      </trkpt>
      <trkpt lat="47.85505" lon="2.24311">
        <ele>105</ele>
        <time>2017-07-23T07:05:46.109Z</time>
      </trkpt>
      <trkpt lat="47.85494" lon="2.24321">
        <ele>105</ele>
        <time>2017-07-23T07:05:47.112Z</time>
      </trkpt>
      <trkpt lat="47.85494" lon="2.24321">
        <ele>105</ele>
        <time>2017-07-23T07:05:48.110Z</time>
      </trkpt>
      <trkpt lat="47.85484" lon="2.2433">
        <ele>104</ele>
        <time>2017-07-23T07:05:49.113Z</time>
      </trkpt>
      <trkpt lat="47.85479" lon="2.24334">
        <ele>104</ele>
        <time>2017-07-23T07:05:50.133Z</time>
      </trkpt>
      <trkpt lat="47.85479" lon="2.24334">
        <ele>104</ele>
        <time>2017-07-23T07:05:51.139Z</time>
      </trkpt>
      <trkpt lat="47.8547" lon="2.24342">
        <ele>104</ele>
        <time>2017-07-23T07:05:52.145Z</time>
      </trkpt>
      <trkpt lat="47.8547" lon="2.24342">
        <ele>104</ele>
        <time>2017-07-23T07:05:53.111Z</time>
      </trkpt>
      <trkpt lat="47.8546" lon="2.24349">
        <ele>104</ele>
        <time>2017-07-23T07:05:54.112Z</time>
      </trkpt>
      <trkpt lat="47.85455" lon="2.24353">
        <ele>104</ele>
        <time>2017-07-23T07:05:55.113Z</time>
      </trkpt>
      <trkpt lat="47.85455" lon="2.24353">
        <ele>104</ele>
        <time>2017-07-23T07:05:56.109Z</time>
      </trkpt>
      <trkpt lat="47.85444" lon="2.2436">
        <ele>104</ele>
        <time>2017-07-23T07:05:57.112Z</time>
      </trkpt>
      <trkpt lat="47.85444" lon="2.2436">
        <ele>104</ele>
        <time>2017-07-23T07:05:58.109Z</time>
      </trkpt>
      <trkpt lat="47.85434" lon="2.24368">
        <ele>104</ele>
        <time>2017-07-23T07:05:59.113Z</time>
      </trkpt>
      <trkpt lat="47.85434" lon="2.24368">
        <ele>104</ele>
        <time>2017-07-23T07:06:00.112Z</time>
      </trkpt>
      <trkpt lat="47.85424" lon="2.24376">
        <ele>104</ele>
        <time>2017-07-23T07:06:01.114Z</time>
      </trkpt>
      <trkpt lat="47.85424" lon="2.24376">
        <ele>104</ele>
        <time>2017-07-23T07:06:02.109Z</time>
      </trkpt>
      <trkpt lat="47.85414" lon="2.24383">
        <ele>103</ele>
        <time>2017-07-23T07:06:03.109Z</time>
      </trkpt>
      <trkpt lat="47.85414" lon="2.24383">
        <ele>103</ele>
        <time>2017-07-23T07:06:04.109Z</time>
      </trkpt>
      <trkpt lat="47.85404" lon="2.24391">
        <ele>103</ele>
        <time>2017-07-23T07:06:05.112Z</time>
      </trkpt>
      <trkpt lat="47.85404" lon="2.24391">
        <ele>103</ele>
        <time>2017-07-23T07:06:06.147Z</time>
      </trkpt>
      <trkpt lat="47.85395" lon="2.24398">
        <ele>103</ele>
        <time>2017-07-23T07:06:07.121Z</time>
      </trkpt>
      <trkpt lat="47.85395" lon="2.24398">
        <ele>103</ele>
        <time>2017-07-23T07:06:08.111Z</time>
      </trkpt>
      <trkpt lat="47.85385" lon="2.24405">
        <ele>103</ele>
        <time>2017-07-23T07:06:09.113Z</time>
      </trkpt>
      <trkpt lat="47.85385" lon="2.24405">
        <ele>103</ele>
        <time>2017-07-23T07:06:10.113Z</time>
      </trkpt>
      <trkpt lat="47.85376" lon="2.24412">
        <ele>103</ele>
        <time>2017-07-23T07:06:11.112Z</time>
      </trkpt>
      <trkpt lat="47.85376" lon="2.24412">
        <ele>103</ele>
        <time>2017-07-23T07:06:12.112Z</time>
      </trkpt>
      <trkpt lat="47.85367" lon="2.24419">
        <ele>104</ele>
        <time>2017-07-23T07:06:13.112Z</time>
      </trkpt>
      <trkpt lat="47.85367" lon="2.24419">
        <ele>104</ele>
        <time>2017-07-23T07:06:14.147Z</time>
      </trkpt>
      <trkpt lat="47.85358" lon="2.24425">
        <ele>105</ele>
        <time>2017-07-23T07:06:15.112Z</time>
      </trkpt>
      <trkpt lat="47.85358" lon="2.24425">
        <ele>105</ele>
        <time>2017-07-23T07:06:16.147Z</time>
      </trkpt>
      <trkpt lat="47.85346" lon="2.24432">
        <ele>105</ele>
        <time>2017-07-23T07:06:17.112Z</time>
      </trkpt>
      <trkpt lat="47.85346" lon="2.24432">
        <ele>105</ele>
        <time>2017-07-23T07:06:18.109Z</time>
      </trkpt>
      <trkpt lat="47.85335" lon="2.24439">
        <ele>105</ele>
        <time>2017-07-23T07:06:19.113Z</time>
      </trkpt>
      <trkpt lat="47.85335" lon="2.24439">
        <ele>105</ele>
        <time>2017-07-23T07:06:20.109Z</time>
      </trkpt>
      <trkpt lat="47.85323" lon="2.24448">
        <ele>105</ele>
        <time>2017-07-23T07:06:21.112Z</time>
      </trkpt>
      <trkpt lat="47.85323" lon="2.24448">
        <ele>105</ele>
        <time>2017-07-23T07:06:22.109Z</time>
      </trkpt>
      <trkpt lat="47.85312" lon="2.24457">
        <ele>105</ele>
        <time>2017-07-23T07:06:23.111Z</time>
      </trkpt>
      <trkpt lat="47.85305" lon="2.24461">
        <ele>105</ele>
        <time>2017-07-23T07:06:24.112Z</time>
      </trkpt>
      <trkpt lat="47.85305" lon="2.24461">
        <ele>105</ele>
        <time>2017-07-23T07:06:25.111Z</time>
      </trkpt>
      <trkpt lat="47.85292" lon="2.24468">
        <ele>105</ele>
        <time>2017-07-23T07:06:26.111Z</time>
      </trkpt>
      <trkpt lat="47.85285" lon="2.24472">
        <ele>104</ele>
        <time>2017-07-23T07:06:27.113Z</time>
      </trkpt>
      <trkpt lat="47.85285" lon="2.24472">
        <ele>104</ele>
        <time>2017-07-23T07:06:28.147Z</time>
      </trkpt>
      <trkpt lat="47.8527" lon="2.24479">
        <ele>104</ele>
        <time>2017-07-23T07:06:29.111Z</time>
      </trkpt>
      <trkpt lat="47.8527" lon="2.24479">
        <ele>104</ele>
        <time>2017-07-23T07:06:30.109Z</time>
      </trkpt>
      <trkpt lat="47.85256" lon="2.24488">
        <ele>104</ele>
        <time>2017-07-23T07:06:31.112Z</time>
      </trkpt>
      <trkpt lat="47.85256" lon="2.24488">
        <ele>104</ele>
        <time>2017-07-23T07:06:32.147Z</time>
      </trkpt>
      <trkpt lat="47.85242" lon="2.24497">
        <ele>104</ele>
        <time>2017-07-23T07:06:33.114Z</time>
      </trkpt>
      <trkpt lat="47.85242" lon="2.24497">
        <ele>104</ele>
        <time>2017-07-23T07:06:34.110Z</time>
      </trkpt>
      <trkpt lat="47.85228" lon="2.24505">
        <ele>103</ele>
        <time>2017-07-23T07:06:35.111Z</time>
      </trkpt>
      <trkpt lat="47.85222" lon="2.2451">
        <ele>103</ele>
        <time>2017-07-23T07:06:36.116Z</time>
      </trkpt>
      <trkpt lat="47.85222" lon="2.2451">
        <ele>103</ele>
        <time>2017-07-23T07:06:37.139Z</time>
      </trkpt>
      <trkpt lat="47.85208" lon="2.24517">
        <ele>104</ele>
        <time>2017-07-23T07:06:38.116Z</time>
      </trkpt>
      <trkpt lat="47.85208" lon="2.24517">
        <ele>104</ele>
        <time>2017-07-23T07:06:39.123Z</time>
      </trkpt>
      <trkpt lat="47.85194" lon="2.24524">
        <ele>103</ele>
        <time>2017-07-23T07:06:40.113Z</time>
      </trkpt>
      <trkpt lat="47.85187" lon="2.24527">
        <ele>104</ele>
        <time>2017-07-23T07:06:41.112Z</time>
      </trkpt>
      <trkpt lat="47.85187" lon="2.24527">
        <ele>104</ele>
        <time>2017-07-23T07:06:42.147Z</time>
      </trkpt>
      <trkpt lat="47.85173" lon="2.24534">
        <ele>104</ele>
        <time>2017-07-23T07:06:43.114Z</time>
      </trkpt>
      <trkpt lat="47.85173" lon="2.24534">
        <ele>104</ele>
        <time>2017-07-23T07:06:44.110Z</time>
      </trkpt>
      <trkpt lat="47.8516" lon="2.24541">
        <ele>105</ele>
        <time>2017-07-23T07:06:45.114Z</time>
      </trkpt>
      <trkpt lat="47.8516" lon="2.24541">
        <ele>105</ele>
        <time>2017-07-23T07:06:46.146Z</time>
      </trkpt>
      <trkpt lat="47.85146" lon="2.24544">
        <ele>106</ele>
        <time>2017-07-23T07:06:47.112Z</time>
      </trkpt>
      <trkpt lat="47.85146" lon="2.24544">
        <ele>106</ele>
        <time>2017-07-23T07:06:48.147Z</time>
      </trkpt>
      <trkpt lat="47.85132" lon="2.24547">
        <ele>106</ele>
        <time>2017-07-23T07:06:49.112Z</time>
      </trkpt>
      <trkpt lat="47.85132" lon="2.24547">
        <ele>106</ele>
        <time>2017-07-23T07:06:50.112Z</time>
      </trkpt>
      <trkpt lat="47.85118" lon="2.2455">
        <ele>106</ele>
        <time>2017-07-23T07:06:51.132Z</time>
      </trkpt>
      <trkpt lat="47.85118" lon="2.2455">
        <ele>106</ele>
        <time>2017-07-23T07:06:52.120Z</time>
      </trkpt>
      <trkpt lat="47.85105" lon="2.24553">
        <ele>106</ele>
        <time>2017-07-23T07:06:53.110Z</time>
      </trkpt>
      <trkpt lat="47.85105" lon="2.24553">
        <ele>106</ele>
        <time>2017-07-23T07:06:54.110Z</time>
      </trkpt>
      <trkpt lat="47.85093" lon="2.24559">
        <ele>107</ele>
        <time>2017-07-23T07:06:55.113Z</time>
      </trkpt>
      <trkpt lat="47.85093" lon="2.24559">
        <ele>107</ele>
        <time>2017-07-23T07:06:56.110Z</time>
      </trkpt>
      <trkpt lat="47.85081" lon="2.24565">
        <ele>107</ele>
        <time>2017-07-23T07:06:57.112Z</time>
      </trkpt>
      <trkpt lat="47.85081" lon="2.24565">
        <ele>107</ele>
        <time>2017-07-23T07:06:58.109Z</time>
      </trkpt>
      <trkpt lat="47.85071" lon="2.24572">
        <ele>108</ele>
        <time>2017-07-23T07:06:59.109Z</time>
      </trkpt>
      <trkpt lat="47.85071" lon="2.24572">
        <ele>108</ele>
        <time>2017-07-23T07:07:00.113Z</time>
      </trkpt>
      <trkpt lat="47.85065" lon="2.2458">
        <ele>109</ele>
        <time>2017-07-23T07:07:01.113Z</time>
      </trkpt>
      <trkpt lat="47.85062" lon="2.24583">
        <ele>109</ele>
        <time>2017-07-23T07:07:02.111Z</time>
      </trkpt>
      <trkpt lat="47.85059" lon="2.24587">
        <ele>110</ele>
        <time>2017-07-23T07:07:03.113Z</time>
      </trkpt>
      <trkpt lat="47.85059" lon="2.24587">
        <ele>110</ele>
        <time>2017-07-23T07:07:04.109Z</time>
      </trkpt>
      <trkpt lat="47.85053" lon="2.24594">
        <ele>110</ele>
        <time>2017-07-23T07:07:05.109Z</time>
      </trkpt>
      <trkpt lat="47.85053" lon="2.24594">
        <ele>110</ele>
        <time>2017-07-23T07:07:06.108Z</time>
      </trkpt>
      <trkpt lat="47.85045" lon="2.24592">
        <ele>111</ele>
        <time>2017-07-23T07:07:07.113Z</time>
      </trkpt>
      <trkpt lat="47.85045" lon="2.24592">
        <ele>111</ele>
        <time>2017-07-23T07:07:08.110Z</time>
      </trkpt>
      <trkpt lat="47.85037" lon="2.24582">
        <ele>110</ele>
        <time>2017-07-23T07:07:09.113Z</time>
      </trkpt>
      <trkpt lat="47.85037" lon="2.24582">
        <ele>110</ele>
        <time>2017-07-23T07:07:10.108Z</time>
      </trkpt>
      <trkpt lat="47.85025" lon="2.24572">
        <ele>110</ele>
        <time>2017-07-23T07:07:11.113Z</time>
      </trkpt>
      <trkpt lat="47.85019" lon="2.24569">
        <ele>110</ele>
        <time>2017-07-23T07:07:12.112Z</time>
      </trkpt>
      <trkpt lat="47.85011" lon="2.24566">
        <ele>110</ele>
        <time>2017-07-23T07:07:13.113Z</time>
      </trkpt>
      <trkpt lat="47.85011" lon="2.24566">
        <ele>110</ele>
        <time>2017-07-23T07:07:14.108Z</time>
      </trkpt>
      <trkpt lat="47.84995" lon="2.24564">
        <ele>110</ele>
        <time>2017-07-23T07:07:15.111Z</time>
      </trkpt>
      <trkpt lat="47.84995" lon="2.24564">
        <ele>110</ele>
        <time>2017-07-23T07:07:16.108Z</time>
      </trkpt>
      <trkpt lat="47.84979" lon="2.24562">
        <ele>110</ele>
        <time>2017-07-23T07:07:17.112Z</time>
      </trkpt>
      <trkpt lat="47.84979" lon="2.24562">
        <ele>110</ele>
        <time>2017-07-23T07:07:18.110Z</time>
      </trkpt>
      <trkpt lat="47.84962" lon="2.24561">
        <ele>110</ele>
        <time>2017-07-23T07:07:19.114Z</time>
      </trkpt>
      <trkpt lat="47.84962" lon="2.24561">
        <ele>110</ele>
        <time>2017-07-23T07:07:20.109Z</time>
      </trkpt>
      <trkpt lat="47.84946" lon="2.24562">
        <ele>110</ele>
        <time>2017-07-23T07:07:21.112Z</time>
      </trkpt>
      <trkpt lat="47.84938" lon="2.24563">
        <ele>110</ele>
        <time>2017-07-23T07:07:22.112Z</time>
      </trkpt>
      <trkpt lat="47.84938" lon="2.24563">
        <ele>110</ele>
        <time>2017-07-23T07:07:23.147Z</time>
      </trkpt>
      <trkpt lat="47.84923" lon="2.24565">
        <ele>109</ele>
        <time>2017-07-23T07:07:24.112Z</time>
      </trkpt>
      <trkpt lat="47.84923" lon="2.24565">
        <ele>109</ele>
        <time>2017-07-23T07:07:25.110Z</time>
      </trkpt>
      <trkpt lat="47.84908" lon="2.24566">
        <ele>109</ele>
        <time>2017-07-23T07:07:26.112Z</time>
      </trkpt>
      <trkpt lat="47.84901" lon="2.24567">
        <ele>109</ele>
        <time>2017-07-23T07:07:27.112Z</time>
      </trkpt>
      <trkpt lat="47.84901" lon="2.24567">
        <ele>109</ele>
        <time>2017-07-23T07:07:28.147Z</time>
      </trkpt>
      <trkpt lat="47.84887" lon="2.24568">
        <ele>108</ele>
        <time>2017-07-23T07:07:29.111Z</time>
      </trkpt>
      <trkpt lat="47.84887" lon="2.24568">
        <ele>108</ele>
        <time>2017-07-23T07:07:30.109Z</time>
      </trkpt>
      <trkpt lat="47.84873" lon="2.24569">
        <ele>108</ele>
        <time>2017-07-23T07:07:31.111Z</time>
      </trkpt>
      <trkpt lat="47.84873" lon="2.24569">
        <ele>108</ele>
        <time>2017-07-23T07:07:32.147Z</time>
      </trkpt>
      <trkpt lat="47.84859" lon="2.24569">
        <ele>108</ele>
        <time>2017-07-23T07:07:33.112Z</time>
      </trkpt>
      <trkpt lat="47.84859" lon="2.24569">
        <ele>108</ele>
        <time>2017-07-23T07:07:34.109Z</time>
      </trkpt>
      <trkpt lat="47.84847" lon="2.24568">
        <ele>107</ele>
        <time>2017-07-23T07:07:35.124Z</time>
      </trkpt>
      <trkpt lat="47.84847" lon="2.24568">
        <ele>107</ele>
        <time>2017-07-23T07:07:36.113Z</time>
      </trkpt>
      <trkpt lat="47.84833" lon="2.24567">
        <ele>107</ele>
        <time>2017-07-23T07:07:37.113Z</time>
      </trkpt>
      <trkpt lat="47.84833" lon="2.24567">
        <ele>107</ele>
        <time>2017-07-23T07:07:38.109Z</time>
      </trkpt>
      <trkpt lat="47.84819" lon="2.24564">
        <ele>106</ele>
        <time>2017-07-23T07:07:39.113Z</time>
      </trkpt>
      <trkpt lat="47.84819" lon="2.24564">
        <ele>106</ele>
        <time>2017-07-23T07:07:40.113Z</time>
      </trkpt>
      <trkpt lat="47.84806" lon="2.24561">
        <ele>106</ele>
        <time>2017-07-23T07:07:41.111Z</time>
      </trkpt>
      <trkpt lat="47.848" lon="2.2456">
        <ele>106</ele>
        <time>2017-07-23T07:07:42.110Z</time>
      </trkpt>
      <trkpt lat="47.848" lon="2.2456">
        <ele>106</ele>
        <time>2017-07-23T07:07:43.110Z</time>
      </trkpt>
      <trkpt lat="47.84787" lon="2.24558">
        <ele>106</ele>
        <time>2017-07-23T07:07:44.111Z</time>
      </trkpt>
      <trkpt lat="47.84781" lon="2.24557">
        <ele>106</ele>
        <time>2017-07-23T07:07:45.112Z</time>
      </trkpt>
      <trkpt lat="47.84781" lon="2.24557">
        <ele>106</ele>
        <time>2017-07-23T07:07:46.147Z</time>
      </trkpt>
      <trkpt lat="47.84768" lon="2.24556">
        <ele>106</ele>
        <time>2017-07-23T07:07:47.112Z</time>
      </trkpt>
      <trkpt lat="47.84762" lon="2.24556">
        <ele>106</ele>
        <time>2017-07-23T07:07:48.113Z</time>
      </trkpt>
      <trkpt lat="47.84756" lon="2.24555">
        <ele>106</ele>
        <time>2017-07-23T07:07:49.114Z</time>
      </trkpt>
      <trkpt lat="47.84756" lon="2.24555">
        <ele>106</ele>
        <time>2017-07-23T07:07:50.144Z</time>
      </trkpt>
      <trkpt lat="47.84743" lon="2.24554">
        <ele>105</ele>
        <time>2017-07-23T07:07:51.124Z</time>
      </trkpt>
      <trkpt lat="47.84737" lon="2.24555">
        <ele>106</ele>
        <time>2017-07-23T07:07:52.113Z</time>
      </trkpt>
      <trkpt lat="47.84737" lon="2.24555">
        <ele>106</ele>
        <time>2017-07-23T07:07:53.148Z</time>
      </trkpt>
      <trkpt lat="47.84725" lon="2.24556">
        <ele>106</ele>
        <time>2017-07-23T07:07:54.112Z</time>
      </trkpt>
      <trkpt lat="47.84725" lon="2.24556">
        <ele>106</ele>
        <time>2017-07-23T07:07:55.111Z</time>
      </trkpt>
      <trkpt lat="47.84715" lon="2.24559">
        <ele>106</ele>
        <time>2017-07-23T07:07:56.111Z</time>
      </trkpt>
      <trkpt lat="47.8471" lon="2.24561">
        <ele>106</ele>
        <time>2017-07-23T07:07:57.110Z</time>
      </trkpt>
      <trkpt lat="47.8471" lon="2.24561">
        <ele>106</ele>
        <time>2017-07-23T07:07:58.110Z</time>
      </trkpt>
      <trkpt lat="47.84698" lon="2.24562">
        <ele>106</ele>
        <time>2017-07-23T07:07:59.112Z</time>
      </trkpt>
      <trkpt lat="47.84698" lon="2.24562">
        <ele>106</ele>
        <time>2017-07-23T07:08:00.117Z</time>
      </trkpt>
      <trkpt lat="47.84685" lon="2.2456">
        <ele>105</ele>
        <time>2017-07-23T07:08:01.116Z</time>
      </trkpt>
      <trkpt lat="47.84679" lon="2.24556">
        <ele>105</ele>
        <time>2017-07-23T07:08:02.112Z</time>
      </trkpt>
      <trkpt lat="47.84679" lon="2.24556">
        <ele>105</ele>
        <time>2017-07-23T07:08:03.110Z</time>
      </trkpt>
      <trkpt lat="47.84667" lon="2.24548">
        <ele>105</ele>
        <time>2017-07-23T07:08:04.113Z</time>
      </trkpt>
      <trkpt lat="47.84667" lon="2.24548">
        <ele>105</ele>
        <time>2017-07-23T07:08:05.110Z</time>
      </trkpt>
      <trkpt lat="47.84656" lon="2.24541">
        <ele>105</ele>
        <time>2017-07-23T07:08:06.112Z</time>
      </trkpt>
      <trkpt lat="47.84656" lon="2.24541">
        <ele>105</ele>
        <time>2017-07-23T07:08:07.110Z</time>
      </trkpt>
      <trkpt lat="47.84645" lon="2.24532">
        <ele>104</ele>
        <time>2017-07-23T07:08:08.113Z</time>
      </trkpt>
      <trkpt lat="47.84638" lon="2.24527">
        <ele>104</ele>
        <time>2017-07-23T07:08:09.113Z</time>
      </trkpt>
      <trkpt lat="47.84638" lon="2.24527">
        <ele>104</ele>
        <time>2017-07-23T07:08:10.109Z</time>
      </trkpt>
      <trkpt lat="47.84625" lon="2.24518">
        <ele>104</ele>
        <time>2017-07-23T07:08:11.111Z</time>
      </trkpt>
      <trkpt lat="47.84625" lon="2.24518">
        <ele>104</ele>
        <time>2017-07-23T07:08:12.109Z</time>
      </trkpt>
      <trkpt lat="47.84613" lon="2.24509">
        <ele>104</ele>
        <time>2017-07-23T07:08:13.113Z</time>
      </trkpt>
      <trkpt lat="47.84613" lon="2.24509">
        <ele>104</ele>
        <time>2017-07-23T07:08:14.109Z</time>
      </trkpt>
      <trkpt lat="47.846" lon="2.24501">
        <ele>104</ele>
        <time>2017-07-23T07:08:15.110Z</time>
      </trkpt>
      <trkpt lat="47.846" lon="2.24501">
        <ele>104</ele>
        <time>2017-07-23T07:08:16.113Z</time>
      </trkpt>
      <trkpt lat="47.84587" lon="2.24493">
        <ele>104</ele>
        <time>2017-07-23T07:08:17.112Z</time>
      </trkpt>
      <trkpt lat="47.84587" lon="2.24493">
        <ele>104</ele>
        <time>2017-07-23T07:08:18.109Z</time>
      </trkpt>
      <trkpt lat="47.84575" lon="2.24485">
        <ele>104</ele>
        <time>2017-07-23T07:08:19.113Z</time>
      </trkpt>
      <trkpt lat="47.84575" lon="2.24485">
        <ele>104</ele>
        <time>2017-07-23T07:08:20.109Z</time>
      </trkpt>
      <trkpt lat="47.84564" lon="2.24473">
        <ele>104</ele>
        <time>2017-07-23T07:08:21.109Z</time>
      </trkpt>
      <trkpt lat="47.84559" lon="2.24466">
        <ele>104</ele>
        <time>2017-07-23T07:08:22.111Z</time>
      </trkpt>
      <trkpt lat="47.84559" lon="2.24466">
        <ele>104</ele>
        <time>2017-07-23T07:08:23.109Z</time>
      </trkpt>
      <trkpt lat="47.84549" lon="2.24454">
        <ele>105</ele>
        <time>2017-07-23T07:08:24.112Z</time>
      </trkpt>
      <trkpt lat="47.84549" lon="2.24454">
        <ele>105</ele>
        <time>2017-07-23T07:08:25.147Z</time>
      </trkpt>
      <trkpt lat="47.84536" lon="2.24445">
        <ele>104</ele>
        <time>2017-07-23T07:08:26.114Z</time>
      </trkpt>
      <trkpt lat="47.84536" lon="2.24445">
        <ele>104</ele>
        <time>2017-07-23T07:08:27.114Z</time>
      </trkpt>
      <trkpt lat="47.84522" lon="2.2444">
        <ele>104</ele>
        <time>2017-07-23T07:08:28.113Z</time>
      </trkpt>
      <trkpt lat="47.84522" lon="2.2444">
        <ele>104</ele>
        <time>2017-07-23T07:08:29.110Z</time>
      </trkpt>
      <trkpt lat="47.84507" lon="2.24434">
        <ele>102</ele>
        <time>2017-07-23T07:08:30.111Z</time>
      </trkpt>
      <trkpt lat="47.845" lon="2.24433">
        <ele>102</ele>
        <time>2017-07-23T07:08:31.113Z</time>
      </trkpt>
      <trkpt lat="47.845" lon="2.24433">
        <ele>102</ele>
        <time>2017-07-23T07:08:32.109Z</time>
      </trkpt>
      <trkpt lat="47.84487" lon="2.24427">
        <ele>102</ele>
        <time>2017-07-23T07:08:33.129Z</time>
      </trkpt>
      <trkpt lat="47.84487" lon="2.24427">
        <ele>102</ele>
        <time>2017-07-23T07:08:34.122Z</time>
      </trkpt>
      <trkpt lat="47.84475" lon="2.24415">
        <ele>102</ele>
        <time>2017-07-23T07:08:35.112Z</time>
      </trkpt>
      <trkpt lat="47.84475" lon="2.24415">
        <ele>102</ele>
        <time>2017-07-23T07:08:36.109Z</time>
      </trkpt>
      <trkpt lat="47.84465" lon="2.24401">
        <ele>102</ele>
        <time>2017-07-23T07:08:37.113Z</time>
      </trkpt>
      <trkpt lat="47.84465" lon="2.24401">
        <ele>102</ele>
        <time>2017-07-23T07:08:38.114Z</time>
      </trkpt>
      <trkpt lat="47.84456" lon="2.24384">
        <ele>102</ele>
        <time>2017-07-23T07:08:39.114Z</time>
      </trkpt>
      <trkpt lat="47.84456" lon="2.24384">
        <ele>102</ele>
        <time>2017-07-23T07:08:40.110Z</time>
      </trkpt>
      <trkpt lat="47.84446" lon="2.24371">
        <ele>102</ele>
        <time>2017-07-23T07:08:41.112Z</time>
      </trkpt>
      <trkpt lat="47.8444" lon="2.24366">
        <ele>102</ele>
        <time>2017-07-23T07:08:42.113Z</time>
      </trkpt>
      <trkpt lat="47.8444" lon="2.24366">
        <ele>102</ele>
        <time>2017-07-23T07:08:43.111Z</time>
      </trkpt>
      <trkpt lat="47.84429" lon="2.24355">
        <ele>102</ele>
        <time>2017-07-23T07:08:44.113Z</time>
      </trkpt>
      <trkpt lat="47.84424" lon="2.2435">
        <ele>102</ele>
        <time>2017-07-23T07:08:45.113Z</time>
      </trkpt>
      <trkpt lat="47.84424" lon="2.2435">
        <ele>102</ele>
        <time>2017-07-23T07:08:46.109Z</time>
      </trkpt>
      <trkpt lat="47.84412" lon="2.24341">
        <ele>103</ele>
        <time>2017-07-23T07:08:47.115Z</time>
      </trkpt>
      <trkpt lat="47.84412" lon="2.24341">
        <ele>103</ele>
        <time>2017-07-23T07:08:48.111Z</time>
      </trkpt>
      <trkpt lat="47.84401" lon="2.24333">
        <ele>103</ele>
        <time>2017-07-23T07:08:49.115Z</time>
      </trkpt>
      <trkpt lat="47.84401" lon="2.24333">
        <ele>103</ele>
        <time>2017-07-23T07:08:50.110Z</time>
      </trkpt>
      <trkpt lat="47.84389" lon="2.24324">
        <ele>103</ele>
        <time>2017-07-23T07:08:51.121Z</time>
      </trkpt>
      <trkpt lat="47.84382" lon="2.24319">
        <ele>103</ele>
        <time>2017-07-23T07:08:52.146Z</time>
      </trkpt>
      <trkpt lat="47.84382" lon="2.24319">
        <ele>103</ele>
        <time>2017-07-23T07:08:53.112Z</time>
      </trkpt>
      <trkpt lat="47.84371" lon="2.2431">
        <ele>103</ele>
        <time>2017-07-23T07:08:54.121Z</time>
      </trkpt>
      <trkpt lat="47.84365" lon="2.24305">
        <ele>104</ele>
        <time>2017-07-23T07:08:55.132Z</time>
      </trkpt>
      <trkpt lat="47.84365" lon="2.24305">
        <ele>104</ele>
        <time>2017-07-23T07:08:56.121Z</time>
      </trkpt>
      <trkpt lat="47.84356" lon="2.24293">
        <ele>104</ele>
        <time>2017-07-23T07:08:57.114Z</time>
      </trkpt>
      <trkpt lat="47.84356" lon="2.24293">
        <ele>104</ele>
        <time>2017-07-23T07:08:58.123Z</time>
      </trkpt>
      <trkpt lat="47.84344" lon="2.24285">
        <ele>104</ele>
        <time>2017-07-23T07:08:59.111Z</time>
      </trkpt>
      <trkpt lat="47.84344" lon="2.24285">
        <ele>104</ele>
        <time>2017-07-23T07:09:00.112Z</time>
      </trkpt>
      <trkpt lat="47.84331" lon="2.24276">
        <ele>104</ele>
        <time>2017-07-23T07:09:01.134Z</time>
      </trkpt>
      <trkpt lat="47.84324" lon="2.24272">
        <ele>104</ele>
        <time>2017-07-23T07:09:02.130Z</time>
      </trkpt>
      <trkpt lat="47.84317" lon="2.24267">
        <ele>103</ele>
        <time>2017-07-23T07:09:03.122Z</time>
      </trkpt>
      <trkpt lat="47.84317" lon="2.24267">
        <ele>103</ele>
        <time>2017-07-23T07:09:04.117Z</time>
      </trkpt>
      <trkpt lat="47.84303" lon="2.24257">
        <ele>103</ele>
        <time>2017-07-23T07:09:05.113Z</time>
      </trkpt>
      <trkpt lat="47.84303" lon="2.24257">
        <ele>103</ele>
        <time>2017-07-23T07:09:06.145Z</time>
      </trkpt>
      <trkpt lat="47.8429" lon="2.24246">
        <ele>103</ele>
        <time>2017-07-23T07:09:07.114Z</time>
      </trkpt>
      <trkpt lat="47.8429" lon="2.24246">
        <ele>103</ele>
        <time>2017-07-23T07:09:08.110Z</time>
      </trkpt>
      <trkpt lat="47.84277" lon="2.24236">
        <ele>104</ele>
        <time>2017-07-23T07:09:09.113Z</time>
      </trkpt>
      <trkpt lat="47.84277" lon="2.24236">
        <ele>104</ele>
        <time>2017-07-23T07:09:10.144Z</time>
      </trkpt>
      <trkpt lat="47.84264" lon="2.2423">
        <ele>104</ele>
        <time>2017-07-23T07:09:11.113Z</time>
      </trkpt>
      <trkpt lat="47.84264" lon="2.2423">
        <ele>104</ele>
        <time>2017-07-23T07:09:12.110Z</time>
      </trkpt>
      <trkpt lat="47.84252" lon="2.2422">
        <ele>104</ele>
        <time>2017-07-23T07:09:13.113Z</time>
      </trkpt>
      <trkpt lat="47.84252" lon="2.2422">
        <ele>104</ele>
        <time>2017-07-23T07:09:14.110Z</time>
      </trkpt>
      <trkpt lat="47.8424" lon="2.2421">
        <ele>104</ele>
        <time>2017-07-23T07:09:15.112Z</time>
      </trkpt>
      <trkpt lat="47.8424" lon="2.2421">
        <ele>104</ele>
        <time>2017-07-23T07:09:16.110Z</time>
      </trkpt>
      <trkpt lat="47.84228" lon="2.24198">
        <ele>104</ele>
        <time>2017-07-23T07:09:17.113Z</time>
      </trkpt>
      <trkpt lat="47.84228" lon="2.24198">
        <ele>104</ele>
        <time>2017-07-23T07:09:18.110Z</time>
      </trkpt>
      <trkpt lat="47.84217" lon="2.24187">
        <ele>104</ele>
        <time>2017-07-23T07:09:19.113Z</time>
      </trkpt>
      <trkpt lat="47.84217" lon="2.24187">
        <ele>104</ele>
        <time>2017-07-23T07:09:20.109Z</time>
      </trkpt>
      <trkpt lat="47.84205" lon="2.24179">
        <ele>104</ele>
        <time>2017-07-23T07:09:21.113Z</time>
      </trkpt>
      <trkpt lat="47.84205" lon="2.24179">
        <ele>104</ele>
        <time>2017-07-23T07:09:22.147Z</time>
      </trkpt>
      <trkpt lat="47.84193" lon="2.24172">
        <ele>104</ele>
        <time>2017-07-23T07:09:23.124Z</time>
      </trkpt>
      <trkpt lat="47.84193" lon="2.24172">
        <ele>104</ele>
        <time>2017-07-23T07:09:24.114Z</time>
      </trkpt>
      <trkpt lat="47.84182" lon="2.24168">
        <ele>104</ele>
        <time>2017-07-23T07:09:25.111Z</time>
      </trkpt>
      <trkpt lat="47.84182" lon="2.24168">
        <ele>104</ele>
        <time>2017-07-23T07:09:26.148Z</time>
      </trkpt>
      <trkpt lat="47.84169" lon="2.24162">
        <ele>103</ele>
        <time>2017-07-23T07:09:27.114Z</time>
      </trkpt>
      <trkpt lat="47.84169" lon="2.24162">
        <ele>103</ele>
        <time>2017-07-23T07:09:28.113Z</time>
      </trkpt>
      <trkpt lat="47.84157" lon="2.24158">
        <ele>104</ele>
        <time>2017-07-23T07:09:29.113Z</time>
      </trkpt>
      <trkpt lat="47.84157" lon="2.24158">
        <ele>104</ele>
        <time>2017-07-23T07:09:30.147Z</time>
      </trkpt>
      <trkpt lat="47.84145" lon="2.24154">
        <ele>104</ele>
        <time>2017-07-23T07:09:31.114Z</time>
      </trkpt>
      <trkpt lat="47.84145" lon="2.24154">
        <ele>104</ele>
        <time>2017-07-23T07:09:32.109Z</time>
      </trkpt>
      <trkpt lat="47.84134" lon="2.24151">
        <ele>105</ele>
        <time>2017-07-23T07:09:33.113Z</time>
      </trkpt>
      <trkpt lat="47.84134" lon="2.24151">
        <ele>105</ele>
        <time>2017-07-23T07:09:34.110Z</time>
      </trkpt>
      <trkpt lat="47.84124" lon="2.24146">
        <ele>105</ele>
        <time>2017-07-23T07:09:35.115Z</time>
      </trkpt>
      <trkpt lat="47.84124" lon="2.24146">
        <ele>105</ele>
        <time>2017-07-23T07:09:36.110Z</time>
      </trkpt>
      <trkpt lat="47.84115" lon="2.24138">
        <ele>106</ele>
        <time>2017-07-23T07:09:37.114Z</time>
      </trkpt>
      <trkpt lat="47.84115" lon="2.24138">
        <ele>106</ele>
        <time>2017-07-23T07:09:38.110Z</time>
      </trkpt>
      <trkpt lat="47.84105" lon="2.24131">
        <ele>105</ele>
        <time>2017-07-23T07:09:39.114Z</time>
      </trkpt>
      <trkpt lat="47.84105" lon="2.24131">
        <ele>105</ele>
        <time>2017-07-23T07:09:40.110Z</time>
      </trkpt>
      <trkpt lat="47.84095" lon="2.24125">
        <ele>105</ele>
        <time>2017-07-23T07:09:41.113Z</time>
      </trkpt>
      <trkpt lat="47.84095" lon="2.24125">
        <ele>105</ele>
        <time>2017-07-23T07:09:42.110Z</time>
      </trkpt>
      <trkpt lat="47.84085" lon="2.24119">
        <ele>105</ele>
        <time>2017-07-23T07:09:43.114Z</time>
      </trkpt>
      <trkpt lat="47.84085" lon="2.24119">
        <ele>105</ele>
        <time>2017-07-23T07:09:44.110Z</time>
      </trkpt>
      <trkpt lat="47.84076" lon="2.24113">
        <ele>104</ele>
        <time>2017-07-23T07:09:45.114Z</time>
      </trkpt>
      <trkpt lat="47.84076" lon="2.24113">
        <ele>104</ele>
        <time>2017-07-23T07:09:46.110Z</time>
      </trkpt>
      <trkpt lat="47.84065" lon="2.24109">
        <ele>104</ele>
        <time>2017-07-23T07:09:47.110Z</time>
      </trkpt>
      <trkpt lat="47.84065" lon="2.24109">
        <ele>104</ele>
        <time>2017-07-23T07:09:48.108Z</time>
      </trkpt>
      <trkpt lat="47.84054" lon="2.24103">
        <ele>103</ele>
        <time>2017-07-23T07:09:49.127Z</time>
      </trkpt>
      <trkpt lat="47.84054" lon="2.24103">
        <ele>103</ele>
        <time>2017-07-23T07:09:50.134Z</time>
      </trkpt>
      <trkpt lat="47.84045" lon="2.24095">
        <ele>103</ele>
        <time>2017-07-23T07:09:51.123Z</time>
      </trkpt>
      <trkpt lat="47.84045" lon="2.24095">
        <ele>103</ele>
        <time>2017-07-23T07:09:52.112Z</time>
      </trkpt>
      <trkpt lat="47.84036" lon="2.24086">
        <ele>102</ele>
        <time>2017-07-23T07:09:53.112Z</time>
      </trkpt>
      <trkpt lat="47.84036" lon="2.24086">
        <ele>102</ele>
        <time>2017-07-23T07:09:54.114Z</time>
      </trkpt>
      <trkpt lat="47.84027" lon="2.24079">
        <ele>102</ele>
        <time>2017-07-23T07:09:55.114Z</time>
      </trkpt>
      <trkpt lat="47.84027" lon="2.24079">
        <ele>102</ele>
        <time>2017-07-23T07:09:56.110Z</time>
      </trkpt>
      <trkpt lat="47.84019" lon="2.24071">
        <ele>102</ele>
        <time>2017-07-23T07:09:57.113Z</time>
      </trkpt>
      <trkpt lat="47.84019" lon="2.24071">
        <ele>102</ele>
        <time>2017-07-23T07:09:58.110Z</time>
      </trkpt>
      <trkpt lat="47.8401" lon="2.24065">
        <ele>103</ele>
        <time>2017-07-23T07:09:59.112Z</time>
      </trkpt>
      <trkpt lat="47.8401" lon="2.24065">
        <ele>103</ele>
        <time>2017-07-23T07:10:00.112Z</time>
      </trkpt>
      <trkpt lat="47.84" lon="2.24059">
        <ele>103</ele>
        <time>2017-07-23T07:10:01.134Z</time>
      </trkpt>
      <trkpt lat="47.84" lon="2.24059">
        <ele>103</ele>
        <time>2017-07-23T07:10:02.144Z</time>
      </trkpt>
      <trkpt lat="47.83989" lon="2.24051">
        <ele>103</ele>
        <time>2017-07-23T07:10:03.110Z</time>
      </trkpt>
      <trkpt lat="47.83989" lon="2.24051">
        <ele>103</ele>
        <time>2017-07-23T07:10:04.109Z</time>
      </trkpt>
      <trkpt lat="47.83979" lon="2.24044">
        <ele>103</ele>
        <time>2017-07-23T07:10:05.123Z</time>
      </trkpt>
      <trkpt lat="47.83979" lon="2.24044">
        <ele>103</ele>
        <time>2017-07-23T07:10:06.111Z</time>
      </trkpt>
      <trkpt lat="47.83969" lon="2.24037">
        <ele>104</ele>
        <time>2017-07-23T07:10:07.114Z</time>
      </trkpt>
      <trkpt lat="47.83969" lon="2.24037">
        <ele>104</ele>
        <time>2017-07-23T07:10:08.111Z</time>
      </trkpt>
      <trkpt lat="47.83959" lon="2.2403">
        <ele>104</ele>
        <time>2017-07-23T07:10:09.113Z</time>
      </trkpt>
      <trkpt lat="47.83959" lon="2.2403">
        <ele>104</ele>
        <time>2017-07-23T07:10:10.109Z</time>
      </trkpt>
      <trkpt lat="47.83951" lon="2.24023">
        <ele>104</ele>
        <time>2017-07-23T07:10:11.111Z</time>
      </trkpt>
      <trkpt lat="47.83951" lon="2.24023">
        <ele>104</ele>
        <time>2017-07-23T07:10:12.108Z</time>
      </trkpt>
      <trkpt lat="47.83941" lon="2.24018">
        <ele>105</ele>
        <time>2017-07-23T07:10:13.114Z</time>
      </trkpt>
      <trkpt lat="47.83941" lon="2.24018">
        <ele>105</ele>
        <time>2017-07-23T07:10:14.110Z</time>
      </trkpt>
      <trkpt lat="47.8393" lon="2.24014">
        <ele>104</ele>
        <time>2017-07-23T07:10:15.112Z</time>
      </trkpt>
      <trkpt lat="47.8393" lon="2.24014">
        <ele>104</ele>
        <time>2017-07-23T07:10:16.110Z</time>
      </trkpt>
      <trkpt lat="47.83918" lon="2.24015">
        <ele>104</ele>
        <time>2017-07-23T07:10:17.112Z</time>
      </trkpt>
      <trkpt lat="47.83918" lon="2.24015">
        <ele>104</ele>
        <time>2017-07-23T07:10:18.110Z</time>
      </trkpt>
      <trkpt lat="47.83907" lon="2.24016">
        <ele>104</ele>
        <time>2017-07-23T07:10:19.114Z</time>
      </trkpt>
      <trkpt lat="47.83907" lon="2.24016">
        <ele>104</ele>
        <time>2017-07-23T07:10:20.109Z</time>
      </trkpt>
      <trkpt lat="47.83897" lon="2.2402">
        <ele>105</ele>
        <time>2017-07-23T07:10:21.110Z</time>
      </trkpt>
      <trkpt lat="47.83897" lon="2.2402">
        <ele>105</ele>
        <time>2017-07-23T07:10:22.112Z</time>
      </trkpt>
      <trkpt lat="47.83886" lon="2.24021">
        <ele>104</ele>
        <time>2017-07-23T07:10:23.111Z</time>
      </trkpt>
      <trkpt lat="47.83886" lon="2.24021">
        <ele>104</ele>
        <time>2017-07-23T07:10:24.145Z</time>
      </trkpt>
      <trkpt lat="47.83874" lon="2.2402">
        <ele>105</ele>
        <time>2017-07-23T07:10:25.113Z</time>
      </trkpt>
      <trkpt lat="47.83874" lon="2.2402">
        <ele>105</ele>
        <time>2017-07-23T07:10:26.110Z</time>
      </trkpt>
      <trkpt lat="47.83862" lon="2.24019">
        <ele>105</ele>
        <time>2017-07-23T07:10:27.113Z</time>
      </trkpt>
      <trkpt lat="47.83862" lon="2.24019">
        <ele>105</ele>
        <time>2017-07-23T07:10:28.145Z</time>
      </trkpt>
      <trkpt lat="47.8385" lon="2.24018">
        <ele>104</ele>
        <time>2017-07-23T07:10:29.112Z</time>
      </trkpt>
      <trkpt lat="47.8385" lon="2.24018">
        <ele>104</ele>
        <time>2017-07-23T07:10:30.110Z</time>
      </trkpt>
      <trkpt lat="47.83837" lon="2.24016">
        <ele>104</ele>
        <time>2017-07-23T07:10:31.114Z</time>
      </trkpt>
      <trkpt lat="47.83837" lon="2.24016">
        <ele>104</ele>
        <time>2017-07-23T07:10:32.146Z</time>
      </trkpt>
      <trkpt lat="47.83825" lon="2.24013">
        <ele>104</ele>
        <time>2017-07-23T07:10:33.127Z</time>
      </trkpt>
      <trkpt lat="47.83825" lon="2.24013">
        <ele>104</ele>
        <time>2017-07-23T07:10:34.116Z</time>
      </trkpt>
      <trkpt lat="47.83812" lon="2.24012">
        <ele>104</ele>
        <time>2017-07-23T07:10:35.112Z</time>
      </trkpt>
      <trkpt lat="47.83812" lon="2.24012">
        <ele>104</ele>
        <time>2017-07-23T07:10:36.109Z</time>
      </trkpt>
      <trkpt lat="47.838" lon="2.24008">
        <ele>103</ele>
        <time>2017-07-23T07:10:37.114Z</time>
      </trkpt>
      <trkpt lat="47.838" lon="2.24008">
        <ele>103</ele>
        <time>2017-07-23T07:10:38.110Z</time>
      </trkpt>
      <trkpt lat="47.83788" lon="2.24002">
        <ele>103</ele>
        <time>2017-07-23T07:10:39.113Z</time>
      </trkpt>
      <trkpt lat="47.83788" lon="2.24002">
        <ele>103</ele>
        <time>2017-07-23T07:10:40.110Z</time>
      </trkpt>
      <trkpt lat="47.83776" lon="2.23998">
        <ele>102</ele>
        <time>2017-07-23T07:10:41.112Z</time>
      </trkpt>
      <trkpt lat="47.83769" lon="2.23997">
        <ele>103</ele>
        <time>2017-07-23T07:10:42.113Z</time>
      </trkpt>
      <trkpt lat="47.83769" lon="2.23997">
        <ele>103</ele>
        <time>2017-07-23T07:10:43.113Z</time>
      </trkpt>
      <trkpt lat="47.83756" lon="2.23997">
        <ele>103</ele>
        <time>2017-07-23T07:10:44.113Z</time>
      </trkpt>
      <trkpt lat="47.83748" lon="2.23997">
        <ele>103</ele>
        <time>2017-07-23T07:10:45.113Z</time>
      </trkpt>
      <trkpt lat="47.83748" lon="2.23997">
        <ele>103</ele>
        <time>2017-07-23T07:10:46.147Z</time>
      </trkpt>
      <trkpt lat="47.83734" lon="2.23996">
        <ele>104</ele>
        <time>2017-07-23T07:10:47.111Z</time>
      </trkpt>
      <trkpt lat="47.83727" lon="2.23996">
        <ele>105</ele>
        <time>2017-07-23T07:10:48.112Z</time>
      </trkpt>
      <trkpt lat="47.8372" lon="2.23997">
        <ele>105</ele>
        <time>2017-07-23T07:10:49.114Z</time>
      </trkpt>
      <trkpt lat="47.8372" lon="2.23997">
        <ele>105</ele>
        <time>2017-07-23T07:10:50.146Z</time>
      </trkpt>
      <trkpt lat="47.83708" lon="2.24">
        <ele>105</ele>
        <time>2017-07-23T07:10:51.134Z</time>
      </trkpt>
      <trkpt lat="47.83708" lon="2.24">
        <ele>105</ele>
        <time>2017-07-23T07:10:52.123Z</time>
      </trkpt>
      <trkpt lat="47.83696" lon="2.24001">
        <ele>105</ele>
        <time>2017-07-23T07:10:53.113Z</time>
      </trkpt>
      <trkpt lat="47.8369" lon="2.24002">
        <ele>105</ele>
        <time>2017-07-23T07:10:54.112Z</time>
      </trkpt>
      <trkpt lat="47.83684" lon="2.24002">
        <ele>105</ele>
        <time>2017-07-23T07:10:55.115Z</time>
      </trkpt>
      <trkpt lat="47.83684" lon="2.24002">
        <ele>105</ele>
        <time>2017-07-23T07:10:56.116Z</time>
      </trkpt>
      <trkpt lat="47.83671" lon="2.24003">
        <ele>105</ele>
        <time>2017-07-23T07:10:57.113Z</time>
      </trkpt>
      <trkpt lat="47.83671" lon="2.24003">
        <ele>105</ele>
        <time>2017-07-23T07:10:58.110Z</time>
      </trkpt>
      <trkpt lat="47.83657" lon="2.24004">
        <ele>106</ele>
        <time>2017-07-23T07:10:59.112Z</time>
      </trkpt>
      <trkpt lat="47.83657" lon="2.24004">
        <ele>106</ele>
        <time>2017-07-23T07:11:00.115Z</time>
      </trkpt>
      <trkpt lat="47.83645" lon="2.24007">
        <ele>106</ele>
        <time>2017-07-23T07:11:01.114Z</time>
      </trkpt>
      <trkpt lat="47.83645" lon="2.24007">
        <ele>106</ele>
        <time>2017-07-23T07:11:02.110Z</time>
      </trkpt>
      <trkpt lat="47.83634" lon="2.24011">
        <ele>107</ele>
        <time>2017-07-23T07:11:03.113Z</time>
      </trkpt>
      <trkpt lat="47.83634" lon="2.24011">
        <ele>107</ele>
        <time>2017-07-23T07:11:04.108Z</time>
      </trkpt>
      <trkpt lat="47.83622" lon="2.24016">
        <ele>106</ele>
        <time>2017-07-23T07:11:05.112Z</time>
      </trkpt>
      <trkpt lat="47.83616" lon="2.24018">
        <ele>106</ele>
        <time>2017-07-23T07:11:06.112Z</time>
      </trkpt>
      <trkpt lat="47.8361" lon="2.24019">
        <ele>106</ele>
        <time>2017-07-23T07:11:07.114Z</time>
      </trkpt>
      <trkpt lat="47.8361" lon="2.24019">
        <ele>106</ele>
        <time>2017-07-23T07:11:08.108Z</time>
      </trkpt>
      <trkpt lat="47.83598" lon="2.2402">
        <ele>105</ele>
        <time>2017-07-23T07:11:09.121Z</time>
      </trkpt>
      <trkpt lat="47.83598" lon="2.2402">
        <ele>105</ele>
        <time>2017-07-23T07:11:10.110Z</time>
      </trkpt>
      <trkpt lat="47.83586" lon="2.24022">
        <ele>105</ele>
        <time>2017-07-23T07:11:11.112Z</time>
      </trkpt>
      <trkpt lat="47.83579" lon="2.24023">
        <ele>104</ele>
        <time>2017-07-23T07:11:12.112Z</time>
      </trkpt>
      <trkpt lat="47.83573" lon="2.24024">
        <ele>104</ele>
        <time>2017-07-23T07:11:13.116Z</time>
      </trkpt>
      <trkpt lat="47.83573" lon="2.24024">
        <ele>104</ele>
        <time>2017-07-23T07:11:14.131Z</time>
      </trkpt>
      <trkpt lat="47.83561" lon="2.24026">
        <ele>104</ele>
        <time>2017-07-23T07:11:15.121Z</time>
      </trkpt>
      <trkpt lat="47.83561" lon="2.24026">
        <ele>104</ele>
        <time>2017-07-23T07:11:16.111Z</time>
      </trkpt>
      <trkpt lat="47.83548" lon="2.24029">
        <ele>104</ele>
        <time>2017-07-23T07:11:17.122Z</time>
      </trkpt>
      <trkpt lat="47.83541" lon="2.24031">
        <ele>104</ele>
        <time>2017-07-23T07:11:18.127Z</time>
      </trkpt>
      <trkpt lat="47.83534" lon="2.24033">
        <ele>104</ele>
        <time>2017-07-23T07:11:19.133Z</time>
      </trkpt>
      <trkpt lat="47.83534" lon="2.24033">
        <ele>104</ele>
        <time>2017-07-23T07:11:20.134Z</time>
      </trkpt>
      <trkpt lat="47.83521" lon="2.24038">
        <ele>104</ele>
        <time>2017-07-23T07:11:21.126Z</time>
      </trkpt>
      <trkpt lat="47.83521" lon="2.24038">
        <ele>104</ele>
        <time>2017-07-23T07:11:22.116Z</time>
      </trkpt>
      <trkpt lat="47.83509" lon="2.24042">
        <ele>103</ele>
        <time>2017-07-23T07:11:23.112Z</time>
      </trkpt>
      <trkpt lat="47.83503" lon="2.24044">
        <ele>104</ele>
        <time>2017-07-23T07:11:24.113Z</time>
      </trkpt>
      <trkpt lat="47.83497" lon="2.24047">
        <ele>104</ele>
        <time>2017-07-23T07:11:25.114Z</time>
      </trkpt>
      <trkpt lat="47.83497" lon="2.24047">
        <ele>104</ele>
        <time>2017-07-23T07:11:26.111Z</time>
      </trkpt>
      <trkpt lat="47.83486" lon="2.24053">
        <ele>104</ele>
        <time>2017-07-23T07:11:27.112Z</time>
      </trkpt>
      <trkpt lat="47.83486" lon="2.24053">
        <ele>104</ele>
        <time>2017-07-23T07:11:28.110Z</time>
      </trkpt>
      <trkpt lat="47.83476" lon="2.24059">
        <ele>104</ele>
        <time>2017-07-23T07:11:29.112Z</time>
      </trkpt>
      <trkpt lat="47.83476" lon="2.24059">
        <ele>104</ele>
        <time>2017-07-23T07:11:30.109Z</time>
      </trkpt>
      <trkpt lat="47.83465" lon="2.24066">
        <ele>104</ele>
        <time>2017-07-23T07:11:31.113Z</time>
      </trkpt>
      <trkpt lat="47.83465" lon="2.24066">
        <ele>104</ele>
        <time>2017-07-23T07:11:32.148Z</time>
      </trkpt>
      <trkpt lat="47.83456" lon="2.24074">
        <ele>104</ele>
        <time>2017-07-23T07:11:33.109Z</time>
      </trkpt>
      <trkpt lat="47.83456" lon="2.24074">
        <ele>104</ele>
        <time>2017-07-23T07:11:34.110Z</time>
      </trkpt>
      <trkpt lat="47.83447" lon="2.24078">
        <ele>105</ele>
        <time>2017-07-23T07:11:35.113Z</time>
      </trkpt>
      <trkpt lat="47.83447" lon="2.24078">
        <ele>105</ele>
        <time>2017-07-23T07:11:36.147Z</time>
      </trkpt>
      <trkpt lat="47.83438" lon="2.24083">
        <ele>106</ele>
        <time>2017-07-23T07:11:37.113Z</time>
      </trkpt>
      <trkpt lat="47.83438" lon="2.24083">
        <ele>106</ele>
        <time>2017-07-23T07:11:38.110Z</time>
      </trkpt>
      <trkpt lat="47.83429" lon="2.2409">
        <ele>106</ele>
        <time>2017-07-23T07:11:39.110Z</time>
      </trkpt>
      <trkpt lat="47.83429" lon="2.2409">
        <ele>106</ele>
        <time>2017-07-23T07:11:40.144Z</time>
      </trkpt>
      <trkpt lat="47.8342" lon="2.24096">
        <ele>107</ele>
        <time>2017-07-23T07:11:41.133Z</time>
      </trkpt>
      <trkpt lat="47.83415" lon="2.24099">
        <ele>107</ele>
        <time>2017-07-23T07:11:42.123Z</time>
      </trkpt>
      <trkpt lat="47.83415" lon="2.24099">
        <ele>107</ele>
        <time>2017-07-23T07:11:43.114Z</time>
      </trkpt>
      <trkpt lat="47.83406" lon="2.24107">
        <ele>108</ele>
        <time>2017-07-23T07:11:44.112Z</time>
      </trkpt>
      <trkpt lat="47.83402" lon="2.24112">
        <ele>109</ele>
        <time>2017-07-23T07:11:45.114Z</time>
      </trkpt>
      <trkpt lat="47.83402" lon="2.24112">
        <ele>109</ele>
        <time>2017-07-23T07:11:46.110Z</time>
      </trkpt>
      <trkpt lat="47.83391" lon="2.24121">
        <ele>110</ele>
        <time>2017-07-23T07:11:47.112Z</time>
      </trkpt>
      <trkpt lat="47.8339" lon="2.24125">
        <ele>110</ele>
        <time>2017-07-23T07:11:48.113Z</time>
      </trkpt>
      <trkpt lat="47.83385" lon="2.24127">
        <ele>111</ele>
        <time>2017-07-23T07:11:49.113Z</time>
      </trkpt>
      <trkpt lat="47.83385" lon="2.24127">
        <ele>111</ele>
        <time>2017-07-23T07:11:50.109Z</time>
      </trkpt>
      <trkpt lat="47.83375" lon="2.24133">
        <ele>111</ele>
        <time>2017-07-23T07:11:51.110Z</time>
      </trkpt>
      <trkpt lat="47.83375" lon="2.24133">
        <ele>111</ele>
        <time>2017-07-23T07:11:52.147Z</time>
      </trkpt>
      <trkpt lat="47.83364" lon="2.24139">
        <ele>111</ele>
        <time>2017-07-23T07:11:53.113Z</time>
      </trkpt>
      <trkpt lat="47.83364" lon="2.24139">
        <ele>111</ele>
        <time>2017-07-23T07:11:54.110Z</time>
      </trkpt>
      <trkpt lat="47.83355" lon="2.24143">
        <ele>113</ele>
        <time>2017-07-23T07:11:55.113Z</time>
      </trkpt>
      <trkpt lat="47.83355" lon="2.24143">
        <ele>113</ele>
        <time>2017-07-23T07:11:56.110Z</time>
      </trkpt>
      <trkpt lat="47.83347" lon="2.2415">
        <ele>113</ele>
        <time>2017-07-23T07:11:57.111Z</time>
      </trkpt>
      <trkpt lat="47.83347" lon="2.2415">
        <ele>113</ele>
        <time>2017-07-23T07:11:58.110Z</time>
      </trkpt>
      <trkpt lat="47.83339" lon="2.24156">
        <ele>114</ele>
        <time>2017-07-23T07:11:59.113Z</time>
      </trkpt>
      <trkpt lat="47.83339" lon="2.24156">
        <ele>114</ele>
        <time>2017-07-23T07:12:00.113Z</time>
      </trkpt>
      <trkpt lat="47.8333" lon="2.24164">
        <ele>114</ele>
        <time>2017-07-23T07:12:01.113Z</time>
      </trkpt>
      <trkpt lat="47.8333" lon="2.24164">
        <ele>114</ele>
        <time>2017-07-23T07:12:02.110Z</time>
      </trkpt>
      <trkpt lat="47.83321" lon="2.24172">
        <ele>115</ele>
        <time>2017-07-23T07:12:03.110Z</time>
      </trkpt>
      <trkpt lat="47.83321" lon="2.24172">
        <ele>115</ele>
        <time>2017-07-23T07:12:04.110Z</time>
      </trkpt>
      <trkpt lat="47.83313" lon="2.24181">
        <ele>115</ele>
        <time>2017-07-23T07:12:05.112Z</time>
      </trkpt>
      <trkpt lat="47.83313" lon="2.24181">
        <ele>115</ele>
        <time>2017-07-23T07:12:06.109Z</time>
      </trkpt>
      <trkpt lat="47.83305" lon="2.24189">
        <ele>115</ele>
        <time>2017-07-23T07:12:07.114Z</time>
      </trkpt>
      <trkpt lat="47.83305" lon="2.24189">
        <ele>115</ele>
        <time>2017-07-23T07:12:08.147Z</time>
      </trkpt>
      <trkpt lat="47.83295" lon="2.24194">
        <ele>115</ele>
        <time>2017-07-23T07:12:09.108Z</time>
      </trkpt>
      <trkpt lat="47.83295" lon="2.24194">
        <ele>115</ele>
        <time>2017-07-23T07:12:10.110Z</time>
      </trkpt>
      <trkpt lat="47.83287" lon="2.24197">
        <ele>115</ele>
        <time>2017-07-23T07:12:11.114Z</time>
      </trkpt>
      <trkpt lat="47.83282" lon="2.24199">
        <ele>115</ele>
        <time>2017-07-23T07:12:12.113Z</time>
      </trkpt>
      <trkpt lat="47.83282" lon="2.24199">
        <ele>115</ele>
        <time>2017-07-23T07:12:13.111Z</time>
      </trkpt>
      <trkpt lat="47.83274" lon="2.24207">
        <ele>115</ele>
        <time>2017-07-23T07:12:14.111Z</time>
      </trkpt>
      <trkpt lat="47.8327" lon="2.24211">
        <ele>116</ele>
        <time>2017-07-23T07:12:15.113Z</time>
      </trkpt>
      <trkpt lat="47.8327" lon="2.24211">
        <ele>116</ele>
        <time>2017-07-23T07:12:16.109Z</time>
      </trkpt>
      <trkpt lat="47.83263" lon="2.24219">
        <ele>116</ele>
        <time>2017-07-23T07:12:17.113Z</time>
      </trkpt>
      <trkpt lat="47.83263" lon="2.24219">
        <ele>116</ele>
        <time>2017-07-23T07:12:18.110Z</time>
      </trkpt>
      <trkpt lat="47.83254" lon="2.24227">
        <ele>117</ele>
        <time>2017-07-23T07:12:19.116Z</time>
      </trkpt>
      <trkpt lat="47.83254" lon="2.24227">
        <ele>117</ele>
        <time>2017-07-23T07:12:20.127Z</time>
      </trkpt>
      <trkpt lat="47.83247" lon="2.24236">
        <ele>118</ele>
        <time>2017-07-23T07:12:21.115Z</time>
      </trkpt>
      <trkpt lat="47.83247" lon="2.24236">
        <ele>118</ele>
        <time>2017-07-23T07:12:22.110Z</time>
      </trkpt>
      <trkpt lat="47.83238" lon="2.24245">
        <ele>118</ele>
        <time>2017-07-23T07:12:23.113Z</time>
      </trkpt>
      <trkpt lat="47.83238" lon="2.24245">
        <ele>118</ele>
        <time>2017-07-23T07:12:24.148Z</time>
      </trkpt>
      <trkpt lat="47.83229" lon="2.24253">
        <ele>118</ele>
        <time>2017-07-23T07:12:25.114Z</time>
      </trkpt>
      <trkpt lat="47.83229" lon="2.24253">
        <ele>118</ele>
        <time>2017-07-23T07:12:26.110Z</time>
      </trkpt>
      <trkpt lat="47.8322" lon="2.24261">
        <ele>119</ele>
        <time>2017-07-23T07:12:27.113Z</time>
      </trkpt>
      <trkpt lat="47.8322" lon="2.24261">
        <ele>119</ele>
        <time>2017-07-23T07:12:28.108Z</time>
      </trkpt>
      <trkpt lat="47.83213" lon="2.2427">
        <ele>119</ele>
        <time>2017-07-23T07:12:29.113Z</time>
      </trkpt>
      <trkpt lat="47.83213" lon="2.2427">
        <ele>119</ele>
        <time>2017-07-23T07:12:30.110Z</time>
      </trkpt>
      <trkpt lat="47.83204" lon="2.24279">
        <ele>120</ele>
        <time>2017-07-23T07:12:31.113Z</time>
      </trkpt>
      <trkpt lat="47.83204" lon="2.24279">
        <ele>120</ele>
        <time>2017-07-23T07:12:32.109Z</time>
      </trkpt>
      <trkpt lat="47.83196" lon="2.2429">
        <ele>120</ele>
        <time>2017-07-23T07:12:33.110Z</time>
      </trkpt>
      <trkpt lat="47.83196" lon="2.2429">
        <ele>120</ele>
        <time>2017-07-23T07:12:34.119Z</time>
      </trkpt>
      <trkpt lat="47.83187" lon="2.24299">
        <ele>119</ele>
        <time>2017-07-23T07:12:35.113Z</time>
      </trkpt>
      <trkpt lat="47.83187" lon="2.24299">
        <ele>119</ele>
        <time>2017-07-23T07:12:36.110Z</time>
      </trkpt>
      <trkpt lat="47.83178" lon="2.24308">
        <ele>119</ele>
        <time>2017-07-23T07:12:37.114Z</time>
      </trkpt>
      <trkpt lat="47.83178" lon="2.24308">
        <ele>119</ele>
        <time>2017-07-23T07:12:38.119Z</time>
      </trkpt>
      <trkpt lat="47.83168" lon="2.24318">
        <ele>118</ele>
        <time>2017-07-23T07:12:39.113Z</time>
      </trkpt>
      <trkpt lat="47.83168" lon="2.24318">
        <ele>118</ele>
        <time>2017-07-23T07:12:40.109Z</time>
      </trkpt>
      <trkpt lat="47.83158" lon="2.24327">
        <ele>118</ele>
        <time>2017-07-23T07:12:41.120Z</time>
      </trkpt>
      <trkpt lat="47.83153" lon="2.24332">
        <ele>118</ele>
        <time>2017-07-23T07:12:42.111Z</time>
      </trkpt>
      <trkpt lat="47.83153" lon="2.24332">
        <ele>118</ele>
        <time>2017-07-23T07:12:43.114Z</time>
      </trkpt>
      <trkpt lat="47.83142" lon="2.2434">
        <ele>117</ele>
        <time>2017-07-23T07:12:44.113Z</time>
      </trkpt>
      <trkpt lat="47.83136" lon="2.24344">
        <ele>117</ele>
        <time>2017-07-23T07:12:45.114Z</time>
      </trkpt>
      <trkpt lat="47.83136" lon="2.24344">
        <ele>117</ele>
        <time>2017-07-23T07:12:46.108Z</time>
      </trkpt>
      <trkpt lat="47.83125" lon="2.24352">
        <ele>117</ele>
        <time>2017-07-23T07:12:47.112Z</time>
      </trkpt>
      <trkpt lat="47.83125" lon="2.24352">
        <ele>117</ele>
        <time>2017-07-23T07:12:48.110Z</time>
      </trkpt>
      <trkpt lat="47.83115" lon="2.24362">
        <ele>116</ele>
        <time>2017-07-23T07:12:49.111Z</time>
      </trkpt>
      <trkpt lat="47.83115" lon="2.24362">
        <ele>116</ele>
        <time>2017-07-23T07:12:50.148Z</time>
      </trkpt>
      <trkpt lat="47.83106" lon="2.24372">
        <ele>116</ele>
        <time>2017-07-23T07:12:51.113Z</time>
      </trkpt>
      <trkpt lat="47.83106" lon="2.24372">
        <ele>116</ele>
        <time>2017-07-23T07:12:52.109Z</time>
      </trkpt>
      <trkpt lat="47.83098" lon="2.24382">
        <ele>116</ele>
        <time>2017-07-23T07:12:53.112Z</time>
      </trkpt>
      <trkpt lat="47.83098" lon="2.24382">
        <ele>116</ele>
        <time>2017-07-23T07:12:54.110Z</time>
      </trkpt>
      <trkpt lat="47.8309" lon="2.24391">
        <ele>115</ele>
        <time>2017-07-23T07:12:55.113Z</time>
      </trkpt>
      <trkpt lat="47.8309" lon="2.24391">
        <ele>115</ele>
        <time>2017-07-23T07:12:56.110Z</time>
      </trkpt>
      <trkpt lat="47.83082" lon="2.24401">
        <ele>115</ele>
        <time>2017-07-23T07:12:57.110Z</time>
      </trkpt>
      <trkpt lat="47.83082" lon="2.24401">
        <ele>115</ele>
        <time>2017-07-23T07:12:58.110Z</time>
      </trkpt>
      <trkpt lat="47.83075" lon="2.24412">
        <ele>114</ele>
        <time>2017-07-23T07:12:59.112Z</time>
      </trkpt>
      <trkpt lat="47.83075" lon="2.24412">
        <ele>114</ele>
        <time>2017-07-23T07:13:00.114Z</time>
      </trkpt>
      <trkpt lat="47.83068" lon="2.24421">
        <ele>113</ele>
        <time>2017-07-23T07:13:01.114Z</time>
      </trkpt>
      <trkpt lat="47.83068" lon="2.24421">
        <ele>113</ele>
        <time>2017-07-23T07:13:02.110Z</time>
      </trkpt>
      <trkpt lat="47.83061" lon="2.2443">
        <ele>113</ele>
        <time>2017-07-23T07:13:03.114Z</time>
      </trkpt>
      <trkpt lat="47.83061" lon="2.2443">
        <ele>113</ele>
        <time>2017-07-23T07:13:04.110Z</time>
      </trkpt>
      <trkpt lat="47.83056" lon="2.24439">
        <ele>113</ele>
        <time>2017-07-23T07:13:05.112Z</time>
      </trkpt>
      <trkpt lat="47.83053" lon="2.24443">
        <ele>113</ele>
        <time>2017-07-23T07:13:06.113Z</time>
      </trkpt>
      <trkpt lat="47.83053" lon="2.24443">
        <ele>113</ele>
        <time>2017-07-23T07:13:07.130Z</time>
      </trkpt>
      <trkpt lat="47.83047" lon="2.2445">
        <ele>113</ele>
        <time>2017-07-23T07:13:08.132Z</time>
      </trkpt>
      <trkpt lat="47.83044" lon="2.24453">
        <ele>113</ele>
        <time>2017-07-23T07:13:09.123Z</time>
      </trkpt>
      <trkpt lat="47.83044" lon="2.24453">
        <ele>113</ele>
        <time>2017-07-23T07:13:10.112Z</time>
      </trkpt>
      <trkpt lat="47.83038" lon="2.2446">
        <ele>112</ele>
        <time>2017-07-23T07:13:11.113Z</time>
      </trkpt>
      <trkpt lat="47.83038" lon="2.2446">
        <ele>112</ele>
        <time>2017-07-23T07:13:12.110Z</time>
      </trkpt>
      <trkpt lat="47.83032" lon="2.24465">
        <ele>112</ele>
        <time>2017-07-23T07:13:13.111Z</time>
      </trkpt>
      <trkpt lat="47.83032" lon="2.24465">
        <ele>112</ele>
        <time>2017-07-23T07:13:14.108Z</time>
      </trkpt>
      <trkpt lat="47.83029" lon="2.2447">
        <ele>112</ele>
        <time>2017-07-23T07:13:15.115Z</time>
      </trkpt>
      <trkpt lat="47.83029" lon="2.2447">
        <ele>112</ele>
        <time>2017-07-23T07:13:16.111Z</time>
      </trkpt>
      <trkpt lat="47.83028" lon="2.24471">
        <ele>112</ele>
        <time>2017-07-23T07:13:17.112Z</time>
      </trkpt>
      <trkpt lat="47.83028" lon="2.24471">
        <ele>112</ele>
        <time>2017-07-23T07:13:18.147Z</time>
      </trkpt>
      <trkpt lat="47.83028" lon="2.24472">
        <ele>111</ele>
        <time>2017-07-23T07:13:19.114Z</time>
      </trkpt>
      <trkpt lat="47.83028" lon="2.24472">
        <ele>111</ele>
        <time>2017-07-23T07:13:20.129Z</time>
      </trkpt>
      <trkpt lat="47.83019" lon="2.24481">
        <ele>103</ele>
        <time>2017-07-23T07:13:21.120Z</time>
      </trkpt>
      <trkpt lat="47.83019" lon="2.24481">
        <ele>103</ele>
        <time>2017-07-23T07:13:22.116Z</time>
      </trkpt>
      <trkpt lat="47.83015" lon="2.24488">
        <ele>103</ele>
        <time>2017-07-23T07:13:23.118Z</time>
      </trkpt>
      <trkpt lat="47.83015" lon="2.24488">
        <ele>103</ele>
        <time>2017-07-23T07:13:24.117Z</time>
      </trkpt>
      <trkpt lat="47.8301" lon="2.24497">
        <ele>104</ele>
        <time>2017-07-23T07:13:25.122Z</time>
      </trkpt>
      <trkpt lat="47.8301" lon="2.24497">
        <ele>104</ele>
        <time>2017-07-23T07:13:26.114Z</time>
      </trkpt>
      <trkpt lat="47.83006" lon="2.24506">
        <ele>105</ele>
        <time>2017-07-23T07:13:27.120Z</time>
      </trkpt>
      <trkpt lat="47.83003" lon="2.24511">
        <ele>105</ele>
        <time>2017-07-23T07:13:28.120Z</time>
      </trkpt>
      <trkpt lat="47.83003" lon="2.24511">
        <ele>105</ele>
        <time>2017-07-23T07:13:29.117Z</time>
      </trkpt>
      <trkpt lat="47.82998" lon="2.24523">
        <ele>105</ele>
        <time>2017-07-23T07:13:30.119Z</time>
      </trkpt>
      <trkpt lat="47.82998" lon="2.24523">
        <ele>105</ele>
        <time>2017-07-23T07:13:31.118Z</time>
      </trkpt>
      <trkpt lat="47.82993" lon="2.24535">
        <ele>106</ele>
        <time>2017-07-23T07:13:32.120Z</time>
      </trkpt>
      <trkpt lat="47.82991" lon="2.24541">
        <ele>106</ele>
        <time>2017-07-23T07:13:33.120Z</time>
      </trkpt>
      <trkpt lat="47.82991" lon="2.24541">
        <ele>106</ele>
        <time>2017-07-23T07:13:34.114Z</time>
      </trkpt>
      <trkpt lat="47.82986" lon="2.24553">
        <ele>107</ele>
        <time>2017-07-23T07:13:35.117Z</time>
      </trkpt>
      <trkpt lat="47.82986" lon="2.24553">
        <ele>107</ele>
        <time>2017-07-23T07:13:36.120Z</time>
      </trkpt>
      <trkpt lat="47.82981" lon="2.24565">
        <ele>107</ele>
        <time>2017-07-23T07:13:37.120Z</time>
      </trkpt>
      <trkpt lat="47.82981" lon="2.24565">
        <ele>107</ele>
        <time>2017-07-23T07:13:38.117Z</time>
      </trkpt>
      <trkpt lat="47.82976" lon="2.24576">
        <ele>108</ele>
        <time>2017-07-23T07:13:39.120Z</time>
      </trkpt>
      <trkpt lat="47.82976" lon="2.24576">
        <ele>108</ele>
        <time>2017-07-23T07:13:40.117Z</time>
      </trkpt>
      <trkpt lat="47.8297" lon="2.24589">
        <ele>108</ele>
        <time>2017-07-23T07:13:41.119Z</time>
      </trkpt>
      <trkpt lat="47.82967" lon="2.24595">
        <ele>108</ele>
        <time>2017-07-23T07:13:42.119Z</time>
      </trkpt>
      <trkpt lat="47.82964" lon="2.24601">
        <ele>108</ele>
        <time>2017-07-23T07:13:43.121Z</time>
      </trkpt>
      <trkpt lat="47.82964" lon="2.24601">
        <ele>108</ele>
        <time>2017-07-23T07:13:44.117Z</time>
      </trkpt>
      <trkpt lat="47.82958" lon="2.24613">
        <ele>108</ele>
        <time>2017-07-23T07:13:45.117Z</time>
      </trkpt>
      <trkpt lat="47.82958" lon="2.24613">
        <ele>108</ele>
        <time>2017-07-23T07:13:46.117Z</time>
      </trkpt>
      <trkpt lat="47.82952" lon="2.24626">
        <ele>108</ele>
        <time>2017-07-23T07:13:47.119Z</time>
      </trkpt>
      <trkpt lat="47.82952" lon="2.24626">
        <ele>108</ele>
        <time>2017-07-23T07:13:48.116Z</time>
      </trkpt>
      <trkpt lat="47.82946" lon="2.24641">
        <ele>107</ele>
        <time>2017-07-23T07:13:49.120Z</time>
      </trkpt>
      <trkpt lat="47.82946" lon="2.24641">
        <ele>107</ele>
        <time>2017-07-23T07:13:50.114Z</time>
      </trkpt>
      <trkpt lat="47.82941" lon="2.24656">
        <ele>108</ele>
        <time>2017-07-23T07:13:51.117Z</time>
      </trkpt>
      <trkpt lat="47.82941" lon="2.24656">
        <ele>108</ele>
        <time>2017-07-23T07:13:52.118Z</time>
      </trkpt>
      <trkpt lat="47.82934" lon="2.24672">
        <ele>107</ele>
        <time>2017-07-23T07:13:53.119Z</time>
      </trkpt>
      <trkpt lat="47.82934" lon="2.24672">
        <ele>107</ele>
        <time>2017-07-23T07:13:54.113Z</time>
      </trkpt>
      <trkpt lat="47.82928" lon="2.24687">
        <ele>107</ele>
        <time>2017-07-23T07:13:55.120Z</time>
      </trkpt>
      <trkpt lat="47.82928" lon="2.24687">
        <ele>107</ele>
        <time>2017-07-23T07:13:56.116Z</time>
      </trkpt>
      <trkpt lat="47.82924" lon="2.24702">
        <ele>107</ele>
        <time>2017-07-23T07:13:57.120Z</time>
      </trkpt>
      <trkpt lat="47.82924" lon="2.24702">
        <ele>107</ele>
        <time>2017-07-23T07:13:58.114Z</time>
      </trkpt>
      <trkpt lat="47.8292" lon="2.24717">
        <ele>107</ele>
        <time>2017-07-23T07:13:59.117Z</time>
      </trkpt>
      <trkpt lat="47.8292" lon="2.24717">
        <ele>107</ele>
        <time>2017-07-23T07:14:00.116Z</time>
      </trkpt>
      <trkpt lat="47.82917" lon="2.24732">
        <ele>107</ele>
        <time>2017-07-23T07:14:01.117Z</time>
      </trkpt>
      <trkpt lat="47.82915" lon="2.2474">
        <ele>107</ele>
        <time>2017-07-23T07:14:02.116Z</time>
      </trkpt>
      <trkpt lat="47.82913" lon="2.24747">
        <ele>107</ele>
        <time>2017-07-23T07:14:03.120Z</time>
      </trkpt>
      <trkpt lat="47.82913" lon="2.24747">
        <ele>107</ele>
        <time>2017-07-23T07:14:04.116Z</time>
      </trkpt>
      <trkpt lat="47.82909" lon="2.24762">
        <ele>107</ele>
        <time>2017-07-23T07:14:05.119Z</time>
      </trkpt>
      <trkpt lat="47.82909" lon="2.24762">
        <ele>107</ele>
        <time>2017-07-23T07:14:06.116Z</time>
      </trkpt>
      <trkpt lat="47.82905" lon="2.24776">
        <ele>108</ele>
        <time>2017-07-23T07:14:07.120Z</time>
      </trkpt>
      <trkpt lat="47.82905" lon="2.24776">
        <ele>108</ele>
        <time>2017-07-23T07:14:08.135Z</time>
      </trkpt>
      <trkpt lat="47.829" lon="2.2479">
        <ele>108</ele>
        <time>2017-07-23T07:14:09.125Z</time>
      </trkpt>
      <trkpt lat="47.829" lon="2.2479">
        <ele>108</ele>
        <time>2017-07-23T07:14:10.117Z</time>
      </trkpt>
      <trkpt lat="47.82895" lon="2.24805">
        <ele>108</ele>
        <time>2017-07-23T07:14:11.123Z</time>
      </trkpt>
      <trkpt lat="47.82893" lon="2.24812">
        <ele>108</ele>
        <time>2017-07-23T07:14:12.120Z</time>
      </trkpt>
      <trkpt lat="47.82893" lon="2.24812">
        <ele>108</ele>
        <time>2017-07-23T07:14:13.117Z</time>
      </trkpt>
      <trkpt lat="47.82888" lon="2.24828">
        <ele>107</ele>
        <time>2017-07-23T07:14:14.119Z</time>
      </trkpt>
      <trkpt lat="47.82888" lon="2.24828">
        <ele>107</ele>
        <time>2017-07-23T07:14:15.114Z</time>
      </trkpt>
      <trkpt lat="47.82884" lon="2.24844">
        <ele>107</ele>
        <time>2017-07-23T07:14:16.120Z</time>
      </trkpt>
      <trkpt lat="47.82884" lon="2.24844">
        <ele>107</ele>
        <time>2017-07-23T07:14:17.126Z</time>
      </trkpt>
      <trkpt lat="47.8288" lon="2.24859">
        <ele>107</ele>
        <time>2017-07-23T07:14:18.119Z</time>
      </trkpt>
      <trkpt lat="47.8288" lon="2.24859">
        <ele>107</ele>
        <time>2017-07-23T07:14:19.116Z</time>
      </trkpt>
      <trkpt lat="47.82875" lon="2.24873">
        <ele>107</ele>
        <time>2017-07-23T07:14:20.119Z</time>
      </trkpt>
      <trkpt lat="47.82873" lon="2.2488">
        <ele>107</ele>
        <time>2017-07-23T07:14:21.109Z</time>
      </trkpt>
      <trkpt lat="47.82873" lon="2.2488">
        <ele>107</ele>
        <time>2017-07-23T07:14:22.117Z</time>
      </trkpt>
      <trkpt lat="47.82868" lon="2.24894">
        <ele>107</ele>
        <time>2017-07-23T07:14:23.116Z</time>
      </trkpt>
      <trkpt lat="47.82868" lon="2.24894">
        <ele>107</ele>
        <time>2017-07-23T07:14:24.114Z</time>
      </trkpt>
      <trkpt lat="47.82865" lon="2.24908">
        <ele>107</ele>
        <time>2017-07-23T07:14:25.120Z</time>
      </trkpt>
      <trkpt lat="47.82865" lon="2.24908">
        <ele>107</ele>
        <time>2017-07-23T07:14:26.117Z</time>
      </trkpt>
      <trkpt lat="47.82861" lon="2.24922">
        <ele>107</ele>
        <time>2017-07-23T07:14:27.136Z</time>
      </trkpt>
      <trkpt lat="47.82861" lon="2.24922">
        <ele>107</ele>
        <time>2017-07-23T07:14:28.125Z</time>
      </trkpt>
      <trkpt lat="47.82859" lon="2.24936">
        <ele>107</ele>
        <time>2017-07-23T07:14:29.119Z</time>
      </trkpt>
      <trkpt lat="47.82859" lon="2.24936">
        <ele>107</ele>
        <time>2017-07-23T07:14:30.117Z</time>
      </trkpt>
      <trkpt lat="47.82857" lon="2.24952">
        <ele>107</ele>
        <time>2017-07-23T07:14:31.121Z</time>
      </trkpt>
      <trkpt lat="47.82857" lon="2.24952">
        <ele>107</ele>
        <time>2017-07-23T07:14:32.114Z</time>
      </trkpt>
      <trkpt lat="47.82855" lon="2.24967">
        <ele>107</ele>
        <time>2017-07-23T07:14:33.121Z</time>
      </trkpt>
      <trkpt lat="47.82855" lon="2.24967">
        <ele>107</ele>
        <time>2017-07-23T07:14:34.117Z</time>
      </trkpt>
      <trkpt lat="47.82854" lon="2.24981">
        <ele>107</ele>
        <time>2017-07-23T07:14:35.120Z</time>
      </trkpt>
      <trkpt lat="47.82854" lon="2.24981">
        <ele>107</ele>
        <time>2017-07-23T07:14:36.116Z</time>
      </trkpt>
      <trkpt lat="47.82852" lon="2.24995">
        <ele>108</ele>
        <time>2017-07-23T07:14:37.138Z</time>
      </trkpt>
      <trkpt lat="47.82851" lon="2.25003">
        <ele>107</ele>
        <time>2017-07-23T07:14:38.188Z</time>
      </trkpt>
      <trkpt lat="47.8285" lon="2.2501">
        <ele>107</ele>
        <time>2017-07-23T07:14:39.126Z</time>
      </trkpt>
      <trkpt lat="47.8285" lon="2.2501">
        <ele>107</ele>
        <time>2017-07-23T07:14:40.117Z</time>
      </trkpt>
      <trkpt lat="47.82848" lon="2.25025">
        <ele>107</ele>
        <time>2017-07-23T07:14:41.120Z</time>
      </trkpt>
      <trkpt lat="47.82848" lon="2.25025">
        <ele>107</ele>
        <time>2017-07-23T07:14:42.117Z</time>
      </trkpt>
      <trkpt lat="47.82845" lon="2.2504">
        <ele>107</ele>
        <time>2017-07-23T07:14:43.121Z</time>
      </trkpt>
      <trkpt lat="47.82845" lon="2.2504">
        <ele>107</ele>
        <time>2017-07-23T07:14:44.117Z</time>
      </trkpt>
      <trkpt lat="47.82844" lon="2.25055">
        <ele>107</ele>
        <time>2017-07-23T07:14:45.120Z</time>
      </trkpt>
      <trkpt lat="47.82844" lon="2.25055">
        <ele>107</ele>
        <time>2017-07-23T07:14:46.117Z</time>
      </trkpt>
      <trkpt lat="47.82842" lon="2.25069">
        <ele>107</ele>
        <time>2017-07-23T07:14:47.120Z</time>
      </trkpt>
      <trkpt lat="47.82842" lon="2.25069">
        <ele>107</ele>
        <time>2017-07-23T07:14:48.117Z</time>
      </trkpt>
      <trkpt lat="47.82841" lon="2.25084">
        <ele>106</ele>
        <time>2017-07-23T07:14:49.121Z</time>
      </trkpt>
      <trkpt lat="47.82841" lon="2.25084">
        <ele>106</ele>
        <time>2017-07-23T07:14:50.117Z</time>
      </trkpt>
      <trkpt lat="47.8284" lon="2.25099">
        <ele>106</ele>
        <time>2017-07-23T07:14:51.120Z</time>
      </trkpt>
      <trkpt lat="47.8284" lon="2.25099">
        <ele>106</ele>
        <time>2017-07-23T07:14:52.114Z</time>
      </trkpt>
      <trkpt lat="47.82838" lon="2.25113">
        <ele>106</ele>
        <time>2017-07-23T07:14:53.119Z</time>
      </trkpt>
      <trkpt lat="47.82838" lon="2.25113">
        <ele>106</ele>
        <time>2017-07-23T07:14:54.117Z</time>
      </trkpt>
      <trkpt lat="47.82837" lon="2.25128">
        <ele>106</ele>
        <time>2017-07-23T07:14:55.120Z</time>
      </trkpt>
      <trkpt lat="47.82836" lon="2.25137">
        <ele>106</ele>
        <time>2017-07-23T07:14:56.120Z</time>
      </trkpt>
      <trkpt lat="47.82836" lon="2.25137">
        <ele>106</ele>
        <time>2017-07-23T07:14:57.115Z</time>
      </trkpt>
      <trkpt lat="47.82835" lon="2.25153">
        <ele>106</ele>
        <time>2017-07-23T07:14:58.120Z</time>
      </trkpt>
      <trkpt lat="47.82835" lon="2.25153">
        <ele>106</ele>
        <time>2017-07-23T07:14:59.117Z</time>
      </trkpt>
      <trkpt lat="47.82831" lon="2.25168">
        <ele>106</ele>
        <time>2017-07-23T07:15:00.120Z</time>
      </trkpt>
      <trkpt lat="47.82831" lon="2.25168">
        <ele>106</ele>
        <time>2017-07-23T07:15:01.120Z</time>
      </trkpt>
      <trkpt lat="47.82827" lon="2.25184">
        <ele>106</ele>
        <time>2017-07-23T07:15:02.128Z</time>
      </trkpt>
      <trkpt lat="47.82826" lon="2.25192">
        <ele>106</ele>
        <time>2017-07-23T07:15:03.120Z</time>
      </trkpt>
      <trkpt lat="47.82826" lon="2.25192">
        <ele>106</ele>
        <time>2017-07-23T07:15:04.115Z</time>
      </trkpt>
      <trkpt lat="47.82823" lon="2.25208">
        <ele>105</ele>
        <time>2017-07-23T07:15:05.119Z</time>
      </trkpt>
      <trkpt lat="47.82823" lon="2.25208">
        <ele>105</ele>
        <time>2017-07-23T07:15:06.116Z</time>
      </trkpt>
      <trkpt lat="47.82822" lon="2.25223">
        <ele>104</ele>
        <time>2017-07-23T07:15:07.121Z</time>
      </trkpt>
      <trkpt lat="47.82822" lon="2.25223">
        <ele>104</ele>
        <time>2017-07-23T07:15:08.117Z</time>
      </trkpt>
      <trkpt lat="47.82821" lon="2.25239">
        <ele>104</ele>
        <time>2017-07-23T07:15:09.120Z</time>
      </trkpt>
      <trkpt lat="47.82821" lon="2.25239">
        <ele>104</ele>
        <time>2017-07-23T07:15:10.117Z</time>
      </trkpt>
      <trkpt lat="47.8282" lon="2.25256">
        <ele>104</ele>
        <time>2017-07-23T07:15:11.119Z</time>
      </trkpt>
      <trkpt lat="47.8282" lon="2.25264">
        <ele>103</ele>
        <time>2017-07-23T07:15:12.130Z</time>
      </trkpt>
      <trkpt lat="47.82818" lon="2.25272">
        <ele>103</ele>
        <time>2017-07-23T07:15:13.121Z</time>
      </trkpt>
      <trkpt lat="47.82818" lon="2.25272">
        <ele>103</ele>
        <time>2017-07-23T07:15:14.117Z</time>
      </trkpt>
      <trkpt lat="47.82817" lon="2.25288">
        <ele>103</ele>
        <time>2017-07-23T07:15:15.117Z</time>
      </trkpt>
      <trkpt lat="47.82817" lon="2.25288">
        <ele>103</ele>
        <time>2017-07-23T07:15:16.115Z</time>
      </trkpt>
      <trkpt lat="47.82817" lon="2.25304">
        <ele>102</ele>
        <time>2017-07-23T07:15:17.118Z</time>
      </trkpt>
      <trkpt lat="47.82817" lon="2.25304">
        <ele>102</ele>
        <time>2017-07-23T07:15:18.117Z</time>
      </trkpt>
      <trkpt lat="47.82818" lon="2.25321">
        <ele>102</ele>
        <time>2017-07-23T07:15:19.121Z</time>
      </trkpt>
      <trkpt lat="47.82818" lon="2.25321">
        <ele>102</ele>
        <time>2017-07-23T07:15:20.117Z</time>
      </trkpt>
      <trkpt lat="47.82818" lon="2.25335">
        <ele>102</ele>
        <time>2017-07-23T07:15:21.120Z</time>
      </trkpt>
      <trkpt lat="47.82818" lon="2.25335">
        <ele>102</ele>
        <time>2017-07-23T07:15:22.114Z</time>
      </trkpt>
      <trkpt lat="47.82817" lon="2.25351">
        <ele>102</ele>
        <time>2017-07-23T07:15:23.120Z</time>
      </trkpt>
      <trkpt lat="47.82817" lon="2.25351">
        <ele>102</ele>
        <time>2017-07-23T07:15:24.118Z</time>
      </trkpt>
      <trkpt lat="47.82815" lon="2.25367">
        <ele>101</ele>
        <time>2017-07-23T07:15:25.134Z</time>
      </trkpt>
      <trkpt lat="47.82815" lon="2.25367">
        <ele>101</ele>
        <time>2017-07-23T07:15:26.130Z</time>
      </trkpt>
      <trkpt lat="47.82814" lon="2.25382">
        <ele>102</ele>
        <time>2017-07-23T07:15:27.122Z</time>
      </trkpt>
      <trkpt lat="47.82814" lon="2.25382">
        <ele>102</ele>
        <time>2017-07-23T07:15:28.118Z</time>
      </trkpt>
      <trkpt lat="47.82815" lon="2.254">
        <ele>102</ele>
        <time>2017-07-23T07:15:29.121Z</time>
      </trkpt>
      <trkpt lat="47.82815" lon="2.254">
        <ele>102</ele>
        <time>2017-07-23T07:15:30.120Z</time>
      </trkpt>
      <trkpt lat="47.82815" lon="2.25415">
        <ele>102</ele>
        <time>2017-07-23T07:15:31.121Z</time>
      </trkpt>
      <trkpt lat="47.82815" lon="2.25415">
        <ele>102</ele>
        <time>2017-07-23T07:15:32.117Z</time>
      </trkpt>
      <trkpt lat="47.82814" lon="2.25433">
        <ele>102</ele>
        <time>2017-07-23T07:15:33.120Z</time>
      </trkpt>
      <trkpt lat="47.82814" lon="2.25433">
        <ele>102</ele>
        <time>2017-07-23T07:15:34.117Z</time>
      </trkpt>
      <trkpt lat="47.82812" lon="2.2545">
        <ele>102</ele>
        <time>2017-07-23T07:15:35.120Z</time>
      </trkpt>
      <trkpt lat="47.82812" lon="2.2545">
        <ele>102</ele>
        <time>2017-07-23T07:15:36.119Z</time>
      </trkpt>
      <trkpt lat="47.82812" lon="2.25467">
        <ele>102</ele>
        <time>2017-07-23T07:15:37.141Z</time>
      </trkpt>
      <trkpt lat="47.82812" lon="2.25467">
        <ele>102</ele>
        <time>2017-07-23T07:15:38.128Z</time>
      </trkpt>
      <trkpt lat="47.82811" lon="2.25483">
        <ele>102</ele>
        <time>2017-07-23T07:15:39.121Z</time>
      </trkpt>
      <trkpt lat="47.82811" lon="2.25483">
        <ele>102</ele>
        <time>2017-07-23T07:15:40.118Z</time>
      </trkpt>
      <trkpt lat="47.82812" lon="2.25496">
        <ele>103</ele>
        <time>2017-07-23T07:15:41.120Z</time>
      </trkpt>
      <trkpt lat="47.82812" lon="2.25496">
        <ele>103</ele>
        <time>2017-07-23T07:15:42.115Z</time>
      </trkpt>
      <trkpt lat="47.82812" lon="2.25509">
        <ele>103</ele>
        <time>2017-07-23T07:15:43.119Z</time>
      </trkpt>
      <trkpt lat="47.82812" lon="2.25509">
        <ele>103</ele>
        <time>2017-07-23T07:15:44.118Z</time>
      </trkpt>
      <trkpt lat="47.82812" lon="2.25524">
        <ele>104</ele>
        <time>2017-07-23T07:15:45.121Z</time>
      </trkpt>
      <trkpt lat="47.82812" lon="2.25524">
        <ele>104</ele>
        <time>2017-07-23T07:15:46.115Z</time>
      </trkpt>
      <trkpt lat="47.82813" lon="2.25541">
        <ele>104</ele>
        <time>2017-07-23T07:15:47.120Z</time>
      </trkpt>
      <trkpt lat="47.82813" lon="2.25541">
        <ele>104</ele>
        <time>2017-07-23T07:15:48.117Z</time>
      </trkpt>
      <trkpt lat="47.82812" lon="2.25558">
        <ele>106</ele>
        <time>2017-07-23T07:15:49.121Z</time>
      </trkpt>
      <trkpt lat="47.82812" lon="2.25558">
        <ele>106</ele>
        <time>2017-07-23T07:15:50.115Z</time>
      </trkpt>
      <trkpt lat="47.82814" lon="2.25575">
        <ele>107</ele>
        <time>2017-07-23T07:15:51.122Z</time>
      </trkpt>
      <trkpt lat="47.82814" lon="2.25575">
        <ele>107</ele>
        <time>2017-07-23T07:15:52.116Z</time>
      </trkpt>
      <trkpt lat="47.82815" lon="2.25592">
        <ele>107</ele>
        <time>2017-07-23T07:15:53.120Z</time>
      </trkpt>
      <trkpt lat="47.82815" lon="2.25592">
        <ele>107</ele>
        <time>2017-07-23T07:15:54.117Z</time>
      </trkpt>
      <trkpt lat="47.82815" lon="2.25607">
        <ele>108</ele>
        <time>2017-07-23T07:15:55.123Z</time>
      </trkpt>
      <trkpt lat="47.82815" lon="2.25607">
        <ele>108</ele>
        <time>2017-07-23T07:15:56.117Z</time>
      </trkpt>
      <trkpt lat="47.82816" lon="2.25622">
        <ele>107</ele>
        <time>2017-07-23T07:15:57.120Z</time>
      </trkpt>
      <trkpt lat="47.82816" lon="2.25622">
        <ele>107</ele>
        <time>2017-07-23T07:15:58.117Z</time>
      </trkpt>
      <trkpt lat="47.82818" lon="2.25639">
        <ele>108</ele>
        <time>2017-07-23T07:15:59.120Z</time>
      </trkpt>
      <trkpt lat="47.8282" lon="2.25647">
        <ele>108</ele>
        <time>2017-07-23T07:16:00.117Z</time>
      </trkpt>
      <trkpt lat="47.8282" lon="2.25647">
        <ele>108</ele>
        <time>2017-07-23T07:16:01.118Z</time>
      </trkpt>
      <trkpt lat="47.82823" lon="2.25663">
        <ele>108</ele>
        <time>2017-07-23T07:16:02.121Z</time>
      </trkpt>
      <trkpt lat="47.82825" lon="2.25671">
        <ele>107</ele>
        <time>2017-07-23T07:16:03.121Z</time>
      </trkpt>
      <trkpt lat="47.82825" lon="2.25671">
        <ele>107</ele>
        <time>2017-07-23T07:16:04.115Z</time>
      </trkpt>
      <trkpt lat="47.82829" lon="2.25687">
        <ele>107</ele>
        <time>2017-07-23T07:16:05.121Z</time>
      </trkpt>
      <trkpt lat="47.82829" lon="2.25687">
        <ele>107</ele>
        <time>2017-07-23T07:16:06.117Z</time>
      </trkpt>
      <trkpt lat="47.82832" lon="2.25703">
        <ele>107</ele>
        <time>2017-07-23T07:16:07.121Z</time>
      </trkpt>
      <trkpt lat="47.82832" lon="2.25703">
        <ele>107</ele>
        <time>2017-07-23T07:16:08.114Z</time>
      </trkpt>
      <trkpt lat="47.82836" lon="2.25719">
        <ele>107</ele>
        <time>2017-07-23T07:16:09.120Z</time>
      </trkpt>
      <trkpt lat="47.82836" lon="2.25719">
        <ele>107</ele>
        <time>2017-07-23T07:16:10.129Z</time>
      </trkpt>
      <trkpt lat="47.82839" lon="2.25734">
        <ele>108</ele>
        <time>2017-07-23T07:16:11.125Z</time>
      </trkpt>
      <trkpt lat="47.82839" lon="2.25734">
        <ele>108</ele>
        <time>2017-07-23T07:16:12.117Z</time>
      </trkpt>
      <trkpt lat="47.82843" lon="2.2575">
        <ele>107</ele>
        <time>2017-07-23T07:16:13.122Z</time>
      </trkpt>
      <trkpt lat="47.82843" lon="2.2575">
        <ele>107</ele>
        <time>2017-07-23T07:16:14.117Z</time>
      </trkpt>
      <trkpt lat="47.82847" lon="2.25766">
        <ele>108</ele>
        <time>2017-07-23T07:16:15.122Z</time>
      </trkpt>
      <trkpt lat="47.82847" lon="2.25766">
        <ele>108</ele>
        <time>2017-07-23T07:16:16.118Z</time>
      </trkpt>
      <trkpt lat="47.82851" lon="2.25781">
        <ele>108</ele>
        <time>2017-07-23T07:16:17.121Z</time>
      </trkpt>
      <trkpt lat="47.82851" lon="2.25781">
        <ele>108</ele>
        <time>2017-07-23T07:16:18.118Z</time>
      </trkpt>
      <trkpt lat="47.82855" lon="2.25797">
        <ele>108</ele>
        <time>2017-07-23T07:16:19.121Z</time>
      </trkpt>
      <trkpt lat="47.82855" lon="2.25797">
        <ele>108</ele>
        <time>2017-07-23T07:16:20.118Z</time>
      </trkpt>
      <trkpt lat="47.82858" lon="2.25813">
        <ele>107</ele>
        <time>2017-07-23T07:16:21.121Z</time>
      </trkpt>
      <trkpt lat="47.82858" lon="2.25813">
        <ele>107</ele>
        <time>2017-07-23T07:16:22.115Z</time>
      </trkpt>
      <trkpt lat="47.82861" lon="2.25829">
        <ele>107</ele>
        <time>2017-07-23T07:16:23.121Z</time>
      </trkpt>
      <trkpt lat="47.82861" lon="2.25829">
        <ele>107</ele>
        <time>2017-07-23T07:16:24.117Z</time>
      </trkpt>
      <trkpt lat="47.82864" lon="2.25846">
        <ele>107</ele>
        <time>2017-07-23T07:16:25.118Z</time>
      </trkpt>
      <trkpt lat="47.82864" lon="2.25846">
        <ele>107</ele>
        <time>2017-07-23T07:16:26.115Z</time>
      </trkpt>
      <trkpt lat="47.82867" lon="2.25862">
        <ele>107</ele>
        <time>2017-07-23T07:16:27.121Z</time>
      </trkpt>
      <trkpt lat="47.82867" lon="2.25862">
        <ele>107</ele>
        <time>2017-07-23T07:16:28.116Z</time>
      </trkpt>
      <trkpt lat="47.82872" lon="2.25876">
        <ele>107</ele>
        <time>2017-07-23T07:16:29.118Z</time>
      </trkpt>
      <trkpt lat="47.82872" lon="2.25876">
        <ele>107</ele>
        <time>2017-07-23T07:16:30.114Z</time>
      </trkpt>
      <trkpt lat="47.82878" lon="2.25891">
        <ele>107</ele>
        <time>2017-07-23T07:16:31.122Z</time>
      </trkpt>
      <trkpt lat="47.82878" lon="2.25891">
        <ele>107</ele>
        <time>2017-07-23T07:16:32.118Z</time>
      </trkpt>
      <trkpt lat="47.82884" lon="2.25907">
        <ele>108</ele>
        <time>2017-07-23T07:16:33.120Z</time>
      </trkpt>
      <trkpt lat="47.82886" lon="2.25914">
        <ele>108</ele>
        <time>2017-07-23T07:16:34.117Z</time>
      </trkpt>
      <trkpt lat="47.82889" lon="2.25922">
        <ele>108</ele>
        <time>2017-07-23T07:16:35.121Z</time>
      </trkpt>
      <trkpt lat="47.82889" lon="2.25922">
        <ele>108</ele>
        <time>2017-07-23T07:16:36.115Z</time>
      </trkpt>
      <trkpt lat="47.82892" lon="2.25937">
        <ele>107</ele>
        <time>2017-07-23T07:16:37.137Z</time>
      </trkpt>
      <trkpt lat="47.82892" lon="2.25937">
        <ele>107</ele>
        <time>2017-07-23T07:16:38.128Z</time>
      </trkpt>
      <trkpt lat="47.82897" lon="2.25952">
        <ele>106</ele>
        <time>2017-07-23T07:16:39.122Z</time>
      </trkpt>
      <trkpt lat="47.82897" lon="2.25952">
        <ele>106</ele>
        <time>2017-07-23T07:16:40.116Z</time>
      </trkpt>
      <trkpt lat="47.82901" lon="2.25968">
        <ele>106</ele>
        <time>2017-07-23T07:16:41.108Z</time>
      </trkpt>
      <trkpt lat="47.82901" lon="2.25968">
        <ele>106</ele>
        <time>2017-07-23T07:16:42.137Z</time>
      </trkpt>
      <trkpt lat="47.82905" lon="2.25983">
        <ele>106</ele>
        <time>2017-07-23T07:16:43.119Z</time>
      </trkpt>
      <trkpt lat="47.82905" lon="2.25983">
        <ele>106</ele>
        <time>2017-07-23T07:16:44.117Z</time>
      </trkpt>
      <trkpt lat="47.8291" lon="2.25998">
        <ele>106</ele>
        <time>2017-07-23T07:16:45.121Z</time>
      </trkpt>
      <trkpt lat="47.82913" lon="2.26005">
        <ele>106</ele>
        <time>2017-07-23T07:16:46.120Z</time>
      </trkpt>
      <trkpt lat="47.82913" lon="2.26005">
        <ele>106</ele>
        <time>2017-07-23T07:16:47.116Z</time>
      </trkpt>
      <trkpt lat="47.82917" lon="2.26019">
        <ele>106</ele>
        <time>2017-07-23T07:16:48.117Z</time>
      </trkpt>
      <trkpt lat="47.8292" lon="2.26025">
        <ele>106</ele>
        <time>2017-07-23T07:16:49.123Z</time>
      </trkpt>
      <trkpt lat="47.8292" lon="2.26025">
        <ele>106</ele>
        <time>2017-07-23T07:16:50.117Z</time>
      </trkpt>
      <trkpt lat="47.82926" lon="2.26036">
        <ele>106</ele>
        <time>2017-07-23T07:16:51.121Z</time>
      </trkpt>
      <trkpt lat="47.82926" lon="2.26036">
        <ele>106</ele>
        <time>2017-07-23T07:16:52.118Z</time>
      </trkpt>
      <trkpt lat="47.82934" lon="2.26043">
        <ele>105</ele>
        <time>2017-07-23T07:16:53.134Z</time>
      </trkpt>
      <trkpt lat="47.82934" lon="2.26043">
        <ele>105</ele>
        <time>2017-07-23T07:16:54.124Z</time>
      </trkpt>
      <trkpt lat="47.82943" lon="2.26047">
        <ele>105</ele>
        <time>2017-07-23T07:16:55.122Z</time>
      </trkpt>
      <trkpt lat="47.82943" lon="2.26047">
        <ele>105</ele>
        <time>2017-07-23T07:16:56.116Z</time>
      </trkpt>
      <trkpt lat="47.82952" lon="2.26048">
        <ele>105</ele>
        <time>2017-07-23T07:16:57.126Z</time>
      </trkpt>
      <trkpt lat="47.82952" lon="2.26048">
        <ele>105</ele>
        <time>2017-07-23T07:16:58.118Z</time>
      </trkpt>
      <trkpt lat="47.82962" lon="2.26051">
        <ele>105</ele>
        <time>2017-07-23T07:16:59.122Z</time>
      </trkpt>
      <trkpt lat="47.82962" lon="2.26051">
        <ele>105</ele>
        <time>2017-07-23T07:17:00.116Z</time>
      </trkpt>
      <trkpt lat="47.8297" lon="2.26058">
        <ele>105</ele>
        <time>2017-07-23T07:17:01.133Z</time>
      </trkpt>
      <trkpt lat="47.8297" lon="2.26058">
        <ele>105</ele>
        <time>2017-07-23T07:17:02.142Z</time>
      </trkpt>
      <trkpt lat="47.82978" lon="2.26069">
        <ele>104</ele>
        <time>2017-07-23T07:17:03.121Z</time>
      </trkpt>
      <trkpt lat="47.82978" lon="2.26069">
        <ele>104</ele>
        <time>2017-07-23T07:17:04.117Z</time>
      </trkpt>
      <trkpt lat="47.82987" lon="2.26081">
        <ele>104</ele>
        <time>2017-07-23T07:17:05.120Z</time>
      </trkpt>
      <trkpt lat="47.82987" lon="2.26081">
        <ele>104</ele>
        <time>2017-07-23T07:17:06.117Z</time>
      </trkpt>
      <trkpt lat="47.82994" lon="2.26093">
        <ele>104</ele>
        <time>2017-07-23T07:17:07.123Z</time>
      </trkpt>
      <trkpt lat="47.82994" lon="2.26093">
        <ele>104</ele>
        <time>2017-07-23T07:17:08.117Z</time>
      </trkpt>
      <trkpt lat="47.83003" lon="2.26104">
        <ele>104</ele>
        <time>2017-07-23T07:17:09.122Z</time>
      </trkpt>
      <trkpt lat="47.83003" lon="2.26104">
        <ele>104</ele>
        <time>2017-07-23T07:17:10.118Z</time>
      </trkpt>
      <trkpt lat="47.83012" lon="2.26114">
        <ele>104</ele>
        <time>2017-07-23T07:17:11.121Z</time>
      </trkpt>
      <trkpt lat="47.83016" lon="2.26119">
        <ele>104</ele>
        <time>2017-07-23T07:17:12.121Z</time>
      </trkpt>
      <trkpt lat="47.83016" lon="2.26119">
        <ele>104</ele>
        <time>2017-07-23T07:17:13.117Z</time>
      </trkpt>
      <trkpt lat="47.83026" lon="2.2613">
        <ele>105</ele>
        <time>2017-07-23T07:17:14.120Z</time>
      </trkpt>
      <trkpt lat="47.8303" lon="2.26135">
        <ele>104</ele>
        <time>2017-07-23T07:17:15.121Z</time>
      </trkpt>
      <trkpt lat="47.8303" lon="2.26135">
        <ele>104</ele>
        <time>2017-07-23T07:17:16.115Z</time>
      </trkpt>
      <trkpt lat="47.83038" lon="2.26146">
        <ele>104</ele>
        <time>2017-07-23T07:17:17.120Z</time>
      </trkpt>
      <trkpt lat="47.83041" lon="2.26152">
        <ele>105</ele>
        <time>2017-07-23T07:17:18.120Z</time>
      </trkpt>
      <trkpt lat="47.83043" lon="2.26159">
        <ele>106</ele>
        <time>2017-07-23T07:17:19.122Z</time>
      </trkpt>
      <trkpt lat="47.83043" lon="2.26159">
        <ele>106</ele>
        <time>2017-07-23T07:17:20.116Z</time>
      </trkpt>
      <trkpt lat="47.83047" lon="2.26172">
        <ele>107</ele>
        <time>2017-07-23T07:17:21.121Z</time>
      </trkpt>
      <trkpt lat="47.83047" lon="2.26172">
        <ele>107</ele>
        <time>2017-07-23T07:17:22.117Z</time>
      </trkpt>
      <trkpt lat="47.83053" lon="2.26182">
        <ele>107</ele>
        <time>2017-07-23T07:17:23.117Z</time>
      </trkpt>
      <trkpt lat="47.83053" lon="2.26182">
        <ele>107</ele>
        <time>2017-07-23T07:17:24.117Z</time>
      </trkpt>
      <trkpt lat="47.83057" lon="2.26187">
        <ele>107</ele>
        <time>2017-07-23T07:17:25.123Z</time>
      </trkpt>
      <trkpt lat="47.83057" lon="2.26187">
        <ele>107</ele>
        <time>2017-07-23T07:17:26.114Z</time>
      </trkpt>
      <trkpt lat="47.83058" lon="2.26195">
        <ele>107</ele>
        <time>2017-07-23T07:17:27.121Z</time>
      </trkpt>
      <trkpt lat="47.83058" lon="2.26195">
        <ele>107</ele>
        <time>2017-07-23T07:17:28.122Z</time>
      </trkpt>
      <trkpt lat="47.83057" lon="2.26204">
        <ele>107</ele>
        <time>2017-07-23T07:17:29.121Z</time>
      </trkpt>
      <trkpt lat="47.83057" lon="2.26204">
        <ele>107</ele>
        <time>2017-07-23T07:17:30.118Z</time>
      </trkpt>
      <trkpt lat="47.83057" lon="2.26214">
        <ele>107</ele>
        <time>2017-07-23T07:17:31.122Z</time>
      </trkpt>
      <trkpt lat="47.83057" lon="2.26214">
        <ele>107</ele>
        <time>2017-07-23T07:17:32.115Z</time>
      </trkpt>
      <trkpt lat="47.83059" lon="2.26227">
        <ele>107</ele>
        <time>2017-07-23T07:17:33.114Z</time>
      </trkpt>
      <trkpt lat="47.83059" lon="2.26234">
        <ele>107</ele>
        <time>2017-07-23T07:17:34.142Z</time>
      </trkpt>
      <trkpt lat="47.83059" lon="2.26234">
        <ele>107</ele>
        <time>2017-07-23T07:17:35.132Z</time>
      </trkpt>
      <trkpt lat="47.8306" lon="2.2625">
        <ele>107</ele>
        <time>2017-07-23T07:17:36.123Z</time>
      </trkpt>
      <trkpt lat="47.8306" lon="2.26259">
        <ele>107</ele>
        <time>2017-07-23T07:17:37.123Z</time>
      </trkpt>
      <trkpt lat="47.8306" lon="2.26259">
        <ele>107</ele>
        <time>2017-07-23T07:17:38.129Z</time>
      </trkpt>
      <trkpt lat="47.83061" lon="2.26275">
        <ele>108</ele>
        <time>2017-07-23T07:17:39.125Z</time>
      </trkpt>
      <trkpt lat="47.83061" lon="2.26275">
        <ele>108</ele>
        <time>2017-07-23T07:17:40.117Z</time>
      </trkpt>
      <trkpt lat="47.83062" lon="2.26293">
        <ele>108</ele>
        <time>2017-07-23T07:17:41.121Z</time>
      </trkpt>
      <trkpt lat="47.83062" lon="2.26293">
        <ele>108</ele>
        <time>2017-07-23T07:17:42.117Z</time>
      </trkpt>
      <trkpt lat="47.83063" lon="2.2631">
        <ele>108</ele>
        <time>2017-07-23T07:17:43.114Z</time>
      </trkpt>
      <trkpt lat="47.83064" lon="2.26318">
        <ele>108</ele>
        <time>2017-07-23T07:17:44.118Z</time>
      </trkpt>
      <trkpt lat="47.83064" lon="2.26327">
        <ele>108</ele>
        <time>2017-07-23T07:17:45.121Z</time>
      </trkpt>
      <trkpt lat="47.83064" lon="2.26327">
        <ele>108</ele>
        <time>2017-07-23T07:17:46.117Z</time>
      </trkpt>
      <trkpt lat="47.83065" lon="2.26344">
        <ele>108</ele>
        <time>2017-07-23T07:17:47.122Z</time>
      </trkpt>
      <trkpt lat="47.83065" lon="2.26352">
        <ele>108</ele>
        <time>2017-07-23T07:17:48.120Z</time>
      </trkpt>
      <trkpt lat="47.83065" lon="2.26361">
        <ele>108</ele>
        <time>2017-07-23T07:17:49.122Z</time>
      </trkpt>
      <trkpt lat="47.83065" lon="2.26361">
        <ele>108</ele>
        <time>2017-07-23T07:17:50.118Z</time>
      </trkpt>
      <trkpt lat="47.83066" lon="2.26377">
        <ele>108</ele>
        <time>2017-07-23T07:17:51.121Z</time>
      </trkpt>
      <trkpt lat="47.83066" lon="2.26377">
        <ele>108</ele>
        <time>2017-07-23T07:17:52.115Z</time>
      </trkpt>
      <trkpt lat="47.83066" lon="2.26393">
        <ele>108</ele>
        <time>2017-07-23T07:17:53.128Z</time>
      </trkpt>
      <trkpt lat="47.83067" lon="2.26402">
        <ele>108</ele>
        <time>2017-07-23T07:17:54.120Z</time>
      </trkpt>
      <trkpt lat="47.83067" lon="2.2641">
        <ele>108</ele>
        <time>2017-07-23T07:17:55.122Z</time>
      </trkpt>
      <trkpt lat="47.83067" lon="2.2641">
        <ele>108</ele>
        <time>2017-07-23T07:17:56.117Z</time>
      </trkpt>
      <trkpt lat="47.83069" lon="2.26426">
        <ele>108</ele>
        <time>2017-07-23T07:17:57.123Z</time>
      </trkpt>
      <trkpt lat="47.83069" lon="2.26426">
        <ele>108</ele>
        <time>2017-07-23T07:17:58.117Z</time>
      </trkpt>
      <trkpt lat="47.83071" lon="2.26442">
        <ele>108</ele>
        <time>2017-07-23T07:17:59.121Z</time>
      </trkpt>
      <trkpt lat="47.83071" lon="2.26442">
        <ele>108</ele>
        <time>2017-07-23T07:18:00.118Z</time>
      </trkpt>
      <trkpt lat="47.83072" lon="2.26458">
        <ele>109</ele>
        <time>2017-07-23T07:18:01.124Z</time>
      </trkpt>
      <trkpt lat="47.83072" lon="2.26458">
        <ele>109</ele>
        <time>2017-07-23T07:18:02.115Z</time>
      </trkpt>
      <trkpt lat="47.83074" lon="2.26474">
        <ele>109</ele>
        <time>2017-07-23T07:18:03.122Z</time>
      </trkpt>
      <trkpt lat="47.83074" lon="2.26474">
        <ele>109</ele>
        <time>2017-07-23T07:18:04.118Z</time>
      </trkpt>
      <trkpt lat="47.83076" lon="2.26491">
        <ele>108</ele>
        <time>2017-07-23T07:18:05.118Z</time>
      </trkpt>
      <trkpt lat="47.83076" lon="2.26491">
        <ele>108</ele>
        <time>2017-07-23T07:18:06.115Z</time>
      </trkpt>
      <trkpt lat="47.83078" lon="2.26505">
        <ele>108</ele>
        <time>2017-07-23T07:18:07.121Z</time>
      </trkpt>
      <trkpt lat="47.8308" lon="2.26513">
        <ele>108</ele>
        <time>2017-07-23T07:18:08.120Z</time>
      </trkpt>
      <trkpt lat="47.83081" lon="2.26521">
        <ele>108</ele>
        <time>2017-07-23T07:18:09.121Z</time>
      </trkpt>
      <trkpt lat="47.83081" lon="2.26521">
        <ele>108</ele>
        <time>2017-07-23T07:18:10.116Z</time>
      </trkpt>
      <trkpt lat="47.83084" lon="2.26536">
        <ele>108</ele>
        <time>2017-07-23T07:18:11.120Z</time>
      </trkpt>
      <trkpt lat="47.83084" lon="2.26536">
        <ele>108</ele>
        <time>2017-07-23T07:18:12.117Z</time>
      </trkpt>
      <trkpt lat="47.83087" lon="2.26552">
        <ele>109</ele>
        <time>2017-07-23T07:18:13.120Z</time>
      </trkpt>
      <trkpt lat="47.83087" lon="2.26552">
        <ele>109</ele>
        <time>2017-07-23T07:18:14.116Z</time>
      </trkpt>
      <trkpt lat="47.8309" lon="2.26568">
        <ele>109</ele>
        <time>2017-07-23T07:18:15.122Z</time>
      </trkpt>
      <trkpt lat="47.8309" lon="2.26568">
        <ele>109</ele>
        <time>2017-07-23T07:18:16.117Z</time>
      </trkpt>
      <trkpt lat="47.83093" lon="2.26585">
        <ele>109</ele>
        <time>2017-07-23T07:18:17.120Z</time>
      </trkpt>
      <trkpt lat="47.83093" lon="2.26585">
        <ele>109</ele>
        <time>2017-07-23T07:18:18.117Z</time>
      </trkpt>
      <trkpt lat="47.83095" lon="2.26603">
        <ele>109</ele>
        <time>2017-07-23T07:18:19.123Z</time>
      </trkpt>
      <trkpt lat="47.83095" lon="2.26603">
        <ele>109</ele>
        <time>2017-07-23T07:18:20.118Z</time>
      </trkpt>
      <trkpt lat="47.83096" lon="2.26621">
        <ele>109</ele>
        <time>2017-07-23T07:18:21.121Z</time>
      </trkpt>
      <trkpt lat="47.83096" lon="2.26621">
        <ele>109</ele>
        <time>2017-07-23T07:18:22.118Z</time>
      </trkpt>
      <trkpt lat="47.83096" lon="2.26639">
        <ele>109</ele>
        <time>2017-07-23T07:18:23.117Z</time>
      </trkpt>
      <trkpt lat="47.83096" lon="2.26648">
        <ele>109</ele>
        <time>2017-07-23T07:18:24.121Z</time>
      </trkpt>
      <trkpt lat="47.83096" lon="2.26648">
        <ele>109</ele>
        <time>2017-07-23T07:18:25.117Z</time>
      </trkpt>
      <trkpt lat="47.83095" lon="2.26666">
        <ele>109</ele>
        <time>2017-07-23T07:18:26.119Z</time>
      </trkpt>
      <trkpt lat="47.83094" lon="2.26675">
        <ele>109</ele>
        <time>2017-07-23T07:18:27.122Z</time>
      </trkpt>
      <trkpt lat="47.83094" lon="2.26675">
        <ele>109</ele>
        <time>2017-07-23T07:18:28.115Z</time>
      </trkpt>
      <trkpt lat="47.83093" lon="2.26693">
        <ele>109</ele>
        <time>2017-07-23T07:18:29.121Z</time>
      </trkpt>
      <trkpt lat="47.83093" lon="2.26693">
        <ele>109</ele>
        <time>2017-07-23T07:18:30.118Z</time>
      </trkpt>
      <trkpt lat="47.83092" lon="2.26711">
        <ele>109</ele>
        <time>2017-07-23T07:18:31.120Z</time>
      </trkpt>
      <trkpt lat="47.83092" lon="2.26711">
        <ele>109</ele>
        <time>2017-07-23T07:18:32.117Z</time>
      </trkpt>
      <trkpt lat="47.83091" lon="2.26728">
        <ele>109</ele>
        <time>2017-07-23T07:18:33.123Z</time>
      </trkpt>
      <trkpt lat="47.83091" lon="2.26728">
        <ele>109</ele>
        <time>2017-07-23T07:18:34.125Z</time>
      </trkpt>
      <trkpt lat="47.8309" lon="2.26746">
        <ele>109</ele>
        <time>2017-07-23T07:18:35.121Z</time>
      </trkpt>
      <trkpt lat="47.8309" lon="2.26746">
        <ele>109</ele>
        <time>2017-07-23T07:18:36.119Z</time>
      </trkpt>
      <trkpt lat="47.83089" lon="2.26764">
        <ele>109</ele>
        <time>2017-07-23T07:18:37.142Z</time>
      </trkpt>
      <trkpt lat="47.83089" lon="2.26764">
        <ele>109</ele>
        <time>2017-07-23T07:18:38.140Z</time>
      </trkpt>
      <trkpt lat="47.83088" lon="2.26783">
        <ele>109</ele>
        <time>2017-07-23T07:18:39.131Z</time>
      </trkpt>
      <trkpt lat="47.83088" lon="2.26783">
        <ele>109</ele>
        <time>2017-07-23T07:18:40.122Z</time>
      </trkpt>
      <trkpt lat="47.83086" lon="2.26802">
        <ele>109</ele>
        <time>2017-07-23T07:18:41.120Z</time>
      </trkpt>
      <trkpt lat="47.83085" lon="2.26811">
        <ele>108</ele>
        <time>2017-07-23T07:18:42.121Z</time>
      </trkpt>
      <trkpt lat="47.83084" lon="2.26821">
        <ele>108</ele>
        <time>2017-07-23T07:18:43.122Z</time>
      </trkpt>
      <trkpt lat="47.83084" lon="2.26821">
        <ele>108</ele>
        <time>2017-07-23T07:18:44.117Z</time>
      </trkpt>
      <trkpt lat="47.83082" lon="2.2684">
        <ele>108</ele>
        <time>2017-07-23T07:18:45.134Z</time>
      </trkpt>
      <trkpt lat="47.83082" lon="2.2684">
        <ele>108</ele>
        <time>2017-07-23T07:18:46.134Z</time>
      </trkpt>
      <trkpt lat="47.8308" lon="2.2686">
        <ele>108</ele>
        <time>2017-07-23T07:18:47.123Z</time>
      </trkpt>
      <trkpt lat="47.83079" lon="2.26869">
        <ele>108</ele>
        <time>2017-07-23T07:18:48.121Z</time>
      </trkpt>
      <trkpt lat="47.83079" lon="2.26869">
        <ele>108</ele>
        <time>2017-07-23T07:18:49.119Z</time>
      </trkpt>
      <trkpt lat="47.83077" lon="2.26889">
        <ele>109</ele>
        <time>2017-07-23T07:18:50.121Z</time>
      </trkpt>
      <trkpt lat="47.83077" lon="2.26899">
        <ele>109</ele>
        <time>2017-07-23T07:18:51.123Z</time>
      </trkpt>
      <trkpt lat="47.83077" lon="2.26899">
        <ele>109</ele>
        <time>2017-07-23T07:18:52.116Z</time>
      </trkpt>
      <trkpt lat="47.83074" lon="2.26918">
        <ele>109</ele>
        <time>2017-07-23T07:18:53.122Z</time>
      </trkpt>
      <trkpt lat="47.83074" lon="2.26918">
        <ele>109</ele>
        <time>2017-07-23T07:18:54.118Z</time>
      </trkpt>
      <trkpt lat="47.83072" lon="2.26938">
        <ele>108</ele>
        <time>2017-07-23T07:18:55.123Z</time>
      </trkpt>
      <trkpt lat="47.83072" lon="2.26938">
        <ele>108</ele>
        <time>2017-07-23T07:18:56.116Z</time>
      </trkpt>
      <trkpt lat="47.8307" lon="2.26957">
        <ele>108</ele>
        <time>2017-07-23T07:18:57.121Z</time>
      </trkpt>
      <trkpt lat="47.83069" lon="2.26968">
        <ele>108</ele>
        <time>2017-07-23T07:18:58.120Z</time>
      </trkpt>
      <trkpt lat="47.83069" lon="2.26968">
        <ele>108</ele>
        <time>2017-07-23T07:18:59.118Z</time>
      </trkpt>
      <trkpt lat="47.8307" lon="2.26988">
        <ele>108</ele>
        <time>2017-07-23T07:19:00.120Z</time>
      </trkpt>
      <trkpt lat="47.8307" lon="2.26988">
        <ele>108</ele>
        <time>2017-07-23T07:19:01.116Z</time>
      </trkpt>
      <trkpt lat="47.83072" lon="2.27009">
        <ele>109</ele>
        <time>2017-07-23T07:19:02.120Z</time>
      </trkpt>
      <trkpt lat="47.83073" lon="2.27018">
        <ele>109</ele>
        <time>2017-07-23T07:19:03.121Z</time>
      </trkpt>
      <trkpt lat="47.83073" lon="2.27018">
        <ele>109</ele>
        <time>2017-07-23T07:19:04.117Z</time>
      </trkpt>
      <trkpt lat="47.83077" lon="2.27037">
        <ele>109</ele>
        <time>2017-07-23T07:19:05.117Z</time>
      </trkpt>
      <trkpt lat="47.83077" lon="2.27037">
        <ele>109</ele>
        <time>2017-07-23T07:19:06.115Z</time>
      </trkpt>
      <trkpt lat="47.83082" lon="2.27056">
        <ele>109</ele>
        <time>2017-07-23T07:19:07.143Z</time>
      </trkpt>
      <trkpt lat="47.83082" lon="2.27056">
        <ele>109</ele>
        <time>2017-07-23T07:19:08.131Z</time>
      </trkpt>
      <trkpt lat="47.83087" lon="2.27075">
        <ele>109</ele>
        <time>2017-07-23T07:19:09.121Z</time>
      </trkpt>
      <trkpt lat="47.83087" lon="2.27075">
        <ele>109</ele>
        <time>2017-07-23T07:19:10.115Z</time>
      </trkpt>
      <trkpt lat="47.83092" lon="2.27095">
        <ele>109</ele>
        <time>2017-07-23T07:19:11.119Z</time>
      </trkpt>
      <trkpt lat="47.83092" lon="2.27095">
        <ele>109</ele>
        <time>2017-07-23T07:19:12.118Z</time>
      </trkpt>
      <trkpt lat="47.83096" lon="2.27114">
        <ele>109</ele>
        <time>2017-07-23T07:19:13.123Z</time>
      </trkpt>
      <trkpt lat="47.83096" lon="2.27114">
        <ele>109</ele>
        <time>2017-07-23T07:19:14.118Z</time>
      </trkpt>
      <trkpt lat="47.831" lon="2.27132">
        <ele>109</ele>
        <time>2017-07-23T07:19:15.122Z</time>
      </trkpt>
      <trkpt lat="47.831" lon="2.27132">
        <ele>109</ele>
        <time>2017-07-23T07:19:16.117Z</time>
      </trkpt>
      <trkpt lat="47.83104" lon="2.27151">
        <ele>109</ele>
        <time>2017-07-23T07:19:17.121Z</time>
      </trkpt>
      <trkpt lat="47.83104" lon="2.27151">
        <ele>109</ele>
        <time>2017-07-23T07:19:18.118Z</time>
      </trkpt>
      <trkpt lat="47.83107" lon="2.27171">
        <ele>109</ele>
        <time>2017-07-23T07:19:19.123Z</time>
      </trkpt>
      <trkpt lat="47.83107" lon="2.27171">
        <ele>109</ele>
        <time>2017-07-23T07:19:20.118Z</time>
      </trkpt>
      <trkpt lat="47.83108" lon="2.27191">
        <ele>109</ele>
        <time>2017-07-23T07:19:21.118Z</time>
      </trkpt>
      <trkpt lat="47.83108" lon="2.27191">
        <ele>109</ele>
        <time>2017-07-23T07:19:22.117Z</time>
      </trkpt>
      <trkpt lat="47.83107" lon="2.27212">
        <ele>109</ele>
        <time>2017-07-23T07:19:23.119Z</time>
      </trkpt>
      <trkpt lat="47.83107" lon="2.27212">
        <ele>109</ele>
        <time>2017-07-23T07:19:24.111Z</time>
      </trkpt>
      <trkpt lat="47.83105" lon="2.27232">
        <ele>109</ele>
        <time>2017-07-23T07:19:25.139Z</time>
      </trkpt>
      <trkpt lat="47.83105" lon="2.27232">
        <ele>109</ele>
        <time>2017-07-23T07:19:26.140Z</time>
      </trkpt>
      <trkpt lat="47.83101" lon="2.27252">
        <ele>108</ele>
        <time>2017-07-23T07:19:27.130Z</time>
      </trkpt>
      <trkpt lat="47.831" lon="2.27263">
        <ele>108</ele>
        <time>2017-07-23T07:19:28.120Z</time>
      </trkpt>
      <trkpt lat="47.831" lon="2.27263">
        <ele>108</ele>
        <time>2017-07-23T07:19:29.118Z</time>
      </trkpt>
      <trkpt lat="47.83097" lon="2.27283">
        <ele>108</ele>
        <time>2017-07-23T07:19:30.121Z</time>
      </trkpt>
      <trkpt lat="47.83095" lon="2.27293">
        <ele>108</ele>
        <time>2017-07-23T07:19:31.125Z</time>
      </trkpt>
      <trkpt lat="47.83095" lon="2.27293">
        <ele>108</ele>
        <time>2017-07-23T07:19:32.116Z</time>
      </trkpt>
      <trkpt lat="47.83093" lon="2.27314">
        <ele>108</ele>
        <time>2017-07-23T07:19:33.122Z</time>
      </trkpt>
      <trkpt lat="47.83093" lon="2.27314">
        <ele>108</ele>
        <time>2017-07-23T07:19:34.112Z</time>
      </trkpt>
      <trkpt lat="47.83093" lon="2.27335">
        <ele>108</ele>
        <time>2017-07-23T07:19:35.118Z</time>
      </trkpt>
      <trkpt lat="47.83093" lon="2.27345">
        <ele>108</ele>
        <time>2017-07-23T07:19:36.124Z</time>
      </trkpt>
      <trkpt lat="47.83093" lon="2.27356">
        <ele>108</ele>
        <time>2017-07-23T07:19:37.130Z</time>
      </trkpt>
      <trkpt lat="47.83093" lon="2.27356">
        <ele>108</ele>
        <time>2017-07-23T07:19:38.138Z</time>
      </trkpt>
      <trkpt lat="47.83093" lon="2.27377">
        <ele>108</ele>
        <time>2017-07-23T07:19:39.127Z</time>
      </trkpt>
      <trkpt lat="47.83093" lon="2.27377">
        <ele>108</ele>
        <time>2017-07-23T07:19:40.118Z</time>
      </trkpt>
      <trkpt lat="47.83094" lon="2.27398">
        <ele>108</ele>
        <time>2017-07-23T07:19:41.121Z</time>
      </trkpt>
      <trkpt lat="47.83094" lon="2.27408">
        <ele>108</ele>
        <time>2017-07-23T07:19:42.120Z</time>
      </trkpt>
      <trkpt lat="47.83094" lon="2.27418">
        <ele>108</ele>
        <time>2017-07-23T07:19:43.123Z</time>
      </trkpt>
      <trkpt lat="47.83094" lon="2.27418">
        <ele>108</ele>
        <time>2017-07-23T07:19:44.122Z</time>
      </trkpt>
      <trkpt lat="47.83093" lon="2.27439">
        <ele>107</ele>
        <time>2017-07-23T07:19:45.122Z</time>
      </trkpt>
      <trkpt lat="47.83093" lon="2.27439">
        <ele>107</ele>
        <time>2017-07-23T07:19:46.118Z</time>
      </trkpt>
      <trkpt lat="47.83093" lon="2.2746">
        <ele>107</ele>
        <time>2017-07-23T07:19:47.123Z</time>
      </trkpt>
      <trkpt lat="47.83093" lon="2.2746">
        <ele>107</ele>
        <time>2017-07-23T07:19:48.118Z</time>
      </trkpt>
      <trkpt lat="47.83092" lon="2.27481">
        <ele>107</ele>
        <time>2017-07-23T07:19:49.136Z</time>
      </trkpt>
      <trkpt lat="47.83092" lon="2.27481">
        <ele>107</ele>
        <time>2017-07-23T07:19:50.125Z</time>
      </trkpt>
      <trkpt lat="47.8309" lon="2.27502">
        <ele>107</ele>
        <time>2017-07-23T07:19:51.121Z</time>
      </trkpt>
      <trkpt lat="47.8309" lon="2.27502">
        <ele>107</ele>
        <time>2017-07-23T07:19:52.115Z</time>
      </trkpt>
      <trkpt lat="47.83088" lon="2.27523">
        <ele>107</ele>
        <time>2017-07-23T07:19:53.121Z</time>
      </trkpt>
      <trkpt lat="47.83088" lon="2.27523">
        <ele>107</ele>
        <time>2017-07-23T07:19:54.126Z</time>
      </trkpt>
      <trkpt lat="47.83084" lon="2.27543">
        <ele>107</ele>
        <time>2017-07-23T07:19:55.119Z</time>
      </trkpt>
      <trkpt lat="47.83084" lon="2.27543">
        <ele>107</ele>
        <time>2017-07-23T07:19:56.115Z</time>
      </trkpt>
      <trkpt lat="47.8308" lon="2.27564">
        <ele>107</ele>
        <time>2017-07-23T07:19:57.123Z</time>
      </trkpt>
      <trkpt lat="47.8308" lon="2.27564">
        <ele>107</ele>
        <time>2017-07-23T07:19:58.118Z</time>
      </trkpt>
      <trkpt lat="47.83076" lon="2.27584">
        <ele>107</ele>
        <time>2017-07-23T07:19:59.121Z</time>
      </trkpt>
      <trkpt lat="47.83076" lon="2.27584">
        <ele>107</ele>
        <time>2017-07-23T07:20:00.117Z</time>
      </trkpt>
      <trkpt lat="47.83072" lon="2.27605">
        <ele>107</ele>
        <time>2017-07-23T07:20:01.122Z</time>
      </trkpt>
      <trkpt lat="47.83072" lon="2.27605">
        <ele>107</ele>
        <time>2017-07-23T07:20:02.118Z</time>
      </trkpt>
      <trkpt lat="47.83071" lon="2.27626">
        <ele>107</ele>
        <time>2017-07-23T07:20:03.122Z</time>
      </trkpt>
      <trkpt lat="47.83071" lon="2.27626">
        <ele>107</ele>
        <time>2017-07-23T07:20:04.118Z</time>
      </trkpt>
      <trkpt lat="47.83072" lon="2.27646">
        <ele>108</ele>
        <time>2017-07-23T07:20:05.119Z</time>
      </trkpt>
      <trkpt lat="47.83072" lon="2.27646">
        <ele>108</ele>
        <time>2017-07-23T07:20:06.115Z</time>
      </trkpt>
      <trkpt lat="47.83075" lon="2.27666">
        <ele>108</ele>
        <time>2017-07-23T07:20:07.119Z</time>
      </trkpt>
      <trkpt lat="47.83075" lon="2.27666">
        <ele>108</ele>
        <time>2017-07-23T07:20:08.118Z</time>
      </trkpt>
      <trkpt lat="47.83078" lon="2.27686">
        <ele>108</ele>
        <time>2017-07-23T07:20:09.119Z</time>
      </trkpt>
      <trkpt lat="47.83078" lon="2.27686">
        <ele>108</ele>
        <time>2017-07-23T07:20:10.130Z</time>
      </trkpt>
      <trkpt lat="47.83082" lon="2.27705">
        <ele>109</ele>
        <time>2017-07-23T07:20:11.122Z</time>
      </trkpt>
      <trkpt lat="47.83082" lon="2.27705">
        <ele>109</ele>
        <time>2017-07-23T07:20:12.118Z</time>
      </trkpt>
      <trkpt lat="47.83086" lon="2.27725">
        <ele>109</ele>
        <time>2017-07-23T07:20:13.119Z</time>
      </trkpt>
      <trkpt lat="47.83086" lon="2.27725">
        <ele>109</ele>
        <time>2017-07-23T07:20:14.115Z</time>
      </trkpt>
      <trkpt lat="47.8309" lon="2.27745">
        <ele>109</ele>
        <time>2017-07-23T07:20:15.127Z</time>
      </trkpt>
      <trkpt lat="47.8309" lon="2.27745">
        <ele>109</ele>
        <time>2017-07-23T07:20:16.118Z</time>
      </trkpt>
      <trkpt lat="47.83093" lon="2.27765">
        <ele>109</ele>
        <time>2017-07-23T07:20:17.121Z</time>
      </trkpt>
      <trkpt lat="47.83095" lon="2.27775">
        <ele>109</ele>
        <time>2017-07-23T07:20:18.118Z</time>
      </trkpt>
      <trkpt lat="47.83097" lon="2.27785">
        <ele>109</ele>
        <time>2017-07-23T07:20:19.124Z</time>
      </trkpt>
      <trkpt lat="47.83097" lon="2.27785">
        <ele>109</ele>
        <time>2017-07-23T07:20:20.118Z</time>
      </trkpt>
      <trkpt lat="47.83101" lon="2.27806">
        <ele>109</ele>
        <time>2017-07-23T07:20:21.119Z</time>
      </trkpt>
      <trkpt lat="47.83101" lon="2.27806">
        <ele>109</ele>
        <time>2017-07-23T07:20:22.119Z</time>
      </trkpt>
      <trkpt lat="47.83105" lon="2.27826">
        <ele>109</ele>
        <time>2017-07-23T07:20:23.121Z</time>
      </trkpt>
      <trkpt lat="47.83107" lon="2.27837">
        <ele>109</ele>
        <time>2017-07-23T07:20:24.118Z</time>
      </trkpt>
      <trkpt lat="47.83107" lon="2.27837">
        <ele>109</ele>
        <time>2017-07-23T07:20:25.116Z</time>
      </trkpt>
      <trkpt lat="47.8311" lon="2.27858">
        <ele>109</ele>
        <time>2017-07-23T07:20:26.122Z</time>
      </trkpt>
      <trkpt lat="47.8311" lon="2.27858">
        <ele>109</ele>
        <time>2017-07-23T07:20:27.128Z</time>
      </trkpt>
      <trkpt lat="47.83115" lon="2.27879">
        <ele>109</ele>
        <time>2017-07-23T07:20:28.121Z</time>
      </trkpt>
      <trkpt lat="47.83115" lon="2.27879">
        <ele>109</ele>
        <time>2017-07-23T07:20:29.118Z</time>
      </trkpt>
      <trkpt lat="47.83119" lon="2.279">
        <ele>109</ele>
        <time>2017-07-23T07:20:30.121Z</time>
      </trkpt>
      <trkpt lat="47.83121" lon="2.27911">
        <ele>109</ele>
        <time>2017-07-23T07:20:31.122Z</time>
      </trkpt>
      <trkpt lat="47.83121" lon="2.27911">
        <ele>109</ele>
        <time>2017-07-23T07:20:32.115Z</time>
      </trkpt>
      <trkpt lat="47.83124" lon="2.27931">
        <ele>109</ele>
        <time>2017-07-23T07:20:33.123Z</time>
      </trkpt>
      <trkpt lat="47.83124" lon="2.27931">
        <ele>109</ele>
        <time>2017-07-23T07:20:34.117Z</time>
      </trkpt>
      <trkpt lat="47.83127" lon="2.27953">
        <ele>108</ele>
        <time>2017-07-23T07:20:35.121Z</time>
      </trkpt>
      <trkpt lat="47.83127" lon="2.27953">
        <ele>108</ele>
        <time>2017-07-23T07:20:36.119Z</time>
      </trkpt>
      <trkpt lat="47.83129" lon="2.27974">
        <ele>108</ele>
        <time>2017-07-23T07:20:37.139Z</time>
      </trkpt>
      <trkpt lat="47.83129" lon="2.27974">
        <ele>108</ele>
        <time>2017-07-23T07:20:38.108Z</time>
      </trkpt>
      <trkpt lat="47.83131" lon="2.27997">
        <ele>108</ele>
        <time>2017-07-23T07:20:39.122Z</time>
      </trkpt>
      <trkpt lat="47.83131" lon="2.27997">
        <ele>108</ele>
        <time>2017-07-23T07:20:40.119Z</time>
      </trkpt>
      <trkpt lat="47.83133" lon="2.28019">
        <ele>108</ele>
        <time>2017-07-23T07:20:41.121Z</time>
      </trkpt>
      <trkpt lat="47.83133" lon="2.28019">
        <ele>108</ele>
        <time>2017-07-23T07:20:42.118Z</time>
      </trkpt>
      <trkpt lat="47.83135" lon="2.28041">
        <ele>108</ele>
        <time>2017-07-23T07:20:43.129Z</time>
      </trkpt>
      <trkpt lat="47.83135" lon="2.28041">
        <ele>108</ele>
        <time>2017-07-23T07:20:44.118Z</time>
      </trkpt>
      <trkpt lat="47.83136" lon="2.28062">
        <ele>108</ele>
        <time>2017-07-23T07:20:45.121Z</time>
      </trkpt>
      <trkpt lat="47.83136" lon="2.28062">
        <ele>108</ele>
        <time>2017-07-23T07:20:46.118Z</time>
      </trkpt>
      <trkpt lat="47.83138" lon="2.28083">
        <ele>108</ele>
        <time>2017-07-23T07:20:47.121Z</time>
      </trkpt>
      <trkpt lat="47.83138" lon="2.28094">
        <ele>107</ele>
        <time>2017-07-23T07:20:48.120Z</time>
      </trkpt>
      <trkpt lat="47.83139" lon="2.28104">
        <ele>107</ele>
        <time>2017-07-23T07:20:49.123Z</time>
      </trkpt>
      <trkpt lat="47.83139" lon="2.28104">
        <ele>107</ele>
        <time>2017-07-23T07:20:50.118Z</time>
      </trkpt>
      <trkpt lat="47.83139" lon="2.28125">
        <ele>107</ele>
        <time>2017-07-23T07:20:51.123Z</time>
      </trkpt>
      <trkpt lat="47.83139" lon="2.28125">
        <ele>107</ele>
        <time>2017-07-23T07:20:52.117Z</time>
      </trkpt>
      <trkpt lat="47.83139" lon="2.28145">
        <ele>107</ele>
        <time>2017-07-23T07:20:53.121Z</time>
      </trkpt>
      <trkpt lat="47.83138" lon="2.28154">
        <ele>107</ele>
        <time>2017-07-23T07:20:54.122Z</time>
      </trkpt>
      <trkpt lat="47.83138" lon="2.28154">
        <ele>107</ele>
        <time>2017-07-23T07:20:55.117Z</time>
      </trkpt>
      <trkpt lat="47.83137" lon="2.28172">
        <ele>107</ele>
        <time>2017-07-23T07:20:56.121Z</time>
      </trkpt>
      <trkpt lat="47.83137" lon="2.28181">
        <ele>107</ele>
        <time>2017-07-23T07:20:57.130Z</time>
      </trkpt>
      <trkpt lat="47.83137" lon="2.28181">
        <ele>107</ele>
        <time>2017-07-23T07:20:58.119Z</time>
      </trkpt>
      <trkpt lat="47.83135" lon="2.28194">
        <ele>107</ele>
        <time>2017-07-23T07:20:59.126Z</time>
      </trkpt>
      <trkpt lat="47.83134" lon="2.282">
        <ele>107</ele>
        <time>2017-07-23T07:21:00.122Z</time>
      </trkpt>
      <trkpt lat="47.83134" lon="2.282">
        <ele>107</ele>
        <time>2017-07-23T07:21:01.120Z</time>
      </trkpt>
      <trkpt lat="47.83134" lon="2.28209">
        <ele>107</ele>
        <time>2017-07-23T07:21:02.122Z</time>
      </trkpt>
      <trkpt lat="47.83133" lon="2.28213">
        <ele>107</ele>
        <time>2017-07-23T07:21:03.123Z</time>
      </trkpt>
      <trkpt lat="47.83133" lon="2.28213">
        <ele>107</ele>
        <time>2017-07-23T07:21:04.116Z</time>
      </trkpt>
      <trkpt lat="47.83133" lon="2.28218">
        <ele>107</ele>
        <time>2017-07-23T07:21:05.122Z</time>
      </trkpt>
      <trkpt lat="47.83133" lon="2.28218">
        <ele>107</ele>
        <time>2017-07-23T07:21:06.118Z</time>
      </trkpt>
      <trkpt lat="47.83133" lon="2.28222">
        <ele>107</ele>
        <time>2017-07-23T07:21:07.122Z</time>
      </trkpt>
      <trkpt lat="47.83133" lon="2.28222">
        <ele>107</ele>
        <time>2017-07-23T07:21:08.117Z</time>
      </trkpt>
      <trkpt lat="47.83134" lon="2.28227">
        <ele>107</ele>
        <time>2017-07-23T07:21:09.123Z</time>
      </trkpt>
      <trkpt lat="47.83134" lon="2.28227">
        <ele>107</ele>
        <time>2017-07-23T07:21:10.118Z</time>
      </trkpt>
      <trkpt lat="47.83133" lon="2.28231">
        <ele>107</ele>
        <time>2017-07-23T07:21:11.120Z</time>
      </trkpt>
      <trkpt lat="47.83133" lon="2.28231">
        <ele>107</ele>
        <time>2017-07-23T07:21:12.124Z</time>
      </trkpt>
      <trkpt lat="47.83134" lon="2.28234">
        <ele>107</ele>
        <time>2017-07-23T07:21:13.123Z</time>
      </trkpt>
      <trkpt lat="47.83134" lon="2.28234">
        <ele>107</ele>
        <time>2017-07-23T07:21:14.118Z</time>
      </trkpt>
      <trkpt lat="47.83134" lon="2.28234">
        <ele>107</ele>
        <time>2017-07-23T07:21:15.114Z</time>
      </trkpt>
      <trkpt lat="47.83134" lon="2.28234">
        <ele>107</ele>
        <time>2017-07-23T07:21:16.122Z</time>
      </trkpt>
      <trkpt lat="47.83134" lon="2.28234">
        <ele>107</ele>
        <time>2017-07-23T07:21:17.139Z</time>
      </trkpt>
      <trkpt lat="47.83134" lon="2.28234">
        <ele>107</ele>
        <time>2017-07-23T07:21:18.140Z</time>
      </trkpt>
      <trkpt lat="47.83138" lon="2.28237">
        <ele>107</ele>
        <time>2017-07-23T07:21:19.144Z</time>
      </trkpt>
      <trkpt lat="47.83138" lon="2.28237">
        <ele>107</ele>
        <time>2017-07-23T07:21:20.137Z</time>
      </trkpt>
      <trkpt lat="47.83144" lon="2.28239">
        <ele>107</ele>
        <time>2017-07-23T07:21:21.137Z</time>
      </trkpt>
      <trkpt lat="47.83146" lon="2.28238">
        <ele>107</ele>
        <time>2017-07-23T07:21:22.145Z</time>
      </trkpt>
      <trkpt lat="47.83146" lon="2.28238">
        <ele>107</ele>
        <time>2017-07-23T07:21:23.142Z</time>
      </trkpt>
      <trkpt lat="47.8315" lon="2.2823">
        <ele>107</ele>
        <time>2017-07-23T07:21:24.141Z</time>
      </trkpt>
      <trkpt lat="47.8315" lon="2.2823">
        <ele>107</ele>
        <time>2017-07-23T07:21:25.138Z</time>
      </trkpt>
      <trkpt lat="47.83153" lon="2.28222">
        <ele>106</ele>
        <time>2017-07-23T07:21:26.141Z</time>
      </trkpt>
      <trkpt lat="47.83153" lon="2.28222">
        <ele>106</ele>
        <time>2017-07-23T07:21:27.138Z</time>
      </trkpt>
      <trkpt lat="47.83159" lon="2.28218">
        <ele>106</ele>
        <time>2017-07-23T07:21:28.144Z</time>
      </trkpt>
      <trkpt lat="47.83159" lon="2.28218">
        <ele>106</ele>
        <time>2017-07-23T07:21:29.137Z</time>
      </trkpt>
      <trkpt lat="47.83161" lon="2.28225">
        <ele>106</ele>
        <time>2017-07-23T07:21:30.145Z</time>
      </trkpt>
      <trkpt lat="47.83161" lon="2.28225">
        <ele>106</ele>
        <time>2017-07-23T07:21:31.141Z</time>
      </trkpt>
      <trkpt lat="47.83157" lon="2.28236">
        <ele>105</ele>
        <time>2017-07-23T07:21:32.145Z</time>
      </trkpt>
      <trkpt lat="47.83156" lon="2.28243">
        <ele>105</ele>
        <time>2017-07-23T07:21:33.143Z</time>
      </trkpt>
      <trkpt lat="47.83154" lon="2.28252">
        <ele>105</ele>
        <time>2017-07-23T07:21:34.145Z</time>
      </trkpt>
      <trkpt lat="47.83154" lon="2.28252">
        <ele>105</ele>
        <time>2017-07-23T07:21:35.140Z</time>
      </trkpt>
      <trkpt lat="47.83151" lon="2.28273">
        <ele>104</ele>
        <time>2017-07-23T07:21:36.145Z</time>
      </trkpt>
      <trkpt lat="47.83151" lon="2.28273">
        <ele>104</ele>
        <time>2017-07-23T07:21:37.140Z</time>
      </trkpt>
      <trkpt lat="47.83149" lon="2.28297">
        <ele>104</ele>
        <time>2017-07-23T07:21:38.145Z</time>
      </trkpt>
      <trkpt lat="47.83149" lon="2.28297">
        <ele>104</ele>
        <time>2017-07-23T07:21:39.108Z</time>
      </trkpt>
      <trkpt lat="47.83145" lon="2.28322">
        <ele>103</ele>
        <time>2017-07-23T07:21:40.145Z</time>
      </trkpt>
      <trkpt lat="47.83145" lon="2.28322">
        <ele>103</ele>
        <time>2017-07-23T07:21:41.138Z</time>
      </trkpt>
      <trkpt lat="47.8314" lon="2.28347">
        <ele>103</ele>
        <time>2017-07-23T07:21:42.144Z</time>
      </trkpt>
      <trkpt lat="47.8314" lon="2.28347">
        <ele>103</ele>
        <time>2017-07-23T07:21:43.138Z</time>
      </trkpt>
      <trkpt lat="47.83136" lon="2.28372">
        <ele>103</ele>
        <time>2017-07-23T07:21:44.144Z</time>
      </trkpt>
      <trkpt lat="47.83134" lon="2.28385">
        <ele>103</ele>
        <time>2017-07-23T07:21:45.145Z</time>
      </trkpt>
      <trkpt lat="47.83132" lon="2.28397">
        <ele>103</ele>
        <time>2017-07-23T07:21:46.146Z</time>
      </trkpt>
      <trkpt lat="47.83132" lon="2.28397">
        <ele>103</ele>
        <time>2017-07-23T07:21:47.141Z</time>
      </trkpt>
      <trkpt lat="47.83128" lon="2.2842">
        <ele>102</ele>
        <time>2017-07-23T07:21:48.111Z</time>
      </trkpt>
      <trkpt lat="47.83128" lon="2.2842">
        <ele>102</ele>
        <time>2017-07-23T07:21:49.141Z</time>
      </trkpt>
      <trkpt lat="47.83123" lon="2.28442">
        <ele>102</ele>
        <time>2017-07-23T07:21:50.147Z</time>
      </trkpt>
      <trkpt lat="47.83123" lon="2.28442">
        <ele>102</ele>
        <time>2017-07-23T07:21:51.113Z</time>
      </trkpt>
      <trkpt lat="47.83118" lon="2.28465">
        <ele>102</ele>
        <time>2017-07-23T07:21:52.119Z</time>
      </trkpt>
      <trkpt lat="47.83118" lon="2.28465">
        <ele>102</ele>
        <time>2017-07-23T07:21:53.108Z</time>
      </trkpt>
      <trkpt lat="47.83112" lon="2.28487">
        <ele>102</ele>
        <time>2017-07-23T07:21:54.144Z</time>
      </trkpt>
      <trkpt lat="47.83112" lon="2.28487">
        <ele>102</ele>
        <time>2017-07-23T07:21:55.112Z</time>
      </trkpt>
      <trkpt lat="47.83107" lon="2.28507">
        <ele>103</ele>
        <time>2017-07-23T07:21:56.144Z</time>
      </trkpt>
      <trkpt lat="47.83107" lon="2.28507">
        <ele>103</ele>
        <time>2017-07-23T07:21:57.138Z</time>
      </trkpt>
      <trkpt lat="47.83105" lon="2.28526">
        <ele>103</ele>
        <time>2017-07-23T07:21:58.145Z</time>
      </trkpt>
      <trkpt lat="47.83105" lon="2.28526">
        <ele>103</ele>
        <time>2017-07-23T07:21:59.139Z</time>
      </trkpt>
      <trkpt lat="47.83108" lon="2.28545">
        <ele>104</ele>
        <time>2017-07-23T07:22:00.145Z</time>
      </trkpt>
      <trkpt lat="47.83108" lon="2.28545">
        <ele>104</ele>
        <time>2017-07-23T07:22:01.138Z</time>
      </trkpt>
      <trkpt lat="47.8311" lon="2.28564">
        <ele>103</ele>
        <time>2017-07-23T07:22:02.146Z</time>
      </trkpt>
      <trkpt lat="47.8311" lon="2.28575">
        <ele>103</ele>
        <time>2017-07-23T07:22:03.135Z</time>
      </trkpt>
      <trkpt lat="47.8311" lon="2.28575">
        <ele>103</ele>
        <time>2017-07-23T07:22:04.141Z</time>
      </trkpt>
      <trkpt lat="47.83109" lon="2.28594">
        <ele>103</ele>
        <time>2017-07-23T07:22:05.147Z</time>
      </trkpt>
      <trkpt lat="47.83109" lon="2.28594">
        <ele>103</ele>
        <time>2017-07-23T07:22:06.113Z</time>
      </trkpt>
      <trkpt lat="47.83107" lon="2.28613">
        <ele>102</ele>
        <time>2017-07-23T07:22:07.144Z</time>
      </trkpt>
      <trkpt lat="47.83107" lon="2.28613">
        <ele>102</ele>
        <time>2017-07-23T07:22:08.138Z</time>
      </trkpt>
      <trkpt lat="47.83104" lon="2.28632">
        <ele>102</ele>
        <time>2017-07-23T07:22:09.140Z</time>
      </trkpt>
      <trkpt lat="47.83102" lon="2.28641">
        <ele>102</ele>
        <time>2017-07-23T07:22:10.145Z</time>
      </trkpt>
      <trkpt lat="47.83102" lon="2.28641">
        <ele>102</ele>
        <time>2017-07-23T07:22:11.143Z</time>
      </trkpt>
      <trkpt lat="47.83098" lon="2.28659">
        <ele>102</ele>
        <time>2017-07-23T07:22:12.108Z</time>
      </trkpt>
      <trkpt lat="47.83098" lon="2.28659">
        <ele>102</ele>
        <time>2017-07-23T07:22:13.138Z</time>
      </trkpt>
      <trkpt lat="47.83092" lon="2.28675">
        <ele>103</ele>
        <time>2017-07-23T07:22:14.140Z</time>
      </trkpt>
      <trkpt lat="47.83092" lon="2.28675">
        <ele>103</ele>
        <time>2017-07-23T07:22:15.138Z</time>
      </trkpt>
      <trkpt lat="47.83086" lon="2.2869">
        <ele>104</ele>
        <time>2017-07-23T07:22:16.145Z</time>
      </trkpt>
      <trkpt lat="47.83086" lon="2.2869">
        <ele>104</ele>
        <time>2017-07-23T07:22:17.140Z</time>
      </trkpt>
      <trkpt lat="47.83081" lon="2.28705">
        <ele>104</ele>
        <time>2017-07-23T07:22:18.145Z</time>
      </trkpt>
      <trkpt lat="47.83081" lon="2.28705">
        <ele>104</ele>
        <time>2017-07-23T07:22:19.137Z</time>
      </trkpt>
      <trkpt lat="47.83079" lon="2.28722">
        <ele>104</ele>
        <time>2017-07-23T07:22:20.140Z</time>
      </trkpt>
      <trkpt lat="47.83079" lon="2.28722">
        <ele>104</ele>
        <time>2017-07-23T07:22:21.140Z</time>
      </trkpt>
      <trkpt lat="47.83081" lon="2.28738">
        <ele>104</ele>
        <time>2017-07-23T07:22:22.142Z</time>
      </trkpt>
      <trkpt lat="47.83081" lon="2.28738">
        <ele>104</ele>
        <time>2017-07-23T07:22:23.139Z</time>
      </trkpt>
      <trkpt lat="47.83085" lon="2.28752">
        <ele>104</ele>
        <time>2017-07-23T07:22:24.143Z</time>
      </trkpt>
      <trkpt lat="47.83085" lon="2.28752">
        <ele>104</ele>
        <time>2017-07-23T07:22:25.138Z</time>
      </trkpt>
      <trkpt lat="47.83091" lon="2.28766">
        <ele>105</ele>
        <time>2017-07-23T07:22:26.140Z</time>
      </trkpt>
      <trkpt lat="47.83094" lon="2.28773">
        <ele>106</ele>
        <time>2017-07-23T07:22:27.145Z</time>
      </trkpt>
      <trkpt lat="47.83097" lon="2.2878">
        <ele>106</ele>
        <time>2017-07-23T07:22:28.145Z</time>
      </trkpt>
      <trkpt lat="47.83097" lon="2.2878">
        <ele>106</ele>
        <time>2017-07-23T07:22:29.140Z</time>
      </trkpt>
      <trkpt lat="47.83105" lon="2.28793">
        <ele>106</ele>
        <time>2017-07-23T07:22:30.141Z</time>
      </trkpt>
      <trkpt lat="47.83105" lon="2.28793">
        <ele>106</ele>
        <time>2017-07-23T07:22:31.140Z</time>
      </trkpt>
      <trkpt lat="47.83111" lon="2.28808">
        <ele>106</ele>
        <time>2017-07-23T07:22:32.145Z</time>
      </trkpt>
      <trkpt lat="47.83111" lon="2.28808">
        <ele>106</ele>
        <time>2017-07-23T07:22:33.137Z</time>
      </trkpt>
      <trkpt lat="47.83114" lon="2.28826">
        <ele>106</ele>
        <time>2017-07-23T07:22:34.145Z</time>
      </trkpt>
      <trkpt lat="47.83114" lon="2.28826">
        <ele>106</ele>
        <time>2017-07-23T07:22:35.138Z</time>
      </trkpt>
      <trkpt lat="47.83113" lon="2.28845">
        <ele>106</ele>
        <time>2017-07-23T07:22:36.138Z</time>
      </trkpt>
      <trkpt lat="47.83113" lon="2.28845">
        <ele>106</ele>
        <time>2017-07-23T07:22:37.138Z</time>
      </trkpt>
      <trkpt lat="47.83111" lon="2.28864">
        <ele>106</ele>
        <time>2017-07-23T07:22:38.145Z</time>
      </trkpt>
      <trkpt lat="47.83111" lon="2.28864">
        <ele>106</ele>
        <time>2017-07-23T07:22:39.140Z</time>
      </trkpt>
      <trkpt lat="47.83108" lon="2.28882">
        <ele>106</ele>
        <time>2017-07-23T07:22:40.145Z</time>
      </trkpt>
      <trkpt lat="47.83108" lon="2.28882">
        <ele>106</ele>
        <time>2017-07-23T07:22:41.138Z</time>
      </trkpt>
      <trkpt lat="47.83104" lon="2.289">
        <ele>106</ele>
        <time>2017-07-23T07:22:42.143Z</time>
      </trkpt>
      <trkpt lat="47.83102" lon="2.28908">
        <ele>106</ele>
        <time>2017-07-23T07:22:43.143Z</time>
      </trkpt>
      <trkpt lat="47.83102" lon="2.28908">
        <ele>106</ele>
        <time>2017-07-23T07:22:44.140Z</time>
      </trkpt>
      <trkpt lat="47.83099" lon="2.28925">
        <ele>106</ele>
        <time>2017-07-23T07:22:45.143Z</time>
      </trkpt>
      <trkpt lat="47.83097" lon="2.28934">
        <ele>105</ele>
        <time>2017-07-23T07:22:46.144Z</time>
      </trkpt>
      <trkpt lat="47.83097" lon="2.28934">
        <ele>105</ele>
        <time>2017-07-23T07:22:47.140Z</time>
      </trkpt>
      <trkpt lat="47.83092" lon="2.28951">
        <ele>105</ele>
        <time>2017-07-23T07:22:48.109Z</time>
      </trkpt>
      <trkpt lat="47.83092" lon="2.28951">
        <ele>105</ele>
        <time>2017-07-23T07:22:49.140Z</time>
      </trkpt>
      <trkpt lat="47.83087" lon="2.28968">
        <ele>105</ele>
        <time>2017-07-23T07:22:50.145Z</time>
      </trkpt>
      <trkpt lat="47.83087" lon="2.28968">
        <ele>105</ele>
        <time>2017-07-23T07:22:51.134Z</time>
      </trkpt>
      <trkpt lat="47.83082" lon="2.28986">
        <ele>105</ele>
        <time>2017-07-23T07:22:52.122Z</time>
      </trkpt>
      <trkpt lat="47.83082" lon="2.28986">
        <ele>105</ele>
        <time>2017-07-23T07:22:53.111Z</time>
      </trkpt>
      <trkpt lat="47.83077" lon="2.29004">
        <ele>105</ele>
        <time>2017-07-23T07:22:54.114Z</time>
      </trkpt>
      <trkpt lat="47.83077" lon="2.29004">
        <ele>105</ele>
        <time>2017-07-23T07:22:55.144Z</time>
      </trkpt>
      <trkpt lat="47.83071" lon="2.29021">
        <ele>105</ele>
        <time>2017-07-23T07:22:56.140Z</time>
      </trkpt>
      <trkpt lat="47.83068" lon="2.2903">
        <ele>105</ele>
        <time>2017-07-23T07:22:57.145Z</time>
      </trkpt>
      <trkpt lat="47.83065" lon="2.29038">
        <ele>105</ele>
        <time>2017-07-23T07:22:58.115Z</time>
      </trkpt>
      <trkpt lat="47.83065" lon="2.29038">
        <ele>105</ele>
        <time>2017-07-23T07:22:59.109Z</time>
      </trkpt>
      <trkpt lat="47.83059" lon="2.29055">
        <ele>105</ele>
        <time>2017-07-23T07:23:00.144Z</time>
      </trkpt>
      <trkpt lat="47.83059" lon="2.29055">
        <ele>105</ele>
        <time>2017-07-23T07:23:01.141Z</time>
      </trkpt>
      <trkpt lat="47.83051" lon="2.29071">
        <ele>106</ele>
        <time>2017-07-23T07:23:02.145Z</time>
      </trkpt>
      <trkpt lat="47.83051" lon="2.29071">
        <ele>106</ele>
        <time>2017-07-23T07:23:03.147Z</time>
      </trkpt>
      <trkpt lat="47.83044" lon="2.29086">
        <ele>106</ele>
        <time>2017-07-23T07:23:04.145Z</time>
      </trkpt>
      <trkpt lat="47.83044" lon="2.29086">
        <ele>106</ele>
        <time>2017-07-23T07:23:05.138Z</time>
      </trkpt>
      <trkpt lat="47.83037" lon="2.29103">
        <ele>106</ele>
        <time>2017-07-23T07:23:06.144Z</time>
      </trkpt>
      <trkpt lat="47.83037" lon="2.29103">
        <ele>106</ele>
        <time>2017-07-23T07:23:07.141Z</time>
      </trkpt>
      <trkpt lat="47.83031" lon="2.2912">
        <ele>106</ele>
        <time>2017-07-23T07:23:08.143Z</time>
      </trkpt>
      <trkpt lat="47.83031" lon="2.2912">
        <ele>106</ele>
        <time>2017-07-23T07:23:09.138Z</time>
      </trkpt>
      <trkpt lat="47.83024" lon="2.29137">
        <ele>106</ele>
        <time>2017-07-23T07:23:10.145Z</time>
      </trkpt>
      <trkpt lat="47.83024" lon="2.29137">
        <ele>106</ele>
        <time>2017-07-23T07:23:11.141Z</time>
      </trkpt>
      <trkpt lat="47.83018" lon="2.29154">
        <ele>105</ele>
        <time>2017-07-23T07:23:12.144Z</time>
      </trkpt>
      <trkpt lat="47.83015" lon="2.29163">
        <ele>105</ele>
        <time>2017-07-23T07:23:13.140Z</time>
      </trkpt>
      <trkpt lat="47.83015" lon="2.29163">
        <ele>105</ele>
        <time>2017-07-23T07:23:14.137Z</time>
      </trkpt>
      <trkpt lat="47.83008" lon="2.29179">
        <ele>105</ele>
        <time>2017-07-23T07:23:15.143Z</time>
      </trkpt>
      <trkpt lat="47.83005" lon="2.29188">
        <ele>105</ele>
        <time>2017-07-23T07:23:16.145Z</time>
      </trkpt>
      <trkpt lat="47.83005" lon="2.29188">
        <ele>105</ele>
        <time>2017-07-23T07:23:17.138Z</time>
      </trkpt>
      <trkpt lat="47.82996" lon="2.29203">
        <ele>106</ele>
        <time>2017-07-23T07:23:18.145Z</time>
      </trkpt>
      <trkpt lat="47.82996" lon="2.29203">
        <ele>106</ele>
        <time>2017-07-23T07:23:19.139Z</time>
      </trkpt>
      <trkpt lat="47.82988" lon="2.29218">
        <ele>107</ele>
        <time>2017-07-23T07:23:20.140Z</time>
      </trkpt>
      <trkpt lat="47.82988" lon="2.29218">
        <ele>107</ele>
        <time>2017-07-23T07:23:21.133Z</time>
      </trkpt>
      <trkpt lat="47.82979" lon="2.29233">
        <ele>107</ele>
        <time>2017-07-23T07:23:22.114Z</time>
      </trkpt>
      <trkpt lat="47.82979" lon="2.29233">
        <ele>107</ele>
        <time>2017-07-23T07:23:23.143Z</time>
      </trkpt>
      <trkpt lat="47.8297" lon="2.29248">
        <ele>107</ele>
        <time>2017-07-23T07:23:24.145Z</time>
      </trkpt>
      <trkpt lat="47.8297" lon="2.29248">
        <ele>107</ele>
        <time>2017-07-23T07:23:25.138Z</time>
      </trkpt>
      <trkpt lat="47.8296" lon="2.29262">
        <ele>107</ele>
        <time>2017-07-23T07:23:26.143Z</time>
      </trkpt>
      <trkpt lat="47.82955" lon="2.29268">
        <ele>107</ele>
        <time>2017-07-23T07:23:27.144Z</time>
      </trkpt>
      <trkpt lat="47.8295" lon="2.29274">
        <ele>107</ele>
        <time>2017-07-23T07:23:28.145Z</time>
      </trkpt>
      <trkpt lat="47.8295" lon="2.29274">
        <ele>107</ele>
        <time>2017-07-23T07:23:29.139Z</time>
      </trkpt>
      <trkpt lat="47.82941" lon="2.29288">
        <ele>107</ele>
        <time>2017-07-23T07:23:30.144Z</time>
      </trkpt>
      <trkpt lat="47.82941" lon="2.29288">
        <ele>107</ele>
        <time>2017-07-23T07:23:31.141Z</time>
      </trkpt>
      <trkpt lat="47.82932" lon="2.29303">
        <ele>107</ele>
        <time>2017-07-23T07:23:32.141Z</time>
      </trkpt>
      <trkpt lat="47.82928" lon="2.29311">
        <ele>107</ele>
        <time>2017-07-23T07:23:33.140Z</time>
      </trkpt>
      <trkpt lat="47.82925" lon="2.29319">
        <ele>107</ele>
        <time>2017-07-23T07:23:34.146Z</time>
      </trkpt>
      <trkpt lat="47.82925" lon="2.29319">
        <ele>107</ele>
        <time>2017-07-23T07:23:35.139Z</time>
      </trkpt>
      <trkpt lat="47.82917" lon="2.29335">
        <ele>107</ele>
        <time>2017-07-23T07:23:36.111Z</time>
      </trkpt>
      <trkpt lat="47.82917" lon="2.29335">
        <ele>107</ele>
        <time>2017-07-23T07:23:37.141Z</time>
      </trkpt>
      <trkpt lat="47.82908" lon="2.29349">
        <ele>108</ele>
        <time>2017-07-23T07:23:38.141Z</time>
      </trkpt>
      <trkpt lat="47.82908" lon="2.29349">
        <ele>108</ele>
        <time>2017-07-23T07:23:39.140Z</time>
      </trkpt>
      <trkpt lat="47.82898" lon="2.29362">
        <ele>108</ele>
        <time>2017-07-23T07:23:40.145Z</time>
      </trkpt>
      <trkpt lat="47.82898" lon="2.29362">
        <ele>108</ele>
        <time>2017-07-23T07:23:41.138Z</time>
      </trkpt>
      <trkpt lat="47.82889" lon="2.29376">
        <ele>108</ele>
        <time>2017-07-23T07:23:42.145Z</time>
      </trkpt>
      <trkpt lat="47.82885" lon="2.29383">
        <ele>108</ele>
        <time>2017-07-23T07:23:43.145Z</time>
      </trkpt>
      <trkpt lat="47.82885" lon="2.29383">
        <ele>108</ele>
        <time>2017-07-23T07:23:44.139Z</time>
      </trkpt>
      <trkpt lat="47.82875" lon="2.29396">
        <ele>109</ele>
        <time>2017-07-23T07:23:45.140Z</time>
      </trkpt>
      <trkpt lat="47.82871" lon="2.29403">
        <ele>109</ele>
        <time>2017-07-23T07:23:46.145Z</time>
      </trkpt>
      <trkpt lat="47.82871" lon="2.29403">
        <ele>109</ele>
        <time>2017-07-23T07:23:47.138Z</time>
      </trkpt>
      <trkpt lat="47.82862" lon="2.29417">
        <ele>109</ele>
        <time>2017-07-23T07:23:48.144Z</time>
      </trkpt>
      <trkpt lat="47.82862" lon="2.29417">
        <ele>109</ele>
        <time>2017-07-23T07:23:49.137Z</time>
      </trkpt>
      <trkpt lat="47.82852" lon="2.2943">
        <ele>110</ele>
        <time>2017-07-23T07:23:50.145Z</time>
      </trkpt>
      <trkpt lat="47.82852" lon="2.2943">
        <ele>110</ele>
        <time>2017-07-23T07:23:51.138Z</time>
      </trkpt>
      <trkpt lat="47.82842" lon="2.29443">
        <ele>110</ele>
        <time>2017-07-23T07:23:52.119Z</time>
      </trkpt>
      <trkpt lat="47.82842" lon="2.29443">
        <ele>110</ele>
        <time>2017-07-23T07:23:53.108Z</time>
      </trkpt>
      <trkpt lat="47.82832" lon="2.29456">
        <ele>109</ele>
        <time>2017-07-23T07:23:54.117Z</time>
      </trkpt>
      <trkpt lat="47.82832" lon="2.29456">
        <ele>109</ele>
        <time>2017-07-23T07:23:55.146Z</time>
      </trkpt>
      <trkpt lat="47.82823" lon="2.2947">
        <ele>109</ele>
        <time>2017-07-23T07:23:56.141Z</time>
      </trkpt>
      <trkpt lat="47.82823" lon="2.2947">
        <ele>109</ele>
        <time>2017-07-23T07:23:57.138Z</time>
      </trkpt>
      <trkpt lat="47.82814" lon="2.29484">
        <ele>109</ele>
        <time>2017-07-23T07:23:58.144Z</time>
      </trkpt>
      <trkpt lat="47.82814" lon="2.29484">
        <ele>109</ele>
        <time>2017-07-23T07:23:59.139Z</time>
      </trkpt>
      <trkpt lat="47.82804" lon="2.29499">
        <ele>109</ele>
        <time>2017-07-23T07:24:00.145Z</time>
      </trkpt>
      <trkpt lat="47.82804" lon="2.29499">
        <ele>109</ele>
        <time>2017-07-23T07:24:01.120Z</time>
      </trkpt>
      <trkpt lat="47.82796" lon="2.29513">
        <ele>109</ele>
        <time>2017-07-23T07:24:02.118Z</time>
      </trkpt>
      <trkpt lat="47.82791" lon="2.2952">
        <ele>109</ele>
        <time>2017-07-23T07:24:03.109Z</time>
      </trkpt>
      <trkpt lat="47.82787" lon="2.29526">
        <ele>109</ele>
        <time>2017-07-23T07:24:04.144Z</time>
      </trkpt>
      <trkpt lat="47.82787" lon="2.29526">
        <ele>109</ele>
        <time>2017-07-23T07:24:05.139Z</time>
      </trkpt>
      <trkpt lat="47.82779" lon="2.29541">
        <ele>109</ele>
        <time>2017-07-23T07:24:06.142Z</time>
      </trkpt>
      <trkpt lat="47.82779" lon="2.29541">
        <ele>109</ele>
        <time>2017-07-23T07:24:07.138Z</time>
      </trkpt>
      <trkpt lat="47.82771" lon="2.29556">
        <ele>109</ele>
        <time>2017-07-23T07:24:08.143Z</time>
      </trkpt>
      <trkpt lat="47.82771" lon="2.29556">
        <ele>109</ele>
        <time>2017-07-23T07:24:09.138Z</time>
      </trkpt>
      <trkpt lat="47.82764" lon="2.29571">
        <ele>109</ele>
        <time>2017-07-23T07:24:10.146Z</time>
      </trkpt>
      <trkpt lat="47.82764" lon="2.29571">
        <ele>109</ele>
        <time>2017-07-23T07:24:11.116Z</time>
      </trkpt>
      <trkpt lat="47.82755" lon="2.29585">
        <ele>109</ele>
        <time>2017-07-23T07:24:12.145Z</time>
      </trkpt>
      <trkpt lat="47.82755" lon="2.29585">
        <ele>109</ele>
        <time>2017-07-23T07:24:13.138Z</time>
      </trkpt>
      <trkpt lat="47.82745" lon="2.296">
        <ele>109</ele>
        <time>2017-07-23T07:24:14.145Z</time>
      </trkpt>
      <trkpt lat="47.82745" lon="2.296">
        <ele>109</ele>
        <time>2017-07-23T07:24:15.138Z</time>
      </trkpt>
      <trkpt lat="47.82737" lon="2.29616">
        <ele>108</ele>
        <time>2017-07-23T07:24:16.145Z</time>
      </trkpt>
      <trkpt lat="47.82737" lon="2.29616">
        <ele>108</ele>
        <time>2017-07-23T07:24:17.139Z</time>
      </trkpt>
      <trkpt lat="47.82728" lon="2.29632">
        <ele>108</ele>
        <time>2017-07-23T07:24:18.145Z</time>
      </trkpt>
      <trkpt lat="47.82728" lon="2.29632">
        <ele>108</ele>
        <time>2017-07-23T07:24:19.140Z</time>
      </trkpt>
      <trkpt lat="47.82719" lon="2.29646">
        <ele>108</ele>
        <time>2017-07-23T07:24:20.141Z</time>
      </trkpt>
      <trkpt lat="47.82719" lon="2.29646">
        <ele>108</ele>
        <time>2017-07-23T07:24:21.140Z</time>
      </trkpt>
      <trkpt lat="47.8271" lon="2.2966">
        <ele>108</ele>
        <time>2017-07-23T07:24:22.122Z</time>
      </trkpt>
      <trkpt lat="47.82705" lon="2.29666">
        <ele>108</ele>
        <time>2017-07-23T07:24:23.118Z</time>
      </trkpt>
      <trkpt lat="47.82705" lon="2.29666">
        <ele>108</ele>
        <time>2017-07-23T07:24:24.147Z</time>
      </trkpt>
      <trkpt lat="47.82696" lon="2.29679">
        <ele>108</ele>
        <time>2017-07-23T07:24:25.145Z</time>
      </trkpt>
      <trkpt lat="47.82696" lon="2.29679">
        <ele>108</ele>
        <time>2017-07-23T07:24:26.111Z</time>
      </trkpt>
      <trkpt lat="47.82685" lon="2.29691">
        <ele>109</ele>
        <time>2017-07-23T07:24:27.146Z</time>
      </trkpt>
      <trkpt lat="47.8268" lon="2.29697">
        <ele>109</ele>
        <time>2017-07-23T07:24:28.146Z</time>
      </trkpt>
      <trkpt lat="47.8268" lon="2.29697">
        <ele>109</ele>
        <time>2017-07-23T07:24:29.139Z</time>
      </trkpt>
      <trkpt lat="47.82669" lon="2.29709">
        <ele>109</ele>
        <time>2017-07-23T07:24:30.145Z</time>
      </trkpt>
      <trkpt lat="47.82669" lon="2.29709">
        <ele>109</ele>
        <time>2017-07-23T07:24:31.137Z</time>
      </trkpt>
      <trkpt lat="47.82657" lon="2.2972">
        <ele>109</ele>
        <time>2017-07-23T07:24:32.125Z</time>
      </trkpt>
      <trkpt lat="47.82657" lon="2.2972">
        <ele>109</ele>
        <time>2017-07-23T07:24:33.115Z</time>
      </trkpt>
      <trkpt lat="47.82646" lon="2.2973">
        <ele>110</ele>
        <time>2017-07-23T07:24:34.145Z</time>
      </trkpt>
      <trkpt lat="47.82646" lon="2.2973">
        <ele>110</ele>
        <time>2017-07-23T07:24:35.138Z</time>
      </trkpt>
      <trkpt lat="47.82633" lon="2.29737">
        <ele>110</ele>
        <time>2017-07-23T07:24:36.144Z</time>
      </trkpt>
      <trkpt lat="47.82633" lon="2.29737">
        <ele>110</ele>
        <time>2017-07-23T07:24:37.138Z</time>
      </trkpt>
      <trkpt lat="47.82621" lon="2.29745">
        <ele>110</ele>
        <time>2017-07-23T07:24:38.145Z</time>
      </trkpt>
      <trkpt lat="47.82615" lon="2.29749">
        <ele>110</ele>
        <time>2017-07-23T07:24:39.110Z</time>
      </trkpt>
      <trkpt lat="47.82609" lon="2.29753">
        <ele>109</ele>
        <time>2017-07-23T07:24:40.143Z</time>
      </trkpt>
      <trkpt lat="47.82609" lon="2.29753">
        <ele>109</ele>
        <time>2017-07-23T07:24:41.139Z</time>
      </trkpt>
      <trkpt lat="47.82597" lon="2.29759">
        <ele>109</ele>
        <time>2017-07-23T07:24:42.137Z</time>
      </trkpt>
      <trkpt lat="47.82592" lon="2.29763">
        <ele>109</ele>
        <time>2017-07-23T07:24:43.145Z</time>
      </trkpt>
      <trkpt lat="47.82592" lon="2.29763">
        <ele>109</ele>
        <time>2017-07-23T07:24:44.139Z</time>
      </trkpt>
      <trkpt lat="47.82581" lon="2.2977">
        <ele>110</ele>
        <time>2017-07-23T07:24:45.145Z</time>
      </trkpt>
      <trkpt lat="47.82575" lon="2.29773">
        <ele>110</ele>
        <time>2017-07-23T07:24:46.145Z</time>
      </trkpt>
      <trkpt lat="47.82575" lon="2.29773">
        <ele>110</ele>
        <time>2017-07-23T07:24:47.140Z</time>
      </trkpt>
      <trkpt lat="47.82564" lon="2.29778">
        <ele>109</ele>
        <time>2017-07-23T07:24:48.145Z</time>
      </trkpt>
      <trkpt lat="47.82564" lon="2.29778">
        <ele>109</ele>
        <time>2017-07-23T07:24:49.139Z</time>
      </trkpt>
      <trkpt lat="47.82552" lon="2.29783">
        <ele>108</ele>
        <time>2017-07-23T07:24:50.145Z</time>
      </trkpt>
      <trkpt lat="47.82552" lon="2.29783">
        <ele>108</ele>
        <time>2017-07-23T07:24:51.138Z</time>
      </trkpt>
      <trkpt lat="47.8254" lon="2.29789">
        <ele>107</ele>
        <time>2017-07-23T07:24:52.137Z</time>
      </trkpt>
      <trkpt lat="47.82534" lon="2.29791">
        <ele>107</ele>
        <time>2017-07-23T07:24:53.145Z</time>
      </trkpt>
      <trkpt lat="47.82527" lon="2.29793">
        <ele>106</ele>
        <time>2017-07-23T07:24:54.144Z</time>
      </trkpt>
      <trkpt lat="47.82521" lon="2.29795">
        <ele>106</ele>
        <time>2017-07-23T07:24:55.134Z</time>
      </trkpt>
      <trkpt lat="47.82521" lon="2.29795">
        <ele>106</ele>
        <time>2017-07-23T07:24:56.143Z</time>
      </trkpt>
      <trkpt lat="47.82508" lon="2.29799">
        <ele>106</ele>
        <time>2017-07-23T07:24:57.141Z</time>
      </trkpt>
      <trkpt lat="47.82502" lon="2.29801">
        <ele>105</ele>
        <time>2017-07-23T07:24:58.145Z</time>
      </trkpt>
      <trkpt lat="47.82502" lon="2.29801">
        <ele>105</ele>
        <time>2017-07-23T07:24:59.138Z</time>
      </trkpt>
      <trkpt lat="47.82489" lon="2.29804">
        <ele>105</ele>
        <time>2017-07-23T07:25:00.111Z</time>
      </trkpt>
      <trkpt lat="47.82489" lon="2.29804">
        <ele>105</ele>
        <time>2017-07-23T07:25:01.141Z</time>
      </trkpt>
      <trkpt lat="47.82476" lon="2.29806">
        <ele>104</ele>
        <time>2017-07-23T07:25:02.109Z</time>
      </trkpt>
      <trkpt lat="47.82476" lon="2.29806">
        <ele>104</ele>
        <time>2017-07-23T07:25:03.139Z</time>
      </trkpt>
      <trkpt lat="47.82464" lon="2.29808">
        <ele>104</ele>
        <time>2017-07-23T07:25:04.145Z</time>
      </trkpt>
      <trkpt lat="47.82464" lon="2.29808">
        <ele>104</ele>
        <time>2017-07-23T07:25:05.138Z</time>
      </trkpt>
      <trkpt lat="47.82451" lon="2.29807">
        <ele>103</ele>
        <time>2017-07-23T07:25:06.144Z</time>
      </trkpt>
      <trkpt lat="47.82451" lon="2.29807">
        <ele>103</ele>
        <time>2017-07-23T07:25:07.139Z</time>
      </trkpt>
      <trkpt lat="47.82439" lon="2.29805">
        <ele>103</ele>
        <time>2017-07-23T07:25:08.143Z</time>
      </trkpt>
      <trkpt lat="47.82433" lon="2.29805">
        <ele>103</ele>
        <time>2017-07-23T07:25:09.138Z</time>
      </trkpt>
      <trkpt lat="47.82427" lon="2.29804">
        <ele>103</ele>
        <time>2017-07-23T07:25:10.145Z</time>
      </trkpt>
      <trkpt lat="47.82427" lon="2.29804">
        <ele>103</ele>
        <time>2017-07-23T07:25:11.115Z</time>
      </trkpt>
      <trkpt lat="47.82414" lon="2.29801">
        <ele>103</ele>
        <time>2017-07-23T07:25:12.145Z</time>
      </trkpt>
      <trkpt lat="47.82414" lon="2.29801">
        <ele>103</ele>
        <time>2017-07-23T07:25:13.138Z</time>
      </trkpt>
      <trkpt lat="47.82401" lon="2.29798">
        <ele>103</ele>
        <time>2017-07-23T07:25:14.146Z</time>
      </trkpt>
      <trkpt lat="47.82401" lon="2.29798">
        <ele>103</ele>
        <time>2017-07-23T07:25:15.139Z</time>
      </trkpt>
      <trkpt lat="47.82388" lon="2.29795">
        <ele>103</ele>
        <time>2017-07-23T07:25:16.146Z</time>
      </trkpt>
      <trkpt lat="47.82388" lon="2.29795">
        <ele>103</ele>
        <time>2017-07-23T07:25:17.139Z</time>
      </trkpt>
      <trkpt lat="47.82376" lon="2.29793">
        <ele>104</ele>
        <time>2017-07-23T07:25:18.145Z</time>
      </trkpt>
      <trkpt lat="47.82376" lon="2.29793">
        <ele>104</ele>
        <time>2017-07-23T07:25:19.139Z</time>
      </trkpt>
      <trkpt lat="47.82362" lon="2.29793">
        <ele>103</ele>
        <time>2017-07-23T07:25:20.143Z</time>
      </trkpt>
      <trkpt lat="47.82362" lon="2.29793">
        <ele>103</ele>
        <time>2017-07-23T07:25:21.139Z</time>
      </trkpt>
      <trkpt lat="47.8235" lon="2.29796">
        <ele>104</ele>
        <time>2017-07-23T07:25:22.147Z</time>
      </trkpt>
      <trkpt lat="47.8235" lon="2.29796">
        <ele>104</ele>
        <time>2017-07-23T07:25:23.138Z</time>
      </trkpt>
      <trkpt lat="47.82337" lon="2.29802">
        <ele>104</ele>
        <time>2017-07-23T07:25:24.142Z</time>
      </trkpt>
      <trkpt lat="47.82337" lon="2.29802">
        <ele>104</ele>
        <time>2017-07-23T07:25:25.139Z</time>
      </trkpt>
      <trkpt lat="47.82324" lon="2.29808">
        <ele>104</ele>
        <time>2017-07-23T07:25:26.145Z</time>
      </trkpt>
      <trkpt lat="47.82324" lon="2.29808">
        <ele>104</ele>
        <time>2017-07-23T07:25:27.138Z</time>
      </trkpt>
      <trkpt lat="47.82311" lon="2.29814">
        <ele>104</ele>
        <time>2017-07-23T07:25:28.146Z</time>
      </trkpt>
      <trkpt lat="47.82311" lon="2.29814">
        <ele>104</ele>
        <time>2017-07-23T07:25:29.139Z</time>
      </trkpt>
      <trkpt lat="47.82299" lon="2.29819">
        <ele>104</ele>
        <time>2017-07-23T07:25:30.144Z</time>
      </trkpt>
      <trkpt lat="47.82299" lon="2.29819">
        <ele>104</ele>
        <time>2017-07-23T07:25:31.138Z</time>
      </trkpt>
      <trkpt lat="47.82286" lon="2.29822">
        <ele>104</ele>
        <time>2017-07-23T07:25:32.146Z</time>
      </trkpt>
      <trkpt lat="47.82286" lon="2.29822">
        <ele>104</ele>
        <time>2017-07-23T07:25:33.139Z</time>
      </trkpt>
      <trkpt lat="47.82272" lon="2.29824">
        <ele>104</ele>
        <time>2017-07-23T07:25:34.146Z</time>
      </trkpt>
      <trkpt lat="47.82272" lon="2.29824">
        <ele>104</ele>
        <time>2017-07-23T07:25:35.139Z</time>
      </trkpt>
      <trkpt lat="47.82259" lon="2.29825">
        <ele>104</ele>
        <time>2017-07-23T07:25:36.145Z</time>
      </trkpt>
      <trkpt lat="47.82259" lon="2.29825">
        <ele>104</ele>
        <time>2017-07-23T07:25:37.138Z</time>
      </trkpt>
      <trkpt lat="47.82245" lon="2.29828">
        <ele>103</ele>
        <time>2017-07-23T07:25:38.117Z</time>
      </trkpt>
      <trkpt lat="47.82245" lon="2.29828">
        <ele>103</ele>
        <time>2017-07-23T07:25:39.140Z</time>
      </trkpt>
      <trkpt lat="47.82231" lon="2.29833">
        <ele>103</ele>
        <time>2017-07-23T07:25:40.146Z</time>
      </trkpt>
      <trkpt lat="47.82231" lon="2.29833">
        <ele>103</ele>
        <time>2017-07-23T07:25:41.139Z</time>
      </trkpt>
      <trkpt lat="47.82219" lon="2.29839">
        <ele>104</ele>
        <time>2017-07-23T07:25:42.145Z</time>
      </trkpt>
      <trkpt lat="47.82219" lon="2.29839">
        <ele>104</ele>
        <time>2017-07-23T07:25:43.140Z</time>
      </trkpt>
      <trkpt lat="47.82206" lon="2.29846">
        <ele>104</ele>
        <time>2017-07-23T07:25:44.145Z</time>
      </trkpt>
      <trkpt lat="47.82206" lon="2.29846">
        <ele>104</ele>
        <time>2017-07-23T07:25:45.138Z</time>
      </trkpt>
      <trkpt lat="47.82195" lon="2.29851">
        <ele>104</ele>
        <time>2017-07-23T07:25:46.146Z</time>
      </trkpt>
      <trkpt lat="47.82195" lon="2.29851">
        <ele>104</ele>
        <time>2017-07-23T07:25:47.140Z</time>
      </trkpt>
      <trkpt lat="47.82185" lon="2.29856">
        <ele>104</ele>
        <time>2017-07-23T07:25:48.145Z</time>
      </trkpt>
      <trkpt lat="47.82185" lon="2.29856">
        <ele>104</ele>
        <time>2017-07-23T07:25:49.140Z</time>
      </trkpt>
      <trkpt lat="47.82175" lon="2.29861">
        <ele>103</ele>
        <time>2017-07-23T07:25:50.141Z</time>
      </trkpt>
      <trkpt lat="47.82175" lon="2.29861">
        <ele>103</ele>
        <time>2017-07-23T07:25:51.138Z</time>
      </trkpt>
      <trkpt lat="47.82165" lon="2.29865">
        <ele>103</ele>
        <time>2017-07-23T07:25:52.131Z</time>
      </trkpt>
      <trkpt lat="47.82165" lon="2.29865">
        <ele>103</ele>
        <time>2017-07-23T07:25:53.124Z</time>
      </trkpt>
      <trkpt lat="47.82155" lon="2.2987">
        <ele>103</ele>
        <time>2017-07-23T07:25:54.113Z</time>
      </trkpt>
      <trkpt lat="47.82155" lon="2.2987">
        <ele>103</ele>
        <time>2017-07-23T07:25:55.142Z</time>
      </trkpt>
      <trkpt lat="47.82148" lon="2.29877">
        <ele>103</ele>
        <time>2017-07-23T07:25:56.143Z</time>
      </trkpt>
      <trkpt lat="47.82148" lon="2.29877">
        <ele>103</ele>
        <time>2017-07-23T07:25:57.139Z</time>
      </trkpt>
      <trkpt lat="47.82139" lon="2.29882">
        <ele>103</ele>
        <time>2017-07-23T07:25:58.145Z</time>
      </trkpt>
      <trkpt lat="47.82139" lon="2.29882">
        <ele>103</ele>
        <time>2017-07-23T07:25:59.139Z</time>
      </trkpt>
      <trkpt lat="47.82129" lon="2.29885">
        <ele>103</ele>
        <time>2017-07-23T07:26:00.145Z</time>
      </trkpt>
      <trkpt lat="47.82129" lon="2.29885">
        <ele>103</ele>
        <time>2017-07-23T07:26:01.136Z</time>
      </trkpt>
      <trkpt lat="47.82119" lon="2.29889">
        <ele>103</ele>
        <time>2017-07-23T07:26:02.144Z</time>
      </trkpt>
      <trkpt lat="47.82119" lon="2.29889">
        <ele>103</ele>
        <time>2017-07-23T07:26:03.140Z</time>
      </trkpt>
      <trkpt lat="47.82109" lon="2.29894">
        <ele>103</ele>
        <time>2017-07-23T07:26:04.143Z</time>
      </trkpt>
      <trkpt lat="47.82109" lon="2.29894">
        <ele>103</ele>
        <time>2017-07-23T07:26:05.141Z</time>
      </trkpt>
      <trkpt lat="47.82098" lon="2.29898">
        <ele>103</ele>
        <time>2017-07-23T07:26:06.145Z</time>
      </trkpt>
      <trkpt lat="47.82098" lon="2.29898">
        <ele>103</ele>
        <time>2017-07-23T07:26:07.138Z</time>
      </trkpt>
      <trkpt lat="47.82088" lon="2.29903">
        <ele>104</ele>
        <time>2017-07-23T07:26:08.144Z</time>
      </trkpt>
      <trkpt lat="47.82088" lon="2.29903">
        <ele>104</ele>
        <time>2017-07-23T07:26:09.139Z</time>
      </trkpt>
      <trkpt lat="47.82077" lon="2.29908">
        <ele>104</ele>
        <time>2017-07-23T07:26:10.145Z</time>
      </trkpt>
      <trkpt lat="47.82077" lon="2.29908">
        <ele>104</ele>
        <time>2017-07-23T07:26:11.121Z</time>
      </trkpt>
      <trkpt lat="47.82065" lon="2.29913">
        <ele>104</ele>
        <time>2017-07-23T07:26:12.114Z</time>
      </trkpt>
      <trkpt lat="47.82065" lon="2.29913">
        <ele>104</ele>
        <time>2017-07-23T07:26:13.144Z</time>
      </trkpt>
      <trkpt lat="47.82054" lon="2.29918">
        <ele>104</ele>
        <time>2017-07-23T07:26:14.144Z</time>
      </trkpt>
      <trkpt lat="47.82054" lon="2.29918">
        <ele>104</ele>
        <time>2017-07-23T07:26:15.142Z</time>
      </trkpt>
      <trkpt lat="47.82042" lon="2.29924">
        <ele>104</ele>
        <time>2017-07-23T07:26:16.110Z</time>
      </trkpt>
      <trkpt lat="47.82042" lon="2.29924">
        <ele>104</ele>
        <time>2017-07-23T07:26:17.141Z</time>
      </trkpt>
      <trkpt lat="47.8203" lon="2.29929">
        <ele>104</ele>
        <time>2017-07-23T07:26:18.144Z</time>
      </trkpt>
      <trkpt lat="47.8203" lon="2.29929">
        <ele>104</ele>
        <time>2017-07-23T07:26:19.138Z</time>
      </trkpt>
      <trkpt lat="47.82018" lon="2.29935">
        <ele>105</ele>
        <time>2017-07-23T07:26:20.145Z</time>
      </trkpt>
      <trkpt lat="47.82018" lon="2.29935">
        <ele>105</ele>
        <time>2017-07-23T07:26:21.140Z</time>
      </trkpt>
      <trkpt lat="47.82005" lon="2.29941">
        <ele>105</ele>
        <time>2017-07-23T07:26:22.125Z</time>
      </trkpt>
      <trkpt lat="47.82005" lon="2.29941">
        <ele>105</ele>
        <time>2017-07-23T07:26:23.114Z</time>
      </trkpt>
      <trkpt lat="47.81993" lon="2.29947">
        <ele>105</ele>
        <time>2017-07-23T07:26:24.144Z</time>
      </trkpt>
      <trkpt lat="47.81993" lon="2.29947">
        <ele>105</ele>
        <time>2017-07-23T07:26:25.140Z</time>
      </trkpt>
      <trkpt lat="47.8198" lon="2.29953">
        <ele>105</ele>
        <time>2017-07-23T07:26:26.146Z</time>
      </trkpt>
      <trkpt lat="47.81974" lon="2.29956">
        <ele>105</ele>
        <time>2017-07-23T07:26:27.145Z</time>
      </trkpt>
      <trkpt lat="47.81974" lon="2.29956">
        <ele>105</ele>
        <time>2017-07-23T07:26:28.140Z</time>
      </trkpt>
      <trkpt lat="47.81962" lon="2.29962">
        <ele>105</ele>
        <time>2017-07-23T07:26:29.144Z</time>
      </trkpt>
      <trkpt lat="47.81962" lon="2.29962">
        <ele>105</ele>
        <time>2017-07-23T07:26:30.142Z</time>
      </trkpt>
      <trkpt lat="47.8195" lon="2.29968">
        <ele>105</ele>
        <time>2017-07-23T07:26:31.141Z</time>
      </trkpt>
      <trkpt lat="47.81944" lon="2.29972">
        <ele>105</ele>
        <time>2017-07-23T07:26:32.146Z</time>
      </trkpt>
      <trkpt lat="47.81944" lon="2.29972">
        <ele>105</ele>
        <time>2017-07-23T07:26:33.138Z</time>
      </trkpt>
      <trkpt lat="47.81932" lon="2.29978">
        <ele>105</ele>
        <time>2017-07-23T07:26:34.146Z</time>
      </trkpt>
      <trkpt lat="47.81932" lon="2.29978">
        <ele>105</ele>
        <time>2017-07-23T07:26:35.139Z</time>
      </trkpt>
      <trkpt lat="47.8192" lon="2.29984">
        <ele>105</ele>
        <time>2017-07-23T07:26:36.145Z</time>
      </trkpt>
      <trkpt lat="47.8192" lon="2.29984">
        <ele>105</ele>
        <time>2017-07-23T07:26:37.139Z</time>
      </trkpt>
      <trkpt lat="47.81908" lon="2.29991">
        <ele>105</ele>
        <time>2017-07-23T07:26:38.179Z</time>
      </trkpt>
      <trkpt lat="47.81908" lon="2.29991">
        <ele>105</ele>
        <time>2017-07-23T07:26:39.115Z</time>
      </trkpt>
      <trkpt lat="47.81896" lon="2.29997">
        <ele>105</ele>
        <time>2017-07-23T07:26:40.146Z</time>
      </trkpt>
      <trkpt lat="47.81896" lon="2.29997">
        <ele>105</ele>
        <time>2017-07-23T07:26:41.139Z</time>
      </trkpt>
      <trkpt lat="47.81884" lon="2.30004">
        <ele>105</ele>
        <time>2017-07-23T07:26:42.146Z</time>
      </trkpt>
      <trkpt lat="47.81884" lon="2.30004">
        <ele>105</ele>
        <time>2017-07-23T07:26:43.137Z</time>
      </trkpt>
      <trkpt lat="47.81872" lon="2.30011">
        <ele>105</ele>
        <time>2017-07-23T07:26:44.145Z</time>
      </trkpt>
      <trkpt lat="47.81872" lon="2.30011">
        <ele>105</ele>
        <time>2017-07-23T07:26:45.139Z</time>
      </trkpt>
      <trkpt lat="47.81859" lon="2.30018">
        <ele>105</ele>
        <time>2017-07-23T07:26:46.146Z</time>
      </trkpt>
      <trkpt lat="47.81859" lon="2.30018">
        <ele>105</ele>
        <time>2017-07-23T07:26:47.112Z</time>
      </trkpt>
      <trkpt lat="47.81847" lon="2.30025">
        <ele>104</ele>
        <time>2017-07-23T07:26:48.118Z</time>
      </trkpt>
      <trkpt lat="47.81847" lon="2.30025">
        <ele>104</ele>
        <time>2017-07-23T07:26:49.118Z</time>
      </trkpt>
      <trkpt lat="47.81835" lon="2.30031">
        <ele>105</ele>
        <time>2017-07-23T07:26:50.147Z</time>
      </trkpt>
      <trkpt lat="47.81835" lon="2.30031">
        <ele>105</ele>
        <time>2017-07-23T07:26:51.139Z</time>
      </trkpt>
      <trkpt lat="47.81824" lon="2.30036">
        <ele>104</ele>
        <time>2017-07-23T07:26:52.146Z</time>
      </trkpt>
      <trkpt lat="47.81824" lon="2.30036">
        <ele>104</ele>
        <time>2017-07-23T07:26:53.112Z</time>
      </trkpt>
      <trkpt lat="47.81812" lon="2.30041">
        <ele>104</ele>
        <time>2017-07-23T07:26:54.144Z</time>
      </trkpt>
      <trkpt lat="47.81812" lon="2.30041">
        <ele>104</ele>
        <time>2017-07-23T07:26:55.138Z</time>
      </trkpt>
      <trkpt lat="47.81799" lon="2.30043">
        <ele>104</ele>
        <time>2017-07-23T07:26:56.143Z</time>
      </trkpt>
      <trkpt lat="47.81799" lon="2.30043">
        <ele>104</ele>
        <time>2017-07-23T07:26:57.138Z</time>
      </trkpt>
      <trkpt lat="47.81787" lon="2.30044">
        <ele>104</ele>
        <time>2017-07-23T07:26:58.146Z</time>
      </trkpt>
      <trkpt lat="47.81787" lon="2.30044">
        <ele>104</ele>
        <time>2017-07-23T07:26:59.139Z</time>
      </trkpt>
      <trkpt lat="47.81774" lon="2.30046">
        <ele>104</ele>
        <time>2017-07-23T07:27:00.147Z</time>
      </trkpt>
      <trkpt lat="47.81774" lon="2.30046">
        <ele>104</ele>
        <time>2017-07-23T07:27:01.138Z</time>
      </trkpt>
      <trkpt lat="47.81761" lon="2.30047">
        <ele>105</ele>
        <time>2017-07-23T07:27:02.145Z</time>
      </trkpt>
      <trkpt lat="47.81754" lon="2.30046">
        <ele>106</ele>
        <time>2017-07-23T07:27:03.145Z</time>
      </trkpt>
      <trkpt lat="47.81748" lon="2.30044">
        <ele>106</ele>
        <time>2017-07-23T07:27:04.146Z</time>
      </trkpt>
      <trkpt lat="47.81748" lon="2.30044">
        <ele>106</ele>
        <time>2017-07-23T07:27:05.138Z</time>
      </trkpt>
      <trkpt lat="47.81735" lon="2.30041">
        <ele>107</ele>
        <time>2017-07-23T07:27:06.145Z</time>
      </trkpt>
      <trkpt lat="47.81735" lon="2.30041">
        <ele>107</ele>
        <time>2017-07-23T07:27:07.139Z</time>
      </trkpt>
      <trkpt lat="47.81721" lon="2.30041">
        <ele>107</ele>
        <time>2017-07-23T07:27:08.146Z</time>
      </trkpt>
      <trkpt lat="47.81721" lon="2.30041">
        <ele>107</ele>
        <time>2017-07-23T07:27:09.139Z</time>
      </trkpt>
      <trkpt lat="47.81708" lon="2.3004">
        <ele>107</ele>
        <time>2017-07-23T07:27:10.146Z</time>
      </trkpt>
      <trkpt lat="47.81708" lon="2.3004">
        <ele>107</ele>
        <time>2017-07-23T07:27:11.136Z</time>
      </trkpt>
      <trkpt lat="47.81694" lon="2.30039">
        <ele>108</ele>
        <time>2017-07-23T07:27:12.144Z</time>
      </trkpt>
      <trkpt lat="47.81694" lon="2.30039">
        <ele>108</ele>
        <time>2017-07-23T07:27:13.139Z</time>
      </trkpt>
      <trkpt lat="47.81681" lon="2.30039">
        <ele>108</ele>
        <time>2017-07-23T07:27:14.143Z</time>
      </trkpt>
      <trkpt lat="47.81674" lon="2.30038">
        <ele>107</ele>
        <time>2017-07-23T07:27:15.145Z</time>
      </trkpt>
      <trkpt lat="47.81667" lon="2.30037">
        <ele>107</ele>
        <time>2017-07-23T07:27:16.146Z</time>
      </trkpt>
      <trkpt lat="47.81667" lon="2.30037">
        <ele>107</ele>
        <time>2017-07-23T07:27:17.139Z</time>
      </trkpt>
      <trkpt lat="47.81653" lon="2.30036">
        <ele>107</ele>
        <time>2017-07-23T07:27:18.145Z</time>
      </trkpt>
      <trkpt lat="47.81653" lon="2.30036">
        <ele>107</ele>
        <time>2017-07-23T07:27:19.131Z</time>
      </trkpt>
      <trkpt lat="47.81641" lon="2.30035">
        <ele>106</ele>
        <time>2017-07-23T07:27:20.121Z</time>
      </trkpt>
      <trkpt lat="47.81641" lon="2.30035">
        <ele>106</ele>
        <time>2017-07-23T07:27:21.122Z</time>
      </trkpt>
      <trkpt lat="47.81629" lon="2.30034">
        <ele>106</ele>
        <time>2017-07-23T07:27:22.108Z</time>
      </trkpt>
      <trkpt lat="47.81629" lon="2.30034">
        <ele>106</ele>
        <time>2017-07-23T07:27:23.141Z</time>
      </trkpt>
      <trkpt lat="47.81617" lon="2.30034">
        <ele>106</ele>
        <time>2017-07-23T07:27:24.108Z</time>
      </trkpt>
      <trkpt lat="47.81617" lon="2.30034">
        <ele>106</ele>
        <time>2017-07-23T07:27:25.141Z</time>
      </trkpt>
      <trkpt lat="47.81607" lon="2.30034">
        <ele>105</ele>
        <time>2017-07-23T07:27:26.143Z</time>
      </trkpt>
      <trkpt lat="47.81607" lon="2.30034">
        <ele>105</ele>
        <time>2017-07-23T07:27:27.139Z</time>
      </trkpt>
      <trkpt lat="47.816" lon="2.30029">
        <ele>104</ele>
        <time>2017-07-23T07:27:28.146Z</time>
      </trkpt>
      <trkpt lat="47.816" lon="2.30029">
        <ele>104</ele>
        <time>2017-07-23T07:27:29.139Z</time>
      </trkpt>
      <trkpt lat="47.816" lon="2.30025">
        <ele>104</ele>
        <time>2017-07-23T07:27:30.145Z</time>
      </trkpt>
      <trkpt lat="47.816" lon="2.30025">
        <ele>104</ele>
        <time>2017-07-23T07:27:31.139Z</time>
      </trkpt>
      <trkpt lat="47.81602" lon="2.30021">
        <ele>105</ele>
        <time>2017-07-23T07:27:32.141Z</time>
      </trkpt>
      <trkpt lat="47.81601" lon="2.30017">
        <ele>105</ele>
        <time>2017-07-23T07:27:33.145Z</time>
      </trkpt>
      <trkpt lat="47.816" lon="2.30013">
        <ele>105</ele>
        <time>2017-07-23T07:27:34.143Z</time>
      </trkpt>
      <trkpt lat="47.816" lon="2.30013">
        <ele>105</ele>
        <time>2017-07-23T07:27:35.142Z</time>
      </trkpt>
      <trkpt lat="47.81595" lon="2.30004">
        <ele>105</ele>
        <time>2017-07-23T07:27:36.146Z</time>
      </trkpt>
      <trkpt lat="47.81595" lon="2.30004">
        <ele>105</ele>
        <time>2017-07-23T07:27:37.139Z</time>
      </trkpt>
      <trkpt lat="47.81585" lon="2.29998">
        <ele>105</ele>
        <time>2017-07-23T07:27:38.144Z</time>
      </trkpt>
      <trkpt lat="47.81585" lon="2.29998">
        <ele>105</ele>
        <time>2017-07-23T07:27:39.139Z</time>
      </trkpt>
      <trkpt lat="47.81575" lon="2.29992">
        <ele>105</ele>
        <time>2017-07-23T07:27:40.146Z</time>
      </trkpt>
      <trkpt lat="47.81575" lon="2.29992">
        <ele>105</ele>
        <time>2017-07-23T07:27:41.138Z</time>
      </trkpt>
      <trkpt lat="47.81564" lon="2.29986">
        <ele>105</ele>
        <time>2017-07-23T07:27:42.146Z</time>
      </trkpt>
      <trkpt lat="47.81564" lon="2.29986">
        <ele>105</ele>
        <time>2017-07-23T07:27:43.140Z</time>
      </trkpt>
      <trkpt lat="47.81555" lon="2.2998">
        <ele>105</ele>
        <time>2017-07-23T07:27:44.145Z</time>
      </trkpt>
      <trkpt lat="47.81555" lon="2.2998">
        <ele>105</ele>
        <time>2017-07-23T07:27:45.144Z</time>
      </trkpt>
      <trkpt lat="47.81548" lon="2.29974">
        <ele>105</ele>
        <time>2017-07-23T07:27:46.146Z</time>
      </trkpt>
      <trkpt lat="47.81548" lon="2.29974">
        <ele>105</ele>
        <time>2017-07-23T07:27:47.140Z</time>
      </trkpt>
      <trkpt lat="47.81542" lon="2.29967">
        <ele>105</ele>
        <time>2017-07-23T07:27:48.145Z</time>
      </trkpt>
      <trkpt lat="47.81542" lon="2.29967">
        <ele>105</ele>
        <time>2017-07-23T07:27:49.142Z</time>
      </trkpt>
      <trkpt lat="47.81535" lon="2.2996">
        <ele>105</ele>
        <time>2017-07-23T07:27:50.146Z</time>
      </trkpt>
      <trkpt lat="47.81535" lon="2.2996">
        <ele>105</ele>
        <time>2017-07-23T07:27:51.139Z</time>
      </trkpt>
      <trkpt lat="47.81527" lon="2.29955">
        <ele>105</ele>
        <time>2017-07-23T07:27:52.143Z</time>
      </trkpt>
      <trkpt lat="47.81527" lon="2.29955">
        <ele>105</ele>
        <time>2017-07-23T07:27:53.139Z</time>
      </trkpt>
      <trkpt lat="47.81518" lon="2.29951">
        <ele>106</ele>
        <time>2017-07-23T07:27:54.145Z</time>
      </trkpt>
      <trkpt lat="47.81513" lon="2.29949">
        <ele>106</ele>
        <time>2017-07-23T07:27:55.145Z</time>
      </trkpt>
      <trkpt lat="47.81513" lon="2.29949">
        <ele>106</ele>
        <time>2017-07-23T07:27:56.139Z</time>
      </trkpt>
      <trkpt lat="47.81503" lon="2.29944">
        <ele>106</ele>
        <time>2017-07-23T07:27:57.145Z</time>
      </trkpt>
      <trkpt lat="47.81498" lon="2.29941">
        <ele>107</ele>
        <time>2017-07-23T07:27:58.145Z</time>
      </trkpt>
      <trkpt lat="47.81498" lon="2.29941">
        <ele>107</ele>
        <time>2017-07-23T07:27:59.139Z</time>
      </trkpt>
      <trkpt lat="47.81488" lon="2.29936">
        <ele>107</ele>
        <time>2017-07-23T07:28:00.146Z</time>
      </trkpt>
      <trkpt lat="47.81488" lon="2.29936">
        <ele>107</ele>
        <time>2017-07-23T07:28:01.139Z</time>
      </trkpt>
      <trkpt lat="47.81478" lon="2.2993">
        <ele>107</ele>
        <time>2017-07-23T07:28:02.145Z</time>
      </trkpt>
      <trkpt lat="47.81473" lon="2.29926">
        <ele>107</ele>
        <time>2017-07-23T07:28:03.145Z</time>
      </trkpt>
      <trkpt lat="47.81468" lon="2.29923">
        <ele>107</ele>
        <time>2017-07-23T07:28:04.143Z</time>
      </trkpt>
      <trkpt lat="47.81468" lon="2.29923">
        <ele>107</ele>
        <time>2017-07-23T07:28:05.139Z</time>
      </trkpt>
      <trkpt lat="47.81458" lon="2.29916">
        <ele>108</ele>
        <time>2017-07-23T07:28:06.144Z</time>
      </trkpt>
      <trkpt lat="47.81458" lon="2.29916">
        <ele>108</ele>
        <time>2017-07-23T07:28:07.139Z</time>
      </trkpt>
      <trkpt lat="47.81448" lon="2.29909">
        <ele>108</ele>
        <time>2017-07-23T07:28:08.146Z</time>
      </trkpt>
      <trkpt lat="47.81448" lon="2.29909">
        <ele>108</ele>
        <time>2017-07-23T07:28:09.142Z</time>
      </trkpt>
      <trkpt lat="47.8144" lon="2.29905">
        <ele>108</ele>
        <time>2017-07-23T07:28:10.143Z</time>
      </trkpt>
      <trkpt lat="47.8144" lon="2.29905">
        <ele>108</ele>
        <time>2017-07-23T07:28:11.142Z</time>
      </trkpt>
      <trkpt lat="47.81431" lon="2.29901">
        <ele>107</ele>
        <time>2017-07-23T07:28:12.146Z</time>
      </trkpt>
      <trkpt lat="47.81431" lon="2.29901">
        <ele>107</ele>
        <time>2017-07-23T07:28:13.139Z</time>
      </trkpt>
      <trkpt lat="47.81424" lon="2.29894">
        <ele>107</ele>
        <time>2017-07-23T07:28:14.141Z</time>
      </trkpt>
      <trkpt lat="47.81421" lon="2.29891">
        <ele>107</ele>
        <time>2017-07-23T07:28:15.146Z</time>
      </trkpt>
      <trkpt lat="47.81421" lon="2.29891">
        <ele>107</ele>
        <time>2017-07-23T07:28:16.142Z</time>
      </trkpt>
      <trkpt lat="47.81413" lon="2.29886">
        <ele>107</ele>
        <time>2017-07-23T07:28:17.145Z</time>
      </trkpt>
      <trkpt lat="47.81409" lon="2.29884">
        <ele>107</ele>
        <time>2017-07-23T07:28:18.132Z</time>
      </trkpt>
      <trkpt lat="47.81409" lon="2.29884">
        <ele>107</ele>
        <time>2017-07-23T07:28:19.121Z</time>
      </trkpt>
      <trkpt lat="47.81402" lon="2.2988">
        <ele>107</ele>
        <time>2017-07-23T07:28:20.113Z</time>
      </trkpt>
      <trkpt lat="47.81402" lon="2.2988">
        <ele>107</ele>
        <time>2017-07-23T07:28:21.145Z</time>
      </trkpt>
      <trkpt lat="47.81394" lon="2.29877">
        <ele>107</ele>
        <time>2017-07-23T07:28:22.127Z</time>
      </trkpt>
      <trkpt lat="47.81394" lon="2.29877">
        <ele>107</ele>
        <time>2017-07-23T07:28:23.122Z</time>
      </trkpt>
      <trkpt lat="47.81386" lon="2.29873">
        <ele>107</ele>
        <time>2017-07-23T07:28:24.111Z</time>
      </trkpt>
      <trkpt lat="47.81382" lon="2.29872">
        <ele>107</ele>
        <time>2017-07-23T07:28:25.145Z</time>
      </trkpt>
      <trkpt lat="47.81378" lon="2.2987">
        <ele>107</ele>
        <time>2017-07-23T07:28:26.109Z</time>
      </trkpt>
      <trkpt lat="47.81378" lon="2.2987">
        <ele>107</ele>
        <time>2017-07-23T07:28:27.139Z</time>
      </trkpt>
      <trkpt lat="47.8137" lon="2.29867">
        <ele>107</ele>
        <time>2017-07-23T07:28:28.145Z</time>
      </trkpt>
      <trkpt lat="47.8137" lon="2.29867">
        <ele>107</ele>
        <time>2017-07-23T07:28:29.139Z</time>
      </trkpt>
      <trkpt lat="47.81362" lon="2.29863">
        <ele>108</ele>
        <time>2017-07-23T07:28:30.147Z</time>
      </trkpt>
      <trkpt lat="47.81362" lon="2.29863">
        <ele>108</ele>
        <time>2017-07-23T07:28:31.116Z</time>
      </trkpt>
      <trkpt lat="47.81355" lon="2.29861">
        <ele>107</ele>
        <time>2017-07-23T07:28:32.146Z</time>
      </trkpt>
      <trkpt lat="47.81355" lon="2.29861">
        <ele>107</ele>
        <time>2017-07-23T07:28:33.139Z</time>
      </trkpt>
      <trkpt lat="47.81347" lon="2.29858">
        <ele>107</ele>
        <time>2017-07-23T07:28:34.138Z</time>
      </trkpt>
      <trkpt lat="47.81343" lon="2.29857">
        <ele>107</ele>
        <time>2017-07-23T07:28:35.145Z</time>
      </trkpt>
      <trkpt lat="47.81343" lon="2.29857">
        <ele>107</ele>
        <time>2017-07-23T07:28:36.140Z</time>
      </trkpt>
      <trkpt lat="47.81335" lon="2.29855">
        <ele>107</ele>
        <time>2017-07-23T07:28:37.145Z</time>
      </trkpt>
      <trkpt lat="47.81335" lon="2.29855">
        <ele>107</ele>
        <time>2017-07-23T07:28:38.140Z</time>
      </trkpt>
      <trkpt lat="47.81327" lon="2.29852">
        <ele>107</ele>
        <time>2017-07-23T07:28:39.146Z</time>
      </trkpt>
      <trkpt lat="47.81323" lon="2.2985">
        <ele>107</ele>
        <time>2017-07-23T07:28:40.145Z</time>
      </trkpt>
      <trkpt lat="47.81323" lon="2.2985">
        <ele>107</ele>
        <time>2017-07-23T07:28:41.143Z</time>
      </trkpt>
      <trkpt lat="47.81314" lon="2.29847">
        <ele>107</ele>
        <time>2017-07-23T07:28:42.108Z</time>
      </trkpt>
      <trkpt lat="47.81314" lon="2.29847">
        <ele>107</ele>
        <time>2017-07-23T07:28:43.143Z</time>
      </trkpt>
      <trkpt lat="47.81305" lon="2.29844">
        <ele>107</ele>
        <time>2017-07-23T07:28:44.114Z</time>
      </trkpt>
      <trkpt lat="47.813" lon="2.29842">
        <ele>107</ele>
        <time>2017-07-23T07:28:45.145Z</time>
      </trkpt>
      <trkpt lat="47.81295" lon="2.29841">
        <ele>107</ele>
        <time>2017-07-23T07:28:46.144Z</time>
      </trkpt>
      <trkpt lat="47.81295" lon="2.29841">
        <ele>107</ele>
        <time>2017-07-23T07:28:47.139Z</time>
      </trkpt>
      <trkpt lat="47.81285" lon="2.29837">
        <ele>107</ele>
        <time>2017-07-23T07:28:48.146Z</time>
      </trkpt>
      <trkpt lat="47.81285" lon="2.29837">
        <ele>107</ele>
        <time>2017-07-23T07:28:49.139Z</time>
      </trkpt>
      <trkpt lat="47.81276" lon="2.29834">
        <ele>108</ele>
        <time>2017-07-23T07:28:50.144Z</time>
      </trkpt>
      <trkpt lat="47.81276" lon="2.29834">
        <ele>108</ele>
        <time>2017-07-23T07:28:51.139Z</time>
      </trkpt>
      <trkpt lat="47.81267" lon="2.29831">
        <ele>108</ele>
        <time>2017-07-23T07:28:52.146Z</time>
      </trkpt>
      <trkpt lat="47.81262" lon="2.29829">
        <ele>108</ele>
        <time>2017-07-23T07:28:53.145Z</time>
      </trkpt>
      <trkpt lat="47.81257" lon="2.29827">
        <ele>108</ele>
        <time>2017-07-23T07:28:54.146Z</time>
      </trkpt>
      <trkpt lat="47.81257" lon="2.29827">
        <ele>108</ele>
        <time>2017-07-23T07:28:55.140Z</time>
      </trkpt>
      <trkpt lat="47.81248" lon="2.29823">
        <ele>108</ele>
        <time>2017-07-23T07:28:56.145Z</time>
      </trkpt>
      <trkpt lat="47.81248" lon="2.29823">
        <ele>108</ele>
        <time>2017-07-23T07:28:57.139Z</time>
      </trkpt>
      <trkpt lat="47.81238" lon="2.2982">
        <ele>109</ele>
        <time>2017-07-23T07:28:58.145Z</time>
      </trkpt>
      <trkpt lat="47.81238" lon="2.2982">
        <ele>109</ele>
        <time>2017-07-23T07:28:59.139Z</time>
      </trkpt>
      <trkpt lat="47.81228" lon="2.29817">
        <ele>109</ele>
        <time>2017-07-23T07:29:00.145Z</time>
      </trkpt>
      <trkpt lat="47.81223" lon="2.29816">
        <ele>109</ele>
        <time>2017-07-23T07:29:01.145Z</time>
      </trkpt>
      <trkpt lat="47.81223" lon="2.29816">
        <ele>109</ele>
        <time>2017-07-23T07:29:02.139Z</time>
      </trkpt>
      <trkpt lat="47.81213" lon="2.29813">
        <ele>109</ele>
        <time>2017-07-23T07:29:03.145Z</time>
      </trkpt>
      <trkpt lat="47.81209" lon="2.29811">
        <ele>109</ele>
        <time>2017-07-23T07:29:04.144Z</time>
      </trkpt>
      <trkpt lat="47.81209" lon="2.29811">
        <ele>109</ele>
        <time>2017-07-23T07:29:05.143Z</time>
      </trkpt>
      <trkpt lat="47.81199" lon="2.29808">
        <ele>109</ele>
        <time>2017-07-23T07:29:06.145Z</time>
      </trkpt>
      <trkpt lat="47.81199" lon="2.29808">
        <ele>109</ele>
        <time>2017-07-23T07:29:07.139Z</time>
      </trkpt>
      <trkpt lat="47.81189" lon="2.29805">
        <ele>109</ele>
        <time>2017-07-23T07:29:08.143Z</time>
      </trkpt>
      <trkpt lat="47.81189" lon="2.29805">
        <ele>109</ele>
        <time>2017-07-23T07:29:09.111Z</time>
      </trkpt>
      <trkpt lat="47.81179" lon="2.29801">
        <ele>110</ele>
        <time>2017-07-23T07:29:10.146Z</time>
      </trkpt>
      <trkpt lat="47.81179" lon="2.29801">
        <ele>110</ele>
        <time>2017-07-23T07:29:11.140Z</time>
      </trkpt>
      <trkpt lat="47.81168" lon="2.29797">
        <ele>110</ele>
        <time>2017-07-23T07:29:12.145Z</time>
      </trkpt>
      <trkpt lat="47.81163" lon="2.29796">
        <ele>110</ele>
        <time>2017-07-23T07:29:13.143Z</time>
      </trkpt>
      <trkpt lat="47.81163" lon="2.29796">
        <ele>110</ele>
        <time>2017-07-23T07:29:14.110Z</time>
      </trkpt>
      <trkpt lat="47.81153" lon="2.29793">
        <ele>110</ele>
        <time>2017-07-23T07:29:15.145Z</time>
      </trkpt>
      <trkpt lat="47.81148" lon="2.29791">
        <ele>110</ele>
        <time>2017-07-23T07:29:16.146Z</time>
      </trkpt>
      <trkpt lat="47.81148" lon="2.29791">
        <ele>110</ele>
        <time>2017-07-23T07:29:17.141Z</time>
      </trkpt>
      <trkpt lat="47.81138" lon="2.29785">
        <ele>111</ele>
        <time>2017-07-23T07:29:18.109Z</time>
      </trkpt>
      <trkpt lat="47.81138" lon="2.29785">
        <ele>111</ele>
        <time>2017-07-23T07:29:19.139Z</time>
      </trkpt>
      <trkpt lat="47.81128" lon="2.29781">
        <ele>111</ele>
        <time>2017-07-23T07:29:20.145Z</time>
      </trkpt>
      <trkpt lat="47.81128" lon="2.29781">
        <ele>111</ele>
        <time>2017-07-23T07:29:21.143Z</time>
      </trkpt>
      <trkpt lat="47.81117" lon="2.29775">
        <ele>111</ele>
        <time>2017-07-23T07:29:22.119Z</time>
      </trkpt>
      <trkpt lat="47.81117" lon="2.29775">
        <ele>111</ele>
        <time>2017-07-23T07:29:23.147Z</time>
      </trkpt>
      <trkpt lat="47.81107" lon="2.2977">
        <ele>112</ele>
        <time>2017-07-23T07:29:24.146Z</time>
      </trkpt>
      <trkpt lat="47.81107" lon="2.2977">
        <ele>112</ele>
        <time>2017-07-23T07:29:25.139Z</time>
      </trkpt>
      <trkpt lat="47.81097" lon="2.29765">
        <ele>112</ele>
        <time>2017-07-23T07:29:26.145Z</time>
      </trkpt>
      <trkpt lat="47.81091" lon="2.29763">
        <ele>112</ele>
        <time>2017-07-23T07:29:27.145Z</time>
      </trkpt>
      <trkpt lat="47.81086" lon="2.29761">
        <ele>112</ele>
        <time>2017-07-23T07:29:28.144Z</time>
      </trkpt>
      <trkpt lat="47.81086" lon="2.29761">
        <ele>112</ele>
        <time>2017-07-23T07:29:29.140Z</time>
      </trkpt>
      <trkpt lat="47.81076" lon="2.29757">
        <ele>113</ele>
        <time>2017-07-23T07:29:30.145Z</time>
      </trkpt>
      <trkpt lat="47.81076" lon="2.29757">
        <ele>113</ele>
        <time>2017-07-23T07:29:31.117Z</time>
      </trkpt>
      <trkpt lat="47.81065" lon="2.29754">
        <ele>113</ele>
        <time>2017-07-23T07:29:32.146Z</time>
      </trkpt>
      <trkpt lat="47.81059" lon="2.29753">
        <ele>113</ele>
        <time>2017-07-23T07:29:33.145Z</time>
      </trkpt>
      <trkpt lat="47.81059" lon="2.29753">
        <ele>113</ele>
        <time>2017-07-23T07:29:34.143Z</time>
      </trkpt>
      <trkpt lat="47.81049" lon="2.29749">
        <ele>112</ele>
        <time>2017-07-23T07:29:35.115Z</time>
      </trkpt>
      <trkpt lat="47.81043" lon="2.29748">
        <ele>112</ele>
        <time>2017-07-23T07:29:36.146Z</time>
      </trkpt>
      <trkpt lat="47.81043" lon="2.29748">
        <ele>112</ele>
        <time>2017-07-23T07:29:37.144Z</time>
      </trkpt>
      <trkpt lat="47.81032" lon="2.29745">
        <ele>112</ele>
        <time>2017-07-23T07:29:38.146Z</time>
      </trkpt>
      <trkpt lat="47.81032" lon="2.29745">
        <ele>112</ele>
        <time>2017-07-23T07:29:39.225Z</time>
      </trkpt>
      <trkpt lat="47.81022" lon="2.29741">
        <ele>111</ele>
        <time>2017-07-23T07:29:40.109Z</time>
      </trkpt>
      <trkpt lat="47.81022" lon="2.29741">
        <ele>111</ele>
        <time>2017-07-23T07:29:41.115Z</time>
      </trkpt>
      <trkpt lat="47.81013" lon="2.29732">
        <ele>109</ele>
        <time>2017-07-23T07:29:42.121Z</time>
      </trkpt>
      <trkpt lat="47.81008" lon="2.29725">
        <ele>109</ele>
        <time>2017-07-23T07:29:43.121Z</time>
      </trkpt>
      <trkpt lat="47.81005" lon="2.29718">
        <ele>108</ele>
        <time>2017-07-23T07:29:44.111Z</time>
      </trkpt>
      <trkpt lat="47.81" lon="2.29712">
        <ele>108</ele>
        <time>2017-07-23T07:29:45.145Z</time>
      </trkpt>
      <trkpt lat="47.80996" lon="2.29706">
        <ele>108</ele>
        <time>2017-07-23T07:29:46.146Z</time>
      </trkpt>
      <trkpt lat="47.80996" lon="2.29706">
        <ele>108</ele>
        <time>2017-07-23T07:29:47.143Z</time>
      </trkpt>
      <trkpt lat="47.80987" lon="2.29695">
        <ele>107</ele>
        <time>2017-07-23T07:29:48.108Z</time>
      </trkpt>
      <trkpt lat="47.80983" lon="2.2969">
        <ele>107</ele>
        <time>2017-07-23T07:29:49.146Z</time>
      </trkpt>
      <trkpt lat="47.80983" lon="2.2969">
        <ele>107</ele>
        <time>2017-07-23T07:29:50.139Z</time>
      </trkpt>
      <trkpt lat="47.80973" lon="2.2968">
        <ele>106</ele>
        <time>2017-07-23T07:29:51.141Z</time>
      </trkpt>
      <trkpt lat="47.80968" lon="2.29675">
        <ele>107</ele>
        <time>2017-07-23T07:29:52.147Z</time>
      </trkpt>
      <trkpt lat="47.80968" lon="2.29675">
        <ele>107</ele>
        <time>2017-07-23T07:29:53.139Z</time>
      </trkpt>
      <trkpt lat="47.8096" lon="2.29666">
        <ele>106</ele>
        <time>2017-07-23T07:29:54.146Z</time>
      </trkpt>
      <trkpt lat="47.8096" lon="2.29666">
        <ele>106</ele>
        <time>2017-07-23T07:29:55.139Z</time>
      </trkpt>
      <trkpt lat="47.8095" lon="2.29657">
        <ele>106</ele>
        <time>2017-07-23T07:29:56.143Z</time>
      </trkpt>
      <trkpt lat="47.8095" lon="2.29657">
        <ele>106</ele>
        <time>2017-07-23T07:29:57.141Z</time>
      </trkpt>
      <trkpt lat="47.80941" lon="2.29647">
        <ele>106</ele>
        <time>2017-07-23T07:29:58.145Z</time>
      </trkpt>
      <trkpt lat="47.80941" lon="2.29647">
        <ele>106</ele>
        <time>2017-07-23T07:29:59.112Z</time>
      </trkpt>
      <trkpt lat="47.80932" lon="2.29637">
        <ele>106</ele>
        <time>2017-07-23T07:30:00.147Z</time>
      </trkpt>
      <trkpt lat="47.80927" lon="2.29634">
        <ele>105</ele>
        <time>2017-07-23T07:30:01.144Z</time>
      </trkpt>
      <trkpt lat="47.80927" lon="2.29634">
        <ele>105</ele>
        <time>2017-07-23T07:30:02.139Z</time>
      </trkpt>
      <trkpt lat="47.80916" lon="2.29627">
        <ele>106</ele>
        <time>2017-07-23T07:30:03.146Z</time>
      </trkpt>
      <trkpt lat="47.8091" lon="2.29625">
        <ele>106</ele>
        <time>2017-07-23T07:30:04.147Z</time>
      </trkpt>
      <trkpt lat="47.8091" lon="2.29625">
        <ele>106</ele>
        <time>2017-07-23T07:30:05.139Z</time>
      </trkpt>
      <trkpt lat="47.80898" lon="2.29621">
        <ele>106</ele>
        <time>2017-07-23T07:30:06.145Z</time>
      </trkpt>
      <trkpt lat="47.80898" lon="2.29621">
        <ele>106</ele>
        <time>2017-07-23T07:30:07.109Z</time>
      </trkpt>
      <trkpt lat="47.80886" lon="2.29619">
        <ele>107</ele>
        <time>2017-07-23T07:30:08.145Z</time>
      </trkpt>
      <trkpt lat="47.80886" lon="2.29619">
        <ele>107</ele>
        <time>2017-07-23T07:30:09.140Z</time>
      </trkpt>
      <trkpt lat="47.80875" lon="2.29617">
        <ele>107</ele>
        <time>2017-07-23T07:30:10.144Z</time>
      </trkpt>
      <trkpt lat="47.80875" lon="2.29617">
        <ele>107</ele>
        <time>2017-07-23T07:30:11.139Z</time>
      </trkpt>
      <trkpt lat="47.80863" lon="2.29615">
        <ele>107</ele>
        <time>2017-07-23T07:30:12.145Z</time>
      </trkpt>
      <trkpt lat="47.80863" lon="2.29615">
        <ele>107</ele>
        <time>2017-07-23T07:30:13.143Z</time>
      </trkpt>
      <trkpt lat="47.80851" lon="2.29612">
        <ele>107</ele>
        <time>2017-07-23T07:30:14.146Z</time>
      </trkpt>
      <trkpt lat="47.80851" lon="2.29612">
        <ele>107</ele>
        <time>2017-07-23T07:30:15.137Z</time>
      </trkpt>
      <trkpt lat="47.8084" lon="2.29609">
        <ele>107</ele>
        <time>2017-07-23T07:30:16.146Z</time>
      </trkpt>
      <trkpt lat="47.8084" lon="2.29609">
        <ele>107</ele>
        <time>2017-07-23T07:30:17.140Z</time>
      </trkpt>
      <trkpt lat="47.80828" lon="2.29606">
        <ele>108</ele>
        <time>2017-07-23T07:30:18.145Z</time>
      </trkpt>
      <trkpt lat="47.80828" lon="2.29606">
        <ele>108</ele>
        <time>2017-07-23T07:30:19.144Z</time>
      </trkpt>
      <trkpt lat="47.80817" lon="2.29602">
        <ele>108</ele>
        <time>2017-07-23T07:30:20.146Z</time>
      </trkpt>
      <trkpt lat="47.80817" lon="2.29602">
        <ele>108</ele>
        <time>2017-07-23T07:30:21.142Z</time>
      </trkpt>
      <trkpt lat="47.80807" lon="2.296">
        <ele>107</ele>
        <time>2017-07-23T07:30:22.122Z</time>
      </trkpt>
      <trkpt lat="47.80807" lon="2.296">
        <ele>107</ele>
        <time>2017-07-23T07:30:23.124Z</time>
      </trkpt>
      <trkpt lat="47.80796" lon="2.29595">
        <ele>107</ele>
        <time>2017-07-23T07:30:24.115Z</time>
      </trkpt>
      <trkpt lat="47.80796" lon="2.29595">
        <ele>107</ele>
        <time>2017-07-23T07:30:25.144Z</time>
      </trkpt>
      <trkpt lat="47.80786" lon="2.2959">
        <ele>107</ele>
        <time>2017-07-23T07:30:26.145Z</time>
      </trkpt>
      <trkpt lat="47.80786" lon="2.2959">
        <ele>107</ele>
        <time>2017-07-23T07:30:27.140Z</time>
      </trkpt>
      <trkpt lat="47.80775" lon="2.29585">
        <ele>107</ele>
        <time>2017-07-23T07:30:28.146Z</time>
      </trkpt>
      <trkpt lat="47.80775" lon="2.29585">
        <ele>107</ele>
        <time>2017-07-23T07:30:29.140Z</time>
      </trkpt>
      <trkpt lat="47.80765" lon="2.29579">
        <ele>107</ele>
        <time>2017-07-23T07:30:30.145Z</time>
      </trkpt>
      <trkpt lat="47.80765" lon="2.29579">
        <ele>107</ele>
        <time>2017-07-23T07:30:31.139Z</time>
      </trkpt>
      <trkpt lat="47.80754" lon="2.29571">
        <ele>107</ele>
        <time>2017-07-23T07:30:32.143Z</time>
      </trkpt>
      <trkpt lat="47.80749" lon="2.29567">
        <ele>107</ele>
        <time>2017-07-23T07:30:33.145Z</time>
      </trkpt>
      <trkpt lat="47.80745" lon="2.29562">
        <ele>107</ele>
        <time>2017-07-23T07:30:34.121Z</time>
      </trkpt>
      <trkpt lat="47.80745" lon="2.29562">
        <ele>107</ele>
        <time>2017-07-23T07:30:35.132Z</time>
      </trkpt>
      <trkpt lat="47.80735" lon="2.29553">
        <ele>107</ele>
        <time>2017-07-23T07:30:36.120Z</time>
      </trkpt>
      <trkpt lat="47.80735" lon="2.29553">
        <ele>107</ele>
        <time>2017-07-23T07:30:37.109Z</time>
      </trkpt>
      <trkpt lat="47.80726" lon="2.29545">
        <ele>107</ele>
        <time>2017-07-23T07:30:38.146Z</time>
      </trkpt>
      <trkpt lat="47.80722" lon="2.29541">
        <ele>107</ele>
        <time>2017-07-23T07:30:39.111Z</time>
      </trkpt>
      <trkpt lat="47.80722" lon="2.29541">
        <ele>107</ele>
        <time>2017-07-23T07:30:40.144Z</time>
      </trkpt>
      <trkpt lat="47.80715" lon="2.29531">
        <ele>106</ele>
        <time>2017-07-23T07:30:41.146Z</time>
      </trkpt>
      <trkpt lat="47.80711" lon="2.29526">
        <ele>106</ele>
        <time>2017-07-23T07:30:42.146Z</time>
      </trkpt>
      <trkpt lat="47.80711" lon="2.29526">
        <ele>106</ele>
        <time>2017-07-23T07:30:43.140Z</time>
      </trkpt>
      <trkpt lat="47.80704" lon="2.29516">
        <ele>106</ele>
        <time>2017-07-23T07:30:44.145Z</time>
      </trkpt>
      <trkpt lat="47.80704" lon="2.29516">
        <ele>106</ele>
        <time>2017-07-23T07:30:45.140Z</time>
      </trkpt>
      <trkpt lat="47.80696" lon="2.29509">
        <ele>106</ele>
        <time>2017-07-23T07:30:46.147Z</time>
      </trkpt>
      <trkpt lat="47.80693" lon="2.29506">
        <ele>106</ele>
        <time>2017-07-23T07:30:47.146Z</time>
      </trkpt>
      <trkpt lat="47.80693" lon="2.29506">
        <ele>106</ele>
        <time>2017-07-23T07:30:48.140Z</time>
      </trkpt>
      <trkpt lat="47.80686" lon="2.29501">
        <ele>106</ele>
        <time>2017-07-23T07:30:49.147Z</time>
      </trkpt>
      <trkpt lat="47.80684" lon="2.29499">
        <ele>107</ele>
        <time>2017-07-23T07:30:50.145Z</time>
      </trkpt>
      <trkpt lat="47.80684" lon="2.29499">
        <ele>107</ele>
        <time>2017-07-23T07:30:51.141Z</time>
      </trkpt>
      <trkpt lat="47.80682" lon="2.29495">
        <ele>106</ele>
        <time>2017-07-23T07:30:52.147Z</time>
      </trkpt>
      <trkpt lat="47.80682" lon="2.29495">
        <ele>106</ele>
        <time>2017-07-23T07:30:53.139Z</time>
      </trkpt>
      <trkpt lat="47.80681" lon="2.29488">
        <ele>107</ele>
        <time>2017-07-23T07:30:54.145Z</time>
      </trkpt>
      <trkpt lat="47.80681" lon="2.29488">
        <ele>107</ele>
        <time>2017-07-23T07:30:55.140Z</time>
      </trkpt>
      <trkpt lat="47.8068" lon="2.29482">
        <ele>108</ele>
        <time>2017-07-23T07:30:56.146Z</time>
      </trkpt>
      <trkpt lat="47.8068" lon="2.29482">
        <ele>108</ele>
        <time>2017-07-23T07:30:57.146Z</time>
      </trkpt>
      <trkpt lat="47.80679" lon="2.29479">
        <ele>108</ele>
        <time>2017-07-23T07:30:58.146Z</time>
      </trkpt>
      <trkpt lat="47.80679" lon="2.29479">
        <ele>108</ele>
        <time>2017-07-23T07:30:59.139Z</time>
      </trkpt>
      <trkpt lat="47.80679" lon="2.29479">
        <ele>107</ele>
        <time>2017-07-23T07:31:00.146Z</time>
      </trkpt>
      <trkpt lat="47.80679" lon="2.29479">
        <ele>107</ele>
        <time>2017-07-23T07:31:01.141Z</time>
      </trkpt>
      <trkpt lat="47.80679" lon="2.29478">
        <ele>107</ele>
        <time>2017-07-23T07:31:02.145Z</time>
      </trkpt>
      <trkpt lat="47.80679" lon="2.29478">
        <ele>107</ele>
        <time>2017-07-23T07:31:03.111Z</time>
      </trkpt>
      <trkpt lat="47.80679" lon="2.29478">
        <ele>107</ele>
        <time>2017-07-23T07:31:04.110Z</time>
      </trkpt>
      <trkpt lat="47.80677" lon="2.29483">
        <ele>102</ele>
        <time>2017-07-23T07:31:05.114Z</time>
      </trkpt>
      <trkpt lat="47.80675" lon="2.29484">
        <ele>102</ele>
        <time>2017-07-23T07:31:06.108Z</time>
      </trkpt>
      <trkpt lat="47.80675" lon="2.29484">
        <ele>102</ele>
        <time>2017-07-23T07:31:07.114Z</time>
      </trkpt>
      <trkpt lat="47.80671" lon="2.29484">
        <ele>103</ele>
        <time>2017-07-23T07:31:08.129Z</time>
      </trkpt>
      <trkpt lat="47.80667" lon="2.29481">
        <ele>103</ele>
        <time>2017-07-23T07:31:09.121Z</time>
      </trkpt>
      <trkpt lat="47.80667" lon="2.29481">
        <ele>103</ele>
        <time>2017-07-23T07:31:10.110Z</time>
      </trkpt>
      <trkpt lat="47.80667" lon="2.29481">
        <ele>103</ele>
        <time>2017-07-23T07:31:11.114Z</time>
      </trkpt>
      <trkpt lat="47.80663" lon="2.29477">
        <ele>103</ele>
        <time>2017-07-23T07:31:12.131Z</time>
      </trkpt>
      <trkpt lat="47.80659" lon="2.2947">
        <ele>103</ele>
        <time>2017-07-23T07:31:13.122Z</time>
      </trkpt>
      <trkpt lat="47.80659" lon="2.2947">
        <ele>103</ele>
        <time>2017-07-23T07:31:14.110Z</time>
      </trkpt>
      <trkpt lat="47.80659" lon="2.2947">
        <ele>103</ele>
        <time>2017-07-23T07:31:15.112Z</time>
      </trkpt>
      <trkpt lat="47.80654" lon="2.29462">
        <ele>103</ele>
        <time>2017-07-23T07:31:16.127Z</time>
      </trkpt>
      <trkpt lat="47.80654" lon="2.29462">
        <ele>103</ele>
        <time>2017-07-23T07:31:17.121Z</time>
      </trkpt>
      <trkpt lat="47.80648" lon="2.29456">
        <ele>103</ele>
        <time>2017-07-23T07:31:18.110Z</time>
      </trkpt>
      <trkpt lat="47.80648" lon="2.29456">
        <ele>103</ele>
        <time>2017-07-23T07:31:19.113Z</time>
      </trkpt>
      <trkpt lat="47.80643" lon="2.29448">
        <ele>103</ele>
        <time>2017-07-23T07:31:20.127Z</time>
      </trkpt>
      <trkpt lat="47.80643" lon="2.29448">
        <ele>103</ele>
        <time>2017-07-23T07:31:21.114Z</time>
      </trkpt>
      <trkpt lat="47.80636" lon="2.29438">
        <ele>104</ele>
        <time>2017-07-23T07:31:22.129Z</time>
      </trkpt>
      <trkpt lat="47.80636" lon="2.29438">
        <ele>104</ele>
        <time>2017-07-23T07:31:23.120Z</time>
      </trkpt>
      <trkpt lat="47.80636" lon="2.29438">
        <ele>104</ele>
        <time>2017-07-23T07:31:24.113Z</time>
      </trkpt>
      <trkpt lat="47.80631" lon="2.29434">
        <ele>104</ele>
        <time>2017-07-23T07:31:25.114Z</time>
      </trkpt>
      <trkpt lat="47.80628" lon="2.29431">
        <ele>104</ele>
        <time>2017-07-23T07:31:26.134Z</time>
      </trkpt>
      <trkpt lat="47.8062" lon="2.29424">
        <ele>104</ele>
        <time>2017-07-23T07:31:27.136Z</time>
      </trkpt>
      <trkpt lat="47.8062" lon="2.29424">
        <ele>104</ele>
        <time>2017-07-23T07:31:28.134Z</time>
      </trkpt>
      <trkpt lat="47.80612" lon="2.29416">
        <ele>104</ele>
        <time>2017-07-23T07:31:29.124Z</time>
      </trkpt>
      <trkpt lat="47.80612" lon="2.29416">
        <ele>104</ele>
        <time>2017-07-23T07:31:30.111Z</time>
      </trkpt>
      <trkpt lat="47.80612" lon="2.29416">
        <ele>104</ele>
        <time>2017-07-23T07:31:31.119Z</time>
      </trkpt>
      <trkpt lat="47.80598" lon="2.29407">
        <ele>105</ele>
        <time>2017-07-23T07:31:32.125Z</time>
      </trkpt>
      <trkpt lat="47.80598" lon="2.29407">
        <ele>105</ele>
        <time>2017-07-23T07:31:33.110Z</time>
      </trkpt>
      <trkpt lat="47.80598" lon="2.29407">
        <ele>105</ele>
        <time>2017-07-23T07:31:34.113Z</time>
      </trkpt>
      <trkpt lat="47.80586" lon="2.29405">
        <ele>106</ele>
        <time>2017-07-23T07:31:35.129Z</time>
      </trkpt>
      <trkpt lat="47.80586" lon="2.29405">
        <ele>106</ele>
        <time>2017-07-23T07:31:36.113Z</time>
      </trkpt>
      <trkpt lat="47.80586" lon="2.29405">
        <ele>106</ele>
        <time>2017-07-23T07:31:37.114Z</time>
      </trkpt>
      <trkpt lat="47.80577" lon="2.29406">
        <ele>106</ele>
        <time>2017-07-23T07:31:38.130Z</time>
      </trkpt>
      <trkpt lat="47.80569" lon="2.29407">
        <ele>107</ele>
        <time>2017-07-23T07:31:39.120Z</time>
      </trkpt>
      <trkpt lat="47.80566" lon="2.29408">
        <ele>107</ele>
        <time>2017-07-23T07:31:40.127Z</time>
      </trkpt>
      <trkpt lat="47.80566" lon="2.29408">
        <ele>107</ele>
        <time>2017-07-23T07:31:41.109Z</time>
      </trkpt>
      <trkpt lat="47.80566" lon="2.29408">
        <ele>107</ele>
        <time>2017-07-23T07:31:42.110Z</time>
      </trkpt>
      <trkpt lat="47.8056" lon="2.2941">
        <ele>107</ele>
        <time>2017-07-23T07:31:43.114Z</time>
      </trkpt>
      <trkpt lat="47.80557" lon="2.29411">
        <ele>108</ele>
        <time>2017-07-23T07:31:44.108Z</time>
      </trkpt>
      <trkpt lat="47.80557" lon="2.29411">
        <ele>108</ele>
        <time>2017-07-23T07:31:45.113Z</time>
      </trkpt>
      <trkpt lat="47.80553" lon="2.29413">
        <ele>108</ele>
        <time>2017-07-23T07:31:46.128Z</time>
      </trkpt>
      <trkpt lat="47.80553" lon="2.29413">
        <ele>108</ele>
        <time>2017-07-23T07:31:47.116Z</time>
      </trkpt>
      <trkpt lat="47.80547" lon="2.29415">
        <ele>108</ele>
        <time>2017-07-23T07:31:48.137Z</time>
      </trkpt>
      <trkpt lat="47.8054" lon="2.29417">
        <ele>109</ele>
        <time>2017-07-23T07:31:49.125Z</time>
      </trkpt>
      <trkpt lat="47.8054" lon="2.29417">
        <ele>109</ele>
        <time>2017-07-23T07:31:50.111Z</time>
      </trkpt>
      <trkpt lat="47.8054" lon="2.29417">
        <ele>109</ele>
        <time>2017-07-23T07:31:51.115Z</time>
      </trkpt>
      <trkpt lat="47.80532" lon="2.29419">
        <ele>109</ele>
        <time>2017-07-23T07:31:52.130Z</time>
      </trkpt>
      <trkpt lat="47.80532" lon="2.29419">
        <ele>109</ele>
        <time>2017-07-23T07:31:53.119Z</time>
      </trkpt>
      <trkpt lat="47.80525" lon="2.29421">
        <ele>109</ele>
        <time>2017-07-23T07:31:54.128Z</time>
      </trkpt>
      <trkpt lat="47.80519" lon="2.29423">
        <ele>109</ele>
        <time>2017-07-23T07:31:55.123Z</time>
      </trkpt>
      <trkpt lat="47.80519" lon="2.29423">
        <ele>109</ele>
        <time>2017-07-23T07:31:56.114Z</time>
      </trkpt>
      <trkpt lat="47.80517" lon="2.29424">
        <ele>109</ele>
        <time>2017-07-23T07:31:57.110Z</time>
      </trkpt>
      <trkpt lat="47.80517" lon="2.29424">
        <ele>109</ele>
        <time>2017-07-23T07:31:58.114Z</time>
      </trkpt>
      <trkpt lat="47.80513" lon="2.29424">
        <ele>109</ele>
        <time>2017-07-23T07:31:59.121Z</time>
      </trkpt>
      <trkpt lat="47.80513" lon="2.29424">
        <ele>109</ele>
        <time>2017-07-23T07:32:00.140Z</time>
      </trkpt>
      <trkpt lat="47.80513" lon="2.29424">
        <ele>109</ele>
        <time>2017-07-23T07:32:01.128Z</time>
      </trkpt>
      <trkpt lat="47.80511" lon="2.29425">
        <ele>109</ele>
        <time>2017-07-23T07:32:02.141Z</time>
      </trkpt>
      <trkpt lat="47.80509" lon="2.29425">
        <ele>109</ele>
        <time>2017-07-23T07:32:03.130Z</time>
      </trkpt>
      <trkpt lat="47.80509" lon="2.29425">
        <ele>109</ele>
        <time>2017-07-23T07:32:04.120Z</time>
      </trkpt>
      <trkpt lat="47.80509" lon="2.29425">
        <ele>109</ele>
        <time>2017-07-23T07:32:05.114Z</time>
      </trkpt>
      <trkpt lat="47.80508" lon="2.29423">
        <ele>108</ele>
        <time>2017-07-23T07:32:06.111Z</time>
      </trkpt>
      <trkpt lat="47.80508" lon="2.29423">
        <ele>108</ele>
        <time>2017-07-23T07:32:07.114Z</time>
      </trkpt>
      <trkpt lat="47.80507" lon="2.29424">
        <ele>108</ele>
        <time>2017-07-23T07:32:08.111Z</time>
      </trkpt>
      <trkpt lat="47.80507" lon="2.29424">
        <ele>108</ele>
        <time>2017-07-23T07:32:09.114Z</time>
      </trkpt>
      <trkpt lat="47.80506" lon="2.29425">
        <ele>108</ele>
        <time>2017-07-23T07:32:10.113Z</time>
      </trkpt>
      <trkpt lat="47.80506" lon="2.29425">
        <ele>108</ele>
        <time>2017-07-23T07:32:11.125Z</time>
      </trkpt>
      <trkpt lat="47.80498" lon="2.29429">
        <ele>108</ele>
        <time>2017-07-23T07:32:12.130Z</time>
      </trkpt>
      <trkpt lat="47.80498" lon="2.29429">
        <ele>108</ele>
        <time>2017-07-23T07:32:13.123Z</time>
      </trkpt>
      <trkpt lat="47.80491" lon="2.29431">
        <ele>109</ele>
        <time>2017-07-23T07:32:14.129Z</time>
      </trkpt>
      <trkpt lat="47.80491" lon="2.29431">
        <ele>109</ele>
        <time>2017-07-23T07:32:15.126Z</time>
      </trkpt>
      <trkpt lat="47.80483" lon="2.29434">
        <ele>108</ele>
        <time>2017-07-23T07:32:16.129Z</time>
      </trkpt>
      <trkpt lat="47.80483" lon="2.29434">
        <ele>108</ele>
        <time>2017-07-23T07:32:17.122Z</time>
      </trkpt>
      <trkpt lat="47.80475" lon="2.29434">
        <ele>109</ele>
        <time>2017-07-23T07:32:18.128Z</time>
      </trkpt>
      <trkpt lat="47.80475" lon="2.29434">
        <ele>109</ele>
        <time>2017-07-23T07:32:19.126Z</time>
      </trkpt>
      <trkpt lat="47.80466" lon="2.29433">
        <ele>109</ele>
        <time>2017-07-23T07:32:20.128Z</time>
      </trkpt>
      <trkpt lat="47.80466" lon="2.29433">
        <ele>109</ele>
        <time>2017-07-23T07:32:21.127Z</time>
      </trkpt>
      <trkpt lat="47.80458" lon="2.29432">
        <ele>109</ele>
        <time>2017-07-23T07:32:22.129Z</time>
      </trkpt>
      <trkpt lat="47.80458" lon="2.29432">
        <ele>109</ele>
        <time>2017-07-23T07:32:23.125Z</time>
      </trkpt>
      <trkpt lat="47.80449" lon="2.29432">
        <ele>109</ele>
        <time>2017-07-23T07:32:24.129Z</time>
      </trkpt>
      <trkpt lat="47.80449" lon="2.29432">
        <ele>109</ele>
        <time>2017-07-23T07:32:25.123Z</time>
      </trkpt>
      <trkpt lat="47.80441" lon="2.29432">
        <ele>109</ele>
        <time>2017-07-23T07:32:26.128Z</time>
      </trkpt>
      <trkpt lat="47.80441" lon="2.29432">
        <ele>109</ele>
        <time>2017-07-23T07:32:27.124Z</time>
      </trkpt>
      <trkpt lat="47.80434" lon="2.29433">
        <ele>110</ele>
        <time>2017-07-23T07:32:28.129Z</time>
      </trkpt>
      <trkpt lat="47.80434" lon="2.29433">
        <ele>110</ele>
        <time>2017-07-23T07:32:29.123Z</time>
      </trkpt>
      <trkpt lat="47.80426" lon="2.29432">
        <ele>110</ele>
        <time>2017-07-23T07:32:30.131Z</time>
      </trkpt>
      <trkpt lat="47.80426" lon="2.29432">
        <ele>110</ele>
        <time>2017-07-23T07:32:31.124Z</time>
      </trkpt>
      <trkpt lat="47.80418" lon="2.29427">
        <ele>110</ele>
        <time>2017-07-23T07:32:32.127Z</time>
      </trkpt>
      <trkpt lat="47.80418" lon="2.29427">
        <ele>110</ele>
        <time>2017-07-23T07:32:33.122Z</time>
      </trkpt>
      <trkpt lat="47.80409" lon="2.29425">
        <ele>111</ele>
        <time>2017-07-23T07:32:34.130Z</time>
      </trkpt>
      <trkpt lat="47.80409" lon="2.29425">
        <ele>111</ele>
        <time>2017-07-23T07:32:35.128Z</time>
      </trkpt>
      <trkpt lat="47.80402" lon="2.29425">
        <ele>111</ele>
        <time>2017-07-23T07:32:36.128Z</time>
      </trkpt>
      <trkpt lat="47.80402" lon="2.29425">
        <ele>111</ele>
        <time>2017-07-23T07:32:37.124Z</time>
      </trkpt>
      <trkpt lat="47.80396" lon="2.29423">
        <ele>111</ele>
        <time>2017-07-23T07:32:38.131Z</time>
      </trkpt>
      <trkpt lat="47.80396" lon="2.29423">
        <ele>111</ele>
        <time>2017-07-23T07:32:39.124Z</time>
      </trkpt>
      <trkpt lat="47.80388" lon="2.29419">
        <ele>111</ele>
        <time>2017-07-23T07:32:40.129Z</time>
      </trkpt>
      <trkpt lat="47.80388" lon="2.29419">
        <ele>111</ele>
        <time>2017-07-23T07:32:41.120Z</time>
      </trkpt>
      <trkpt lat="47.80381" lon="2.29418">
        <ele>111</ele>
        <time>2017-07-23T07:32:42.129Z</time>
      </trkpt>
      <trkpt lat="47.80381" lon="2.29418">
        <ele>111</ele>
        <time>2017-07-23T07:32:43.127Z</time>
      </trkpt>
      <trkpt lat="47.80374" lon="2.29419">
        <ele>111</ele>
        <time>2017-07-23T07:32:44.129Z</time>
      </trkpt>
      <trkpt lat="47.80371" lon="2.29418">
        <ele>111</ele>
        <time>2017-07-23T07:32:45.127Z</time>
      </trkpt>
      <trkpt lat="47.80371" lon="2.29418">
        <ele>111</ele>
        <time>2017-07-23T07:32:46.127Z</time>
      </trkpt>
      <trkpt lat="47.80363" lon="2.29418">
        <ele>112</ele>
        <time>2017-07-23T07:32:47.130Z</time>
      </trkpt>
      <trkpt lat="47.80361" lon="2.29417">
        <ele>112</ele>
        <time>2017-07-23T07:32:48.129Z</time>
      </trkpt>
      <trkpt lat="47.80361" lon="2.29417">
        <ele>112</ele>
        <time>2017-07-23T07:32:49.122Z</time>
      </trkpt>
      <trkpt lat="47.80356" lon="2.29417">
        <ele>112</ele>
        <time>2017-07-23T07:32:50.130Z</time>
      </trkpt>
      <trkpt lat="47.80356" lon="2.29417">
        <ele>112</ele>
        <time>2017-07-23T07:32:51.123Z</time>
      </trkpt>
      <trkpt lat="47.80348" lon="2.29417">
        <ele>112</ele>
        <time>2017-07-23T07:32:52.129Z</time>
      </trkpt>
      <trkpt lat="47.80348" lon="2.29417">
        <ele>112</ele>
        <time>2017-07-23T07:32:53.123Z</time>
      </trkpt>
      <trkpt lat="47.80343" lon="2.29418">
        <ele>112</ele>
        <time>2017-07-23T07:32:54.126Z</time>
      </trkpt>
      <trkpt lat="47.80343" lon="2.29418">
        <ele>112</ele>
        <time>2017-07-23T07:32:55.121Z</time>
      </trkpt>
      <trkpt lat="47.80338" lon="2.29417">
        <ele>112</ele>
        <time>2017-07-23T07:32:56.128Z</time>
      </trkpt>
      <trkpt lat="47.80338" lon="2.29417">
        <ele>112</ele>
        <time>2017-07-23T07:32:57.132Z</time>
      </trkpt>
      <trkpt lat="47.80334" lon="2.29414">
        <ele>113</ele>
        <time>2017-07-23T07:32:58.129Z</time>
      </trkpt>
      <trkpt lat="47.80334" lon="2.29414">
        <ele>113</ele>
        <time>2017-07-23T07:32:59.125Z</time>
      </trkpt>
      <trkpt lat="47.80327" lon="2.29413">
        <ele>113</ele>
        <time>2017-07-23T07:33:00.131Z</time>
      </trkpt>
      <trkpt lat="47.80327" lon="2.29413">
        <ele>113</ele>
        <time>2017-07-23T07:33:01.125Z</time>
      </trkpt>
      <trkpt lat="47.8032" lon="2.29412">
        <ele>114</ele>
        <time>2017-07-23T07:33:02.128Z</time>
      </trkpt>
      <trkpt lat="47.8032" lon="2.29412">
        <ele>114</ele>
        <time>2017-07-23T07:33:03.126Z</time>
      </trkpt>
      <trkpt lat="47.80314" lon="2.29413">
        <ele>114</ele>
        <time>2017-07-23T07:33:04.130Z</time>
      </trkpt>
      <trkpt lat="47.80314" lon="2.29413">
        <ele>114</ele>
        <time>2017-07-23T07:33:05.125Z</time>
      </trkpt>
      <trkpt lat="47.80307" lon="2.29415">
        <ele>114</ele>
        <time>2017-07-23T07:33:06.129Z</time>
      </trkpt>
      <trkpt lat="47.80307" lon="2.29415">
        <ele>114</ele>
        <time>2017-07-23T07:33:07.120Z</time>
      </trkpt>
      <trkpt lat="47.80301" lon="2.29416">
        <ele>115</ele>
        <time>2017-07-23T07:33:08.141Z</time>
      </trkpt>
      <trkpt lat="47.80301" lon="2.29416">
        <ele>115</ele>
        <time>2017-07-23T07:33:09.139Z</time>
      </trkpt>
      <trkpt lat="47.80295" lon="2.29418">
        <ele>116</ele>
        <time>2017-07-23T07:33:10.130Z</time>
      </trkpt>
      <trkpt lat="47.80295" lon="2.29418">
        <ele>116</ele>
        <time>2017-07-23T07:33:11.123Z</time>
      </trkpt>
      <trkpt lat="47.80286" lon="2.29416">
        <ele>116</ele>
        <time>2017-07-23T07:33:12.130Z</time>
      </trkpt>
      <trkpt lat="47.80286" lon="2.29416">
        <ele>116</ele>
        <time>2017-07-23T07:33:13.124Z</time>
      </trkpt>
      <trkpt lat="47.80279" lon="2.29412">
        <ele>116</ele>
        <time>2017-07-23T07:33:14.128Z</time>
      </trkpt>
      <trkpt lat="47.80276" lon="2.29411">
        <ele>116</ele>
        <time>2017-07-23T07:33:15.128Z</time>
      </trkpt>
      <trkpt lat="47.80276" lon="2.29411">
        <ele>116</ele>
        <time>2017-07-23T07:33:16.128Z</time>
      </trkpt>
      <trkpt lat="47.80269" lon="2.29406">
        <ele>117</ele>
        <time>2017-07-23T07:33:17.133Z</time>
      </trkpt>
      <trkpt lat="47.80265" lon="2.29404">
        <ele>117</ele>
        <time>2017-07-23T07:33:18.129Z</time>
      </trkpt>
      <trkpt lat="47.80265" lon="2.29404">
        <ele>117</ele>
        <time>2017-07-23T07:33:19.126Z</time>
      </trkpt>
      <trkpt lat="47.80258" lon="2.29404">
        <ele>118</ele>
        <time>2017-07-23T07:33:20.137Z</time>
      </trkpt>
      <trkpt lat="47.80255" lon="2.29405">
        <ele>118</ele>
        <time>2017-07-23T07:33:21.126Z</time>
      </trkpt>
      <trkpt lat="47.80251" lon="2.29405">
        <ele>118</ele>
        <time>2017-07-23T07:33:22.132Z</time>
      </trkpt>
      <trkpt lat="47.80251" lon="2.29405">
        <ele>118</ele>
        <time>2017-07-23T07:33:23.125Z</time>
      </trkpt>
      <trkpt lat="47.80242" lon="2.29402">
        <ele>117</ele>
        <time>2017-07-23T07:33:24.129Z</time>
      </trkpt>
      <trkpt lat="47.80242" lon="2.29402">
        <ele>117</ele>
        <time>2017-07-23T07:33:25.126Z</time>
      </trkpt>
      <trkpt lat="47.80236" lon="2.29396">
        <ele>117</ele>
        <time>2017-07-23T07:33:26.128Z</time>
      </trkpt>
      <trkpt lat="47.80232" lon="2.29394">
        <ele>117</ele>
        <time>2017-07-23T07:33:27.132Z</time>
      </trkpt>
      <trkpt lat="47.80232" lon="2.29394">
        <ele>117</ele>
        <time>2017-07-23T07:33:28.135Z</time>
      </trkpt>
      <trkpt lat="47.80225" lon="2.29389">
        <ele>117</ele>
        <time>2017-07-23T07:33:29.146Z</time>
      </trkpt>
      <trkpt lat="47.80222" lon="2.29385">
        <ele>117</ele>
        <time>2017-07-23T07:33:30.139Z</time>
      </trkpt>
      <trkpt lat="47.80222" lon="2.29385">
        <ele>117</ele>
        <time>2017-07-23T07:33:31.130Z</time>
      </trkpt>
      <trkpt lat="47.80215" lon="2.29376">
        <ele>117</ele>
        <time>2017-07-23T07:33:32.125Z</time>
      </trkpt>
      <trkpt lat="47.80209" lon="2.29374">
        <ele>117</ele>
        <time>2017-07-23T07:33:33.132Z</time>
      </trkpt>
      <trkpt lat="47.80204" lon="2.29372">
        <ele>117</ele>
        <time>2017-07-23T07:33:34.137Z</time>
      </trkpt>
      <trkpt lat="47.80204" lon="2.29372">
        <ele>117</ele>
        <time>2017-07-23T07:33:35.144Z</time>
      </trkpt>
      <trkpt lat="47.80196" lon="2.29369">
        <ele>117</ele>
        <time>2017-07-23T07:33:36.135Z</time>
      </trkpt>
      <trkpt lat="47.80196" lon="2.29369">
        <ele>117</ele>
        <time>2017-07-23T07:33:37.127Z</time>
      </trkpt>
      <trkpt lat="47.80189" lon="2.29367">
        <ele>117</ele>
        <time>2017-07-23T07:33:38.134Z</time>
      </trkpt>
      <trkpt lat="47.80189" lon="2.29367">
        <ele>117</ele>
        <time>2017-07-23T07:33:39.117Z</time>
      </trkpt>
      <trkpt lat="47.80182" lon="2.29366">
        <ele>117</ele>
        <time>2017-07-23T07:33:40.123Z</time>
      </trkpt>
      <trkpt lat="47.80177" lon="2.29364">
        <ele>117</ele>
        <time>2017-07-23T07:33:41.129Z</time>
      </trkpt>
      <trkpt lat="47.80177" lon="2.29364">
        <ele>117</ele>
        <time>2017-07-23T07:33:42.124Z</time>
      </trkpt>
      <trkpt lat="47.8017" lon="2.29361">
        <ele>117</ele>
        <time>2017-07-23T07:33:43.128Z</time>
      </trkpt>
      <trkpt lat="47.80166" lon="2.29358">
        <ele>117</ele>
        <time>2017-07-23T07:33:44.130Z</time>
      </trkpt>
      <trkpt lat="47.80163" lon="2.29356">
        <ele>117</ele>
        <time>2017-07-23T07:33:45.129Z</time>
      </trkpt>
      <trkpt lat="47.80163" lon="2.29356">
        <ele>117</ele>
        <time>2017-07-23T07:33:46.130Z</time>
      </trkpt>
      <trkpt lat="47.80161" lon="2.29351">
        <ele>118</ele>
        <time>2017-07-23T07:33:47.128Z</time>
      </trkpt>
      <trkpt lat="47.80161" lon="2.29349">
        <ele>118</ele>
        <time>2017-07-23T07:33:48.129Z</time>
      </trkpt>
      <trkpt lat="47.80161" lon="2.29349">
        <ele>118</ele>
        <time>2017-07-23T07:33:49.126Z</time>
      </trkpt>
      <trkpt lat="47.80157" lon="2.29348">
        <ele>117</ele>
        <time>2017-07-23T07:33:50.129Z</time>
      </trkpt>
      <trkpt lat="47.80157" lon="2.29348">
        <ele>117</ele>
        <time>2017-07-23T07:33:51.125Z</time>
      </trkpt>
      <trkpt lat="47.80154" lon="2.29348">
        <ele>117</ele>
        <time>2017-07-23T07:33:52.129Z</time>
      </trkpt>
      <trkpt lat="47.80152" lon="2.29347">
        <ele>117</ele>
        <time>2017-07-23T07:33:53.129Z</time>
      </trkpt>
      <trkpt lat="47.80152" lon="2.29347">
        <ele>117</ele>
        <time>2017-07-23T07:33:54.126Z</time>
      </trkpt>
      <trkpt lat="47.8015" lon="2.29345">
        <ele>117</ele>
        <time>2017-07-23T07:33:55.129Z</time>
      </trkpt>
      <trkpt lat="47.8015" lon="2.29345">
        <ele>117</ele>
        <time>2017-07-23T07:33:56.124Z</time>
      </trkpt>
      <trkpt lat="47.80146" lon="2.2934">
        <ele>116</ele>
        <time>2017-07-23T07:33:57.129Z</time>
      </trkpt>
      <trkpt lat="47.80146" lon="2.2934">
        <ele>116</ele>
        <time>2017-07-23T07:33:58.127Z</time>
      </trkpt>
      <trkpt lat="47.80141" lon="2.29334">
        <ele>116</ele>
        <time>2017-07-23T07:33:59.128Z</time>
      </trkpt>
      <trkpt lat="47.80141" lon="2.29334">
        <ele>116</ele>
        <time>2017-07-23T07:34:00.124Z</time>
      </trkpt>
      <trkpt lat="47.80136" lon="2.2933">
        <ele>116</ele>
        <time>2017-07-23T07:34:01.129Z</time>
      </trkpt>
      <trkpt lat="47.80133" lon="2.29329">
        <ele>116</ele>
        <time>2017-07-23T07:34:02.128Z</time>
      </trkpt>
      <trkpt lat="47.80133" lon="2.29329">
        <ele>116</ele>
        <time>2017-07-23T07:34:03.126Z</time>
      </trkpt>
      <trkpt lat="47.80128" lon="2.29328">
        <ele>115</ele>
        <time>2017-07-23T07:34:04.129Z</time>
      </trkpt>
      <trkpt lat="47.80128" lon="2.29328">
        <ele>115</ele>
        <time>2017-07-23T07:34:05.123Z</time>
      </trkpt>
      <trkpt lat="47.80122" lon="2.29329">
        <ele>115</ele>
        <time>2017-07-23T07:34:06.128Z</time>
      </trkpt>
      <trkpt lat="47.80122" lon="2.29329">
        <ele>115</ele>
        <time>2017-07-23T07:34:07.123Z</time>
      </trkpt>
      <trkpt lat="47.80116" lon="2.29329">
        <ele>114</ele>
        <time>2017-07-23T07:34:08.144Z</time>
      </trkpt>
      <trkpt lat="47.80113" lon="2.2933">
        <ele>114</ele>
        <time>2017-07-23T07:34:09.140Z</time>
      </trkpt>
      <trkpt lat="47.80113" lon="2.2933">
        <ele>114</ele>
        <time>2017-07-23T07:34:10.128Z</time>
      </trkpt>
      <trkpt lat="47.80109" lon="2.2933">
        <ele>114</ele>
        <time>2017-07-23T07:34:11.128Z</time>
      </trkpt>
      <trkpt lat="47.80107" lon="2.2933">
        <ele>114</ele>
        <time>2017-07-23T07:34:12.129Z</time>
      </trkpt>
      <trkpt lat="47.80107" lon="2.2933">
        <ele>114</ele>
        <time>2017-07-23T07:34:13.125Z</time>
      </trkpt>
      <trkpt lat="47.80104" lon="2.29335">
        <ele>114</ele>
        <time>2017-07-23T07:34:14.128Z</time>
      </trkpt>
      <trkpt lat="47.80104" lon="2.29335">
        <ele>114</ele>
        <time>2017-07-23T07:34:15.126Z</time>
      </trkpt>
      <trkpt lat="47.80104" lon="2.2934">
        <ele>113</ele>
        <time>2017-07-23T07:34:16.129Z</time>
      </trkpt>
      <trkpt lat="47.80104" lon="2.29343">
        <ele>113</ele>
        <time>2017-07-23T07:34:17.129Z</time>
      </trkpt>
      <trkpt lat="47.80104" lon="2.29343">
        <ele>113</ele>
        <time>2017-07-23T07:34:18.125Z</time>
      </trkpt>
      <trkpt lat="47.80105" lon="2.29349">
        <ele>113</ele>
        <time>2017-07-23T07:34:19.118Z</time>
      </trkpt>
      <trkpt lat="47.80105" lon="2.29349">
        <ele>113</ele>
        <time>2017-07-23T07:34:20.128Z</time>
      </trkpt>
      <trkpt lat="47.80105" lon="2.29349">
        <ele>113</ele>
        <time>2017-07-23T07:34:21.129Z</time>
      </trkpt>
      <trkpt lat="47.80105" lon="2.29348">
        <ele>113</ele>
        <time>2017-07-23T07:34:22.130Z</time>
      </trkpt>
      <trkpt lat="47.80105" lon="2.29348">
        <ele>113</ele>
        <time>2017-07-23T07:34:23.126Z</time>
      </trkpt>
      <trkpt lat="47.80105" lon="2.29348">
        <ele>113</ele>
        <time>2017-07-23T07:34:24.112Z</time>
      </trkpt>
      <trkpt lat="47.80101" lon="2.29354">
        <ele>113</ele>
        <time>2017-07-23T07:34:25.142Z</time>
      </trkpt>
      <trkpt lat="47.80095" lon="2.29353">
        <ele>113</ele>
        <time>2017-07-23T07:34:26.138Z</time>
      </trkpt>
      <trkpt lat="47.80092" lon="2.29352">
        <ele>113</ele>
        <time>2017-07-23T07:34:27.138Z</time>
      </trkpt>
      <trkpt lat="47.80092" lon="2.29352">
        <ele>113</ele>
        <time>2017-07-23T07:34:28.136Z</time>
      </trkpt>
      <trkpt lat="47.80083" lon="2.29351">
        <ele>113</ele>
        <time>2017-07-23T07:34:29.150Z</time>
      </trkpt>
      <trkpt lat="47.80083" lon="2.29351">
        <ele>113</ele>
        <time>2017-07-23T07:34:30.110Z</time>
      </trkpt>
      <trkpt lat="47.80073" lon="2.2935">
        <ele>113</ele>
        <time>2017-07-23T07:34:31.139Z</time>
      </trkpt>
      <trkpt lat="47.80073" lon="2.2935">
        <ele>113</ele>
        <time>2017-07-23T07:34:32.136Z</time>
      </trkpt>
      <trkpt lat="47.80063" lon="2.29349">
        <ele>113</ele>
        <time>2017-07-23T07:34:33.138Z</time>
      </trkpt>
      <trkpt lat="47.80063" lon="2.29349">
        <ele>113</ele>
        <time>2017-07-23T07:34:34.149Z</time>
      </trkpt>
      <trkpt lat="47.80053" lon="2.29347">
        <ele>113</ele>
        <time>2017-07-23T07:34:35.141Z</time>
      </trkpt>
      <trkpt lat="47.80048" lon="2.29347">
        <ele>113</ele>
        <time>2017-07-23T07:34:36.140Z</time>
      </trkpt>
      <trkpt lat="47.80043" lon="2.29347">
        <ele>113</ele>
        <time>2017-07-23T07:34:37.140Z</time>
      </trkpt>
      <trkpt lat="47.80043" lon="2.29347">
        <ele>113</ele>
        <time>2017-07-23T07:34:38.114Z</time>
      </trkpt>
      <trkpt lat="47.80032" lon="2.29345">
        <ele>113</ele>
        <time>2017-07-23T07:34:39.108Z</time>
      </trkpt>
      <trkpt lat="47.80026" lon="2.29345">
        <ele>113</ele>
        <time>2017-07-23T07:34:40.140Z</time>
      </trkpt>
      <trkpt lat="47.80021" lon="2.29344">
        <ele>113</ele>
        <time>2017-07-23T07:34:41.141Z</time>
      </trkpt>
      <trkpt lat="47.80021" lon="2.29344">
        <ele>113</ele>
        <time>2017-07-23T07:34:42.136Z</time>
      </trkpt>
      <trkpt lat="47.8001" lon="2.29342">
        <ele>113</ele>
        <time>2017-07-23T07:34:43.140Z</time>
      </trkpt>
      <trkpt lat="47.8001" lon="2.29342">
        <ele>113</ele>
        <time>2017-07-23T07:34:44.134Z</time>
      </trkpt>
      <trkpt lat="47.79999" lon="2.2934">
        <ele>113</ele>
        <time>2017-07-23T07:34:45.143Z</time>
      </trkpt>
      <trkpt lat="47.79999" lon="2.2934">
        <ele>113</ele>
        <time>2017-07-23T07:34:46.136Z</time>
      </trkpt>
      <trkpt lat="47.79987" lon="2.29337">
        <ele>112</ele>
        <time>2017-07-23T07:34:47.141Z</time>
      </trkpt>
      <trkpt lat="47.79987" lon="2.29337">
        <ele>112</ele>
        <time>2017-07-23T07:34:48.133Z</time>
      </trkpt>
      <trkpt lat="47.79976" lon="2.29335">
        <ele>112</ele>
        <time>2017-07-23T07:34:49.141Z</time>
      </trkpt>
      <trkpt lat="47.7997" lon="2.29333">
        <ele>112</ele>
        <time>2017-07-23T07:34:50.139Z</time>
      </trkpt>
      <trkpt lat="47.7997" lon="2.29333">
        <ele>112</ele>
        <time>2017-07-23T07:34:51.137Z</time>
      </trkpt>
      <trkpt lat="47.79958" lon="2.2933">
        <ele>112</ele>
        <time>2017-07-23T07:34:52.140Z</time>
      </trkpt>
      <trkpt lat="47.79958" lon="2.2933">
        <ele>112</ele>
        <time>2017-07-23T07:34:53.137Z</time>
      </trkpt>
      <trkpt lat="47.79947" lon="2.29327">
        <ele>113</ele>
        <time>2017-07-23T07:34:54.139Z</time>
      </trkpt>
      <trkpt lat="47.79942" lon="2.29324">
        <ele>113</ele>
        <time>2017-07-23T07:34:55.140Z</time>
      </trkpt>
      <trkpt lat="47.79942" lon="2.29324">
        <ele>113</ele>
        <time>2017-07-23T07:34:56.133Z</time>
      </trkpt>
      <trkpt lat="47.79931" lon="2.2932">
        <ele>113</ele>
        <time>2017-07-23T07:34:57.143Z</time>
      </trkpt>
      <trkpt lat="47.79931" lon="2.2932">
        <ele>113</ele>
        <time>2017-07-23T07:34:58.136Z</time>
      </trkpt>
      <trkpt lat="47.79921" lon="2.29317">
        <ele>113</ele>
        <time>2017-07-23T07:34:59.140Z</time>
      </trkpt>
      <trkpt lat="47.79921" lon="2.29317">
        <ele>113</ele>
        <time>2017-07-23T07:35:00.136Z</time>
      </trkpt>
      <trkpt lat="47.7991" lon="2.29313">
        <ele>113</ele>
        <time>2017-07-23T07:35:01.140Z</time>
      </trkpt>
      <trkpt lat="47.7991" lon="2.29313">
        <ele>113</ele>
        <time>2017-07-23T07:35:02.136Z</time>
      </trkpt>
      <trkpt lat="47.79899" lon="2.29309">
        <ele>113</ele>
        <time>2017-07-23T07:35:03.140Z</time>
      </trkpt>
      <trkpt lat="47.79899" lon="2.29309">
        <ele>113</ele>
        <time>2017-07-23T07:35:04.137Z</time>
      </trkpt>
      <trkpt lat="47.79888" lon="2.29305">
        <ele>113</ele>
        <time>2017-07-23T07:35:05.115Z</time>
      </trkpt>
      <trkpt lat="47.79883" lon="2.29303">
        <ele>113</ele>
        <time>2017-07-23T07:35:06.140Z</time>
      </trkpt>
      <trkpt lat="47.79883" lon="2.29303">
        <ele>113</ele>
        <time>2017-07-23T07:35:07.138Z</time>
      </trkpt>
      <trkpt lat="47.79872" lon="2.29299">
        <ele>112</ele>
        <time>2017-07-23T07:35:08.139Z</time>
      </trkpt>
      <trkpt lat="47.79867" lon="2.29297">
        <ele>112</ele>
        <time>2017-07-23T07:35:09.137Z</time>
      </trkpt>
      <trkpt lat="47.79867" lon="2.29297">
        <ele>112</ele>
        <time>2017-07-23T07:35:10.135Z</time>
      </trkpt>
      <trkpt lat="47.79856" lon="2.29294">
        <ele>111</ele>
        <time>2017-07-23T07:35:11.140Z</time>
      </trkpt>
      <trkpt lat="47.79856" lon="2.29294">
        <ele>111</ele>
        <time>2017-07-23T07:35:12.136Z</time>
      </trkpt>
      <trkpt lat="47.79845" lon="2.2929">
        <ele>111</ele>
        <time>2017-07-23T07:35:13.140Z</time>
      </trkpt>
      <trkpt lat="47.79845" lon="2.2929">
        <ele>111</ele>
        <time>2017-07-23T07:35:14.134Z</time>
      </trkpt>
      <trkpt lat="47.79834" lon="2.29286">
        <ele>111</ele>
        <time>2017-07-23T07:35:15.140Z</time>
      </trkpt>
      <trkpt lat="47.79834" lon="2.29286">
        <ele>111</ele>
        <time>2017-07-23T07:35:16.137Z</time>
      </trkpt>
      <trkpt lat="47.79824" lon="2.29283">
        <ele>112</ele>
        <time>2017-07-23T07:35:17.141Z</time>
      </trkpt>
      <trkpt lat="47.79824" lon="2.29283">
        <ele>112</ele>
        <time>2017-07-23T07:35:18.134Z</time>
      </trkpt>
      <trkpt lat="47.79813" lon="2.29281">
        <ele>111</ele>
        <time>2017-07-23T07:35:19.139Z</time>
      </trkpt>
      <trkpt lat="47.79813" lon="2.29281">
        <ele>111</ele>
        <time>2017-07-23T07:35:20.144Z</time>
      </trkpt>
      <trkpt lat="47.79802" lon="2.29279">
        <ele>112</ele>
        <time>2017-07-23T07:35:21.139Z</time>
      </trkpt>
      <trkpt lat="47.79802" lon="2.29279">
        <ele>112</ele>
        <time>2017-07-23T07:35:22.137Z</time>
      </trkpt>
      <trkpt lat="47.79792" lon="2.29278">
        <ele>111</ele>
        <time>2017-07-23T07:35:23.140Z</time>
      </trkpt>
      <trkpt lat="47.79787" lon="2.29278">
        <ele>111</ele>
        <time>2017-07-23T07:35:24.139Z</time>
      </trkpt>
      <trkpt lat="47.79782" lon="2.29279">
        <ele>111</ele>
        <time>2017-07-23T07:35:25.139Z</time>
      </trkpt>
      <trkpt lat="47.79782" lon="2.29279">
        <ele>111</ele>
        <time>2017-07-23T07:35:26.136Z</time>
      </trkpt>
      <trkpt lat="47.79773" lon="2.29279">
        <ele>111</ele>
        <time>2017-07-23T07:35:27.136Z</time>
      </trkpt>
      <trkpt lat="47.79773" lon="2.29279">
        <ele>111</ele>
        <time>2017-07-23T07:35:28.134Z</time>
      </trkpt>
      <trkpt lat="47.79764" lon="2.29279">
        <ele>111</ele>
        <time>2017-07-23T07:35:29.141Z</time>
      </trkpt>
      <trkpt lat="47.79764" lon="2.29279">
        <ele>111</ele>
        <time>2017-07-23T07:35:30.136Z</time>
      </trkpt>
      <trkpt lat="47.79754" lon="2.2928">
        <ele>111</ele>
        <time>2017-07-23T07:35:31.140Z</time>
      </trkpt>
      <trkpt lat="47.79754" lon="2.2928">
        <ele>111</ele>
        <time>2017-07-23T07:35:32.136Z</time>
      </trkpt>
      <trkpt lat="47.79745" lon="2.29282">
        <ele>110</ele>
        <time>2017-07-23T07:35:33.139Z</time>
      </trkpt>
      <trkpt lat="47.79745" lon="2.29282">
        <ele>110</ele>
        <time>2017-07-23T07:35:34.137Z</time>
      </trkpt>
      <trkpt lat="47.79745" lon="2.29282">
        <ele>110</ele>
        <time>2017-07-23T07:35:35.140Z</time>
      </trkpt>
      <trkpt lat="47.79736" lon="2.29283">
        <ele>110</ele>
        <time>2017-07-23T07:35:36.145Z</time>
      </trkpt>
      <trkpt lat="47.79726" lon="2.29285">
        <ele>110</ele>
        <time>2017-07-23T07:35:37.140Z</time>
      </trkpt>
      <trkpt lat="47.79726" lon="2.29285">
        <ele>110</ele>
        <time>2017-07-23T07:35:38.115Z</time>
      </trkpt>
      <trkpt lat="47.79714" lon="2.29285">
        <ele>110</ele>
        <time>2017-07-23T07:35:39.110Z</time>
      </trkpt>
      <trkpt lat="47.79709" lon="2.29283">
        <ele>110</ele>
        <time>2017-07-23T07:35:40.145Z</time>
      </trkpt>
      <trkpt lat="47.79703" lon="2.29281">
        <ele>109</ele>
        <time>2017-07-23T07:35:41.138Z</time>
      </trkpt>
      <trkpt lat="47.79703" lon="2.29281">
        <ele>109</ele>
        <time>2017-07-23T07:35:42.135Z</time>
      </trkpt>
      <trkpt lat="47.79691" lon="2.29275">
        <ele>108</ele>
        <time>2017-07-23T07:35:43.140Z</time>
      </trkpt>
      <trkpt lat="47.79691" lon="2.29275">
        <ele>108</ele>
        <time>2017-07-23T07:35:44.144Z</time>
      </trkpt>
      <trkpt lat="47.79678" lon="2.29269">
        <ele>107</ele>
        <time>2017-07-23T07:35:45.137Z</time>
      </trkpt>
      <trkpt lat="47.79678" lon="2.29269">
        <ele>107</ele>
        <time>2017-07-23T07:35:46.135Z</time>
      </trkpt>
      <trkpt lat="47.79663" lon="2.29265">
        <ele>106</ele>
        <time>2017-07-23T07:35:47.140Z</time>
      </trkpt>
      <trkpt lat="47.79663" lon="2.29265">
        <ele>106</ele>
        <time>2017-07-23T07:35:48.131Z</time>
      </trkpt>
      <trkpt lat="47.79649" lon="2.29264">
        <ele>106</ele>
        <time>2017-07-23T07:35:49.140Z</time>
      </trkpt>
      <trkpt lat="47.79649" lon="2.29264">
        <ele>106</ele>
        <time>2017-07-23T07:35:50.137Z</time>
      </trkpt>
      <trkpt lat="47.79636" lon="2.29261">
        <ele>106</ele>
        <time>2017-07-23T07:35:51.139Z</time>
      </trkpt>
      <trkpt lat="47.79636" lon="2.29261">
        <ele>106</ele>
        <time>2017-07-23T07:35:52.135Z</time>
      </trkpt>
      <trkpt lat="47.79623" lon="2.29259">
        <ele>106</ele>
        <time>2017-07-23T07:35:53.141Z</time>
      </trkpt>
      <trkpt lat="47.79623" lon="2.29259">
        <ele>106</ele>
        <time>2017-07-23T07:35:54.137Z</time>
      </trkpt>
      <trkpt lat="47.79612" lon="2.29262">
        <ele>106</ele>
        <time>2017-07-23T07:35:55.140Z</time>
      </trkpt>
      <trkpt lat="47.79612" lon="2.29262">
        <ele>106</ele>
        <time>2017-07-23T07:35:56.137Z</time>
      </trkpt>
      <trkpt lat="47.79602" lon="2.29267">
        <ele>105</ele>
        <time>2017-07-23T07:35:57.138Z</time>
      </trkpt>
      <trkpt lat="47.79602" lon="2.29267">
        <ele>105</ele>
        <time>2017-07-23T07:35:58.123Z</time>
      </trkpt>
      <trkpt lat="47.79593" lon="2.29271">
        <ele>105</ele>
        <time>2017-07-23T07:35:59.147Z</time>
      </trkpt>
      <trkpt lat="47.79593" lon="2.29271">
        <ele>105</ele>
        <time>2017-07-23T07:36:00.138Z</time>
      </trkpt>
      <trkpt lat="47.79584" lon="2.29276">
        <ele>105</ele>
        <time>2017-07-23T07:36:01.140Z</time>
      </trkpt>
      <trkpt lat="47.79584" lon="2.29276">
        <ele>105</ele>
        <time>2017-07-23T07:36:02.136Z</time>
      </trkpt>
      <trkpt lat="47.79574" lon="2.29281">
        <ele>105</ele>
        <time>2017-07-23T07:36:03.139Z</time>
      </trkpt>
      <trkpt lat="47.79574" lon="2.29281">
        <ele>105</ele>
        <time>2017-07-23T07:36:04.134Z</time>
      </trkpt>
      <trkpt lat="47.79565" lon="2.29286">
        <ele>105</ele>
        <time>2017-07-23T07:36:05.140Z</time>
      </trkpt>
      <trkpt lat="47.79565" lon="2.29286">
        <ele>105</ele>
        <time>2017-07-23T07:36:06.137Z</time>
      </trkpt>
      <trkpt lat="47.79556" lon="2.29291">
        <ele>105</ele>
        <time>2017-07-23T07:36:07.140Z</time>
      </trkpt>
      <trkpt lat="47.79556" lon="2.29291">
        <ele>105</ele>
        <time>2017-07-23T07:36:08.134Z</time>
      </trkpt>
      <trkpt lat="47.79547" lon="2.29296">
        <ele>105</ele>
        <time>2017-07-23T07:36:09.137Z</time>
      </trkpt>
      <trkpt lat="47.79547" lon="2.29296">
        <ele>105</ele>
        <time>2017-07-23T07:36:10.136Z</time>
      </trkpt>
      <trkpt lat="47.79538" lon="2.29302">
        <ele>105</ele>
        <time>2017-07-23T07:36:11.149Z</time>
      </trkpt>
      <trkpt lat="47.79538" lon="2.29302">
        <ele>105</ele>
        <time>2017-07-23T07:36:12.135Z</time>
      </trkpt>
      <trkpt lat="47.7953" lon="2.29308">
        <ele>105</ele>
        <time>2017-07-23T07:36:13.140Z</time>
      </trkpt>
      <trkpt lat="47.7953" lon="2.29308">
        <ele>105</ele>
        <time>2017-07-23T07:36:14.137Z</time>
      </trkpt>
      <trkpt lat="47.79521" lon="2.29314">
        <ele>105</ele>
        <time>2017-07-23T07:36:15.139Z</time>
      </trkpt>
      <trkpt lat="47.79521" lon="2.29314">
        <ele>105</ele>
        <time>2017-07-23T07:36:16.134Z</time>
      </trkpt>
      <trkpt lat="47.79512" lon="2.2932">
        <ele>105</ele>
        <time>2017-07-23T07:36:17.140Z</time>
      </trkpt>
      <trkpt lat="47.79512" lon="2.2932">
        <ele>105</ele>
        <time>2017-07-23T07:36:18.131Z</time>
      </trkpt>
      <trkpt lat="47.79503" lon="2.29325">
        <ele>105</ele>
        <time>2017-07-23T07:36:19.120Z</time>
      </trkpt>
      <trkpt lat="47.79503" lon="2.29325">
        <ele>105</ele>
        <time>2017-07-23T07:36:20.110Z</time>
      </trkpt>
      <trkpt lat="47.79495" lon="2.29329">
        <ele>105</ele>
        <time>2017-07-23T07:36:21.139Z</time>
      </trkpt>
      <trkpt lat="47.79495" lon="2.29329">
        <ele>105</ele>
        <time>2017-07-23T07:36:22.137Z</time>
      </trkpt>
      <trkpt lat="47.79488" lon="2.29333">
        <ele>105</ele>
        <time>2017-07-23T07:36:23.141Z</time>
      </trkpt>
      <trkpt lat="47.79488" lon="2.29333">
        <ele>105</ele>
        <time>2017-07-23T07:36:24.134Z</time>
      </trkpt>
      <trkpt lat="47.7948" lon="2.29338">
        <ele>105</ele>
        <time>2017-07-23T07:36:25.140Z</time>
      </trkpt>
      <trkpt lat="47.7948" lon="2.29338">
        <ele>105</ele>
        <time>2017-07-23T07:36:26.138Z</time>
      </trkpt>
      <trkpt lat="47.79471" lon="2.29343">
        <ele>105</ele>
        <time>2017-07-23T07:36:27.140Z</time>
      </trkpt>
      <trkpt lat="47.79467" lon="2.29346">
        <ele>105</ele>
        <time>2017-07-23T07:36:28.139Z</time>
      </trkpt>
      <trkpt lat="47.79467" lon="2.29346">
        <ele>105</ele>
        <time>2017-07-23T07:36:29.121Z</time>
      </trkpt>
      <trkpt lat="47.79458" lon="2.29352">
        <ele>105</ele>
        <time>2017-07-23T07:36:30.109Z</time>
      </trkpt>
      <trkpt lat="47.79453" lon="2.29356">
        <ele>105</ele>
        <time>2017-07-23T07:36:31.140Z</time>
      </trkpt>
      <trkpt lat="47.79453" lon="2.29356">
        <ele>105</ele>
        <time>2017-07-23T07:36:32.136Z</time>
      </trkpt>
      <trkpt lat="47.79444" lon="2.29362">
        <ele>106</ele>
        <time>2017-07-23T07:36:33.145Z</time>
      </trkpt>
      <trkpt lat="47.79444" lon="2.29362">
        <ele>106</ele>
        <time>2017-07-23T07:36:34.138Z</time>
      </trkpt>
      <trkpt lat="47.79436" lon="2.29369">
        <ele>106</ele>
        <time>2017-07-23T07:36:35.140Z</time>
      </trkpt>
      <trkpt lat="47.79436" lon="2.29369">
        <ele>106</ele>
        <time>2017-07-23T07:36:36.135Z</time>
      </trkpt>
      <trkpt lat="47.79428" lon="2.29376">
        <ele>106</ele>
        <time>2017-07-23T07:36:37.140Z</time>
      </trkpt>
      <trkpt lat="47.79428" lon="2.29376">
        <ele>106</ele>
        <time>2017-07-23T07:36:38.135Z</time>
      </trkpt>
      <trkpt lat="47.79421" lon="2.29384">
        <ele>107</ele>
        <time>2017-07-23T07:36:39.140Z</time>
      </trkpt>
      <trkpt lat="47.79416" lon="2.29387">
        <ele>107</ele>
        <time>2017-07-23T07:36:40.113Z</time>
      </trkpt>
      <trkpt lat="47.79416" lon="2.29387">
        <ele>107</ele>
        <time>2017-07-23T07:36:41.147Z</time>
      </trkpt>
      <trkpt lat="47.79408" lon="2.29394">
        <ele>107</ele>
        <time>2017-07-23T07:36:42.139Z</time>
      </trkpt>
      <trkpt lat="47.79403" lon="2.29397">
        <ele>107</ele>
        <time>2017-07-23T07:36:43.153Z</time>
      </trkpt>
      <trkpt lat="47.79403" lon="2.29397">
        <ele>107</ele>
        <time>2017-07-23T07:36:44.111Z</time>
      </trkpt>
      <trkpt lat="47.79394" lon="2.29403">
        <ele>108</ele>
        <time>2017-07-23T07:36:45.141Z</time>
      </trkpt>
      <trkpt lat="47.79394" lon="2.29403">
        <ele>108</ele>
        <time>2017-07-23T07:36:46.137Z</time>
      </trkpt>
      <trkpt lat="47.79386" lon="2.29408">
        <ele>108</ele>
        <time>2017-07-23T07:36:47.138Z</time>
      </trkpt>
      <trkpt lat="47.79386" lon="2.29408">
        <ele>108</ele>
        <time>2017-07-23T07:36:48.131Z</time>
      </trkpt>
      <trkpt lat="47.79378" lon="2.29414">
        <ele>108</ele>
        <time>2017-07-23T07:36:49.121Z</time>
      </trkpt>
      <trkpt lat="47.79378" lon="2.29414">
        <ele>108</ele>
        <time>2017-07-23T07:36:50.112Z</time>
      </trkpt>
      <trkpt lat="47.79369" lon="2.29421">
        <ele>108</ele>
        <time>2017-07-23T07:36:51.144Z</time>
      </trkpt>
      <trkpt lat="47.79369" lon="2.29421">
        <ele>108</ele>
        <time>2017-07-23T07:36:52.136Z</time>
      </trkpt>
      <trkpt lat="47.7936" lon="2.29427">
        <ele>108</ele>
        <time>2017-07-23T07:36:53.142Z</time>
      </trkpt>
      <trkpt lat="47.7936" lon="2.29427">
        <ele>108</ele>
        <time>2017-07-23T07:36:54.108Z</time>
      </trkpt>
      <trkpt lat="47.79351" lon="2.29433">
        <ele>108</ele>
        <time>2017-07-23T07:36:55.140Z</time>
      </trkpt>
      <trkpt lat="47.79351" lon="2.29433">
        <ele>108</ele>
        <time>2017-07-23T07:36:56.137Z</time>
      </trkpt>
      <trkpt lat="47.79342" lon="2.29438">
        <ele>109</ele>
        <time>2017-07-23T07:36:57.139Z</time>
      </trkpt>
      <trkpt lat="47.79342" lon="2.29438">
        <ele>109</ele>
        <time>2017-07-23T07:36:58.115Z</time>
      </trkpt>
      <trkpt lat="47.79338" lon="2.29441">
        <ele>109</ele>
        <time>2017-07-23T07:36:59.138Z</time>
      </trkpt>
      <trkpt lat="47.7933" lon="2.29447">
        <ele>110</ele>
        <time>2017-07-23T07:37:00.139Z</time>
      </trkpt>
      <trkpt lat="47.79326" lon="2.29449">
        <ele>110</ele>
        <time>2017-07-23T07:37:01.140Z</time>
      </trkpt>
      <trkpt lat="47.79326" lon="2.29449">
        <ele>110</ele>
        <time>2017-07-23T07:37:02.137Z</time>
      </trkpt>
      <trkpt lat="47.79318" lon="2.29454">
        <ele>110</ele>
        <time>2017-07-23T07:37:03.139Z</time>
      </trkpt>
      <trkpt lat="47.79314" lon="2.29457">
        <ele>110</ele>
        <time>2017-07-23T07:37:04.140Z</time>
      </trkpt>
      <trkpt lat="47.79314" lon="2.29457">
        <ele>110</ele>
        <time>2017-07-23T07:37:05.137Z</time>
      </trkpt>
      <trkpt lat="47.79305" lon="2.29463">
        <ele>111</ele>
        <time>2017-07-23T07:37:06.139Z</time>
      </trkpt>
      <trkpt lat="47.793" lon="2.29465">
        <ele>111</ele>
        <time>2017-07-23T07:37:07.140Z</time>
      </trkpt>
      <trkpt lat="47.793" lon="2.29465">
        <ele>111</ele>
        <time>2017-07-23T07:37:08.136Z</time>
      </trkpt>
      <trkpt lat="47.79292" lon="2.29471">
        <ele>111</ele>
        <time>2017-07-23T07:37:09.139Z</time>
      </trkpt>
      <trkpt lat="47.79288" lon="2.29474">
        <ele>111</ele>
        <time>2017-07-23T07:37:10.136Z</time>
      </trkpt>
      <trkpt lat="47.79283" lon="2.29477">
        <ele>111</ele>
        <time>2017-07-23T07:37:11.140Z</time>
      </trkpt>
      <trkpt lat="47.79283" lon="2.29477">
        <ele>111</ele>
        <time>2017-07-23T07:37:12.136Z</time>
      </trkpt>
      <trkpt lat="47.79275" lon="2.29484">
        <ele>111</ele>
        <time>2017-07-23T07:37:13.140Z</time>
      </trkpt>
      <trkpt lat="47.79275" lon="2.29484">
        <ele>111</ele>
        <time>2017-07-23T07:37:14.143Z</time>
      </trkpt>
      <trkpt lat="47.79266" lon="2.29489">
        <ele>111</ele>
        <time>2017-07-23T07:37:15.139Z</time>
      </trkpt>
      <trkpt lat="47.79266" lon="2.29489">
        <ele>111</ele>
        <time>2017-07-23T07:37:16.136Z</time>
      </trkpt>
      <trkpt lat="47.79256" lon="2.29494">
        <ele>110</ele>
        <time>2017-07-23T07:37:17.141Z</time>
      </trkpt>
      <trkpt lat="47.79256" lon="2.29494">
        <ele>110</ele>
        <time>2017-07-23T07:37:18.134Z</time>
      </trkpt>
      <trkpt lat="47.79247" lon="2.295">
        <ele>110</ele>
        <time>2017-07-23T07:37:19.139Z</time>
      </trkpt>
      <trkpt lat="47.79247" lon="2.295">
        <ele>110</ele>
        <time>2017-07-23T07:37:20.134Z</time>
      </trkpt>
      <trkpt lat="47.79237" lon="2.29508">
        <ele>110</ele>
        <time>2017-07-23T07:37:21.138Z</time>
      </trkpt>
      <trkpt lat="47.79237" lon="2.29508">
        <ele>110</ele>
        <time>2017-07-23T07:37:22.136Z</time>
      </trkpt>
      <trkpt lat="47.79229" lon="2.29517">
        <ele>111</ele>
        <time>2017-07-23T07:37:23.140Z</time>
      </trkpt>
      <trkpt lat="47.79229" lon="2.29517">
        <ele>111</ele>
        <time>2017-07-23T07:37:24.134Z</time>
      </trkpt>
      <trkpt lat="47.79221" lon="2.29527">
        <ele>111</ele>
        <time>2017-07-23T07:37:25.140Z</time>
      </trkpt>
      <trkpt lat="47.79221" lon="2.29527">
        <ele>111</ele>
        <time>2017-07-23T07:37:26.136Z</time>
      </trkpt>
      <trkpt lat="47.79214" lon="2.29536">
        <ele>111</ele>
        <time>2017-07-23T07:37:27.139Z</time>
      </trkpt>
      <trkpt lat="47.79214" lon="2.29536">
        <ele>111</ele>
        <time>2017-07-23T07:37:28.134Z</time>
      </trkpt>
      <trkpt lat="47.79205" lon="2.29545">
        <ele>111</ele>
        <time>2017-07-23T07:37:29.133Z</time>
      </trkpt>
      <trkpt lat="47.79201" lon="2.29548">
        <ele>111</ele>
        <time>2017-07-23T07:37:30.139Z</time>
      </trkpt>
      <trkpt lat="47.79196" lon="2.29552">
        <ele>111</ele>
        <time>2017-07-23T07:37:31.140Z</time>
      </trkpt>
      <trkpt lat="47.79196" lon="2.29552">
        <ele>111</ele>
        <time>2017-07-23T07:37:32.137Z</time>
      </trkpt>
      <trkpt lat="47.79187" lon="2.2956">
        <ele>111</ele>
        <time>2017-07-23T07:37:33.139Z</time>
      </trkpt>
      <trkpt lat="47.79187" lon="2.2956">
        <ele>111</ele>
        <time>2017-07-23T07:37:34.134Z</time>
      </trkpt>
      <trkpt lat="47.79179" lon="2.2957">
        <ele>111</ele>
        <time>2017-07-23T07:37:35.140Z</time>
      </trkpt>
      <trkpt lat="47.79179" lon="2.2957">
        <ele>111</ele>
        <time>2017-07-23T07:37:36.136Z</time>
      </trkpt>
      <trkpt lat="47.79171" lon="2.29581">
        <ele>111</ele>
        <time>2017-07-23T07:37:37.137Z</time>
      </trkpt>
      <trkpt lat="47.79171" lon="2.29581">
        <ele>111</ele>
        <time>2017-07-23T07:37:38.134Z</time>
      </trkpt>
      <trkpt lat="47.79164" lon="2.29593">
        <ele>110</ele>
        <time>2017-07-23T07:37:39.140Z</time>
      </trkpt>
      <trkpt lat="47.79161" lon="2.29599">
        <ele>110</ele>
        <time>2017-07-23T07:37:40.139Z</time>
      </trkpt>
      <trkpt lat="47.79158" lon="2.29604">
        <ele>110</ele>
        <time>2017-07-23T07:37:41.140Z</time>
      </trkpt>
      <trkpt lat="47.79158" lon="2.29604">
        <ele>110</ele>
        <time>2017-07-23T07:37:42.137Z</time>
      </trkpt>
      <trkpt lat="47.79152" lon="2.29617">
        <ele>111</ele>
        <time>2017-07-23T07:37:43.140Z</time>
      </trkpt>
      <trkpt lat="47.79152" lon="2.29617">
        <ele>111</ele>
        <time>2017-07-23T07:37:44.138Z</time>
      </trkpt>
      <trkpt lat="47.79144" lon="2.29627">
        <ele>111</ele>
        <time>2017-07-23T07:37:45.139Z</time>
      </trkpt>
      <trkpt lat="47.79144" lon="2.29627">
        <ele>111</ele>
        <time>2017-07-23T07:37:46.137Z</time>
      </trkpt>
      <trkpt lat="47.79136" lon="2.29635">
        <ele>111</ele>
        <time>2017-07-23T07:37:47.154Z</time>
      </trkpt>
      <trkpt lat="47.79136" lon="2.29635">
        <ele>111</ele>
        <time>2017-07-23T07:37:48.112Z</time>
      </trkpt>
      <trkpt lat="47.79127" lon="2.29643">
        <ele>111</ele>
        <time>2017-07-23T07:37:49.140Z</time>
      </trkpt>
      <trkpt lat="47.79127" lon="2.29643">
        <ele>111</ele>
        <time>2017-07-23T07:37:50.121Z</time>
      </trkpt>
      <trkpt lat="47.79117" lon="2.29651">
        <ele>112</ele>
        <time>2017-07-23T07:37:51.109Z</time>
      </trkpt>
      <trkpt lat="47.79117" lon="2.29651">
        <ele>112</ele>
        <time>2017-07-23T07:37:52.136Z</time>
      </trkpt>
      <trkpt lat="47.79109" lon="2.29661">
        <ele>112</ele>
        <time>2017-07-23T07:37:53.142Z</time>
      </trkpt>
      <trkpt lat="47.79109" lon="2.29661">
        <ele>112</ele>
        <time>2017-07-23T07:37:54.136Z</time>
      </trkpt>
      <trkpt lat="47.79102" lon="2.29672">
        <ele>112</ele>
        <time>2017-07-23T07:37:55.140Z</time>
      </trkpt>
      <trkpt lat="47.79102" lon="2.29672">
        <ele>112</ele>
        <time>2017-07-23T07:37:56.134Z</time>
      </trkpt>
      <trkpt lat="47.79096" lon="2.29684">
        <ele>113</ele>
        <time>2017-07-23T07:37:57.140Z</time>
      </trkpt>
      <trkpt lat="47.79096" lon="2.29684">
        <ele>113</ele>
        <time>2017-07-23T07:37:58.134Z</time>
      </trkpt>
      <trkpt lat="47.7909" lon="2.29695">
        <ele>113</ele>
        <time>2017-07-23T07:37:59.141Z</time>
      </trkpt>
      <trkpt lat="47.7909" lon="2.29695">
        <ele>113</ele>
        <time>2017-07-23T07:38:00.137Z</time>
      </trkpt>
      <trkpt lat="47.79084" lon="2.29707">
        <ele>113</ele>
        <time>2017-07-23T07:38:01.139Z</time>
      </trkpt>
      <trkpt lat="47.79084" lon="2.29707">
        <ele>113</ele>
        <time>2017-07-23T07:38:02.136Z</time>
      </trkpt>
      <trkpt lat="47.79077" lon="2.29719">
        <ele>113</ele>
        <time>2017-07-23T07:38:03.139Z</time>
      </trkpt>
      <trkpt lat="47.79077" lon="2.29719">
        <ele>113</ele>
        <time>2017-07-23T07:38:04.137Z</time>
      </trkpt>
      <trkpt lat="47.7907" lon="2.29731">
        <ele>112</ele>
        <time>2017-07-23T07:38:05.140Z</time>
      </trkpt>
      <trkpt lat="47.7907" lon="2.29731">
        <ele>112</ele>
        <time>2017-07-23T07:38:06.136Z</time>
      </trkpt>
      <trkpt lat="47.79064" lon="2.29743">
        <ele>112</ele>
        <time>2017-07-23T07:38:07.140Z</time>
      </trkpt>
      <trkpt lat="47.79064" lon="2.29743">
        <ele>112</ele>
        <time>2017-07-23T07:38:08.134Z</time>
      </trkpt>
      <trkpt lat="47.79058" lon="2.29755">
        <ele>112</ele>
        <time>2017-07-23T07:38:09.140Z</time>
      </trkpt>
      <trkpt lat="47.79058" lon="2.29755">
        <ele>112</ele>
        <time>2017-07-23T07:38:10.134Z</time>
      </trkpt>
      <trkpt lat="47.79051" lon="2.29767">
        <ele>112</ele>
        <time>2017-07-23T07:38:11.142Z</time>
      </trkpt>
      <trkpt lat="47.79051" lon="2.29767">
        <ele>112</ele>
        <time>2017-07-23T07:38:12.135Z</time>
      </trkpt>
      <trkpt lat="47.79046" lon="2.2978">
        <ele>112</ele>
        <time>2017-07-23T07:38:13.140Z</time>
      </trkpt>
      <trkpt lat="47.79046" lon="2.2978">
        <ele>112</ele>
        <time>2017-07-23T07:38:14.134Z</time>
      </trkpt>
      <trkpt lat="47.79041" lon="2.29794">
        <ele>111</ele>
        <time>2017-07-23T07:38:15.139Z</time>
      </trkpt>
      <trkpt lat="47.79041" lon="2.29794">
        <ele>111</ele>
        <time>2017-07-23T07:38:16.136Z</time>
      </trkpt>
      <trkpt lat="47.79036" lon="2.29809">
        <ele>111</ele>
        <time>2017-07-23T07:38:17.141Z</time>
      </trkpt>
      <trkpt lat="47.79036" lon="2.29809">
        <ele>111</ele>
        <time>2017-07-23T07:38:18.134Z</time>
      </trkpt>
      <trkpt lat="47.79032" lon="2.29825">
        <ele>111</ele>
        <time>2017-07-23T07:38:19.140Z</time>
      </trkpt>
      <trkpt lat="47.79032" lon="2.29825">
        <ele>111</ele>
        <time>2017-07-23T07:38:20.134Z</time>
      </trkpt>
      <trkpt lat="47.79028" lon="2.2984">
        <ele>111</ele>
        <time>2017-07-23T07:38:21.139Z</time>
      </trkpt>
      <trkpt lat="47.79028" lon="2.2984">
        <ele>111</ele>
        <time>2017-07-23T07:38:22.137Z</time>
      </trkpt>
      <trkpt lat="47.79024" lon="2.29856">
        <ele>112</ele>
        <time>2017-07-23T07:38:23.141Z</time>
      </trkpt>
      <trkpt lat="47.79024" lon="2.29856">
        <ele>112</ele>
        <time>2017-07-23T07:38:24.138Z</time>
      </trkpt>
      <trkpt lat="47.7902" lon="2.29871">
        <ele>112</ele>
        <time>2017-07-23T07:38:25.140Z</time>
      </trkpt>
      <trkpt lat="47.7902" lon="2.29871">
        <ele>112</ele>
        <time>2017-07-23T07:38:26.137Z</time>
      </trkpt>
      <trkpt lat="47.79017" lon="2.29886">
        <ele>112</ele>
        <time>2017-07-23T07:38:27.136Z</time>
      </trkpt>
      <trkpt lat="47.79017" lon="2.29886">
        <ele>112</ele>
        <time>2017-07-23T07:38:28.135Z</time>
      </trkpt>
      <trkpt lat="47.79013" lon="2.29901">
        <ele>112</ele>
        <time>2017-07-23T07:38:29.141Z</time>
      </trkpt>
      <trkpt lat="47.79012" lon="2.29909">
        <ele>112</ele>
        <time>2017-07-23T07:38:30.138Z</time>
      </trkpt>
      <trkpt lat="47.79012" lon="2.29909">
        <ele>112</ele>
        <time>2017-07-23T07:38:31.138Z</time>
      </trkpt>
      <trkpt lat="47.7901" lon="2.29925">
        <ele>112</ele>
        <time>2017-07-23T07:38:32.139Z</time>
      </trkpt>
      <trkpt lat="47.7901" lon="2.29925">
        <ele>112</ele>
        <time>2017-07-23T07:38:33.113Z</time>
      </trkpt>
      <trkpt lat="47.79009" lon="2.29941">
        <ele>112</ele>
        <time>2017-07-23T07:38:34.142Z</time>
      </trkpt>
      <trkpt lat="47.79009" lon="2.29941">
        <ele>112</ele>
        <time>2017-07-23T07:38:35.140Z</time>
      </trkpt>
      <trkpt lat="47.79008" lon="2.29956">
        <ele>112</ele>
        <time>2017-07-23T07:38:36.140Z</time>
      </trkpt>
      <trkpt lat="47.79007" lon="2.29963">
        <ele>113</ele>
        <time>2017-07-23T07:38:37.140Z</time>
      </trkpt>
      <trkpt lat="47.79007" lon="2.29963">
        <ele>113</ele>
        <time>2017-07-23T07:38:38.133Z</time>
      </trkpt>
      <trkpt lat="47.79004" lon="2.29978">
        <ele>112</ele>
        <time>2017-07-23T07:38:39.121Z</time>
      </trkpt>
      <trkpt lat="47.79004" lon="2.29978">
        <ele>112</ele>
        <time>2017-07-23T07:38:40.112Z</time>
      </trkpt>
      <trkpt lat="47.79" lon="2.29992">
        <ele>112</ele>
        <time>2017-07-23T07:38:41.143Z</time>
      </trkpt>
      <trkpt lat="47.79" lon="2.29992">
        <ele>112</ele>
        <time>2017-07-23T07:38:42.136Z</time>
      </trkpt>
      <trkpt lat="47.78997" lon="2.30006">
        <ele>112</ele>
        <time>2017-07-23T07:38:43.142Z</time>
      </trkpt>
      <trkpt lat="47.78996" lon="2.30013">
        <ele>112</ele>
        <time>2017-07-23T07:38:44.142Z</time>
      </trkpt>
      <trkpt lat="47.78996" lon="2.30013">
        <ele>112</ele>
        <time>2017-07-23T07:38:45.139Z</time>
      </trkpt>
      <trkpt lat="47.78994" lon="2.30027">
        <ele>111</ele>
        <time>2017-07-23T07:38:46.142Z</time>
      </trkpt>
      <trkpt lat="47.78993" lon="2.30033">
        <ele>111</ele>
        <time>2017-07-23T07:38:47.142Z</time>
      </trkpt>
      <trkpt lat="47.78993" lon="2.30033">
        <ele>111</ele>
        <time>2017-07-23T07:38:48.138Z</time>
      </trkpt>
      <trkpt lat="47.78991" lon="2.30047">
        <ele>110</ele>
        <time>2017-07-23T07:38:49.140Z</time>
      </trkpt>
      <trkpt lat="47.78991" lon="2.30054">
        <ele>110</ele>
        <time>2017-07-23T07:38:50.142Z</time>
      </trkpt>
      <trkpt lat="47.78991" lon="2.30054">
        <ele>110</ele>
        <time>2017-07-23T07:38:51.136Z</time>
      </trkpt>
      <trkpt lat="47.78991" lon="2.30068">
        <ele>111</ele>
        <time>2017-07-23T07:38:52.141Z</time>
      </trkpt>
      <trkpt lat="47.78991" lon="2.30074">
        <ele>111</ele>
        <time>2017-07-23T07:38:53.142Z</time>
      </trkpt>
      <trkpt lat="47.78991" lon="2.30074">
        <ele>111</ele>
        <time>2017-07-23T07:38:54.138Z</time>
      </trkpt>
      <trkpt lat="47.78992" lon="2.30086">
        <ele>111</ele>
        <time>2017-07-23T07:38:55.141Z</time>
      </trkpt>
      <trkpt lat="47.78992" lon="2.30086">
        <ele>111</ele>
        <time>2017-07-23T07:38:56.143Z</time>
      </trkpt>
      <trkpt lat="47.78993" lon="2.30097">
        <ele>111</ele>
        <time>2017-07-23T07:38:57.144Z</time>
      </trkpt>
      <trkpt lat="47.78993" lon="2.30097">
        <ele>111</ele>
        <time>2017-07-23T07:38:58.133Z</time>
      </trkpt>
      <trkpt lat="47.78994" lon="2.30105">
        <ele>111</ele>
        <time>2017-07-23T07:38:59.143Z</time>
      </trkpt>
      <trkpt lat="47.78994" lon="2.3011">
        <ele>111</ele>
        <time>2017-07-23T07:39:00.146Z</time>
      </trkpt>
      <trkpt lat="47.78994" lon="2.3011">
        <ele>111</ele>
        <time>2017-07-23T07:39:01.142Z</time>
      </trkpt>
      <trkpt lat="47.78994" lon="2.3012">
        <ele>110</ele>
        <time>2017-07-23T07:39:02.142Z</time>
      </trkpt>
      <trkpt lat="47.78994" lon="2.3012">
        <ele>110</ele>
        <time>2017-07-23T07:39:03.139Z</time>
      </trkpt>
      <trkpt lat="47.78994" lon="2.3012">
        <ele>110</ele>
        <time>2017-07-23T07:39:04.108Z</time>
      </trkpt>
      <trkpt lat="47.78994" lon="2.30132">
        <ele>110</ele>
        <time>2017-07-23T07:39:05.143Z</time>
      </trkpt>
      <trkpt lat="47.78995" lon="2.30145">
        <ele>110</ele>
        <time>2017-07-23T07:39:06.143Z</time>
      </trkpt>
      <trkpt lat="47.78995" lon="2.30151">
        <ele>110</ele>
        <time>2017-07-23T07:39:07.144Z</time>
      </trkpt>
      <trkpt lat="47.78995" lon="2.30151">
        <ele>110</ele>
        <time>2017-07-23T07:39:08.133Z</time>
      </trkpt>
      <trkpt lat="47.78996" lon="2.30163">
        <ele>110</ele>
        <time>2017-07-23T07:39:09.113Z</time>
      </trkpt>
      <trkpt lat="47.78996" lon="2.30163">
        <ele>110</ele>
        <time>2017-07-23T07:39:10.111Z</time>
      </trkpt>
      <trkpt lat="47.78997" lon="2.30176">
        <ele>110</ele>
        <time>2017-07-23T07:39:11.141Z</time>
      </trkpt>
      <trkpt lat="47.78997" lon="2.30176">
        <ele>110</ele>
        <time>2017-07-23T07:39:12.137Z</time>
      </trkpt>
      <trkpt lat="47.78998" lon="2.30188">
        <ele>110</ele>
        <time>2017-07-23T07:39:13.145Z</time>
      </trkpt>
      <trkpt lat="47.78998" lon="2.30188">
        <ele>110</ele>
        <time>2017-07-23T07:39:14.136Z</time>
      </trkpt>
      <trkpt lat="47.78999" lon="2.30203">
        <ele>110</ele>
        <time>2017-07-23T07:39:15.140Z</time>
      </trkpt>
      <trkpt lat="47.79" lon="2.3021">
        <ele>109</ele>
        <time>2017-07-23T07:39:16.143Z</time>
      </trkpt>
      <trkpt lat="47.79001" lon="2.30218">
        <ele>109</ele>
        <time>2017-07-23T07:39:17.143Z</time>
      </trkpt>
      <trkpt lat="47.79001" lon="2.30218">
        <ele>109</ele>
        <time>2017-07-23T07:39:18.135Z</time>
      </trkpt>
      <trkpt lat="47.79002" lon="2.30232">
        <ele>109</ele>
        <time>2017-07-23T07:39:19.142Z</time>
      </trkpt>
      <trkpt lat="47.79002" lon="2.30232">
        <ele>109</ele>
        <time>2017-07-23T07:39:20.134Z</time>
      </trkpt>
      <trkpt lat="47.79003" lon="2.30246">
        <ele>109</ele>
        <time>2017-07-23T07:39:21.114Z</time>
      </trkpt>
      <trkpt lat="47.79003" lon="2.30246">
        <ele>109</ele>
        <time>2017-07-23T07:39:22.138Z</time>
      </trkpt>
      <trkpt lat="47.79004" lon="2.30261">
        <ele>109</ele>
        <time>2017-07-23T07:39:23.141Z</time>
      </trkpt>
      <trkpt lat="47.79004" lon="2.30261">
        <ele>109</ele>
        <time>2017-07-23T07:39:24.137Z</time>
      </trkpt>
      <trkpt lat="47.79007" lon="2.30277">
        <ele>109</ele>
        <time>2017-07-23T07:39:25.141Z</time>
      </trkpt>
      <trkpt lat="47.79007" lon="2.30277">
        <ele>109</ele>
        <time>2017-07-23T07:39:26.136Z</time>
      </trkpt>
      <trkpt lat="47.79009" lon="2.30292">
        <ele>109</ele>
        <time>2017-07-23T07:39:27.140Z</time>
      </trkpt>
      <trkpt lat="47.79009" lon="2.30292">
        <ele>109</ele>
        <time>2017-07-23T07:39:28.135Z</time>
      </trkpt>
      <trkpt lat="47.7901" lon="2.30307">
        <ele>109</ele>
        <time>2017-07-23T07:39:29.141Z</time>
      </trkpt>
      <trkpt lat="47.7901" lon="2.30307">
        <ele>109</ele>
        <time>2017-07-23T07:39:30.137Z</time>
      </trkpt>
      <trkpt lat="47.79011" lon="2.30315">
        <ele>109</ele>
        <time>2017-07-23T07:39:31.109Z</time>
      </trkpt>
      <trkpt lat="47.79013" lon="2.30332">
        <ele>110</ele>
        <time>2017-07-23T07:39:32.140Z</time>
      </trkpt>
      <trkpt lat="47.79013" lon="2.30332">
        <ele>110</ele>
        <time>2017-07-23T07:39:33.135Z</time>
      </trkpt>
      <trkpt lat="47.79015" lon="2.30349">
        <ele>110</ele>
        <time>2017-07-23T07:39:34.143Z</time>
      </trkpt>
      <trkpt lat="47.79016" lon="2.30359">
        <ele>110</ele>
        <time>2017-07-23T07:39:35.142Z</time>
      </trkpt>
      <trkpt lat="47.79016" lon="2.30359">
        <ele>110</ele>
        <time>2017-07-23T07:39:36.109Z</time>
      </trkpt>
      <trkpt lat="47.79019" lon="2.30377">
        <ele>110</ele>
        <time>2017-07-23T07:39:37.142Z</time>
      </trkpt>
      <trkpt lat="47.79019" lon="2.30377">
        <ele>110</ele>
        <time>2017-07-23T07:39:38.152Z</time>
      </trkpt>
      <trkpt lat="47.79022" lon="2.30396">
        <ele>110</ele>
        <time>2017-07-23T07:39:39.120Z</time>
      </trkpt>
      <trkpt lat="47.79022" lon="2.30405">
        <ele>109</ele>
        <time>2017-07-23T07:39:40.143Z</time>
      </trkpt>
      <trkpt lat="47.79023" lon="2.30414">
        <ele>109</ele>
        <time>2017-07-23T07:39:41.142Z</time>
      </trkpt>
      <trkpt lat="47.79023" lon="2.30414">
        <ele>109</ele>
        <time>2017-07-23T07:39:42.135Z</time>
      </trkpt>
      <trkpt lat="47.79024" lon="2.30433">
        <ele>109</ele>
        <time>2017-07-23T07:39:43.143Z</time>
      </trkpt>
      <trkpt lat="47.79024" lon="2.30433">
        <ele>109</ele>
        <time>2017-07-23T07:39:44.136Z</time>
      </trkpt>
      <trkpt lat="47.79025" lon="2.30451">
        <ele>109</ele>
        <time>2017-07-23T07:39:45.113Z</time>
      </trkpt>
      <trkpt lat="47.79025" lon="2.30451">
        <ele>109</ele>
        <time>2017-07-23T07:39:46.140Z</time>
      </trkpt>
      <trkpt lat="47.79025" lon="2.3047">
        <ele>109</ele>
        <time>2017-07-23T07:39:47.142Z</time>
      </trkpt>
      <trkpt lat="47.79025" lon="2.3047">
        <ele>109</ele>
        <time>2017-07-23T07:39:48.137Z</time>
      </trkpt>
      <trkpt lat="47.79025" lon="2.30488">
        <ele>109</ele>
        <time>2017-07-23T07:39:49.110Z</time>
      </trkpt>
      <trkpt lat="47.79025" lon="2.30488">
        <ele>109</ele>
        <time>2017-07-23T07:39:50.117Z</time>
      </trkpt>
      <trkpt lat="47.79025" lon="2.30506">
        <ele>109</ele>
        <time>2017-07-23T07:39:51.139Z</time>
      </trkpt>
      <trkpt lat="47.79025" lon="2.30506">
        <ele>109</ele>
        <time>2017-07-23T07:39:52.135Z</time>
      </trkpt>
      <trkpt lat="47.79025" lon="2.30525">
        <ele>109</ele>
        <time>2017-07-23T07:39:53.142Z</time>
      </trkpt>
      <trkpt lat="47.79025" lon="2.30525">
        <ele>109</ele>
        <time>2017-07-23T07:39:54.108Z</time>
      </trkpt>
      <trkpt lat="47.79024" lon="2.30543">
        <ele>110</ele>
        <time>2017-07-23T07:39:55.141Z</time>
      </trkpt>
      <trkpt lat="47.79024" lon="2.30543">
        <ele>110</ele>
        <time>2017-07-23T07:39:56.136Z</time>
      </trkpt>
      <trkpt lat="47.79023" lon="2.30562">
        <ele>110</ele>
        <time>2017-07-23T07:39:57.140Z</time>
      </trkpt>
      <trkpt lat="47.79023" lon="2.30562">
        <ele>110</ele>
        <time>2017-07-23T07:39:58.137Z</time>
      </trkpt>
      <trkpt lat="47.79022" lon="2.30581">
        <ele>110</ele>
        <time>2017-07-23T07:39:59.142Z</time>
      </trkpt>
      <trkpt lat="47.79022" lon="2.30581">
        <ele>110</ele>
        <time>2017-07-23T07:40:00.134Z</time>
      </trkpt>
      <trkpt lat="47.7902" lon="2.30599">
        <ele>110</ele>
        <time>2017-07-23T07:40:01.152Z</time>
      </trkpt>
      <trkpt lat="47.7902" lon="2.30599">
        <ele>110</ele>
        <time>2017-07-23T07:40:02.137Z</time>
      </trkpt>
      <trkpt lat="47.79018" lon="2.30618">
        <ele>110</ele>
        <time>2017-07-23T07:40:03.138Z</time>
      </trkpt>
      <trkpt lat="47.79016" lon="2.30627">
        <ele>110</ele>
        <time>2017-07-23T07:40:04.143Z</time>
      </trkpt>
      <trkpt lat="47.79015" lon="2.30637">
        <ele>110</ele>
        <time>2017-07-23T07:40:05.143Z</time>
      </trkpt>
      <trkpt lat="47.79014" lon="2.30647">
        <ele>110</ele>
        <time>2017-07-23T07:40:06.137Z</time>
      </trkpt>
      <trkpt lat="47.79014" lon="2.30647">
        <ele>110</ele>
        <time>2017-07-23T07:40:07.136Z</time>
      </trkpt>
      <trkpt lat="47.79012" lon="2.30668">
        <ele>109</ele>
        <time>2017-07-23T07:40:08.140Z</time>
      </trkpt>
      <trkpt lat="47.79012" lon="2.30668">
        <ele>109</ele>
        <time>2017-07-23T07:40:09.136Z</time>
      </trkpt>
      <trkpt lat="47.79011" lon="2.30688">
        <ele>109</ele>
        <time>2017-07-23T07:40:10.142Z</time>
      </trkpt>
      <trkpt lat="47.79011" lon="2.30699">
        <ele>109</ele>
        <time>2017-07-23T07:40:11.144Z</time>
      </trkpt>
      <trkpt lat="47.79011" lon="2.30699">
        <ele>109</ele>
        <time>2017-07-23T07:40:12.139Z</time>
      </trkpt>
      <trkpt lat="47.79013" lon="2.30719">
        <ele>109</ele>
        <time>2017-07-23T07:40:13.144Z</time>
      </trkpt>
      <trkpt lat="47.79013" lon="2.30719">
        <ele>109</ele>
        <time>2017-07-23T07:40:14.136Z</time>
      </trkpt>
      <trkpt lat="47.79015" lon="2.3074">
        <ele>109</ele>
        <time>2017-07-23T07:40:15.139Z</time>
      </trkpt>
      <trkpt lat="47.79015" lon="2.3074">
        <ele>109</ele>
        <time>2017-07-23T07:40:16.133Z</time>
      </trkpt>
      <trkpt lat="47.79018" lon="2.3076">
        <ele>109</ele>
        <time>2017-07-23T07:40:17.144Z</time>
      </trkpt>
      <trkpt lat="47.79018" lon="2.3076">
        <ele>109</ele>
        <time>2017-07-23T07:40:18.138Z</time>
      </trkpt>
      <trkpt lat="47.7902" lon="2.30781">
        <ele>109</ele>
        <time>2017-07-23T07:40:19.143Z</time>
      </trkpt>
      <trkpt lat="47.7902" lon="2.30781">
        <ele>109</ele>
        <time>2017-07-23T07:40:20.136Z</time>
      </trkpt>
      <trkpt lat="47.79022" lon="2.30802">
        <ele>109</ele>
        <time>2017-07-23T07:40:21.141Z</time>
      </trkpt>
      <trkpt lat="47.79022" lon="2.30813">
        <ele>109</ele>
        <time>2017-07-23T07:40:22.143Z</time>
      </trkpt>
      <trkpt lat="47.79023" lon="2.30823">
        <ele>109</ele>
        <time>2017-07-23T07:40:23.146Z</time>
      </trkpt>
      <trkpt lat="47.79023" lon="2.30823">
        <ele>109</ele>
        <time>2017-07-23T07:40:24.136Z</time>
      </trkpt>
      <trkpt lat="47.79024" lon="2.30845">
        <ele>109</ele>
        <time>2017-07-23T07:40:25.143Z</time>
      </trkpt>
      <trkpt lat="47.79024" lon="2.30845">
        <ele>109</ele>
        <time>2017-07-23T07:40:26.136Z</time>
      </trkpt>
      <trkpt lat="47.79025" lon="2.30867">
        <ele>109</ele>
        <time>2017-07-23T07:40:27.144Z</time>
      </trkpt>
      <trkpt lat="47.79025" lon="2.30867">
        <ele>109</ele>
        <time>2017-07-23T07:40:28.115Z</time>
      </trkpt>
      <trkpt lat="47.79027" lon="2.30891">
        <ele>109</ele>
        <time>2017-07-23T07:40:29.146Z</time>
      </trkpt>
      <trkpt lat="47.79027" lon="2.30891">
        <ele>109</ele>
        <time>2017-07-23T07:40:30.135Z</time>
      </trkpt>
      <trkpt lat="47.79028" lon="2.30914">
        <ele>110</ele>
        <time>2017-07-23T07:40:31.143Z</time>
      </trkpt>
      <trkpt lat="47.79028" lon="2.30914">
        <ele>110</ele>
        <time>2017-07-23T07:40:32.138Z</time>
      </trkpt>
      <trkpt lat="47.79029" lon="2.30936">
        <ele>110</ele>
        <time>2017-07-23T07:40:33.141Z</time>
      </trkpt>
      <trkpt lat="47.79029" lon="2.30936">
        <ele>110</ele>
        <time>2017-07-23T07:40:34.137Z</time>
      </trkpt>
      <trkpt lat="47.7903" lon="2.3096">
        <ele>109</ele>
        <time>2017-07-23T07:40:35.141Z</time>
      </trkpt>
      <trkpt lat="47.7903" lon="2.3096">
        <ele>109</ele>
        <time>2017-07-23T07:40:36.136Z</time>
      </trkpt>
      <trkpt lat="47.79032" lon="2.30983">
        <ele>109</ele>
        <time>2017-07-23T07:40:37.140Z</time>
      </trkpt>
      <trkpt lat="47.79032" lon="2.30983">
        <ele>109</ele>
        <time>2017-07-23T07:40:38.137Z</time>
      </trkpt>
      <trkpt lat="47.79033" lon="2.31007">
        <ele>109</ele>
        <time>2017-07-23T07:40:39.142Z</time>
      </trkpt>
      <trkpt lat="47.79034" lon="2.31019">
        <ele>110</ele>
        <time>2017-07-23T07:40:40.139Z</time>
      </trkpt>
      <trkpt lat="47.79034" lon="2.31031">
        <ele>110</ele>
        <time>2017-07-23T07:40:41.142Z</time>
      </trkpt>
      <trkpt lat="47.79034" lon="2.31031">
        <ele>110</ele>
        <time>2017-07-23T07:40:42.137Z</time>
      </trkpt>
      <trkpt lat="47.79036" lon="2.31055">
        <ele>110</ele>
        <time>2017-07-23T07:40:43.141Z</time>
      </trkpt>
      <trkpt lat="47.79036" lon="2.31067">
        <ele>110</ele>
        <time>2017-07-23T07:40:44.140Z</time>
      </trkpt>
      <trkpt lat="47.79036" lon="2.31067">
        <ele>110</ele>
        <time>2017-07-23T07:40:45.136Z</time>
      </trkpt>
      <trkpt lat="47.79038" lon="2.31092">
        <ele>110</ele>
        <time>2017-07-23T07:40:46.140Z</time>
      </trkpt>
      <trkpt lat="47.79039" lon="2.31104">
        <ele>110</ele>
        <time>2017-07-23T07:40:47.141Z</time>
      </trkpt>
      <trkpt lat="47.79039" lon="2.31104">
        <ele>110</ele>
        <time>2017-07-23T07:40:48.135Z</time>
      </trkpt>
      <trkpt lat="47.79041" lon="2.31129">
        <ele>110</ele>
        <time>2017-07-23T07:40:49.140Z</time>
      </trkpt>
      <trkpt lat="47.79041" lon="2.31129">
        <ele>110</ele>
        <time>2017-07-23T07:40:50.136Z</time>
      </trkpt>
      <trkpt lat="47.79043" lon="2.31153">
        <ele>110</ele>
        <time>2017-07-23T07:40:51.139Z</time>
      </trkpt>
      <trkpt lat="47.79044" lon="2.31166">
        <ele>110</ele>
        <time>2017-07-23T07:40:52.140Z</time>
      </trkpt>
      <trkpt lat="47.79045" lon="2.31178">
        <ele>110</ele>
        <time>2017-07-23T07:40:53.142Z</time>
      </trkpt>
      <trkpt lat="47.79045" lon="2.31178">
        <ele>110</ele>
        <time>2017-07-23T07:40:54.136Z</time>
      </trkpt>
      <trkpt lat="47.79048" lon="2.31202">
        <ele>110</ele>
        <time>2017-07-23T07:40:55.142Z</time>
      </trkpt>
      <trkpt lat="47.79048" lon="2.31202">
        <ele>110</ele>
        <time>2017-07-23T07:40:56.137Z</time>
      </trkpt>
      <trkpt lat="47.79049" lon="2.31226">
        <ele>110</ele>
        <time>2017-07-23T07:40:57.140Z</time>
      </trkpt>
      <trkpt lat="47.79049" lon="2.31226">
        <ele>110</ele>
        <time>2017-07-23T07:40:58.135Z</time>
      </trkpt>
      <trkpt lat="47.79051" lon="2.31251">
        <ele>110</ele>
        <time>2017-07-23T07:40:59.142Z</time>
      </trkpt>
      <trkpt lat="47.79051" lon="2.31251">
        <ele>110</ele>
        <time>2017-07-23T07:41:00.136Z</time>
      </trkpt>
      <trkpt lat="47.79053" lon="2.31275">
        <ele>110</ele>
        <time>2017-07-23T07:41:01.140Z</time>
      </trkpt>
      <trkpt lat="47.79053" lon="2.31288">
        <ele>110</ele>
        <time>2017-07-23T07:41:02.141Z</time>
      </trkpt>
      <trkpt lat="47.79054" lon="2.313">
        <ele>110</ele>
        <time>2017-07-23T07:41:03.141Z</time>
      </trkpt>
      <trkpt lat="47.79054" lon="2.313">
        <ele>110</ele>
        <time>2017-07-23T07:41:04.135Z</time>
      </trkpt>
      <trkpt lat="47.79054" lon="2.313">
        <ele>110</ele>
        <time>2017-07-23T07:41:05.150Z</time>
      </trkpt>
      <trkpt lat="47.79056" lon="2.31324">
        <ele>110</ele>
        <time>2017-07-23T07:41:06.134Z</time>
      </trkpt>
      <trkpt lat="47.79057" lon="2.31348">
        <ele>110</ele>
        <time>2017-07-23T07:41:07.142Z</time>
      </trkpt>
      <trkpt lat="47.79057" lon="2.31348">
        <ele>110</ele>
        <time>2017-07-23T07:41:08.136Z</time>
      </trkpt>
      <trkpt lat="47.79059" lon="2.31372">
        <ele>110</ele>
        <time>2017-07-23T07:41:09.144Z</time>
      </trkpt>
      <trkpt lat="47.79059" lon="2.31372">
        <ele>110</ele>
        <time>2017-07-23T07:41:10.135Z</time>
      </trkpt>
      <trkpt lat="47.7906" lon="2.31396">
        <ele>110</ele>
        <time>2017-07-23T07:41:11.142Z</time>
      </trkpt>
      <trkpt lat="47.79061" lon="2.31407">
        <ele>110</ele>
        <time>2017-07-23T07:41:12.141Z</time>
      </trkpt>
      <trkpt lat="47.79062" lon="2.31419">
        <ele>110</ele>
        <time>2017-07-23T07:41:13.142Z</time>
      </trkpt>
      <trkpt lat="47.79063" lon="2.31431">
        <ele>110</ele>
        <time>2017-07-23T07:41:14.141Z</time>
      </trkpt>
      <trkpt lat="47.79063" lon="2.31431">
        <ele>110</ele>
        <time>2017-07-23T07:41:15.134Z</time>
      </trkpt>
      <trkpt lat="47.79064" lon="2.31454">
        <ele>110</ele>
        <time>2017-07-23T07:41:16.139Z</time>
      </trkpt>
      <trkpt lat="47.79064" lon="2.31454">
        <ele>110</ele>
        <time>2017-07-23T07:41:17.147Z</time>
      </trkpt>
      <trkpt lat="47.79067" lon="2.31478">
        <ele>110</ele>
        <time>2017-07-23T07:41:18.139Z</time>
      </trkpt>
      <trkpt lat="47.79067" lon="2.31478">
        <ele>110</ele>
        <time>2017-07-23T07:41:19.112Z</time>
      </trkpt>
      <trkpt lat="47.79068" lon="2.31489">
        <ele>110</ele>
        <time>2017-07-23T07:41:20.135Z</time>
      </trkpt>
      <trkpt lat="47.7907" lon="2.31513">
        <ele>109</ele>
        <time>2017-07-23T07:41:21.146Z</time>
      </trkpt>
      <trkpt lat="47.79071" lon="2.31524">
        <ele>109</ele>
        <time>2017-07-23T07:41:22.140Z</time>
      </trkpt>
      <trkpt lat="47.79073" lon="2.31536">
        <ele>109</ele>
        <time>2017-07-23T07:41:23.143Z</time>
      </trkpt>
      <trkpt lat="47.79073" lon="2.31536">
        <ele>109</ele>
        <time>2017-07-23T07:41:24.134Z</time>
      </trkpt>
      <trkpt lat="47.79075" lon="2.31559">
        <ele>109</ele>
        <time>2017-07-23T07:41:25.140Z</time>
      </trkpt>
      <trkpt lat="47.79075" lon="2.31559">
        <ele>109</ele>
        <time>2017-07-23T07:41:26.136Z</time>
      </trkpt>
      <trkpt lat="47.79078" lon="2.31581">
        <ele>109</ele>
        <time>2017-07-23T07:41:27.141Z</time>
      </trkpt>
      <trkpt lat="47.79078" lon="2.31581">
        <ele>109</ele>
        <time>2017-07-23T07:41:28.144Z</time>
      </trkpt>
      <trkpt lat="47.7908" lon="2.31604">
        <ele>109</ele>
        <time>2017-07-23T07:41:29.142Z</time>
      </trkpt>
      <trkpt lat="47.7908" lon="2.31604">
        <ele>109</ele>
        <time>2017-07-23T07:41:30.135Z</time>
      </trkpt>
      <trkpt lat="47.79082" lon="2.31627">
        <ele>109</ele>
        <time>2017-07-23T07:41:31.139Z</time>
      </trkpt>
      <trkpt lat="47.79082" lon="2.31627">
        <ele>109</ele>
        <time>2017-07-23T07:41:32.135Z</time>
      </trkpt>
      <trkpt lat="47.79084" lon="2.31651">
        <ele>109</ele>
        <time>2017-07-23T07:41:33.142Z</time>
      </trkpt>
      <trkpt lat="47.79085" lon="2.31662">
        <ele>109</ele>
        <time>2017-07-23T07:41:34.140Z</time>
      </trkpt>
      <trkpt lat="47.79085" lon="2.31674">
        <ele>109</ele>
        <time>2017-07-23T07:41:35.145Z</time>
      </trkpt>
      <trkpt lat="47.79085" lon="2.31674">
        <ele>109</ele>
        <time>2017-07-23T07:41:36.135Z</time>
      </trkpt>
      <trkpt lat="47.79084" lon="2.31697">
        <ele>109</ele>
        <time>2017-07-23T07:41:37.142Z</time>
      </trkpt>
      <trkpt lat="47.79084" lon="2.31697">
        <ele>109</ele>
        <time>2017-07-23T07:41:38.112Z</time>
      </trkpt>
      <trkpt lat="47.79082" lon="2.3172">
        <ele>109</ele>
        <time>2017-07-23T07:41:39.121Z</time>
      </trkpt>
      <trkpt lat="47.79081" lon="2.31732">
        <ele>109</ele>
        <time>2017-07-23T07:41:40.133Z</time>
      </trkpt>
      <trkpt lat="47.7908" lon="2.31744">
        <ele>109</ele>
        <time>2017-07-23T07:41:41.142Z</time>
      </trkpt>
      <trkpt lat="47.7908" lon="2.31744">
        <ele>109</ele>
        <time>2017-07-23T07:41:42.137Z</time>
      </trkpt>
      <trkpt lat="47.7908" lon="2.31767">
        <ele>109</ele>
        <time>2017-07-23T07:41:43.143Z</time>
      </trkpt>
      <trkpt lat="47.7908" lon="2.31767">
        <ele>109</ele>
        <time>2017-07-23T07:41:44.135Z</time>
      </trkpt>
      <trkpt lat="47.7908" lon="2.31767">
        <ele>109</ele>
        <time>2017-07-23T07:41:45.120Z</time>
      </trkpt>
      <trkpt lat="47.7908" lon="2.3179">
        <ele>109</ele>
        <time>2017-07-23T07:41:46.136Z</time>
      </trkpt>
      <trkpt lat="47.7908" lon="2.31814">
        <ele>109</ele>
        <time>2017-07-23T07:41:47.119Z</time>
      </trkpt>
      <trkpt lat="47.7908" lon="2.31814">
        <ele>109</ele>
        <time>2017-07-23T07:41:48.129Z</time>
      </trkpt>
      <trkpt lat="47.79081" lon="2.31837">
        <ele>109</ele>
        <time>2017-07-23T07:41:49.135Z</time>
      </trkpt>
      <trkpt lat="47.79081" lon="2.31837">
        <ele>109</ele>
        <time>2017-07-23T07:41:50.142Z</time>
      </trkpt>
      <trkpt lat="47.79081" lon="2.3186">
        <ele>109</ele>
        <time>2017-07-23T07:41:51.141Z</time>
      </trkpt>
      <trkpt lat="47.79082" lon="2.31872">
        <ele>109</ele>
        <time>2017-07-23T07:41:52.139Z</time>
      </trkpt>
      <trkpt lat="47.79082" lon="2.31884">
        <ele>109</ele>
        <time>2017-07-23T07:41:53.144Z</time>
      </trkpt>
      <trkpt lat="47.79083" lon="2.31895">
        <ele>109</ele>
        <time>2017-07-23T07:41:54.141Z</time>
      </trkpt>
      <trkpt lat="47.79083" lon="2.31895">
        <ele>109</ele>
        <time>2017-07-23T07:41:55.139Z</time>
      </trkpt>
      <trkpt lat="47.79083" lon="2.31918">
        <ele>109</ele>
        <time>2017-07-23T07:41:56.143Z</time>
      </trkpt>
      <trkpt lat="47.79083" lon="2.31918">
        <ele>109</ele>
        <time>2017-07-23T07:41:57.135Z</time>
      </trkpt>
      <trkpt lat="47.79083" lon="2.31941">
        <ele>109</ele>
        <time>2017-07-23T07:41:58.131Z</time>
      </trkpt>
      <trkpt lat="47.79083" lon="2.31953">
        <ele>109</ele>
        <time>2017-07-23T07:41:59.114Z</time>
      </trkpt>
      <trkpt lat="47.79083" lon="2.31953">
        <ele>109</ele>
        <time>2017-07-23T07:42:00.142Z</time>
      </trkpt>
      <trkpt lat="47.79084" lon="2.31975">
        <ele>108</ele>
        <time>2017-07-23T07:42:01.143Z</time>
      </trkpt>
      <trkpt lat="47.79084" lon="2.31975">
        <ele>108</ele>
        <time>2017-07-23T07:42:02.141Z</time>
      </trkpt>
      <trkpt lat="47.79084" lon="2.31998">
        <ele>109</ele>
        <time>2017-07-23T07:42:03.140Z</time>
      </trkpt>
      <trkpt lat="47.79084" lon="2.3201">
        <ele>109</ele>
        <time>2017-07-23T07:42:04.141Z</time>
      </trkpt>
      <trkpt lat="47.79084" lon="2.3201">
        <ele>109</ele>
        <time>2017-07-23T07:42:05.123Z</time>
      </trkpt>
      <trkpt lat="47.79085" lon="2.32021">
        <ele>109</ele>
        <time>2017-07-23T07:42:06.137Z</time>
      </trkpt>
      <trkpt lat="47.79085" lon="2.32044">
        <ele>108</ele>
        <time>2017-07-23T07:42:07.141Z</time>
      </trkpt>
      <trkpt lat="47.79085" lon="2.32044">
        <ele>108</ele>
        <time>2017-07-23T07:42:08.138Z</time>
      </trkpt>
      <trkpt lat="47.79085" lon="2.32067">
        <ele>108</ele>
        <time>2017-07-23T07:42:09.140Z</time>
      </trkpt>
      <trkpt lat="47.79085" lon="2.32067">
        <ele>108</ele>
        <time>2017-07-23T07:42:10.137Z</time>
      </trkpt>
      <trkpt lat="47.79086" lon="2.3209">
        <ele>108</ele>
        <time>2017-07-23T07:42:11.143Z</time>
      </trkpt>
      <trkpt lat="47.79086" lon="2.3209">
        <ele>108</ele>
        <time>2017-07-23T07:42:12.138Z</time>
      </trkpt>
      <trkpt lat="47.79085" lon="2.32113">
        <ele>108</ele>
        <time>2017-07-23T07:42:13.139Z</time>
      </trkpt>
      <trkpt lat="47.79085" lon="2.32113">
        <ele>108</ele>
        <time>2017-07-23T07:42:14.135Z</time>
      </trkpt>
      <trkpt lat="47.79084" lon="2.32136">
        <ele>108</ele>
        <time>2017-07-23T07:42:15.140Z</time>
      </trkpt>
      <trkpt lat="47.79084" lon="2.32148">
        <ele>108</ele>
        <time>2017-07-23T07:42:16.138Z</time>
      </trkpt>
      <trkpt lat="47.79083" lon="2.3216">
        <ele>108</ele>
        <time>2017-07-23T07:42:17.143Z</time>
      </trkpt>
      <trkpt lat="47.79083" lon="2.3216">
        <ele>108</ele>
        <time>2017-07-23T07:42:18.137Z</time>
      </trkpt>
      <trkpt lat="47.79081" lon="2.32184">
        <ele>108</ele>
        <time>2017-07-23T07:42:19.143Z</time>
      </trkpt>
      <trkpt lat="47.79081" lon="2.32184">
        <ele>108</ele>
        <time>2017-07-23T07:42:20.137Z</time>
      </trkpt>
      <trkpt lat="47.79079" lon="2.32208">
        <ele>108</ele>
        <time>2017-07-23T07:42:21.140Z</time>
      </trkpt>
      <trkpt lat="47.79077" lon="2.3222">
        <ele>108</ele>
        <time>2017-07-23T07:42:22.141Z</time>
      </trkpt>
      <trkpt lat="47.79076" lon="2.32232">
        <ele>108</ele>
        <time>2017-07-23T07:42:23.143Z</time>
      </trkpt>
      <trkpt lat="47.79076" lon="2.32232">
        <ele>108</ele>
        <time>2017-07-23T07:42:24.138Z</time>
      </trkpt>
      <trkpt lat="47.79074" lon="2.32255">
        <ele>109</ele>
        <time>2017-07-23T07:42:25.142Z</time>
      </trkpt>
      <trkpt lat="47.79074" lon="2.32255">
        <ele>109</ele>
        <time>2017-07-23T07:42:26.135Z</time>
      </trkpt>
      <trkpt lat="47.79071" lon="2.32278">
        <ele>109</ele>
        <time>2017-07-23T07:42:27.140Z</time>
      </trkpt>
      <trkpt lat="47.79071" lon="2.32278">
        <ele>109</ele>
        <time>2017-07-23T07:42:28.137Z</time>
      </trkpt>
      <trkpt lat="47.79069" lon="2.32301">
        <ele>109</ele>
        <time>2017-07-23T07:42:29.142Z</time>
      </trkpt>
      <trkpt lat="47.79069" lon="2.32301">
        <ele>109</ele>
        <time>2017-07-23T07:42:30.137Z</time>
      </trkpt>
      <trkpt lat="47.79066" lon="2.32325">
        <ele>109</ele>
        <time>2017-07-23T07:42:31.141Z</time>
      </trkpt>
      <trkpt lat="47.79066" lon="2.32325">
        <ele>109</ele>
        <time>2017-07-23T07:42:32.135Z</time>
      </trkpt>
      <trkpt lat="47.79064" lon="2.32347">
        <ele>109</ele>
        <time>2017-07-23T07:42:33.141Z</time>
      </trkpt>
      <trkpt lat="47.79064" lon="2.32347">
        <ele>109</ele>
        <time>2017-07-23T07:42:34.135Z</time>
      </trkpt>
      <trkpt lat="47.7906" lon="2.32369">
        <ele>109</ele>
        <time>2017-07-23T07:42:35.141Z</time>
      </trkpt>
      <trkpt lat="47.7906" lon="2.32369">
        <ele>109</ele>
        <time>2017-07-23T07:42:36.138Z</time>
      </trkpt>
      <trkpt lat="47.79056" lon="2.3239">
        <ele>110</ele>
        <time>2017-07-23T07:42:37.141Z</time>
      </trkpt>
      <trkpt lat="47.79056" lon="2.3239">
        <ele>110</ele>
        <time>2017-07-23T07:42:38.138Z</time>
      </trkpt>
      <trkpt lat="47.79051" lon="2.3241">
        <ele>110</ele>
        <time>2017-07-23T07:42:39.142Z</time>
      </trkpt>
      <trkpt lat="47.79051" lon="2.3241">
        <ele>110</ele>
        <time>2017-07-23T07:42:40.138Z</time>
      </trkpt>
      <trkpt lat="47.79047" lon="2.32429">
        <ele>110</ele>
        <time>2017-07-23T07:42:41.143Z</time>
      </trkpt>
      <trkpt lat="47.79047" lon="2.32429">
        <ele>110</ele>
        <time>2017-07-23T07:42:42.138Z</time>
      </trkpt>
      <trkpt lat="47.79043" lon="2.32449">
        <ele>110</ele>
        <time>2017-07-23T07:42:43.142Z</time>
      </trkpt>
      <trkpt lat="47.79043" lon="2.32449">
        <ele>110</ele>
        <time>2017-07-23T07:42:44.137Z</time>
      </trkpt>
      <trkpt lat="47.79038" lon="2.32469">
        <ele>111</ele>
        <time>2017-07-23T07:42:45.142Z</time>
      </trkpt>
      <trkpt lat="47.79038" lon="2.32469">
        <ele>111</ele>
        <time>2017-07-23T07:42:46.135Z</time>
      </trkpt>
      <trkpt lat="47.79034" lon="2.32489">
        <ele>111</ele>
        <time>2017-07-23T07:42:47.145Z</time>
      </trkpt>
      <trkpt lat="47.79034" lon="2.32489">
        <ele>111</ele>
        <time>2017-07-23T07:42:48.136Z</time>
      </trkpt>
      <trkpt lat="47.7903" lon="2.32508">
        <ele>111</ele>
        <time>2017-07-23T07:42:49.142Z</time>
      </trkpt>
      <trkpt lat="47.7903" lon="2.32508">
        <ele>111</ele>
        <time>2017-07-23T07:42:50.135Z</time>
      </trkpt>
      <trkpt lat="47.79026" lon="2.32527">
        <ele>111</ele>
        <time>2017-07-23T07:42:51.142Z</time>
      </trkpt>
      <trkpt lat="47.79026" lon="2.32527">
        <ele>111</ele>
        <time>2017-07-23T07:42:52.138Z</time>
      </trkpt>
      <trkpt lat="47.79021" lon="2.32546">
        <ele>111</ele>
        <time>2017-07-23T07:42:53.143Z</time>
      </trkpt>
      <trkpt lat="47.79019" lon="2.32556">
        <ele>111</ele>
        <time>2017-07-23T07:42:54.141Z</time>
      </trkpt>
      <trkpt lat="47.79017" lon="2.32565">
        <ele>111</ele>
        <time>2017-07-23T07:42:55.144Z</time>
      </trkpt>
      <trkpt lat="47.79017" lon="2.32565">
        <ele>111</ele>
        <time>2017-07-23T07:42:56.137Z</time>
      </trkpt>
      <trkpt lat="47.79013" lon="2.32584">
        <ele>111</ele>
        <time>2017-07-23T07:42:57.142Z</time>
      </trkpt>
      <trkpt lat="47.79013" lon="2.32584">
        <ele>111</ele>
        <time>2017-07-23T07:42:58.137Z</time>
      </trkpt>
      <trkpt lat="47.79009" lon="2.32602">
        <ele>111</ele>
        <time>2017-07-23T07:42:59.143Z</time>
      </trkpt>
      <trkpt lat="47.79008" lon="2.32612">
        <ele>111</ele>
        <time>2017-07-23T07:43:00.141Z</time>
      </trkpt>
      <trkpt lat="47.79006" lon="2.32621">
        <ele>111</ele>
        <time>2017-07-23T07:43:01.141Z</time>
      </trkpt>
      <trkpt lat="47.79006" lon="2.32621">
        <ele>111</ele>
        <time>2017-07-23T07:43:02.131Z</time>
      </trkpt>
      <trkpt lat="47.79003" lon="2.3264">
        <ele>111</ele>
        <time>2017-07-23T07:43:03.115Z</time>
      </trkpt>
      <trkpt lat="47.79003" lon="2.3264">
        <ele>111</ele>
        <time>2017-07-23T07:43:04.139Z</time>
      </trkpt>
      <trkpt lat="47.79" lon="2.32661">
        <ele>111</ele>
        <time>2017-07-23T07:43:05.142Z</time>
      </trkpt>
      <trkpt lat="47.79" lon="2.32661">
        <ele>111</ele>
        <time>2017-07-23T07:43:06.135Z</time>
      </trkpt>
      <trkpt lat="47.78996" lon="2.32681">
        <ele>111</ele>
        <time>2017-07-23T07:43:07.142Z</time>
      </trkpt>
      <trkpt lat="47.78996" lon="2.32681">
        <ele>111</ele>
        <time>2017-07-23T07:43:08.117Z</time>
      </trkpt>
      <trkpt lat="47.78991" lon="2.32701">
        <ele>111</ele>
        <time>2017-07-23T07:43:09.145Z</time>
      </trkpt>
      <trkpt lat="47.78991" lon="2.32701">
        <ele>111</ele>
        <time>2017-07-23T07:43:10.138Z</time>
      </trkpt>
      <trkpt lat="47.78985" lon="2.32721">
        <ele>111</ele>
        <time>2017-07-23T07:43:11.144Z</time>
      </trkpt>
      <trkpt lat="47.78985" lon="2.32721">
        <ele>111</ele>
        <time>2017-07-23T07:43:12.137Z</time>
      </trkpt>
      <trkpt lat="47.78985" lon="2.32721">
        <ele>111</ele>
        <time>2017-07-23T07:43:13.153Z</time>
      </trkpt>
      <trkpt lat="47.78978" lon="2.32741">
        <ele>111</ele>
        <time>2017-07-23T07:43:14.138Z</time>
      </trkpt>
      <trkpt lat="47.7897" lon="2.3276">
        <ele>111</ele>
        <time>2017-07-23T07:43:15.142Z</time>
      </trkpt>
      <trkpt lat="47.7897" lon="2.3276">
        <ele>111</ele>
        <time>2017-07-23T07:43:16.136Z</time>
      </trkpt>
      <trkpt lat="47.78962" lon="2.3278">
        <ele>111</ele>
        <time>2017-07-23T07:43:17.143Z</time>
      </trkpt>
      <trkpt lat="47.78962" lon="2.3278">
        <ele>111</ele>
        <time>2017-07-23T07:43:18.136Z</time>
      </trkpt>
      <trkpt lat="47.78954" lon="2.32799">
        <ele>111</ele>
        <time>2017-07-23T07:43:19.141Z</time>
      </trkpt>
      <trkpt lat="47.78954" lon="2.32799">
        <ele>111</ele>
        <time>2017-07-23T07:43:20.136Z</time>
      </trkpt>
      <trkpt lat="47.78945" lon="2.32818">
        <ele>111</ele>
        <time>2017-07-23T07:43:21.144Z</time>
      </trkpt>
      <trkpt lat="47.78945" lon="2.32818">
        <ele>111</ele>
        <time>2017-07-23T07:43:22.135Z</time>
      </trkpt>
      <trkpt lat="47.78937" lon="2.32836">
        <ele>112</ele>
        <time>2017-07-23T07:43:23.143Z</time>
      </trkpt>
      <trkpt lat="47.78933" lon="2.32845">
        <ele>112</ele>
        <time>2017-07-23T07:43:24.142Z</time>
      </trkpt>
      <trkpt lat="47.78933" lon="2.32845">
        <ele>112</ele>
        <time>2017-07-23T07:43:25.137Z</time>
      </trkpt>
      <trkpt lat="47.78926" lon="2.32863">
        <ele>112</ele>
        <time>2017-07-23T07:43:26.140Z</time>
      </trkpt>
      <trkpt lat="47.78926" lon="2.32863">
        <ele>112</ele>
        <time>2017-07-23T07:43:27.136Z</time>
      </trkpt>
      <trkpt lat="47.78917" lon="2.32882">
        <ele>112</ele>
        <time>2017-07-23T07:43:28.142Z</time>
      </trkpt>
      <trkpt lat="47.78913" lon="2.32891">
        <ele>113</ele>
        <time>2017-07-23T07:43:29.143Z</time>
      </trkpt>
      <trkpt lat="47.78913" lon="2.32891">
        <ele>113</ele>
        <time>2017-07-23T07:43:30.138Z</time>
      </trkpt>
      <trkpt lat="47.78905" lon="2.3291">
        <ele>113</ele>
        <time>2017-07-23T07:43:31.141Z</time>
      </trkpt>
      <trkpt lat="47.78905" lon="2.3291">
        <ele>113</ele>
        <time>2017-07-23T07:43:32.137Z</time>
      </trkpt>
      <trkpt lat="47.78896" lon="2.32929">
        <ele>113</ele>
        <time>2017-07-23T07:43:33.142Z</time>
      </trkpt>
      <trkpt lat="47.78892" lon="2.32938">
        <ele>113</ele>
        <time>2017-07-23T07:43:34.143Z</time>
      </trkpt>
      <trkpt lat="47.78892" lon="2.32938">
        <ele>113</ele>
        <time>2017-07-23T07:43:35.136Z</time>
      </trkpt>
      <trkpt lat="47.78883" lon="2.32957">
        <ele>113</ele>
        <time>2017-07-23T07:43:36.140Z</time>
      </trkpt>
      <trkpt lat="47.78879" lon="2.32966">
        <ele>113</ele>
        <time>2017-07-23T07:43:37.141Z</time>
      </trkpt>
      <trkpt lat="47.78879" lon="2.32966">
        <ele>113</ele>
        <time>2017-07-23T07:43:38.123Z</time>
      </trkpt>
      <trkpt lat="47.78871" lon="2.32985">
        <ele>113</ele>
        <time>2017-07-23T07:43:39.139Z</time>
      </trkpt>
      <trkpt lat="47.78871" lon="2.32985">
        <ele>113</ele>
        <time>2017-07-23T07:43:40.135Z</time>
      </trkpt>
      <trkpt lat="47.78863" lon="2.33004">
        <ele>114</ele>
        <time>2017-07-23T07:43:41.141Z</time>
      </trkpt>
      <trkpt lat="47.78863" lon="2.33004">
        <ele>114</ele>
        <time>2017-07-23T07:43:42.138Z</time>
      </trkpt>
      <trkpt lat="47.78854" lon="2.33023">
        <ele>114</ele>
        <time>2017-07-23T07:43:43.144Z</time>
      </trkpt>
      <trkpt lat="47.78854" lon="2.33023">
        <ele>114</ele>
        <time>2017-07-23T07:43:44.136Z</time>
      </trkpt>
      <trkpt lat="47.78846" lon="2.33043">
        <ele>114</ele>
        <time>2017-07-23T07:43:45.140Z</time>
      </trkpt>
      <trkpt lat="47.78846" lon="2.33043">
        <ele>114</ele>
        <time>2017-07-23T07:43:46.136Z</time>
      </trkpt>
      <trkpt lat="47.78838" lon="2.33063">
        <ele>114</ele>
        <time>2017-07-23T07:43:47.142Z</time>
      </trkpt>
      <trkpt lat="47.78838" lon="2.33063">
        <ele>114</ele>
        <time>2017-07-23T07:43:48.147Z</time>
      </trkpt>
      <trkpt lat="47.7883" lon="2.33083">
        <ele>114</ele>
        <time>2017-07-23T07:43:49.113Z</time>
      </trkpt>
      <trkpt lat="47.7883" lon="2.33083">
        <ele>114</ele>
        <time>2017-07-23T07:43:50.145Z</time>
      </trkpt>
      <trkpt lat="47.7882" lon="2.33103">
        <ele>114</ele>
        <time>2017-07-23T07:43:51.141Z</time>
      </trkpt>
      <trkpt lat="47.7882" lon="2.33103">
        <ele>114</ele>
        <time>2017-07-23T07:43:52.137Z</time>
      </trkpt>
      <trkpt lat="47.78811" lon="2.33125">
        <ele>114</ele>
        <time>2017-07-23T07:43:53.143Z</time>
      </trkpt>
      <trkpt lat="47.78811" lon="2.33125">
        <ele>114</ele>
        <time>2017-07-23T07:43:54.138Z</time>
      </trkpt>
      <trkpt lat="47.78802" lon="2.33146">
        <ele>114</ele>
        <time>2017-07-23T07:43:55.143Z</time>
      </trkpt>
      <trkpt lat="47.78802" lon="2.33146">
        <ele>114</ele>
        <time>2017-07-23T07:43:56.135Z</time>
      </trkpt>
      <trkpt lat="47.78793" lon="2.33168">
        <ele>114</ele>
        <time>2017-07-23T07:43:57.142Z</time>
      </trkpt>
      <trkpt lat="47.78793" lon="2.33168">
        <ele>114</ele>
        <time>2017-07-23T07:43:58.138Z</time>
      </trkpt>
      <trkpt lat="47.78784" lon="2.3319">
        <ele>114</ele>
        <time>2017-07-23T07:43:59.139Z</time>
      </trkpt>
      <trkpt lat="47.78784" lon="2.3319">
        <ele>114</ele>
        <time>2017-07-23T07:44:00.135Z</time>
      </trkpt>
      <trkpt lat="47.78775" lon="2.33213">
        <ele>114</ele>
        <time>2017-07-23T07:44:01.142Z</time>
      </trkpt>
      <trkpt lat="47.78775" lon="2.33213">
        <ele>114</ele>
        <time>2017-07-23T07:44:02.137Z</time>
      </trkpt>
      <trkpt lat="47.78766" lon="2.33234">
        <ele>114</ele>
        <time>2017-07-23T07:44:03.141Z</time>
      </trkpt>
      <trkpt lat="47.78762" lon="2.33244">
        <ele>114</ele>
        <time>2017-07-23T07:44:04.138Z</time>
      </trkpt>
      <trkpt lat="47.78757" lon="2.33255">
        <ele>114</ele>
        <time>2017-07-23T07:44:05.142Z</time>
      </trkpt>
      <trkpt lat="47.78757" lon="2.33255">
        <ele>114</ele>
        <time>2017-07-23T07:44:06.137Z</time>
      </trkpt>
      <trkpt lat="47.78748" lon="2.33276">
        <ele>114</ele>
        <time>2017-07-23T07:44:07.141Z</time>
      </trkpt>
      <trkpt lat="47.78748" lon="2.33276">
        <ele>114</ele>
        <time>2017-07-23T07:44:08.134Z</time>
      </trkpt>
      <trkpt lat="47.78741" lon="2.33298">
        <ele>114</ele>
        <time>2017-07-23T07:44:09.141Z</time>
      </trkpt>
      <trkpt lat="47.78737" lon="2.33308">
        <ele>114</ele>
        <time>2017-07-23T07:44:10.141Z</time>
      </trkpt>
      <trkpt lat="47.78733" lon="2.33318">
        <ele>114</ele>
        <time>2017-07-23T07:44:11.144Z</time>
      </trkpt>
      <trkpt lat="47.78733" lon="2.33318">
        <ele>114</ele>
        <time>2017-07-23T07:44:12.134Z</time>
      </trkpt>
      <trkpt lat="47.78727" lon="2.33337">
        <ele>113</ele>
        <time>2017-07-23T07:44:13.141Z</time>
      </trkpt>
      <trkpt lat="47.78727" lon="2.33337">
        <ele>113</ele>
        <time>2017-07-23T07:44:14.140Z</time>
      </trkpt>
      <trkpt lat="47.78721" lon="2.33356">
        <ele>114</ele>
        <time>2017-07-23T07:44:15.140Z</time>
      </trkpt>
      <trkpt lat="47.78721" lon="2.33356">
        <ele>114</ele>
        <time>2017-07-23T07:44:16.138Z</time>
      </trkpt>
      <trkpt lat="47.78715" lon="2.33373">
        <ele>114</ele>
        <time>2017-07-23T07:44:17.143Z</time>
      </trkpt>
      <trkpt lat="47.78715" lon="2.33373">
        <ele>114</ele>
        <time>2017-07-23T07:44:18.137Z</time>
      </trkpt>
      <trkpt lat="47.78715" lon="2.33373">
        <ele>114</ele>
        <time>2017-07-23T07:44:19.163Z</time>
      </trkpt>
      <trkpt lat="47.7871" lon="2.3339">
        <ele>114</ele>
        <time>2017-07-23T07:44:20.138Z</time>
      </trkpt>
      <trkpt lat="47.78706" lon="2.33407">
        <ele>114</ele>
        <time>2017-07-23T07:44:21.146Z</time>
      </trkpt>
      <trkpt lat="47.78706" lon="2.33407">
        <ele>114</ele>
        <time>2017-07-23T07:44:22.138Z</time>
      </trkpt>
      <trkpt lat="47.78705" lon="2.33422">
        <ele>114</ele>
        <time>2017-07-23T07:44:23.143Z</time>
      </trkpt>
      <trkpt lat="47.78705" lon="2.33422">
        <ele>114</ele>
        <time>2017-07-23T07:44:24.138Z</time>
      </trkpt>
      <trkpt lat="47.78711" lon="2.33433">
        <ele>113</ele>
        <time>2017-07-23T07:44:25.140Z</time>
      </trkpt>
      <trkpt lat="47.78711" lon="2.33433">
        <ele>113</ele>
        <time>2017-07-23T07:44:26.136Z</time>
      </trkpt>
      <trkpt lat="47.78721" lon="2.33431">
        <ele>113</ele>
        <time>2017-07-23T07:44:27.140Z</time>
      </trkpt>
      <trkpt lat="47.78721" lon="2.33431">
        <ele>113</ele>
        <time>2017-07-23T07:44:28.137Z</time>
      </trkpt>
      <trkpt lat="47.78729" lon="2.33424">
        <ele>112</ele>
        <time>2017-07-23T07:44:29.143Z</time>
      </trkpt>
      <trkpt lat="47.78729" lon="2.33424">
        <ele>112</ele>
        <time>2017-07-23T07:44:30.138Z</time>
      </trkpt>
      <trkpt lat="47.78732" lon="2.33431">
        <ele>113</ele>
        <time>2017-07-23T07:44:31.143Z</time>
      </trkpt>
      <trkpt lat="47.78732" lon="2.33431">
        <ele>113</ele>
        <time>2017-07-23T07:44:32.135Z</time>
      </trkpt>
      <trkpt lat="47.78727" lon="2.33444">
        <ele>112</ele>
        <time>2017-07-23T07:44:33.141Z</time>
      </trkpt>
      <trkpt lat="47.78727" lon="2.33444">
        <ele>112</ele>
        <time>2017-07-23T07:44:34.138Z</time>
      </trkpt>
      <trkpt lat="47.78719" lon="2.33461">
        <ele>111</ele>
        <time>2017-07-23T07:44:35.143Z</time>
      </trkpt>
      <trkpt lat="47.78719" lon="2.33461">
        <ele>111</ele>
        <time>2017-07-23T07:44:36.135Z</time>
      </trkpt>
      <trkpt lat="47.78709" lon="2.33482">
        <ele>111</ele>
        <time>2017-07-23T07:44:37.142Z</time>
      </trkpt>
      <trkpt lat="47.78709" lon="2.33482">
        <ele>111</ele>
        <time>2017-07-23T07:44:38.117Z</time>
      </trkpt>
      <trkpt lat="47.78698" lon="2.33505">
        <ele>110</ele>
        <time>2017-07-23T07:44:39.109Z</time>
      </trkpt>
      <trkpt lat="47.78698" lon="2.33505">
        <ele>110</ele>
        <time>2017-07-23T07:44:40.135Z</time>
      </trkpt>
      <trkpt lat="47.78687" lon="2.33527">
        <ele>110</ele>
        <time>2017-07-23T07:44:41.144Z</time>
      </trkpt>
      <trkpt lat="47.78687" lon="2.33527">
        <ele>110</ele>
        <time>2017-07-23T07:44:42.138Z</time>
      </trkpt>
      <trkpt lat="47.78676" lon="2.33548">
        <ele>110</ele>
        <time>2017-07-23T07:44:43.141Z</time>
      </trkpt>
      <trkpt lat="47.78676" lon="2.33548">
        <ele>110</ele>
        <time>2017-07-23T07:44:44.129Z</time>
      </trkpt>
      <trkpt lat="47.7867" lon="2.33559">
        <ele>110</ele>
        <time>2017-07-23T07:44:45.137Z</time>
      </trkpt>
      <trkpt lat="47.78659" lon="2.3358">
        <ele>110</ele>
        <time>2017-07-23T07:44:46.141Z</time>
      </trkpt>
      <trkpt lat="47.78654" lon="2.3359">
        <ele>110</ele>
        <time>2017-07-23T07:44:47.141Z</time>
      </trkpt>
      <trkpt lat="47.78654" lon="2.3359">
        <ele>110</ele>
        <time>2017-07-23T07:44:48.138Z</time>
      </trkpt>
      <trkpt lat="47.78643" lon="2.33611">
        <ele>110</ele>
        <time>2017-07-23T07:44:49.145Z</time>
      </trkpt>
      <trkpt lat="47.78643" lon="2.33611">
        <ele>110</ele>
        <time>2017-07-23T07:44:50.143Z</time>
      </trkpt>
      <trkpt lat="47.78631" lon="2.33632">
        <ele>110</ele>
        <time>2017-07-23T07:44:51.140Z</time>
      </trkpt>
      <trkpt lat="47.78631" lon="2.33632">
        <ele>110</ele>
        <time>2017-07-23T07:44:52.138Z</time>
      </trkpt>
      <trkpt lat="47.78619" lon="2.33653">
        <ele>109</ele>
        <time>2017-07-23T07:44:53.139Z</time>
      </trkpt>
      <trkpt lat="47.78613" lon="2.33663">
        <ele>109</ele>
        <time>2017-07-23T07:44:54.140Z</time>
      </trkpt>
      <trkpt lat="47.78607" lon="2.33672">
        <ele>109</ele>
        <time>2017-07-23T07:44:55.142Z</time>
      </trkpt>
      <trkpt lat="47.78607" lon="2.33672">
        <ele>109</ele>
        <time>2017-07-23T07:44:56.137Z</time>
      </trkpt>
      <trkpt lat="47.78595" lon="2.33691">
        <ele>109</ele>
        <time>2017-07-23T07:44:57.140Z</time>
      </trkpt>
      <trkpt lat="47.78595" lon="2.33691">
        <ele>109</ele>
        <time>2017-07-23T07:44:58.135Z</time>
      </trkpt>
      <trkpt lat="47.78584" lon="2.3371">
        <ele>109</ele>
        <time>2017-07-23T07:44:59.123Z</time>
      </trkpt>
      <trkpt lat="47.78584" lon="2.3371">
        <ele>109</ele>
        <time>2017-07-23T07:45:00.113Z</time>
      </trkpt>
      <trkpt lat="47.78572" lon="2.3373">
        <ele>109</ele>
        <time>2017-07-23T07:45:01.142Z</time>
      </trkpt>
      <trkpt lat="47.78572" lon="2.3373">
        <ele>109</ele>
        <time>2017-07-23T07:45:02.135Z</time>
      </trkpt>
      <trkpt lat="47.78561" lon="2.33749">
        <ele>109</ele>
        <time>2017-07-23T07:45:03.146Z</time>
      </trkpt>
      <trkpt lat="47.78555" lon="2.33759">
        <ele>109</ele>
        <time>2017-07-23T07:45:04.141Z</time>
      </trkpt>
      <trkpt lat="47.7855" lon="2.33769">
        <ele>109</ele>
        <time>2017-07-23T07:45:05.143Z</time>
      </trkpt>
      <trkpt lat="47.7855" lon="2.33769">
        <ele>109</ele>
        <time>2017-07-23T07:45:06.137Z</time>
      </trkpt>
      <trkpt lat="47.78539" lon="2.33788">
        <ele>109</ele>
        <time>2017-07-23T07:45:07.142Z</time>
      </trkpt>
      <trkpt lat="47.78539" lon="2.33788">
        <ele>109</ele>
        <time>2017-07-23T07:45:08.138Z</time>
      </trkpt>
      <trkpt lat="47.78528" lon="2.33807">
        <ele>109</ele>
        <time>2017-07-23T07:45:09.141Z</time>
      </trkpt>
      <trkpt lat="47.78528" lon="2.33807">
        <ele>109</ele>
        <time>2017-07-23T07:45:10.138Z</time>
      </trkpt>
      <trkpt lat="47.78517" lon="2.33827">
        <ele>109</ele>
        <time>2017-07-23T07:45:11.143Z</time>
      </trkpt>
      <trkpt lat="47.78517" lon="2.33827">
        <ele>109</ele>
        <time>2017-07-23T07:45:12.137Z</time>
      </trkpt>
      <trkpt lat="47.78507" lon="2.33846">
        <ele>109</ele>
        <time>2017-07-23T07:45:13.141Z</time>
      </trkpt>
      <trkpt lat="47.78507" lon="2.33846">
        <ele>109</ele>
        <time>2017-07-23T07:45:14.121Z</time>
      </trkpt>
      <trkpt lat="47.78496" lon="2.33864">
        <ele>109</ele>
        <time>2017-07-23T07:45:15.137Z</time>
      </trkpt>
      <trkpt lat="47.78491" lon="2.33874">
        <ele>109</ele>
        <time>2017-07-23T07:45:16.141Z</time>
      </trkpt>
      <trkpt lat="47.78491" lon="2.33874">
        <ele>109</ele>
        <time>2017-07-23T07:45:17.140Z</time>
      </trkpt>
      <trkpt lat="47.78481" lon="2.33895">
        <ele>109</ele>
        <time>2017-07-23T07:45:18.153Z</time>
      </trkpt>
      <trkpt lat="47.78476" lon="2.33906">
        <ele>109</ele>
        <time>2017-07-23T07:45:19.144Z</time>
      </trkpt>
      <trkpt lat="47.78476" lon="2.33906">
        <ele>109</ele>
        <time>2017-07-23T07:45:20.137Z</time>
      </trkpt>
      <trkpt lat="47.78466" lon="2.33926">
        <ele>109</ele>
        <time>2017-07-23T07:45:21.141Z</time>
      </trkpt>
      <trkpt lat="47.78466" lon="2.33926">
        <ele>109</ele>
        <time>2017-07-23T07:45:22.138Z</time>
      </trkpt>
      <trkpt lat="47.78455" lon="2.33945">
        <ele>109</ele>
        <time>2017-07-23T07:45:23.142Z</time>
      </trkpt>
      <trkpt lat="47.78455" lon="2.33945">
        <ele>109</ele>
        <time>2017-07-23T07:45:24.138Z</time>
      </trkpt>
      <trkpt lat="47.78443" lon="2.33964">
        <ele>110</ele>
        <time>2017-07-23T07:45:25.143Z</time>
      </trkpt>
      <trkpt lat="47.78443" lon="2.33964">
        <ele>110</ele>
        <time>2017-07-23T07:45:26.138Z</time>
      </trkpt>
      <trkpt lat="47.78432" lon="2.33983">
        <ele>110</ele>
        <time>2017-07-23T07:45:27.153Z</time>
      </trkpt>
      <trkpt lat="47.78432" lon="2.33983">
        <ele>110</ele>
        <time>2017-07-23T07:45:28.116Z</time>
      </trkpt>
      <trkpt lat="47.7842" lon="2.34002">
        <ele>109</ele>
        <time>2017-07-23T07:45:29.145Z</time>
      </trkpt>
      <trkpt lat="47.7842" lon="2.34002">
        <ele>109</ele>
        <time>2017-07-23T07:45:30.136Z</time>
      </trkpt>
      <trkpt lat="47.78409" lon="2.3402">
        <ele>109</ele>
        <time>2017-07-23T07:45:31.141Z</time>
      </trkpt>
      <trkpt lat="47.78409" lon="2.3402">
        <ele>109</ele>
        <time>2017-07-23T07:45:32.138Z</time>
      </trkpt>
      <trkpt lat="47.78397" lon="2.34039">
        <ele>110</ele>
        <time>2017-07-23T07:45:33.141Z</time>
      </trkpt>
      <trkpt lat="47.78397" lon="2.34039">
        <ele>110</ele>
        <time>2017-07-23T07:45:34.137Z</time>
      </trkpt>
      <trkpt lat="47.78386" lon="2.34057">
        <ele>110</ele>
        <time>2017-07-23T07:45:35.144Z</time>
      </trkpt>
      <trkpt lat="47.78386" lon="2.34057">
        <ele>110</ele>
        <time>2017-07-23T07:45:36.138Z</time>
      </trkpt>
      <trkpt lat="47.78374" lon="2.34074">
        <ele>110</ele>
        <time>2017-07-23T07:45:37.112Z</time>
      </trkpt>
      <trkpt lat="47.78374" lon="2.34074">
        <ele>110</ele>
        <time>2017-07-23T07:45:38.135Z</time>
      </trkpt>
      <trkpt lat="47.78363" lon="2.3409">
        <ele>110</ele>
        <time>2017-07-23T07:45:39.114Z</time>
      </trkpt>
      <trkpt lat="47.78363" lon="2.3409">
        <ele>110</ele>
        <time>2017-07-23T07:45:40.121Z</time>
      </trkpt>
      <trkpt lat="47.78352" lon="2.34107">
        <ele>110</ele>
        <time>2017-07-23T07:45:41.117Z</time>
      </trkpt>
      <trkpt lat="47.78352" lon="2.34107">
        <ele>110</ele>
        <time>2017-07-23T07:45:42.141Z</time>
      </trkpt>
      <trkpt lat="47.7834" lon="2.34123">
        <ele>111</ele>
        <time>2017-07-23T07:45:43.142Z</time>
      </trkpt>
      <trkpt lat="47.7834" lon="2.34123">
        <ele>111</ele>
        <time>2017-07-23T07:45:44.138Z</time>
      </trkpt>
      <trkpt lat="47.78328" lon="2.34138">
        <ele>111</ele>
        <time>2017-07-23T07:45:45.141Z</time>
      </trkpt>
      <trkpt lat="47.78328" lon="2.34138">
        <ele>111</ele>
        <time>2017-07-23T07:45:46.138Z</time>
      </trkpt>
      <trkpt lat="47.78316" lon="2.34154">
        <ele>111</ele>
        <time>2017-07-23T07:45:47.143Z</time>
      </trkpt>
      <trkpt lat="47.78316" lon="2.34154">
        <ele>111</ele>
        <time>2017-07-23T07:45:48.138Z</time>
      </trkpt>
      <trkpt lat="47.78303" lon="2.3417">
        <ele>111</ele>
        <time>2017-07-23T07:45:49.140Z</time>
      </trkpt>
      <trkpt lat="47.78297" lon="2.34178">
        <ele>111</ele>
        <time>2017-07-23T07:45:50.141Z</time>
      </trkpt>
      <trkpt lat="47.78297" lon="2.34178">
        <ele>111</ele>
        <time>2017-07-23T07:45:51.138Z</time>
      </trkpt>
      <trkpt lat="47.78286" lon="2.34193">
        <ele>111</ele>
        <time>2017-07-23T07:45:52.141Z</time>
      </trkpt>
      <trkpt lat="47.7828" lon="2.34201">
        <ele>111</ele>
        <time>2017-07-23T07:45:53.140Z</time>
      </trkpt>
      <trkpt lat="47.7828" lon="2.34201">
        <ele>111</ele>
        <time>2017-07-23T07:45:54.139Z</time>
      </trkpt>
      <trkpt lat="47.78268" lon="2.34216">
        <ele>112</ele>
        <time>2017-07-23T07:45:55.144Z</time>
      </trkpt>
      <trkpt lat="47.78268" lon="2.34216">
        <ele>112</ele>
        <time>2017-07-23T07:45:56.141Z</time>
      </trkpt>
      <trkpt lat="47.78256" lon="2.34231">
        <ele>112</ele>
        <time>2017-07-23T07:45:57.139Z</time>
      </trkpt>
      <trkpt lat="47.78256" lon="2.34231">
        <ele>112</ele>
        <time>2017-07-23T07:45:58.138Z</time>
      </trkpt>
      <trkpt lat="47.78244" lon="2.34246">
        <ele>111</ele>
        <time>2017-07-23T07:45:59.143Z</time>
      </trkpt>
      <trkpt lat="47.78244" lon="2.34246">
        <ele>111</ele>
        <time>2017-07-23T07:46:00.145Z</time>
      </trkpt>
      <trkpt lat="47.78232" lon="2.34261">
        <ele>111</ele>
        <time>2017-07-23T07:46:01.141Z</time>
      </trkpt>
      <trkpt lat="47.78232" lon="2.34261">
        <ele>111</ele>
        <time>2017-07-23T07:46:02.138Z</time>
      </trkpt>
      <trkpt lat="47.7822" lon="2.34276">
        <ele>111</ele>
        <time>2017-07-23T07:46:03.141Z</time>
      </trkpt>
      <trkpt lat="47.78215" lon="2.34283">
        <ele>111</ele>
        <time>2017-07-23T07:46:04.141Z</time>
      </trkpt>
      <trkpt lat="47.78208" lon="2.34291">
        <ele>111</ele>
        <time>2017-07-23T07:46:05.143Z</time>
      </trkpt>
      <trkpt lat="47.78208" lon="2.34291">
        <ele>111</ele>
        <time>2017-07-23T07:46:06.139Z</time>
      </trkpt>
      <trkpt lat="47.78196" lon="2.34306">
        <ele>112</ele>
        <time>2017-07-23T07:46:07.142Z</time>
      </trkpt>
      <trkpt lat="47.78196" lon="2.34306">
        <ele>112</ele>
        <time>2017-07-23T07:46:08.136Z</time>
      </trkpt>
      <trkpt lat="47.78183" lon="2.34321">
        <ele>112</ele>
        <time>2017-07-23T07:46:09.140Z</time>
      </trkpt>
      <trkpt lat="47.78183" lon="2.34321">
        <ele>112</ele>
        <time>2017-07-23T07:46:10.138Z</time>
      </trkpt>
      <trkpt lat="47.7817" lon="2.34335">
        <ele>112</ele>
        <time>2017-07-23T07:46:11.144Z</time>
      </trkpt>
      <trkpt lat="47.7817" lon="2.34335">
        <ele>112</ele>
        <time>2017-07-23T07:46:12.138Z</time>
      </trkpt>
      <trkpt lat="47.78158" lon="2.34349">
        <ele>112</ele>
        <time>2017-07-23T07:46:13.141Z</time>
      </trkpt>
      <trkpt lat="47.78158" lon="2.34349">
        <ele>112</ele>
        <time>2017-07-23T07:46:14.138Z</time>
      </trkpt>
      <trkpt lat="47.78144" lon="2.34363">
        <ele>112</ele>
        <time>2017-07-23T07:46:15.113Z</time>
      </trkpt>
      <trkpt lat="47.78144" lon="2.34363">
        <ele>112</ele>
        <time>2017-07-23T07:46:16.139Z</time>
      </trkpt>
      <trkpt lat="47.7813" lon="2.34377">
        <ele>112</ele>
        <time>2017-07-23T07:46:17.143Z</time>
      </trkpt>
      <trkpt lat="47.7813" lon="2.34377">
        <ele>112</ele>
        <time>2017-07-23T07:46:18.138Z</time>
      </trkpt>
      <trkpt lat="47.78115" lon="2.34391">
        <ele>112</ele>
        <time>2017-07-23T07:46:19.142Z</time>
      </trkpt>
      <trkpt lat="47.78115" lon="2.34391">
        <ele>112</ele>
        <time>2017-07-23T07:46:20.136Z</time>
      </trkpt>
      <trkpt lat="47.78101" lon="2.34405">
        <ele>112</ele>
        <time>2017-07-23T07:46:21.141Z</time>
      </trkpt>
      <trkpt lat="47.78101" lon="2.34405">
        <ele>112</ele>
        <time>2017-07-23T07:46:22.138Z</time>
      </trkpt>
      <trkpt lat="47.78088" lon="2.34418">
        <ele>112</ele>
        <time>2017-07-23T07:46:23.142Z</time>
      </trkpt>
      <trkpt lat="47.78081" lon="2.34425">
        <ele>113</ele>
        <time>2017-07-23T07:46:24.147Z</time>
      </trkpt>
      <trkpt lat="47.78081" lon="2.34425">
        <ele>113</ele>
        <time>2017-07-23T07:46:25.139Z</time>
      </trkpt>
      <trkpt lat="47.78081" lon="2.34425">
        <ele>113</ele>
        <time>2017-07-23T07:46:26.118Z</time>
      </trkpt>
      <trkpt lat="47.78067" lon="2.3444">
        <ele>113</ele>
        <time>2017-07-23T07:46:27.138Z</time>
      </trkpt>
      <trkpt lat="47.78053" lon="2.34453">
        <ele>112</ele>
        <time>2017-07-23T07:46:28.140Z</time>
      </trkpt>
      <trkpt lat="47.78046" lon="2.3446">
        <ele>112</ele>
        <time>2017-07-23T07:46:29.143Z</time>
      </trkpt>
      <trkpt lat="47.78046" lon="2.3446">
        <ele>112</ele>
        <time>2017-07-23T07:46:30.135Z</time>
      </trkpt>
      <trkpt lat="47.78032" lon="2.34475">
        <ele>113</ele>
        <time>2017-07-23T07:46:31.141Z</time>
      </trkpt>
      <trkpt lat="47.78032" lon="2.34475">
        <ele>113</ele>
        <time>2017-07-23T07:46:32.111Z</time>
      </trkpt>
      <trkpt lat="47.78019" lon="2.34489">
        <ele>113</ele>
        <time>2017-07-23T07:46:33.140Z</time>
      </trkpt>
      <trkpt lat="47.78019" lon="2.34489">
        <ele>113</ele>
        <time>2017-07-23T07:46:34.138Z</time>
      </trkpt>
      <trkpt lat="47.78006" lon="2.34502">
        <ele>113</ele>
        <time>2017-07-23T07:46:35.143Z</time>
      </trkpt>
      <trkpt lat="47.78006" lon="2.34502">
        <ele>113</ele>
        <time>2017-07-23T07:46:36.138Z</time>
      </trkpt>
      <trkpt lat="47.77993" lon="2.34515">
        <ele>113</ele>
        <time>2017-07-23T07:46:37.142Z</time>
      </trkpt>
      <trkpt lat="47.77993" lon="2.34515">
        <ele>113</ele>
        <time>2017-07-23T07:46:38.121Z</time>
      </trkpt>
      <trkpt lat="47.7798" lon="2.34527">
        <ele>113</ele>
        <time>2017-07-23T07:46:39.160Z</time>
      </trkpt>
      <trkpt lat="47.77974" lon="2.34532">
        <ele>113</ele>
        <time>2017-07-23T07:46:40.141Z</time>
      </trkpt>
      <trkpt lat="47.77974" lon="2.34532">
        <ele>113</ele>
        <time>2017-07-23T07:46:41.141Z</time>
      </trkpt>
      <trkpt lat="47.77963" lon="2.34544">
        <ele>113</ele>
        <time>2017-07-23T07:46:42.141Z</time>
      </trkpt>
      <trkpt lat="47.77957" lon="2.34549">
        <ele>113</ele>
        <time>2017-07-23T07:46:43.143Z</time>
      </trkpt>
      <trkpt lat="47.77957" lon="2.34549">
        <ele>113</ele>
        <time>2017-07-23T07:46:44.134Z</time>
      </trkpt>
      <trkpt lat="47.77946" lon="2.3456">
        <ele>114</ele>
        <time>2017-07-23T07:46:45.141Z</time>
      </trkpt>
      <trkpt lat="47.77946" lon="2.3456">
        <ele>114</ele>
        <time>2017-07-23T07:46:46.138Z</time>
      </trkpt>
      <trkpt lat="47.77936" lon="2.3457">
        <ele>114</ele>
        <time>2017-07-23T07:46:47.143Z</time>
      </trkpt>
      <trkpt lat="47.77936" lon="2.3457">
        <ele>114</ele>
        <time>2017-07-23T07:46:48.136Z</time>
      </trkpt>
      <trkpt lat="47.77925" lon="2.34581">
        <ele>113</ele>
        <time>2017-07-23T07:46:49.142Z</time>
      </trkpt>
      <trkpt lat="47.77925" lon="2.34581">
        <ele>113</ele>
        <time>2017-07-23T07:46:50.138Z</time>
      </trkpt>
      <trkpt lat="47.77914" lon="2.34591">
        <ele>113</ele>
        <time>2017-07-23T07:46:51.141Z</time>
      </trkpt>
      <trkpt lat="47.77914" lon="2.34591">
        <ele>113</ele>
        <time>2017-07-23T07:46:52.138Z</time>
      </trkpt>
      <trkpt lat="47.77904" lon="2.34602">
        <ele>113</ele>
        <time>2017-07-23T07:46:53.143Z</time>
      </trkpt>
      <trkpt lat="47.77904" lon="2.34602">
        <ele>113</ele>
        <time>2017-07-23T07:46:54.144Z</time>
      </trkpt>
      <trkpt lat="47.77894" lon="2.34612">
        <ele>112</ele>
        <time>2017-07-23T07:46:55.143Z</time>
      </trkpt>
      <trkpt lat="47.77894" lon="2.34612">
        <ele>112</ele>
        <time>2017-07-23T07:46:56.138Z</time>
      </trkpt>
      <trkpt lat="47.77884" lon="2.34621">
        <ele>112</ele>
        <time>2017-07-23T07:46:57.140Z</time>
      </trkpt>
      <trkpt lat="47.77879" lon="2.34626">
        <ele>112</ele>
        <time>2017-07-23T07:46:58.142Z</time>
      </trkpt>
      <trkpt lat="47.77879" lon="2.34626">
        <ele>112</ele>
        <time>2017-07-23T07:46:59.141Z</time>
      </trkpt>
      <trkpt lat="47.77869" lon="2.34637">
        <ele>112</ele>
        <time>2017-07-23T07:47:00.141Z</time>
      </trkpt>
      <trkpt lat="47.77864" lon="2.34642">
        <ele>112</ele>
        <time>2017-07-23T07:47:01.143Z</time>
      </trkpt>
      <trkpt lat="47.77864" lon="2.34642">
        <ele>112</ele>
        <time>2017-07-23T07:47:02.139Z</time>
      </trkpt>
      <trkpt lat="47.77855" lon="2.34654">
        <ele>112</ele>
        <time>2017-07-23T07:47:03.141Z</time>
      </trkpt>
      <trkpt lat="47.77855" lon="2.34654">
        <ele>112</ele>
        <time>2017-07-23T07:47:04.139Z</time>
      </trkpt>
      <trkpt lat="47.77846" lon="2.34666">
        <ele>111</ele>
        <time>2017-07-23T07:47:05.144Z</time>
      </trkpt>
      <trkpt lat="47.77846" lon="2.34666">
        <ele>111</ele>
        <time>2017-07-23T07:47:06.135Z</time>
      </trkpt>
      <trkpt lat="47.77836" lon="2.34678">
        <ele>111</ele>
        <time>2017-07-23T07:47:07.140Z</time>
      </trkpt>
      <trkpt lat="47.77836" lon="2.34678">
        <ele>111</ele>
        <time>2017-07-23T07:47:08.138Z</time>
      </trkpt>
      <trkpt lat="47.77826" lon="2.34691">
        <ele>111</ele>
        <time>2017-07-23T07:47:09.140Z</time>
      </trkpt>
      <trkpt lat="47.77821" lon="2.34697">
        <ele>111</ele>
        <time>2017-07-23T07:47:10.139Z</time>
      </trkpt>
      <trkpt lat="47.77817" lon="2.34703">
        <ele>111</ele>
        <time>2017-07-23T07:47:11.143Z</time>
      </trkpt>
      <trkpt lat="47.77817" lon="2.34703">
        <ele>111</ele>
        <time>2017-07-23T07:47:12.138Z</time>
      </trkpt>
      <trkpt lat="47.77817" lon="2.34703">
        <ele>111</ele>
        <time>2017-07-23T07:47:13.139Z</time>
      </trkpt>
      <trkpt lat="47.77807" lon="2.34716">
        <ele>110</ele>
        <time>2017-07-23T07:47:14.140Z</time>
      </trkpt>
      <trkpt lat="47.77796" lon="2.34729">
        <ele>110</ele>
        <time>2017-07-23T07:47:15.141Z</time>
      </trkpt>
      <trkpt lat="47.77791" lon="2.34735">
        <ele>110</ele>
        <time>2017-07-23T07:47:16.143Z</time>
      </trkpt>
      <trkpt lat="47.77791" lon="2.34735">
        <ele>110</ele>
        <time>2017-07-23T07:47:17.141Z</time>
      </trkpt>
      <trkpt lat="47.77782" lon="2.34748">
        <ele>110</ele>
        <time>2017-07-23T07:47:18.136Z</time>
      </trkpt>
      <trkpt lat="47.77777" lon="2.34755">
        <ele>110</ele>
        <time>2017-07-23T07:47:19.145Z</time>
      </trkpt>
      <trkpt lat="47.77777" lon="2.34755">
        <ele>110</ele>
        <time>2017-07-23T07:47:20.140Z</time>
      </trkpt>
      <trkpt lat="47.77767" lon="2.34769">
        <ele>110</ele>
        <time>2017-07-23T07:47:21.142Z</time>
      </trkpt>
      <trkpt lat="47.77762" lon="2.34775">
        <ele>110</ele>
        <time>2017-07-23T07:47:22.139Z</time>
      </trkpt>
      <trkpt lat="47.77757" lon="2.34781">
        <ele>110</ele>
        <time>2017-07-23T07:47:23.144Z</time>
      </trkpt>
      <trkpt lat="47.77757" lon="2.34781">
        <ele>110</ele>
        <time>2017-07-23T07:47:24.140Z</time>
      </trkpt>
      <trkpt lat="47.77747" lon="2.34794">
        <ele>110</ele>
        <time>2017-07-23T07:47:25.142Z</time>
      </trkpt>
      <trkpt lat="47.77747" lon="2.34794">
        <ele>110</ele>
        <time>2017-07-23T07:47:26.139Z</time>
      </trkpt>
      <trkpt lat="47.77738" lon="2.34806">
        <ele>109</ele>
        <time>2017-07-23T07:47:27.141Z</time>
      </trkpt>
      <trkpt lat="47.77733" lon="2.34812">
        <ele>109</ele>
        <time>2017-07-23T07:47:28.141Z</time>
      </trkpt>
      <trkpt lat="47.77733" lon="2.34812">
        <ele>109</ele>
        <time>2017-07-23T07:47:29.139Z</time>
      </trkpt>
      <trkpt lat="47.77723" lon="2.34825">
        <ele>109</ele>
        <time>2017-07-23T07:47:30.141Z</time>
      </trkpt>
      <trkpt lat="47.77718" lon="2.34831">
        <ele>109</ele>
        <time>2017-07-23T07:47:31.140Z</time>
      </trkpt>
      <trkpt lat="47.77718" lon="2.34831">
        <ele>109</ele>
        <time>2017-07-23T07:47:32.139Z</time>
      </trkpt>
      <trkpt lat="47.77709" lon="2.34844">
        <ele>109</ele>
        <time>2017-07-23T07:47:33.141Z</time>
      </trkpt>
      <trkpt lat="47.77709" lon="2.34844">
        <ele>109</ele>
        <time>2017-07-23T07:47:34.137Z</time>
      </trkpt>
      <trkpt lat="47.77699" lon="2.34857">
        <ele>110</ele>
        <time>2017-07-23T07:47:35.143Z</time>
      </trkpt>
      <trkpt lat="47.77699" lon="2.34857">
        <ele>110</ele>
        <time>2017-07-23T07:47:36.140Z</time>
      </trkpt>
      <trkpt lat="47.7769" lon="2.3487">
        <ele>110</ele>
        <time>2017-07-23T07:47:37.157Z</time>
      </trkpt>
      <trkpt lat="47.7769" lon="2.3487">
        <ele>110</ele>
        <time>2017-07-23T07:47:38.143Z</time>
      </trkpt>
      <trkpt lat="47.7768" lon="2.34883">
        <ele>111</ele>
        <time>2017-07-23T07:47:39.142Z</time>
      </trkpt>
      <trkpt lat="47.7768" lon="2.34883">
        <ele>111</ele>
        <time>2017-07-23T07:47:40.110Z</time>
      </trkpt>
      <trkpt lat="47.77675" lon="2.3489">
        <ele>111</ele>
        <time>2017-07-23T07:47:41.115Z</time>
      </trkpt>
      <trkpt lat="47.77665" lon="2.34902">
        <ele>111</ele>
        <time>2017-07-23T07:47:42.146Z</time>
      </trkpt>
      <trkpt lat="47.7766" lon="2.34909">
        <ele>112</ele>
        <time>2017-07-23T07:47:43.144Z</time>
      </trkpt>
      <trkpt lat="47.7766" lon="2.34909">
        <ele>112</ele>
        <time>2017-07-23T07:47:44.146Z</time>
      </trkpt>
      <trkpt lat="47.77651" lon="2.34922">
        <ele>112</ele>
        <time>2017-07-23T07:47:45.142Z</time>
      </trkpt>
      <trkpt lat="47.77645" lon="2.34929">
        <ele>113</ele>
        <time>2017-07-23T07:47:46.142Z</time>
      </trkpt>
      <trkpt lat="47.7764" lon="2.34936">
        <ele>113</ele>
        <time>2017-07-23T07:47:47.144Z</time>
      </trkpt>
      <trkpt lat="47.7764" lon="2.34936">
        <ele>113</ele>
        <time>2017-07-23T07:47:48.135Z</time>
      </trkpt>
      <trkpt lat="47.7763" lon="2.34948">
        <ele>113</ele>
        <time>2017-07-23T07:47:49.142Z</time>
      </trkpt>
      <trkpt lat="47.7763" lon="2.34948">
        <ele>113</ele>
        <time>2017-07-23T07:47:50.138Z</time>
      </trkpt>
      <trkpt lat="47.77619" lon="2.34962">
        <ele>113</ele>
        <time>2017-07-23T07:47:51.142Z</time>
      </trkpt>
      <trkpt lat="47.77619" lon="2.34962">
        <ele>113</ele>
        <time>2017-07-23T07:47:52.136Z</time>
      </trkpt>
      <trkpt lat="47.77609" lon="2.34975">
        <ele>113</ele>
        <time>2017-07-23T07:47:53.143Z</time>
      </trkpt>
      <trkpt lat="47.77609" lon="2.34975">
        <ele>113</ele>
        <time>2017-07-23T07:47:54.139Z</time>
      </trkpt>
      <trkpt lat="47.77598" lon="2.34989">
        <ele>113</ele>
        <time>2017-07-23T07:47:55.142Z</time>
      </trkpt>
      <trkpt lat="47.77598" lon="2.34989">
        <ele>113</ele>
        <time>2017-07-23T07:47:56.140Z</time>
      </trkpt>
      <trkpt lat="47.77587" lon="2.35003">
        <ele>113</ele>
        <time>2017-07-23T07:47:57.141Z</time>
      </trkpt>
      <trkpt lat="47.77587" lon="2.35003">
        <ele>113</ele>
        <time>2017-07-23T07:47:58.139Z</time>
      </trkpt>
      <trkpt lat="47.77577" lon="2.35017">
        <ele>113</ele>
        <time>2017-07-23T07:47:59.143Z</time>
      </trkpt>
      <trkpt lat="47.77577" lon="2.35017">
        <ele>113</ele>
        <time>2017-07-23T07:48:00.140Z</time>
      </trkpt>
      <trkpt lat="47.77566" lon="2.35032">
        <ele>113</ele>
        <time>2017-07-23T07:48:01.140Z</time>
      </trkpt>
      <trkpt lat="47.77566" lon="2.35032">
        <ele>113</ele>
        <time>2017-07-23T07:48:02.139Z</time>
      </trkpt>
      <trkpt lat="47.77556" lon="2.35046">
        <ele>113</ele>
        <time>2017-07-23T07:48:03.142Z</time>
      </trkpt>
      <trkpt lat="47.77556" lon="2.35046">
        <ele>113</ele>
        <time>2017-07-23T07:48:04.137Z</time>
      </trkpt>
      <trkpt lat="47.77546" lon="2.35061">
        <ele>113</ele>
        <time>2017-07-23T07:48:05.140Z</time>
      </trkpt>
      <trkpt lat="47.77546" lon="2.35061">
        <ele>113</ele>
        <time>2017-07-23T07:48:06.136Z</time>
      </trkpt>
      <trkpt lat="47.77536" lon="2.35077">
        <ele>113</ele>
        <time>2017-07-23T07:48:07.142Z</time>
      </trkpt>
      <trkpt lat="47.77536" lon="2.35077">
        <ele>113</ele>
        <time>2017-07-23T07:48:08.138Z</time>
      </trkpt>
      <trkpt lat="47.77527" lon="2.35092">
        <ele>113</ele>
        <time>2017-07-23T07:48:09.142Z</time>
      </trkpt>
      <trkpt lat="47.77527" lon="2.35092">
        <ele>113</ele>
        <time>2017-07-23T07:48:10.136Z</time>
      </trkpt>
      <trkpt lat="47.77517" lon="2.35107">
        <ele>113</ele>
        <time>2017-07-23T07:48:11.144Z</time>
      </trkpt>
      <trkpt lat="47.77517" lon="2.35107">
        <ele>113</ele>
        <time>2017-07-23T07:48:12.139Z</time>
      </trkpt>
      <trkpt lat="47.77507" lon="2.35121">
        <ele>113</ele>
        <time>2017-07-23T07:48:13.140Z</time>
      </trkpt>
      <trkpt lat="47.77507" lon="2.35121">
        <ele>113</ele>
        <time>2017-07-23T07:48:14.139Z</time>
      </trkpt>
      <trkpt lat="47.77498" lon="2.35136">
        <ele>113</ele>
        <time>2017-07-23T07:48:15.159Z</time>
      </trkpt>
      <trkpt lat="47.77493" lon="2.35143">
        <ele>113</ele>
        <time>2017-07-23T07:48:16.147Z</time>
      </trkpt>
      <trkpt lat="47.77488" lon="2.3515">
        <ele>114</ele>
        <time>2017-07-23T07:48:17.144Z</time>
      </trkpt>
      <trkpt lat="47.77488" lon="2.3515">
        <ele>114</ele>
        <time>2017-07-23T07:48:18.115Z</time>
      </trkpt>
      <trkpt lat="47.77479" lon="2.35165">
        <ele>114</ele>
        <time>2017-07-23T07:48:19.143Z</time>
      </trkpt>
      <trkpt lat="47.77479" lon="2.35165">
        <ele>114</ele>
        <time>2017-07-23T07:48:20.140Z</time>
      </trkpt>
      <trkpt lat="47.77469" lon="2.3518">
        <ele>114</ele>
        <time>2017-07-23T07:48:21.142Z</time>
      </trkpt>
      <trkpt lat="47.77464" lon="2.35187">
        <ele>114</ele>
        <time>2017-07-23T07:48:22.142Z</time>
      </trkpt>
      <trkpt lat="47.77459" lon="2.35195">
        <ele>114</ele>
        <time>2017-07-23T07:48:23.144Z</time>
      </trkpt>
      <trkpt lat="47.77459" lon="2.35195">
        <ele>114</ele>
        <time>2017-07-23T07:48:24.138Z</time>
      </trkpt>
      <trkpt lat="47.77449" lon="2.3521">
        <ele>113</ele>
        <time>2017-07-23T07:48:25.135Z</time>
      </trkpt>
      <trkpt lat="47.77445" lon="2.35217">
        <ele>113</ele>
        <time>2017-07-23T07:48:26.142Z</time>
      </trkpt>
      <trkpt lat="47.77445" lon="2.35217">
        <ele>113</ele>
        <time>2017-07-23T07:48:27.136Z</time>
      </trkpt>
      <trkpt lat="47.77436" lon="2.35232">
        <ele>114</ele>
        <time>2017-07-23T07:48:28.142Z</time>
      </trkpt>
      <trkpt lat="47.77436" lon="2.35232">
        <ele>114</ele>
        <time>2017-07-23T07:48:29.139Z</time>
      </trkpt>
      <trkpt lat="47.77428" lon="2.35248">
        <ele>114</ele>
        <time>2017-07-23T07:48:30.142Z</time>
      </trkpt>
      <trkpt lat="47.77424" lon="2.35257">
        <ele>114</ele>
        <time>2017-07-23T07:48:31.143Z</time>
      </trkpt>
      <trkpt lat="47.77424" lon="2.35257">
        <ele>114</ele>
        <time>2017-07-23T07:48:32.139Z</time>
      </trkpt>
      <trkpt lat="47.77416" lon="2.35274">
        <ele>113</ele>
        <time>2017-07-23T07:48:33.138Z</time>
      </trkpt>
      <trkpt lat="47.77416" lon="2.35274">
        <ele>113</ele>
        <time>2017-07-23T07:48:34.137Z</time>
      </trkpt>
      <trkpt lat="47.7741" lon="2.35294">
        <ele>113</ele>
        <time>2017-07-23T07:48:35.142Z</time>
      </trkpt>
      <trkpt lat="47.7741" lon="2.35294">
        <ele>113</ele>
        <time>2017-07-23T07:48:36.139Z</time>
      </trkpt>
      <trkpt lat="47.77405" lon="2.35313">
        <ele>112</ele>
        <time>2017-07-23T07:48:37.143Z</time>
      </trkpt>
      <trkpt lat="47.77405" lon="2.35313">
        <ele>112</ele>
        <time>2017-07-23T07:48:38.129Z</time>
      </trkpt>
      <trkpt lat="47.774" lon="2.35333">
        <ele>113</ele>
        <time>2017-07-23T07:48:39.142Z</time>
      </trkpt>
      <trkpt lat="47.774" lon="2.35333">
        <ele>113</ele>
        <time>2017-07-23T07:48:40.109Z</time>
      </trkpt>
      <trkpt lat="47.77395" lon="2.35352">
        <ele>113</ele>
        <time>2017-07-23T07:48:41.143Z</time>
      </trkpt>
      <trkpt lat="47.77395" lon="2.35352">
        <ele>113</ele>
        <time>2017-07-23T07:48:42.138Z</time>
      </trkpt>
      <trkpt lat="47.7739" lon="2.35371">
        <ele>113</ele>
        <time>2017-07-23T07:48:43.140Z</time>
      </trkpt>
      <trkpt lat="47.7739" lon="2.35371">
        <ele>113</ele>
        <time>2017-07-23T07:48:44.112Z</time>
      </trkpt>
      <trkpt lat="47.77384" lon="2.35391">
        <ele>112</ele>
        <time>2017-07-23T07:48:45.146Z</time>
      </trkpt>
      <trkpt lat="47.77384" lon="2.35391">
        <ele>112</ele>
        <time>2017-07-23T07:48:46.140Z</time>
      </trkpt>
      <trkpt lat="47.77379" lon="2.35409">
        <ele>112</ele>
        <time>2017-07-23T07:48:47.142Z</time>
      </trkpt>
      <trkpt lat="47.77379" lon="2.35409">
        <ele>112</ele>
        <time>2017-07-23T07:48:48.139Z</time>
      </trkpt>
      <trkpt lat="47.77373" lon="2.35429">
        <ele>112</ele>
        <time>2017-07-23T07:48:49.143Z</time>
      </trkpt>
      <trkpt lat="47.77373" lon="2.35429">
        <ele>112</ele>
        <time>2017-07-23T07:48:50.139Z</time>
      </trkpt>
      <trkpt lat="47.77367" lon="2.35449">
        <ele>112</ele>
        <time>2017-07-23T07:48:51.141Z</time>
      </trkpt>
      <trkpt lat="47.77364" lon="2.35459">
        <ele>112</ele>
        <time>2017-07-23T07:48:52.143Z</time>
      </trkpt>
      <trkpt lat="47.77364" lon="2.35459">
        <ele>112</ele>
        <time>2017-07-23T07:48:53.141Z</time>
      </trkpt>
      <trkpt lat="47.77358" lon="2.35479">
        <ele>111</ele>
        <time>2017-07-23T07:48:54.142Z</time>
      </trkpt>
      <trkpt lat="47.77354" lon="2.35489">
        <ele>111</ele>
        <time>2017-07-23T07:48:55.141Z</time>
      </trkpt>
      <trkpt lat="47.77354" lon="2.35489">
        <ele>111</ele>
        <time>2017-07-23T07:48:56.123Z</time>
      </trkpt>
      <trkpt lat="47.77348" lon="2.35508">
        <ele>112</ele>
        <time>2017-07-23T07:48:57.113Z</time>
      </trkpt>
      <trkpt lat="47.77348" lon="2.35508">
        <ele>112</ele>
        <time>2017-07-23T07:48:58.140Z</time>
      </trkpt>
      <trkpt lat="47.77342" lon="2.35527">
        <ele>112</ele>
        <time>2017-07-23T07:48:59.143Z</time>
      </trkpt>
      <trkpt lat="47.77342" lon="2.35527">
        <ele>112</ele>
        <time>2017-07-23T07:49:00.136Z</time>
      </trkpt>
      <trkpt lat="47.77336" lon="2.35547">
        <ele>112</ele>
        <time>2017-07-23T07:49:01.140Z</time>
      </trkpt>
      <trkpt lat="47.77336" lon="2.35547">
        <ele>112</ele>
        <time>2017-07-23T07:49:02.140Z</time>
      </trkpt>
      <trkpt lat="47.7733" lon="2.35567">
        <ele>111</ele>
        <time>2017-07-23T07:49:03.142Z</time>
      </trkpt>
      <trkpt lat="47.7733" lon="2.35567">
        <ele>111</ele>
        <time>2017-07-23T07:49:04.139Z</time>
      </trkpt>
      <trkpt lat="47.77324" lon="2.35586">
        <ele>112</ele>
        <time>2017-07-23T07:49:05.144Z</time>
      </trkpt>
      <trkpt lat="47.77324" lon="2.35586">
        <ele>112</ele>
        <time>2017-07-23T07:49:06.140Z</time>
      </trkpt>
      <trkpt lat="47.77318" lon="2.35604">
        <ele>112</ele>
        <time>2017-07-23T07:49:07.140Z</time>
      </trkpt>
      <trkpt lat="47.77318" lon="2.35604">
        <ele>112</ele>
        <time>2017-07-23T07:49:08.132Z</time>
      </trkpt>
      <trkpt lat="47.77312" lon="2.35623">
        <ele>113</ele>
        <time>2017-07-23T07:49:09.122Z</time>
      </trkpt>
      <trkpt lat="47.77309" lon="2.35632">
        <ele>113</ele>
        <time>2017-07-23T07:49:10.111Z</time>
      </trkpt>
      <trkpt lat="47.77309" lon="2.35632">
        <ele>113</ele>
        <time>2017-07-23T07:49:11.141Z</time>
      </trkpt>
      <trkpt lat="47.77303" lon="2.35651">
        <ele>113</ele>
        <time>2017-07-23T07:49:12.116Z</time>
      </trkpt>
      <trkpt lat="47.773" lon="2.3566">
        <ele>113</ele>
        <time>2017-07-23T07:49:13.143Z</time>
      </trkpt>
      <trkpt lat="47.773" lon="2.3566">
        <ele>113</ele>
        <time>2017-07-23T07:49:14.137Z</time>
      </trkpt>
      <trkpt lat="47.77294" lon="2.35679">
        <ele>113</ele>
        <time>2017-07-23T07:49:15.143Z</time>
      </trkpt>
      <trkpt lat="47.77294" lon="2.35679">
        <ele>113</ele>
        <time>2017-07-23T07:49:16.140Z</time>
      </trkpt>
      <trkpt lat="47.77287" lon="2.35699">
        <ele>113</ele>
        <time>2017-07-23T07:49:17.141Z</time>
      </trkpt>
      <trkpt lat="47.77287" lon="2.35699">
        <ele>113</ele>
        <time>2017-07-23T07:49:18.134Z</time>
      </trkpt>
      <trkpt lat="47.77281" lon="2.3572">
        <ele>113</ele>
        <time>2017-07-23T07:49:19.141Z</time>
      </trkpt>
      <trkpt lat="47.77281" lon="2.3572">
        <ele>113</ele>
        <time>2017-07-23T07:49:20.140Z</time>
      </trkpt>
      <trkpt lat="47.77275" lon="2.35743">
        <ele>113</ele>
        <time>2017-07-23T07:49:21.141Z</time>
      </trkpt>
      <trkpt lat="47.77272" lon="2.35754">
        <ele>113</ele>
        <time>2017-07-23T07:49:22.140Z</time>
      </trkpt>
      <trkpt lat="47.77272" lon="2.35754">
        <ele>113</ele>
        <time>2017-07-23T07:49:23.141Z</time>
      </trkpt>
      <trkpt lat="47.77267" lon="2.35778">
        <ele>113</ele>
        <time>2017-07-23T07:49:24.142Z</time>
      </trkpt>
      <trkpt lat="47.77265" lon="2.3579">
        <ele>113</ele>
        <time>2017-07-23T07:49:25.144Z</time>
      </trkpt>
      <trkpt lat="47.77265" lon="2.3579">
        <ele>113</ele>
        <time>2017-07-23T07:49:26.137Z</time>
      </trkpt>
      <trkpt lat="47.77261" lon="2.35814">
        <ele>113</ele>
        <time>2017-07-23T07:49:27.142Z</time>
      </trkpt>
      <trkpt lat="47.77261" lon="2.35814">
        <ele>113</ele>
        <time>2017-07-23T07:49:28.139Z</time>
      </trkpt>
      <trkpt lat="47.77256" lon="2.35839">
        <ele>113</ele>
        <time>2017-07-23T07:49:29.144Z</time>
      </trkpt>
      <trkpt lat="47.77256" lon="2.35839">
        <ele>113</ele>
        <time>2017-07-23T07:49:30.140Z</time>
      </trkpt>
      <trkpt lat="47.77252" lon="2.35865">
        <ele>113</ele>
        <time>2017-07-23T07:49:31.143Z</time>
      </trkpt>
      <trkpt lat="47.77252" lon="2.35865">
        <ele>113</ele>
        <time>2017-07-23T07:49:32.137Z</time>
      </trkpt>
      <trkpt lat="47.77249" lon="2.35889">
        <ele>113</ele>
        <time>2017-07-23T07:49:33.117Z</time>
      </trkpt>
      <trkpt lat="47.77249" lon="2.35889">
        <ele>113</ele>
        <time>2017-07-23T07:49:34.140Z</time>
      </trkpt>
      <trkpt lat="47.77245" lon="2.35914">
        <ele>112</ele>
        <time>2017-07-23T07:49:35.143Z</time>
      </trkpt>
      <trkpt lat="47.77245" lon="2.35914">
        <ele>112</ele>
        <time>2017-07-23T07:49:36.140Z</time>
      </trkpt>
      <trkpt lat="47.77241" lon="2.35938">
        <ele>112</ele>
        <time>2017-07-23T07:49:37.140Z</time>
      </trkpt>
      <trkpt lat="47.77241" lon="2.35938">
        <ele>112</ele>
        <time>2017-07-23T07:49:38.132Z</time>
      </trkpt>
      <trkpt lat="47.77239" lon="2.35961">
        <ele>112</ele>
        <time>2017-07-23T07:49:39.132Z</time>
      </trkpt>
      <trkpt lat="47.77237" lon="2.35972">
        <ele>112</ele>
        <time>2017-07-23T07:49:40.142Z</time>
      </trkpt>
      <trkpt lat="47.77236" lon="2.35983">
        <ele>112</ele>
        <time>2017-07-23T07:49:41.144Z</time>
      </trkpt>
      <trkpt lat="47.77236" lon="2.35983">
        <ele>112</ele>
        <time>2017-07-23T07:49:42.141Z</time>
      </trkpt>
      <trkpt lat="47.77233" lon="2.36004">
        <ele>112</ele>
        <time>2017-07-23T07:49:43.144Z</time>
      </trkpt>
      <trkpt lat="47.77233" lon="2.36004">
        <ele>112</ele>
        <time>2017-07-23T07:49:44.146Z</time>
      </trkpt>
      <trkpt lat="47.77233" lon="2.36004">
        <ele>112</ele>
        <time>2017-07-23T07:49:45.143Z</time>
      </trkpt>
      <trkpt lat="47.77231" lon="2.36019">
        <ele>112</ele>
        <time>2017-07-23T07:49:46.138Z</time>
      </trkpt>
      <trkpt lat="47.77228" lon="2.36032">
        <ele>112</ele>
        <time>2017-07-23T07:49:47.145Z</time>
      </trkpt>
      <trkpt lat="47.77228" lon="2.36032">
        <ele>112</ele>
        <time>2017-07-23T07:49:48.109Z</time>
      </trkpt>
      <trkpt lat="47.77226" lon="2.36044">
        <ele>112</ele>
        <time>2017-07-23T07:49:49.143Z</time>
      </trkpt>
      <trkpt lat="47.77226" lon="2.36044">
        <ele>112</ele>
        <time>2017-07-23T07:49:50.147Z</time>
      </trkpt>
      <trkpt lat="47.77226" lon="2.36044">
        <ele>112</ele>
        <time>2017-07-23T07:49:51.109Z</time>
      </trkpt>
      <trkpt lat="47.77226" lon="2.36061">
        <ele>112</ele>
        <time>2017-07-23T07:49:52.114Z</time>
      </trkpt>
      <trkpt lat="47.77226" lon="2.36061">
        <ele>112</ele>
        <time>2017-07-23T07:49:53.141Z</time>
      </trkpt>
      <trkpt lat="47.77226" lon="2.36073">
        <ele>112</ele>
        <time>2017-07-23T07:49:54.142Z</time>
      </trkpt>
      <trkpt lat="47.77225" lon="2.3608">
        <ele>112</ele>
        <time>2017-07-23T07:49:55.143Z</time>
      </trkpt>
      <trkpt lat="47.77225" lon="2.3608">
        <ele>112</ele>
        <time>2017-07-23T07:49:56.138Z</time>
      </trkpt>
      <trkpt lat="47.77223" lon="2.36094">
        <ele>112</ele>
        <time>2017-07-23T07:49:57.142Z</time>
      </trkpt>
      <trkpt lat="47.77223" lon="2.36094">
        <ele>112</ele>
        <time>2017-07-23T07:49:58.140Z</time>
      </trkpt>
      <trkpt lat="47.77221" lon="2.36106">
        <ele>112</ele>
        <time>2017-07-23T07:49:59.143Z</time>
      </trkpt>
      <trkpt lat="47.77221" lon="2.36106">
        <ele>112</ele>
        <time>2017-07-23T07:50:00.137Z</time>
      </trkpt>
      <trkpt lat="47.77219" lon="2.36119">
        <ele>112</ele>
        <time>2017-07-23T07:50:01.144Z</time>
      </trkpt>
      <trkpt lat="47.77219" lon="2.36119">
        <ele>112</ele>
        <time>2017-07-23T07:50:02.140Z</time>
      </trkpt>
      <trkpt lat="47.77218" lon="2.36131">
        <ele>111</ele>
        <time>2017-07-23T07:50:03.142Z</time>
      </trkpt>
      <trkpt lat="47.77218" lon="2.36131">
        <ele>111</ele>
        <time>2017-07-23T07:50:04.139Z</time>
      </trkpt>
      <trkpt lat="47.77217" lon="2.36143">
        <ele>111</ele>
        <time>2017-07-23T07:50:05.144Z</time>
      </trkpt>
      <trkpt lat="47.77217" lon="2.36143">
        <ele>111</ele>
        <time>2017-07-23T07:50:06.137Z</time>
      </trkpt>
      <trkpt lat="47.77216" lon="2.36155">
        <ele>110</ele>
        <time>2017-07-23T07:50:07.143Z</time>
      </trkpt>
      <trkpt lat="47.77216" lon="2.36155">
        <ele>110</ele>
        <time>2017-07-23T07:50:08.136Z</time>
      </trkpt>
      <trkpt lat="47.77214" lon="2.36166">
        <ele>110</ele>
        <time>2017-07-23T07:50:09.143Z</time>
      </trkpt>
      <trkpt lat="47.77214" lon="2.36166">
        <ele>110</ele>
        <time>2017-07-23T07:50:10.140Z</time>
      </trkpt>
      <trkpt lat="47.77212" lon="2.36178">
        <ele>112</ele>
        <time>2017-07-23T07:50:11.141Z</time>
      </trkpt>
      <trkpt lat="47.77212" lon="2.36178">
        <ele>112</ele>
        <time>2017-07-23T07:50:12.137Z</time>
      </trkpt>
      <trkpt lat="47.77211" lon="2.36189">
        <ele>112</ele>
        <time>2017-07-23T07:50:13.144Z</time>
      </trkpt>
      <trkpt lat="47.77211" lon="2.36189">
        <ele>112</ele>
        <time>2017-07-23T07:50:14.139Z</time>
      </trkpt>
      <trkpt lat="47.7721" lon="2.362">
        <ele>112</ele>
        <time>2017-07-23T07:50:15.142Z</time>
      </trkpt>
      <trkpt lat="47.7721" lon="2.362">
        <ele>112</ele>
        <time>2017-07-23T07:50:16.137Z</time>
      </trkpt>
      <trkpt lat="47.77208" lon="2.3621">
        <ele>111</ele>
        <time>2017-07-23T07:50:17.141Z</time>
      </trkpt>
      <trkpt lat="47.77208" lon="2.3621">
        <ele>111</ele>
        <time>2017-07-23T07:50:18.132Z</time>
      </trkpt>
      <trkpt lat="47.77207" lon="2.36219">
        <ele>112</ele>
        <time>2017-07-23T07:50:19.123Z</time>
      </trkpt>
      <trkpt lat="47.77207" lon="2.36219">
        <ele>112</ele>
        <time>2017-07-23T07:50:20.122Z</time>
      </trkpt>
      <trkpt lat="47.77207" lon="2.36228">
        <ele>112</ele>
        <time>2017-07-23T07:50:21.143Z</time>
      </trkpt>
      <trkpt lat="47.77207" lon="2.36232">
        <ele>112</ele>
        <time>2017-07-23T07:50:22.143Z</time>
      </trkpt>
      <trkpt lat="47.77207" lon="2.36232">
        <ele>112</ele>
        <time>2017-07-23T07:50:23.141Z</time>
      </trkpt>
      <trkpt lat="47.77207" lon="2.36242">
        <ele>113</ele>
        <time>2017-07-23T07:50:24.143Z</time>
      </trkpt>
      <trkpt lat="47.77207" lon="2.36246">
        <ele>113</ele>
        <time>2017-07-23T07:50:25.143Z</time>
      </trkpt>
      <trkpt lat="47.77207" lon="2.36246">
        <ele>113</ele>
        <time>2017-07-23T07:50:26.135Z</time>
      </trkpt>
      <trkpt lat="47.77207" lon="2.36253">
        <ele>114</ele>
        <time>2017-07-23T07:50:27.142Z</time>
      </trkpt>
      <trkpt lat="47.77207" lon="2.36253">
        <ele>114</ele>
        <time>2017-07-23T07:50:28.134Z</time>
      </trkpt>
      <trkpt lat="47.77206" lon="2.3626">
        <ele>113</ele>
        <time>2017-07-23T07:50:29.144Z</time>
      </trkpt>
      <trkpt lat="47.77206" lon="2.3626">
        <ele>113</ele>
        <time>2017-07-23T07:50:30.140Z</time>
      </trkpt>
      <trkpt lat="47.77204" lon="2.36264">
        <ele>114</ele>
        <time>2017-07-23T07:50:31.144Z</time>
      </trkpt>
      <trkpt lat="47.77204" lon="2.36264">
        <ele>114</ele>
        <time>2017-07-23T07:50:32.137Z</time>
      </trkpt>
      <trkpt lat="47.77202" lon="2.3627">
        <ele>115</ele>
        <time>2017-07-23T07:50:33.142Z</time>
      </trkpt>
      <trkpt lat="47.77202" lon="2.3627">
        <ele>115</ele>
        <time>2017-07-23T07:50:34.140Z</time>
      </trkpt>
      <trkpt lat="47.772" lon="2.36275">
        <ele>114</ele>
        <time>2017-07-23T07:50:35.144Z</time>
      </trkpt>
      <trkpt lat="47.772" lon="2.36275">
        <ele>114</ele>
        <time>2017-07-23T07:50:36.143Z</time>
      </trkpt>
      <trkpt lat="47.77198" lon="2.36281">
        <ele>114</ele>
        <time>2017-07-23T07:50:37.140Z</time>
      </trkpt>
      <trkpt lat="47.77198" lon="2.36281">
        <ele>114</ele>
        <time>2017-07-23T07:50:38.123Z</time>
      </trkpt>
      <trkpt lat="47.77194" lon="2.36287">
        <ele>114</ele>
        <time>2017-07-23T07:50:39.115Z</time>
      </trkpt>
      <trkpt lat="47.77194" lon="2.36287">
        <ele>114</ele>
        <time>2017-07-23T07:50:40.140Z</time>
      </trkpt>
      <trkpt lat="47.77192" lon="2.36292">
        <ele>115</ele>
        <time>2017-07-23T07:50:41.144Z</time>
      </trkpt>
      <trkpt lat="47.77192" lon="2.36292">
        <ele>115</ele>
        <time>2017-07-23T07:50:42.140Z</time>
      </trkpt>
      <trkpt lat="47.77191" lon="2.36298">
        <ele>115</ele>
        <time>2017-07-23T07:50:43.140Z</time>
      </trkpt>
      <trkpt lat="47.77191" lon="2.36298">
        <ele>115</ele>
        <time>2017-07-23T07:50:44.140Z</time>
      </trkpt>
      <trkpt lat="47.77189" lon="2.36305">
        <ele>115</ele>
        <time>2017-07-23T07:50:45.170Z</time>
      </trkpt>
      <trkpt lat="47.77189" lon="2.36309">
        <ele>115</ele>
        <time>2017-07-23T07:50:46.112Z</time>
      </trkpt>
      <trkpt lat="47.77189" lon="2.36313">
        <ele>115</ele>
        <time>2017-07-23T07:50:47.143Z</time>
      </trkpt>
      <trkpt lat="47.77189" lon="2.36313">
        <ele>115</ele>
        <time>2017-07-23T07:50:48.135Z</time>
      </trkpt>
      <trkpt lat="47.77188" lon="2.3632">
        <ele>115</ele>
        <time>2017-07-23T07:50:49.123Z</time>
      </trkpt>
      <trkpt lat="47.77188" lon="2.36324">
        <ele>115</ele>
        <time>2017-07-23T07:50:50.114Z</time>
      </trkpt>
      <trkpt lat="47.77188" lon="2.36324">
        <ele>115</ele>
        <time>2017-07-23T07:50:51.110Z</time>
      </trkpt>
      <trkpt lat="47.77187" lon="2.36331">
        <ele>115</ele>
        <time>2017-07-23T07:50:52.143Z</time>
      </trkpt>
      <trkpt lat="47.77187" lon="2.36335">
        <ele>115</ele>
        <time>2017-07-23T07:50:53.144Z</time>
      </trkpt>
      <trkpt lat="47.77187" lon="2.36335">
        <ele>115</ele>
        <time>2017-07-23T07:50:54.109Z</time>
      </trkpt>
      <trkpt lat="47.77187" lon="2.36341">
        <ele>115</ele>
        <time>2017-07-23T07:50:55.140Z</time>
      </trkpt>
      <trkpt lat="47.77187" lon="2.36341">
        <ele>115</ele>
        <time>2017-07-23T07:50:56.137Z</time>
      </trkpt>
      <trkpt lat="47.77187" lon="2.36347">
        <ele>115</ele>
        <time>2017-07-23T07:50:57.142Z</time>
      </trkpt>
      <trkpt lat="47.77187" lon="2.36347">
        <ele>115</ele>
        <time>2017-07-23T07:50:58.140Z</time>
      </trkpt>
      <trkpt lat="47.77186" lon="2.36352">
        <ele>115</ele>
        <time>2017-07-23T07:50:59.144Z</time>
      </trkpt>
      <trkpt lat="47.77186" lon="2.36352">
        <ele>115</ele>
        <time>2017-07-23T07:51:00.140Z</time>
      </trkpt>
      <trkpt lat="47.77186" lon="2.36357">
        <ele>115</ele>
        <time>2017-07-23T07:51:01.144Z</time>
      </trkpt>
      <trkpt lat="47.77186" lon="2.36357">
        <ele>115</ele>
        <time>2017-07-23T07:51:02.147Z</time>
      </trkpt>
      <trkpt lat="47.77186" lon="2.3636">
        <ele>115</ele>
        <time>2017-07-23T07:51:03.141Z</time>
      </trkpt>
      <trkpt lat="47.77186" lon="2.36361">
        <ele>116</ele>
        <time>2017-07-23T07:51:04.140Z</time>
      </trkpt>
      <trkpt lat="47.77186" lon="2.36361">
        <ele>116</ele>
        <time>2017-07-23T07:51:05.141Z</time>
      </trkpt>
      <trkpt lat="47.77185" lon="2.36365">
        <ele>112</ele>
        <time>2017-07-23T07:51:06.133Z</time>
      </trkpt>
      <trkpt lat="47.77185" lon="2.36365">
        <ele>112</ele>
        <time>2017-07-23T07:51:07.130Z</time>
      </trkpt>
      <trkpt lat="47.77185" lon="2.36366">
        <ele>113</ele>
        <time>2017-07-23T07:51:08.132Z</time>
      </trkpt>
      <trkpt lat="47.77185" lon="2.36366">
        <ele>113</ele>
        <time>2017-07-23T07:51:09.128Z</time>
      </trkpt>
      <trkpt lat="47.77182" lon="2.36375">
        <ele>108</ele>
        <time>2017-07-23T07:51:10.131Z</time>
      </trkpt>
      <trkpt lat="47.77182" lon="2.36375">
        <ele>108</ele>
        <time>2017-07-23T07:51:11.118Z</time>
      </trkpt>
      <trkpt lat="47.77178" lon="2.36379">
        <ele>108</ele>
        <time>2017-07-23T07:51:12.122Z</time>
      </trkpt>
      <trkpt lat="47.77178" lon="2.36379">
        <ele>108</ele>
        <time>2017-07-23T07:51:13.116Z</time>
      </trkpt>
      <trkpt lat="47.77176" lon="2.36385">
        <ele>108</ele>
        <time>2017-07-23T07:51:14.122Z</time>
      </trkpt>
      <trkpt lat="47.77176" lon="2.36385">
        <ele>108</ele>
        <time>2017-07-23T07:51:15.119Z</time>
      </trkpt>
      <trkpt lat="47.77175" lon="2.36394">
        <ele>108</ele>
        <time>2017-07-23T07:51:16.122Z</time>
      </trkpt>
      <trkpt lat="47.77175" lon="2.36394">
        <ele>108</ele>
        <time>2017-07-23T07:51:17.115Z</time>
      </trkpt>
      <trkpt lat="47.77175" lon="2.36394">
        <ele>108</ele>
        <time>2017-07-23T07:51:18.138Z</time>
      </trkpt>
      <trkpt lat="47.77173" lon="2.36407">
        <ele>108</ele>
        <time>2017-07-23T07:51:19.132Z</time>
      </trkpt>
      <trkpt lat="47.77171" lon="2.36423">
        <ele>108</ele>
        <time>2017-07-23T07:51:20.122Z</time>
      </trkpt>
      <trkpt lat="47.77171" lon="2.36423">
        <ele>108</ele>
        <time>2017-07-23T07:51:21.119Z</time>
      </trkpt>
      <trkpt lat="47.77168" lon="2.36441">
        <ele>107</ele>
        <time>2017-07-23T07:51:22.121Z</time>
      </trkpt>
      <trkpt lat="47.77168" lon="2.36441">
        <ele>107</ele>
        <time>2017-07-23T07:51:23.115Z</time>
      </trkpt>
      <trkpt lat="47.77166" lon="2.3646">
        <ele>107</ele>
        <time>2017-07-23T07:51:24.120Z</time>
      </trkpt>
      <trkpt lat="47.77166" lon="2.3646">
        <ele>107</ele>
        <time>2017-07-23T07:51:25.118Z</time>
      </trkpt>
      <trkpt lat="47.77162" lon="2.3648">
        <ele>107</ele>
        <time>2017-07-23T07:51:26.122Z</time>
      </trkpt>
      <trkpt lat="47.77162" lon="2.3648">
        <ele>107</ele>
        <time>2017-07-23T07:51:27.118Z</time>
      </trkpt>
      <trkpt lat="47.77157" lon="2.36499">
        <ele>107</ele>
        <time>2017-07-23T07:51:28.119Z</time>
      </trkpt>
      <trkpt lat="47.77157" lon="2.36499">
        <ele>107</ele>
        <time>2017-07-23T07:51:29.118Z</time>
      </trkpt>
      <trkpt lat="47.77152" lon="2.36517">
        <ele>106</ele>
        <time>2017-07-23T07:51:30.121Z</time>
      </trkpt>
      <trkpt lat="47.77152" lon="2.36517">
        <ele>106</ele>
        <time>2017-07-23T07:51:31.118Z</time>
      </trkpt>
      <trkpt lat="47.77146" lon="2.36532">
        <ele>107</ele>
        <time>2017-07-23T07:51:32.123Z</time>
      </trkpt>
      <trkpt lat="47.77146" lon="2.36532">
        <ele>107</ele>
        <time>2017-07-23T07:51:33.116Z</time>
      </trkpt>
      <trkpt lat="47.77139" lon="2.36546">
        <ele>107</ele>
        <time>2017-07-23T07:51:34.122Z</time>
      </trkpt>
      <trkpt lat="47.77139" lon="2.36546">
        <ele>107</ele>
        <time>2017-07-23T07:51:35.118Z</time>
      </trkpt>
      <trkpt lat="47.77132" lon="2.36561">
        <ele>107</ele>
        <time>2017-07-23T07:51:36.121Z</time>
      </trkpt>
      <trkpt lat="47.77132" lon="2.36561">
        <ele>107</ele>
        <time>2017-07-23T07:51:37.116Z</time>
      </trkpt>
      <trkpt lat="47.77125" lon="2.36577">
        <ele>107</ele>
        <time>2017-07-23T07:51:38.118Z</time>
      </trkpt>
      <trkpt lat="47.77125" lon="2.36577">
        <ele>107</ele>
        <time>2017-07-23T07:51:39.141Z</time>
      </trkpt>
      <trkpt lat="47.77118" lon="2.36595">
        <ele>107</ele>
        <time>2017-07-23T07:51:40.147Z</time>
      </trkpt>
      <trkpt lat="47.77115" lon="2.36604">
        <ele>107</ele>
        <time>2017-07-23T07:51:41.121Z</time>
      </trkpt>
      <trkpt lat="47.77115" lon="2.36604">
        <ele>107</ele>
        <time>2017-07-23T07:51:42.118Z</time>
      </trkpt>
      <trkpt lat="47.77109" lon="2.36621">
        <ele>107</ele>
        <time>2017-07-23T07:51:43.121Z</time>
      </trkpt>
      <trkpt lat="47.77106" lon="2.36629">
        <ele>107</ele>
        <time>2017-07-23T07:51:44.122Z</time>
      </trkpt>
      <trkpt lat="47.77106" lon="2.36629">
        <ele>107</ele>
        <time>2017-07-23T07:51:45.116Z</time>
      </trkpt>
      <trkpt lat="47.77101" lon="2.36645">
        <ele>107</ele>
        <time>2017-07-23T07:51:46.122Z</time>
      </trkpt>
      <trkpt lat="47.77101" lon="2.36645">
        <ele>107</ele>
        <time>2017-07-23T07:51:47.118Z</time>
      </trkpt>
      <trkpt lat="47.77095" lon="2.36659">
        <ele>107</ele>
        <time>2017-07-23T07:51:48.121Z</time>
      </trkpt>
      <trkpt lat="47.77095" lon="2.36659">
        <ele>107</ele>
        <time>2017-07-23T07:51:49.128Z</time>
      </trkpt>
      <trkpt lat="47.7709" lon="2.36673">
        <ele>108</ele>
        <time>2017-07-23T07:51:50.122Z</time>
      </trkpt>
      <trkpt lat="47.7709" lon="2.36673">
        <ele>108</ele>
        <time>2017-07-23T07:51:51.118Z</time>
      </trkpt>
      <trkpt lat="47.77086" lon="2.36688">
        <ele>108</ele>
        <time>2017-07-23T07:51:52.121Z</time>
      </trkpt>
      <trkpt lat="47.77086" lon="2.36688">
        <ele>108</ele>
        <time>2017-07-23T07:51:53.119Z</time>
      </trkpt>
      <trkpt lat="47.77084" lon="2.36705">
        <ele>108</ele>
        <time>2017-07-23T07:51:54.121Z</time>
      </trkpt>
      <trkpt lat="47.77084" lon="2.36705">
        <ele>108</ele>
        <time>2017-07-23T07:51:55.118Z</time>
      </trkpt>
      <trkpt lat="47.77085" lon="2.36722">
        <ele>108</ele>
        <time>2017-07-23T07:51:56.122Z</time>
      </trkpt>
      <trkpt lat="47.77085" lon="2.36722">
        <ele>108</ele>
        <time>2017-07-23T07:51:57.116Z</time>
      </trkpt>
      <trkpt lat="47.77086" lon="2.36738">
        <ele>109</ele>
        <time>2017-07-23T07:51:58.122Z</time>
      </trkpt>
      <trkpt lat="47.77086" lon="2.36738">
        <ele>109</ele>
        <time>2017-07-23T07:51:59.121Z</time>
      </trkpt>
      <trkpt lat="47.77088" lon="2.36753">
        <ele>109</ele>
        <time>2017-07-23T07:52:00.142Z</time>
      </trkpt>
      <trkpt lat="47.77088" lon="2.36753">
        <ele>109</ele>
        <time>2017-07-23T07:52:01.132Z</time>
      </trkpt>
      <trkpt lat="47.77089" lon="2.36763">
        <ele>109</ele>
        <time>2017-07-23T07:52:02.121Z</time>
      </trkpt>
      <trkpt lat="47.77089" lon="2.36763">
        <ele>109</ele>
        <time>2017-07-23T07:52:03.118Z</time>
      </trkpt>
      <trkpt lat="47.77083" lon="2.36766">
        <ele>111</ele>
        <time>2017-07-23T07:52:04.122Z</time>
      </trkpt>
      <trkpt lat="47.77083" lon="2.36766">
        <ele>111</ele>
        <time>2017-07-23T07:52:05.141Z</time>
      </trkpt>
      <trkpt lat="47.77078" lon="2.36767">
        <ele>112</ele>
        <time>2017-07-23T07:52:06.121Z</time>
      </trkpt>
      <trkpt lat="47.77078" lon="2.36767">
        <ele>112</ele>
        <time>2017-07-23T07:52:07.118Z</time>
      </trkpt>
      <trkpt lat="47.77072" lon="2.36768">
        <ele>112</ele>
        <time>2017-07-23T07:52:08.123Z</time>
      </trkpt>
      <trkpt lat="47.77072" lon="2.36768">
        <ele>112</ele>
        <time>2017-07-23T07:52:09.115Z</time>
      </trkpt>
      <trkpt lat="47.77067" lon="2.36775">
        <ele>112</ele>
        <time>2017-07-23T07:52:10.122Z</time>
      </trkpt>
      <trkpt lat="47.77067" lon="2.36775">
        <ele>112</ele>
        <time>2017-07-23T07:52:11.119Z</time>
      </trkpt>
      <trkpt lat="47.77068" lon="2.36788">
        <ele>112</ele>
        <time>2017-07-23T07:52:12.121Z</time>
      </trkpt>
      <trkpt lat="47.77068" lon="2.36788">
        <ele>112</ele>
        <time>2017-07-23T07:52:13.116Z</time>
      </trkpt>
      <trkpt lat="47.7707" lon="2.36802">
        <ele>111</ele>
        <time>2017-07-23T07:52:14.123Z</time>
      </trkpt>
      <trkpt lat="47.7707" lon="2.36802">
        <ele>111</ele>
        <time>2017-07-23T07:52:15.118Z</time>
      </trkpt>
      <trkpt lat="47.77073" lon="2.36815">
        <ele>112</ele>
        <time>2017-07-23T07:52:16.122Z</time>
      </trkpt>
      <trkpt lat="47.77073" lon="2.36815">
        <ele>112</ele>
        <time>2017-07-23T07:52:17.118Z</time>
      </trkpt>
      <trkpt lat="47.77076" lon="2.36828">
        <ele>112</ele>
        <time>2017-07-23T07:52:18.121Z</time>
      </trkpt>
      <trkpt lat="47.77076" lon="2.36832">
        <ele>112</ele>
        <time>2017-07-23T07:52:19.114Z</time>
      </trkpt>
      <trkpt lat="47.77075" lon="2.36836">
        <ele>112</ele>
        <time>2017-07-23T07:52:20.124Z</time>
      </trkpt>
      <trkpt lat="47.77075" lon="2.36836">
        <ele>112</ele>
        <time>2017-07-23T07:52:21.118Z</time>
      </trkpt>
      <trkpt lat="47.77074" lon="2.36843">
        <ele>112</ele>
        <time>2017-07-23T07:52:22.122Z</time>
      </trkpt>
      <trkpt lat="47.77074" lon="2.36843">
        <ele>112</ele>
        <time>2017-07-23T07:52:23.119Z</time>
      </trkpt>
      <trkpt lat="47.77072" lon="2.3685">
        <ele>111</ele>
        <time>2017-07-23T07:52:24.121Z</time>
      </trkpt>
      <trkpt lat="47.77072" lon="2.36856">
        <ele>111</ele>
        <time>2017-07-23T07:52:25.119Z</time>
      </trkpt>
      <trkpt lat="47.77072" lon="2.36856">
        <ele>111</ele>
        <time>2017-07-23T07:52:26.120Z</time>
      </trkpt>
      <trkpt lat="47.77072" lon="2.36869">
        <ele>111</ele>
        <time>2017-07-23T07:52:27.121Z</time>
      </trkpt>
      <trkpt lat="47.77073" lon="2.36877">
        <ele>111</ele>
        <time>2017-07-23T07:52:28.122Z</time>
      </trkpt>
      <trkpt lat="47.77073" lon="2.36877">
        <ele>111</ele>
        <time>2017-07-23T07:52:29.116Z</time>
      </trkpt>
      <trkpt lat="47.77074" lon="2.36894">
        <ele>111</ele>
        <time>2017-07-23T07:52:30.121Z</time>
      </trkpt>
      <trkpt lat="47.77074" lon="2.36894">
        <ele>111</ele>
        <time>2017-07-23T07:52:31.118Z</time>
      </trkpt>
      <trkpt lat="47.77074" lon="2.36911">
        <ele>111</ele>
        <time>2017-07-23T07:52:32.124Z</time>
      </trkpt>
      <trkpt lat="47.77074" lon="2.36911">
        <ele>111</ele>
        <time>2017-07-23T07:52:33.118Z</time>
      </trkpt>
      <trkpt lat="47.77075" lon="2.36927">
        <ele>111</ele>
        <time>2017-07-23T07:52:34.122Z</time>
      </trkpt>
      <trkpt lat="47.77075" lon="2.36927">
        <ele>111</ele>
        <time>2017-07-23T07:52:35.118Z</time>
      </trkpt>
      <trkpt lat="47.77076" lon="2.36944">
        <ele>111</ele>
        <time>2017-07-23T07:52:36.120Z</time>
      </trkpt>
      <trkpt lat="47.77076" lon="2.36952">
        <ele>111</ele>
        <time>2017-07-23T07:52:37.119Z</time>
      </trkpt>
      <trkpt lat="47.77076" lon="2.36952">
        <ele>111</ele>
        <time>2017-07-23T07:52:38.117Z</time>
      </trkpt>
      <trkpt lat="47.77076" lon="2.36969">
        <ele>111</ele>
        <time>2017-07-23T07:52:39.114Z</time>
      </trkpt>
      <trkpt lat="47.77076" lon="2.36977">
        <ele>111</ele>
        <time>2017-07-23T07:52:40.122Z</time>
      </trkpt>
      <trkpt lat="47.77076" lon="2.36977">
        <ele>111</ele>
        <time>2017-07-23T07:52:41.116Z</time>
      </trkpt>
      <trkpt lat="47.77076" lon="2.36992">
        <ele>111</ele>
        <time>2017-07-23T07:52:42.122Z</time>
      </trkpt>
      <trkpt lat="47.77076" lon="2.36992">
        <ele>111</ele>
        <time>2017-07-23T07:52:43.119Z</time>
      </trkpt>
      <trkpt lat="47.77078" lon="2.37008">
        <ele>111</ele>
        <time>2017-07-23T07:52:44.123Z</time>
      </trkpt>
      <trkpt lat="47.77078" lon="2.37008">
        <ele>111</ele>
        <time>2017-07-23T07:52:45.116Z</time>
      </trkpt>
      <trkpt lat="47.77081" lon="2.37023">
        <ele>111</ele>
        <time>2017-07-23T07:52:46.121Z</time>
      </trkpt>
      <trkpt lat="47.77082" lon="2.3703">
        <ele>111</ele>
        <time>2017-07-23T07:52:47.122Z</time>
      </trkpt>
      <trkpt lat="47.77082" lon="2.3703">
        <ele>111</ele>
        <time>2017-07-23T07:52:48.119Z</time>
      </trkpt>
      <trkpt lat="47.77085" lon="2.37043">
        <ele>111</ele>
        <time>2017-07-23T07:52:49.120Z</time>
      </trkpt>
      <trkpt lat="47.77087" lon="2.37051">
        <ele>111</ele>
        <time>2017-07-23T07:52:50.122Z</time>
      </trkpt>
      <trkpt lat="47.77087" lon="2.37051">
        <ele>111</ele>
        <time>2017-07-23T07:52:51.118Z</time>
      </trkpt>
      <trkpt lat="47.77091" lon="2.37065">
        <ele>111</ele>
        <time>2017-07-23T07:52:52.127Z</time>
      </trkpt>
      <trkpt lat="47.77091" lon="2.37065">
        <ele>111</ele>
        <time>2017-07-23T07:52:53.119Z</time>
      </trkpt>
      <trkpt lat="47.77096" lon="2.37077">
        <ele>111</ele>
        <time>2017-07-23T07:52:54.121Z</time>
      </trkpt>
      <trkpt lat="47.77098" lon="2.37082">
        <ele>111</ele>
        <time>2017-07-23T07:52:55.123Z</time>
      </trkpt>
      <trkpt lat="47.77098" lon="2.37082">
        <ele>111</ele>
        <time>2017-07-23T07:52:56.120Z</time>
      </trkpt>
      <trkpt lat="47.77104" lon="2.37092">
        <ele>112</ele>
        <time>2017-07-23T07:52:57.121Z</time>
      </trkpt>
      <trkpt lat="47.77107" lon="2.37097">
        <ele>112</ele>
        <time>2017-07-23T07:52:58.122Z</time>
      </trkpt>
      <trkpt lat="47.77107" lon="2.37097">
        <ele>112</ele>
        <time>2017-07-23T07:52:59.117Z</time>
      </trkpt>
      <trkpt lat="47.77112" lon="2.3711">
        <ele>112</ele>
        <time>2017-07-23T07:53:00.123Z</time>
      </trkpt>
      <trkpt lat="47.77112" lon="2.3711">
        <ele>112</ele>
        <time>2017-07-23T07:53:01.126Z</time>
      </trkpt>
      <trkpt lat="47.77117" lon="2.37123">
        <ele>113</ele>
        <time>2017-07-23T07:53:02.124Z</time>
      </trkpt>
      <trkpt lat="47.77117" lon="2.37123">
        <ele>113</ele>
        <time>2017-07-23T07:53:03.119Z</time>
      </trkpt>
      <trkpt lat="47.77125" lon="2.37136">
        <ele>113</ele>
        <time>2017-07-23T07:53:04.119Z</time>
      </trkpt>
      <trkpt lat="47.77125" lon="2.37136">
        <ele>113</ele>
        <time>2017-07-23T07:53:05.118Z</time>
      </trkpt>
      <trkpt lat="47.77134" lon="2.37148">
        <ele>113</ele>
        <time>2017-07-23T07:53:06.121Z</time>
      </trkpt>
      <trkpt lat="47.77138" lon="2.37153">
        <ele>113</ele>
        <time>2017-07-23T07:53:07.121Z</time>
      </trkpt>
      <trkpt lat="47.77138" lon="2.37153">
        <ele>113</ele>
        <time>2017-07-23T07:53:08.119Z</time>
      </trkpt>
      <trkpt lat="47.77146" lon="2.37163">
        <ele>114</ele>
        <time>2017-07-23T07:53:09.136Z</time>
      </trkpt>
      <trkpt lat="47.77149" lon="2.37168">
        <ele>114</ele>
        <time>2017-07-23T07:53:10.142Z</time>
      </trkpt>
      <trkpt lat="47.77149" lon="2.37168">
        <ele>114</ele>
        <time>2017-07-23T07:53:11.137Z</time>
      </trkpt>
      <trkpt lat="47.77156" lon="2.37179">
        <ele>115</ele>
        <time>2017-07-23T07:53:12.127Z</time>
      </trkpt>
      <trkpt lat="47.77156" lon="2.37179">
        <ele>115</ele>
        <time>2017-07-23T07:53:13.119Z</time>
      </trkpt>
      <trkpt lat="47.77161" lon="2.37187">
        <ele>116</ele>
        <time>2017-07-23T07:53:14.122Z</time>
      </trkpt>
      <trkpt lat="47.77161" lon="2.37187">
        <ele>116</ele>
        <time>2017-07-23T07:53:15.132Z</time>
      </trkpt>
      <trkpt lat="47.77166" lon="2.37192">
        <ele>116</ele>
        <time>2017-07-23T07:53:16.123Z</time>
      </trkpt>
      <trkpt lat="47.77166" lon="2.37192">
        <ele>116</ele>
        <time>2017-07-23T07:53:17.119Z</time>
      </trkpt>
      <trkpt lat="47.7717" lon="2.37195">
        <ele>117</ele>
        <time>2017-07-23T07:53:18.121Z</time>
      </trkpt>
      <trkpt lat="47.7717" lon="2.37195">
        <ele>117</ele>
        <time>2017-07-23T07:53:19.112Z</time>
      </trkpt>
      <trkpt lat="47.7717" lon="2.37199">
        <ele>118</ele>
        <time>2017-07-23T07:53:20.123Z</time>
      </trkpt>
      <trkpt lat="47.7717" lon="2.37199">
        <ele>118</ele>
        <time>2017-07-23T07:53:21.137Z</time>
      </trkpt>
      <trkpt lat="47.77166" lon="2.37203">
        <ele>119</ele>
        <time>2017-07-23T07:53:22.127Z</time>
      </trkpt>
      <trkpt lat="47.77166" lon="2.37203">
        <ele>119</ele>
        <time>2017-07-23T07:53:23.120Z</time>
      </trkpt>
      <trkpt lat="47.7716" lon="2.37206">
        <ele>120</ele>
        <time>2017-07-23T07:53:24.118Z</time>
      </trkpt>
      <trkpt lat="47.77156" lon="2.37207">
        <ele>120</ele>
        <time>2017-07-23T07:53:25.131Z</time>
      </trkpt>
      <trkpt lat="47.77156" lon="2.37207">
        <ele>120</ele>
        <time>2017-07-23T07:53:26.117Z</time>
      </trkpt>
      <trkpt lat="47.77148" lon="2.37212">
        <ele>120</ele>
        <time>2017-07-23T07:53:27.124Z</time>
      </trkpt>
      <trkpt lat="47.77148" lon="2.37212">
        <ele>120</ele>
        <time>2017-07-23T07:53:28.116Z</time>
      </trkpt>
      <trkpt lat="47.77139" lon="2.37216">
        <ele>119</ele>
        <time>2017-07-23T07:53:29.122Z</time>
      </trkpt>
      <trkpt lat="47.77139" lon="2.37216">
        <ele>119</ele>
        <time>2017-07-23T07:53:30.119Z</time>
      </trkpt>
      <trkpt lat="47.77131" lon="2.3722">
        <ele>120</ele>
        <time>2017-07-23T07:53:31.121Z</time>
      </trkpt>
      <trkpt lat="47.77127" lon="2.37223">
        <ele>120</ele>
        <time>2017-07-23T07:53:32.120Z</time>
      </trkpt>
      <trkpt lat="47.77127" lon="2.37223">
        <ele>120</ele>
        <time>2017-07-23T07:53:33.118Z</time>
      </trkpt>
      <trkpt lat="47.77118" lon="2.37227">
        <ele>120</ele>
        <time>2017-07-23T07:53:34.120Z</time>
      </trkpt>
      <trkpt lat="47.77118" lon="2.37227">
        <ele>120</ele>
        <time>2017-07-23T07:53:35.119Z</time>
      </trkpt>
      <trkpt lat="47.7711" lon="2.37231">
        <ele>120</ele>
        <time>2017-07-23T07:53:36.121Z</time>
      </trkpt>
      <trkpt lat="47.77106" lon="2.37233">
        <ele>120</ele>
        <time>2017-07-23T07:53:37.123Z</time>
      </trkpt>
      <trkpt lat="47.77106" lon="2.37233">
        <ele>120</ele>
        <time>2017-07-23T07:53:38.110Z</time>
      </trkpt>
      <trkpt lat="47.77098" lon="2.37238">
        <ele>120</ele>
        <time>2017-07-23T07:53:39.119Z</time>
      </trkpt>
      <trkpt lat="47.77098" lon="2.37238">
        <ele>120</ele>
        <time>2017-07-23T07:53:40.135Z</time>
      </trkpt>
      <trkpt lat="47.7709" lon="2.37243">
        <ele>120</ele>
        <time>2017-07-23T07:53:41.119Z</time>
      </trkpt>
      <trkpt lat="47.7709" lon="2.37243">
        <ele>120</ele>
        <time>2017-07-23T07:53:42.116Z</time>
      </trkpt>
      <trkpt lat="47.77081" lon="2.37247">
        <ele>120</ele>
        <time>2017-07-23T07:53:43.121Z</time>
      </trkpt>
      <trkpt lat="47.77077" lon="2.37249">
        <ele>120</ele>
        <time>2017-07-23T07:53:44.123Z</time>
      </trkpt>
      <trkpt lat="47.77077" lon="2.37249">
        <ele>120</ele>
        <time>2017-07-23T07:53:45.116Z</time>
      </trkpt>
      <trkpt lat="47.77068" lon="2.37254">
        <ele>120</ele>
        <time>2017-07-23T07:53:46.123Z</time>
      </trkpt>
      <trkpt lat="47.77068" lon="2.37254">
        <ele>120</ele>
        <time>2017-07-23T07:53:47.117Z</time>
      </trkpt>
      <trkpt lat="47.77058" lon="2.37259">
        <ele>120</ele>
        <time>2017-07-23T07:53:48.121Z</time>
      </trkpt>
      <trkpt lat="47.77058" lon="2.37259">
        <ele>120</ele>
        <time>2017-07-23T07:53:49.117Z</time>
      </trkpt>
      <trkpt lat="47.77049" lon="2.37264">
        <ele>120</ele>
        <time>2017-07-23T07:53:50.127Z</time>
      </trkpt>
      <trkpt lat="47.77044" lon="2.37266">
        <ele>120</ele>
        <time>2017-07-23T07:53:51.125Z</time>
      </trkpt>
      <trkpt lat="47.77039" lon="2.37268">
        <ele>120</ele>
        <time>2017-07-23T07:53:52.123Z</time>
      </trkpt>
      <trkpt lat="47.77039" lon="2.37268">
        <ele>120</ele>
        <time>2017-07-23T07:53:53.116Z</time>
      </trkpt>
      <trkpt lat="47.7703" lon="2.37273">
        <ele>120</ele>
        <time>2017-07-23T07:53:54.120Z</time>
      </trkpt>
      <trkpt lat="47.7703" lon="2.37273">
        <ele>120</ele>
        <time>2017-07-23T07:53:55.119Z</time>
      </trkpt>
      <trkpt lat="47.77021" lon="2.37278">
        <ele>120</ele>
        <time>2017-07-23T07:53:56.123Z</time>
      </trkpt>
      <trkpt lat="47.77021" lon="2.37278">
        <ele>120</ele>
        <time>2017-07-23T07:53:57.117Z</time>
      </trkpt>
      <trkpt lat="47.77011" lon="2.37282">
        <ele>119</ele>
        <time>2017-07-23T07:53:58.122Z</time>
      </trkpt>
      <trkpt lat="47.77011" lon="2.37282">
        <ele>119</ele>
        <time>2017-07-23T07:53:59.113Z</time>
      </trkpt>
      <trkpt lat="47.77002" lon="2.37287">
        <ele>120</ele>
        <time>2017-07-23T07:54:00.142Z</time>
      </trkpt>
      <trkpt lat="47.76997" lon="2.3729">
        <ele>120</ele>
        <time>2017-07-23T07:54:01.122Z</time>
      </trkpt>
      <trkpt lat="47.76992" lon="2.37293">
        <ele>120</ele>
        <time>2017-07-23T07:54:02.124Z</time>
      </trkpt>
      <trkpt lat="47.76992" lon="2.37293">
        <ele>120</ele>
        <time>2017-07-23T07:54:03.119Z</time>
      </trkpt>
      <trkpt lat="47.76992" lon="2.37293">
        <ele>120</ele>
        <time>2017-07-23T07:54:04.131Z</time>
      </trkpt>
      <trkpt lat="47.76981" lon="2.37298">
        <ele>119</ele>
        <time>2017-07-23T07:54:05.126Z</time>
      </trkpt>
      <trkpt lat="47.76971" lon="2.37303">
        <ele>120</ele>
        <time>2017-07-23T07:54:06.121Z</time>
      </trkpt>
      <trkpt lat="47.76966" lon="2.37305">
        <ele>120</ele>
        <time>2017-07-23T07:54:07.125Z</time>
      </trkpt>
      <trkpt lat="47.76966" lon="2.37305">
        <ele>120</ele>
        <time>2017-07-23T07:54:08.121Z</time>
      </trkpt>
      <trkpt lat="47.76956" lon="2.3731">
        <ele>119</ele>
        <time>2017-07-23T07:54:09.115Z</time>
      </trkpt>
      <trkpt lat="47.76951" lon="2.37312">
        <ele>119</ele>
        <time>2017-07-23T07:54:10.132Z</time>
      </trkpt>
      <trkpt lat="47.76946" lon="2.37315">
        <ele>120</ele>
        <time>2017-07-23T07:54:11.147Z</time>
      </trkpt>
      <trkpt lat="47.76946" lon="2.37315">
        <ele>120</ele>
        <time>2017-07-23T07:54:12.132Z</time>
      </trkpt>
      <trkpt lat="47.76936" lon="2.3732">
        <ele>120</ele>
        <time>2017-07-23T07:54:13.122Z</time>
      </trkpt>
      <trkpt lat="47.76931" lon="2.37323">
        <ele>120</ele>
        <time>2017-07-23T07:54:14.120Z</time>
      </trkpt>
      <trkpt lat="47.76931" lon="2.37323">
        <ele>120</ele>
        <time>2017-07-23T07:54:15.116Z</time>
      </trkpt>
      <trkpt lat="47.76926" lon="2.37325">
        <ele>120</ele>
        <time>2017-07-23T07:54:16.128Z</time>
      </trkpt>
      <trkpt lat="47.76915" lon="2.3733">
        <ele>119</ele>
        <time>2017-07-23T07:54:17.124Z</time>
      </trkpt>
      <trkpt lat="47.76915" lon="2.3733">
        <ele>119</ele>
        <time>2017-07-23T07:54:18.119Z</time>
      </trkpt>
      <trkpt lat="47.76905" lon="2.37335">
        <ele>119</ele>
        <time>2017-07-23T07:54:19.114Z</time>
      </trkpt>
      <trkpt lat="47.76899" lon="2.37337">
        <ele>119</ele>
        <time>2017-07-23T07:54:20.131Z</time>
      </trkpt>
      <trkpt lat="47.76899" lon="2.37337">
        <ele>119</ele>
        <time>2017-07-23T07:54:21.126Z</time>
      </trkpt>
      <trkpt lat="47.76889" lon="2.37342">
        <ele>118</ele>
        <time>2017-07-23T07:54:22.124Z</time>
      </trkpt>
      <trkpt lat="47.76889" lon="2.37342">
        <ele>118</ele>
        <time>2017-07-23T07:54:23.119Z</time>
      </trkpt>
      <trkpt lat="47.76878" lon="2.37348">
        <ele>118</ele>
        <time>2017-07-23T07:54:24.121Z</time>
      </trkpt>
      <trkpt lat="47.76878" lon="2.37348">
        <ele>118</ele>
        <time>2017-07-23T07:54:25.119Z</time>
      </trkpt>
      <trkpt lat="47.76867" lon="2.37353">
        <ele>118</ele>
        <time>2017-07-23T07:54:26.123Z</time>
      </trkpt>
      <trkpt lat="47.76867" lon="2.37353">
        <ele>118</ele>
        <time>2017-07-23T07:54:27.116Z</time>
      </trkpt>
      <trkpt lat="47.76857" lon="2.37358">
        <ele>117</ele>
        <time>2017-07-23T07:54:28.122Z</time>
      </trkpt>
      <trkpt lat="47.76857" lon="2.37358">
        <ele>117</ele>
        <time>2017-07-23T07:54:29.113Z</time>
      </trkpt>
      <trkpt lat="47.76846" lon="2.37363">
        <ele>117</ele>
        <time>2017-07-23T07:54:30.142Z</time>
      </trkpt>
      <trkpt lat="47.76841" lon="2.37365">
        <ele>117</ele>
        <time>2017-07-23T07:54:31.132Z</time>
      </trkpt>
      <trkpt lat="47.76836" lon="2.37367">
        <ele>117</ele>
        <time>2017-07-23T07:54:32.124Z</time>
      </trkpt>
      <trkpt lat="47.76836" lon="2.37367">
        <ele>117</ele>
        <time>2017-07-23T07:54:33.118Z</time>
      </trkpt>
      <trkpt lat="47.76825" lon="2.37372">
        <ele>117</ele>
        <time>2017-07-23T07:54:34.122Z</time>
      </trkpt>
      <trkpt lat="47.76825" lon="2.37372">
        <ele>117</ele>
        <time>2017-07-23T07:54:35.116Z</time>
      </trkpt>
      <trkpt lat="47.76815" lon="2.37377">
        <ele>116</ele>
        <time>2017-07-23T07:54:36.121Z</time>
      </trkpt>
      <trkpt lat="47.76815" lon="2.37377">
        <ele>116</ele>
        <time>2017-07-23T07:54:37.119Z</time>
      </trkpt>
      <trkpt lat="47.76805" lon="2.37376">
        <ele>116</ele>
        <time>2017-07-23T07:54:38.115Z</time>
      </trkpt>
      <trkpt lat="47.76805" lon="2.37376">
        <ele>116</ele>
        <time>2017-07-23T07:54:39.122Z</time>
      </trkpt>
      <trkpt lat="47.76798" lon="2.37365">
        <ele>116</ele>
        <time>2017-07-23T07:54:40.128Z</time>
      </trkpt>
      <trkpt lat="47.76798" lon="2.37365">
        <ele>116</ele>
        <time>2017-07-23T07:54:41.134Z</time>
      </trkpt>
      <trkpt lat="47.76793" lon="2.37347">
        <ele>116</ele>
        <time>2017-07-23T07:54:42.123Z</time>
      </trkpt>
      <trkpt lat="47.76791" lon="2.37337">
        <ele>115</ele>
        <time>2017-07-23T07:54:43.123Z</time>
      </trkpt>
      <trkpt lat="47.76791" lon="2.37337">
        <ele>115</ele>
        <time>2017-07-23T07:54:44.120Z</time>
      </trkpt>
      <trkpt lat="47.76786" lon="2.37315">
        <ele>115</ele>
        <time>2017-07-23T07:54:45.138Z</time>
      </trkpt>
      <trkpt lat="47.76783" lon="2.37304">
        <ele>115</ele>
        <time>2017-07-23T07:54:46.123Z</time>
      </trkpt>
      <trkpt lat="47.76783" lon="2.37304">
        <ele>115</ele>
        <time>2017-07-23T07:54:47.118Z</time>
      </trkpt>
      <trkpt lat="47.76778" lon="2.37284">
        <ele>114</ele>
        <time>2017-07-23T07:54:48.122Z</time>
      </trkpt>
      <trkpt lat="47.76778" lon="2.37284">
        <ele>114</ele>
        <time>2017-07-23T07:54:49.112Z</time>
      </trkpt>
      <trkpt lat="47.76773" lon="2.37266">
        <ele>114</ele>
        <time>2017-07-23T07:54:50.139Z</time>
      </trkpt>
      <trkpt lat="47.76773" lon="2.37266">
        <ele>114</ele>
        <time>2017-07-23T07:54:51.128Z</time>
      </trkpt>
      <trkpt lat="47.76769" lon="2.37246">
        <ele>114</ele>
        <time>2017-07-23T07:54:52.124Z</time>
      </trkpt>
      <trkpt lat="47.76769" lon="2.37246">
        <ele>114</ele>
        <time>2017-07-23T07:54:53.119Z</time>
      </trkpt>
      <trkpt lat="47.76765" lon="2.37226">
        <ele>114</ele>
        <time>2017-07-23T07:54:54.121Z</time>
      </trkpt>
      <trkpt lat="47.76765" lon="2.37226">
        <ele>114</ele>
        <time>2017-07-23T07:54:55.119Z</time>
      </trkpt>
      <trkpt lat="47.7676" lon="2.37207">
        <ele>114</ele>
        <time>2017-07-23T07:54:56.124Z</time>
      </trkpt>
      <trkpt lat="47.7676" lon="2.37207">
        <ele>114</ele>
        <time>2017-07-23T07:54:57.120Z</time>
      </trkpt>
      <trkpt lat="47.76756" lon="2.37188">
        <ele>114</ele>
        <time>2017-07-23T07:54:58.122Z</time>
      </trkpt>
      <trkpt lat="47.76756" lon="2.37188">
        <ele>114</ele>
        <time>2017-07-23T07:54:59.112Z</time>
      </trkpt>
      <trkpt lat="47.76752" lon="2.37171">
        <ele>113</ele>
        <time>2017-07-23T07:55:00.138Z</time>
      </trkpt>
      <trkpt lat="47.76752" lon="2.37171">
        <ele>113</ele>
        <time>2017-07-23T07:55:01.121Z</time>
      </trkpt>
      <trkpt lat="47.76752" lon="2.37171">
        <ele>113</ele>
        <time>2017-07-23T07:55:02.121Z</time>
      </trkpt>
      <trkpt lat="47.76749" lon="2.37153">
        <ele>113</ele>
        <time>2017-07-23T07:55:03.119Z</time>
      </trkpt>
      <trkpt lat="47.76745" lon="2.37135">
        <ele>113</ele>
        <time>2017-07-23T07:55:04.123Z</time>
      </trkpt>
      <trkpt lat="47.76745" lon="2.37135">
        <ele>113</ele>
        <time>2017-07-23T07:55:05.116Z</time>
      </trkpt>
      <trkpt lat="47.76742" lon="2.37118">
        <ele>113</ele>
        <time>2017-07-23T07:55:06.122Z</time>
      </trkpt>
      <trkpt lat="47.76742" lon="2.37118">
        <ele>113</ele>
        <time>2017-07-23T07:55:07.120Z</time>
      </trkpt>
      <trkpt lat="47.76738" lon="2.37102">
        <ele>113</ele>
        <time>2017-07-23T07:55:08.124Z</time>
      </trkpt>
      <trkpt lat="47.76738" lon="2.37102">
        <ele>113</ele>
        <time>2017-07-23T07:55:09.116Z</time>
      </trkpt>
      <trkpt lat="47.76733" lon="2.37086">
        <ele>113</ele>
        <time>2017-07-23T07:55:10.123Z</time>
      </trkpt>
      <trkpt lat="47.76733" lon="2.37086">
        <ele>113</ele>
        <time>2017-07-23T07:55:11.119Z</time>
      </trkpt>
      <trkpt lat="47.76729" lon="2.3707">
        <ele>113</ele>
        <time>2017-07-23T07:55:12.122Z</time>
      </trkpt>
      <trkpt lat="47.76729" lon="2.3707">
        <ele>113</ele>
        <time>2017-07-23T07:55:13.117Z</time>
      </trkpt>
      <trkpt lat="47.76725" lon="2.37055">
        <ele>113</ele>
        <time>2017-07-23T07:55:14.124Z</time>
      </trkpt>
      <trkpt lat="47.76725" lon="2.37055">
        <ele>113</ele>
        <time>2017-07-23T07:55:15.119Z</time>
      </trkpt>
      <trkpt lat="47.76721" lon="2.3704">
        <ele>113</ele>
        <time>2017-07-23T07:55:16.123Z</time>
      </trkpt>
      <trkpt lat="47.76721" lon="2.3704">
        <ele>113</ele>
        <time>2017-07-23T07:55:17.120Z</time>
      </trkpt>
      <trkpt lat="47.76717" lon="2.37025">
        <ele>114</ele>
        <time>2017-07-23T07:55:18.121Z</time>
      </trkpt>
      <trkpt lat="47.76717" lon="2.37025">
        <ele>114</ele>
        <time>2017-07-23T07:55:19.113Z</time>
      </trkpt>
      <trkpt lat="47.76714" lon="2.3701">
        <ele>114</ele>
        <time>2017-07-23T07:55:20.123Z</time>
      </trkpt>
      <trkpt lat="47.76712" lon="2.37002">
        <ele>114</ele>
        <time>2017-07-23T07:55:21.123Z</time>
      </trkpt>
      <trkpt lat="47.76711" lon="2.36995">
        <ele>114</ele>
        <time>2017-07-23T07:55:22.124Z</time>
      </trkpt>
      <trkpt lat="47.76711" lon="2.36995">
        <ele>114</ele>
        <time>2017-07-23T07:55:23.119Z</time>
      </trkpt>
      <trkpt lat="47.76707" lon="2.3698">
        <ele>115</ele>
        <time>2017-07-23T07:55:24.119Z</time>
      </trkpt>
      <trkpt lat="47.76707" lon="2.3698">
        <ele>115</ele>
        <time>2017-07-23T07:55:25.118Z</time>
      </trkpt>
      <trkpt lat="47.76704" lon="2.36965">
        <ele>115</ele>
        <time>2017-07-23T07:55:26.127Z</time>
      </trkpt>
      <trkpt lat="47.76704" lon="2.36965">
        <ele>115</ele>
        <time>2017-07-23T07:55:27.119Z</time>
      </trkpt>
      <trkpt lat="47.76702" lon="2.3695">
        <ele>115</ele>
        <time>2017-07-23T07:55:28.122Z</time>
      </trkpt>
      <trkpt lat="47.76702" lon="2.3695">
        <ele>115</ele>
        <time>2017-07-23T07:55:29.114Z</time>
      </trkpt>
      <trkpt lat="47.76699" lon="2.36933">
        <ele>115</ele>
        <time>2017-07-23T07:55:30.122Z</time>
      </trkpt>
      <trkpt lat="47.76699" lon="2.36933">
        <ele>115</ele>
        <time>2017-07-23T07:55:31.116Z</time>
      </trkpt>
      <trkpt lat="47.76695" lon="2.36915">
        <ele>115</ele>
        <time>2017-07-23T07:55:32.124Z</time>
      </trkpt>
      <trkpt lat="47.76694" lon="2.36905">
        <ele>115</ele>
        <time>2017-07-23T07:55:33.119Z</time>
      </trkpt>
      <trkpt lat="47.76692" lon="2.36896">
        <ele>115</ele>
        <time>2017-07-23T07:55:34.119Z</time>
      </trkpt>
      <trkpt lat="47.76692" lon="2.36896">
        <ele>115</ele>
        <time>2017-07-23T07:55:35.119Z</time>
      </trkpt>
      <trkpt lat="47.76688" lon="2.36879">
        <ele>115</ele>
        <time>2017-07-23T07:55:36.121Z</time>
      </trkpt>
      <trkpt lat="47.76688" lon="2.36879">
        <ele>115</ele>
        <time>2017-07-23T07:55:37.133Z</time>
      </trkpt>
      <trkpt lat="47.76684" lon="2.36861">
        <ele>115</ele>
        <time>2017-07-23T07:55:38.120Z</time>
      </trkpt>
      <trkpt lat="47.76684" lon="2.36861">
        <ele>115</ele>
        <time>2017-07-23T07:55:39.139Z</time>
      </trkpt>
      <trkpt lat="47.7668" lon="2.36843">
        <ele>115</ele>
        <time>2017-07-23T07:55:40.112Z</time>
      </trkpt>
      <trkpt lat="47.7668" lon="2.36843">
        <ele>115</ele>
        <time>2017-07-23T07:55:41.118Z</time>
      </trkpt>
      <trkpt lat="47.76676" lon="2.36826">
        <ele>115</ele>
        <time>2017-07-23T07:55:42.123Z</time>
      </trkpt>
      <trkpt lat="47.76676" lon="2.36826">
        <ele>115</ele>
        <time>2017-07-23T07:55:43.119Z</time>
      </trkpt>
      <trkpt lat="47.76672" lon="2.36809">
        <ele>115</ele>
        <time>2017-07-23T07:55:44.120Z</time>
      </trkpt>
      <trkpt lat="47.76672" lon="2.36809">
        <ele>115</ele>
        <time>2017-07-23T07:55:45.119Z</time>
      </trkpt>
      <trkpt lat="47.76669" lon="2.36793">
        <ele>115</ele>
        <time>2017-07-23T07:55:46.123Z</time>
      </trkpt>
      <trkpt lat="47.76669" lon="2.36793">
        <ele>115</ele>
        <time>2017-07-23T07:55:47.120Z</time>
      </trkpt>
      <trkpt lat="47.76665" lon="2.36776">
        <ele>115</ele>
        <time>2017-07-23T07:55:48.122Z</time>
      </trkpt>
      <trkpt lat="47.76665" lon="2.36776">
        <ele>115</ele>
        <time>2017-07-23T07:55:49.117Z</time>
      </trkpt>
      <trkpt lat="47.76661" lon="2.36759">
        <ele>114</ele>
        <time>2017-07-23T07:55:50.124Z</time>
      </trkpt>
      <trkpt lat="47.76661" lon="2.36759">
        <ele>114</ele>
        <time>2017-07-23T07:55:51.120Z</time>
      </trkpt>
      <trkpt lat="47.76656" lon="2.36741">
        <ele>114</ele>
        <time>2017-07-23T07:55:52.123Z</time>
      </trkpt>
      <trkpt lat="47.76656" lon="2.36741">
        <ele>114</ele>
        <time>2017-07-23T07:55:53.116Z</time>
      </trkpt>
      <trkpt lat="47.76653" lon="2.36723">
        <ele>114</ele>
        <time>2017-07-23T07:55:54.119Z</time>
      </trkpt>
      <trkpt lat="47.76653" lon="2.36723">
        <ele>114</ele>
        <time>2017-07-23T07:55:55.120Z</time>
      </trkpt>
      <trkpt lat="47.7665" lon="2.36704">
        <ele>114</ele>
        <time>2017-07-23T07:55:56.120Z</time>
      </trkpt>
      <trkpt lat="47.7665" lon="2.36704">
        <ele>114</ele>
        <time>2017-07-23T07:55:57.119Z</time>
      </trkpt>
      <trkpt lat="47.76647" lon="2.36684">
        <ele>114</ele>
        <time>2017-07-23T07:55:58.123Z</time>
      </trkpt>
      <trkpt lat="47.76647" lon="2.36684">
        <ele>114</ele>
        <time>2017-07-23T07:55:59.112Z</time>
      </trkpt>
      <trkpt lat="47.76643" lon="2.36665">
        <ele>114</ele>
        <time>2017-07-23T07:56:00.120Z</time>
      </trkpt>
      <trkpt lat="47.76643" lon="2.36665">
        <ele>114</ele>
        <time>2017-07-23T07:56:01.119Z</time>
      </trkpt>
      <trkpt lat="47.76639" lon="2.36645">
        <ele>114</ele>
        <time>2017-07-23T07:56:02.124Z</time>
      </trkpt>
      <trkpt lat="47.76638" lon="2.36636">
        <ele>114</ele>
        <time>2017-07-23T07:56:03.140Z</time>
      </trkpt>
      <trkpt lat="47.76638" lon="2.36636">
        <ele>114</ele>
        <time>2017-07-23T07:56:04.122Z</time>
      </trkpt>
      <trkpt lat="47.76633" lon="2.36619">
        <ele>114</ele>
        <time>2017-07-23T07:56:05.123Z</time>
      </trkpt>
      <trkpt lat="47.76631" lon="2.36611">
        <ele>114</ele>
        <time>2017-07-23T07:56:06.122Z</time>
      </trkpt>
      <trkpt lat="47.76631" lon="2.36611">
        <ele>114</ele>
        <time>2017-07-23T07:56:07.123Z</time>
      </trkpt>
      <trkpt lat="47.76627" lon="2.36594">
        <ele>114</ele>
        <time>2017-07-23T07:56:08.129Z</time>
      </trkpt>
      <trkpt lat="47.76627" lon="2.36594">
        <ele>114</ele>
        <time>2017-07-23T07:56:09.136Z</time>
      </trkpt>
      <trkpt lat="47.76625" lon="2.36576">
        <ele>115</ele>
        <time>2017-07-23T07:56:10.143Z</time>
      </trkpt>
      <trkpt lat="47.76625" lon="2.36576">
        <ele>115</ele>
        <time>2017-07-23T07:56:11.135Z</time>
      </trkpt>
      <trkpt lat="47.76624" lon="2.36557">
        <ele>115</ele>
        <time>2017-07-23T07:56:12.124Z</time>
      </trkpt>
      <trkpt lat="47.76624" lon="2.36557">
        <ele>115</ele>
        <time>2017-07-23T07:56:13.120Z</time>
      </trkpt>
      <trkpt lat="47.76624" lon="2.3654">
        <ele>115</ele>
        <time>2017-07-23T07:56:14.123Z</time>
      </trkpt>
      <trkpt lat="47.76624" lon="2.3654">
        <ele>115</ele>
        <time>2017-07-23T07:56:15.119Z</time>
      </trkpt>
      <trkpt lat="47.76624" lon="2.36522">
        <ele>115</ele>
        <time>2017-07-23T07:56:16.123Z</time>
      </trkpt>
      <trkpt lat="47.76624" lon="2.36522">
        <ele>115</ele>
        <time>2017-07-23T07:56:17.120Z</time>
      </trkpt>
      <trkpt lat="47.76623" lon="2.36504">
        <ele>116</ele>
        <time>2017-07-23T07:56:18.122Z</time>
      </trkpt>
      <trkpt lat="47.76623" lon="2.36504">
        <ele>116</ele>
        <time>2017-07-23T07:56:19.114Z</time>
      </trkpt>
      <trkpt lat="47.76623" lon="2.36486">
        <ele>116</ele>
        <time>2017-07-23T07:56:20.144Z</time>
      </trkpt>
      <trkpt lat="47.76623" lon="2.36486">
        <ele>116</ele>
        <time>2017-07-23T07:56:21.141Z</time>
      </trkpt>
      <trkpt lat="47.76623" lon="2.36467">
        <ele>117</ele>
        <time>2017-07-23T07:56:22.132Z</time>
      </trkpt>
      <trkpt lat="47.76623" lon="2.36467">
        <ele>117</ele>
        <time>2017-07-23T07:56:23.122Z</time>
      </trkpt>
      <trkpt lat="47.76622" lon="2.3645">
        <ele>117</ele>
        <time>2017-07-23T07:56:24.118Z</time>
      </trkpt>
      <trkpt lat="47.76622" lon="2.3645">
        <ele>117</ele>
        <time>2017-07-23T07:56:25.125Z</time>
      </trkpt>
      <trkpt lat="47.76622" lon="2.36442">
        <ele>117</ele>
        <time>2017-07-23T07:56:26.119Z</time>
      </trkpt>
      <trkpt lat="47.76621" lon="2.36426">
        <ele>118</ele>
        <time>2017-07-23T07:56:27.123Z</time>
      </trkpt>
      <trkpt lat="47.7662" lon="2.36418">
        <ele>118</ele>
        <time>2017-07-23T07:56:28.123Z</time>
      </trkpt>
      <trkpt lat="47.7662" lon="2.36418">
        <ele>118</ele>
        <time>2017-07-23T07:56:29.112Z</time>
      </trkpt>
      <trkpt lat="47.76618" lon="2.36403">
        <ele>118</ele>
        <time>2017-07-23T07:56:30.122Z</time>
      </trkpt>
      <trkpt lat="47.76618" lon="2.36403">
        <ele>118</ele>
        <time>2017-07-23T07:56:31.126Z</time>
      </trkpt>
      <trkpt lat="47.76614" lon="2.36389">
        <ele>118</ele>
        <time>2017-07-23T07:56:32.127Z</time>
      </trkpt>
      <trkpt lat="47.76614" lon="2.36389">
        <ele>118</ele>
        <time>2017-07-23T07:56:33.118Z</time>
      </trkpt>
      <trkpt lat="47.7661" lon="2.36377">
        <ele>119</ele>
        <time>2017-07-23T07:56:34.124Z</time>
      </trkpt>
      <trkpt lat="47.7661" lon="2.36377">
        <ele>119</ele>
        <time>2017-07-23T07:56:35.119Z</time>
      </trkpt>
      <trkpt lat="47.76604" lon="2.36365">
        <ele>119</ele>
        <time>2017-07-23T07:56:36.122Z</time>
      </trkpt>
      <trkpt lat="47.76604" lon="2.36365">
        <ele>119</ele>
        <time>2017-07-23T07:56:37.119Z</time>
      </trkpt>
      <trkpt lat="47.76599" lon="2.36353">
        <ele>119</ele>
        <time>2017-07-23T07:56:38.135Z</time>
      </trkpt>
      <trkpt lat="47.76599" lon="2.36353">
        <ele>119</ele>
        <time>2017-07-23T07:56:39.119Z</time>
      </trkpt>
      <trkpt lat="47.76594" lon="2.3634">
        <ele>119</ele>
        <time>2017-07-23T07:56:40.121Z</time>
      </trkpt>
      <trkpt lat="47.76592" lon="2.36333">
        <ele>119</ele>
        <time>2017-07-23T07:56:41.120Z</time>
      </trkpt>
      <trkpt lat="47.76592" lon="2.36333">
        <ele>119</ele>
        <time>2017-07-23T07:56:42.119Z</time>
      </trkpt>
      <trkpt lat="47.76589" lon="2.36321">
        <ele>120</ele>
        <time>2017-07-23T07:56:43.122Z</time>
      </trkpt>
      <trkpt lat="47.76587" lon="2.36314">
        <ele>120</ele>
        <time>2017-07-23T07:56:44.120Z</time>
      </trkpt>
      <trkpt lat="47.76587" lon="2.36314">
        <ele>120</ele>
        <time>2017-07-23T07:56:45.119Z</time>
      </trkpt>
      <trkpt lat="47.76584" lon="2.36301">
        <ele>121</ele>
        <time>2017-07-23T07:56:46.123Z</time>
      </trkpt>
      <trkpt lat="47.76584" lon="2.36301">
        <ele>121</ele>
        <time>2017-07-23T07:56:47.117Z</time>
      </trkpt>
      <trkpt lat="47.76581" lon="2.36287">
        <ele>121</ele>
        <time>2017-07-23T07:56:48.122Z</time>
      </trkpt>
      <trkpt lat="47.76581" lon="2.36287">
        <ele>121</ele>
        <time>2017-07-23T07:56:49.112Z</time>
      </trkpt>
      <trkpt lat="47.76578" lon="2.36273">
        <ele>122</ele>
        <time>2017-07-23T07:56:50.138Z</time>
      </trkpt>
      <trkpt lat="47.76578" lon="2.36273">
        <ele>122</ele>
        <time>2017-07-23T07:56:51.139Z</time>
      </trkpt>
      <trkpt lat="47.76575" lon="2.36259">
        <ele>122</ele>
        <time>2017-07-23T07:56:52.130Z</time>
      </trkpt>
      <trkpt lat="47.76575" lon="2.36259">
        <ele>122</ele>
        <time>2017-07-23T07:56:53.121Z</time>
      </trkpt>
      <trkpt lat="47.76573" lon="2.36245">
        <ele>122</ele>
        <time>2017-07-23T07:56:54.120Z</time>
      </trkpt>
      <trkpt lat="47.76573" lon="2.36245">
        <ele>122</ele>
        <time>2017-07-23T07:56:55.117Z</time>
      </trkpt>
      <trkpt lat="47.7657" lon="2.36232">
        <ele>123</ele>
        <time>2017-07-23T07:56:56.125Z</time>
      </trkpt>
      <trkpt lat="47.7657" lon="2.36232">
        <ele>123</ele>
        <time>2017-07-23T07:56:57.120Z</time>
      </trkpt>
      <trkpt lat="47.76567" lon="2.36217">
        <ele>123</ele>
        <time>2017-07-23T07:56:58.122Z</time>
      </trkpt>
      <trkpt lat="47.76567" lon="2.36217">
        <ele>123</ele>
        <time>2017-07-23T07:56:59.113Z</time>
      </trkpt>
      <trkpt lat="47.76564" lon="2.36201">
        <ele>123</ele>
        <time>2017-07-23T07:57:00.118Z</time>
      </trkpt>
      <trkpt lat="47.76563" lon="2.36193">
        <ele>124</ele>
        <time>2017-07-23T07:57:01.123Z</time>
      </trkpt>
      <trkpt lat="47.76563" lon="2.36193">
        <ele>124</ele>
        <time>2017-07-23T07:57:02.121Z</time>
      </trkpt>
      <trkpt lat="47.7656" lon="2.36178">
        <ele>124</ele>
        <time>2017-07-23T07:57:03.122Z</time>
      </trkpt>
      <trkpt lat="47.76559" lon="2.36171">
        <ele>124</ele>
        <time>2017-07-23T07:57:04.143Z</time>
      </trkpt>
      <trkpt lat="47.76559" lon="2.36171">
        <ele>124</ele>
        <time>2017-07-23T07:57:05.129Z</time>
      </trkpt>
      <trkpt lat="47.76557" lon="2.36156">
        <ele>124</ele>
        <time>2017-07-23T07:57:06.122Z</time>
      </trkpt>
      <trkpt lat="47.76557" lon="2.36156">
        <ele>124</ele>
        <time>2017-07-23T07:57:07.120Z</time>
      </trkpt>
      <trkpt lat="47.76556" lon="2.3614">
        <ele>124</ele>
        <time>2017-07-23T07:57:08.124Z</time>
      </trkpt>
      <trkpt lat="47.76556" lon="2.3614">
        <ele>124</ele>
        <time>2017-07-23T07:57:09.133Z</time>
      </trkpt>
      <trkpt lat="47.76554" lon="2.36125">
        <ele>124</ele>
        <time>2017-07-23T07:57:10.124Z</time>
      </trkpt>
      <trkpt lat="47.76554" lon="2.36125">
        <ele>124</ele>
        <time>2017-07-23T07:57:11.119Z</time>
      </trkpt>
      <trkpt lat="47.76553" lon="2.3611">
        <ele>124</ele>
        <time>2017-07-23T07:57:12.121Z</time>
      </trkpt>
      <trkpt lat="47.76552" lon="2.36102">
        <ele>124</ele>
        <time>2017-07-23T07:57:13.122Z</time>
      </trkpt>
      <trkpt lat="47.76551" lon="2.36093">
        <ele>124</ele>
        <time>2017-07-23T07:57:14.122Z</time>
      </trkpt>
      <trkpt lat="47.76551" lon="2.36093">
        <ele>124</ele>
        <time>2017-07-23T07:57:15.119Z</time>
      </trkpt>
      <trkpt lat="47.76549" lon="2.36078">
        <ele>125</ele>
        <time>2017-07-23T07:57:16.123Z</time>
      </trkpt>
      <trkpt lat="47.76549" lon="2.36078">
        <ele>125</ele>
        <time>2017-07-23T07:57:17.116Z</time>
      </trkpt>
      <trkpt lat="47.76549" lon="2.36062">
        <ele>124</ele>
        <time>2017-07-23T07:57:18.122Z</time>
      </trkpt>
      <trkpt lat="47.76549" lon="2.36062">
        <ele>124</ele>
        <time>2017-07-23T07:57:19.113Z</time>
      </trkpt>
      <trkpt lat="47.76548" lon="2.36046">
        <ele>125</ele>
        <time>2017-07-23T07:57:20.124Z</time>
      </trkpt>
      <trkpt lat="47.76548" lon="2.36046">
        <ele>125</ele>
        <time>2017-07-23T07:57:21.119Z</time>
      </trkpt>
      <trkpt lat="47.76547" lon="2.3603">
        <ele>125</ele>
        <time>2017-07-23T07:57:22.120Z</time>
      </trkpt>
      <trkpt lat="47.76547" lon="2.36023">
        <ele>125</ele>
        <time>2017-07-23T07:57:23.119Z</time>
      </trkpt>
      <trkpt lat="47.76547" lon="2.36023">
        <ele>125</ele>
        <time>2017-07-23T07:57:24.116Z</time>
      </trkpt>
      <trkpt lat="47.76547" lon="2.36005">
        <ele>125</ele>
        <time>2017-07-23T07:57:25.122Z</time>
      </trkpt>
      <trkpt lat="47.76547" lon="2.35997">
        <ele>125</ele>
        <time>2017-07-23T07:57:26.123Z</time>
      </trkpt>
      <trkpt lat="47.76547" lon="2.35997">
        <ele>125</ele>
        <time>2017-07-23T07:57:27.119Z</time>
      </trkpt>
      <trkpt lat="47.76547" lon="2.35979">
        <ele>125</ele>
        <time>2017-07-23T07:57:28.123Z</time>
      </trkpt>
      <trkpt lat="47.76547" lon="2.35979">
        <ele>125</ele>
        <time>2017-07-23T07:57:29.113Z</time>
      </trkpt>
      <trkpt lat="47.76547" lon="2.35962">
        <ele>124</ele>
        <time>2017-07-23T07:57:30.141Z</time>
      </trkpt>
      <trkpt lat="47.76547" lon="2.35953">
        <ele>124</ele>
        <time>2017-07-23T07:57:31.146Z</time>
      </trkpt>
      <trkpt lat="47.76547" lon="2.35953">
        <ele>124</ele>
        <time>2017-07-23T07:57:32.128Z</time>
      </trkpt>
      <trkpt lat="47.76547" lon="2.35935">
        <ele>125</ele>
        <time>2017-07-23T07:57:33.121Z</time>
      </trkpt>
      <trkpt lat="47.76547" lon="2.35926">
        <ele>124</ele>
        <time>2017-07-23T07:57:34.120Z</time>
      </trkpt>
      <trkpt lat="47.76547" lon="2.35926">
        <ele>124</ele>
        <time>2017-07-23T07:57:35.118Z</time>
      </trkpt>
      <trkpt lat="47.76547" lon="2.35908">
        <ele>124</ele>
        <time>2017-07-23T07:57:36.121Z</time>
      </trkpt>
      <trkpt lat="47.76547" lon="2.35908">
        <ele>124</ele>
        <time>2017-07-23T07:57:37.117Z</time>
      </trkpt>
      <trkpt lat="47.76546" lon="2.35889">
        <ele>124</ele>
        <time>2017-07-23T07:57:38.124Z</time>
      </trkpt>
      <trkpt lat="47.76546" lon="2.35889">
        <ele>124</ele>
        <time>2017-07-23T07:57:39.122Z</time>
      </trkpt>
      <trkpt lat="47.76545" lon="2.35872">
        <ele>124</ele>
        <time>2017-07-23T07:57:40.124Z</time>
      </trkpt>
      <trkpt lat="47.76545" lon="2.35872">
        <ele>124</ele>
        <time>2017-07-23T07:57:41.118Z</time>
      </trkpt>
      <trkpt lat="47.76543" lon="2.35855">
        <ele>123</ele>
        <time>2017-07-23T07:57:42.121Z</time>
      </trkpt>
      <trkpt lat="47.76542" lon="2.35846">
        <ele>123</ele>
        <time>2017-07-23T07:57:43.127Z</time>
      </trkpt>
      <trkpt lat="47.76541" lon="2.35837">
        <ele>122</ele>
        <time>2017-07-23T07:57:44.120Z</time>
      </trkpt>
      <trkpt lat="47.76541" lon="2.35837">
        <ele>122</ele>
        <time>2017-07-23T07:57:45.119Z</time>
      </trkpt>
      <trkpt lat="47.7654" lon="2.3582">
        <ele>122</ele>
        <time>2017-07-23T07:57:46.122Z</time>
      </trkpt>
      <trkpt lat="47.7654" lon="2.3582">
        <ele>122</ele>
        <time>2017-07-23T07:57:47.119Z</time>
      </trkpt>
      <trkpt lat="47.76537" lon="2.35803">
        <ele>122</ele>
        <time>2017-07-23T07:57:48.121Z</time>
      </trkpt>
      <trkpt lat="47.76537" lon="2.35803">
        <ele>122</ele>
        <time>2017-07-23T07:57:49.112Z</time>
      </trkpt>
      <trkpt lat="47.76535" lon="2.35786">
        <ele>122</ele>
        <time>2017-07-23T07:57:50.138Z</time>
      </trkpt>
      <trkpt lat="47.76535" lon="2.35778">
        <ele>121</ele>
        <time>2017-07-23T07:57:51.144Z</time>
      </trkpt>
      <trkpt lat="47.76535" lon="2.35778">
        <ele>121</ele>
        <time>2017-07-23T07:57:52.126Z</time>
      </trkpt>
      <trkpt lat="47.76536" lon="2.35763">
        <ele>121</ele>
        <time>2017-07-23T07:57:53.122Z</time>
      </trkpt>
      <trkpt lat="47.76537" lon="2.35756">
        <ele>121</ele>
        <time>2017-07-23T07:57:54.121Z</time>
      </trkpt>
      <trkpt lat="47.76537" lon="2.35756">
        <ele>121</ele>
        <time>2017-07-23T07:57:55.116Z</time>
      </trkpt>
      <trkpt lat="47.76537" lon="2.35743">
        <ele>121</ele>
        <time>2017-07-23T07:57:56.123Z</time>
      </trkpt>
      <trkpt lat="47.76537" lon="2.35743">
        <ele>121</ele>
        <time>2017-07-23T07:57:57.118Z</time>
      </trkpt>
      <trkpt lat="47.76535" lon="2.35732">
        <ele>121</ele>
        <time>2017-07-23T07:57:58.122Z</time>
      </trkpt>
      <trkpt lat="47.76535" lon="2.35732">
        <ele>121</ele>
        <time>2017-07-23T07:57:59.113Z</time>
      </trkpt>
      <trkpt lat="47.76533" lon="2.35724">
        <ele>120</ele>
        <time>2017-07-23T07:58:00.142Z</time>
      </trkpt>
      <trkpt lat="47.76534" lon="2.3572">
        <ele>120</ele>
        <time>2017-07-23T07:58:01.131Z</time>
      </trkpt>
      <trkpt lat="47.76534" lon="2.35715">
        <ele>120</ele>
        <time>2017-07-23T07:58:02.125Z</time>
      </trkpt>
      <trkpt lat="47.76534" lon="2.35715">
        <ele>120</ele>
        <time>2017-07-23T07:58:03.119Z</time>
      </trkpt>
      <trkpt lat="47.76534" lon="2.35704">
        <ele>119</ele>
        <time>2017-07-23T07:58:04.122Z</time>
      </trkpt>
      <trkpt lat="47.76534" lon="2.35704">
        <ele>119</ele>
        <time>2017-07-23T07:58:05.118Z</time>
      </trkpt>
      <trkpt lat="47.76535" lon="2.35694">
        <ele>119</ele>
        <time>2017-07-23T07:58:06.121Z</time>
      </trkpt>
      <trkpt lat="47.76535" lon="2.35694">
        <ele>119</ele>
        <time>2017-07-23T07:58:07.119Z</time>
      </trkpt>
      <trkpt lat="47.76535" lon="2.35682">
        <ele>119</ele>
        <time>2017-07-23T07:58:08.124Z</time>
      </trkpt>
      <trkpt lat="47.76535" lon="2.35682">
        <ele>119</ele>
        <time>2017-07-23T07:58:09.113Z</time>
      </trkpt>
      <trkpt lat="47.76535" lon="2.3567">
        <ele>118</ele>
        <time>2017-07-23T07:58:10.119Z</time>
      </trkpt>
      <trkpt lat="47.76535" lon="2.3567">
        <ele>118</ele>
        <time>2017-07-23T07:58:11.129Z</time>
      </trkpt>
      <trkpt lat="47.76536" lon="2.35657">
        <ele>119</ele>
        <time>2017-07-23T07:58:12.122Z</time>
      </trkpt>
      <trkpt lat="47.76536" lon="2.35657">
        <ele>119</ele>
        <time>2017-07-23T07:58:13.118Z</time>
      </trkpt>
      <trkpt lat="47.76537" lon="2.35645">
        <ele>119</ele>
        <time>2017-07-23T07:58:14.120Z</time>
      </trkpt>
      <trkpt lat="47.76537" lon="2.35645">
        <ele>119</ele>
        <time>2017-07-23T07:58:15.118Z</time>
      </trkpt>
      <trkpt lat="47.76539" lon="2.35631">
        <ele>118</ele>
        <time>2017-07-23T07:58:16.122Z</time>
      </trkpt>
      <trkpt lat="47.76539" lon="2.35631">
        <ele>118</ele>
        <time>2017-07-23T07:58:17.119Z</time>
      </trkpt>
      <trkpt lat="47.76539" lon="2.35617">
        <ele>118</ele>
        <time>2017-07-23T07:58:18.121Z</time>
      </trkpt>
      <trkpt lat="47.76539" lon="2.35617">
        <ele>118</ele>
        <time>2017-07-23T07:58:19.112Z</time>
      </trkpt>
      <trkpt lat="47.7654" lon="2.35603">
        <ele>118</ele>
        <time>2017-07-23T07:58:20.120Z</time>
      </trkpt>
      <trkpt lat="47.7654" lon="2.35603">
        <ele>118</ele>
        <time>2017-07-23T07:58:21.119Z</time>
      </trkpt>
      <trkpt lat="47.76541" lon="2.3559">
        <ele>118</ele>
        <time>2017-07-23T07:58:22.122Z</time>
      </trkpt>
      <trkpt lat="47.76541" lon="2.3559">
        <ele>118</ele>
        <time>2017-07-23T07:58:23.118Z</time>
      </trkpt>
      <trkpt lat="47.76542" lon="2.35577">
        <ele>118</ele>
        <time>2017-07-23T07:58:24.121Z</time>
      </trkpt>
      <trkpt lat="47.76542" lon="2.35577">
        <ele>118</ele>
        <time>2017-07-23T07:58:25.118Z</time>
      </trkpt>
      <trkpt lat="47.76543" lon="2.35563">
        <ele>118</ele>
        <time>2017-07-23T07:58:26.128Z</time>
      </trkpt>
      <trkpt lat="47.76543" lon="2.35563">
        <ele>118</ele>
        <time>2017-07-23T07:58:27.116Z</time>
      </trkpt>
      <trkpt lat="47.76545" lon="2.3555">
        <ele>118</ele>
        <time>2017-07-23T07:58:28.122Z</time>
      </trkpt>
      <trkpt lat="47.76545" lon="2.3555">
        <ele>118</ele>
        <time>2017-07-23T07:58:29.112Z</time>
      </trkpt>
      <trkpt lat="47.76546" lon="2.35537">
        <ele>118</ele>
        <time>2017-07-23T07:58:30.138Z</time>
      </trkpt>
      <trkpt lat="47.76547" lon="2.3553">
        <ele>118</ele>
        <time>2017-07-23T07:58:31.131Z</time>
      </trkpt>
      <trkpt lat="47.76548" lon="2.35523">
        <ele>118</ele>
        <time>2017-07-23T07:58:32.125Z</time>
      </trkpt>
      <trkpt lat="47.76548" lon="2.35523">
        <ele>118</ele>
        <time>2017-07-23T07:58:33.119Z</time>
      </trkpt>
      <trkpt lat="47.7655" lon="2.3551">
        <ele>117</ele>
        <time>2017-07-23T07:58:34.122Z</time>
      </trkpt>
      <trkpt lat="47.7655" lon="2.3551">
        <ele>117</ele>
        <time>2017-07-23T07:58:35.120Z</time>
      </trkpt>
      <trkpt lat="47.76553" lon="2.35498">
        <ele>117</ele>
        <time>2017-07-23T07:58:36.121Z</time>
      </trkpt>
      <trkpt lat="47.76554" lon="2.35492">
        <ele>117</ele>
        <time>2017-07-23T07:58:37.121Z</time>
      </trkpt>
      <trkpt lat="47.76555" lon="2.35486">
        <ele>117</ele>
        <time>2017-07-23T07:58:38.128Z</time>
      </trkpt>
      <trkpt lat="47.76556" lon="2.35479">
        <ele>117</ele>
        <time>2017-07-23T07:58:39.135Z</time>
      </trkpt>
      <trkpt lat="47.76556" lon="2.35479">
        <ele>117</ele>
        <time>2017-07-23T07:58:40.140Z</time>
      </trkpt>
      <trkpt lat="47.76559" lon="2.35467">
        <ele>117</ele>
        <time>2017-07-23T07:58:41.122Z</time>
      </trkpt>
      <trkpt lat="47.76561" lon="2.3546">
        <ele>117</ele>
        <time>2017-07-23T07:58:42.122Z</time>
      </trkpt>
      <trkpt lat="47.76561" lon="2.3546">
        <ele>117</ele>
        <time>2017-07-23T07:58:43.119Z</time>
      </trkpt>
      <trkpt lat="47.76563" lon="2.35448">
        <ele>117</ele>
        <time>2017-07-23T07:58:44.124Z</time>
      </trkpt>
      <trkpt lat="47.76563" lon="2.35448">
        <ele>117</ele>
        <time>2017-07-23T07:58:45.116Z</time>
      </trkpt>
      <trkpt lat="47.76566" lon="2.35436">
        <ele>117</ele>
        <time>2017-07-23T07:58:46.120Z</time>
      </trkpt>
      <trkpt lat="47.76566" lon="2.35436">
        <ele>117</ele>
        <time>2017-07-23T07:58:47.119Z</time>
      </trkpt>
      <trkpt lat="47.76567" lon="2.35425">
        <ele>118</ele>
        <time>2017-07-23T07:58:48.122Z</time>
      </trkpt>
      <trkpt lat="47.76567" lon="2.35425">
        <ele>118</ele>
        <time>2017-07-23T07:58:49.114Z</time>
      </trkpt>
      <trkpt lat="47.76569" lon="2.35417">
        <ele>118</ele>
        <time>2017-07-23T07:58:50.144Z</time>
      </trkpt>
      <trkpt lat="47.76569" lon="2.35417">
        <ele>118</ele>
        <time>2017-07-23T07:58:51.134Z</time>
      </trkpt>
      <trkpt lat="47.76572" lon="2.35407">
        <ele>118</ele>
        <time>2017-07-23T07:58:52.122Z</time>
      </trkpt>
      <trkpt lat="47.76572" lon="2.35407">
        <ele>118</ele>
        <time>2017-07-23T07:58:53.116Z</time>
      </trkpt>
      <trkpt lat="47.76575" lon="2.35396">
        <ele>118</ele>
        <time>2017-07-23T07:58:54.122Z</time>
      </trkpt>
      <trkpt lat="47.76575" lon="2.35396">
        <ele>118</ele>
        <time>2017-07-23T07:58:55.119Z</time>
      </trkpt>
      <trkpt lat="47.76577" lon="2.35384">
        <ele>118</ele>
        <time>2017-07-23T07:58:56.124Z</time>
      </trkpt>
      <trkpt lat="47.76577" lon="2.35384">
        <ele>118</ele>
        <time>2017-07-23T07:58:57.117Z</time>
      </trkpt>
      <trkpt lat="47.76579" lon="2.35373">
        <ele>118</ele>
        <time>2017-07-23T07:58:58.123Z</time>
      </trkpt>
      <trkpt lat="47.76579" lon="2.35373">
        <ele>118</ele>
        <time>2017-07-23T07:58:59.113Z</time>
      </trkpt>
      <trkpt lat="47.76581" lon="2.35363">
        <ele>118</ele>
        <time>2017-07-23T07:59:00.121Z</time>
      </trkpt>
      <trkpt lat="47.76581" lon="2.35363">
        <ele>118</ele>
        <time>2017-07-23T07:59:01.125Z</time>
      </trkpt>
      <trkpt lat="47.76584" lon="2.35353">
        <ele>118</ele>
        <time>2017-07-23T07:59:02.134Z</time>
      </trkpt>
      <trkpt lat="47.76584" lon="2.35353">
        <ele>118</ele>
        <time>2017-07-23T07:59:03.120Z</time>
      </trkpt>
      <trkpt lat="47.76587" lon="2.35343">
        <ele>118</ele>
        <time>2017-07-23T07:59:04.123Z</time>
      </trkpt>
      <trkpt lat="47.76587" lon="2.35343">
        <ele>118</ele>
        <time>2017-07-23T07:59:05.116Z</time>
      </trkpt>
      <trkpt lat="47.7659" lon="2.35336">
        <ele>118</ele>
        <time>2017-07-23T07:59:06.133Z</time>
      </trkpt>
      <trkpt lat="47.7659" lon="2.35336">
        <ele>118</ele>
        <time>2017-07-23T07:59:07.139Z</time>
      </trkpt>
      <trkpt lat="47.76591" lon="2.35332">
        <ele>118</ele>
        <time>2017-07-23T07:59:08.115Z</time>
      </trkpt>
      <trkpt lat="47.76591" lon="2.35332">
        <ele>118</ele>
        <time>2017-07-23T07:59:09.120Z</time>
      </trkpt>
      <trkpt lat="47.76591" lon="2.35328">
        <ele>118</ele>
        <time>2017-07-23T07:59:10.122Z</time>
      </trkpt>
      <trkpt lat="47.76591" lon="2.35328">
        <ele>118</ele>
        <time>2017-07-23T07:59:11.116Z</time>
      </trkpt>
      <trkpt lat="47.76591" lon="2.35324">
        <ele>118</ele>
        <time>2017-07-23T07:59:12.122Z</time>
      </trkpt>
      <trkpt lat="47.76591" lon="2.35324">
        <ele>118</ele>
        <time>2017-07-23T07:59:13.119Z</time>
      </trkpt>
      <trkpt lat="47.76591" lon="2.35319">
        <ele>118</ele>
        <time>2017-07-23T07:59:14.121Z</time>
      </trkpt>
      <trkpt lat="47.76591" lon="2.35319">
        <ele>118</ele>
        <time>2017-07-23T07:59:15.119Z</time>
      </trkpt>
      <trkpt lat="47.76593" lon="2.35311">
        <ele>118</ele>
        <time>2017-07-23T07:59:16.124Z</time>
      </trkpt>
      <trkpt lat="47.76593" lon="2.35311">
        <ele>118</ele>
        <time>2017-07-23T07:59:17.119Z</time>
      </trkpt>
      <trkpt lat="47.76596" lon="2.35299">
        <ele>118</ele>
        <time>2017-07-23T07:59:18.122Z</time>
      </trkpt>
      <trkpt lat="47.76596" lon="2.35299">
        <ele>118</ele>
        <time>2017-07-23T07:59:19.117Z</time>
      </trkpt>
      <trkpt lat="47.766" lon="2.35287">
        <ele>118</ele>
        <time>2017-07-23T07:59:20.121Z</time>
      </trkpt>
      <trkpt lat="47.766" lon="2.35287">
        <ele>118</ele>
        <time>2017-07-23T07:59:21.116Z</time>
      </trkpt>
      <trkpt lat="47.76603" lon="2.35277">
        <ele>117</ele>
        <time>2017-07-23T07:59:22.124Z</time>
      </trkpt>
      <trkpt lat="47.76603" lon="2.35277">
        <ele>117</ele>
        <time>2017-07-23T07:59:23.113Z</time>
      </trkpt>
      <trkpt lat="47.76604" lon="2.35266">
        <ele>118</ele>
        <time>2017-07-23T07:59:24.133Z</time>
      </trkpt>
      <trkpt lat="47.76604" lon="2.35266">
        <ele>118</ele>
        <time>2017-07-23T07:59:25.122Z</time>
      </trkpt>
      <trkpt lat="47.76605" lon="2.35255">
        <ele>118</ele>
        <time>2017-07-23T07:59:26.120Z</time>
      </trkpt>
      <trkpt lat="47.76605" lon="2.35255">
        <ele>118</ele>
        <time>2017-07-23T07:59:27.119Z</time>
      </trkpt>
      <trkpt lat="47.76606" lon="2.35244">
        <ele>118</ele>
        <time>2017-07-23T07:59:28.122Z</time>
      </trkpt>
      <trkpt lat="47.76606" lon="2.35244">
        <ele>118</ele>
        <time>2017-07-23T07:59:29.113Z</time>
      </trkpt>
      <trkpt lat="47.76607" lon="2.35233">
        <ele>119</ele>
        <time>2017-07-23T07:59:30.121Z</time>
      </trkpt>
      <trkpt lat="47.76607" lon="2.35233">
        <ele>119</ele>
        <time>2017-07-23T07:59:31.119Z</time>
      </trkpt>
      <trkpt lat="47.7661" lon="2.35222">
        <ele>118</ele>
        <time>2017-07-23T07:59:32.120Z</time>
      </trkpt>
      <trkpt lat="47.7661" lon="2.35222">
        <ele>118</ele>
        <time>2017-07-23T07:59:33.115Z</time>
      </trkpt>
      <trkpt lat="47.76613" lon="2.35211">
        <ele>118</ele>
        <time>2017-07-23T07:59:34.122Z</time>
      </trkpt>
      <trkpt lat="47.76613" lon="2.35211">
        <ele>118</ele>
        <time>2017-07-23T07:59:35.117Z</time>
      </trkpt>
      <trkpt lat="47.76617" lon="2.35199">
        <ele>118</ele>
        <time>2017-07-23T07:59:36.122Z</time>
      </trkpt>
      <trkpt lat="47.76617" lon="2.35199">
        <ele>118</ele>
        <time>2017-07-23T07:59:37.119Z</time>
      </trkpt>
      <trkpt lat="47.76621" lon="2.35187">
        <ele>118</ele>
        <time>2017-07-23T07:59:38.113Z</time>
      </trkpt>
      <trkpt lat="47.76621" lon="2.35187">
        <ele>118</ele>
        <time>2017-07-23T07:59:39.120Z</time>
      </trkpt>
      <trkpt lat="47.76625" lon="2.35174">
        <ele>117</ele>
        <time>2017-07-23T07:59:40.126Z</time>
      </trkpt>
      <trkpt lat="47.76627" lon="2.35168">
        <ele>117</ele>
        <time>2017-07-23T07:59:41.132Z</time>
      </trkpt>
      <trkpt lat="47.76627" lon="2.35168">
        <ele>117</ele>
        <time>2017-07-23T07:59:42.122Z</time>
      </trkpt>
      <trkpt lat="47.76631" lon="2.35155">
        <ele>117</ele>
        <time>2017-07-23T07:59:43.122Z</time>
      </trkpt>
      <trkpt lat="47.76633" lon="2.35149">
        <ele>117</ele>
        <time>2017-07-23T07:59:44.131Z</time>
      </trkpt>
      <trkpt lat="47.76633" lon="2.35149">
        <ele>117</ele>
        <time>2017-07-23T07:59:45.135Z</time>
      </trkpt>
      <trkpt lat="47.76637" lon="2.35138">
        <ele>116</ele>
        <time>2017-07-23T07:59:46.125Z</time>
      </trkpt>
      <trkpt lat="47.76637" lon="2.35138">
        <ele>116</ele>
        <time>2017-07-23T07:59:47.119Z</time>
      </trkpt>
      <trkpt lat="47.76644" lon="2.35132">
        <ele>115</ele>
        <time>2017-07-23T07:59:48.123Z</time>
      </trkpt>
      <trkpt lat="47.76644" lon="2.35132">
        <ele>115</ele>
        <time>2017-07-23T07:59:49.113Z</time>
      </trkpt>
      <trkpt lat="47.76653" lon="2.35128">
        <ele>115</ele>
        <time>2017-07-23T07:59:50.140Z</time>
      </trkpt>
      <trkpt lat="47.76653" lon="2.35128">
        <ele>115</ele>
        <time>2017-07-23T07:59:51.141Z</time>
      </trkpt>
      <trkpt lat="47.76659" lon="2.35122">
        <ele>115</ele>
        <time>2017-07-23T07:59:52.133Z</time>
      </trkpt>
      <trkpt lat="47.76659" lon="2.35122">
        <ele>115</ele>
        <time>2017-07-23T07:59:53.123Z</time>
      </trkpt>
      <trkpt lat="47.76664" lon="2.35115">
        <ele>115</ele>
        <time>2017-07-23T07:59:54.121Z</time>
      </trkpt>
      <trkpt lat="47.76664" lon="2.35115">
        <ele>115</ele>
        <time>2017-07-23T07:59:55.119Z</time>
      </trkpt>
      <trkpt lat="47.76669" lon="2.35106">
        <ele>115</ele>
        <time>2017-07-23T07:59:56.124Z</time>
      </trkpt>
      <trkpt lat="47.76669" lon="2.35106">
        <ele>115</ele>
        <time>2017-07-23T07:59:57.116Z</time>
      </trkpt>
      <trkpt lat="47.76674" lon="2.35097">
        <ele>115</ele>
        <time>2017-07-23T07:59:58.120Z</time>
      </trkpt>
      <trkpt lat="47.76674" lon="2.35097">
        <ele>115</ele>
        <time>2017-07-23T07:59:59.112Z</time>
      </trkpt>
      <trkpt lat="47.76678" lon="2.35087">
        <ele>115</ele>
        <time>2017-07-23T08:00:00.137Z</time>
      </trkpt>
      <trkpt lat="47.7668" lon="2.35083">
        <ele>115</ele>
        <time>2017-07-23T08:00:01.127Z</time>
      </trkpt>
      <trkpt lat="47.76681" lon="2.35078">
        <ele>116</ele>
        <time>2017-07-23T08:00:02.125Z</time>
      </trkpt>
      <trkpt lat="47.76681" lon="2.35078">
        <ele>116</ele>
        <time>2017-07-23T08:00:03.119Z</time>
      </trkpt>
      <trkpt lat="47.76686" lon="2.35068">
        <ele>116</ele>
        <time>2017-07-23T08:00:04.123Z</time>
      </trkpt>
      <trkpt lat="47.76686" lon="2.35068">
        <ele>116</ele>
        <time>2017-07-23T08:00:05.118Z</time>
      </trkpt>
      <trkpt lat="47.76691" lon="2.35057">
        <ele>116</ele>
        <time>2017-07-23T08:00:06.119Z</time>
      </trkpt>
      <trkpt lat="47.76691" lon="2.35057">
        <ele>116</ele>
        <time>2017-07-23T08:00:07.117Z</time>
      </trkpt>
      <trkpt lat="47.76696" lon="2.35046">
        <ele>117</ele>
        <time>2017-07-23T08:00:08.121Z</time>
      </trkpt>
      <trkpt lat="47.76696" lon="2.35046">
        <ele>117</ele>
        <time>2017-07-23T08:00:09.112Z</time>
      </trkpt>
      <trkpt lat="47.767" lon="2.35036">
        <ele>117</ele>
        <time>2017-07-23T08:00:10.142Z</time>
      </trkpt>
      <trkpt lat="47.767" lon="2.35036">
        <ele>117</ele>
        <time>2017-07-23T08:00:11.134Z</time>
      </trkpt>
      <trkpt lat="47.76705" lon="2.35025">
        <ele>117</ele>
        <time>2017-07-23T08:00:12.123Z</time>
      </trkpt>
      <trkpt lat="47.76705" lon="2.35025">
        <ele>117</ele>
        <time>2017-07-23T08:00:13.119Z</time>
      </trkpt>
      <trkpt lat="47.76709" lon="2.35015">
        <ele>117</ele>
        <time>2017-07-23T08:00:14.121Z</time>
      </trkpt>
      <trkpt lat="47.76709" lon="2.35015">
        <ele>117</ele>
        <time>2017-07-23T08:00:15.118Z</time>
      </trkpt>
      <trkpt lat="47.76713" lon="2.35005">
        <ele>117</ele>
        <time>2017-07-23T08:00:16.123Z</time>
      </trkpt>
      <trkpt lat="47.76713" lon="2.35005">
        <ele>117</ele>
        <time>2017-07-23T08:00:17.119Z</time>
      </trkpt>
      <trkpt lat="47.76718" lon="2.34994">
        <ele>117</ele>
        <time>2017-07-23T08:00:18.122Z</time>
      </trkpt>
      <trkpt lat="47.7672" lon="2.34988">
        <ele>118</ele>
        <time>2017-07-23T08:00:19.120Z</time>
      </trkpt>
      <trkpt lat="47.76723" lon="2.34983">
        <ele>117</ele>
        <time>2017-07-23T08:00:20.121Z</time>
      </trkpt>
      <trkpt lat="47.76723" lon="2.34983">
        <ele>117</ele>
        <time>2017-07-23T08:00:21.119Z</time>
      </trkpt>
      <trkpt lat="47.76727" lon="2.34973">
        <ele>118</ele>
        <time>2017-07-23T08:00:22.122Z</time>
      </trkpt>
      <trkpt lat="47.76727" lon="2.34973">
        <ele>118</ele>
        <time>2017-07-23T08:00:23.119Z</time>
      </trkpt>
      <trkpt lat="47.76732" lon="2.34963">
        <ele>118</ele>
        <time>2017-07-23T08:00:24.122Z</time>
      </trkpt>
      <trkpt lat="47.76732" lon="2.34963">
        <ele>118</ele>
        <time>2017-07-23T08:00:25.119Z</time>
      </trkpt>
      <trkpt lat="47.76736" lon="2.34953">
        <ele>118</ele>
        <time>2017-07-23T08:00:26.124Z</time>
      </trkpt>
      <trkpt lat="47.76736" lon="2.34953">
        <ele>118</ele>
        <time>2017-07-23T08:00:27.117Z</time>
      </trkpt>
      <trkpt lat="47.76741" lon="2.34942">
        <ele>119</ele>
        <time>2017-07-23T08:00:28.123Z</time>
      </trkpt>
      <trkpt lat="47.76741" lon="2.34942">
        <ele>119</ele>
        <time>2017-07-23T08:00:29.119Z</time>
      </trkpt>
      <trkpt lat="47.76746" lon="2.34931">
        <ele>121</ele>
        <time>2017-07-23T08:00:30.121Z</time>
      </trkpt>
      <trkpt lat="47.76749" lon="2.34925">
        <ele>120</ele>
        <time>2017-07-23T08:00:31.122Z</time>
      </trkpt>
      <trkpt lat="47.76751" lon="2.3492">
        <ele>121</ele>
        <time>2017-07-23T08:00:32.123Z</time>
      </trkpt>
      <trkpt lat="47.76751" lon="2.3492">
        <ele>121</ele>
        <time>2017-07-23T08:00:33.119Z</time>
      </trkpt>
      <trkpt lat="47.76756" lon="2.34909">
        <ele>121</ele>
        <time>2017-07-23T08:00:34.122Z</time>
      </trkpt>
      <trkpt lat="47.76759" lon="2.34904">
        <ele>121</ele>
        <time>2017-07-23T08:00:35.121Z</time>
      </trkpt>
      <trkpt lat="47.76759" lon="2.34904">
        <ele>121</ele>
        <time>2017-07-23T08:00:36.119Z</time>
      </trkpt>
      <trkpt lat="47.76764" lon="2.34893">
        <ele>120</ele>
        <time>2017-07-23T08:00:37.122Z</time>
      </trkpt>
      <trkpt lat="47.76767" lon="2.34887">
        <ele>120</ele>
        <time>2017-07-23T08:00:38.123Z</time>
      </trkpt>
      <trkpt lat="47.76767" lon="2.34887">
        <ele>120</ele>
        <time>2017-07-23T08:00:39.136Z</time>
      </trkpt>
      <trkpt lat="47.76772" lon="2.34877">
        <ele>120</ele>
        <time>2017-07-23T08:00:40.142Z</time>
      </trkpt>
      <trkpt lat="47.76772" lon="2.34877">
        <ele>120</ele>
        <time>2017-07-23T08:00:41.120Z</time>
      </trkpt>
      <trkpt lat="47.76777" lon="2.34868">
        <ele>121</ele>
        <time>2017-07-23T08:00:42.122Z</time>
      </trkpt>
      <trkpt lat="47.76777" lon="2.34868">
        <ele>121</ele>
        <time>2017-07-23T08:00:43.117Z</time>
      </trkpt>
      <trkpt lat="47.76782" lon="2.34858">
        <ele>121</ele>
        <time>2017-07-23T08:00:44.123Z</time>
      </trkpt>
      <trkpt lat="47.76782" lon="2.34858">
        <ele>121</ele>
        <time>2017-07-23T08:00:45.130Z</time>
      </trkpt>
      <trkpt lat="47.76788" lon="2.34848">
        <ele>121</ele>
        <time>2017-07-23T08:00:46.123Z</time>
      </trkpt>
      <trkpt lat="47.76788" lon="2.34848">
        <ele>121</ele>
        <time>2017-07-23T08:00:47.116Z</time>
      </trkpt>
      <trkpt lat="47.76793" lon="2.34837">
        <ele>120</ele>
        <time>2017-07-23T08:00:48.122Z</time>
      </trkpt>
      <trkpt lat="47.76793" lon="2.34837">
        <ele>120</ele>
        <time>2017-07-23T08:00:49.113Z</time>
      </trkpt>
      <trkpt lat="47.76799" lon="2.34828">
        <ele>121</ele>
        <time>2017-07-23T08:00:50.140Z</time>
      </trkpt>
      <trkpt lat="47.76799" lon="2.34828">
        <ele>121</ele>
        <time>2017-07-23T08:00:51.140Z</time>
      </trkpt>
      <trkpt lat="47.76804" lon="2.34818">
        <ele>121</ele>
        <time>2017-07-23T08:00:52.145Z</time>
      </trkpt>
      <trkpt lat="47.76804" lon="2.34818">
        <ele>121</ele>
        <time>2017-07-23T08:00:53.132Z</time>
      </trkpt>
      <trkpt lat="47.7681" lon="2.34807">
        <ele>120</ele>
        <time>2017-07-23T08:00:54.122Z</time>
      </trkpt>
      <trkpt lat="47.7681" lon="2.34807">
        <ele>120</ele>
        <time>2017-07-23T08:00:55.118Z</time>
      </trkpt>
      <trkpt lat="47.76816" lon="2.34797">
        <ele>121</ele>
        <time>2017-07-23T08:00:56.124Z</time>
      </trkpt>
      <trkpt lat="47.76816" lon="2.34797">
        <ele>121</ele>
        <time>2017-07-23T08:00:57.117Z</time>
      </trkpt>
      <trkpt lat="47.76823" lon="2.34787">
        <ele>120</ele>
        <time>2017-07-23T08:00:58.123Z</time>
      </trkpt>
      <trkpt lat="47.76823" lon="2.34787">
        <ele>120</ele>
        <time>2017-07-23T08:00:59.113Z</time>
      </trkpt>
      <trkpt lat="47.76829" lon="2.34777">
        <ele>120</ele>
        <time>2017-07-23T08:01:00.142Z</time>
      </trkpt>
      <trkpt lat="47.76829" lon="2.34777">
        <ele>120</ele>
        <time>2017-07-23T08:01:01.132Z</time>
      </trkpt>
      <trkpt lat="47.76835" lon="2.34767">
        <ele>120</ele>
        <time>2017-07-23T08:01:02.123Z</time>
      </trkpt>
      <trkpt lat="47.76835" lon="2.34767">
        <ele>120</ele>
        <time>2017-07-23T08:01:03.119Z</time>
      </trkpt>
      <trkpt lat="47.76842" lon="2.34757">
        <ele>120</ele>
        <time>2017-07-23T08:01:04.116Z</time>
      </trkpt>
      <trkpt lat="47.76845" lon="2.34753">
        <ele>119</ele>
        <time>2017-07-23T08:01:05.122Z</time>
      </trkpt>
      <trkpt lat="47.76849" lon="2.34749">
        <ele>120</ele>
        <time>2017-07-23T08:01:06.119Z</time>
      </trkpt>
      <trkpt lat="47.76849" lon="2.34749">
        <ele>120</ele>
        <time>2017-07-23T08:01:07.119Z</time>
      </trkpt>
      <trkpt lat="47.76856" lon="2.34739">
        <ele>120</ele>
        <time>2017-07-23T08:01:08.124Z</time>
      </trkpt>
      <trkpt lat="47.76856" lon="2.34739">
        <ele>120</ele>
        <time>2017-07-23T08:01:09.115Z</time>
      </trkpt>
      <trkpt lat="47.76863" lon="2.3473">
        <ele>121</ele>
        <time>2017-07-23T08:01:10.123Z</time>
      </trkpt>
      <trkpt lat="47.76863" lon="2.3473">
        <ele>121</ele>
        <time>2017-07-23T08:01:11.119Z</time>
      </trkpt>
      <trkpt lat="47.76869" lon="2.34722">
        <ele>121</ele>
        <time>2017-07-23T08:01:12.122Z</time>
      </trkpt>
      <trkpt lat="47.76869" lon="2.34722">
        <ele>121</ele>
        <time>2017-07-23T08:01:13.119Z</time>
      </trkpt>
      <trkpt lat="47.76875" lon="2.34713">
        <ele>120</ele>
        <time>2017-07-23T08:01:14.116Z</time>
      </trkpt>
      <trkpt lat="47.76878" lon="2.34708">
        <ele>120</ele>
        <time>2017-07-23T08:01:15.122Z</time>
      </trkpt>
      <trkpt lat="47.76882" lon="2.34704">
        <ele>122</ele>
        <time>2017-07-23T08:01:16.123Z</time>
      </trkpt>
      <trkpt lat="47.76882" lon="2.34704">
        <ele>122</ele>
        <time>2017-07-23T08:01:17.119Z</time>
      </trkpt>
      <trkpt lat="47.76889" lon="2.34695">
        <ele>122</ele>
        <time>2017-07-23T08:01:18.119Z</time>
      </trkpt>
      <trkpt lat="47.76889" lon="2.34695">
        <ele>122</ele>
        <time>2017-07-23T08:01:19.114Z</time>
      </trkpt>
      <trkpt lat="47.76896" lon="2.34686">
        <ele>122</ele>
        <time>2017-07-23T08:01:20.124Z</time>
      </trkpt>
      <trkpt lat="47.76896" lon="2.34686">
        <ele>122</ele>
        <time>2017-07-23T08:01:21.119Z</time>
      </trkpt>
      <trkpt lat="47.76904" lon="2.34677">
        <ele>121</ele>
        <time>2017-07-23T08:01:22.123Z</time>
      </trkpt>
      <trkpt lat="47.76904" lon="2.34677">
        <ele>121</ele>
        <time>2017-07-23T08:01:23.119Z</time>
      </trkpt>
      <trkpt lat="47.76911" lon="2.34669">
        <ele>121</ele>
        <time>2017-07-23T08:01:24.145Z</time>
      </trkpt>
      <trkpt lat="47.76911" lon="2.34669">
        <ele>121</ele>
        <time>2017-07-23T08:01:25.119Z</time>
      </trkpt>
      <trkpt lat="47.76918" lon="2.34661">
        <ele>121</ele>
        <time>2017-07-23T08:01:26.123Z</time>
      </trkpt>
      <trkpt lat="47.76918" lon="2.34661">
        <ele>121</ele>
        <time>2017-07-23T08:01:27.119Z</time>
      </trkpt>
      <trkpt lat="47.76925" lon="2.34653">
        <ele>122</ele>
        <time>2017-07-23T08:01:28.123Z</time>
      </trkpt>
      <trkpt lat="47.76925" lon="2.34653">
        <ele>122</ele>
        <time>2017-07-23T08:01:29.114Z</time>
      </trkpt>
      <trkpt lat="47.76933" lon="2.34645">
        <ele>122</ele>
        <time>2017-07-23T08:01:30.121Z</time>
      </trkpt>
      <trkpt lat="47.76933" lon="2.34645">
        <ele>122</ele>
        <time>2017-07-23T08:01:31.119Z</time>
      </trkpt>
      <trkpt lat="47.76941" lon="2.34637">
        <ele>121</ele>
        <time>2017-07-23T08:01:32.124Z</time>
      </trkpt>
      <trkpt lat="47.76945" lon="2.34633">
        <ele>121</ele>
        <time>2017-07-23T08:01:33.123Z</time>
      </trkpt>
      <trkpt lat="47.76945" lon="2.34633">
        <ele>121</ele>
        <time>2017-07-23T08:01:34.117Z</time>
      </trkpt>
      <trkpt lat="47.76953" lon="2.34626">
        <ele>121</ele>
        <time>2017-07-23T08:01:35.121Z</time>
      </trkpt>
      <trkpt lat="47.76953" lon="2.34626">
        <ele>121</ele>
        <time>2017-07-23T08:01:36.118Z</time>
      </trkpt>
      <trkpt lat="47.7696" lon="2.34619">
        <ele>121</ele>
        <time>2017-07-23T08:01:37.122Z</time>
      </trkpt>
      <trkpt lat="47.76964" lon="2.34615">
        <ele>121</ele>
        <time>2017-07-23T08:01:38.135Z</time>
      </trkpt>
      <trkpt lat="47.76964" lon="2.34615">
        <ele>121</ele>
        <time>2017-07-23T08:01:39.113Z</time>
      </trkpt>
      <trkpt lat="47.76972" lon="2.34609">
        <ele>121</ele>
        <time>2017-07-23T08:01:40.123Z</time>
      </trkpt>
      <trkpt lat="47.76972" lon="2.34609">
        <ele>121</ele>
        <time>2017-07-23T08:01:41.117Z</time>
      </trkpt>
      <trkpt lat="47.76979" lon="2.34603">
        <ele>121</ele>
        <time>2017-07-23T08:01:42.119Z</time>
      </trkpt>
      <trkpt lat="47.76979" lon="2.34603">
        <ele>121</ele>
        <time>2017-07-23T08:01:43.120Z</time>
      </trkpt>
      <trkpt lat="47.76987" lon="2.34596">
        <ele>121</ele>
        <time>2017-07-23T08:01:44.124Z</time>
      </trkpt>
      <trkpt lat="47.76987" lon="2.34596">
        <ele>121</ele>
        <time>2017-07-23T08:01:45.115Z</time>
      </trkpt>
      <trkpt lat="47.76996" lon="2.34589">
        <ele>120</ele>
        <time>2017-07-23T08:01:46.123Z</time>
      </trkpt>
      <trkpt lat="47.76996" lon="2.34589">
        <ele>120</ele>
        <time>2017-07-23T08:01:47.119Z</time>
      </trkpt>
      <trkpt lat="47.77003" lon="2.34581">
        <ele>121</ele>
        <time>2017-07-23T08:01:48.122Z</time>
      </trkpt>
      <trkpt lat="47.77003" lon="2.34581">
        <ele>121</ele>
        <time>2017-07-23T08:01:49.112Z</time>
      </trkpt>
      <trkpt lat="47.77011" lon="2.34575">
        <ele>121</ele>
        <time>2017-07-23T08:01:50.140Z</time>
      </trkpt>
      <trkpt lat="47.77011" lon="2.34575">
        <ele>121</ele>
        <time>2017-07-23T08:01:51.141Z</time>
      </trkpt>
      <trkpt lat="47.77018" lon="2.34568">
        <ele>120</ele>
        <time>2017-07-23T08:01:52.129Z</time>
      </trkpt>
      <trkpt lat="47.77018" lon="2.34568">
        <ele>120</ele>
        <time>2017-07-23T08:01:53.120Z</time>
      </trkpt>
      <trkpt lat="47.77026" lon="2.34562">
        <ele>120</ele>
        <time>2017-07-23T08:01:54.119Z</time>
      </trkpt>
      <trkpt lat="47.77029" lon="2.34558">
        <ele>120</ele>
        <time>2017-07-23T08:01:55.123Z</time>
      </trkpt>
      <trkpt lat="47.77029" lon="2.34558">
        <ele>120</ele>
        <time>2017-07-23T08:01:56.118Z</time>
      </trkpt>
      <trkpt lat="47.77036" lon="2.3455">
        <ele>120</ele>
        <time>2017-07-23T08:01:57.122Z</time>
      </trkpt>
      <trkpt lat="47.77036" lon="2.3455">
        <ele>120</ele>
        <time>2017-07-23T08:01:58.131Z</time>
      </trkpt>
      <trkpt lat="47.7704" lon="2.34546">
        <ele>120</ele>
        <time>2017-07-23T08:01:59.113Z</time>
      </trkpt>
      <trkpt lat="47.77047" lon="2.34538">
        <ele>120</ele>
        <time>2017-07-23T08:02:00.139Z</time>
      </trkpt>
      <trkpt lat="47.77047" lon="2.34538">
        <ele>120</ele>
        <time>2017-07-23T08:02:01.130Z</time>
      </trkpt>
      <trkpt lat="47.77055" lon="2.3453">
        <ele>120</ele>
        <time>2017-07-23T08:02:02.125Z</time>
      </trkpt>
      <trkpt lat="47.77055" lon="2.3453">
        <ele>120</ele>
        <time>2017-07-23T08:02:03.118Z</time>
      </trkpt>
      <trkpt lat="47.77061" lon="2.34523">
        <ele>120</ele>
        <time>2017-07-23T08:02:04.124Z</time>
      </trkpt>
      <trkpt lat="47.77061" lon="2.34523">
        <ele>120</ele>
        <time>2017-07-23T08:02:05.119Z</time>
      </trkpt>
      <trkpt lat="47.77068" lon="2.34515">
        <ele>119</ele>
        <time>2017-07-23T08:02:06.122Z</time>
      </trkpt>
      <trkpt lat="47.77068" lon="2.34515">
        <ele>119</ele>
        <time>2017-07-23T08:02:07.119Z</time>
      </trkpt>
      <trkpt lat="47.77076" lon="2.34507">
        <ele>119</ele>
        <time>2017-07-23T08:02:08.124Z</time>
      </trkpt>
      <trkpt lat="47.77076" lon="2.34507">
        <ele>119</ele>
        <time>2017-07-23T08:02:09.114Z</time>
      </trkpt>
      <trkpt lat="47.77084" lon="2.34499">
        <ele>119</ele>
        <time>2017-07-23T08:02:10.143Z</time>
      </trkpt>
      <trkpt lat="47.77084" lon="2.34499">
        <ele>119</ele>
        <time>2017-07-23T08:02:11.134Z</time>
      </trkpt>
      <trkpt lat="47.77091" lon="2.34491">
        <ele>118</ele>
        <time>2017-07-23T08:02:12.141Z</time>
      </trkpt>
      <trkpt lat="47.77095" lon="2.34487">
        <ele>118</ele>
        <time>2017-07-23T08:02:13.122Z</time>
      </trkpt>
      <trkpt lat="47.77095" lon="2.34487">
        <ele>118</ele>
        <time>2017-07-23T08:02:14.119Z</time>
      </trkpt>
      <trkpt lat="47.77101" lon="2.34479">
        <ele>118</ele>
        <time>2017-07-23T08:02:15.121Z</time>
      </trkpt>
      <trkpt lat="47.77105" lon="2.34475">
        <ele>118</ele>
        <time>2017-07-23T08:02:16.123Z</time>
      </trkpt>
      <trkpt lat="47.77105" lon="2.34475">
        <ele>118</ele>
        <time>2017-07-23T08:02:17.119Z</time>
      </trkpt>
      <trkpt lat="47.77112" lon="2.34467">
        <ele>117</ele>
        <time>2017-07-23T08:02:18.122Z</time>
      </trkpt>
      <trkpt lat="47.77116" lon="2.34464">
        <ele>117</ele>
        <time>2017-07-23T08:02:19.115Z</time>
      </trkpt>
      <trkpt lat="47.77119" lon="2.3446">
        <ele>117</ele>
        <time>2017-07-23T08:02:20.125Z</time>
      </trkpt>
      <trkpt lat="47.77119" lon="2.3446">
        <ele>117</ele>
        <time>2017-07-23T08:02:21.120Z</time>
      </trkpt>
      <trkpt lat="47.77127" lon="2.34452">
        <ele>117</ele>
        <time>2017-07-23T08:02:22.123Z</time>
      </trkpt>
      <trkpt lat="47.77127" lon="2.34452">
        <ele>117</ele>
        <time>2017-07-23T08:02:23.117Z</time>
      </trkpt>
      <trkpt lat="47.77134" lon="2.34444">
        <ele>116</ele>
        <time>2017-07-23T08:02:24.123Z</time>
      </trkpt>
      <trkpt lat="47.77134" lon="2.34444">
        <ele>116</ele>
        <time>2017-07-23T08:02:25.119Z</time>
      </trkpt>
      <trkpt lat="47.77141" lon="2.34436">
        <ele>116</ele>
        <time>2017-07-23T08:02:26.124Z</time>
      </trkpt>
      <trkpt lat="47.77141" lon="2.34436">
        <ele>116</ele>
        <time>2017-07-23T08:02:27.119Z</time>
      </trkpt>
      <trkpt lat="47.77147" lon="2.34429">
        <ele>115</ele>
        <time>2017-07-23T08:02:28.124Z</time>
      </trkpt>
      <trkpt lat="47.77147" lon="2.34429">
        <ele>115</ele>
        <time>2017-07-23T08:02:29.114Z</time>
      </trkpt>
      <trkpt lat="47.77154" lon="2.34421">
        <ele>115</ele>
        <time>2017-07-23T08:02:30.122Z</time>
      </trkpt>
      <trkpt lat="47.77154" lon="2.34421">
        <ele>115</ele>
        <time>2017-07-23T08:02:31.117Z</time>
      </trkpt>
      <trkpt lat="47.77161" lon="2.34414">
        <ele>115</ele>
        <time>2017-07-23T08:02:32.121Z</time>
      </trkpt>
      <trkpt lat="47.77161" lon="2.34414">
        <ele>115</ele>
        <time>2017-07-23T08:02:33.120Z</time>
      </trkpt>
      <trkpt lat="47.77167" lon="2.34406">
        <ele>115</ele>
        <time>2017-07-23T08:02:34.125Z</time>
      </trkpt>
      <trkpt lat="47.77167" lon="2.34406">
        <ele>115</ele>
        <time>2017-07-23T08:02:35.120Z</time>
      </trkpt>
      <trkpt lat="47.77174" lon="2.34399">
        <ele>116</ele>
        <time>2017-07-23T08:02:36.123Z</time>
      </trkpt>
      <trkpt lat="47.77174" lon="2.34399">
        <ele>116</ele>
        <time>2017-07-23T08:02:37.120Z</time>
      </trkpt>
      <trkpt lat="47.77181" lon="2.34391">
        <ele>116</ele>
        <time>2017-07-23T08:02:38.118Z</time>
      </trkpt>
      <trkpt lat="47.77181" lon="2.34391">
        <ele>116</ele>
        <time>2017-07-23T08:02:39.125Z</time>
      </trkpt>
      <trkpt lat="47.77188" lon="2.34384">
        <ele>116</ele>
        <time>2017-07-23T08:02:40.132Z</time>
      </trkpt>
      <trkpt lat="47.77191" lon="2.3438">
        <ele>116</ele>
        <time>2017-07-23T08:02:41.122Z</time>
      </trkpt>
      <trkpt lat="47.77191" lon="2.3438">
        <ele>116</ele>
        <time>2017-07-23T08:02:42.120Z</time>
      </trkpt>
      <trkpt lat="47.77198" lon="2.34372">
        <ele>116</ele>
        <time>2017-07-23T08:02:43.123Z</time>
      </trkpt>
      <trkpt lat="47.77202" lon="2.34368">
        <ele>116</ele>
        <time>2017-07-23T08:02:44.124Z</time>
      </trkpt>
      <trkpt lat="47.77202" lon="2.34368">
        <ele>116</ele>
        <time>2017-07-23T08:02:45.129Z</time>
      </trkpt>
      <trkpt lat="47.7721" lon="2.34359">
        <ele>116</ele>
        <time>2017-07-23T08:02:46.121Z</time>
      </trkpt>
      <trkpt lat="47.7721" lon="2.34359">
        <ele>116</ele>
        <time>2017-07-23T08:02:47.119Z</time>
      </trkpt>
      <trkpt lat="47.77218" lon="2.3435">
        <ele>116</ele>
        <time>2017-07-23T08:02:48.122Z</time>
      </trkpt>
      <trkpt lat="47.77218" lon="2.3435">
        <ele>116</ele>
        <time>2017-07-23T08:02:49.113Z</time>
      </trkpt>
      <trkpt lat="47.77226" lon="2.34341">
        <ele>116</ele>
        <time>2017-07-23T08:02:50.140Z</time>
      </trkpt>
      <trkpt lat="47.77226" lon="2.34341">
        <ele>116</ele>
        <time>2017-07-23T08:02:51.141Z</time>
      </trkpt>
      <trkpt lat="47.77234" lon="2.34333">
        <ele>116</ele>
        <time>2017-07-23T08:02:52.129Z</time>
      </trkpt>
      <trkpt lat="47.77234" lon="2.34333">
        <ele>116</ele>
        <time>2017-07-23T08:02:53.119Z</time>
      </trkpt>
      <trkpt lat="47.77242" lon="2.34325">
        <ele>117</ele>
        <time>2017-07-23T08:02:54.123Z</time>
      </trkpt>
      <trkpt lat="47.77242" lon="2.34325">
        <ele>117</ele>
        <time>2017-07-23T08:02:55.119Z</time>
      </trkpt>
      <trkpt lat="47.77251" lon="2.34317">
        <ele>117</ele>
        <time>2017-07-23T08:02:56.121Z</time>
      </trkpt>
      <trkpt lat="47.77251" lon="2.34317">
        <ele>117</ele>
        <time>2017-07-23T08:02:57.119Z</time>
      </trkpt>
      <trkpt lat="47.7726" lon="2.34308">
        <ele>117</ele>
        <time>2017-07-23T08:02:58.123Z</time>
      </trkpt>
      <trkpt lat="47.7726" lon="2.34308">
        <ele>117</ele>
        <time>2017-07-23T08:02:59.119Z</time>
      </trkpt>
      <trkpt lat="47.77268" lon="2.34299">
        <ele>117</ele>
        <time>2017-07-23T08:03:00.122Z</time>
      </trkpt>
      <trkpt lat="47.77272" lon="2.34294">
        <ele>116</ele>
        <time>2017-07-23T08:03:01.123Z</time>
      </trkpt>
      <trkpt lat="47.77276" lon="2.3429">
        <ele>117</ele>
        <time>2017-07-23T08:03:02.126Z</time>
      </trkpt>
      <trkpt lat="47.77276" lon="2.3429">
        <ele>117</ele>
        <time>2017-07-23T08:03:03.125Z</time>
      </trkpt>
      <trkpt lat="47.77281" lon="2.34285">
        <ele>117</ele>
        <time>2017-07-23T08:03:04.118Z</time>
      </trkpt>
      <trkpt lat="47.77289" lon="2.34277">
        <ele>117</ele>
        <time>2017-07-23T08:03:05.115Z</time>
      </trkpt>
      <trkpt lat="47.77293" lon="2.34273">
        <ele>117</ele>
        <time>2017-07-23T08:03:06.122Z</time>
      </trkpt>
      <trkpt lat="47.77296" lon="2.34268">
        <ele>117</ele>
        <time>2017-07-23T08:03:07.122Z</time>
      </trkpt>
      <trkpt lat="47.773" lon="2.34264">
        <ele>117</ele>
        <time>2017-07-23T08:03:08.121Z</time>
      </trkpt>
      <trkpt lat="47.773" lon="2.34264">
        <ele>117</ele>
        <time>2017-07-23T08:03:09.120Z</time>
      </trkpt>
      <trkpt lat="47.77308" lon="2.34256">
        <ele>117</ele>
        <time>2017-07-23T08:03:10.122Z</time>
      </trkpt>
      <trkpt lat="47.77308" lon="2.34256">
        <ele>117</ele>
        <time>2017-07-23T08:03:11.117Z</time>
      </trkpt>
      <trkpt lat="47.77315" lon="2.34248">
        <ele>117</ele>
        <time>2017-07-23T08:03:12.122Z</time>
      </trkpt>
      <trkpt lat="47.77315" lon="2.34248">
        <ele>117</ele>
        <time>2017-07-23T08:03:13.120Z</time>
      </trkpt>
      <trkpt lat="47.77324" lon="2.34239">
        <ele>118</ele>
        <time>2017-07-23T08:03:14.124Z</time>
      </trkpt>
      <trkpt lat="47.77324" lon="2.34239">
        <ele>118</ele>
        <time>2017-07-23T08:03:15.117Z</time>
      </trkpt>
      <trkpt lat="47.77331" lon="2.34231">
        <ele>118</ele>
        <time>2017-07-23T08:03:16.132Z</time>
      </trkpt>
      <trkpt lat="47.77331" lon="2.34231">
        <ele>118</ele>
        <time>2017-07-23T08:03:17.123Z</time>
      </trkpt>
      <trkpt lat="47.77339" lon="2.34224">
        <ele>118</ele>
        <time>2017-07-23T08:03:18.122Z</time>
      </trkpt>
      <trkpt lat="47.77339" lon="2.34224">
        <ele>118</ele>
        <time>2017-07-23T08:03:19.111Z</time>
      </trkpt>
      <trkpt lat="47.77347" lon="2.34216">
        <ele>119</ele>
        <time>2017-07-23T08:03:20.123Z</time>
      </trkpt>
      <trkpt lat="47.77347" lon="2.34216">
        <ele>119</ele>
        <time>2017-07-23T08:03:21.117Z</time>
      </trkpt>
      <trkpt lat="47.77356" lon="2.34208">
        <ele>118</ele>
        <time>2017-07-23T08:03:22.124Z</time>
      </trkpt>
      <trkpt lat="47.77356" lon="2.34208">
        <ele>118</ele>
        <time>2017-07-23T08:03:23.118Z</time>
      </trkpt>
      <trkpt lat="47.77365" lon="2.34201">
        <ele>118</ele>
        <time>2017-07-23T08:03:24.123Z</time>
      </trkpt>
      <trkpt lat="47.77365" lon="2.34201">
        <ele>118</ele>
        <time>2017-07-23T08:03:25.117Z</time>
      </trkpt>
      <trkpt lat="47.77374" lon="2.34192">
        <ele>118</ele>
        <time>2017-07-23T08:03:26.122Z</time>
      </trkpt>
      <trkpt lat="47.77374" lon="2.34192">
        <ele>118</ele>
        <time>2017-07-23T08:03:27.120Z</time>
      </trkpt>
      <trkpt lat="47.77383" lon="2.34184">
        <ele>118</ele>
        <time>2017-07-23T08:03:28.124Z</time>
      </trkpt>
      <trkpt lat="47.77383" lon="2.34184">
        <ele>118</ele>
        <time>2017-07-23T08:03:29.119Z</time>
      </trkpt>
      <trkpt lat="47.77391" lon="2.34177">
        <ele>118</ele>
        <time>2017-07-23T08:03:30.122Z</time>
      </trkpt>
      <trkpt lat="47.77396" lon="2.34173">
        <ele>118</ele>
        <time>2017-07-23T08:03:31.122Z</time>
      </trkpt>
      <trkpt lat="47.774" lon="2.3417">
        <ele>118</ele>
        <time>2017-07-23T08:03:32.124Z</time>
      </trkpt>
      <trkpt lat="47.774" lon="2.3417">
        <ele>118</ele>
        <time>2017-07-23T08:03:33.120Z</time>
      </trkpt>
      <trkpt lat="47.7741" lon="2.34164">
        <ele>118</ele>
        <time>2017-07-23T08:03:34.123Z</time>
      </trkpt>
      <trkpt lat="47.7741" lon="2.34164">
        <ele>118</ele>
        <time>2017-07-23T08:03:35.118Z</time>
      </trkpt>
      <trkpt lat="47.7742" lon="2.34159">
        <ele>118</ele>
        <time>2017-07-23T08:03:36.123Z</time>
      </trkpt>
      <trkpt lat="47.7742" lon="2.34159">
        <ele>118</ele>
        <time>2017-07-23T08:03:37.119Z</time>
      </trkpt>
      <trkpt lat="47.77432" lon="2.34154">
        <ele>117</ele>
        <time>2017-07-23T08:03:38.121Z</time>
      </trkpt>
      <trkpt lat="47.77432" lon="2.34154">
        <ele>117</ele>
        <time>2017-07-23T08:03:39.130Z</time>
      </trkpt>
      <trkpt lat="47.77443" lon="2.34149">
        <ele>117</ele>
        <time>2017-07-23T08:03:40.136Z</time>
      </trkpt>
      <trkpt lat="47.77443" lon="2.34149">
        <ele>117</ele>
        <time>2017-07-23T08:03:41.120Z</time>
      </trkpt>
      <trkpt lat="47.77454" lon="2.34143">
        <ele>117</ele>
        <time>2017-07-23T08:03:42.122Z</time>
      </trkpt>
      <trkpt lat="47.7746" lon="2.3414">
        <ele>116</ele>
        <time>2017-07-23T08:03:43.122Z</time>
      </trkpt>
      <trkpt lat="47.77466" lon="2.34137">
        <ele>116</ele>
        <time>2017-07-23T08:03:44.123Z</time>
      </trkpt>
      <trkpt lat="47.77466" lon="2.34137">
        <ele>116</ele>
        <time>2017-07-23T08:03:45.134Z</time>
      </trkpt>
      <trkpt lat="47.77478" lon="2.3413">
        <ele>116</ele>
        <time>2017-07-23T08:03:46.123Z</time>
      </trkpt>
      <trkpt lat="47.77478" lon="2.3413">
        <ele>116</ele>
        <time>2017-07-23T08:03:47.117Z</time>
      </trkpt>
      <trkpt lat="47.7749" lon="2.34123">
        <ele>116</ele>
        <time>2017-07-23T08:03:48.122Z</time>
      </trkpt>
      <trkpt lat="47.7749" lon="2.34123">
        <ele>116</ele>
        <time>2017-07-23T08:03:49.114Z</time>
      </trkpt>
      <trkpt lat="47.77502" lon="2.34116">
        <ele>116</ele>
        <time>2017-07-23T08:03:50.141Z</time>
      </trkpt>
      <trkpt lat="47.77502" lon="2.34116">
        <ele>116</ele>
        <time>2017-07-23T08:03:51.141Z</time>
      </trkpt>
      <trkpt lat="47.77514" lon="2.34108">
        <ele>116</ele>
        <time>2017-07-23T08:03:52.132Z</time>
      </trkpt>
      <trkpt lat="47.77514" lon="2.34108">
        <ele>116</ele>
        <time>2017-07-23T08:03:53.125Z</time>
      </trkpt>
      <trkpt lat="47.77526" lon="2.341">
        <ele>115</ele>
        <time>2017-07-23T08:03:54.123Z</time>
      </trkpt>
      <trkpt lat="47.77526" lon="2.341">
        <ele>115</ele>
        <time>2017-07-23T08:03:55.120Z</time>
      </trkpt>
      <trkpt lat="47.77538" lon="2.34093">
        <ele>115</ele>
        <time>2017-07-23T08:03:56.124Z</time>
      </trkpt>
      <trkpt lat="47.77538" lon="2.34093">
        <ele>115</ele>
        <time>2017-07-23T08:03:57.117Z</time>
      </trkpt>
      <trkpt lat="47.7755" lon="2.34084">
        <ele>115</ele>
        <time>2017-07-23T08:03:58.121Z</time>
      </trkpt>
      <trkpt lat="47.7755" lon="2.34084">
        <ele>115</ele>
        <time>2017-07-23T08:03:59.120Z</time>
      </trkpt>
      <trkpt lat="47.77561" lon="2.34076">
        <ele>114</ele>
        <time>2017-07-23T08:04:00.124Z</time>
      </trkpt>
      <trkpt lat="47.77561" lon="2.34076">
        <ele>114</ele>
        <time>2017-07-23T08:04:01.117Z</time>
      </trkpt>
      <trkpt lat="47.77572" lon="2.3407">
        <ele>115</ele>
        <time>2017-07-23T08:04:02.125Z</time>
      </trkpt>
      <trkpt lat="47.77572" lon="2.3407">
        <ele>115</ele>
        <time>2017-07-23T08:04:03.120Z</time>
      </trkpt>
      <trkpt lat="47.77582" lon="2.34063">
        <ele>114</ele>
        <time>2017-07-23T08:04:04.124Z</time>
      </trkpt>
      <trkpt lat="47.77582" lon="2.34063">
        <ele>114</ele>
        <time>2017-07-23T08:04:05.120Z</time>
      </trkpt>
      <trkpt lat="47.77593" lon="2.34056">
        <ele>115</ele>
        <time>2017-07-23T08:04:06.123Z</time>
      </trkpt>
      <trkpt lat="47.77593" lon="2.34056">
        <ele>115</ele>
        <time>2017-07-23T08:04:07.120Z</time>
      </trkpt>
      <trkpt lat="47.77603" lon="2.34049">
        <ele>115</ele>
        <time>2017-07-23T08:04:08.124Z</time>
      </trkpt>
      <trkpt lat="47.77603" lon="2.34049">
        <ele>115</ele>
        <time>2017-07-23T08:04:09.119Z</time>
      </trkpt>
      <trkpt lat="47.77614" lon="2.34042">
        <ele>114</ele>
        <time>2017-07-23T08:04:10.144Z</time>
      </trkpt>
      <trkpt lat="47.77614" lon="2.34042">
        <ele>114</ele>
        <time>2017-07-23T08:04:11.132Z</time>
      </trkpt>
      <trkpt lat="47.77614" lon="2.34042">
        <ele>114</ele>
        <time>2017-07-23T08:04:12.110Z</time>
      </trkpt>
      <trkpt lat="47.77625" lon="2.34034">
        <ele>115</ele>
        <time>2017-07-23T08:04:13.123Z</time>
      </trkpt>
      <trkpt lat="47.77634" lon="2.34026">
        <ele>115</ele>
        <time>2017-07-23T08:04:14.123Z</time>
      </trkpt>
      <trkpt lat="47.77634" lon="2.34026">
        <ele>115</ele>
        <time>2017-07-23T08:04:15.117Z</time>
      </trkpt>
      <trkpt lat="47.77644" lon="2.34017">
        <ele>115</ele>
        <time>2017-07-23T08:04:16.124Z</time>
      </trkpt>
      <trkpt lat="47.77644" lon="2.34017">
        <ele>115</ele>
        <time>2017-07-23T08:04:17.120Z</time>
      </trkpt>
      <trkpt lat="47.77653" lon="2.34008">
        <ele>115</ele>
        <time>2017-07-23T08:04:18.123Z</time>
      </trkpt>
      <trkpt lat="47.77653" lon="2.34008">
        <ele>115</ele>
        <time>2017-07-23T08:04:19.117Z</time>
      </trkpt>
      <trkpt lat="47.77662" lon="2.33999">
        <ele>116</ele>
        <time>2017-07-23T08:04:20.125Z</time>
      </trkpt>
      <trkpt lat="47.77662" lon="2.33999">
        <ele>116</ele>
        <time>2017-07-23T08:04:21.117Z</time>
      </trkpt>
      <trkpt lat="47.77672" lon="2.33991">
        <ele>116</ele>
        <time>2017-07-23T08:04:22.123Z</time>
      </trkpt>
      <trkpt lat="47.77672" lon="2.33991">
        <ele>116</ele>
        <time>2017-07-23T08:04:23.120Z</time>
      </trkpt>
      <trkpt lat="47.77683" lon="2.33984">
        <ele>116</ele>
        <time>2017-07-23T08:04:24.123Z</time>
      </trkpt>
      <trkpt lat="47.77683" lon="2.33984">
        <ele>116</ele>
        <time>2017-07-23T08:04:25.119Z</time>
      </trkpt>
      <trkpt lat="47.77694" lon="2.33978">
        <ele>115</ele>
        <time>2017-07-23T08:04:26.124Z</time>
      </trkpt>
      <trkpt lat="47.77694" lon="2.33978">
        <ele>115</ele>
        <time>2017-07-23T08:04:27.120Z</time>
      </trkpt>
      <trkpt lat="47.77706" lon="2.3397">
        <ele>115</ele>
        <time>2017-07-23T08:04:28.123Z</time>
      </trkpt>
      <trkpt lat="47.77706" lon="2.3397">
        <ele>115</ele>
        <time>2017-07-23T08:04:29.120Z</time>
      </trkpt>
      <trkpt lat="47.77718" lon="2.33962">
        <ele>115</ele>
        <time>2017-07-23T08:04:30.129Z</time>
      </trkpt>
      <trkpt lat="47.77724" lon="2.33958">
        <ele>115</ele>
        <time>2017-07-23T08:04:31.121Z</time>
      </trkpt>
      <trkpt lat="47.77729" lon="2.33954">
        <ele>114</ele>
        <time>2017-07-23T08:04:32.124Z</time>
      </trkpt>
      <trkpt lat="47.77729" lon="2.33954">
        <ele>114</ele>
        <time>2017-07-23T08:04:33.120Z</time>
      </trkpt>
      <trkpt lat="47.7774" lon="2.33947">
        <ele>115</ele>
        <time>2017-07-23T08:04:34.124Z</time>
      </trkpt>
      <trkpt lat="47.7774" lon="2.33947">
        <ele>115</ele>
        <time>2017-07-23T08:04:35.120Z</time>
      </trkpt>
      <trkpt lat="47.77751" lon="2.33942">
        <ele>115</ele>
        <time>2017-07-23T08:04:36.122Z</time>
      </trkpt>
      <trkpt lat="47.77756" lon="2.33939">
        <ele>115</ele>
        <time>2017-07-23T08:04:37.121Z</time>
      </trkpt>
      <trkpt lat="47.77761" lon="2.33937">
        <ele>115</ele>
        <time>2017-07-23T08:04:38.114Z</time>
      </trkpt>
      <trkpt lat="47.77761" lon="2.33937">
        <ele>115</ele>
        <time>2017-07-23T08:04:39.120Z</time>
      </trkpt>
      <trkpt lat="47.77772" lon="2.33931">
        <ele>115</ele>
        <time>2017-07-23T08:04:40.126Z</time>
      </trkpt>
      <trkpt lat="47.77778" lon="2.33929">
        <ele>115</ele>
        <time>2017-07-23T08:04:41.132Z</time>
      </trkpt>
      <trkpt lat="47.77778" lon="2.33929">
        <ele>115</ele>
        <time>2017-07-23T08:04:42.123Z</time>
      </trkpt>
      <trkpt lat="47.77789" lon="2.33925">
        <ele>115</ele>
        <time>2017-07-23T08:04:43.123Z</time>
      </trkpt>
      <trkpt lat="47.77795" lon="2.33925">
        <ele>114</ele>
        <time>2017-07-23T08:04:44.125Z</time>
      </trkpt>
      <trkpt lat="47.77795" lon="2.33925">
        <ele>114</ele>
        <time>2017-07-23T08:04:45.129Z</time>
      </trkpt>
      <trkpt lat="47.77808" lon="2.33924">
        <ele>114</ele>
        <time>2017-07-23T08:04:46.118Z</time>
      </trkpt>
      <trkpt lat="47.77814" lon="2.33921">
        <ele>115</ele>
        <time>2017-07-23T08:04:47.122Z</time>
      </trkpt>
      <trkpt lat="47.77814" lon="2.33921">
        <ele>115</ele>
        <time>2017-07-23T08:04:48.120Z</time>
      </trkpt>
      <trkpt lat="47.77826" lon="2.33915">
        <ele>114</ele>
        <time>2017-07-23T08:04:49.122Z</time>
      </trkpt>
      <trkpt lat="47.77831" lon="2.33912">
        <ele>114</ele>
        <time>2017-07-23T08:04:50.121Z</time>
      </trkpt>
      <trkpt lat="47.77831" lon="2.33912">
        <ele>114</ele>
        <time>2017-07-23T08:04:51.117Z</time>
      </trkpt>
      <trkpt lat="47.77841" lon="2.33905">
        <ele>115</ele>
        <time>2017-07-23T08:04:52.138Z</time>
      </trkpt>
      <trkpt lat="47.77841" lon="2.33905">
        <ele>115</ele>
        <time>2017-07-23T08:04:53.127Z</time>
      </trkpt>
      <trkpt lat="47.7785" lon="2.33897">
        <ele>115</ele>
        <time>2017-07-23T08:04:54.122Z</time>
      </trkpt>
      <trkpt lat="47.7785" lon="2.33897">
        <ele>115</ele>
        <time>2017-07-23T08:04:55.117Z</time>
      </trkpt>
      <trkpt lat="47.7786" lon="2.33889">
        <ele>114</ele>
        <time>2017-07-23T08:04:56.118Z</time>
      </trkpt>
      <trkpt lat="47.77865" lon="2.33885">
        <ele>114</ele>
        <time>2017-07-23T08:04:57.122Z</time>
      </trkpt>
      <trkpt lat="47.7787" lon="2.33881">
        <ele>115</ele>
        <time>2017-07-23T08:04:58.124Z</time>
      </trkpt>
      <trkpt lat="47.7787" lon="2.33881">
        <ele>115</ele>
        <time>2017-07-23T08:04:59.120Z</time>
      </trkpt>
      <trkpt lat="47.77879" lon="2.33874">
        <ele>115</ele>
        <time>2017-07-23T08:05:00.122Z</time>
      </trkpt>
      <trkpt lat="47.77884" lon="2.3387">
        <ele>115</ele>
        <time>2017-07-23T08:05:01.123Z</time>
      </trkpt>
      <trkpt lat="47.77888" lon="2.33867">
        <ele>115</ele>
        <time>2017-07-23T08:05:02.126Z</time>
      </trkpt>
      <trkpt lat="47.77888" lon="2.33867">
        <ele>115</ele>
        <time>2017-07-23T08:05:03.120Z</time>
      </trkpt>
      <trkpt lat="47.77896" lon="2.33861">
        <ele>115</ele>
        <time>2017-07-23T08:05:04.124Z</time>
      </trkpt>
      <trkpt lat="47.77896" lon="2.33861">
        <ele>115</ele>
        <time>2017-07-23T08:05:05.117Z</time>
      </trkpt>
      <trkpt lat="47.77903" lon="2.33855">
        <ele>114</ele>
        <time>2017-07-23T08:05:06.139Z</time>
      </trkpt>
      <trkpt lat="47.77907" lon="2.33853">
        <ele>114</ele>
        <time>2017-07-23T08:05:07.121Z</time>
      </trkpt>
      <trkpt lat="47.7791" lon="2.3385">
        <ele>114</ele>
        <time>2017-07-23T08:05:08.124Z</time>
      </trkpt>
      <trkpt lat="47.7791" lon="2.3385">
        <ele>114</ele>
        <time>2017-07-23T08:05:09.118Z</time>
      </trkpt>
      <trkpt lat="47.7791" lon="2.3385">
        <ele>114</ele>
        <time>2017-07-23T08:05:10.185Z</time>
      </trkpt>
      <trkpt lat="47.77915" lon="2.33845">
        <ele>114</ele>
        <time>2017-07-23T08:05:11.125Z</time>
      </trkpt>
      <trkpt lat="47.77921" lon="2.3384">
        <ele>114</ele>
        <time>2017-07-23T08:05:12.121Z</time>
      </trkpt>
      <trkpt lat="47.77921" lon="2.3384">
        <ele>114</ele>
        <time>2017-07-23T08:05:13.119Z</time>
      </trkpt>
      <trkpt lat="47.77921" lon="2.3384">
        <ele>114</ele>
        <time>2017-07-23T08:05:14.127Z</time>
      </trkpt>
      <trkpt lat="47.77927" lon="2.33835">
        <ele>114</ele>
        <time>2017-07-23T08:05:15.141Z</time>
      </trkpt>
      <trkpt lat="47.77932" lon="2.33832">
        <ele>114</ele>
        <time>2017-07-23T08:05:16.130Z</time>
      </trkpt>
      <trkpt lat="47.77932" lon="2.33832">
        <ele>114</ele>
        <time>2017-07-23T08:05:17.122Z</time>
      </trkpt>
      <trkpt lat="47.77937" lon="2.33827">
        <ele>113</ele>
        <time>2017-07-23T08:05:18.123Z</time>
      </trkpt>
      <trkpt lat="47.7794" lon="2.33825">
        <ele>113</ele>
        <time>2017-07-23T08:05:19.124Z</time>
      </trkpt>
      <trkpt lat="47.7794" lon="2.33825">
        <ele>113</ele>
        <time>2017-07-23T08:05:20.136Z</time>
      </trkpt>
      <trkpt lat="47.77947" lon="2.3382">
        <ele>112</ele>
        <time>2017-07-23T08:05:21.124Z</time>
      </trkpt>
      <trkpt lat="47.7795" lon="2.33817">
        <ele>112</ele>
        <time>2017-07-23T08:05:22.124Z</time>
      </trkpt>
      <trkpt lat="47.7795" lon="2.33817">
        <ele>112</ele>
        <time>2017-07-23T08:05:23.120Z</time>
      </trkpt>
      <trkpt lat="47.77956" lon="2.33811">
        <ele>112</ele>
        <time>2017-07-23T08:05:24.138Z</time>
      </trkpt>
      <trkpt lat="47.7796" lon="2.33809">
        <ele>112</ele>
        <time>2017-07-23T08:05:25.131Z</time>
      </trkpt>
      <trkpt lat="47.7796" lon="2.33809">
        <ele>112</ele>
        <time>2017-07-23T08:05:26.123Z</time>
      </trkpt>
      <trkpt lat="47.77967" lon="2.33803">
        <ele>112</ele>
        <time>2017-07-23T08:05:27.122Z</time>
      </trkpt>
      <trkpt lat="47.7797" lon="2.338">
        <ele>112</ele>
        <time>2017-07-23T08:05:28.109Z</time>
      </trkpt>
      <trkpt lat="47.7797" lon="2.338">
        <ele>112</ele>
        <time>2017-07-23T08:05:29.116Z</time>
      </trkpt>
      <trkpt lat="47.77977" lon="2.33795">
        <ele>112</ele>
        <time>2017-07-23T08:05:30.121Z</time>
      </trkpt>
      <trkpt lat="47.7798" lon="2.33792">
        <ele>112</ele>
        <time>2017-07-23T08:05:31.129Z</time>
      </trkpt>
      <trkpt lat="47.77984" lon="2.3379">
        <ele>112</ele>
        <time>2017-07-23T08:05:32.133Z</time>
      </trkpt>
      <trkpt lat="47.77984" lon="2.3379">
        <ele>112</ele>
        <time>2017-07-23T08:05:33.120Z</time>
      </trkpt>
      <trkpt lat="47.7799" lon="2.33784">
        <ele>113</ele>
        <time>2017-07-23T08:05:34.124Z</time>
      </trkpt>
      <trkpt lat="47.7799" lon="2.33784">
        <ele>113</ele>
        <time>2017-07-23T08:05:35.120Z</time>
      </trkpt>
      <trkpt lat="47.77996" lon="2.33778">
        <ele>113</ele>
        <time>2017-07-23T08:05:36.122Z</time>
      </trkpt>
      <trkpt lat="47.77999" lon="2.33775">
        <ele>113</ele>
        <time>2017-07-23T08:05:37.124Z</time>
      </trkpt>
      <trkpt lat="47.77999" lon="2.33775">
        <ele>113</ele>
        <time>2017-07-23T08:05:38.122Z</time>
      </trkpt>
      <trkpt lat="47.78006" lon="2.33769">
        <ele>113</ele>
        <time>2017-07-23T08:05:39.132Z</time>
      </trkpt>
      <trkpt lat="47.78006" lon="2.33769">
        <ele>113</ele>
        <time>2017-07-23T08:05:40.138Z</time>
      </trkpt>
      <trkpt lat="47.78013" lon="2.33762">
        <ele>114</ele>
        <time>2017-07-23T08:05:41.144Z</time>
      </trkpt>
      <trkpt lat="47.78016" lon="2.33758">
        <ele>114</ele>
        <time>2017-07-23T08:05:42.134Z</time>
      </trkpt>
      <trkpt lat="47.78016" lon="2.33758">
        <ele>114</ele>
        <time>2017-07-23T08:05:43.124Z</time>
      </trkpt>
      <trkpt lat="47.78022" lon="2.33753">
        <ele>114</ele>
        <time>2017-07-23T08:05:44.141Z</time>
      </trkpt>
      <trkpt lat="47.78022" lon="2.33753">
        <ele>114</ele>
        <time>2017-07-23T08:05:45.123Z</time>
      </trkpt>
      <trkpt lat="47.78028" lon="2.33748">
        <ele>113</ele>
        <time>2017-07-23T08:05:46.124Z</time>
      </trkpt>
      <trkpt lat="47.78028" lon="2.33748">
        <ele>113</ele>
        <time>2017-07-23T08:05:47.120Z</time>
      </trkpt>
      <trkpt lat="47.78035" lon="2.33743">
        <ele>113</ele>
        <time>2017-07-23T08:05:48.123Z</time>
      </trkpt>
      <trkpt lat="47.78038" lon="2.3374">
        <ele>113</ele>
        <time>2017-07-23T08:05:49.120Z</time>
      </trkpt>
      <trkpt lat="47.78038" lon="2.3374">
        <ele>113</ele>
        <time>2017-07-23T08:05:50.119Z</time>
      </trkpt>
      <trkpt lat="47.78046" lon="2.33734">
        <ele>114</ele>
        <time>2017-07-23T08:05:51.121Z</time>
      </trkpt>
      <trkpt lat="47.7805" lon="2.33731">
        <ele>114</ele>
        <time>2017-07-23T08:05:52.124Z</time>
      </trkpt>
      <trkpt lat="47.7805" lon="2.33731">
        <ele>114</ele>
        <time>2017-07-23T08:05:53.117Z</time>
      </trkpt>
      <trkpt lat="47.78057" lon="2.33726">
        <ele>114</ele>
        <time>2017-07-23T08:05:54.122Z</time>
      </trkpt>
      <trkpt lat="47.78057" lon="2.33726">
        <ele>114</ele>
        <time>2017-07-23T08:05:55.119Z</time>
      </trkpt>
      <trkpt lat="47.78065" lon="2.3372">
        <ele>114</ele>
        <time>2017-07-23T08:05:56.124Z</time>
      </trkpt>
      <trkpt lat="47.78065" lon="2.3372">
        <ele>114</ele>
        <time>2017-07-23T08:05:57.117Z</time>
      </trkpt>
      <trkpt lat="47.78072" lon="2.33716">
        <ele>114</ele>
        <time>2017-07-23T08:05:58.123Z</time>
      </trkpt>
      <trkpt lat="47.78072" lon="2.33716">
        <ele>114</ele>
        <time>2017-07-23T08:05:59.119Z</time>
      </trkpt>
      <trkpt lat="47.78079" lon="2.3371">
        <ele>114</ele>
        <time>2017-07-23T08:06:00.121Z</time>
      </trkpt>
      <trkpt lat="47.78082" lon="2.33707">
        <ele>114</ele>
        <time>2017-07-23T08:06:01.123Z</time>
      </trkpt>
      <trkpt lat="47.78086" lon="2.33704">
        <ele>114</ele>
        <time>2017-07-23T08:06:02.125Z</time>
      </trkpt>
      <trkpt lat="47.78086" lon="2.33704">
        <ele>114</ele>
        <time>2017-07-23T08:06:03.117Z</time>
      </trkpt>
      <trkpt lat="47.78093" lon="2.33697">
        <ele>113</ele>
        <time>2017-07-23T08:06:04.124Z</time>
      </trkpt>
      <trkpt lat="47.78093" lon="2.33697">
        <ele>113</ele>
        <time>2017-07-23T08:06:05.120Z</time>
      </trkpt>
      <trkpt lat="47.78099" lon="2.33689">
        <ele>113</ele>
        <time>2017-07-23T08:06:06.123Z</time>
      </trkpt>
      <trkpt lat="47.78103" lon="2.33686">
        <ele>113</ele>
        <time>2017-07-23T08:06:07.123Z</time>
      </trkpt>
      <trkpt lat="47.78103" lon="2.33686">
        <ele>113</ele>
        <time>2017-07-23T08:06:08.120Z</time>
      </trkpt>
      <trkpt lat="47.78109" lon="2.33679">
        <ele>113</ele>
        <time>2017-07-23T08:06:09.123Z</time>
      </trkpt>
      <trkpt lat="47.78113" lon="2.33675">
        <ele>114</ele>
        <time>2017-07-23T08:06:10.123Z</time>
      </trkpt>
      <trkpt lat="47.78113" lon="2.33675">
        <ele>114</ele>
        <time>2017-07-23T08:06:11.120Z</time>
      </trkpt>
      <trkpt lat="47.7812" lon="2.33667">
        <ele>114</ele>
        <time>2017-07-23T08:06:12.124Z</time>
      </trkpt>
      <trkpt lat="47.7812" lon="2.33667">
        <ele>114</ele>
        <time>2017-07-23T08:06:13.120Z</time>
      </trkpt>
      <trkpt lat="47.78127" lon="2.3366">
        <ele>114</ele>
        <time>2017-07-23T08:06:14.127Z</time>
      </trkpt>
      <trkpt lat="47.78127" lon="2.3366">
        <ele>114</ele>
        <time>2017-07-23T08:06:15.118Z</time>
      </trkpt>
      <trkpt lat="47.78127" lon="2.3366">
        <ele>114</ele>
        <time>2017-07-23T08:06:16.140Z</time>
      </trkpt>
      <trkpt lat="47.78134" lon="2.33652">
        <ele>114</ele>
        <time>2017-07-23T08:06:17.120Z</time>
      </trkpt>
      <trkpt lat="47.78142" lon="2.33645">
        <ele>114</ele>
        <time>2017-07-23T08:06:18.123Z</time>
      </trkpt>
      <trkpt lat="47.78142" lon="2.33645">
        <ele>114</ele>
        <time>2017-07-23T08:06:19.120Z</time>
      </trkpt>
      <trkpt lat="47.78149" lon="2.33638">
        <ele>113</ele>
        <time>2017-07-23T08:06:20.125Z</time>
      </trkpt>
      <trkpt lat="47.78149" lon="2.33638">
        <ele>113</ele>
        <time>2017-07-23T08:06:21.117Z</time>
      </trkpt>
      <trkpt lat="47.78157" lon="2.33631">
        <ele>113</ele>
        <time>2017-07-23T08:06:22.122Z</time>
      </trkpt>
      <trkpt lat="47.78157" lon="2.33631">
        <ele>113</ele>
        <time>2017-07-23T08:06:23.119Z</time>
      </trkpt>
      <trkpt lat="47.78165" lon="2.33624">
        <ele>113</ele>
        <time>2017-07-23T08:06:24.120Z</time>
      </trkpt>
      <trkpt lat="47.78165" lon="2.33624">
        <ele>113</ele>
        <time>2017-07-23T08:06:25.120Z</time>
      </trkpt>
      <trkpt lat="47.78173" lon="2.33617">
        <ele>113</ele>
        <time>2017-07-23T08:06:26.124Z</time>
      </trkpt>
      <trkpt lat="47.78173" lon="2.33617">
        <ele>113</ele>
        <time>2017-07-23T08:06:27.118Z</time>
      </trkpt>
      <trkpt lat="47.78181" lon="2.3361">
        <ele>113</ele>
        <time>2017-07-23T08:06:28.124Z</time>
      </trkpt>
      <trkpt lat="47.78181" lon="2.3361">
        <ele>113</ele>
        <time>2017-07-23T08:06:29.120Z</time>
      </trkpt>
      <trkpt lat="47.78189" lon="2.33602">
        <ele>113</ele>
        <time>2017-07-23T08:06:30.120Z</time>
      </trkpt>
      <trkpt lat="47.78193" lon="2.33598">
        <ele>113</ele>
        <time>2017-07-23T08:06:31.123Z</time>
      </trkpt>
      <trkpt lat="47.78193" lon="2.33598">
        <ele>113</ele>
        <time>2017-07-23T08:06:32.119Z</time>
      </trkpt>
      <trkpt lat="47.78201" lon="2.3359">
        <ele>113</ele>
        <time>2017-07-23T08:06:33.123Z</time>
      </trkpt>
      <trkpt lat="47.78205" lon="2.33585">
        <ele>113</ele>
        <time>2017-07-23T08:06:34.125Z</time>
      </trkpt>
      <trkpt lat="47.78205" lon="2.33585">
        <ele>113</ele>
        <time>2017-07-23T08:06:35.123Z</time>
      </trkpt>
      <trkpt lat="47.78214" lon="2.33577">
        <ele>113</ele>
        <time>2017-07-23T08:06:36.124Z</time>
      </trkpt>
      <trkpt lat="47.78214" lon="2.33577">
        <ele>113</ele>
        <time>2017-07-23T08:06:37.120Z</time>
      </trkpt>
      <trkpt lat="47.78222" lon="2.33568">
        <ele>113</ele>
        <time>2017-07-23T08:06:38.134Z</time>
      </trkpt>
      <trkpt lat="47.78222" lon="2.33568">
        <ele>113</ele>
        <time>2017-07-23T08:06:39.112Z</time>
      </trkpt>
      <trkpt lat="47.7823" lon="2.33559">
        <ele>113</ele>
        <time>2017-07-23T08:06:40.119Z</time>
      </trkpt>
      <trkpt lat="47.78234" lon="2.33554">
        <ele>113</ele>
        <time>2017-07-23T08:06:41.125Z</time>
      </trkpt>
      <trkpt lat="47.78238" lon="2.33549">
        <ele>113</ele>
        <time>2017-07-23T08:06:42.123Z</time>
      </trkpt>
      <trkpt lat="47.78241" lon="2.33544">
        <ele>113</ele>
        <time>2017-07-23T08:06:43.140Z</time>
      </trkpt>
      <trkpt lat="47.78241" lon="2.33544">
        <ele>113</ele>
        <time>2017-07-23T08:06:44.123Z</time>
      </trkpt>
      <trkpt lat="47.78248" lon="2.33533">
        <ele>113</ele>
        <time>2017-07-23T08:06:45.123Z</time>
      </trkpt>
      <trkpt lat="47.78251" lon="2.33527">
        <ele>113</ele>
        <time>2017-07-23T08:06:46.125Z</time>
      </trkpt>
      <trkpt lat="47.78251" lon="2.33527">
        <ele>113</ele>
        <time>2017-07-23T08:06:47.116Z</time>
      </trkpt>
      <trkpt lat="47.78257" lon="2.33516">
        <ele>113</ele>
        <time>2017-07-23T08:06:48.137Z</time>
      </trkpt>
      <trkpt lat="47.78257" lon="2.33516">
        <ele>113</ele>
        <time>2017-07-23T08:06:49.126Z</time>
      </trkpt>
      <trkpt lat="47.78263" lon="2.33505">
        <ele>112</ele>
        <time>2017-07-23T08:06:50.126Z</time>
      </trkpt>
      <trkpt lat="47.78263" lon="2.33505">
        <ele>112</ele>
        <time>2017-07-23T08:06:51.119Z</time>
      </trkpt>
      <trkpt lat="47.78269" lon="2.33493">
        <ele>112</ele>
        <time>2017-07-23T08:06:52.124Z</time>
      </trkpt>
      <trkpt lat="47.78269" lon="2.33493">
        <ele>112</ele>
        <time>2017-07-23T08:06:53.118Z</time>
      </trkpt>
      <trkpt lat="47.78275" lon="2.33481">
        <ele>112</ele>
        <time>2017-07-23T08:06:54.121Z</time>
      </trkpt>
      <trkpt lat="47.78275" lon="2.33481">
        <ele>112</ele>
        <time>2017-07-23T08:06:55.119Z</time>
      </trkpt>
      <trkpt lat="47.78281" lon="2.33469">
        <ele>111</ele>
        <time>2017-07-23T08:06:56.125Z</time>
      </trkpt>
      <trkpt lat="47.78281" lon="2.33469">
        <ele>111</ele>
        <time>2017-07-23T08:06:57.134Z</time>
      </trkpt>
      <trkpt lat="47.78288" lon="2.33458">
        <ele>111</ele>
        <time>2017-07-23T08:06:58.126Z</time>
      </trkpt>
      <trkpt lat="47.78288" lon="2.33458">
        <ele>111</ele>
        <time>2017-07-23T08:06:59.121Z</time>
      </trkpt>
      <trkpt lat="47.78294" lon="2.33447">
        <ele>111</ele>
        <time>2017-07-23T08:07:00.124Z</time>
      </trkpt>
      <trkpt lat="47.78294" lon="2.33447">
        <ele>111</ele>
        <time>2017-07-23T08:07:01.117Z</time>
      </trkpt>
      <trkpt lat="47.783" lon="2.33436">
        <ele>112</ele>
        <time>2017-07-23T08:07:02.124Z</time>
      </trkpt>
      <trkpt lat="47.783" lon="2.33436">
        <ele>112</ele>
        <time>2017-07-23T08:07:03.117Z</time>
      </trkpt>
      <trkpt lat="47.78308" lon="2.33424">
        <ele>112</ele>
        <time>2017-07-23T08:07:04.126Z</time>
      </trkpt>
      <trkpt lat="47.78308" lon="2.33424">
        <ele>112</ele>
        <time>2017-07-23T08:07:05.122Z</time>
      </trkpt>
      <trkpt lat="47.78315" lon="2.33412">
        <ele>112</ele>
        <time>2017-07-23T08:07:06.120Z</time>
      </trkpt>
      <trkpt lat="47.78315" lon="2.33412">
        <ele>112</ele>
        <time>2017-07-23T08:07:07.117Z</time>
      </trkpt>
      <trkpt lat="47.78322" lon="2.33401">
        <ele>112</ele>
        <time>2017-07-23T08:07:08.125Z</time>
      </trkpt>
      <trkpt lat="47.78322" lon="2.33401">
        <ele>112</ele>
        <time>2017-07-23T08:07:09.118Z</time>
      </trkpt>
      <trkpt lat="47.7833" lon="2.33389">
        <ele>112</ele>
        <time>2017-07-23T08:07:10.123Z</time>
      </trkpt>
      <trkpt lat="47.7833" lon="2.33389">
        <ele>112</ele>
        <time>2017-07-23T08:07:11.117Z</time>
      </trkpt>
      <trkpt lat="47.78336" lon="2.33377">
        <ele>112</ele>
        <time>2017-07-23T08:07:12.162Z</time>
      </trkpt>
      <trkpt lat="47.78336" lon="2.33377">
        <ele>112</ele>
        <time>2017-07-23T08:07:13.141Z</time>
      </trkpt>
      <trkpt lat="47.78342" lon="2.33366">
        <ele>113</ele>
        <time>2017-07-23T08:07:14.130Z</time>
      </trkpt>
      <trkpt lat="47.78342" lon="2.33366">
        <ele>113</ele>
        <time>2017-07-23T08:07:15.121Z</time>
      </trkpt>
      <trkpt lat="47.78342" lon="2.33351">
        <ele>113</ele>
        <time>2017-07-23T08:07:16.125Z</time>
      </trkpt>
      <trkpt lat="47.78342" lon="2.33351">
        <ele>113</ele>
        <time>2017-07-23T08:07:17.118Z</time>
      </trkpt>
      <trkpt lat="47.78339" lon="2.33338">
        <ele>114</ele>
        <time>2017-07-23T08:07:18.124Z</time>
      </trkpt>
      <trkpt lat="47.78336" lon="2.33332">
        <ele>114</ele>
        <time>2017-07-23T08:07:19.124Z</time>
      </trkpt>
      <trkpt lat="47.78336" lon="2.33332">
        <ele>114</ele>
        <time>2017-07-23T08:07:20.121Z</time>
      </trkpt>
      <trkpt lat="47.78335" lon="2.33319">
        <ele>114</ele>
        <time>2017-07-23T08:07:21.124Z</time>
      </trkpt>
      <trkpt lat="47.78335" lon="2.33319">
        <ele>114</ele>
        <time>2017-07-23T08:07:22.137Z</time>
      </trkpt>
      <trkpt lat="47.78338" lon="2.33314">
        <ele>114</ele>
        <time>2017-07-23T08:07:23.118Z</time>
      </trkpt>
      <trkpt lat="47.78344" lon="2.33303">
        <ele>114</ele>
        <time>2017-07-23T08:07:24.122Z</time>
      </trkpt>
      <trkpt lat="47.78344" lon="2.33303">
        <ele>114</ele>
        <time>2017-07-23T08:07:25.120Z</time>
      </trkpt>
      <trkpt lat="47.7835" lon="2.33291">
        <ele>115</ele>
        <time>2017-07-23T08:07:26.127Z</time>
      </trkpt>
      <trkpt lat="47.7835" lon="2.33291">
        <ele>115</ele>
        <time>2017-07-23T08:07:27.117Z</time>
      </trkpt>
      <trkpt lat="47.78356" lon="2.3328">
        <ele>115</ele>
        <time>2017-07-23T08:07:28.125Z</time>
      </trkpt>
      <trkpt lat="47.78356" lon="2.3328">
        <ele>115</ele>
        <time>2017-07-23T08:07:29.118Z</time>
      </trkpt>
      <trkpt lat="47.78362" lon="2.33268">
        <ele>115</ele>
        <time>2017-07-23T08:07:30.120Z</time>
      </trkpt>
      <trkpt lat="47.78362" lon="2.33268">
        <ele>115</ele>
        <time>2017-07-23T08:07:31.118Z</time>
      </trkpt>
      <trkpt lat="47.78368" lon="2.33256">
        <ele>115</ele>
        <time>2017-07-23T08:07:32.127Z</time>
      </trkpt>
      <trkpt lat="47.78368" lon="2.33256">
        <ele>115</ele>
        <time>2017-07-23T08:07:33.118Z</time>
      </trkpt>
      <trkpt lat="47.78374" lon="2.33244">
        <ele>115</ele>
        <time>2017-07-23T08:07:34.125Z</time>
      </trkpt>
      <trkpt lat="47.78374" lon="2.33244">
        <ele>115</ele>
        <time>2017-07-23T08:07:35.117Z</time>
      </trkpt>
      <trkpt lat="47.78381" lon="2.33232">
        <ele>115</ele>
        <time>2017-07-23T08:07:36.125Z</time>
      </trkpt>
      <trkpt lat="47.78384" lon="2.33226">
        <ele>115</ele>
        <time>2017-07-23T08:07:37.120Z</time>
      </trkpt>
      <trkpt lat="47.78388" lon="2.3322">
        <ele>115</ele>
        <time>2017-07-23T08:07:38.121Z</time>
      </trkpt>
      <trkpt lat="47.78388" lon="2.3322">
        <ele>115</ele>
        <time>2017-07-23T08:07:39.143Z</time>
      </trkpt>
      <trkpt lat="47.78393" lon="2.33208">
        <ele>115</ele>
        <time>2017-07-23T08:07:40.113Z</time>
      </trkpt>
      <trkpt lat="47.78396" lon="2.33202">
        <ele>115</ele>
        <time>2017-07-23T08:07:41.135Z</time>
      </trkpt>
      <trkpt lat="47.78396" lon="2.33202">
        <ele>115</ele>
        <time>2017-07-23T08:07:42.129Z</time>
      </trkpt>
      <trkpt lat="47.78401" lon="2.33192">
        <ele>114</ele>
        <time>2017-07-23T08:07:43.124Z</time>
      </trkpt>
      <trkpt lat="47.78401" lon="2.33192">
        <ele>114</ele>
        <time>2017-07-23T08:07:44.119Z</time>
      </trkpt>
      <trkpt lat="47.78404" lon="2.33184">
        <ele>114</ele>
        <time>2017-07-23T08:07:45.137Z</time>
      </trkpt>
      <trkpt lat="47.78406" lon="2.3318">
        <ele>114</ele>
        <time>2017-07-23T08:07:46.126Z</time>
      </trkpt>
      <trkpt lat="47.78406" lon="2.3318">
        <ele>114</ele>
        <time>2017-07-23T08:07:47.119Z</time>
      </trkpt>
      <trkpt lat="47.78409" lon="2.33171">
        <ele>113</ele>
        <time>2017-07-23T08:07:48.123Z</time>
      </trkpt>
      <trkpt lat="47.78409" lon="2.33171">
        <ele>113</ele>
        <time>2017-07-23T08:07:49.113Z</time>
      </trkpt>
      <trkpt lat="47.78411" lon="2.33162">
        <ele>113</ele>
        <time>2017-07-23T08:07:50.124Z</time>
      </trkpt>
      <trkpt lat="47.78411" lon="2.33162">
        <ele>113</ele>
        <time>2017-07-23T08:07:51.119Z</time>
      </trkpt>
      <trkpt lat="47.78414" lon="2.33155">
        <ele>113</ele>
        <time>2017-07-23T08:07:52.125Z</time>
      </trkpt>
      <trkpt lat="47.78414" lon="2.33155">
        <ele>113</ele>
        <time>2017-07-23T08:07:53.127Z</time>
      </trkpt>
      <trkpt lat="47.78415" lon="2.3315">
        <ele>113</ele>
        <time>2017-07-23T08:07:54.121Z</time>
      </trkpt>
      <trkpt lat="47.78415" lon="2.3315">
        <ele>113</ele>
        <time>2017-07-23T08:07:55.118Z</time>
      </trkpt>
      <trkpt lat="47.78416" lon="2.33147">
        <ele>113</ele>
        <time>2017-07-23T08:07:56.146Z</time>
      </trkpt>
      <trkpt lat="47.78416" lon="2.33147">
        <ele>113</ele>
        <time>2017-07-23T08:07:57.136Z</time>
      </trkpt>
      <trkpt lat="47.78417" lon="2.33143">
        <ele>113</ele>
        <time>2017-07-23T08:07:58.135Z</time>
      </trkpt>
      <trkpt lat="47.78417" lon="2.33143">
        <ele>113</ele>
        <time>2017-07-23T08:07:59.137Z</time>
      </trkpt>
      <trkpt lat="47.78417" lon="2.33142">
        <ele>113</ele>
        <time>2017-07-23T08:08:00.124Z</time>
      </trkpt>
      <trkpt lat="47.78417" lon="2.33142">
        <ele>113</ele>
        <time>2017-07-23T08:08:01.111Z</time>
      </trkpt>
      <trkpt lat="47.78411" lon="2.33154">
        <ele>112</ele>
        <time>2017-07-23T08:08:02.130Z</time>
      </trkpt>
      <trkpt lat="47.78411" lon="2.33154">
        <ele>112</ele>
        <time>2017-07-23T08:08:03.108Z</time>
      </trkpt>
      <trkpt lat="47.7841" lon="2.33157">
        <ele>111</ele>
        <time>2017-07-23T08:08:04.137Z</time>
      </trkpt>
      <trkpt lat="47.7841" lon="2.33157">
        <ele>111</ele>
        <time>2017-07-23T08:08:05.125Z</time>
      </trkpt>
      <trkpt lat="47.78409" lon="2.33162">
        <ele>111</ele>
        <time>2017-07-23T08:08:06.117Z</time>
      </trkpt>
      <trkpt lat="47.78409" lon="2.33162">
        <ele>111</ele>
        <time>2017-07-23T08:08:07.110Z</time>
      </trkpt>
      <trkpt lat="47.78407" lon="2.3317">
        <ele>111</ele>
        <time>2017-07-23T08:08:08.119Z</time>
      </trkpt>
      <trkpt lat="47.78407" lon="2.3317">
        <ele>111</ele>
        <time>2017-07-23T08:08:09.126Z</time>
      </trkpt>
      <trkpt lat="47.78404" lon="2.33178">
        <ele>111</ele>
        <time>2017-07-23T08:08:10.117Z</time>
      </trkpt>
      <trkpt lat="47.78404" lon="2.33178">
        <ele>111</ele>
        <time>2017-07-23T08:08:11.112Z</time>
      </trkpt>
      <trkpt lat="47.784" lon="2.33185">
        <ele>111</ele>
        <time>2017-07-23T08:08:12.118Z</time>
      </trkpt>
      <trkpt lat="47.78398" lon="2.33186">
        <ele>111</ele>
        <time>2017-07-23T08:08:13.110Z</time>
      </trkpt>
      <trkpt lat="47.78396" lon="2.33186">
        <ele>111</ele>
        <time>2017-07-23T08:08:14.121Z</time>
      </trkpt>
      <trkpt lat="47.78396" lon="2.33186">
        <ele>111</ele>
        <time>2017-07-23T08:08:15.113Z</time>
      </trkpt>
      <trkpt lat="47.78392" lon="2.33181">
        <ele>111</ele>
        <time>2017-07-23T08:08:16.118Z</time>
      </trkpt>
      <trkpt lat="47.78392" lon="2.33181">
        <ele>111</ele>
        <time>2017-07-23T08:08:17.112Z</time>
      </trkpt>
      <trkpt lat="47.7839" lon="2.33172">
        <ele>111</ele>
        <time>2017-07-23T08:08:18.114Z</time>
      </trkpt>
      <trkpt lat="47.78389" lon="2.33167">
        <ele>111</ele>
        <time>2017-07-23T08:08:19.116Z</time>
      </trkpt>
      <trkpt lat="47.78389" lon="2.33167">
        <ele>111</ele>
        <time>2017-07-23T08:08:20.113Z</time>
      </trkpt>
      <trkpt lat="47.78385" lon="2.33157">
        <ele>111</ele>
        <time>2017-07-23T08:08:21.118Z</time>
      </trkpt>
      <trkpt lat="47.78385" lon="2.33157">
        <ele>111</ele>
        <time>2017-07-23T08:08:22.114Z</time>
      </trkpt>
      <trkpt lat="47.78379" lon="2.33149">
        <ele>112</ele>
        <time>2017-07-23T08:08:23.119Z</time>
      </trkpt>
      <trkpt lat="47.78375" lon="2.33146">
        <ele>112</ele>
        <time>2017-07-23T08:08:24.117Z</time>
      </trkpt>
      <trkpt lat="47.78375" lon="2.33146">
        <ele>112</ele>
        <time>2017-07-23T08:08:25.112Z</time>
      </trkpt>
      <trkpt lat="47.78367" lon="2.33142">
        <ele>112</ele>
        <time>2017-07-23T08:08:26.116Z</time>
      </trkpt>
      <trkpt lat="47.78367" lon="2.33142">
        <ele>112</ele>
        <time>2017-07-23T08:08:27.111Z</time>
      </trkpt>
      <trkpt lat="47.78359" lon="2.33137">
        <ele>112</ele>
        <time>2017-07-23T08:08:28.117Z</time>
      </trkpt>
      <trkpt lat="47.78359" lon="2.33137">
        <ele>112</ele>
        <time>2017-07-23T08:08:29.117Z</time>
      </trkpt>
      <trkpt lat="47.78351" lon="2.33132">
        <ele>112</ele>
        <time>2017-07-23T08:08:30.117Z</time>
      </trkpt>
      <trkpt lat="47.78351" lon="2.33132">
        <ele>112</ele>
        <time>2017-07-23T08:08:31.111Z</time>
      </trkpt>
      <trkpt lat="47.78343" lon="2.33128">
        <ele>112</ele>
        <time>2017-07-23T08:08:32.110Z</time>
      </trkpt>
      <trkpt lat="47.78339" lon="2.33125">
        <ele>112</ele>
        <time>2017-07-23T08:08:33.114Z</time>
      </trkpt>
      <trkpt lat="47.78334" lon="2.33123">
        <ele>112</ele>
        <time>2017-07-23T08:08:34.121Z</time>
      </trkpt>
      <trkpt lat="47.78334" lon="2.33123">
        <ele>112</ele>
        <time>2017-07-23T08:08:35.133Z</time>
      </trkpt>
      <trkpt lat="47.78326" lon="2.33118">
        <ele>112</ele>
        <time>2017-07-23T08:08:36.122Z</time>
      </trkpt>
      <trkpt lat="47.78326" lon="2.33118">
        <ele>112</ele>
        <time>2017-07-23T08:08:37.111Z</time>
      </trkpt>
      <trkpt lat="47.78317" lon="2.33114">
        <ele>112</ele>
        <time>2017-07-23T08:08:38.118Z</time>
      </trkpt>
      <trkpt lat="47.78317" lon="2.33114">
        <ele>112</ele>
        <time>2017-07-23T08:08:39.116Z</time>
      </trkpt>
      <trkpt lat="47.78308" lon="2.33109">
        <ele>112</ele>
        <time>2017-07-23T08:08:40.122Z</time>
      </trkpt>
      <trkpt lat="47.78302" lon="2.33108">
        <ele>112</ele>
        <time>2017-07-23T08:08:41.139Z</time>
      </trkpt>
      <trkpt lat="47.78302" lon="2.33108">
        <ele>112</ele>
        <time>2017-07-23T08:08:42.124Z</time>
      </trkpt>
      <trkpt lat="47.78293" lon="2.33108">
        <ele>112</ele>
        <time>2017-07-23T08:08:43.110Z</time>
      </trkpt>
      <trkpt lat="47.78288" lon="2.33108">
        <ele>112</ele>
        <time>2017-07-23T08:08:44.134Z</time>
      </trkpt>
      <trkpt lat="47.78288" lon="2.33108">
        <ele>112</ele>
        <time>2017-07-23T08:08:45.116Z</time>
      </trkpt>
      <trkpt lat="47.78279" lon="2.33105">
        <ele>112</ele>
        <time>2017-07-23T08:08:46.124Z</time>
      </trkpt>
      <trkpt lat="47.78279" lon="2.33105">
        <ele>112</ele>
        <time>2017-07-23T08:08:47.116Z</time>
      </trkpt>
      <trkpt lat="47.7827" lon="2.331">
        <ele>113</ele>
        <time>2017-07-23T08:08:48.118Z</time>
      </trkpt>
      <trkpt lat="47.7827" lon="2.331">
        <ele>113</ele>
        <time>2017-07-23T08:08:49.109Z</time>
      </trkpt>
      <trkpt lat="47.78262" lon="2.33095">
        <ele>113</ele>
        <time>2017-07-23T08:08:50.130Z</time>
      </trkpt>
      <trkpt lat="47.78262" lon="2.33095">
        <ele>113</ele>
        <time>2017-07-23T08:08:51.120Z</time>
      </trkpt>
      <trkpt lat="47.78253" lon="2.3309">
        <ele>113</ele>
        <time>2017-07-23T08:08:52.117Z</time>
      </trkpt>
      <trkpt lat="47.78253" lon="2.3309">
        <ele>113</ele>
        <time>2017-07-23T08:08:53.108Z</time>
      </trkpt>
      <trkpt lat="47.78244" lon="2.33085">
        <ele>113</ele>
        <time>2017-07-23T08:08:54.129Z</time>
      </trkpt>
      <trkpt lat="47.78244" lon="2.33085">
        <ele>113</ele>
        <time>2017-07-23T08:08:55.121Z</time>
      </trkpt>
      <trkpt lat="47.78236" lon="2.33079">
        <ele>113</ele>
        <time>2017-07-23T08:08:56.116Z</time>
      </trkpt>
      <trkpt lat="47.78236" lon="2.33079">
        <ele>113</ele>
        <time>2017-07-23T08:08:57.109Z</time>
      </trkpt>
      <trkpt lat="47.78227" lon="2.33074">
        <ele>114</ele>
        <time>2017-07-23T08:08:58.118Z</time>
      </trkpt>
      <trkpt lat="47.78227" lon="2.33074">
        <ele>114</ele>
        <time>2017-07-23T08:08:59.112Z</time>
      </trkpt>
      <trkpt lat="47.78218" lon="2.33069">
        <ele>114</ele>
        <time>2017-07-23T08:09:00.118Z</time>
      </trkpt>
      <trkpt lat="47.78218" lon="2.33069">
        <ele>114</ele>
        <time>2017-07-23T08:09:01.112Z</time>
      </trkpt>
      <trkpt lat="47.78209" lon="2.33064">
        <ele>114</ele>
        <time>2017-07-23T08:09:02.120Z</time>
      </trkpt>
      <trkpt lat="47.78209" lon="2.33064">
        <ele>114</ele>
        <time>2017-07-23T08:09:03.108Z</time>
      </trkpt>
      <trkpt lat="47.782" lon="2.33059">
        <ele>114</ele>
        <time>2017-07-23T08:09:04.115Z</time>
      </trkpt>
      <trkpt lat="47.782" lon="2.33059">
        <ele>114</ele>
        <time>2017-07-23T08:09:05.121Z</time>
      </trkpt>
      <trkpt lat="47.78191" lon="2.33054">
        <ele>114</ele>
        <time>2017-07-23T08:09:06.126Z</time>
      </trkpt>
      <trkpt lat="47.78191" lon="2.33054">
        <ele>114</ele>
        <time>2017-07-23T08:09:07.118Z</time>
      </trkpt>
      <trkpt lat="47.78182" lon="2.33048">
        <ele>114</ele>
        <time>2017-07-23T08:09:08.119Z</time>
      </trkpt>
      <trkpt lat="47.78182" lon="2.33048">
        <ele>114</ele>
        <time>2017-07-23T08:09:09.124Z</time>
      </trkpt>
      <trkpt lat="47.78178" lon="2.33045">
        <ele>114</ele>
        <time>2017-07-23T08:09:10.128Z</time>
      </trkpt>
      <trkpt lat="47.78169" lon="2.3304">
        <ele>115</ele>
        <time>2017-07-23T08:09:11.134Z</time>
      </trkpt>
      <trkpt lat="47.78165" lon="2.33037">
        <ele>115</ele>
        <time>2017-07-23T08:09:12.146Z</time>
      </trkpt>
      <trkpt lat="47.78165" lon="2.33037">
        <ele>115</ele>
        <time>2017-07-23T08:09:13.123Z</time>
      </trkpt>
      <trkpt lat="47.78157" lon="2.33031">
        <ele>115</ele>
        <time>2017-07-23T08:09:14.119Z</time>
      </trkpt>
      <trkpt lat="47.78157" lon="2.33031">
        <ele>115</ele>
        <time>2017-07-23T08:09:15.112Z</time>
      </trkpt>
      <trkpt lat="47.78148" lon="2.33025">
        <ele>115</ele>
        <time>2017-07-23T08:09:16.117Z</time>
      </trkpt>
      <trkpt lat="47.78148" lon="2.33025">
        <ele>115</ele>
        <time>2017-07-23T08:09:17.125Z</time>
      </trkpt>
      <trkpt lat="47.78139" lon="2.33019">
        <ele>115</ele>
        <time>2017-07-23T08:09:18.117Z</time>
      </trkpt>
      <trkpt lat="47.78134" lon="2.33016">
        <ele>115</ele>
        <time>2017-07-23T08:09:19.117Z</time>
      </trkpt>
      <trkpt lat="47.78134" lon="2.33016">
        <ele>115</ele>
        <time>2017-07-23T08:09:20.110Z</time>
      </trkpt>
      <trkpt lat="47.78125" lon="2.3301">
        <ele>115</ele>
        <time>2017-07-23T08:09:21.117Z</time>
      </trkpt>
      <trkpt lat="47.78121" lon="2.33008">
        <ele>115</ele>
        <time>2017-07-23T08:09:22.117Z</time>
      </trkpt>
      <trkpt lat="47.78121" lon="2.33008">
        <ele>115</ele>
        <time>2017-07-23T08:09:23.108Z</time>
      </trkpt>
      <trkpt lat="47.78112" lon="2.33001">
        <ele>115</ele>
        <time>2017-07-23T08:09:24.132Z</time>
      </trkpt>
      <trkpt lat="47.78107" lon="2.32998">
        <ele>115</ele>
        <time>2017-07-23T08:09:25.123Z</time>
      </trkpt>
      <trkpt lat="47.78103" lon="2.32996">
        <ele>115</ele>
        <time>2017-07-23T08:09:26.128Z</time>
      </trkpt>
      <trkpt lat="47.78103" lon="2.32996">
        <ele>115</ele>
        <time>2017-07-23T08:09:27.133Z</time>
      </trkpt>
      <trkpt lat="47.78095" lon="2.3299">
        <ele>115</ele>
        <time>2017-07-23T08:09:28.120Z</time>
      </trkpt>
      <trkpt lat="47.78095" lon="2.3299">
        <ele>115</ele>
        <time>2017-07-23T08:09:29.112Z</time>
      </trkpt>
      <trkpt lat="47.78086" lon="2.32985">
        <ele>115</ele>
        <time>2017-07-23T08:09:30.114Z</time>
      </trkpt>
      <trkpt lat="47.78086" lon="2.32985">
        <ele>115</ele>
        <time>2017-07-23T08:09:31.111Z</time>
      </trkpt>
      <trkpt lat="47.78078" lon="2.3298">
        <ele>115</ele>
        <time>2017-07-23T08:09:32.116Z</time>
      </trkpt>
      <trkpt lat="47.78078" lon="2.3298">
        <ele>115</ele>
        <time>2017-07-23T08:09:33.147Z</time>
      </trkpt>
      <trkpt lat="47.78069" lon="2.32974">
        <ele>114</ele>
        <time>2017-07-23T08:09:34.128Z</time>
      </trkpt>
      <trkpt lat="47.78069" lon="2.32974">
        <ele>114</ele>
        <time>2017-07-23T08:09:35.117Z</time>
      </trkpt>
      <trkpt lat="47.78061" lon="2.32968">
        <ele>114</ele>
        <time>2017-07-23T08:09:36.113Z</time>
      </trkpt>
      <trkpt lat="47.78061" lon="2.32968">
        <ele>114</ele>
        <time>2017-07-23T08:09:37.111Z</time>
      </trkpt>
      <trkpt lat="47.78052" lon="2.32963">
        <ele>114</ele>
        <time>2017-07-23T08:09:38.137Z</time>
      </trkpt>
      <trkpt lat="47.78052" lon="2.32963">
        <ele>114</ele>
        <time>2017-07-23T08:09:39.117Z</time>
      </trkpt>
      <trkpt lat="47.78044" lon="2.32958">
        <ele>113</ele>
        <time>2017-07-23T08:09:40.124Z</time>
      </trkpt>
      <trkpt lat="47.78044" lon="2.32958">
        <ele>113</ele>
        <time>2017-07-23T08:09:41.115Z</time>
      </trkpt>
      <trkpt lat="47.78035" lon="2.32952">
        <ele>113</ele>
        <time>2017-07-23T08:09:42.118Z</time>
      </trkpt>
      <trkpt lat="47.78035" lon="2.32952">
        <ele>113</ele>
        <time>2017-07-23T08:09:43.147Z</time>
      </trkpt>
      <trkpt lat="47.78027" lon="2.32946">
        <ele>114</ele>
        <time>2017-07-23T08:09:44.138Z</time>
      </trkpt>
      <trkpt lat="47.78027" lon="2.32946">
        <ele>114</ele>
        <time>2017-07-23T08:09:45.129Z</time>
      </trkpt>
      <trkpt lat="47.7802" lon="2.32938">
        <ele>114</ele>
        <time>2017-07-23T08:09:46.117Z</time>
      </trkpt>
      <trkpt lat="47.7802" lon="2.32938">
        <ele>114</ele>
        <time>2017-07-23T08:09:47.112Z</time>
      </trkpt>
      <trkpt lat="47.78014" lon="2.32927">
        <ele>114</ele>
        <time>2017-07-23T08:09:48.116Z</time>
      </trkpt>
      <trkpt lat="47.78014" lon="2.32927">
        <ele>114</ele>
        <time>2017-07-23T08:09:49.115Z</time>
      </trkpt>
      <trkpt lat="47.78007" lon="2.32919">
        <ele>114</ele>
        <time>2017-07-23T08:09:50.116Z</time>
      </trkpt>
      <trkpt lat="47.78007" lon="2.32919">
        <ele>114</ele>
        <time>2017-07-23T08:09:51.114Z</time>
      </trkpt>
      <trkpt lat="47.78" lon="2.32911">
        <ele>115</ele>
        <time>2017-07-23T08:09:52.118Z</time>
      </trkpt>
      <trkpt lat="47.78" lon="2.32911">
        <ele>115</ele>
        <time>2017-07-23T08:09:53.148Z</time>
      </trkpt>
      <trkpt lat="47.77994" lon="2.32902">
        <ele>115</ele>
        <time>2017-07-23T08:09:54.119Z</time>
      </trkpt>
      <trkpt lat="47.77994" lon="2.32902">
        <ele>115</ele>
        <time>2017-07-23T08:09:55.121Z</time>
      </trkpt>
      <trkpt lat="47.77988" lon="2.32894">
        <ele>115</ele>
        <time>2017-07-23T08:09:56.118Z</time>
      </trkpt>
      <trkpt lat="47.77988" lon="2.32894">
        <ele>115</ele>
        <time>2017-07-23T08:09:57.112Z</time>
      </trkpt>
      <trkpt lat="47.7798" lon="2.32888">
        <ele>115</ele>
        <time>2017-07-23T08:09:58.119Z</time>
      </trkpt>
      <trkpt lat="47.7798" lon="2.32888">
        <ele>115</ele>
        <time>2017-07-23T08:09:59.114Z</time>
      </trkpt>
      <trkpt lat="47.77972" lon="2.32882">
        <ele>115</ele>
        <time>2017-07-23T08:10:00.116Z</time>
      </trkpt>
      <trkpt lat="47.77972" lon="2.32882">
        <ele>115</ele>
        <time>2017-07-23T08:10:01.113Z</time>
      </trkpt>
      <trkpt lat="47.77963" lon="2.32875">
        <ele>115</ele>
        <time>2017-07-23T08:10:02.119Z</time>
      </trkpt>
      <trkpt lat="47.77963" lon="2.32875">
        <ele>115</ele>
        <time>2017-07-23T08:10:03.112Z</time>
      </trkpt>
      <trkpt lat="47.77954" lon="2.32869">
        <ele>114</ele>
        <time>2017-07-23T08:10:04.118Z</time>
      </trkpt>
      <trkpt lat="47.77954" lon="2.32869">
        <ele>114</ele>
        <time>2017-07-23T08:10:05.112Z</time>
      </trkpt>
      <trkpt lat="47.77945" lon="2.32862">
        <ele>114</ele>
        <time>2017-07-23T08:10:06.118Z</time>
      </trkpt>
      <trkpt lat="47.77945" lon="2.32862">
        <ele>114</ele>
        <time>2017-07-23T08:10:07.112Z</time>
      </trkpt>
      <trkpt lat="47.77936" lon="2.32856">
        <ele>113</ele>
        <time>2017-07-23T08:10:08.118Z</time>
      </trkpt>
      <trkpt lat="47.77936" lon="2.32856">
        <ele>113</ele>
        <time>2017-07-23T08:10:09.113Z</time>
      </trkpt>
      <trkpt lat="47.77927" lon="2.32849">
        <ele>113</ele>
        <time>2017-07-23T08:10:10.130Z</time>
      </trkpt>
      <trkpt lat="47.77927" lon="2.32849">
        <ele>113</ele>
        <time>2017-07-23T08:10:11.134Z</time>
      </trkpt>
      <trkpt lat="47.77918" lon="2.32844">
        <ele>112</ele>
        <time>2017-07-23T08:10:12.124Z</time>
      </trkpt>
      <trkpt lat="47.77918" lon="2.32844">
        <ele>112</ele>
        <time>2017-07-23T08:10:13.115Z</time>
      </trkpt>
      <trkpt lat="47.77909" lon="2.32839">
        <ele>112</ele>
        <time>2017-07-23T08:10:14.120Z</time>
      </trkpt>
      <trkpt lat="47.77909" lon="2.32839">
        <ele>112</ele>
        <time>2017-07-23T08:10:15.111Z</time>
      </trkpt>
      <trkpt lat="47.77899" lon="2.32836">
        <ele>112</ele>
        <time>2017-07-23T08:10:16.118Z</time>
      </trkpt>
      <trkpt lat="47.77899" lon="2.32836">
        <ele>112</ele>
        <time>2017-07-23T08:10:17.112Z</time>
      </trkpt>
      <trkpt lat="47.77889" lon="2.32832">
        <ele>113</ele>
        <time>2017-07-23T08:10:18.118Z</time>
      </trkpt>
      <trkpt lat="47.77889" lon="2.32832">
        <ele>113</ele>
        <time>2017-07-23T08:10:19.112Z</time>
      </trkpt>
      <trkpt lat="47.7788" lon="2.32827">
        <ele>113</ele>
        <time>2017-07-23T08:10:20.118Z</time>
      </trkpt>
      <trkpt lat="47.7788" lon="2.32827">
        <ele>113</ele>
        <time>2017-07-23T08:10:21.111Z</time>
      </trkpt>
      <trkpt lat="47.7787" lon="2.32823">
        <ele>113</ele>
        <time>2017-07-23T08:10:22.117Z</time>
      </trkpt>
      <trkpt lat="47.7787" lon="2.32823">
        <ele>113</ele>
        <time>2017-07-23T08:10:23.109Z</time>
      </trkpt>
      <trkpt lat="47.77861" lon="2.32818">
        <ele>113</ele>
        <time>2017-07-23T08:10:24.132Z</time>
      </trkpt>
      <trkpt lat="47.77861" lon="2.32818">
        <ele>113</ele>
        <time>2017-07-23T08:10:25.122Z</time>
      </trkpt>
      <trkpt lat="47.77851" lon="2.32814">
        <ele>114</ele>
        <time>2017-07-23T08:10:26.116Z</time>
      </trkpt>
      <trkpt lat="47.77851" lon="2.32814">
        <ele>114</ele>
        <time>2017-07-23T08:10:27.112Z</time>
      </trkpt>
      <trkpt lat="47.77842" lon="2.3281">
        <ele>114</ele>
        <time>2017-07-23T08:10:28.117Z</time>
      </trkpt>
      <trkpt lat="47.77842" lon="2.3281">
        <ele>114</ele>
        <time>2017-07-23T08:10:29.111Z</time>
      </trkpt>
      <trkpt lat="47.77833" lon="2.32807">
        <ele>114</ele>
        <time>2017-07-23T08:10:30.117Z</time>
      </trkpt>
      <trkpt lat="47.77829" lon="2.32805">
        <ele>114</ele>
        <time>2017-07-23T08:10:31.118Z</time>
      </trkpt>
      <trkpt lat="47.77824" lon="2.32803">
        <ele>114</ele>
        <time>2017-07-23T08:10:32.118Z</time>
      </trkpt>
      <trkpt lat="47.77824" lon="2.32803">
        <ele>114</ele>
        <time>2017-07-23T08:10:33.115Z</time>
      </trkpt>
      <trkpt lat="47.77816" lon="2.32799">
        <ele>114</ele>
        <time>2017-07-23T08:10:34.138Z</time>
      </trkpt>
      <trkpt lat="47.77816" lon="2.32799">
        <ele>114</ele>
        <time>2017-07-23T08:10:35.134Z</time>
      </trkpt>
      <trkpt lat="47.77808" lon="2.32794">
        <ele>114</ele>
        <time>2017-07-23T08:10:36.123Z</time>
      </trkpt>
      <trkpt lat="47.77808" lon="2.32794">
        <ele>114</ele>
        <time>2017-07-23T08:10:37.114Z</time>
      </trkpt>
      <trkpt lat="47.778" lon="2.32788">
        <ele>115</ele>
        <time>2017-07-23T08:10:38.109Z</time>
      </trkpt>
      <trkpt lat="47.778" lon="2.32788">
        <ele>115</ele>
        <time>2017-07-23T08:10:39.110Z</time>
      </trkpt>
      <trkpt lat="47.77792" lon="2.32783">
        <ele>115</ele>
        <time>2017-07-23T08:10:40.116Z</time>
      </trkpt>
      <trkpt lat="47.77789" lon="2.32781">
        <ele>115</ele>
        <time>2017-07-23T08:10:41.122Z</time>
      </trkpt>
      <trkpt lat="47.77789" lon="2.32781">
        <ele>115</ele>
        <time>2017-07-23T08:10:42.111Z</time>
      </trkpt>
      <trkpt lat="47.77781" lon="2.32775">
        <ele>116</ele>
        <time>2017-07-23T08:10:43.109Z</time>
      </trkpt>
      <trkpt lat="47.77777" lon="2.32772">
        <ele>116</ele>
        <time>2017-07-23T08:10:44.130Z</time>
      </trkpt>
      <trkpt lat="47.77777" lon="2.32772">
        <ele>116</ele>
        <time>2017-07-23T08:10:45.121Z</time>
      </trkpt>
      <trkpt lat="47.77769" lon="2.32766">
        <ele>116</ele>
        <time>2017-07-23T08:10:46.118Z</time>
      </trkpt>
      <trkpt lat="47.77769" lon="2.32766">
        <ele>116</ele>
        <time>2017-07-23T08:10:47.112Z</time>
      </trkpt>
      <trkpt lat="47.7776" lon="2.32761">
        <ele>116</ele>
        <time>2017-07-23T08:10:48.120Z</time>
      </trkpt>
      <trkpt lat="47.7776" lon="2.32761">
        <ele>116</ele>
        <time>2017-07-23T08:10:49.111Z</time>
      </trkpt>
      <trkpt lat="47.77753" lon="2.32755">
        <ele>116</ele>
        <time>2017-07-23T08:10:50.140Z</time>
      </trkpt>
      <trkpt lat="47.77753" lon="2.32755">
        <ele>116</ele>
        <time>2017-07-23T08:10:51.131Z</time>
      </trkpt>
      <trkpt lat="47.77745" lon="2.32749">
        <ele>117</ele>
        <time>2017-07-23T08:10:52.119Z</time>
      </trkpt>
      <trkpt lat="47.77745" lon="2.32749">
        <ele>117</ele>
        <time>2017-07-23T08:10:53.109Z</time>
      </trkpt>
      <trkpt lat="47.77737" lon="2.32743">
        <ele>117</ele>
        <time>2017-07-23T08:10:54.133Z</time>
      </trkpt>
      <trkpt lat="47.77732" lon="2.3274">
        <ele>116</ele>
        <time>2017-07-23T08:10:55.123Z</time>
      </trkpt>
      <trkpt lat="47.77728" lon="2.32736">
        <ele>116</ele>
        <time>2017-07-23T08:10:56.118Z</time>
      </trkpt>
      <trkpt lat="47.77728" lon="2.32736">
        <ele>116</ele>
        <time>2017-07-23T08:10:57.112Z</time>
      </trkpt>
      <trkpt lat="47.77719" lon="2.3273">
        <ele>116</ele>
        <time>2017-07-23T08:10:58.118Z</time>
      </trkpt>
      <trkpt lat="47.77719" lon="2.3273">
        <ele>116</ele>
        <time>2017-07-23T08:10:59.111Z</time>
      </trkpt>
      <trkpt lat="47.7771" lon="2.32723">
        <ele>116</ele>
        <time>2017-07-23T08:11:00.117Z</time>
      </trkpt>
      <trkpt lat="47.7771" lon="2.32723">
        <ele>116</ele>
        <time>2017-07-23T08:11:01.111Z</time>
      </trkpt>
      <trkpt lat="47.77701" lon="2.32715">
        <ele>116</ele>
        <time>2017-07-23T08:11:02.117Z</time>
      </trkpt>
      <trkpt lat="47.77701" lon="2.32715">
        <ele>116</ele>
        <time>2017-07-23T08:11:03.108Z</time>
      </trkpt>
      <trkpt lat="47.77692" lon="2.32708">
        <ele>116</ele>
        <time>2017-07-23T08:11:04.138Z</time>
      </trkpt>
      <trkpt lat="47.77692" lon="2.32708">
        <ele>116</ele>
        <time>2017-07-23T08:11:05.134Z</time>
      </trkpt>
      <trkpt lat="47.77682" lon="2.32701">
        <ele>116</ele>
        <time>2017-07-23T08:11:06.123Z</time>
      </trkpt>
      <trkpt lat="47.77682" lon="2.32701">
        <ele>116</ele>
        <time>2017-07-23T08:11:07.114Z</time>
      </trkpt>
      <trkpt lat="47.77673" lon="2.32694">
        <ele>115</ele>
        <time>2017-07-23T08:11:08.119Z</time>
      </trkpt>
      <trkpt lat="47.77673" lon="2.32694">
        <ele>115</ele>
        <time>2017-07-23T08:11:09.121Z</time>
      </trkpt>
      <trkpt lat="47.77663" lon="2.32686">
        <ele>115</ele>
        <time>2017-07-23T08:11:10.118Z</time>
      </trkpt>
      <trkpt lat="47.77663" lon="2.32686">
        <ele>115</ele>
        <time>2017-07-23T08:11:11.113Z</time>
      </trkpt>
      <trkpt lat="47.77655" lon="2.3268">
        <ele>116</ele>
        <time>2017-07-23T08:11:12.118Z</time>
      </trkpt>
      <trkpt lat="47.77655" lon="2.3268">
        <ele>116</ele>
        <time>2017-07-23T08:11:13.108Z</time>
      </trkpt>
      <trkpt lat="47.77646" lon="2.32674">
        <ele>115</ele>
        <time>2017-07-23T08:11:14.135Z</time>
      </trkpt>
      <trkpt lat="47.77646" lon="2.32674">
        <ele>115</ele>
        <time>2017-07-23T08:11:15.127Z</time>
      </trkpt>
      <trkpt lat="47.77639" lon="2.32668">
        <ele>115</ele>
        <time>2017-07-23T08:11:16.119Z</time>
      </trkpt>
      <trkpt lat="47.77639" lon="2.32668">
        <ele>115</ele>
        <time>2017-07-23T08:11:17.112Z</time>
      </trkpt>
      <trkpt lat="47.77632" lon="2.32662">
        <ele>115</ele>
        <time>2017-07-23T08:11:18.117Z</time>
      </trkpt>
      <trkpt lat="47.77632" lon="2.32662">
        <ele>115</ele>
        <time>2017-07-23T08:11:19.111Z</time>
      </trkpt>
      <trkpt lat="47.77625" lon="2.32657">
        <ele>115</ele>
        <time>2017-07-23T08:11:20.119Z</time>
      </trkpt>
      <trkpt lat="47.77625" lon="2.32657">
        <ele>115</ele>
        <time>2017-07-23T08:11:21.112Z</time>
      </trkpt>
      <trkpt lat="47.77619" lon="2.32652">
        <ele>115</ele>
        <time>2017-07-23T08:11:22.117Z</time>
      </trkpt>
      <trkpt lat="47.77619" lon="2.32652">
        <ele>115</ele>
        <time>2017-07-23T08:11:23.109Z</time>
      </trkpt>
      <trkpt lat="47.77613" lon="2.32647">
        <ele>114</ele>
        <time>2017-07-23T08:11:24.134Z</time>
      </trkpt>
      <trkpt lat="47.7761" lon="2.32645">
        <ele>114</ele>
        <time>2017-07-23T08:11:25.118Z</time>
      </trkpt>
      <trkpt lat="47.77608" lon="2.32642">
        <ele>114</ele>
        <time>2017-07-23T08:11:26.119Z</time>
      </trkpt>
      <trkpt lat="47.77608" lon="2.32642">
        <ele>114</ele>
        <time>2017-07-23T08:11:27.111Z</time>
      </trkpt>
      <trkpt lat="47.77603" lon="2.32638">
        <ele>114</ele>
        <time>2017-07-23T08:11:28.117Z</time>
      </trkpt>
      <trkpt lat="47.77603" lon="2.32638">
        <ele>114</ele>
        <time>2017-07-23T08:11:29.112Z</time>
      </trkpt>
      <trkpt lat="47.776" lon="2.32633">
        <ele>114</ele>
        <time>2017-07-23T08:11:30.117Z</time>
      </trkpt>
      <trkpt lat="47.77599" lon="2.32631">
        <ele>114</ele>
        <time>2017-07-23T08:11:31.118Z</time>
      </trkpt>
      <trkpt lat="47.77599" lon="2.32631">
        <ele>114</ele>
        <time>2017-07-23T08:11:32.114Z</time>
      </trkpt>
      <trkpt lat="47.77598" lon="2.32629">
        <ele>114</ele>
        <time>2017-07-23T08:11:33.110Z</time>
      </trkpt>
      <trkpt lat="47.77598" lon="2.32629">
        <ele>114</ele>
        <time>2017-07-23T08:11:34.139Z</time>
      </trkpt>
      <trkpt lat="47.77598" lon="2.32629">
        <ele>114</ele>
        <time>2017-07-23T08:11:35.132Z</time>
      </trkpt>
      <trkpt lat="47.77598" lon="2.32629">
        <ele>114</ele>
        <time>2017-07-23T08:11:36.110Z</time>
      </trkpt>
      <trkpt lat="47.77594" lon="2.32616">
        <ele>113</ele>
        <time>2017-07-23T08:11:37.140Z</time>
      </trkpt>
      <trkpt lat="47.77594" lon="2.32616">
        <ele>113</ele>
        <time>2017-07-23T08:11:38.134Z</time>
      </trkpt>
      <trkpt lat="47.77596" lon="2.32611">
        <ele>113</ele>
        <time>2017-07-23T08:11:39.146Z</time>
      </trkpt>
      <trkpt lat="47.77596" lon="2.32611">
        <ele>113</ele>
        <time>2017-07-23T08:11:40.112Z</time>
      </trkpt>
      <trkpt lat="47.77601" lon="2.32604">
        <ele>113</ele>
        <time>2017-07-23T08:11:41.118Z</time>
      </trkpt>
      <trkpt lat="47.77601" lon="2.32604">
        <ele>113</ele>
        <time>2017-07-23T08:11:42.109Z</time>
      </trkpt>
      <trkpt lat="47.77605" lon="2.32594">
        <ele>113</ele>
        <time>2017-07-23T08:11:43.139Z</time>
      </trkpt>
      <trkpt lat="47.77605" lon="2.32594">
        <ele>113</ele>
        <time>2017-07-23T08:11:44.133Z</time>
      </trkpt>
      <trkpt lat="47.7761" lon="2.32584">
        <ele>113</ele>
        <time>2017-07-23T08:11:45.139Z</time>
      </trkpt>
      <trkpt lat="47.7761" lon="2.32584">
        <ele>113</ele>
        <time>2017-07-23T08:11:46.137Z</time>
      </trkpt>
      <trkpt lat="47.77615" lon="2.32573">
        <ele>113</ele>
        <time>2017-07-23T08:11:47.137Z</time>
      </trkpt>
      <trkpt lat="47.77618" lon="2.32567">
        <ele>113</ele>
        <time>2017-07-23T08:11:48.139Z</time>
      </trkpt>
      <trkpt lat="47.77618" lon="2.32567">
        <ele>113</ele>
        <time>2017-07-23T08:11:49.136Z</time>
      </trkpt>
      <trkpt lat="47.77624" lon="2.32556">
        <ele>114</ele>
        <time>2017-07-23T08:11:50.138Z</time>
      </trkpt>
      <trkpt lat="47.77624" lon="2.32556">
        <ele>114</ele>
        <time>2017-07-23T08:11:51.119Z</time>
      </trkpt>
      <trkpt lat="47.7763" lon="2.32543">
        <ele>113</ele>
        <time>2017-07-23T08:11:52.109Z</time>
      </trkpt>
      <trkpt lat="47.77633" lon="2.32537">
        <ele>113</ele>
        <time>2017-07-23T08:11:53.140Z</time>
      </trkpt>
      <trkpt lat="47.77633" lon="2.32537">
        <ele>113</ele>
        <time>2017-07-23T08:11:54.133Z</time>
      </trkpt>
      <trkpt lat="47.7764" lon="2.32524">
        <ele>113</ele>
        <time>2017-07-23T08:11:55.139Z</time>
      </trkpt>
      <trkpt lat="47.7764" lon="2.32524">
        <ele>113</ele>
        <time>2017-07-23T08:11:56.132Z</time>
      </trkpt>
      <trkpt lat="47.77646" lon="2.32511">
        <ele>112</ele>
        <time>2017-07-23T08:11:57.139Z</time>
      </trkpt>
      <trkpt lat="47.77646" lon="2.32511">
        <ele>112</ele>
        <time>2017-07-23T08:11:58.133Z</time>
      </trkpt>
      <trkpt lat="47.77652" lon="2.32499">
        <ele>111</ele>
        <time>2017-07-23T08:11:59.139Z</time>
      </trkpt>
      <trkpt lat="47.77652" lon="2.32499">
        <ele>111</ele>
        <time>2017-07-23T08:12:00.133Z</time>
      </trkpt>
      <trkpt lat="47.77658" lon="2.32487">
        <ele>112</ele>
        <time>2017-07-23T08:12:01.139Z</time>
      </trkpt>
      <trkpt lat="47.77658" lon="2.32487">
        <ele>112</ele>
        <time>2017-07-23T08:12:02.133Z</time>
      </trkpt>
      <trkpt lat="47.77664" lon="2.32475">
        <ele>111</ele>
        <time>2017-07-23T08:12:03.139Z</time>
      </trkpt>
      <trkpt lat="47.77667" lon="2.32469">
        <ele>111</ele>
        <time>2017-07-23T08:12:04.136Z</time>
      </trkpt>
      <trkpt lat="47.77669" lon="2.32463">
        <ele>111</ele>
        <time>2017-07-23T08:12:05.113Z</time>
      </trkpt>
      <trkpt lat="47.77669" lon="2.32463">
        <ele>111</ele>
        <time>2017-07-23T08:12:06.135Z</time>
      </trkpt>
      <trkpt lat="47.77672" lon="2.32452">
        <ele>111</ele>
        <time>2017-07-23T08:12:07.137Z</time>
      </trkpt>
      <trkpt lat="47.77672" lon="2.32452">
        <ele>111</ele>
        <time>2017-07-23T08:12:08.116Z</time>
      </trkpt>
      <trkpt lat="47.77666" lon="2.32442">
        <ele>110</ele>
        <time>2017-07-23T08:12:09.145Z</time>
      </trkpt>
      <trkpt lat="47.77666" lon="2.32442">
        <ele>110</ele>
        <time>2017-07-23T08:12:10.141Z</time>
      </trkpt>
      <trkpt lat="47.77655" lon="2.32438">
        <ele>110</ele>
        <time>2017-07-23T08:12:11.140Z</time>
      </trkpt>
      <trkpt lat="47.77655" lon="2.32438">
        <ele>110</ele>
        <time>2017-07-23T08:12:12.133Z</time>
      </trkpt>
      <trkpt lat="47.77645" lon="2.32437">
        <ele>109</ele>
        <time>2017-07-23T08:12:13.140Z</time>
      </trkpt>
      <trkpt lat="47.77645" lon="2.32437">
        <ele>109</ele>
        <time>2017-07-23T08:12:14.136Z</time>
      </trkpt>
      <trkpt lat="47.77634" lon="2.32437">
        <ele>109</ele>
        <time>2017-07-23T08:12:15.138Z</time>
      </trkpt>
      <trkpt lat="47.77629" lon="2.32437">
        <ele>109</ele>
        <time>2017-07-23T08:12:16.137Z</time>
      </trkpt>
      <trkpt lat="47.77629" lon="2.32437">
        <ele>109</ele>
        <time>2017-07-23T08:12:17.135Z</time>
      </trkpt>
      <trkpt lat="47.77619" lon="2.32437">
        <ele>109</ele>
        <time>2017-07-23T08:12:18.139Z</time>
      </trkpt>
      <trkpt lat="47.77614" lon="2.32436">
        <ele>108</ele>
        <time>2017-07-23T08:12:19.110Z</time>
      </trkpt>
      <trkpt lat="47.77614" lon="2.32436">
        <ele>108</ele>
        <time>2017-07-23T08:12:20.117Z</time>
      </trkpt>
      <trkpt lat="47.77604" lon="2.32436">
        <ele>108</ele>
        <time>2017-07-23T08:12:21.147Z</time>
      </trkpt>
      <trkpt lat="47.776" lon="2.32435">
        <ele>108</ele>
        <time>2017-07-23T08:12:22.140Z</time>
      </trkpt>
      <trkpt lat="47.776" lon="2.32435">
        <ele>108</ele>
        <time>2017-07-23T08:12:23.110Z</time>
      </trkpt>
      <trkpt lat="47.77591" lon="2.32435">
        <ele>107</ele>
        <time>2017-07-23T08:12:24.116Z</time>
      </trkpt>
      <trkpt lat="47.77591" lon="2.32435">
        <ele>107</ele>
        <time>2017-07-23T08:12:25.127Z</time>
      </trkpt>
      <trkpt lat="47.7758" lon="2.32435">
        <ele>107</ele>
        <time>2017-07-23T08:12:26.137Z</time>
      </trkpt>
      <trkpt lat="47.77575" lon="2.32435">
        <ele>107</ele>
        <time>2017-07-23T08:12:27.140Z</time>
      </trkpt>
      <trkpt lat="47.7757" lon="2.32435">
        <ele>107</ele>
        <time>2017-07-23T08:12:28.140Z</time>
      </trkpt>
      <trkpt lat="47.77565" lon="2.32435">
        <ele>107</ele>
        <time>2017-07-23T08:12:29.140Z</time>
      </trkpt>
      <trkpt lat="47.77565" lon="2.32435">
        <ele>107</ele>
        <time>2017-07-23T08:12:30.133Z</time>
      </trkpt>
      <trkpt lat="47.77556" lon="2.32435">
        <ele>106</ele>
        <time>2017-07-23T08:12:31.140Z</time>
      </trkpt>
      <trkpt lat="47.77556" lon="2.32435">
        <ele>106</ele>
        <time>2017-07-23T08:12:32.136Z</time>
      </trkpt>
      <trkpt lat="47.77546" lon="2.32435">
        <ele>106</ele>
        <time>2017-07-23T08:12:33.140Z</time>
      </trkpt>
      <trkpt lat="47.77541" lon="2.32435">
        <ele>106</ele>
        <time>2017-07-23T08:12:34.137Z</time>
      </trkpt>
      <trkpt lat="47.77537" lon="2.32434">
        <ele>106</ele>
        <time>2017-07-23T08:12:35.139Z</time>
      </trkpt>
      <trkpt lat="47.77537" lon="2.32434">
        <ele>106</ele>
        <time>2017-07-23T08:12:36.136Z</time>
      </trkpt>
      <trkpt lat="47.77526" lon="2.32433">
        <ele>106</ele>
        <time>2017-07-23T08:12:37.139Z</time>
      </trkpt>
      <trkpt lat="47.77526" lon="2.32433">
        <ele>106</ele>
        <time>2017-07-23T08:12:38.136Z</time>
      </trkpt>
      <trkpt lat="47.77515" lon="2.32432">
        <ele>107</ele>
        <time>2017-07-23T08:12:39.145Z</time>
      </trkpt>
      <trkpt lat="47.77509" lon="2.32431">
        <ele>106</ele>
        <time>2017-07-23T08:12:40.111Z</time>
      </trkpt>
      <trkpt lat="47.77509" lon="2.32431">
        <ele>106</ele>
        <time>2017-07-23T08:12:41.117Z</time>
      </trkpt>
      <trkpt lat="47.77497" lon="2.3243">
        <ele>106</ele>
        <time>2017-07-23T08:12:42.108Z</time>
      </trkpt>
      <trkpt lat="47.77497" lon="2.3243">
        <ele>106</ele>
        <time>2017-07-23T08:12:43.139Z</time>
      </trkpt>
      <trkpt lat="47.77486" lon="2.3243">
        <ele>106</ele>
        <time>2017-07-23T08:12:44.115Z</time>
      </trkpt>
      <trkpt lat="47.77486" lon="2.3243">
        <ele>106</ele>
        <time>2017-07-23T08:12:45.137Z</time>
      </trkpt>
      <trkpt lat="47.77474" lon="2.32429">
        <ele>106</ele>
        <time>2017-07-23T08:12:46.139Z</time>
      </trkpt>
      <trkpt lat="47.77468" lon="2.32428">
        <ele>106</ele>
        <time>2017-07-23T08:12:47.141Z</time>
      </trkpt>
      <trkpt lat="47.77468" lon="2.32428">
        <ele>106</ele>
        <time>2017-07-23T08:12:48.134Z</time>
      </trkpt>
      <trkpt lat="47.77458" lon="2.32429">
        <ele>106</ele>
        <time>2017-07-23T08:12:49.141Z</time>
      </trkpt>
      <trkpt lat="47.77458" lon="2.32429">
        <ele>106</ele>
        <time>2017-07-23T08:12:50.134Z</time>
      </trkpt>
      <trkpt lat="47.77448" lon="2.32433">
        <ele>106</ele>
        <time>2017-07-23T08:12:51.140Z</time>
      </trkpt>
      <trkpt lat="47.77448" lon="2.32433">
        <ele>106</ele>
        <time>2017-07-23T08:12:52.135Z</time>
      </trkpt>
      <trkpt lat="47.77438" lon="2.32442">
        <ele>106</ele>
        <time>2017-07-23T08:12:53.140Z</time>
      </trkpt>
      <trkpt lat="47.77434" lon="2.32447">
        <ele>106</ele>
        <time>2017-07-23T08:12:54.138Z</time>
      </trkpt>
      <trkpt lat="47.77429" lon="2.32452">
        <ele>106</ele>
        <time>2017-07-23T08:12:55.137Z</time>
      </trkpt>
      <trkpt lat="47.77429" lon="2.32452">
        <ele>106</ele>
        <time>2017-07-23T08:12:56.137Z</time>
      </trkpt>
      <trkpt lat="47.7742" lon="2.32463">
        <ele>106</ele>
        <time>2017-07-23T08:12:57.138Z</time>
      </trkpt>
      <trkpt lat="47.77415" lon="2.32467">
        <ele>107</ele>
        <time>2017-07-23T08:12:58.139Z</time>
      </trkpt>
      <trkpt lat="47.7741" lon="2.32471">
        <ele>107</ele>
        <time>2017-07-23T08:12:59.140Z</time>
      </trkpt>
      <trkpt lat="47.7741" lon="2.32471">
        <ele>107</ele>
        <time>2017-07-23T08:13:00.130Z</time>
      </trkpt>
      <trkpt lat="47.77399" lon="2.32478">
        <ele>107</ele>
        <time>2017-07-23T08:13:01.138Z</time>
      </trkpt>
      <trkpt lat="47.77399" lon="2.32478">
        <ele>107</ele>
        <time>2017-07-23T08:13:02.139Z</time>
      </trkpt>
      <trkpt lat="47.77388" lon="2.32484">
        <ele>107</ele>
        <time>2017-07-23T08:13:03.144Z</time>
      </trkpt>
      <trkpt lat="47.77383" lon="2.32487">
        <ele>108</ele>
        <time>2017-07-23T08:13:04.137Z</time>
      </trkpt>
      <trkpt lat="47.77383" lon="2.32487">
        <ele>108</ele>
        <time>2017-07-23T08:13:05.138Z</time>
      </trkpt>
      <trkpt lat="47.77372" lon="2.32493">
        <ele>108</ele>
        <time>2017-07-23T08:13:06.139Z</time>
      </trkpt>
      <trkpt lat="47.77366" lon="2.32496">
        <ele>108</ele>
        <time>2017-07-23T08:13:07.139Z</time>
      </trkpt>
      <trkpt lat="47.77366" lon="2.32496">
        <ele>108</ele>
        <time>2017-07-23T08:13:08.134Z</time>
      </trkpt>
      <trkpt lat="47.77355" lon="2.325">
        <ele>109</ele>
        <time>2017-07-23T08:13:09.136Z</time>
      </trkpt>
      <trkpt lat="47.77355" lon="2.325">
        <ele>109</ele>
        <time>2017-07-23T08:13:10.130Z</time>
      </trkpt>
      <trkpt lat="47.77344" lon="2.32504">
        <ele>110</ele>
        <time>2017-07-23T08:13:11.140Z</time>
      </trkpt>
      <trkpt lat="47.77344" lon="2.32504">
        <ele>110</ele>
        <time>2017-07-23T08:13:12.136Z</time>
      </trkpt>
      <trkpt lat="47.77332" lon="2.32508">
        <ele>111</ele>
        <time>2017-07-23T08:13:13.137Z</time>
      </trkpt>
      <trkpt lat="47.77326" lon="2.3251">
        <ele>111</ele>
        <time>2017-07-23T08:13:14.139Z</time>
      </trkpt>
      <trkpt lat="47.77326" lon="2.3251">
        <ele>111</ele>
        <time>2017-07-23T08:13:15.134Z</time>
      </trkpt>
      <trkpt lat="47.77315" lon="2.32514">
        <ele>111</ele>
        <time>2017-07-23T08:13:16.139Z</time>
      </trkpt>
      <trkpt lat="47.77315" lon="2.32514">
        <ele>111</ele>
        <time>2017-07-23T08:13:17.137Z</time>
      </trkpt>
      <trkpt lat="47.77304" lon="2.32519">
        <ele>112</ele>
        <time>2017-07-23T08:13:18.136Z</time>
      </trkpt>
      <trkpt lat="47.77298" lon="2.32522">
        <ele>112</ele>
        <time>2017-07-23T08:13:19.138Z</time>
      </trkpt>
      <trkpt lat="47.77298" lon="2.32522">
        <ele>112</ele>
        <time>2017-07-23T08:13:20.129Z</time>
      </trkpt>
      <trkpt lat="47.77287" lon="2.32528">
        <ele>112</ele>
        <time>2017-07-23T08:13:21.119Z</time>
      </trkpt>
      <trkpt lat="47.77282" lon="2.32531">
        <ele>111</ele>
        <time>2017-07-23T08:13:22.141Z</time>
      </trkpt>
      <trkpt lat="47.77276" lon="2.32534">
        <ele>111</ele>
        <time>2017-07-23T08:13:23.140Z</time>
      </trkpt>
      <trkpt lat="47.77276" lon="2.32534">
        <ele>111</ele>
        <time>2017-07-23T08:13:24.144Z</time>
      </trkpt>
      <trkpt lat="47.77266" lon="2.32541">
        <ele>111</ele>
        <time>2017-07-23T08:13:25.139Z</time>
      </trkpt>
      <trkpt lat="47.77266" lon="2.32541">
        <ele>111</ele>
        <time>2017-07-23T08:13:26.136Z</time>
      </trkpt>
      <trkpt lat="47.77255" lon="2.32547">
        <ele>111</ele>
        <time>2017-07-23T08:13:27.139Z</time>
      </trkpt>
      <trkpt lat="47.77255" lon="2.32547">
        <ele>111</ele>
        <time>2017-07-23T08:13:28.133Z</time>
      </trkpt>
      <trkpt lat="47.77245" lon="2.32554">
        <ele>112</ele>
        <time>2017-07-23T08:13:29.141Z</time>
      </trkpt>
      <trkpt lat="47.77245" lon="2.32554">
        <ele>112</ele>
        <time>2017-07-23T08:13:30.132Z</time>
      </trkpt>
      <trkpt lat="47.77235" lon="2.32562">
        <ele>112</ele>
        <time>2017-07-23T08:13:31.139Z</time>
      </trkpt>
      <trkpt lat="47.77235" lon="2.32562">
        <ele>112</ele>
        <time>2017-07-23T08:13:32.136Z</time>
      </trkpt>
      <trkpt lat="47.77225" lon="2.32571">
        <ele>112</ele>
        <time>2017-07-23T08:13:33.139Z</time>
      </trkpt>
      <trkpt lat="47.77225" lon="2.32571">
        <ele>112</ele>
        <time>2017-07-23T08:13:34.135Z</time>
      </trkpt>
      <trkpt lat="47.77215" lon="2.32579">
        <ele>112</ele>
        <time>2017-07-23T08:13:35.140Z</time>
      </trkpt>
      <trkpt lat="47.77215" lon="2.32579">
        <ele>112</ele>
        <time>2017-07-23T08:13:36.133Z</time>
      </trkpt>
      <trkpt lat="47.77205" lon="2.32587">
        <ele>112</ele>
        <time>2017-07-23T08:13:37.142Z</time>
      </trkpt>
      <trkpt lat="47.77205" lon="2.32587">
        <ele>112</ele>
        <time>2017-07-23T08:13:38.129Z</time>
      </trkpt>
      <trkpt lat="47.77194" lon="2.32595">
        <ele>112</ele>
        <time>2017-07-23T08:13:39.143Z</time>
      </trkpt>
      <trkpt lat="47.77194" lon="2.32595">
        <ele>112</ele>
        <time>2017-07-23T08:13:40.109Z</time>
      </trkpt>
      <trkpt lat="47.77184" lon="2.32604">
        <ele>113</ele>
        <time>2017-07-23T08:13:41.115Z</time>
      </trkpt>
      <trkpt lat="47.7718" lon="2.32609">
        <ele>113</ele>
        <time>2017-07-23T08:13:42.108Z</time>
      </trkpt>
      <trkpt lat="47.77175" lon="2.32614">
        <ele>113</ele>
        <time>2017-07-23T08:13:43.145Z</time>
      </trkpt>
      <trkpt lat="47.77175" lon="2.32614">
        <ele>113</ele>
        <time>2017-07-23T08:13:44.144Z</time>
      </trkpt>
      <trkpt lat="47.77164" lon="2.32624">
        <ele>113</ele>
        <time>2017-07-23T08:13:45.139Z</time>
      </trkpt>
      <trkpt lat="47.7716" lon="2.32629">
        <ele>113</ele>
        <time>2017-07-23T08:13:46.137Z</time>
      </trkpt>
      <trkpt lat="47.7716" lon="2.32629">
        <ele>113</ele>
        <time>2017-07-23T08:13:47.137Z</time>
      </trkpt>
      <trkpt lat="47.77152" lon="2.32638">
        <ele>113</ele>
        <time>2017-07-23T08:13:48.139Z</time>
      </trkpt>
      <trkpt lat="47.77148" lon="2.32643">
        <ele>113</ele>
        <time>2017-07-23T08:13:49.140Z</time>
      </trkpt>
      <trkpt lat="47.77148" lon="2.32643">
        <ele>113</ele>
        <time>2017-07-23T08:13:50.132Z</time>
      </trkpt>
      <trkpt lat="47.77139" lon="2.32653">
        <ele>113</ele>
        <time>2017-07-23T08:13:51.138Z</time>
      </trkpt>
      <trkpt lat="47.77139" lon="2.32653">
        <ele>113</ele>
        <time>2017-07-23T08:13:52.134Z</time>
      </trkpt>
      <trkpt lat="47.7713" lon="2.3266">
        <ele>113</ele>
        <time>2017-07-23T08:13:53.141Z</time>
      </trkpt>
      <trkpt lat="47.77125" lon="2.32664">
        <ele>113</ele>
        <time>2017-07-23T08:13:54.137Z</time>
      </trkpt>
      <trkpt lat="47.77125" lon="2.32664">
        <ele>113</ele>
        <time>2017-07-23T08:13:55.137Z</time>
      </trkpt>
      <trkpt lat="47.77117" lon="2.3267">
        <ele>114</ele>
        <time>2017-07-23T08:13:56.139Z</time>
      </trkpt>
      <trkpt lat="47.77117" lon="2.3267">
        <ele>114</ele>
        <time>2017-07-23T08:13:57.136Z</time>
      </trkpt>
      <trkpt lat="47.77108" lon="2.32674">
        <ele>114</ele>
        <time>2017-07-23T08:13:58.136Z</time>
      </trkpt>
      <trkpt lat="47.77103" lon="2.32675">
        <ele>114</ele>
        <time>2017-07-23T08:13:59.139Z</time>
      </trkpt>
      <trkpt lat="47.77103" lon="2.32675">
        <ele>114</ele>
        <time>2017-07-23T08:14:00.136Z</time>
      </trkpt>
      <trkpt lat="47.77094" lon="2.32677">
        <ele>114</ele>
        <time>2017-07-23T08:14:01.137Z</time>
      </trkpt>
      <trkpt lat="47.77094" lon="2.32677">
        <ele>114</ele>
        <time>2017-07-23T08:14:02.137Z</time>
      </trkpt>
      <trkpt lat="47.77094" lon="2.32677">
        <ele>114</ele>
        <time>2017-07-23T08:14:03.164Z</time>
      </trkpt>
      <trkpt lat="47.77083" lon="2.32679">
        <ele>115</ele>
        <time>2017-07-23T08:14:04.138Z</time>
      </trkpt>
      <trkpt lat="47.77071" lon="2.32683">
        <ele>115</ele>
        <time>2017-07-23T08:14:05.140Z</time>
      </trkpt>
      <trkpt lat="47.77071" lon="2.32683">
        <ele>115</ele>
        <time>2017-07-23T08:14:06.133Z</time>
      </trkpt>
      <trkpt lat="47.77059" lon="2.32687">
        <ele>115</ele>
        <time>2017-07-23T08:14:07.145Z</time>
      </trkpt>
      <trkpt lat="47.77059" lon="2.32687">
        <ele>115</ele>
        <time>2017-07-23T08:14:08.137Z</time>
      </trkpt>
      <trkpt lat="47.77049" lon="2.32692">
        <ele>115</ele>
        <time>2017-07-23T08:14:09.139Z</time>
      </trkpt>
      <trkpt lat="47.77049" lon="2.32692">
        <ele>115</ele>
        <time>2017-07-23T08:14:10.129Z</time>
      </trkpt>
      <trkpt lat="47.77038" lon="2.32698">
        <ele>115</ele>
        <time>2017-07-23T08:14:11.120Z</time>
      </trkpt>
      <trkpt lat="47.77038" lon="2.32698">
        <ele>115</ele>
        <time>2017-07-23T08:14:12.140Z</time>
      </trkpt>
      <trkpt lat="47.77023" lon="2.32704">
        <ele>115</ele>
        <time>2017-07-23T08:14:13.143Z</time>
      </trkpt>
      <trkpt lat="47.77023" lon="2.32704">
        <ele>115</ele>
        <time>2017-07-23T08:14:14.139Z</time>
      </trkpt>
      <trkpt lat="47.77012" lon="2.3271">
        <ele>114</ele>
        <time>2017-07-23T08:14:15.139Z</time>
      </trkpt>
      <trkpt lat="47.77006" lon="2.32713">
        <ele>114</ele>
        <time>2017-07-23T08:14:16.136Z</time>
      </trkpt>
      <trkpt lat="47.77" lon="2.32715">
        <ele>114</ele>
        <time>2017-07-23T08:14:17.141Z</time>
      </trkpt>
      <trkpt lat="47.77" lon="2.32715">
        <ele>114</ele>
        <time>2017-07-23T08:14:18.136Z</time>
      </trkpt>
      <trkpt lat="47.76989" lon="2.32721">
        <ele>114</ele>
        <time>2017-07-23T08:14:19.139Z</time>
      </trkpt>
      <trkpt lat="47.76989" lon="2.32721">
        <ele>114</ele>
        <time>2017-07-23T08:14:20.133Z</time>
      </trkpt>
      <trkpt lat="47.76978" lon="2.32727">
        <ele>114</ele>
        <time>2017-07-23T08:14:21.139Z</time>
      </trkpt>
      <trkpt lat="47.76978" lon="2.32727">
        <ele>114</ele>
        <time>2017-07-23T08:14:22.136Z</time>
      </trkpt>
      <trkpt lat="47.76966" lon="2.32733">
        <ele>115</ele>
        <time>2017-07-23T08:14:23.137Z</time>
      </trkpt>
      <trkpt lat="47.76966" lon="2.32733">
        <ele>115</ele>
        <time>2017-07-23T08:14:24.134Z</time>
      </trkpt>
      <trkpt lat="47.76955" lon="2.32741">
        <ele>115</ele>
        <time>2017-07-23T08:14:25.138Z</time>
      </trkpt>
      <trkpt lat="47.76955" lon="2.32741">
        <ele>115</ele>
        <time>2017-07-23T08:14:26.133Z</time>
      </trkpt>
      <trkpt lat="47.76944" lon="2.32746">
        <ele>115</ele>
        <time>2017-07-23T08:14:27.139Z</time>
      </trkpt>
      <trkpt lat="47.76944" lon="2.32746">
        <ele>115</ele>
        <time>2017-07-23T08:14:28.133Z</time>
      </trkpt>
      <trkpt lat="47.76934" lon="2.32752">
        <ele>115</ele>
        <time>2017-07-23T08:14:29.140Z</time>
      </trkpt>
      <trkpt lat="47.76934" lon="2.32752">
        <ele>115</ele>
        <time>2017-07-23T08:14:30.132Z</time>
      </trkpt>
      <trkpt lat="47.76923" lon="2.32752">
        <ele>114</ele>
        <time>2017-07-23T08:14:31.136Z</time>
      </trkpt>
      <trkpt lat="47.76917" lon="2.32753">
        <ele>114</ele>
        <time>2017-07-23T08:14:32.136Z</time>
      </trkpt>
      <trkpt lat="47.76917" lon="2.32753">
        <ele>114</ele>
        <time>2017-07-23T08:14:33.134Z</time>
      </trkpt>
      <trkpt lat="47.76906" lon="2.32754">
        <ele>114</ele>
        <time>2017-07-23T08:14:34.140Z</time>
      </trkpt>
      <trkpt lat="47.76902" lon="2.32754">
        <ele>114</ele>
        <time>2017-07-23T08:14:35.140Z</time>
      </trkpt>
      <trkpt lat="47.76902" lon="2.32754">
        <ele>114</ele>
        <time>2017-07-23T08:14:36.133Z</time>
      </trkpt>
      <trkpt lat="47.76891" lon="2.32754">
        <ele>113</ele>
        <time>2017-07-23T08:14:37.141Z</time>
      </trkpt>
      <trkpt lat="47.76891" lon="2.32754">
        <ele>113</ele>
        <time>2017-07-23T08:14:38.111Z</time>
      </trkpt>
      <trkpt lat="47.76882" lon="2.32754">
        <ele>113</ele>
        <time>2017-07-23T08:14:39.146Z</time>
      </trkpt>
      <trkpt lat="47.76882" lon="2.32754">
        <ele>113</ele>
        <time>2017-07-23T08:14:40.112Z</time>
      </trkpt>
      <trkpt lat="47.76869" lon="2.32755">
        <ele>113</ele>
        <time>2017-07-23T08:14:41.144Z</time>
      </trkpt>
      <trkpt lat="47.76869" lon="2.32755">
        <ele>113</ele>
        <time>2017-07-23T08:14:42.143Z</time>
      </trkpt>
      <trkpt lat="47.76854" lon="2.32757">
        <ele>113</ele>
        <time>2017-07-23T08:14:43.140Z</time>
      </trkpt>
      <trkpt lat="47.76854" lon="2.32757">
        <ele>113</ele>
        <time>2017-07-23T08:14:44.146Z</time>
      </trkpt>
      <trkpt lat="47.76841" lon="2.32756">
        <ele>113</ele>
        <time>2017-07-23T08:14:45.136Z</time>
      </trkpt>
      <trkpt lat="47.76841" lon="2.32756">
        <ele>113</ele>
        <time>2017-07-23T08:14:46.136Z</time>
      </trkpt>
      <trkpt lat="47.76828" lon="2.32757">
        <ele>113</ele>
        <time>2017-07-23T08:14:47.141Z</time>
      </trkpt>
      <trkpt lat="47.76828" lon="2.32757">
        <ele>113</ele>
        <time>2017-07-23T08:14:48.137Z</time>
      </trkpt>
      <trkpt lat="47.76815" lon="2.32758">
        <ele>113</ele>
        <time>2017-07-23T08:14:49.140Z</time>
      </trkpt>
      <trkpt lat="47.76815" lon="2.32758">
        <ele>113</ele>
        <time>2017-07-23T08:14:50.135Z</time>
      </trkpt>
      <trkpt lat="47.76804" lon="2.32758">
        <ele>113</ele>
        <time>2017-07-23T08:14:51.138Z</time>
      </trkpt>
      <trkpt lat="47.76799" lon="2.32758">
        <ele>114</ele>
        <time>2017-07-23T08:14:52.139Z</time>
      </trkpt>
      <trkpt lat="47.76793" lon="2.32758">
        <ele>114</ele>
        <time>2017-07-23T08:14:53.140Z</time>
      </trkpt>
      <trkpt lat="47.76793" lon="2.32758">
        <ele>114</ele>
        <time>2017-07-23T08:14:54.134Z</time>
      </trkpt>
      <trkpt lat="47.76782" lon="2.32759">
        <ele>114</ele>
        <time>2017-07-23T08:14:55.140Z</time>
      </trkpt>
      <trkpt lat="47.76782" lon="2.32759">
        <ele>114</ele>
        <time>2017-07-23T08:14:56.125Z</time>
      </trkpt>
      <trkpt lat="47.76771" lon="2.3276">
        <ele>114</ele>
        <time>2017-07-23T08:14:57.113Z</time>
      </trkpt>
      <trkpt lat="47.76765" lon="2.3276">
        <ele>114</ele>
        <time>2017-07-23T08:14:58.108Z</time>
      </trkpt>
      <trkpt lat="47.76759" lon="2.3276">
        <ele>114</ele>
        <time>2017-07-23T08:14:59.141Z</time>
      </trkpt>
      <trkpt lat="47.76759" lon="2.3276">
        <ele>114</ele>
        <time>2017-07-23T08:15:00.125Z</time>
      </trkpt>
      <trkpt lat="47.76747" lon="2.32762">
        <ele>114</ele>
        <time>2017-07-23T08:15:01.132Z</time>
      </trkpt>
      <trkpt lat="47.76741" lon="2.32762">
        <ele>114</ele>
        <time>2017-07-23T08:15:02.140Z</time>
      </trkpt>
      <trkpt lat="47.76741" lon="2.32762">
        <ele>114</ele>
        <time>2017-07-23T08:15:03.136Z</time>
      </trkpt>
      <trkpt lat="47.76729" lon="2.32763">
        <ele>114</ele>
        <time>2017-07-23T08:15:04.142Z</time>
      </trkpt>
      <trkpt lat="47.76724" lon="2.32763">
        <ele>114</ele>
        <time>2017-07-23T08:15:05.141Z</time>
      </trkpt>
      <trkpt lat="47.76718" lon="2.3276">
        <ele>114</ele>
        <time>2017-07-23T08:15:06.143Z</time>
      </trkpt>
      <trkpt lat="47.76713" lon="2.32756">
        <ele>114</ele>
        <time>2017-07-23T08:15:07.140Z</time>
      </trkpt>
      <trkpt lat="47.76713" lon="2.32756">
        <ele>114</ele>
        <time>2017-07-23T08:15:08.136Z</time>
      </trkpt>
      <trkpt lat="47.76706" lon="2.32744">
        <ele>115</ele>
        <time>2017-07-23T08:15:09.140Z</time>
      </trkpt>
      <trkpt lat="47.76706" lon="2.32744">
        <ele>115</ele>
        <time>2017-07-23T08:15:10.131Z</time>
      </trkpt>
      <trkpt lat="47.76699" lon="2.32732">
        <ele>117</ele>
        <time>2017-07-23T08:15:11.141Z</time>
      </trkpt>
      <trkpt lat="47.76699" lon="2.32732">
        <ele>117</ele>
        <time>2017-07-23T08:15:12.134Z</time>
      </trkpt>
      <trkpt lat="47.76693" lon="2.3272">
        <ele>117</ele>
        <time>2017-07-23T08:15:13.140Z</time>
      </trkpt>
      <trkpt lat="47.76693" lon="2.3272">
        <ele>117</ele>
        <time>2017-07-23T08:15:14.136Z</time>
      </trkpt>
      <trkpt lat="47.76684" lon="2.32707">
        <ele>118</ele>
        <time>2017-07-23T08:15:15.139Z</time>
      </trkpt>
      <trkpt lat="47.76684" lon="2.32707">
        <ele>118</ele>
        <time>2017-07-23T08:15:16.134Z</time>
      </trkpt>
      <trkpt lat="47.76676" lon="2.32693">
        <ele>118</ele>
        <time>2017-07-23T08:15:17.141Z</time>
      </trkpt>
      <trkpt lat="47.76676" lon="2.32693">
        <ele>118</ele>
        <time>2017-07-23T08:15:18.136Z</time>
      </trkpt>
      <trkpt lat="47.76668" lon="2.32679">
        <ele>118</ele>
        <time>2017-07-23T08:15:19.137Z</time>
      </trkpt>
      <trkpt lat="47.76668" lon="2.32679">
        <ele>118</ele>
        <time>2017-07-23T08:15:20.130Z</time>
      </trkpt>
      <trkpt lat="47.76661" lon="2.32664">
        <ele>116</ele>
        <time>2017-07-23T08:15:21.120Z</time>
      </trkpt>
      <trkpt lat="47.76661" lon="2.32664">
        <ele>116</ele>
        <time>2017-07-23T08:15:22.111Z</time>
      </trkpt>
      <trkpt lat="47.76654" lon="2.32649">
        <ele>116</ele>
        <time>2017-07-23T08:15:23.141Z</time>
      </trkpt>
      <trkpt lat="47.76654" lon="2.32649">
        <ele>116</ele>
        <time>2017-07-23T08:15:24.137Z</time>
      </trkpt>
      <trkpt lat="47.76646" lon="2.32634">
        <ele>115</ele>
        <time>2017-07-23T08:15:25.140Z</time>
      </trkpt>
      <trkpt lat="47.76646" lon="2.32634">
        <ele>115</ele>
        <time>2017-07-23T08:15:26.136Z</time>
      </trkpt>
      <trkpt lat="47.76638" lon="2.32619">
        <ele>115</ele>
        <time>2017-07-23T08:15:27.138Z</time>
      </trkpt>
      <trkpt lat="47.76638" lon="2.32619">
        <ele>115</ele>
        <time>2017-07-23T08:15:28.137Z</time>
      </trkpt>
      <trkpt lat="47.76631" lon="2.32604">
        <ele>115</ele>
        <time>2017-07-23T08:15:29.140Z</time>
      </trkpt>
      <trkpt lat="47.76631" lon="2.32604">
        <ele>115</ele>
        <time>2017-07-23T08:15:30.133Z</time>
      </trkpt>
      <trkpt lat="47.76624" lon="2.32589">
        <ele>116</ele>
        <time>2017-07-23T08:15:31.137Z</time>
      </trkpt>
      <trkpt lat="47.76624" lon="2.32589">
        <ele>116</ele>
        <time>2017-07-23T08:15:32.133Z</time>
      </trkpt>
      <trkpt lat="47.76617" lon="2.32573">
        <ele>116</ele>
        <time>2017-07-23T08:15:33.139Z</time>
      </trkpt>
      <trkpt lat="47.76617" lon="2.32573">
        <ele>116</ele>
        <time>2017-07-23T08:15:34.135Z</time>
      </trkpt>
      <trkpt lat="47.76617" lon="2.32573">
        <ele>116</ele>
        <time>2017-07-23T08:15:35.111Z</time>
      </trkpt>
      <trkpt lat="47.7661" lon="2.32558">
        <ele>116</ele>
        <time>2017-07-23T08:15:36.137Z</time>
      </trkpt>
      <trkpt lat="47.76606" lon="2.32541">
        <ele>116</ele>
        <time>2017-07-23T08:15:37.140Z</time>
      </trkpt>
      <trkpt lat="47.76606" lon="2.32541">
        <ele>116</ele>
        <time>2017-07-23T08:15:38.136Z</time>
      </trkpt>
      <trkpt lat="47.76606" lon="2.32524">
        <ele>116</ele>
        <time>2017-07-23T08:15:39.140Z</time>
      </trkpt>
      <trkpt lat="47.76606" lon="2.32524">
        <ele>116</ele>
        <time>2017-07-23T08:15:40.133Z</time>
      </trkpt>
      <trkpt lat="47.76611" lon="2.32511">
        <ele>116</ele>
        <time>2017-07-23T08:15:41.121Z</time>
      </trkpt>
      <trkpt lat="47.76614" lon="2.32506">
        <ele>116</ele>
        <time>2017-07-23T08:15:42.113Z</time>
      </trkpt>
      <trkpt lat="47.76614" lon="2.32506">
        <ele>116</ele>
        <time>2017-07-23T08:15:43.144Z</time>
      </trkpt>
      <trkpt lat="47.7662" lon="2.32497">
        <ele>116</ele>
        <time>2017-07-23T08:15:44.139Z</time>
      </trkpt>
      <trkpt lat="47.7662" lon="2.32497">
        <ele>116</ele>
        <time>2017-07-23T08:15:45.136Z</time>
      </trkpt>
      <trkpt lat="47.76626" lon="2.32486">
        <ele>117</ele>
        <time>2017-07-23T08:15:46.140Z</time>
      </trkpt>
      <trkpt lat="47.76629" lon="2.3248">
        <ele>116</ele>
        <time>2017-07-23T08:15:47.140Z</time>
      </trkpt>
      <trkpt lat="47.76629" lon="2.3248">
        <ele>116</ele>
        <time>2017-07-23T08:15:48.135Z</time>
      </trkpt>
      <trkpt lat="47.76634" lon="2.32464">
        <ele>116</ele>
        <time>2017-07-23T08:15:49.138Z</time>
      </trkpt>
      <trkpt lat="47.76634" lon="2.32464">
        <ele>116</ele>
        <time>2017-07-23T08:15:50.130Z</time>
      </trkpt>
      <trkpt lat="47.76638" lon="2.32448">
        <ele>116</ele>
        <time>2017-07-23T08:15:51.111Z</time>
      </trkpt>
      <trkpt lat="47.76638" lon="2.32448">
        <ele>116</ele>
        <time>2017-07-23T08:15:52.142Z</time>
      </trkpt>
      <trkpt lat="47.76641" lon="2.32427">
        <ele>117</ele>
        <time>2017-07-23T08:15:53.140Z</time>
      </trkpt>
      <trkpt lat="47.76641" lon="2.32427">
        <ele>117</ele>
        <time>2017-07-23T08:15:54.134Z</time>
      </trkpt>
      <trkpt lat="47.76642" lon="2.32406">
        <ele>118</ele>
        <time>2017-07-23T08:15:55.140Z</time>
      </trkpt>
      <trkpt lat="47.76642" lon="2.32406">
        <ele>118</ele>
        <time>2017-07-23T08:15:56.136Z</time>
      </trkpt>
      <trkpt lat="47.76639" lon="2.32387">
        <ele>117</ele>
        <time>2017-07-23T08:15:57.139Z</time>
      </trkpt>
      <trkpt lat="47.76639" lon="2.32387">
        <ele>117</ele>
        <time>2017-07-23T08:15:58.137Z</time>
      </trkpt>
      <trkpt lat="47.76634" lon="2.3237">
        <ele>117</ele>
        <time>2017-07-23T08:15:59.141Z</time>
      </trkpt>
      <trkpt lat="47.76634" lon="2.3237">
        <ele>117</ele>
        <time>2017-07-23T08:16:00.133Z</time>
      </trkpt>
      <trkpt lat="47.76628" lon="2.32353">
        <ele>117</ele>
        <time>2017-07-23T08:16:01.140Z</time>
      </trkpt>
      <trkpt lat="47.76628" lon="2.32353">
        <ele>117</ele>
        <time>2017-07-23T08:16:02.137Z</time>
      </trkpt>
      <trkpt lat="47.76623" lon="2.32337">
        <ele>116</ele>
        <time>2017-07-23T08:16:03.139Z</time>
      </trkpt>
      <trkpt lat="47.76623" lon="2.32337">
        <ele>116</ele>
        <time>2017-07-23T08:16:04.134Z</time>
      </trkpt>
      <trkpt lat="47.76617" lon="2.32321">
        <ele>116</ele>
        <time>2017-07-23T08:16:05.140Z</time>
      </trkpt>
      <trkpt lat="47.76617" lon="2.32321">
        <ele>116</ele>
        <time>2017-07-23T08:16:06.137Z</time>
      </trkpt>
      <trkpt lat="47.76611" lon="2.32304">
        <ele>115</ele>
        <time>2017-07-23T08:16:07.137Z</time>
      </trkpt>
      <trkpt lat="47.76611" lon="2.32304">
        <ele>115</ele>
        <time>2017-07-23T08:16:08.133Z</time>
      </trkpt>
      <trkpt lat="47.76604" lon="2.32288">
        <ele>115</ele>
        <time>2017-07-23T08:16:09.138Z</time>
      </trkpt>
      <trkpt lat="47.76604" lon="2.32288">
        <ele>115</ele>
        <time>2017-07-23T08:16:10.131Z</time>
      </trkpt>
      <trkpt lat="47.76598" lon="2.32272">
        <ele>115</ele>
        <time>2017-07-23T08:16:11.141Z</time>
      </trkpt>
      <trkpt lat="47.76598" lon="2.32272">
        <ele>115</ele>
        <time>2017-07-23T08:16:12.137Z</time>
      </trkpt>
      <trkpt lat="47.76592" lon="2.32256">
        <ele>115</ele>
        <time>2017-07-23T08:16:13.139Z</time>
      </trkpt>
      <trkpt lat="47.76592" lon="2.32256">
        <ele>115</ele>
        <time>2017-07-23T08:16:14.137Z</time>
      </trkpt>
      <trkpt lat="47.76587" lon="2.32241">
        <ele>115</ele>
        <time>2017-07-23T08:16:15.116Z</time>
      </trkpt>
      <trkpt lat="47.76583" lon="2.32233">
        <ele>114</ele>
        <time>2017-07-23T08:16:16.110Z</time>
      </trkpt>
      <trkpt lat="47.76583" lon="2.32233">
        <ele>114</ele>
        <time>2017-07-23T08:16:17.138Z</time>
      </trkpt>
      <trkpt lat="47.76577" lon="2.32218">
        <ele>114</ele>
        <time>2017-07-23T08:16:18.139Z</time>
      </trkpt>
      <trkpt lat="47.76574" lon="2.3221">
        <ele>115</ele>
        <time>2017-07-23T08:16:19.140Z</time>
      </trkpt>
      <trkpt lat="47.76574" lon="2.3221">
        <ele>115</ele>
        <time>2017-07-23T08:16:20.142Z</time>
      </trkpt>
      <trkpt lat="47.76568" lon="2.32194">
        <ele>115</ele>
        <time>2017-07-23T08:16:21.138Z</time>
      </trkpt>
      <trkpt lat="47.76568" lon="2.32194">
        <ele>115</ele>
        <time>2017-07-23T08:16:22.133Z</time>
      </trkpt>
      <trkpt lat="47.76562" lon="2.32178">
        <ele>115</ele>
        <time>2017-07-23T08:16:23.140Z</time>
      </trkpt>
      <trkpt lat="47.76562" lon="2.32178">
        <ele>115</ele>
        <time>2017-07-23T08:16:24.136Z</time>
      </trkpt>
      <trkpt lat="47.76555" lon="2.32162">
        <ele>115</ele>
        <time>2017-07-23T08:16:25.140Z</time>
      </trkpt>
      <trkpt lat="47.76555" lon="2.32162">
        <ele>115</ele>
        <time>2017-07-23T08:16:26.134Z</time>
      </trkpt>
      <trkpt lat="47.76549" lon="2.32146">
        <ele>115</ele>
        <time>2017-07-23T08:16:27.136Z</time>
      </trkpt>
      <trkpt lat="47.76549" lon="2.32146">
        <ele>115</ele>
        <time>2017-07-23T08:16:28.136Z</time>
      </trkpt>
      <trkpt lat="47.76543" lon="2.32131">
        <ele>115</ele>
        <time>2017-07-23T08:16:29.141Z</time>
      </trkpt>
      <trkpt lat="47.76543" lon="2.32131">
        <ele>115</ele>
        <time>2017-07-23T08:16:30.133Z</time>
      </trkpt>
      <trkpt lat="47.76537" lon="2.32116">
        <ele>115</ele>
        <time>2017-07-23T08:16:31.140Z</time>
      </trkpt>
      <trkpt lat="47.76537" lon="2.32116">
        <ele>115</ele>
        <time>2017-07-23T08:16:32.136Z</time>
      </trkpt>
      <trkpt lat="47.76531" lon="2.32101">
        <ele>115</ele>
        <time>2017-07-23T08:16:33.139Z</time>
      </trkpt>
      <trkpt lat="47.76528" lon="2.32094">
        <ele>115</ele>
        <time>2017-07-23T08:16:34.140Z</time>
      </trkpt>
      <trkpt lat="47.76528" lon="2.32094">
        <ele>115</ele>
        <time>2017-07-23T08:16:35.135Z</time>
      </trkpt>
      <trkpt lat="47.76522" lon="2.32081">
        <ele>116</ele>
        <time>2017-07-23T08:16:36.140Z</time>
      </trkpt>
      <trkpt lat="47.76522" lon="2.32081">
        <ele>116</ele>
        <time>2017-07-23T08:16:37.137Z</time>
      </trkpt>
      <trkpt lat="47.76516" lon="2.3207">
        <ele>116</ele>
        <time>2017-07-23T08:16:38.139Z</time>
      </trkpt>
      <trkpt lat="47.76516" lon="2.3207">
        <ele>116</ele>
        <time>2017-07-23T08:16:39.137Z</time>
      </trkpt>
      <trkpt lat="47.76512" lon="2.3206">
        <ele>116</ele>
        <time>2017-07-23T08:16:40.131Z</time>
      </trkpt>
      <trkpt lat="47.76513" lon="2.32055">
        <ele>117</ele>
        <time>2017-07-23T08:16:41.115Z</time>
      </trkpt>
      <trkpt lat="47.76513" lon="2.32055">
        <ele>117</ele>
        <time>2017-07-23T08:16:42.143Z</time>
      </trkpt>
      <trkpt lat="47.76518" lon="2.32055">
        <ele>117</ele>
        <time>2017-07-23T08:16:43.141Z</time>
      </trkpt>
      <trkpt lat="47.76518" lon="2.32055">
        <ele>117</ele>
        <time>2017-07-23T08:16:44.134Z</time>
      </trkpt>
      <trkpt lat="47.76524" lon="2.32064">
        <ele>116</ele>
        <time>2017-07-23T08:16:45.137Z</time>
      </trkpt>
      <trkpt lat="47.76527" lon="2.3207">
        <ele>116</ele>
        <time>2017-07-23T08:16:46.139Z</time>
      </trkpt>
      <trkpt lat="47.76529" lon="2.32076">
        <ele>116</ele>
        <time>2017-07-23T08:16:47.142Z</time>
      </trkpt>
      <trkpt lat="47.76529" lon="2.32076">
        <ele>116</ele>
        <time>2017-07-23T08:16:48.134Z</time>
      </trkpt>
      <trkpt lat="47.76535" lon="2.32088">
        <ele>116</ele>
        <time>2017-07-23T08:16:49.140Z</time>
      </trkpt>
      <trkpt lat="47.76535" lon="2.32088">
        <ele>116</ele>
        <time>2017-07-23T08:16:50.133Z</time>
      </trkpt>
      <trkpt lat="47.7654" lon="2.321">
        <ele>116</ele>
        <time>2017-07-23T08:16:51.139Z</time>
      </trkpt>
      <trkpt lat="47.7654" lon="2.321">
        <ele>116</ele>
        <time>2017-07-23T08:16:52.137Z</time>
      </trkpt>
      <trkpt lat="47.76545" lon="2.32113">
        <ele>115</ele>
        <time>2017-07-23T08:16:53.141Z</time>
      </trkpt>
      <trkpt lat="47.76545" lon="2.32113">
        <ele>115</ele>
        <time>2017-07-23T08:16:54.136Z</time>
      </trkpt>
      <trkpt lat="47.76551" lon="2.32127">
        <ele>115</ele>
        <time>2017-07-23T08:16:55.142Z</time>
      </trkpt>
      <trkpt lat="47.76554" lon="2.32133">
        <ele>114</ele>
        <time>2017-07-23T08:16:56.140Z</time>
      </trkpt>
      <trkpt lat="47.76554" lon="2.32133">
        <ele>114</ele>
        <time>2017-07-23T08:16:57.134Z</time>
      </trkpt>
      <trkpt lat="47.76559" lon="2.32147">
        <ele>114</ele>
        <time>2017-07-23T08:16:58.140Z</time>
      </trkpt>
      <trkpt lat="47.76562" lon="2.32154">
        <ele>114</ele>
        <time>2017-07-23T08:16:59.141Z</time>
      </trkpt>
      <trkpt lat="47.76562" lon="2.32154">
        <ele>114</ele>
        <time>2017-07-23T08:17:00.133Z</time>
      </trkpt>
      <trkpt lat="47.76568" lon="2.32169">
        <ele>114</ele>
        <time>2017-07-23T08:17:01.140Z</time>
      </trkpt>
      <trkpt lat="47.76568" lon="2.32169">
        <ele>114</ele>
        <time>2017-07-23T08:17:02.134Z</time>
      </trkpt>
      <trkpt lat="47.76574" lon="2.32183">
        <ele>114</ele>
        <time>2017-07-23T08:17:03.138Z</time>
      </trkpt>
      <trkpt lat="47.76574" lon="2.32183">
        <ele>114</ele>
        <time>2017-07-23T08:17:04.136Z</time>
      </trkpt>
      <trkpt lat="47.7658" lon="2.32197">
        <ele>114</ele>
        <time>2017-07-23T08:17:05.141Z</time>
      </trkpt>
      <trkpt lat="47.7658" lon="2.32197">
        <ele>114</ele>
        <time>2017-07-23T08:17:06.142Z</time>
      </trkpt>
      <trkpt lat="47.76586" lon="2.32211">
        <ele>114</ele>
        <time>2017-07-23T08:17:07.140Z</time>
      </trkpt>
      <trkpt lat="47.76586" lon="2.32211">
        <ele>114</ele>
        <time>2017-07-23T08:17:08.136Z</time>
      </trkpt>
      <trkpt lat="47.76592" lon="2.32225">
        <ele>113</ele>
        <time>2017-07-23T08:17:09.139Z</time>
      </trkpt>
      <trkpt lat="47.76592" lon="2.32225">
        <ele>113</ele>
        <time>2017-07-23T08:17:10.112Z</time>
      </trkpt>
      <trkpt lat="47.76597" lon="2.32239">
        <ele>113</ele>
        <time>2017-07-23T08:17:11.143Z</time>
      </trkpt>
      <trkpt lat="47.76597" lon="2.32239">
        <ele>113</ele>
        <time>2017-07-23T08:17:12.136Z</time>
      </trkpt>
      <trkpt lat="47.76604" lon="2.32254">
        <ele>113</ele>
        <time>2017-07-23T08:17:13.140Z</time>
      </trkpt>
      <trkpt lat="47.76604" lon="2.32254">
        <ele>113</ele>
        <time>2017-07-23T08:17:14.137Z</time>
      </trkpt>
      <trkpt lat="47.7661" lon="2.32269">
        <ele>113</ele>
        <time>2017-07-23T08:17:15.139Z</time>
      </trkpt>
      <trkpt lat="47.76613" lon="2.32277">
        <ele>113</ele>
        <time>2017-07-23T08:17:16.144Z</time>
      </trkpt>
      <trkpt lat="47.76613" lon="2.32277">
        <ele>113</ele>
        <time>2017-07-23T08:17:17.139Z</time>
      </trkpt>
      <trkpt lat="47.7662" lon="2.32292">
        <ele>112</ele>
        <time>2017-07-23T08:17:18.139Z</time>
      </trkpt>
      <trkpt lat="47.76623" lon="2.323">
        <ele>112</ele>
        <time>2017-07-23T08:17:19.140Z</time>
      </trkpt>
      <trkpt lat="47.76623" lon="2.323">
        <ele>112</ele>
        <time>2017-07-23T08:17:20.134Z</time>
      </trkpt>
      <trkpt lat="47.7663" lon="2.32316">
        <ele>112</ele>
        <time>2017-07-23T08:17:21.140Z</time>
      </trkpt>
      <trkpt lat="47.7663" lon="2.32316">
        <ele>112</ele>
        <time>2017-07-23T08:17:22.136Z</time>
      </trkpt>
      <trkpt lat="47.76636" lon="2.32331">
        <ele>111</ele>
        <time>2017-07-23T08:17:23.138Z</time>
      </trkpt>
      <trkpt lat="47.76636" lon="2.32331">
        <ele>111</ele>
        <time>2017-07-23T08:17:24.134Z</time>
      </trkpt>
      <trkpt lat="47.76642" lon="2.32345">
        <ele>111</ele>
        <time>2017-07-23T08:17:25.140Z</time>
      </trkpt>
      <trkpt lat="47.76642" lon="2.32345">
        <ele>111</ele>
        <time>2017-07-23T08:17:26.137Z</time>
      </trkpt>
      <trkpt lat="47.76648" lon="2.32362">
        <ele>111</ele>
        <time>2017-07-23T08:17:27.140Z</time>
      </trkpt>
      <trkpt lat="47.76648" lon="2.32362">
        <ele>111</ele>
        <time>2017-07-23T08:17:28.134Z</time>
      </trkpt>
      <trkpt lat="47.76654" lon="2.32379">
        <ele>110</ele>
        <time>2017-07-23T08:17:29.140Z</time>
      </trkpt>
      <trkpt lat="47.76654" lon="2.32379">
        <ele>110</ele>
        <time>2017-07-23T08:17:30.133Z</time>
      </trkpt>
      <trkpt lat="47.76661" lon="2.32396">
        <ele>110</ele>
        <time>2017-07-23T08:17:31.139Z</time>
      </trkpt>
      <trkpt lat="47.76664" lon="2.32404">
        <ele>110</ele>
        <time>2017-07-23T08:17:32.137Z</time>
      </trkpt>
      <trkpt lat="47.76668" lon="2.32412">
        <ele>110</ele>
        <time>2017-07-23T08:17:33.137Z</time>
      </trkpt>
      <trkpt lat="47.76668" lon="2.32412">
        <ele>110</ele>
        <time>2017-07-23T08:17:34.138Z</time>
      </trkpt>
      <trkpt lat="47.76677" lon="2.32424">
        <ele>110</ele>
        <time>2017-07-23T08:17:35.142Z</time>
      </trkpt>
      <trkpt lat="47.76677" lon="2.32424">
        <ele>110</ele>
        <time>2017-07-23T08:17:36.140Z</time>
      </trkpt>
      <trkpt lat="47.76687" lon="2.32434">
        <ele>110</ele>
        <time>2017-07-23T08:17:37.141Z</time>
      </trkpt>
      <trkpt lat="47.76687" lon="2.32434">
        <ele>110</ele>
        <time>2017-07-23T08:17:38.128Z</time>
      </trkpt>
      <trkpt lat="47.76699" lon="2.32441">
        <ele>111</ele>
        <time>2017-07-23T08:17:39.141Z</time>
      </trkpt>
      <trkpt lat="47.76704" lon="2.32443">
        <ele>111</ele>
        <time>2017-07-23T08:17:40.110Z</time>
      </trkpt>
      <trkpt lat="47.7671" lon="2.32446">
        <ele>111</ele>
        <time>2017-07-23T08:17:41.140Z</time>
      </trkpt>
      <trkpt lat="47.7671" lon="2.32446">
        <ele>111</ele>
        <time>2017-07-23T08:17:42.137Z</time>
      </trkpt>
      <trkpt lat="47.76721" lon="2.32454">
        <ele>112</ele>
        <time>2017-07-23T08:17:43.140Z</time>
      </trkpt>
      <trkpt lat="47.76721" lon="2.32454">
        <ele>112</ele>
        <time>2017-07-23T08:17:44.112Z</time>
      </trkpt>
      <trkpt lat="47.76731" lon="2.32463">
        <ele>112</ele>
        <time>2017-07-23T08:17:45.145Z</time>
      </trkpt>
      <trkpt lat="47.76731" lon="2.32463">
        <ele>112</ele>
        <time>2017-07-23T08:17:46.136Z</time>
      </trkpt>
      <trkpt lat="47.76743" lon="2.32471">
        <ele>112</ele>
        <time>2017-07-23T08:17:47.141Z</time>
      </trkpt>
      <trkpt lat="47.76743" lon="2.32471">
        <ele>112</ele>
        <time>2017-07-23T08:17:48.137Z</time>
      </trkpt>
      <trkpt lat="47.76754" lon="2.32475">
        <ele>112</ele>
        <time>2017-07-23T08:17:49.141Z</time>
      </trkpt>
      <trkpt lat="47.76754" lon="2.32475">
        <ele>112</ele>
        <time>2017-07-23T08:17:50.134Z</time>
      </trkpt>
      <trkpt lat="47.76765" lon="2.32475">
        <ele>112</ele>
        <time>2017-07-23T08:17:51.139Z</time>
      </trkpt>
      <trkpt lat="47.7677" lon="2.32472">
        <ele>112</ele>
        <time>2017-07-23T08:17:52.140Z</time>
      </trkpt>
      <trkpt lat="47.76774" lon="2.32467">
        <ele>113</ele>
        <time>2017-07-23T08:17:53.140Z</time>
      </trkpt>
      <trkpt lat="47.76774" lon="2.32467">
        <ele>113</ele>
        <time>2017-07-23T08:17:54.136Z</time>
      </trkpt>
      <trkpt lat="47.76781" lon="2.32457">
        <ele>113</ele>
        <time>2017-07-23T08:17:55.140Z</time>
      </trkpt>
      <trkpt lat="47.76781" lon="2.32457">
        <ele>113</ele>
        <time>2017-07-23T08:17:56.134Z</time>
      </trkpt>
      <trkpt lat="47.76789" lon="2.32446">
        <ele>113</ele>
        <time>2017-07-23T08:17:57.137Z</time>
      </trkpt>
      <trkpt lat="47.76789" lon="2.32446">
        <ele>113</ele>
        <time>2017-07-23T08:17:58.136Z</time>
      </trkpt>
      <trkpt lat="47.76797" lon="2.32436">
        <ele>113</ele>
        <time>2017-07-23T08:17:59.142Z</time>
      </trkpt>
      <trkpt lat="47.76797" lon="2.32436">
        <ele>113</ele>
        <time>2017-07-23T08:18:00.134Z</time>
      </trkpt>
      <trkpt lat="47.76805" lon="2.32424">
        <ele>113</ele>
        <time>2017-07-23T08:18:01.142Z</time>
      </trkpt>
      <trkpt lat="47.76809" lon="2.32418">
        <ele>113</ele>
        <time>2017-07-23T08:18:02.140Z</time>
      </trkpt>
      <trkpt lat="47.76809" lon="2.32418">
        <ele>113</ele>
        <time>2017-07-23T08:18:03.136Z</time>
      </trkpt>
      <trkpt lat="47.76817" lon="2.32407">
        <ele>114</ele>
        <time>2017-07-23T08:18:04.139Z</time>
      </trkpt>
      <trkpt lat="47.76821" lon="2.32402">
        <ele>114</ele>
        <time>2017-07-23T08:18:05.143Z</time>
      </trkpt>
      <trkpt lat="47.76821" lon="2.32402">
        <ele>114</ele>
        <time>2017-07-23T08:18:06.139Z</time>
      </trkpt>
      <trkpt lat="47.76829" lon="2.32392">
        <ele>114</ele>
        <time>2017-07-23T08:18:07.142Z</time>
      </trkpt>
      <trkpt lat="47.76829" lon="2.32392">
        <ele>114</ele>
        <time>2017-07-23T08:18:08.136Z</time>
      </trkpt>
      <trkpt lat="47.76835" lon="2.32383">
        <ele>114</ele>
        <time>2017-07-23T08:18:09.139Z</time>
      </trkpt>
      <trkpt lat="47.76835" lon="2.32383">
        <ele>114</ele>
        <time>2017-07-23T08:18:10.130Z</time>
      </trkpt>
      <trkpt lat="47.76841" lon="2.32372">
        <ele>114</ele>
        <time>2017-07-23T08:18:11.152Z</time>
      </trkpt>
      <trkpt lat="47.76845" lon="2.32366">
        <ele>114</ele>
        <time>2017-07-23T08:18:12.141Z</time>
      </trkpt>
      <trkpt lat="47.76845" lon="2.32366">
        <ele>114</ele>
        <time>2017-07-23T08:18:13.138Z</time>
      </trkpt>
      <trkpt lat="47.76854" lon="2.32354">
        <ele>114</ele>
        <time>2017-07-23T08:18:14.139Z</time>
      </trkpt>
      <trkpt lat="47.76857" lon="2.32348">
        <ele>114</ele>
        <time>2017-07-23T08:18:15.140Z</time>
      </trkpt>
      <trkpt lat="47.76857" lon="2.32348">
        <ele>114</ele>
        <time>2017-07-23T08:18:16.134Z</time>
      </trkpt>
      <trkpt lat="47.76866" lon="2.32336">
        <ele>114</ele>
        <time>2017-07-23T08:18:17.141Z</time>
      </trkpt>
      <trkpt lat="47.76866" lon="2.32336">
        <ele>114</ele>
        <time>2017-07-23T08:18:18.137Z</time>
      </trkpt>
      <trkpt lat="47.76875" lon="2.32325">
        <ele>115</ele>
        <time>2017-07-23T08:18:19.138Z</time>
      </trkpt>
      <trkpt lat="47.76875" lon="2.32325">
        <ele>115</ele>
        <time>2017-07-23T08:18:20.130Z</time>
      </trkpt>
      <trkpt lat="47.76884" lon="2.32312">
        <ele>115</ele>
        <time>2017-07-23T08:18:21.121Z</time>
      </trkpt>
      <trkpt lat="47.7689" lon="2.32305">
        <ele>115</ele>
        <time>2017-07-23T08:18:22.110Z</time>
      </trkpt>
      <trkpt lat="47.76895" lon="2.32298">
        <ele>115</ele>
        <time>2017-07-23T08:18:23.141Z</time>
      </trkpt>
      <trkpt lat="47.76895" lon="2.32298">
        <ele>115</ele>
        <time>2017-07-23T08:18:24.137Z</time>
      </trkpt>
      <trkpt lat="47.76905" lon="2.32284">
        <ele>115</ele>
        <time>2017-07-23T08:18:25.144Z</time>
      </trkpt>
      <trkpt lat="47.76905" lon="2.32284">
        <ele>115</ele>
        <time>2017-07-23T08:18:26.138Z</time>
      </trkpt>
      <trkpt lat="47.76916" lon="2.32269">
        <ele>115</ele>
        <time>2017-07-23T08:18:27.140Z</time>
      </trkpt>
      <trkpt lat="47.76921" lon="2.32262">
        <ele>115</ele>
        <time>2017-07-23T08:18:28.140Z</time>
      </trkpt>
      <trkpt lat="47.76926" lon="2.32254">
        <ele>115</ele>
        <time>2017-07-23T08:18:29.141Z</time>
      </trkpt>
      <trkpt lat="47.76926" lon="2.32254">
        <ele>115</ele>
        <time>2017-07-23T08:18:30.140Z</time>
      </trkpt>
      <trkpt lat="47.76935" lon="2.32242">
        <ele>115</ele>
        <time>2017-07-23T08:18:31.138Z</time>
      </trkpt>
      <trkpt lat="47.7694" lon="2.32235">
        <ele>115</ele>
        <time>2017-07-23T08:18:32.141Z</time>
      </trkpt>
      <trkpt lat="47.76944" lon="2.32228">
        <ele>115</ele>
        <time>2017-07-23T08:18:33.140Z</time>
      </trkpt>
      <trkpt lat="47.76944" lon="2.32228">
        <ele>115</ele>
        <time>2017-07-23T08:18:34.137Z</time>
      </trkpt>
      <trkpt lat="47.76953" lon="2.32215">
        <ele>115</ele>
        <time>2017-07-23T08:18:35.141Z</time>
      </trkpt>
      <trkpt lat="47.76953" lon="2.32215">
        <ele>115</ele>
        <time>2017-07-23T08:18:36.132Z</time>
      </trkpt>
      <trkpt lat="47.7696" lon="2.32201">
        <ele>115</ele>
        <time>2017-07-23T08:18:37.140Z</time>
      </trkpt>
      <trkpt lat="47.7696" lon="2.32201">
        <ele>115</ele>
        <time>2017-07-23T08:18:38.116Z</time>
      </trkpt>
      <trkpt lat="47.76969" lon="2.32187">
        <ele>115</ele>
        <time>2017-07-23T08:18:39.133Z</time>
      </trkpt>
      <trkpt lat="47.76969" lon="2.32187">
        <ele>115</ele>
        <time>2017-07-23T08:18:40.139Z</time>
      </trkpt>
      <trkpt lat="47.76979" lon="2.32174">
        <ele>114</ele>
        <time>2017-07-23T08:18:41.146Z</time>
      </trkpt>
      <trkpt lat="47.76979" lon="2.32174">
        <ele>114</ele>
        <time>2017-07-23T08:18:42.138Z</time>
      </trkpt>
      <trkpt lat="47.76986" lon="2.32162">
        <ele>113</ele>
        <time>2017-07-23T08:18:43.141Z</time>
      </trkpt>
      <trkpt lat="47.76986" lon="2.32162">
        <ele>113</ele>
        <time>2017-07-23T08:18:44.108Z</time>
      </trkpt>
      <trkpt lat="47.76993" lon="2.32149">
        <ele>114</ele>
        <time>2017-07-23T08:18:45.140Z</time>
      </trkpt>
      <trkpt lat="47.76993" lon="2.32149">
        <ele>114</ele>
        <time>2017-07-23T08:18:46.142Z</time>
      </trkpt>
      <trkpt lat="47.77003" lon="2.32137">
        <ele>114</ele>
        <time>2017-07-23T08:18:47.140Z</time>
      </trkpt>
      <trkpt lat="47.77003" lon="2.32137">
        <ele>114</ele>
        <time>2017-07-23T08:18:48.137Z</time>
      </trkpt>
      <trkpt lat="47.77015" lon="2.32124">
        <ele>113</ele>
        <time>2017-07-23T08:18:49.140Z</time>
      </trkpt>
      <trkpt lat="47.77015" lon="2.32124">
        <ele>113</ele>
        <time>2017-07-23T08:18:50.132Z</time>
      </trkpt>
      <trkpt lat="47.77026" lon="2.3211">
        <ele>113</ele>
        <time>2017-07-23T08:18:51.121Z</time>
      </trkpt>
      <trkpt lat="47.77031" lon="2.32103">
        <ele>113</ele>
        <time>2017-07-23T08:18:52.112Z</time>
      </trkpt>
      <trkpt lat="47.77031" lon="2.32103">
        <ele>113</ele>
        <time>2017-07-23T08:18:53.143Z</time>
      </trkpt>
      <trkpt lat="47.77042" lon="2.32088">
        <ele>112</ele>
        <time>2017-07-23T08:18:54.139Z</time>
      </trkpt>
      <trkpt lat="47.77046" lon="2.32081">
        <ele>112</ele>
        <time>2017-07-23T08:18:55.140Z</time>
      </trkpt>
      <trkpt lat="47.77046" lon="2.32081">
        <ele>112</ele>
        <time>2017-07-23T08:18:56.138Z</time>
      </trkpt>
      <trkpt lat="47.77058" lon="2.32066">
        <ele>112</ele>
        <time>2017-07-23T08:18:57.139Z</time>
      </trkpt>
      <trkpt lat="47.77058" lon="2.32066">
        <ele>112</ele>
        <time>2017-07-23T08:18:58.137Z</time>
      </trkpt>
      <trkpt lat="47.7707" lon="2.3205">
        <ele>112</ele>
        <time>2017-07-23T08:18:59.141Z</time>
      </trkpt>
      <trkpt lat="47.7707" lon="2.3205">
        <ele>112</ele>
        <time>2017-07-23T08:19:00.133Z</time>
      </trkpt>
      <trkpt lat="47.7708" lon="2.32037">
        <ele>112</ele>
        <time>2017-07-23T08:19:01.140Z</time>
      </trkpt>
      <trkpt lat="47.7708" lon="2.32037">
        <ele>112</ele>
        <time>2017-07-23T08:19:02.118Z</time>
      </trkpt>
      <trkpt lat="47.7709" lon="2.32022">
        <ele>111</ele>
        <time>2017-07-23T08:19:03.109Z</time>
      </trkpt>
      <trkpt lat="47.77095" lon="2.32015">
        <ele>111</ele>
        <time>2017-07-23T08:19:04.141Z</time>
      </trkpt>
      <trkpt lat="47.77095" lon="2.32015">
        <ele>111</ele>
        <time>2017-07-23T08:19:05.139Z</time>
      </trkpt>
      <trkpt lat="47.77105" lon="2.31999">
        <ele>111</ele>
        <time>2017-07-23T08:19:06.140Z</time>
      </trkpt>
      <trkpt lat="47.77105" lon="2.31999">
        <ele>111</ele>
        <time>2017-07-23T08:19:07.137Z</time>
      </trkpt>
      <trkpt lat="47.77116" lon="2.31985">
        <ele>110</ele>
        <time>2017-07-23T08:19:08.140Z</time>
      </trkpt>
      <trkpt lat="47.77116" lon="2.31985">
        <ele>110</ele>
        <time>2017-07-23T08:19:09.137Z</time>
      </trkpt>
      <trkpt lat="47.77127" lon="2.31971">
        <ele>110</ele>
        <time>2017-07-23T08:19:10.132Z</time>
      </trkpt>
      <trkpt lat="47.77132" lon="2.31964">
        <ele>110</ele>
        <time>2017-07-23T08:19:11.117Z</time>
      </trkpt>
      <trkpt lat="47.77132" lon="2.31964">
        <ele>110</ele>
        <time>2017-07-23T08:19:12.108Z</time>
      </trkpt>
      <trkpt lat="47.77141" lon="2.3195">
        <ele>110</ele>
        <time>2017-07-23T08:19:13.144Z</time>
      </trkpt>
      <trkpt lat="47.77141" lon="2.3195">
        <ele>110</ele>
        <time>2017-07-23T08:19:14.137Z</time>
      </trkpt>
      <trkpt lat="47.7715" lon="2.31936">
        <ele>111</ele>
        <time>2017-07-23T08:19:15.140Z</time>
      </trkpt>
      <trkpt lat="47.7715" lon="2.31936">
        <ele>111</ele>
        <time>2017-07-23T08:19:16.134Z</time>
      </trkpt>
      <trkpt lat="47.7716" lon="2.31922">
        <ele>112</ele>
        <time>2017-07-23T08:19:17.139Z</time>
      </trkpt>
      <trkpt lat="47.7716" lon="2.31922">
        <ele>112</ele>
        <time>2017-07-23T08:19:18.135Z</time>
      </trkpt>
      <trkpt lat="47.7717" lon="2.31908">
        <ele>113</ele>
        <time>2017-07-23T08:19:19.140Z</time>
      </trkpt>
      <trkpt lat="47.7717" lon="2.31908">
        <ele>113</ele>
        <time>2017-07-23T08:19:20.132Z</time>
      </trkpt>
      <trkpt lat="47.7718" lon="2.31894">
        <ele>113</ele>
        <time>2017-07-23T08:19:21.121Z</time>
      </trkpt>
      <trkpt lat="47.77185" lon="2.31887">
        <ele>113</ele>
        <time>2017-07-23T08:19:22.110Z</time>
      </trkpt>
      <trkpt lat="47.77191" lon="2.3188">
        <ele>113</ele>
        <time>2017-07-23T08:19:23.141Z</time>
      </trkpt>
      <trkpt lat="47.77191" lon="2.3188">
        <ele>113</ele>
        <time>2017-07-23T08:19:24.138Z</time>
      </trkpt>
      <trkpt lat="47.77198" lon="2.31864">
        <ele>112</ele>
        <time>2017-07-23T08:19:25.141Z</time>
      </trkpt>
      <trkpt lat="47.77198" lon="2.31864">
        <ele>112</ele>
        <time>2017-07-23T08:19:26.138Z</time>
      </trkpt>
      <trkpt lat="47.77201" lon="2.31845">
        <ele>113</ele>
        <time>2017-07-23T08:19:27.140Z</time>
      </trkpt>
      <trkpt lat="47.77201" lon="2.31845">
        <ele>113</ele>
        <time>2017-07-23T08:19:28.134Z</time>
      </trkpt>
      <trkpt lat="47.77206" lon="2.31827">
        <ele>113</ele>
        <time>2017-07-23T08:19:29.142Z</time>
      </trkpt>
      <trkpt lat="47.77206" lon="2.31827">
        <ele>113</ele>
        <time>2017-07-23T08:19:30.134Z</time>
      </trkpt>
      <trkpt lat="47.77206" lon="2.31827">
        <ele>113</ele>
        <time>2017-07-23T08:19:31.114Z</time>
      </trkpt>
      <trkpt lat="47.77214" lon="2.31811">
        <ele>114</ele>
        <time>2017-07-23T08:19:32.137Z</time>
      </trkpt>
      <trkpt lat="47.77222" lon="2.31796">
        <ele>115</ele>
        <time>2017-07-23T08:19:33.140Z</time>
      </trkpt>
      <trkpt lat="47.77222" lon="2.31796">
        <ele>115</ele>
        <time>2017-07-23T08:19:34.137Z</time>
      </trkpt>
      <trkpt lat="47.77229" lon="2.31782">
        <ele>116</ele>
        <time>2017-07-23T08:19:35.141Z</time>
      </trkpt>
      <trkpt lat="47.77229" lon="2.31782">
        <ele>116</ele>
        <time>2017-07-23T08:19:36.136Z</time>
      </trkpt>
      <trkpt lat="47.77237" lon="2.31767">
        <ele>116</ele>
        <time>2017-07-23T08:19:37.140Z</time>
      </trkpt>
      <trkpt lat="47.77237" lon="2.31767">
        <ele>116</ele>
        <time>2017-07-23T08:19:38.137Z</time>
      </trkpt>
      <trkpt lat="47.77244" lon="2.31751">
        <ele>116</ele>
        <time>2017-07-23T08:19:39.140Z</time>
      </trkpt>
      <trkpt lat="47.77244" lon="2.31751">
        <ele>116</ele>
        <time>2017-07-23T08:19:40.133Z</time>
      </trkpt>
      <trkpt lat="47.77252" lon="2.31736">
        <ele>116</ele>
        <time>2017-07-23T08:19:41.142Z</time>
      </trkpt>
      <trkpt lat="47.77252" lon="2.31736">
        <ele>116</ele>
        <time>2017-07-23T08:19:42.138Z</time>
      </trkpt>
      <trkpt lat="47.7726" lon="2.3172">
        <ele>116</ele>
        <time>2017-07-23T08:19:43.141Z</time>
      </trkpt>
      <trkpt lat="47.7726" lon="2.3172">
        <ele>116</ele>
        <time>2017-07-23T08:19:44.134Z</time>
      </trkpt>
      <trkpt lat="47.77268" lon="2.31705">
        <ele>116</ele>
        <time>2017-07-23T08:19:45.139Z</time>
      </trkpt>
      <trkpt lat="47.77268" lon="2.31705">
        <ele>116</ele>
        <time>2017-07-23T08:19:46.135Z</time>
      </trkpt>
      <trkpt lat="47.77277" lon="2.3169">
        <ele>116</ele>
        <time>2017-07-23T08:19:47.141Z</time>
      </trkpt>
      <trkpt lat="47.77277" lon="2.3169">
        <ele>116</ele>
        <time>2017-07-23T08:19:48.134Z</time>
      </trkpt>
      <trkpt lat="47.77285" lon="2.31676">
        <ele>116</ele>
        <time>2017-07-23T08:19:49.140Z</time>
      </trkpt>
      <trkpt lat="47.77285" lon="2.31676">
        <ele>116</ele>
        <time>2017-07-23T08:19:50.132Z</time>
      </trkpt>
      <trkpt lat="47.77293" lon="2.31661">
        <ele>116</ele>
        <time>2017-07-23T08:19:51.121Z</time>
      </trkpt>
      <trkpt lat="47.77297" lon="2.31654">
        <ele>116</ele>
        <time>2017-07-23T08:19:52.109Z</time>
      </trkpt>
      <trkpt lat="47.77301" lon="2.31646">
        <ele>116</ele>
        <time>2017-07-23T08:19:53.141Z</time>
      </trkpt>
      <trkpt lat="47.77301" lon="2.31646">
        <ele>116</ele>
        <time>2017-07-23T08:19:54.137Z</time>
      </trkpt>
      <trkpt lat="47.7731" lon="2.31632">
        <ele>116</ele>
        <time>2017-07-23T08:19:55.111Z</time>
      </trkpt>
      <trkpt lat="47.7731" lon="2.31632">
        <ele>116</ele>
        <time>2017-07-23T08:19:56.143Z</time>
      </trkpt>
      <trkpt lat="47.77318" lon="2.31617">
        <ele>116</ele>
        <time>2017-07-23T08:19:57.142Z</time>
      </trkpt>
      <trkpt lat="47.77318" lon="2.31617">
        <ele>116</ele>
        <time>2017-07-23T08:19:58.138Z</time>
      </trkpt>
      <trkpt lat="47.77327" lon="2.31602">
        <ele>116</ele>
        <time>2017-07-23T08:19:59.147Z</time>
      </trkpt>
      <trkpt lat="47.77327" lon="2.31602">
        <ele>116</ele>
        <time>2017-07-23T08:20:00.108Z</time>
      </trkpt>
      <trkpt lat="47.77335" lon="2.31587">
        <ele>116</ele>
        <time>2017-07-23T08:20:01.141Z</time>
      </trkpt>
      <trkpt lat="47.77335" lon="2.31587">
        <ele>116</ele>
        <time>2017-07-23T08:20:02.135Z</time>
      </trkpt>
      <trkpt lat="47.77343" lon="2.31573">
        <ele>115</ele>
        <time>2017-07-23T08:20:03.140Z</time>
      </trkpt>
      <trkpt lat="47.77343" lon="2.31573">
        <ele>115</ele>
        <time>2017-07-23T08:20:04.138Z</time>
      </trkpt>
      <trkpt lat="47.77352" lon="2.3156">
        <ele>115</ele>
        <time>2017-07-23T08:20:05.141Z</time>
      </trkpt>
      <trkpt lat="47.77352" lon="2.3156">
        <ele>115</ele>
        <time>2017-07-23T08:20:06.135Z</time>
      </trkpt>
      <trkpt lat="47.7736" lon="2.31546">
        <ele>115</ele>
        <time>2017-07-23T08:20:07.140Z</time>
      </trkpt>
      <trkpt lat="47.7736" lon="2.31546">
        <ele>115</ele>
        <time>2017-07-23T08:20:08.137Z</time>
      </trkpt>
      <trkpt lat="47.77368" lon="2.31532">
        <ele>115</ele>
        <time>2017-07-23T08:20:09.139Z</time>
      </trkpt>
      <trkpt lat="47.77368" lon="2.31532">
        <ele>115</ele>
        <time>2017-07-23T08:20:10.135Z</time>
      </trkpt>
      <trkpt lat="47.77376" lon="2.31519">
        <ele>115</ele>
        <time>2017-07-23T08:20:11.142Z</time>
      </trkpt>
      <trkpt lat="47.77376" lon="2.31519">
        <ele>115</ele>
        <time>2017-07-23T08:20:12.138Z</time>
      </trkpt>
      <trkpt lat="47.77384" lon="2.31504">
        <ele>115</ele>
        <time>2017-07-23T08:20:13.140Z</time>
      </trkpt>
      <trkpt lat="47.77384" lon="2.31504">
        <ele>115</ele>
        <time>2017-07-23T08:20:14.137Z</time>
      </trkpt>
      <trkpt lat="47.77392" lon="2.3149">
        <ele>115</ele>
        <time>2017-07-23T08:20:15.140Z</time>
      </trkpt>
      <trkpt lat="47.77392" lon="2.3149">
        <ele>115</ele>
        <time>2017-07-23T08:20:16.136Z</time>
      </trkpt>
      <trkpt lat="47.774" lon="2.31477">
        <ele>114</ele>
        <time>2017-07-23T08:20:17.142Z</time>
      </trkpt>
      <trkpt lat="47.77405" lon="2.31471">
        <ele>114</ele>
        <time>2017-07-23T08:20:18.139Z</time>
      </trkpt>
      <trkpt lat="47.77409" lon="2.31464">
        <ele>114</ele>
        <time>2017-07-23T08:20:19.140Z</time>
      </trkpt>
      <trkpt lat="47.77409" lon="2.31464">
        <ele>114</ele>
        <time>2017-07-23T08:20:20.135Z</time>
      </trkpt>
      <trkpt lat="47.77418" lon="2.31451">
        <ele>113</ele>
        <time>2017-07-23T08:20:21.137Z</time>
      </trkpt>
      <trkpt lat="47.77422" lon="2.31444">
        <ele>113</ele>
        <time>2017-07-23T08:20:22.139Z</time>
      </trkpt>
      <trkpt lat="47.77427" lon="2.31438">
        <ele>113</ele>
        <time>2017-07-23T08:20:23.141Z</time>
      </trkpt>
      <trkpt lat="47.77427" lon="2.31438">
        <ele>113</ele>
        <time>2017-07-23T08:20:24.138Z</time>
      </trkpt>
      <trkpt lat="47.77436" lon="2.31424">
        <ele>113</ele>
        <time>2017-07-23T08:20:25.142Z</time>
      </trkpt>
      <trkpt lat="47.77436" lon="2.31424">
        <ele>113</ele>
        <time>2017-07-23T08:20:26.135Z</time>
      </trkpt>
      <trkpt lat="47.77444" lon="2.3141">
        <ele>112</ele>
        <time>2017-07-23T08:20:27.133Z</time>
      </trkpt>
      <trkpt lat="47.77448" lon="2.31404">
        <ele>112</ele>
        <time>2017-07-23T08:20:28.115Z</time>
      </trkpt>
      <trkpt lat="47.77452" lon="2.31398">
        <ele>112</ele>
        <time>2017-07-23T08:20:29.144Z</time>
      </trkpt>
      <trkpt lat="47.77452" lon="2.31398">
        <ele>112</ele>
        <time>2017-07-23T08:20:30.136Z</time>
      </trkpt>
      <trkpt lat="47.77459" lon="2.31387">
        <ele>112</ele>
        <time>2017-07-23T08:20:31.140Z</time>
      </trkpt>
      <trkpt lat="47.77459" lon="2.31387">
        <ele>112</ele>
        <time>2017-07-23T08:20:32.146Z</time>
      </trkpt>
      <trkpt lat="47.77465" lon="2.31377">
        <ele>112</ele>
        <time>2017-07-23T08:20:33.140Z</time>
      </trkpt>
      <trkpt lat="47.77465" lon="2.31377">
        <ele>112</ele>
        <time>2017-07-23T08:20:34.137Z</time>
      </trkpt>
      <trkpt lat="47.77471" lon="2.31368">
        <ele>112</ele>
        <time>2017-07-23T08:20:35.141Z</time>
      </trkpt>
      <trkpt lat="47.77471" lon="2.31368">
        <ele>112</ele>
        <time>2017-07-23T08:20:36.135Z</time>
      </trkpt>
      <trkpt lat="47.77476" lon="2.3136">
        <ele>112</ele>
        <time>2017-07-23T08:20:37.142Z</time>
      </trkpt>
      <trkpt lat="47.77478" lon="2.31356">
        <ele>112</ele>
        <time>2017-07-23T08:20:38.138Z</time>
      </trkpt>
      <trkpt lat="47.77478" lon="2.31356">
        <ele>112</ele>
        <time>2017-07-23T08:20:39.147Z</time>
      </trkpt>
      <trkpt lat="47.77483" lon="2.31348">
        <ele>112</ele>
        <time>2017-07-23T08:20:40.113Z</time>
      </trkpt>
      <trkpt lat="47.77486" lon="2.31344">
        <ele>112</ele>
        <time>2017-07-23T08:20:41.122Z</time>
      </trkpt>
      <trkpt lat="47.77486" lon="2.31344">
        <ele>112</ele>
        <time>2017-07-23T08:20:42.154Z</time>
      </trkpt>
      <trkpt lat="47.77491" lon="2.31336">
        <ele>112</ele>
        <time>2017-07-23T08:20:43.142Z</time>
      </trkpt>
      <trkpt lat="47.77491" lon="2.31336">
        <ele>112</ele>
        <time>2017-07-23T08:20:44.138Z</time>
      </trkpt>
      <trkpt lat="47.77496" lon="2.3133">
        <ele>112</ele>
        <time>2017-07-23T08:20:45.116Z</time>
      </trkpt>
      <trkpt lat="47.77496" lon="2.3133">
        <ele>112</ele>
        <time>2017-07-23T08:20:46.142Z</time>
      </trkpt>
      <trkpt lat="47.77501" lon="2.31324">
        <ele>112</ele>
        <time>2017-07-23T08:20:47.143Z</time>
      </trkpt>
      <trkpt lat="47.77503" lon="2.31321">
        <ele>112</ele>
        <time>2017-07-23T08:20:48.110Z</time>
      </trkpt>
      <trkpt lat="47.77503" lon="2.31321">
        <ele>112</ele>
        <time>2017-07-23T08:20:49.142Z</time>
      </trkpt>
      <trkpt lat="47.77506" lon="2.31315">
        <ele>112</ele>
        <time>2017-07-23T08:20:50.137Z</time>
      </trkpt>
      <trkpt lat="47.77507" lon="2.31313">
        <ele>112</ele>
        <time>2017-07-23T08:20:51.142Z</time>
      </trkpt>
      <trkpt lat="47.77507" lon="2.31313">
        <ele>112</ele>
        <time>2017-07-23T08:20:52.137Z</time>
      </trkpt>
      <trkpt lat="47.77509" lon="2.31309">
        <ele>113</ele>
        <time>2017-07-23T08:20:53.142Z</time>
      </trkpt>
      <trkpt lat="47.77509" lon="2.31309">
        <ele>113</ele>
        <time>2017-07-23T08:20:54.138Z</time>
      </trkpt>
      <trkpt lat="47.7751" lon="2.31305">
        <ele>113</ele>
        <time>2017-07-23T08:20:55.141Z</time>
      </trkpt>
      <trkpt lat="47.7751" lon="2.31305">
        <ele>113</ele>
        <time>2017-07-23T08:20:56.135Z</time>
      </trkpt>
      <trkpt lat="47.77509" lon="2.31305">
        <ele>114</ele>
        <time>2017-07-23T08:20:57.140Z</time>
      </trkpt>
      <trkpt lat="47.77509" lon="2.31305">
        <ele>114</ele>
        <time>2017-07-23T08:20:58.137Z</time>
      </trkpt>
      <trkpt lat="47.77509" lon="2.31305">
        <ele>114</ele>
        <time>2017-07-23T08:20:59.112Z</time>
      </trkpt>
      <trkpt lat="47.77509" lon="2.31305">
        <ele>114</ele>
        <time>2017-07-23T08:21:00.109Z</time>
      </trkpt>
      <trkpt lat="47.77515" lon="2.31297">
        <ele>115</ele>
        <time>2017-07-23T08:21:01.113Z</time>
      </trkpt>
      <trkpt lat="47.77515" lon="2.31297">
        <ele>115</ele>
        <time>2017-07-23T08:21:02.148Z</time>
      </trkpt>
      <trkpt lat="47.77517" lon="2.31292">
        <ele>115</ele>
        <time>2017-07-23T08:21:03.112Z</time>
      </trkpt>
      <trkpt lat="47.77517" lon="2.31292">
        <ele>115</ele>
        <time>2017-07-23T08:21:04.131Z</time>
      </trkpt>
      <trkpt lat="47.77523" lon="2.31285">
        <ele>115</ele>
        <time>2017-07-23T08:21:05.123Z</time>
      </trkpt>
      <trkpt lat="47.77523" lon="2.31285">
        <ele>115</ele>
        <time>2017-07-23T08:21:06.112Z</time>
      </trkpt>
      <trkpt lat="47.77531" lon="2.31277">
        <ele>115</ele>
        <time>2017-07-23T08:21:07.113Z</time>
      </trkpt>
      <trkpt lat="47.77531" lon="2.31277">
        <ele>115</ele>
        <time>2017-07-23T08:21:08.110Z</time>
      </trkpt>
      <trkpt lat="47.77541" lon="2.31267">
        <ele>115</ele>
        <time>2017-07-23T08:21:09.113Z</time>
      </trkpt>
      <trkpt lat="47.77541" lon="2.31267">
        <ele>115</ele>
        <time>2017-07-23T08:21:10.110Z</time>
      </trkpt>
      <trkpt lat="47.77551" lon="2.31256">
        <ele>114</ele>
        <time>2017-07-23T08:21:11.126Z</time>
      </trkpt>
      <trkpt lat="47.77551" lon="2.31256">
        <ele>114</ele>
        <time>2017-07-23T08:21:12.115Z</time>
      </trkpt>
      <trkpt lat="47.7756" lon="2.31246">
        <ele>114</ele>
        <time>2017-07-23T08:21:13.114Z</time>
      </trkpt>
      <trkpt lat="47.7756" lon="2.31246">
        <ele>114</ele>
        <time>2017-07-23T08:21:14.108Z</time>
      </trkpt>
      <trkpt lat="47.77569" lon="2.31236">
        <ele>115</ele>
        <time>2017-07-23T08:21:15.114Z</time>
      </trkpt>
      <trkpt lat="47.77569" lon="2.31236">
        <ele>115</ele>
        <time>2017-07-23T08:21:16.114Z</time>
      </trkpt>
      <trkpt lat="47.77577" lon="2.31227">
        <ele>115</ele>
        <time>2017-07-23T08:21:17.112Z</time>
      </trkpt>
      <trkpt lat="47.77577" lon="2.31227">
        <ele>115</ele>
        <time>2017-07-23T08:21:18.146Z</time>
      </trkpt>
      <trkpt lat="47.77584" lon="2.31217">
        <ele>115</ele>
        <time>2017-07-23T08:21:19.114Z</time>
      </trkpt>
      <trkpt lat="47.77584" lon="2.31217">
        <ele>115</ele>
        <time>2017-07-23T08:21:20.110Z</time>
      </trkpt>
      <trkpt lat="47.77592" lon="2.31208">
        <ele>116</ele>
        <time>2017-07-23T08:21:21.113Z</time>
      </trkpt>
      <trkpt lat="47.77592" lon="2.31208">
        <ele>116</ele>
        <time>2017-07-23T08:21:22.147Z</time>
      </trkpt>
      <trkpt lat="47.77599" lon="2.31198">
        <ele>115</ele>
        <time>2017-07-23T08:21:23.112Z</time>
      </trkpt>
      <trkpt lat="47.77599" lon="2.31198">
        <ele>115</ele>
        <time>2017-07-23T08:21:24.147Z</time>
      </trkpt>
      <trkpt lat="47.77607" lon="2.31189">
        <ele>115</ele>
        <time>2017-07-23T08:21:25.115Z</time>
      </trkpt>
      <trkpt lat="47.77607" lon="2.31189">
        <ele>115</ele>
        <time>2017-07-23T08:21:26.110Z</time>
      </trkpt>
      <trkpt lat="47.77614" lon="2.31179">
        <ele>115</ele>
        <time>2017-07-23T08:21:27.113Z</time>
      </trkpt>
      <trkpt lat="47.77614" lon="2.31179">
        <ele>115</ele>
        <time>2017-07-23T08:21:28.131Z</time>
      </trkpt>
      <trkpt lat="47.77622" lon="2.31169">
        <ele>115</ele>
        <time>2017-07-23T08:21:29.122Z</time>
      </trkpt>
      <trkpt lat="47.77622" lon="2.31169">
        <ele>115</ele>
        <time>2017-07-23T08:21:30.111Z</time>
      </trkpt>
      <trkpt lat="47.7763" lon="2.3116">
        <ele>115</ele>
        <time>2017-07-23T08:21:31.115Z</time>
      </trkpt>
      <trkpt lat="47.7763" lon="2.3116">
        <ele>115</ele>
        <time>2017-07-23T08:21:32.123Z</time>
      </trkpt>
      <trkpt lat="47.77636" lon="2.31149">
        <ele>116</ele>
        <time>2017-07-23T08:21:33.116Z</time>
      </trkpt>
      <trkpt lat="47.77638" lon="2.31144">
        <ele>117</ele>
        <time>2017-07-23T08:21:34.111Z</time>
      </trkpt>
      <trkpt lat="47.77638" lon="2.31144">
        <ele>117</ele>
        <time>2017-07-23T08:21:35.111Z</time>
      </trkpt>
      <trkpt lat="47.77645" lon="2.31134">
        <ele>117</ele>
        <time>2017-07-23T08:21:36.133Z</time>
      </trkpt>
      <trkpt lat="47.77648" lon="2.31129">
        <ele>117</ele>
        <time>2017-07-23T08:21:37.139Z</time>
      </trkpt>
      <trkpt lat="47.77648" lon="2.31129">
        <ele>117</ele>
        <time>2017-07-23T08:21:38.139Z</time>
      </trkpt>
      <trkpt lat="47.77655" lon="2.31118">
        <ele>116</ele>
        <time>2017-07-23T08:21:39.115Z</time>
      </trkpt>
      <trkpt lat="47.77655" lon="2.31118">
        <ele>116</ele>
        <time>2017-07-23T08:21:40.126Z</time>
      </trkpt>
      <trkpt lat="47.77663" lon="2.31108">
        <ele>116</ele>
        <time>2017-07-23T08:21:41.146Z</time>
      </trkpt>
      <trkpt lat="47.77666" lon="2.31103">
        <ele>116</ele>
        <time>2017-07-23T08:21:42.132Z</time>
      </trkpt>
      <trkpt lat="47.77666" lon="2.31103">
        <ele>116</ele>
        <time>2017-07-23T08:21:43.116Z</time>
      </trkpt>
      <trkpt lat="47.77673" lon="2.31092">
        <ele>115</ele>
        <time>2017-07-23T08:21:44.121Z</time>
      </trkpt>
      <trkpt lat="47.77673" lon="2.31092">
        <ele>115</ele>
        <time>2017-07-23T08:21:45.144Z</time>
      </trkpt>
      <trkpt lat="47.77679" lon="2.31082">
        <ele>116</ele>
        <time>2017-07-23T08:21:46.113Z</time>
      </trkpt>
      <trkpt lat="47.77682" lon="2.31076">
        <ele>116</ele>
        <time>2017-07-23T08:21:47.115Z</time>
      </trkpt>
      <trkpt lat="47.77682" lon="2.31076">
        <ele>116</ele>
        <time>2017-07-23T08:21:48.142Z</time>
      </trkpt>
      <trkpt lat="47.77688" lon="2.31065">
        <ele>116</ele>
        <time>2017-07-23T08:21:49.109Z</time>
      </trkpt>
      <trkpt lat="47.77688" lon="2.31065">
        <ele>116</ele>
        <time>2017-07-23T08:21:50.125Z</time>
      </trkpt>
      <trkpt lat="47.77695" lon="2.31053">
        <ele>117</ele>
        <time>2017-07-23T08:21:51.120Z</time>
      </trkpt>
      <trkpt lat="47.77695" lon="2.31053">
        <ele>117</ele>
        <time>2017-07-23T08:21:52.145Z</time>
      </trkpt>
      <trkpt lat="47.77701" lon="2.3104">
        <ele>117</ele>
        <time>2017-07-23T08:21:53.142Z</time>
      </trkpt>
      <trkpt lat="47.77704" lon="2.31034">
        <ele>118</ele>
        <time>2017-07-23T08:21:54.115Z</time>
      </trkpt>
      <trkpt lat="47.77708" lon="2.31028">
        <ele>118</ele>
        <time>2017-07-23T08:21:55.137Z</time>
      </trkpt>
      <trkpt lat="47.77708" lon="2.31028">
        <ele>118</ele>
        <time>2017-07-23T08:21:56.115Z</time>
      </trkpt>
      <trkpt lat="47.77714" lon="2.31015">
        <ele>118</ele>
        <time>2017-07-23T08:21:57.122Z</time>
      </trkpt>
      <trkpt lat="47.77717" lon="2.31008">
        <ele>119</ele>
        <time>2017-07-23T08:21:58.135Z</time>
      </trkpt>
      <trkpt lat="47.77719" lon="2.31002">
        <ele>119</ele>
        <time>2017-07-23T08:21:59.146Z</time>
      </trkpt>
      <trkpt lat="47.77719" lon="2.31002">
        <ele>119</ele>
        <time>2017-07-23T08:22:00.111Z</time>
      </trkpt>
      <trkpt lat="47.77725" lon="2.3099">
        <ele>119</ele>
        <time>2017-07-23T08:22:01.118Z</time>
      </trkpt>
      <trkpt lat="47.77725" lon="2.3099">
        <ele>119</ele>
        <time>2017-07-23T08:22:02.144Z</time>
      </trkpt>
      <trkpt lat="47.77732" lon="2.30977">
        <ele>119</ele>
        <time>2017-07-23T08:22:03.141Z</time>
      </trkpt>
      <trkpt lat="47.77732" lon="2.30977">
        <ele>119</ele>
        <time>2017-07-23T08:22:04.137Z</time>
      </trkpt>
      <trkpt lat="47.77738" lon="2.30965">
        <ele>119</ele>
        <time>2017-07-23T08:22:05.129Z</time>
      </trkpt>
      <trkpt lat="47.7774" lon="2.3096">
        <ele>120</ele>
        <time>2017-07-23T08:22:06.135Z</time>
      </trkpt>
      <trkpt lat="47.7774" lon="2.3096">
        <ele>120</ele>
        <time>2017-07-23T08:22:07.145Z</time>
      </trkpt>
      <trkpt lat="47.77747" lon="2.30948">
        <ele>120</ele>
        <time>2017-07-23T08:22:08.116Z</time>
      </trkpt>
      <trkpt lat="47.7775" lon="2.30943">
        <ele>120</ele>
        <time>2017-07-23T08:22:09.143Z</time>
      </trkpt>
      <trkpt lat="47.7775" lon="2.30943">
        <ele>120</ele>
        <time>2017-07-23T08:22:10.128Z</time>
      </trkpt>
      <trkpt lat="47.77757" lon="2.30931">
        <ele>120</ele>
        <time>2017-07-23T08:22:11.108Z</time>
      </trkpt>
      <trkpt lat="47.7776" lon="2.30925">
        <ele>121</ele>
        <time>2017-07-23T08:22:12.109Z</time>
      </trkpt>
      <trkpt lat="47.77763" lon="2.30919">
        <ele>121</ele>
        <time>2017-07-23T08:22:13.134Z</time>
      </trkpt>
      <trkpt lat="47.77763" lon="2.30919">
        <ele>121</ele>
        <time>2017-07-23T08:22:14.131Z</time>
      </trkpt>
      <trkpt lat="47.77771" lon="2.30907">
        <ele>121</ele>
        <time>2017-07-23T08:22:15.145Z</time>
      </trkpt>
      <trkpt lat="47.77771" lon="2.30907">
        <ele>121</ele>
        <time>2017-07-23T08:22:16.137Z</time>
      </trkpt>
      <trkpt lat="47.77779" lon="2.30893">
        <ele>121</ele>
        <time>2017-07-23T08:22:17.117Z</time>
      </trkpt>
      <trkpt lat="47.77783" lon="2.30886">
        <ele>121</ele>
        <time>2017-07-23T08:22:18.146Z</time>
      </trkpt>
      <trkpt lat="47.77787" lon="2.30878">
        <ele>121</ele>
        <time>2017-07-23T08:22:19.120Z</time>
      </trkpt>
      <trkpt lat="47.77787" lon="2.30878">
        <ele>121</ele>
        <time>2017-07-23T08:22:20.109Z</time>
      </trkpt>
      <trkpt lat="47.77796" lon="2.30864">
        <ele>121</ele>
        <time>2017-07-23T08:22:21.146Z</time>
      </trkpt>
      <trkpt lat="47.77796" lon="2.30864">
        <ele>121</ele>
        <time>2017-07-23T08:22:22.112Z</time>
      </trkpt>
      <trkpt lat="47.77804" lon="2.30851">
        <ele>121</ele>
        <time>2017-07-23T08:22:23.144Z</time>
      </trkpt>
      <trkpt lat="47.77808" lon="2.30844">
        <ele>120</ele>
        <time>2017-07-23T08:22:24.131Z</time>
      </trkpt>
      <trkpt lat="47.77808" lon="2.30844">
        <ele>120</ele>
        <time>2017-07-23T08:22:25.122Z</time>
      </trkpt>
      <trkpt lat="47.77816" lon="2.3083">
        <ele>120</ele>
        <time>2017-07-23T08:22:26.145Z</time>
      </trkpt>
      <trkpt lat="47.77816" lon="2.3083">
        <ele>120</ele>
        <time>2017-07-23T08:22:27.114Z</time>
      </trkpt>
      <trkpt lat="47.77824" lon="2.30816">
        <ele>119</ele>
        <time>2017-07-23T08:22:28.119Z</time>
      </trkpt>
      <trkpt lat="47.77824" lon="2.30816">
        <ele>119</ele>
        <time>2017-07-23T08:22:29.147Z</time>
      </trkpt>
      <trkpt lat="47.77832" lon="2.30803">
        <ele>119</ele>
        <time>2017-07-23T08:22:30.136Z</time>
      </trkpt>
      <trkpt lat="47.77832" lon="2.30803">
        <ele>119</ele>
        <time>2017-07-23T08:22:31.108Z</time>
      </trkpt>
      <trkpt lat="47.77841" lon="2.3079">
        <ele>118</ele>
        <time>2017-07-23T08:22:32.112Z</time>
      </trkpt>
      <trkpt lat="47.77841" lon="2.3079">
        <ele>118</ele>
        <time>2017-07-23T08:22:33.142Z</time>
      </trkpt>
      <trkpt lat="47.7785" lon="2.30776">
        <ele>118</ele>
        <time>2017-07-23T08:22:34.115Z</time>
      </trkpt>
      <trkpt lat="47.7785" lon="2.30776">
        <ele>118</ele>
        <time>2017-07-23T08:22:35.109Z</time>
      </trkpt>
      <trkpt lat="47.77859" lon="2.30762">
        <ele>118</ele>
        <time>2017-07-23T08:22:36.146Z</time>
      </trkpt>
      <trkpt lat="47.77864" lon="2.30756">
        <ele>118</ele>
        <time>2017-07-23T08:22:37.117Z</time>
      </trkpt>
      <trkpt lat="47.77864" lon="2.30756">
        <ele>118</ele>
        <time>2017-07-23T08:22:38.143Z</time>
      </trkpt>
      <trkpt lat="47.77874" lon="2.30741">
        <ele>118</ele>
        <time>2017-07-23T08:22:39.116Z</time>
      </trkpt>
      <trkpt lat="47.77878" lon="2.30734">
        <ele>118</ele>
        <time>2017-07-23T08:22:40.128Z</time>
      </trkpt>
      <trkpt lat="47.77878" lon="2.30734">
        <ele>118</ele>
        <time>2017-07-23T08:22:41.139Z</time>
      </trkpt>
      <trkpt lat="47.77887" lon="2.3072">
        <ele>118</ele>
        <time>2017-07-23T08:22:42.148Z</time>
      </trkpt>
      <trkpt lat="47.77887" lon="2.3072">
        <ele>118</ele>
        <time>2017-07-23T08:22:43.115Z</time>
      </trkpt>
      <trkpt lat="47.77898" lon="2.30707">
        <ele>118</ele>
        <time>2017-07-23T08:22:44.148Z</time>
      </trkpt>
      <trkpt lat="47.77898" lon="2.30707">
        <ele>118</ele>
        <time>2017-07-23T08:22:45.141Z</time>
      </trkpt>
      <trkpt lat="47.77908" lon="2.30693">
        <ele>118</ele>
        <time>2017-07-23T08:22:46.118Z</time>
      </trkpt>
      <trkpt lat="47.77913" lon="2.30685">
        <ele>118</ele>
        <time>2017-07-23T08:22:47.113Z</time>
      </trkpt>
      <trkpt lat="47.77913" lon="2.30685">
        <ele>118</ele>
        <time>2017-07-23T08:22:48.145Z</time>
      </trkpt>
      <trkpt lat="47.77923" lon="2.30669">
        <ele>119</ele>
        <time>2017-07-23T08:22:49.118Z</time>
      </trkpt>
      <trkpt lat="47.77923" lon="2.30669">
        <ele>119</ele>
        <time>2017-07-23T08:22:50.147Z</time>
      </trkpt>
      <trkpt lat="47.77933" lon="2.30654">
        <ele>119</ele>
        <time>2017-07-23T08:22:51.116Z</time>
      </trkpt>
      <trkpt lat="47.77933" lon="2.30654">
        <ele>119</ele>
        <time>2017-07-23T08:22:52.144Z</time>
      </trkpt>
      <trkpt lat="47.77944" lon="2.30637">
        <ele>120</ele>
        <time>2017-07-23T08:22:53.135Z</time>
      </trkpt>
      <trkpt lat="47.77944" lon="2.30637">
        <ele>120</ele>
        <time>2017-07-23T08:22:54.143Z</time>
      </trkpt>
      <trkpt lat="47.77954" lon="2.30622">
        <ele>120</ele>
        <time>2017-07-23T08:22:55.112Z</time>
      </trkpt>
      <trkpt lat="47.77954" lon="2.30622">
        <ele>120</ele>
        <time>2017-07-23T08:22:56.138Z</time>
      </trkpt>
      <trkpt lat="47.77964" lon="2.30606">
        <ele>120</ele>
        <time>2017-07-23T08:22:57.112Z</time>
      </trkpt>
      <trkpt lat="47.77964" lon="2.30606">
        <ele>120</ele>
        <time>2017-07-23T08:22:58.137Z</time>
      </trkpt>
      <trkpt lat="47.77974" lon="2.30591">
        <ele>121</ele>
        <time>2017-07-23T08:22:59.144Z</time>
      </trkpt>
      <trkpt lat="47.77974" lon="2.30591">
        <ele>121</ele>
        <time>2017-07-23T08:23:00.110Z</time>
      </trkpt>
      <trkpt lat="47.77985" lon="2.30575">
        <ele>121</ele>
        <time>2017-07-23T08:23:01.147Z</time>
      </trkpt>
      <trkpt lat="47.77985" lon="2.30575">
        <ele>121</ele>
        <time>2017-07-23T08:23:02.132Z</time>
      </trkpt>
      <trkpt lat="47.77995" lon="2.3056">
        <ele>120</ele>
        <time>2017-07-23T08:23:03.145Z</time>
      </trkpt>
      <trkpt lat="47.78" lon="2.30554">
        <ele>120</ele>
        <time>2017-07-23T08:23:04.135Z</time>
      </trkpt>
      <trkpt lat="47.78" lon="2.30554">
        <ele>120</ele>
        <time>2017-07-23T08:23:05.141Z</time>
      </trkpt>
      <trkpt lat="47.7801" lon="2.30539">
        <ele>119</ele>
        <time>2017-07-23T08:23:06.116Z</time>
      </trkpt>
      <trkpt lat="47.78015" lon="2.30531">
        <ele>119</ele>
        <time>2017-07-23T08:23:07.116Z</time>
      </trkpt>
      <trkpt lat="47.7802" lon="2.30524">
        <ele>119</ele>
        <time>2017-07-23T08:23:08.145Z</time>
      </trkpt>
      <trkpt lat="47.7802" lon="2.30524">
        <ele>119</ele>
        <time>2017-07-23T08:23:09.121Z</time>
      </trkpt>
      <trkpt lat="47.78029" lon="2.3051">
        <ele>118</ele>
        <time>2017-07-23T08:23:10.112Z</time>
      </trkpt>
      <trkpt lat="47.78033" lon="2.30504">
        <ele>118</ele>
        <time>2017-07-23T08:23:11.137Z</time>
      </trkpt>
      <trkpt lat="47.78033" lon="2.30504">
        <ele>118</ele>
        <time>2017-07-23T08:23:12.122Z</time>
      </trkpt>
      <trkpt lat="47.78041" lon="2.30492">
        <ele>117</ele>
        <time>2017-07-23T08:23:13.145Z</time>
      </trkpt>
      <trkpt lat="47.78041" lon="2.30492">
        <ele>117</ele>
        <time>2017-07-23T08:23:14.128Z</time>
      </trkpt>
      <trkpt lat="47.78048" lon="2.30481">
        <ele>117</ele>
        <time>2017-07-23T08:23:15.137Z</time>
      </trkpt>
      <trkpt lat="47.78048" lon="2.30481">
        <ele>117</ele>
        <time>2017-07-23T08:23:16.111Z</time>
      </trkpt>
      <trkpt lat="47.78055" lon="2.3047">
        <ele>117</ele>
        <time>2017-07-23T08:23:17.136Z</time>
      </trkpt>
      <trkpt lat="47.78055" lon="2.3047">
        <ele>117</ele>
        <time>2017-07-23T08:23:18.141Z</time>
      </trkpt>
      <trkpt lat="47.78063" lon="2.30458">
        <ele>117</ele>
        <time>2017-07-23T08:23:19.108Z</time>
      </trkpt>
      <trkpt lat="47.78063" lon="2.30458">
        <ele>117</ele>
        <time>2017-07-23T08:23:20.139Z</time>
      </trkpt>
      <trkpt lat="47.7807" lon="2.30447">
        <ele>116</ele>
        <time>2017-07-23T08:23:21.120Z</time>
      </trkpt>
      <trkpt lat="47.7807" lon="2.30447">
        <ele>116</ele>
        <time>2017-07-23T08:23:22.125Z</time>
      </trkpt>
      <trkpt lat="47.78077" lon="2.30435">
        <ele>116</ele>
        <time>2017-07-23T08:23:23.115Z</time>
      </trkpt>
      <trkpt lat="47.78077" lon="2.30435">
        <ele>116</ele>
        <time>2017-07-23T08:23:24.110Z</time>
      </trkpt>
      <trkpt lat="47.78084" lon="2.30424">
        <ele>116</ele>
        <time>2017-07-23T08:23:25.127Z</time>
      </trkpt>
      <trkpt lat="47.78084" lon="2.30424">
        <ele>116</ele>
        <time>2017-07-23T08:23:26.114Z</time>
      </trkpt>
      <trkpt lat="47.78092" lon="2.30412">
        <ele>116</ele>
        <time>2017-07-23T08:23:27.122Z</time>
      </trkpt>
      <trkpt lat="47.78095" lon="2.30406">
        <ele>116</ele>
        <time>2017-07-23T08:23:28.141Z</time>
      </trkpt>
      <trkpt lat="47.78095" lon="2.30406">
        <ele>116</ele>
        <time>2017-07-23T08:23:29.128Z</time>
      </trkpt>
      <trkpt lat="47.78103" lon="2.30395">
        <ele>116</ele>
        <time>2017-07-23T08:23:30.145Z</time>
      </trkpt>
      <trkpt lat="47.78103" lon="2.30395">
        <ele>116</ele>
        <time>2017-07-23T08:23:31.112Z</time>
      </trkpt>
      <trkpt lat="47.7811" lon="2.30383">
        <ele>116</ele>
        <time>2017-07-23T08:23:32.135Z</time>
      </trkpt>
      <trkpt lat="47.7811" lon="2.30383">
        <ele>116</ele>
        <time>2017-07-23T08:23:33.117Z</time>
      </trkpt>
      <trkpt lat="47.78118" lon="2.30372">
        <ele>116</ele>
        <time>2017-07-23T08:23:34.124Z</time>
      </trkpt>
      <trkpt lat="47.78122" lon="2.30367">
        <ele>116</ele>
        <time>2017-07-23T08:23:35.120Z</time>
      </trkpt>
      <trkpt lat="47.78122" lon="2.30367">
        <ele>116</ele>
        <time>2017-07-23T08:23:36.125Z</time>
      </trkpt>
      <trkpt lat="47.78129" lon="2.30355">
        <ele>116</ele>
        <time>2017-07-23T08:23:37.132Z</time>
      </trkpt>
      <trkpt lat="47.78129" lon="2.30355">
        <ele>116</ele>
        <time>2017-07-23T08:23:38.144Z</time>
      </trkpt>
      <trkpt lat="47.78137" lon="2.30343">
        <ele>116</ele>
        <time>2017-07-23T08:23:39.125Z</time>
      </trkpt>
      <trkpt lat="47.7814" lon="2.30338">
        <ele>116</ele>
        <time>2017-07-23T08:23:40.132Z</time>
      </trkpt>
      <trkpt lat="47.7814" lon="2.30338">
        <ele>116</ele>
        <time>2017-07-23T08:23:41.145Z</time>
      </trkpt>
      <trkpt lat="47.78147" lon="2.30327">
        <ele>116</ele>
        <time>2017-07-23T08:23:42.109Z</time>
      </trkpt>
      <trkpt lat="47.78151" lon="2.30322">
        <ele>116</ele>
        <time>2017-07-23T08:23:43.137Z</time>
      </trkpt>
      <trkpt lat="47.78151" lon="2.30322">
        <ele>116</ele>
        <time>2017-07-23T08:23:44.143Z</time>
      </trkpt>
      <trkpt lat="47.78159" lon="2.30311">
        <ele>117</ele>
        <time>2017-07-23T08:23:45.142Z</time>
      </trkpt>
      <trkpt lat="47.78159" lon="2.30311">
        <ele>117</ele>
        <time>2017-07-23T08:23:46.110Z</time>
      </trkpt>
      <trkpt lat="47.78168" lon="2.30301">
        <ele>118</ele>
        <time>2017-07-23T08:23:47.117Z</time>
      </trkpt>
      <trkpt lat="47.78168" lon="2.30301">
        <ele>118</ele>
        <time>2017-07-23T08:23:48.122Z</time>
      </trkpt>
      <trkpt lat="47.78176" lon="2.30292">
        <ele>118</ele>
        <time>2017-07-23T08:23:49.133Z</time>
      </trkpt>
      <trkpt lat="47.78176" lon="2.30292">
        <ele>118</ele>
        <time>2017-07-23T08:23:50.108Z</time>
      </trkpt>
      <trkpt lat="47.78184" lon="2.30284">
        <ele>119</ele>
        <time>2017-07-23T08:23:51.115Z</time>
      </trkpt>
      <trkpt lat="47.78184" lon="2.30284">
        <ele>119</ele>
        <time>2017-07-23T08:23:52.132Z</time>
      </trkpt>
      <trkpt lat="47.7819" lon="2.30276">
        <ele>119</ele>
        <time>2017-07-23T08:23:53.132Z</time>
      </trkpt>
      <trkpt lat="47.7819" lon="2.30276">
        <ele>119</ele>
        <time>2017-07-23T08:23:54.146Z</time>
      </trkpt>
      <trkpt lat="47.78197" lon="2.3027">
        <ele>119</ele>
        <time>2017-07-23T08:23:55.116Z</time>
      </trkpt>
      <trkpt lat="47.78197" lon="2.3027">
        <ele>119</ele>
        <time>2017-07-23T08:23:56.121Z</time>
      </trkpt>
      <trkpt lat="47.78203" lon="2.30265">
        <ele>120</ele>
        <time>2017-07-23T08:23:57.142Z</time>
      </trkpt>
      <trkpt lat="47.78203" lon="2.30265">
        <ele>120</ele>
        <time>2017-07-23T08:23:58.124Z</time>
      </trkpt>
      <trkpt lat="47.78206" lon="2.30261">
        <ele>119</ele>
        <time>2017-07-23T08:23:59.132Z</time>
      </trkpt>
      <trkpt lat="47.78206" lon="2.30261">
        <ele>119</ele>
        <time>2017-07-23T08:24:00.112Z</time>
      </trkpt>
      <trkpt lat="47.78207" lon="2.30256">
        <ele>118</ele>
        <time>2017-07-23T08:24:01.125Z</time>
      </trkpt>
      <trkpt lat="47.78207" lon="2.30256">
        <ele>118</ele>
        <time>2017-07-23T08:24:02.140Z</time>
      </trkpt>
      <trkpt lat="47.78206" lon="2.30251">
        <ele>117</ele>
        <time>2017-07-23T08:24:03.125Z</time>
      </trkpt>
      <trkpt lat="47.78205" lon="2.30248">
        <ele>116</ele>
        <time>2017-07-23T08:24:04.138Z</time>
      </trkpt>
      <trkpt lat="47.78205" lon="2.30248">
        <ele>116</ele>
        <time>2017-07-23T08:24:05.122Z</time>
      </trkpt>
      <trkpt lat="47.78204" lon="2.30244">
        <ele>116</ele>
        <time>2017-07-23T08:24:06.145Z</time>
      </trkpt>
      <trkpt lat="47.78204" lon="2.30244">
        <ele>116</ele>
        <time>2017-07-23T08:24:07.145Z</time>
      </trkpt>
      <trkpt lat="47.78204" lon="2.30244">
        <ele>116</ele>
        <time>2017-07-23T08:24:08.120Z</time>
      </trkpt>
      <trkpt lat="47.78204" lon="2.30245">
        <ele>116</ele>
        <time>2017-07-23T08:24:09.126Z</time>
      </trkpt>
      <trkpt lat="47.78202" lon="2.30232">
        <ele>112</ele>
        <time>2017-07-23T08:24:10.129Z</time>
      </trkpt>
      <trkpt lat="47.78202" lon="2.30232">
        <ele>112</ele>
        <time>2017-07-23T08:24:11.125Z</time>
      </trkpt>
      <trkpt lat="47.78199" lon="2.3022">
        <ele>112</ele>
        <time>2017-07-23T08:24:12.129Z</time>
      </trkpt>
      <trkpt lat="47.78197" lon="2.30214">
        <ele>112</ele>
        <time>2017-07-23T08:24:13.138Z</time>
      </trkpt>
      <trkpt lat="47.78197" lon="2.30214">
        <ele>112</ele>
        <time>2017-07-23T08:24:14.142Z</time>
      </trkpt>
      <trkpt lat="47.78194" lon="2.30199">
        <ele>112</ele>
        <time>2017-07-23T08:24:15.108Z</time>
      </trkpt>
      <trkpt lat="47.78192" lon="2.30191">
        <ele>112</ele>
        <time>2017-07-23T08:24:16.132Z</time>
      </trkpt>
      <trkpt lat="47.7819" lon="2.30184">
        <ele>112</ele>
        <time>2017-07-23T08:24:17.147Z</time>
      </trkpt>
      <trkpt lat="47.7819" lon="2.30184">
        <ele>112</ele>
        <time>2017-07-23T08:24:18.134Z</time>
      </trkpt>
      <trkpt lat="47.78186" lon="2.30169">
        <ele>112</ele>
        <time>2017-07-23T08:24:19.145Z</time>
      </trkpt>
      <trkpt lat="47.78183" lon="2.30162">
        <ele>112</ele>
        <time>2017-07-23T08:24:20.120Z</time>
      </trkpt>
      <trkpt lat="47.78183" lon="2.30162">
        <ele>112</ele>
        <time>2017-07-23T08:24:21.144Z</time>
      </trkpt>
      <trkpt lat="47.78179" lon="2.30149">
        <ele>113</ele>
        <time>2017-07-23T08:24:22.133Z</time>
      </trkpt>
      <trkpt lat="47.78179" lon="2.30149">
        <ele>113</ele>
        <time>2017-07-23T08:24:23.143Z</time>
      </trkpt>
      <trkpt lat="47.78174" lon="2.30136">
        <ele>113</ele>
        <time>2017-07-23T08:24:24.112Z</time>
      </trkpt>
      <trkpt lat="47.78171" lon="2.30129">
        <ele>113</ele>
        <time>2017-07-23T08:24:25.140Z</time>
      </trkpt>
      <trkpt lat="47.78171" lon="2.30129">
        <ele>113</ele>
        <time>2017-07-23T08:24:26.135Z</time>
      </trkpt>
      <trkpt lat="47.78166" lon="2.30115">
        <ele>113</ele>
        <time>2017-07-23T08:24:27.141Z</time>
      </trkpt>
      <trkpt lat="47.78164" lon="2.30108">
        <ele>113</ele>
        <time>2017-07-23T08:24:28.141Z</time>
      </trkpt>
      <trkpt lat="47.78164" lon="2.30108">
        <ele>113</ele>
        <time>2017-07-23T08:24:29.140Z</time>
      </trkpt>
      <trkpt lat="47.78159" lon="2.30095">
        <ele>113</ele>
        <time>2017-07-23T08:24:30.146Z</time>
      </trkpt>
      <trkpt lat="47.78159" lon="2.30095">
        <ele>113</ele>
        <time>2017-07-23T08:24:31.133Z</time>
      </trkpt>
      <trkpt lat="47.78154" lon="2.30083">
        <ele>113</ele>
        <time>2017-07-23T08:24:32.133Z</time>
      </trkpt>
      <trkpt lat="47.78154" lon="2.30083">
        <ele>113</ele>
        <time>2017-07-23T08:24:33.116Z</time>
      </trkpt>
      <trkpt lat="47.7815" lon="2.3007">
        <ele>114</ele>
        <time>2017-07-23T08:24:34.122Z</time>
      </trkpt>
      <trkpt lat="47.78147" lon="2.30063">
        <ele>114</ele>
        <time>2017-07-23T08:24:35.138Z</time>
      </trkpt>
      <trkpt lat="47.78147" lon="2.30063">
        <ele>114</ele>
        <time>2017-07-23T08:24:36.137Z</time>
      </trkpt>
      <trkpt lat="47.78142" lon="2.30049">
        <ele>114</ele>
        <time>2017-07-23T08:24:37.147Z</time>
      </trkpt>
      <trkpt lat="47.78142" lon="2.30049">
        <ele>114</ele>
        <time>2017-07-23T08:24:38.123Z</time>
      </trkpt>
      <trkpt lat="47.78137" lon="2.30035">
        <ele>115</ele>
        <time>2017-07-23T08:24:39.119Z</time>
      </trkpt>
      <trkpt lat="47.78135" lon="2.30028">
        <ele>115</ele>
        <time>2017-07-23T08:24:40.146Z</time>
      </trkpt>
      <trkpt lat="47.78135" lon="2.30028">
        <ele>115</ele>
        <time>2017-07-23T08:24:41.117Z</time>
      </trkpt>
      <trkpt lat="47.78131" lon="2.30013">
        <ele>115</ele>
        <time>2017-07-23T08:24:42.129Z</time>
      </trkpt>
      <trkpt lat="47.78131" lon="2.30013">
        <ele>115</ele>
        <time>2017-07-23T08:24:43.118Z</time>
      </trkpt>
      <trkpt lat="47.78126" lon="2.3">
        <ele>115</ele>
        <time>2017-07-23T08:24:44.133Z</time>
      </trkpt>
      <trkpt lat="47.78126" lon="2.3">
        <ele>115</ele>
        <time>2017-07-23T08:24:45.116Z</time>
      </trkpt>
      <trkpt lat="47.78121" lon="2.29987">
        <ele>115</ele>
        <time>2017-07-23T08:24:46.130Z</time>
      </trkpt>
      <trkpt lat="47.78119" lon="2.29981">
        <ele>115</ele>
        <time>2017-07-23T08:24:47.140Z</time>
      </trkpt>
      <trkpt lat="47.78119" lon="2.29981">
        <ele>115</ele>
        <time>2017-07-23T08:24:48.123Z</time>
      </trkpt>
      <trkpt lat="47.78113" lon="2.2997">
        <ele>115</ele>
        <time>2017-07-23T08:24:49.129Z</time>
      </trkpt>
      <trkpt lat="47.78109" lon="2.29964">
        <ele>115</ele>
        <time>2017-07-23T08:24:50.117Z</time>
      </trkpt>
      <trkpt lat="47.78109" lon="2.29964">
        <ele>115</ele>
        <time>2017-07-23T08:24:51.122Z</time>
      </trkpt>
      <trkpt lat="47.78102" lon="2.29955">
        <ele>115</ele>
        <time>2017-07-23T08:24:52.129Z</time>
      </trkpt>
      <trkpt lat="47.78098" lon="2.29951">
        <ele>115</ele>
        <time>2017-07-23T08:24:53.143Z</time>
      </trkpt>
      <trkpt lat="47.78094" lon="2.29946">
        <ele>115</ele>
        <time>2017-07-23T08:24:54.120Z</time>
      </trkpt>
      <trkpt lat="47.78094" lon="2.29946">
        <ele>115</ele>
        <time>2017-07-23T08:24:55.108Z</time>
      </trkpt>
      <trkpt lat="47.78087" lon="2.29938">
        <ele>115</ele>
        <time>2017-07-23T08:24:56.123Z</time>
      </trkpt>
      <trkpt lat="47.78083" lon="2.29934">
        <ele>115</ele>
        <time>2017-07-23T08:24:57.109Z</time>
      </trkpt>
      <trkpt lat="47.78078" lon="2.2993">
        <ele>115</ele>
        <time>2017-07-23T08:24:58.133Z</time>
      </trkpt>
      <trkpt lat="47.78078" lon="2.2993">
        <ele>115</ele>
        <time>2017-07-23T08:24:59.120Z</time>
      </trkpt>
      <trkpt lat="47.7807" lon="2.29922">
        <ele>115</ele>
        <time>2017-07-23T08:25:00.127Z</time>
      </trkpt>
      <trkpt lat="47.78066" lon="2.29917">
        <ele>115</ele>
        <time>2017-07-23T08:25:01.110Z</time>
      </trkpt>
      <trkpt lat="47.78066" lon="2.29917">
        <ele>115</ele>
        <time>2017-07-23T08:25:02.133Z</time>
      </trkpt>
      <trkpt lat="47.78058" lon="2.29909">
        <ele>115</ele>
        <time>2017-07-23T08:25:03.140Z</time>
      </trkpt>
      <trkpt lat="47.78058" lon="2.29909">
        <ele>115</ele>
        <time>2017-07-23T08:25:04.143Z</time>
      </trkpt>
      <trkpt lat="47.7805" lon="2.29901">
        <ele>115</ele>
        <time>2017-07-23T08:25:05.133Z</time>
      </trkpt>
      <trkpt lat="47.7805" lon="2.29901">
        <ele>115</ele>
        <time>2017-07-23T08:25:06.136Z</time>
      </trkpt>
      <trkpt lat="47.78043" lon="2.29892">
        <ele>115</ele>
        <time>2017-07-23T08:25:07.142Z</time>
      </trkpt>
      <trkpt lat="47.78039" lon="2.29888">
        <ele>115</ele>
        <time>2017-07-23T08:25:08.132Z</time>
      </trkpt>
      <trkpt lat="47.78039" lon="2.29888">
        <ele>115</ele>
        <time>2017-07-23T08:25:09.122Z</time>
      </trkpt>
      <trkpt lat="47.78031" lon="2.29879">
        <ele>115</ele>
        <time>2017-07-23T08:25:10.129Z</time>
      </trkpt>
      <trkpt lat="47.78031" lon="2.29879">
        <ele>115</ele>
        <time>2017-07-23T08:25:11.116Z</time>
      </trkpt>
      <trkpt lat="47.78024" lon="2.2987">
        <ele>115</ele>
        <time>2017-07-23T08:25:12.140Z</time>
      </trkpt>
      <trkpt lat="47.78024" lon="2.2987">
        <ele>115</ele>
        <time>2017-07-23T08:25:13.133Z</time>
      </trkpt>
      <trkpt lat="47.78017" lon="2.29861">
        <ele>115</ele>
        <time>2017-07-23T08:25:14.139Z</time>
      </trkpt>
      <trkpt lat="47.78017" lon="2.29861">
        <ele>115</ele>
        <time>2017-07-23T08:25:15.117Z</time>
      </trkpt>
      <trkpt lat="47.78011" lon="2.29852">
        <ele>114</ele>
        <time>2017-07-23T08:25:16.114Z</time>
      </trkpt>
      <trkpt lat="47.78007" lon="2.29848">
        <ele>114</ele>
        <time>2017-07-23T08:25:17.127Z</time>
      </trkpt>
      <trkpt lat="47.78007" lon="2.29848">
        <ele>114</ele>
        <time>2017-07-23T08:25:18.135Z</time>
      </trkpt>
      <trkpt lat="47.78001" lon="2.29839">
        <ele>114</ele>
        <time>2017-07-23T08:25:19.133Z</time>
      </trkpt>
      <trkpt lat="47.78001" lon="2.29839">
        <ele>114</ele>
        <time>2017-07-23T08:25:20.132Z</time>
      </trkpt>
      <trkpt lat="47.77994" lon="2.29831">
        <ele>114</ele>
        <time>2017-07-23T08:25:21.138Z</time>
      </trkpt>
      <trkpt lat="47.77991" lon="2.29828">
        <ele>114</ele>
        <time>2017-07-23T08:25:22.129Z</time>
      </trkpt>
      <trkpt lat="47.77991" lon="2.29828">
        <ele>114</ele>
        <time>2017-07-23T08:25:23.108Z</time>
      </trkpt>
      <trkpt lat="47.77984" lon="2.29821">
        <ele>115</ele>
        <time>2017-07-23T08:25:24.116Z</time>
      </trkpt>
      <trkpt lat="47.77981" lon="2.29817">
        <ele>115</ele>
        <time>2017-07-23T08:25:25.143Z</time>
      </trkpt>
      <trkpt lat="47.77981" lon="2.29817">
        <ele>115</ele>
        <time>2017-07-23T08:25:26.132Z</time>
      </trkpt>
      <trkpt lat="47.77974" lon="2.2981">
        <ele>115</ele>
        <time>2017-07-23T08:25:27.120Z</time>
      </trkpt>
      <trkpt lat="47.77971" lon="2.29807">
        <ele>115</ele>
        <time>2017-07-23T08:25:28.131Z</time>
      </trkpt>
      <trkpt lat="47.77971" lon="2.29807">
        <ele>115</ele>
        <time>2017-07-23T08:25:29.130Z</time>
      </trkpt>
      <trkpt lat="47.77964" lon="2.29801">
        <ele>115</ele>
        <time>2017-07-23T08:25:30.140Z</time>
      </trkpt>
      <trkpt lat="47.7796" lon="2.29797">
        <ele>115</ele>
        <time>2017-07-23T08:25:31.138Z</time>
      </trkpt>
      <trkpt lat="47.7796" lon="2.29797">
        <ele>115</ele>
        <time>2017-07-23T08:25:32.142Z</time>
      </trkpt>
      <trkpt lat="47.77953" lon="2.29791">
        <ele>115</ele>
        <time>2017-07-23T08:25:33.108Z</time>
      </trkpt>
      <trkpt lat="47.77949" lon="2.29787">
        <ele>115</ele>
        <time>2017-07-23T08:25:34.123Z</time>
      </trkpt>
      <trkpt lat="47.77946" lon="2.29784">
        <ele>115</ele>
        <time>2017-07-23T08:25:35.136Z</time>
      </trkpt>
      <trkpt lat="47.77946" lon="2.29784">
        <ele>115</ele>
        <time>2017-07-23T08:25:36.120Z</time>
      </trkpt>
      <trkpt lat="47.77938" lon="2.29777">
        <ele>115</ele>
        <time>2017-07-23T08:25:37.144Z</time>
      </trkpt>
      <trkpt lat="47.77935" lon="2.29774">
        <ele>115</ele>
        <time>2017-07-23T08:25:38.131Z</time>
      </trkpt>
      <trkpt lat="47.77935" lon="2.29774">
        <ele>115</ele>
        <time>2017-07-23T08:25:39.142Z</time>
      </trkpt>
      <trkpt lat="47.77927" lon="2.29767">
        <ele>115</ele>
        <time>2017-07-23T08:25:40.108Z</time>
      </trkpt>
      <trkpt lat="47.77924" lon="2.29763">
        <ele>115</ele>
        <time>2017-07-23T08:25:41.137Z</time>
      </trkpt>
      <trkpt lat="47.7792" lon="2.2976">
        <ele>115</ele>
        <time>2017-07-23T08:25:42.132Z</time>
      </trkpt>
      <trkpt lat="47.7792" lon="2.2976">
        <ele>115</ele>
        <time>2017-07-23T08:25:43.128Z</time>
      </trkpt>
      <trkpt lat="47.77912" lon="2.29753">
        <ele>115</ele>
        <time>2017-07-23T08:25:44.134Z</time>
      </trkpt>
      <trkpt lat="47.77908" lon="2.29749">
        <ele>115</ele>
        <time>2017-07-23T08:25:45.141Z</time>
      </trkpt>
      <trkpt lat="47.77908" lon="2.29749">
        <ele>115</ele>
        <time>2017-07-23T08:25:46.114Z</time>
      </trkpt>
      <trkpt lat="47.779" lon="2.29741">
        <ele>115</ele>
        <time>2017-07-23T08:25:47.122Z</time>
      </trkpt>
      <trkpt lat="47.779" lon="2.29741">
        <ele>115</ele>
        <time>2017-07-23T08:25:48.128Z</time>
      </trkpt>
      <trkpt lat="47.77891" lon="2.29734">
        <ele>115</ele>
        <time>2017-07-23T08:25:49.131Z</time>
      </trkpt>
      <trkpt lat="47.77891" lon="2.29734">
        <ele>115</ele>
        <time>2017-07-23T08:25:50.114Z</time>
      </trkpt>
      <trkpt lat="47.77883" lon="2.29727">
        <ele>115</ele>
        <time>2017-07-23T08:25:51.121Z</time>
      </trkpt>
      <trkpt lat="47.77879" lon="2.29723">
        <ele>115</ele>
        <time>2017-07-23T08:25:52.140Z</time>
      </trkpt>
      <trkpt lat="47.77879" lon="2.29723">
        <ele>115</ele>
        <time>2017-07-23T08:25:53.124Z</time>
      </trkpt>
      <trkpt lat="47.77871" lon="2.29716">
        <ele>116</ele>
        <time>2017-07-23T08:25:54.140Z</time>
      </trkpt>
      <trkpt lat="47.77871" lon="2.29716">
        <ele>116</ele>
        <time>2017-07-23T08:25:55.127Z</time>
      </trkpt>
      <trkpt lat="47.77863" lon="2.29709">
        <ele>115</ele>
        <time>2017-07-23T08:25:56.145Z</time>
      </trkpt>
      <trkpt lat="47.77859" lon="2.29705">
        <ele>115</ele>
        <time>2017-07-23T08:25:57.133Z</time>
      </trkpt>
      <trkpt lat="47.77859" lon="2.29705">
        <ele>115</ele>
        <time>2017-07-23T08:25:58.134Z</time>
      </trkpt>
      <trkpt lat="47.77852" lon="2.29697">
        <ele>116</ele>
        <time>2017-07-23T08:25:59.140Z</time>
      </trkpt>
      <trkpt lat="47.77848" lon="2.29693">
        <ele>116</ele>
        <time>2017-07-23T08:26:00.132Z</time>
      </trkpt>
      <trkpt lat="47.77848" lon="2.29693">
        <ele>116</ele>
        <time>2017-07-23T08:26:01.120Z</time>
      </trkpt>
      <trkpt lat="47.77842" lon="2.29682">
        <ele>116</ele>
        <time>2017-07-23T08:26:02.126Z</time>
      </trkpt>
      <trkpt lat="47.77841" lon="2.29675">
        <ele>116</ele>
        <time>2017-07-23T08:26:03.133Z</time>
      </trkpt>
      <trkpt lat="47.77841" lon="2.29675">
        <ele>116</ele>
        <time>2017-07-23T08:26:04.142Z</time>
      </trkpt>
      <trkpt lat="47.77843" lon="2.29659">
        <ele>116</ele>
        <time>2017-07-23T08:26:05.108Z</time>
      </trkpt>
      <trkpt lat="47.77843" lon="2.29659">
        <ele>116</ele>
        <time>2017-07-23T08:26:06.117Z</time>
      </trkpt>
      <trkpt lat="47.77848" lon="2.29643">
        <ele>116</ele>
        <time>2017-07-23T08:26:07.142Z</time>
      </trkpt>
      <trkpt lat="47.77848" lon="2.29643">
        <ele>116</ele>
        <time>2017-07-23T08:26:08.131Z</time>
      </trkpt>
      <trkpt lat="47.77853" lon="2.29627">
        <ele>116</ele>
        <time>2017-07-23T08:26:09.137Z</time>
      </trkpt>
      <trkpt lat="47.77853" lon="2.29627">
        <ele>116</ele>
        <time>2017-07-23T08:26:10.124Z</time>
      </trkpt>
      <trkpt lat="47.77858" lon="2.2961">
        <ele>116</ele>
        <time>2017-07-23T08:26:11.131Z</time>
      </trkpt>
      <trkpt lat="47.77858" lon="2.2961">
        <ele>116</ele>
        <time>2017-07-23T08:26:12.124Z</time>
      </trkpt>
      <trkpt lat="47.77863" lon="2.29592">
        <ele>116</ele>
        <time>2017-07-23T08:26:13.131Z</time>
      </trkpt>
      <trkpt lat="47.77866" lon="2.29584">
        <ele>116</ele>
        <time>2017-07-23T08:26:14.143Z</time>
      </trkpt>
      <trkpt lat="47.77866" lon="2.29584">
        <ele>116</ele>
        <time>2017-07-23T08:26:15.115Z</time>
      </trkpt>
      <trkpt lat="47.77871" lon="2.29567">
        <ele>116</ele>
        <time>2017-07-23T08:26:16.124Z</time>
      </trkpt>
      <trkpt lat="47.77873" lon="2.29559">
        <ele>116</ele>
        <time>2017-07-23T08:26:17.132Z</time>
      </trkpt>
      <trkpt lat="47.77873" lon="2.29559">
        <ele>116</ele>
        <time>2017-07-23T08:26:18.117Z</time>
      </trkpt>
      <trkpt lat="47.77879" lon="2.29542">
        <ele>116</ele>
        <time>2017-07-23T08:26:19.124Z</time>
      </trkpt>
      <trkpt lat="47.77881" lon="2.29534">
        <ele>117</ele>
        <time>2017-07-23T08:26:20.133Z</time>
      </trkpt>
      <trkpt lat="47.77881" lon="2.29534">
        <ele>117</ele>
        <time>2017-07-23T08:26:21.119Z</time>
      </trkpt>
      <trkpt lat="47.77887" lon="2.29518">
        <ele>118</ele>
        <time>2017-07-23T08:26:22.125Z</time>
      </trkpt>
      <trkpt lat="47.7789" lon="2.29509">
        <ele>118</ele>
        <time>2017-07-23T08:26:23.133Z</time>
      </trkpt>
      <trkpt lat="47.7789" lon="2.29509">
        <ele>118</ele>
        <time>2017-07-23T08:26:24.122Z</time>
      </trkpt>
      <trkpt lat="47.77895" lon="2.29492">
        <ele>118</ele>
        <time>2017-07-23T08:26:25.129Z</time>
      </trkpt>
      <trkpt lat="47.77895" lon="2.29492">
        <ele>118</ele>
        <time>2017-07-23T08:26:26.138Z</time>
      </trkpt>
      <trkpt lat="47.779" lon="2.29474">
        <ele>118</ele>
        <time>2017-07-23T08:26:27.132Z</time>
      </trkpt>
      <trkpt lat="47.77903" lon="2.29465">
        <ele>118</ele>
        <time>2017-07-23T08:26:28.135Z</time>
      </trkpt>
      <trkpt lat="47.77903" lon="2.29465">
        <ele>118</ele>
        <time>2017-07-23T08:26:29.109Z</time>
      </trkpt>
      <trkpt lat="47.77908" lon="2.29447">
        <ele>118</ele>
        <time>2017-07-23T08:26:30.116Z</time>
      </trkpt>
      <trkpt lat="47.77908" lon="2.29447">
        <ele>118</ele>
        <time>2017-07-23T08:26:31.116Z</time>
      </trkpt>
      <trkpt lat="47.77913" lon="2.29431">
        <ele>119</ele>
        <time>2017-07-23T08:26:32.122Z</time>
      </trkpt>
      <trkpt lat="47.77913" lon="2.29431">
        <ele>119</ele>
        <time>2017-07-23T08:26:33.125Z</time>
      </trkpt>
      <trkpt lat="47.77917" lon="2.29416">
        <ele>119</ele>
        <time>2017-07-23T08:26:34.132Z</time>
      </trkpt>
      <trkpt lat="47.7792" lon="2.29408">
        <ele>119</ele>
        <time>2017-07-23T08:26:35.134Z</time>
      </trkpt>
      <trkpt lat="47.7792" lon="2.29408">
        <ele>119</ele>
        <time>2017-07-23T08:26:36.120Z</time>
      </trkpt>
      <trkpt lat="47.77924" lon="2.29395">
        <ele>119</ele>
        <time>2017-07-23T08:26:37.140Z</time>
      </trkpt>
      <trkpt lat="47.77927" lon="2.29388">
        <ele>119</ele>
        <time>2017-07-23T08:26:38.119Z</time>
      </trkpt>
      <trkpt lat="47.77927" lon="2.29388">
        <ele>119</ele>
        <time>2017-07-23T08:26:39.109Z</time>
      </trkpt>
      <trkpt lat="47.77931" lon="2.29374">
        <ele>118</ele>
        <time>2017-07-23T08:26:40.120Z</time>
      </trkpt>
      <trkpt lat="47.77933" lon="2.29368">
        <ele>119</ele>
        <time>2017-07-23T08:26:41.133Z</time>
      </trkpt>
      <trkpt lat="47.77933" lon="2.29368">
        <ele>119</ele>
        <time>2017-07-23T08:26:42.118Z</time>
      </trkpt>
      <trkpt lat="47.77937" lon="2.29356">
        <ele>118</ele>
        <time>2017-07-23T08:26:43.140Z</time>
      </trkpt>
      <trkpt lat="47.77937" lon="2.29356">
        <ele>118</ele>
        <time>2017-07-23T08:26:44.142Z</time>
      </trkpt>
      <trkpt lat="47.77941" lon="2.29343">
        <ele>119</ele>
        <time>2017-07-23T08:26:45.118Z</time>
      </trkpt>
      <trkpt lat="47.77943" lon="2.29337">
        <ele>118</ele>
        <time>2017-07-23T08:26:46.133Z</time>
      </trkpt>
      <trkpt lat="47.77943" lon="2.29337">
        <ele>118</ele>
        <time>2017-07-23T08:26:47.141Z</time>
      </trkpt>
      <trkpt lat="47.77949" lon="2.29328">
        <ele>118</ele>
        <time>2017-07-23T08:26:48.108Z</time>
      </trkpt>
      <trkpt lat="47.77949" lon="2.29328">
        <ele>118</ele>
        <time>2017-07-23T08:26:49.119Z</time>
      </trkpt>
      <trkpt lat="47.77957" lon="2.2933">
        <ele>118</ele>
        <time>2017-07-23T08:26:50.125Z</time>
      </trkpt>
      <trkpt lat="47.77961" lon="2.29333">
        <ele>118</ele>
        <time>2017-07-23T08:26:51.132Z</time>
      </trkpt>
      <trkpt lat="47.77961" lon="2.29333">
        <ele>118</ele>
        <time>2017-07-23T08:26:52.132Z</time>
      </trkpt>
      <trkpt lat="47.7797" lon="2.2934">
        <ele>118</ele>
        <time>2017-07-23T08:26:53.138Z</time>
      </trkpt>
      <trkpt lat="47.7797" lon="2.2934">
        <ele>118</ele>
        <time>2017-07-23T08:26:54.131Z</time>
      </trkpt>
      <trkpt lat="47.77979" lon="2.29347">
        <ele>118</ele>
        <time>2017-07-23T08:26:55.140Z</time>
      </trkpt>
      <trkpt lat="47.77979" lon="2.29347">
        <ele>118</ele>
        <time>2017-07-23T08:26:56.132Z</time>
      </trkpt>
      <trkpt lat="47.77987" lon="2.29354">
        <ele>118</ele>
        <time>2017-07-23T08:26:57.138Z</time>
      </trkpt>
      <trkpt lat="47.77991" lon="2.29358">
        <ele>118</ele>
        <time>2017-07-23T08:26:58.134Z</time>
      </trkpt>
      <trkpt lat="47.77991" lon="2.29358">
        <ele>118</ele>
        <time>2017-07-23T08:26:59.117Z</time>
      </trkpt>
      <trkpt lat="47.77999" lon="2.29364">
        <ele>118</ele>
        <time>2017-07-23T08:27:00.126Z</time>
      </trkpt>
      <trkpt lat="47.77999" lon="2.29364">
        <ele>118</ele>
        <time>2017-07-23T08:27:01.125Z</time>
      </trkpt>
      <trkpt lat="47.78007" lon="2.2937">
        <ele>118</ele>
        <time>2017-07-23T08:27:02.130Z</time>
      </trkpt>
      <trkpt lat="47.78007" lon="2.2937">
        <ele>118</ele>
        <time>2017-07-23T08:27:03.117Z</time>
      </trkpt>
      <trkpt lat="47.78014" lon="2.29378">
        <ele>118</ele>
        <time>2017-07-23T08:27:04.124Z</time>
      </trkpt>
      <trkpt lat="47.78017" lon="2.29382">
        <ele>118</ele>
        <time>2017-07-23T08:27:05.130Z</time>
      </trkpt>
      <trkpt lat="47.78017" lon="2.29382">
        <ele>118</ele>
        <time>2017-07-23T08:27:06.140Z</time>
      </trkpt>
      <trkpt lat="47.78025" lon="2.29388">
        <ele>118</ele>
        <time>2017-07-23T08:27:07.146Z</time>
      </trkpt>
      <trkpt lat="47.78029" lon="2.29392">
        <ele>118</ele>
        <time>2017-07-23T08:27:08.123Z</time>
      </trkpt>
      <trkpt lat="47.78029" lon="2.29392">
        <ele>118</ele>
        <time>2017-07-23T08:27:09.142Z</time>
      </trkpt>
      <trkpt lat="47.78037" lon="2.294">
        <ele>118</ele>
        <time>2017-07-23T08:27:10.148Z</time>
      </trkpt>
      <trkpt lat="47.78037" lon="2.294">
        <ele>118</ele>
        <time>2017-07-23T08:27:11.115Z</time>
      </trkpt>
      <trkpt lat="47.78046" lon="2.29407">
        <ele>118</ele>
        <time>2017-07-23T08:27:12.133Z</time>
      </trkpt>
      <trkpt lat="47.78046" lon="2.29407">
        <ele>118</ele>
        <time>2017-07-23T08:27:13.143Z</time>
      </trkpt>
      <trkpt lat="47.78053" lon="2.29414">
        <ele>118</ele>
        <time>2017-07-23T08:27:14.109Z</time>
      </trkpt>
      <trkpt lat="47.78053" lon="2.29414">
        <ele>118</ele>
        <time>2017-07-23T08:27:15.135Z</time>
      </trkpt>
      <trkpt lat="47.78061" lon="2.29421">
        <ele>117</ele>
        <time>2017-07-23T08:27:16.133Z</time>
      </trkpt>
      <trkpt lat="47.78061" lon="2.29421">
        <ele>117</ele>
        <time>2017-07-23T08:27:17.124Z</time>
      </trkpt>
      <trkpt lat="47.78069" lon="2.29429">
        <ele>117</ele>
        <time>2017-07-23T08:27:18.130Z</time>
      </trkpt>
      <trkpt lat="47.78073" lon="2.29433">
        <ele>118</ele>
        <time>2017-07-23T08:27:19.142Z</time>
      </trkpt>
      <trkpt lat="47.78073" lon="2.29433">
        <ele>118</ele>
        <time>2017-07-23T08:27:20.129Z</time>
      </trkpt>
      <trkpt lat="47.78082" lon="2.29441">
        <ele>118</ele>
        <time>2017-07-23T08:27:21.132Z</time>
      </trkpt>
      <trkpt lat="47.78082" lon="2.29441">
        <ele>118</ele>
        <time>2017-07-23T08:27:22.119Z</time>
      </trkpt>
      <trkpt lat="47.78091" lon="2.29447">
        <ele>117</ele>
        <time>2017-07-23T08:27:23.126Z</time>
      </trkpt>
      <trkpt lat="47.78095" lon="2.2945">
        <ele>117</ele>
        <time>2017-07-23T08:27:24.142Z</time>
      </trkpt>
      <trkpt lat="47.78095" lon="2.2945">
        <ele>117</ele>
        <time>2017-07-23T08:27:25.111Z</time>
      </trkpt>
      <trkpt lat="47.78104" lon="2.29458">
        <ele>117</ele>
        <time>2017-07-23T08:27:26.120Z</time>
      </trkpt>
      <trkpt lat="47.78104" lon="2.29458">
        <ele>117</ele>
        <time>2017-07-23T08:27:27.114Z</time>
      </trkpt>
      <trkpt lat="47.78113" lon="2.29464">
        <ele>117</ele>
        <time>2017-07-23T08:27:28.132Z</time>
      </trkpt>
      <trkpt lat="47.78113" lon="2.29464">
        <ele>117</ele>
        <time>2017-07-23T08:27:29.124Z</time>
      </trkpt>
      <trkpt lat="47.78122" lon="2.29471">
        <ele>117</ele>
        <time>2017-07-23T08:27:30.128Z</time>
      </trkpt>
      <trkpt lat="47.78122" lon="2.29471">
        <ele>117</ele>
        <time>2017-07-23T08:27:31.125Z</time>
      </trkpt>
      <trkpt lat="47.78131" lon="2.29478">
        <ele>117</ele>
        <time>2017-07-23T08:27:32.138Z</time>
      </trkpt>
      <trkpt lat="47.78131" lon="2.29478">
        <ele>117</ele>
        <time>2017-07-23T08:27:33.132Z</time>
      </trkpt>
      <trkpt lat="47.7814" lon="2.29487">
        <ele>117</ele>
        <time>2017-07-23T08:27:34.138Z</time>
      </trkpt>
      <trkpt lat="47.78144" lon="2.29492">
        <ele>116</ele>
        <time>2017-07-23T08:27:35.122Z</time>
      </trkpt>
      <trkpt lat="47.78144" lon="2.29492">
        <ele>116</ele>
        <time>2017-07-23T08:27:36.142Z</time>
      </trkpt>
      <trkpt lat="47.78151" lon="2.29502">
        <ele>116</ele>
        <time>2017-07-23T08:27:37.117Z</time>
      </trkpt>
      <trkpt lat="47.78151" lon="2.29502">
        <ele>116</ele>
        <time>2017-07-23T08:27:38.146Z</time>
      </trkpt>
      <trkpt lat="47.78158" lon="2.29512">
        <ele>116</ele>
        <time>2017-07-23T08:27:39.118Z</time>
      </trkpt>
      <trkpt lat="47.78158" lon="2.29512">
        <ele>116</ele>
        <time>2017-07-23T08:27:40.138Z</time>
      </trkpt>
      <trkpt lat="47.78166" lon="2.29523">
        <ele>116</ele>
        <time>2017-07-23T08:27:41.140Z</time>
      </trkpt>
      <trkpt lat="47.78166" lon="2.29523">
        <ele>116</ele>
        <time>2017-07-23T08:27:42.122Z</time>
      </trkpt>
      <trkpt lat="47.78174" lon="2.29532">
        <ele>116</ele>
        <time>2017-07-23T08:27:43.128Z</time>
      </trkpt>
      <trkpt lat="47.78178" lon="2.29537">
        <ele>116</ele>
        <time>2017-07-23T08:27:44.140Z</time>
      </trkpt>
      <trkpt lat="47.78178" lon="2.29537">
        <ele>116</ele>
        <time>2017-07-23T08:27:45.140Z</time>
      </trkpt>
      <trkpt lat="47.78187" lon="2.29545">
        <ele>117</ele>
        <time>2017-07-23T08:27:46.147Z</time>
      </trkpt>
      <trkpt lat="47.78187" lon="2.29545">
        <ele>117</ele>
        <time>2017-07-23T08:27:47.133Z</time>
      </trkpt>
      <trkpt lat="47.78195" lon="2.29553">
        <ele>117</ele>
        <time>2017-07-23T08:27:48.149Z</time>
      </trkpt>
      <trkpt lat="47.78195" lon="2.29553">
        <ele>117</ele>
        <time>2017-07-23T08:27:49.142Z</time>
      </trkpt>
      <trkpt lat="47.78204" lon="2.29561">
        <ele>118</ele>
        <time>2017-07-23T08:27:50.108Z</time>
      </trkpt>
      <trkpt lat="47.78204" lon="2.29561">
        <ele>118</ele>
        <time>2017-07-23T08:27:51.132Z</time>
      </trkpt>
      <trkpt lat="47.78213" lon="2.29568">
        <ele>118</ele>
        <time>2017-07-23T08:27:52.137Z</time>
      </trkpt>
      <trkpt lat="47.78218" lon="2.29572">
        <ele>118</ele>
        <time>2017-07-23T08:27:53.125Z</time>
      </trkpt>
      <trkpt lat="47.78218" lon="2.29572">
        <ele>118</ele>
        <time>2017-07-23T08:27:54.115Z</time>
      </trkpt>
      <trkpt lat="47.78227" lon="2.29579">
        <ele>118</ele>
        <time>2017-07-23T08:27:55.142Z</time>
      </trkpt>
      <trkpt lat="47.78227" lon="2.29579">
        <ele>118</ele>
        <time>2017-07-23T08:27:56.123Z</time>
      </trkpt>
      <trkpt lat="47.78236" lon="2.29585">
        <ele>118</ele>
        <time>2017-07-23T08:27:57.129Z</time>
      </trkpt>
      <trkpt lat="47.7824" lon="2.29589">
        <ele>118</ele>
        <time>2017-07-23T08:27:58.143Z</time>
      </trkpt>
      <trkpt lat="47.7824" lon="2.29589">
        <ele>118</ele>
        <time>2017-07-23T08:27:59.108Z</time>
      </trkpt>
      <trkpt lat="47.78247" lon="2.29596">
        <ele>118</ele>
        <time>2017-07-23T08:28:00.118Z</time>
      </trkpt>
      <trkpt lat="47.78251" lon="2.29598">
        <ele>118</ele>
        <time>2017-07-23T08:28:01.140Z</time>
      </trkpt>
      <trkpt lat="47.78251" lon="2.29598">
        <ele>118</ele>
        <time>2017-07-23T08:28:02.138Z</time>
      </trkpt>
      <trkpt lat="47.78258" lon="2.29599">
        <ele>118</ele>
        <time>2017-07-23T08:28:03.144Z</time>
      </trkpt>
      <trkpt lat="47.78258" lon="2.29599">
        <ele>118</ele>
        <time>2017-07-23T08:28:04.126Z</time>
      </trkpt>
      <trkpt lat="47.78265" lon="2.29593">
        <ele>117</ele>
        <time>2017-07-23T08:28:05.131Z</time>
      </trkpt>
      <trkpt lat="47.78265" lon="2.29593">
        <ele>117</ele>
        <time>2017-07-23T08:28:06.114Z</time>
      </trkpt>
      <trkpt lat="47.78267" lon="2.29583">
        <ele>117</ele>
        <time>2017-07-23T08:28:07.122Z</time>
      </trkpt>
      <trkpt lat="47.78267" lon="2.29583">
        <ele>117</ele>
        <time>2017-07-23T08:28:08.114Z</time>
      </trkpt>
      <trkpt lat="47.78268" lon="2.29572">
        <ele>117</ele>
        <time>2017-07-23T08:28:09.129Z</time>
      </trkpt>
      <trkpt lat="47.78268" lon="2.29572">
        <ele>117</ele>
        <time>2017-07-23T08:28:10.143Z</time>
      </trkpt>
      <trkpt lat="47.78268" lon="2.29558">
        <ele>117</ele>
        <time>2017-07-23T08:28:11.109Z</time>
      </trkpt>
      <trkpt lat="47.78268" lon="2.29558">
        <ele>117</ele>
        <time>2017-07-23T08:28:12.133Z</time>
      </trkpt>
      <trkpt lat="47.78269" lon="2.29543">
        <ele>118</ele>
        <time>2017-07-23T08:28:13.122Z</time>
      </trkpt>
      <trkpt lat="47.78269" lon="2.29543">
        <ele>118</ele>
        <time>2017-07-23T08:28:14.115Z</time>
      </trkpt>
      <trkpt lat="47.7827" lon="2.29527">
        <ele>118</ele>
        <time>2017-07-23T08:28:15.122Z</time>
      </trkpt>
      <trkpt lat="47.7827" lon="2.29527">
        <ele>118</ele>
        <time>2017-07-23T08:28:16.140Z</time>
      </trkpt>
      <trkpt lat="47.78271" lon="2.29511">
        <ele>118</ele>
        <time>2017-07-23T08:28:17.136Z</time>
      </trkpt>
      <trkpt lat="47.78271" lon="2.29503">
        <ele>118</ele>
        <time>2017-07-23T08:28:18.115Z</time>
      </trkpt>
      <trkpt lat="47.78271" lon="2.29503">
        <ele>118</ele>
        <time>2017-07-23T08:28:19.141Z</time>
      </trkpt>
      <trkpt lat="47.78272" lon="2.29488">
        <ele>118</ele>
        <time>2017-07-23T08:28:20.128Z</time>
      </trkpt>
      <trkpt lat="47.78273" lon="2.2948">
        <ele>118</ele>
        <time>2017-07-23T08:28:21.142Z</time>
      </trkpt>
      <trkpt lat="47.78273" lon="2.2948">
        <ele>118</ele>
        <time>2017-07-23T08:28:22.128Z</time>
      </trkpt>
      <trkpt lat="47.78273" lon="2.29464">
        <ele>118</ele>
        <time>2017-07-23T08:28:23.132Z</time>
      </trkpt>
      <trkpt lat="47.78273" lon="2.29464">
        <ele>118</ele>
        <time>2017-07-23T08:28:24.118Z</time>
      </trkpt>
      <trkpt lat="47.78273" lon="2.29448">
        <ele>119</ele>
        <time>2017-07-23T08:28:25.125Z</time>
      </trkpt>
      <trkpt lat="47.78273" lon="2.29448">
        <ele>119</ele>
        <time>2017-07-23T08:28:26.124Z</time>
      </trkpt>
      <trkpt lat="47.78272" lon="2.2943">
        <ele>119</ele>
        <time>2017-07-23T08:28:27.133Z</time>
      </trkpt>
      <trkpt lat="47.78272" lon="2.2943">
        <ele>119</ele>
        <time>2017-07-23T08:28:28.141Z</time>
      </trkpt>
      <trkpt lat="47.78271" lon="2.29412">
        <ele>119</ele>
        <time>2017-07-23T08:28:29.148Z</time>
      </trkpt>
      <trkpt lat="47.78271" lon="2.29412">
        <ele>119</ele>
        <time>2017-07-23T08:28:30.124Z</time>
      </trkpt>
      <trkpt lat="47.7827" lon="2.29394">
        <ele>118</ele>
        <time>2017-07-23T08:28:31.137Z</time>
      </trkpt>
      <trkpt lat="47.7827" lon="2.29394">
        <ele>118</ele>
        <time>2017-07-23T08:28:32.124Z</time>
      </trkpt>
      <trkpt lat="47.7827" lon="2.29377">
        <ele>118</ele>
        <time>2017-07-23T08:28:33.134Z</time>
      </trkpt>
      <trkpt lat="47.78269" lon="2.29369">
        <ele>118</ele>
        <time>2017-07-23T08:28:34.140Z</time>
      </trkpt>
      <trkpt lat="47.78268" lon="2.2936">
        <ele>118</ele>
        <time>2017-07-23T08:28:35.130Z</time>
      </trkpt>
      <trkpt lat="47.78268" lon="2.2936">
        <ele>118</ele>
        <time>2017-07-23T08:28:36.138Z</time>
      </trkpt>
      <trkpt lat="47.78267" lon="2.29341">
        <ele>117</ele>
        <time>2017-07-23T08:28:37.144Z</time>
      </trkpt>
      <trkpt lat="47.78267" lon="2.29341">
        <ele>117</ele>
        <time>2017-07-23T08:28:38.121Z</time>
      </trkpt>
      <trkpt lat="47.78266" lon="2.29323">
        <ele>117</ele>
        <time>2017-07-23T08:28:39.138Z</time>
      </trkpt>
      <trkpt lat="47.78266" lon="2.29323">
        <ele>117</ele>
        <time>2017-07-23T08:28:40.112Z</time>
      </trkpt>
      <trkpt lat="47.78265" lon="2.29306">
        <ele>117</ele>
        <time>2017-07-23T08:28:41.120Z</time>
      </trkpt>
      <trkpt lat="47.78265" lon="2.29306">
        <ele>117</ele>
        <time>2017-07-23T08:28:42.147Z</time>
      </trkpt>
      <trkpt lat="47.78264" lon="2.29288">
        <ele>117</ele>
        <time>2017-07-23T08:28:43.132Z</time>
      </trkpt>
      <trkpt lat="47.78264" lon="2.29288">
        <ele>117</ele>
        <time>2017-07-23T08:28:44.141Z</time>
      </trkpt>
      <trkpt lat="47.78263" lon="2.29271">
        <ele>118</ele>
        <time>2017-07-23T08:28:45.147Z</time>
      </trkpt>
      <trkpt lat="47.78262" lon="2.29261">
        <ele>118</ele>
        <time>2017-07-23T08:28:46.137Z</time>
      </trkpt>
      <trkpt lat="47.78262" lon="2.29261">
        <ele>118</ele>
        <time>2017-07-23T08:28:47.122Z</time>
      </trkpt>
      <trkpt lat="47.78261" lon="2.29243">
        <ele>117</ele>
        <time>2017-07-23T08:28:48.119Z</time>
      </trkpt>
      <trkpt lat="47.78261" lon="2.29243">
        <ele>117</ele>
        <time>2017-07-23T08:28:49.132Z</time>
      </trkpt>
      <trkpt lat="47.7826" lon="2.29225">
        <ele>118</ele>
        <time>2017-07-23T08:28:50.138Z</time>
      </trkpt>
      <trkpt lat="47.78259" lon="2.29215">
        <ele>117</ele>
        <time>2017-07-23T08:28:51.127Z</time>
      </trkpt>
      <trkpt lat="47.78259" lon="2.29215">
        <ele>117</ele>
        <time>2017-07-23T08:28:52.122Z</time>
      </trkpt>
      <trkpt lat="47.78257" lon="2.29197">
        <ele>117</ele>
        <time>2017-07-23T08:28:53.128Z</time>
      </trkpt>
      <trkpt lat="47.78257" lon="2.29197">
        <ele>117</ele>
        <time>2017-07-23T08:28:54.126Z</time>
      </trkpt>
      <trkpt lat="47.78256" lon="2.29179">
        <ele>118</ele>
        <time>2017-07-23T08:28:55.141Z</time>
      </trkpt>
      <trkpt lat="47.78256" lon="2.29179">
        <ele>118</ele>
        <time>2017-07-23T08:28:56.120Z</time>
      </trkpt>
      <trkpt lat="47.78255" lon="2.29161">
        <ele>117</ele>
        <time>2017-07-23T08:28:57.127Z</time>
      </trkpt>
      <trkpt lat="47.78255" lon="2.29161">
        <ele>117</ele>
        <time>2017-07-23T08:28:58.131Z</time>
      </trkpt>
      <trkpt lat="47.78254" lon="2.29144">
        <ele>118</ele>
        <time>2017-07-23T08:28:59.143Z</time>
      </trkpt>
      <trkpt lat="47.78254" lon="2.29144">
        <ele>118</ele>
        <time>2017-07-23T08:29:00.131Z</time>
      </trkpt>
      <trkpt lat="47.78253" lon="2.29125">
        <ele>118</ele>
        <time>2017-07-23T08:29:01.137Z</time>
      </trkpt>
      <trkpt lat="47.78252" lon="2.29115">
        <ele>117</ele>
        <time>2017-07-23T08:29:02.126Z</time>
      </trkpt>
      <trkpt lat="47.78252" lon="2.29106">
        <ele>118</ele>
        <time>2017-07-23T08:29:03.119Z</time>
      </trkpt>
      <trkpt lat="47.78252" lon="2.29106">
        <ele>118</ele>
        <time>2017-07-23T08:29:04.144Z</time>
      </trkpt>
      <trkpt lat="47.7825" lon="2.29087">
        <ele>117</ele>
        <time>2017-07-23T08:29:05.110Z</time>
      </trkpt>
      <trkpt lat="47.7825" lon="2.29087">
        <ele>117</ele>
        <time>2017-07-23T08:29:06.122Z</time>
      </trkpt>
      <trkpt lat="47.7825" lon="2.29068">
        <ele>117</ele>
        <time>2017-07-23T08:29:07.128Z</time>
      </trkpt>
      <trkpt lat="47.7825" lon="2.29068">
        <ele>117</ele>
        <time>2017-07-23T08:29:08.142Z</time>
      </trkpt>
      <trkpt lat="47.78249" lon="2.2905">
        <ele>118</ele>
        <time>2017-07-23T08:29:09.148Z</time>
      </trkpt>
      <trkpt lat="47.78249" lon="2.2905">
        <ele>118</ele>
        <time>2017-07-23T08:29:10.134Z</time>
      </trkpt>
      <trkpt lat="47.78248" lon="2.29034">
        <ele>118</ele>
        <time>2017-07-23T08:29:11.108Z</time>
      </trkpt>
      <trkpt lat="47.78248" lon="2.29034">
        <ele>118</ele>
        <time>2017-07-23T08:29:12.126Z</time>
      </trkpt>
      <trkpt lat="47.78247" lon="2.29018">
        <ele>118</ele>
        <time>2017-07-23T08:29:13.140Z</time>
      </trkpt>
      <trkpt lat="47.78247" lon="2.29018">
        <ele>118</ele>
        <time>2017-07-23T08:29:14.151Z</time>
      </trkpt>
      <trkpt lat="47.78246" lon="2.29004">
        <ele>118</ele>
        <time>2017-07-23T08:29:15.119Z</time>
      </trkpt>
      <trkpt lat="47.78246" lon="2.29004">
        <ele>118</ele>
        <time>2017-07-23T08:29:16.129Z</time>
      </trkpt>
      <trkpt lat="47.78245" lon="2.28991">
        <ele>118</ele>
        <time>2017-07-23T08:29:17.126Z</time>
      </trkpt>
      <trkpt lat="47.78245" lon="2.28991">
        <ele>118</ele>
        <time>2017-07-23T08:29:18.127Z</time>
      </trkpt>
      <trkpt lat="47.78244" lon="2.28978">
        <ele>118</ele>
        <time>2017-07-23T08:29:19.140Z</time>
      </trkpt>
      <trkpt lat="47.78244" lon="2.28978">
        <ele>118</ele>
        <time>2017-07-23T08:29:20.139Z</time>
      </trkpt>
      <trkpt lat="47.78243" lon="2.28965">
        <ele>118</ele>
        <time>2017-07-23T08:29:21.145Z</time>
      </trkpt>
      <trkpt lat="47.78243" lon="2.28965">
        <ele>118</ele>
        <time>2017-07-23T08:29:22.138Z</time>
      </trkpt>
      <trkpt lat="47.78242" lon="2.28951">
        <ele>118</ele>
        <time>2017-07-23T08:29:23.144Z</time>
      </trkpt>
      <trkpt lat="47.78242" lon="2.28951">
        <ele>118</ele>
        <time>2017-07-23T08:29:24.112Z</time>
      </trkpt>
      <trkpt lat="47.78241" lon="2.28937">
        <ele>117</ele>
        <time>2017-07-23T08:29:25.119Z</time>
      </trkpt>
      <trkpt lat="47.78241" lon="2.28937">
        <ele>117</ele>
        <time>2017-07-23T08:29:26.148Z</time>
      </trkpt>
      <trkpt lat="47.7824" lon="2.28924">
        <ele>117</ele>
        <time>2017-07-23T08:29:27.143Z</time>
      </trkpt>
      <trkpt lat="47.7824" lon="2.28924">
        <ele>117</ele>
        <time>2017-07-23T08:29:28.119Z</time>
      </trkpt>
      <trkpt lat="47.7824" lon="2.28909">
        <ele>117</ele>
        <time>2017-07-23T08:29:29.126Z</time>
      </trkpt>
      <trkpt lat="47.7824" lon="2.28909">
        <ele>117</ele>
        <time>2017-07-23T08:29:30.122Z</time>
      </trkpt>
      <trkpt lat="47.78239" lon="2.28895">
        <ele>117</ele>
        <time>2017-07-23T08:29:31.144Z</time>
      </trkpt>
      <trkpt lat="47.78239" lon="2.28895">
        <ele>117</ele>
        <time>2017-07-23T08:29:32.146Z</time>
      </trkpt>
      <trkpt lat="47.78238" lon="2.28879">
        <ele>116</ele>
        <time>2017-07-23T08:29:33.120Z</time>
      </trkpt>
      <trkpt lat="47.78238" lon="2.28879">
        <ele>116</ele>
        <time>2017-07-23T08:29:34.122Z</time>
      </trkpt>
      <trkpt lat="47.78237" lon="2.28864">
        <ele>116</ele>
        <time>2017-07-23T08:29:35.127Z</time>
      </trkpt>
      <trkpt lat="47.78237" lon="2.28864">
        <ele>116</ele>
        <time>2017-07-23T08:29:36.115Z</time>
      </trkpt>
      <trkpt lat="47.78236" lon="2.28848">
        <ele>116</ele>
        <time>2017-07-23T08:29:37.123Z</time>
      </trkpt>
      <trkpt lat="47.78236" lon="2.28848">
        <ele>116</ele>
        <time>2017-07-23T08:29:38.141Z</time>
      </trkpt>
      <trkpt lat="47.78235" lon="2.28832">
        <ele>116</ele>
        <time>2017-07-23T08:29:39.120Z</time>
      </trkpt>
      <trkpt lat="47.78235" lon="2.28825">
        <ele>116</ele>
        <time>2017-07-23T08:29:40.148Z</time>
      </trkpt>
      <trkpt lat="47.78235" lon="2.28818">
        <ele>116</ele>
        <time>2017-07-23T08:29:41.134Z</time>
      </trkpt>
      <trkpt lat="47.78235" lon="2.28818">
        <ele>116</ele>
        <time>2017-07-23T08:29:42.122Z</time>
      </trkpt>
      <trkpt lat="47.78234" lon="2.28804">
        <ele>116</ele>
        <time>2017-07-23T08:29:43.129Z</time>
      </trkpt>
      <trkpt lat="47.78234" lon="2.28804">
        <ele>116</ele>
        <time>2017-07-23T08:29:44.140Z</time>
      </trkpt>
      <trkpt lat="47.78234" lon="2.28789">
        <ele>116</ele>
        <time>2017-07-23T08:29:45.143Z</time>
      </trkpt>
      <trkpt lat="47.78234" lon="2.28789">
        <ele>116</ele>
        <time>2017-07-23T08:29:46.141Z</time>
      </trkpt>
      <trkpt lat="47.78233" lon="2.28774">
        <ele>116</ele>
        <time>2017-07-23T08:29:47.148Z</time>
      </trkpt>
      <trkpt lat="47.78233" lon="2.28774">
        <ele>116</ele>
        <time>2017-07-23T08:29:48.134Z</time>
      </trkpt>
      <trkpt lat="47.78232" lon="2.28758">
        <ele>116</ele>
        <time>2017-07-23T08:29:49.142Z</time>
      </trkpt>
      <trkpt lat="47.78232" lon="2.28758">
        <ele>116</ele>
        <time>2017-07-23T08:29:50.113Z</time>
      </trkpt>
      <trkpt lat="47.78231" lon="2.28742">
        <ele>116</ele>
        <time>2017-07-23T08:29:51.118Z</time>
      </trkpt>
      <trkpt lat="47.78229" lon="2.28734">
        <ele>116</ele>
        <time>2017-07-23T08:29:52.145Z</time>
      </trkpt>
      <trkpt lat="47.78227" lon="2.28726">
        <ele>116</ele>
        <time>2017-07-23T08:29:53.134Z</time>
      </trkpt>
      <trkpt lat="47.78227" lon="2.28726">
        <ele>116</ele>
        <time>2017-07-23T08:29:54.120Z</time>
      </trkpt>
      <trkpt lat="47.78223" lon="2.28711">
        <ele>115</ele>
        <time>2017-07-23T08:29:55.127Z</time>
      </trkpt>
      <trkpt lat="47.78223" lon="2.28711">
        <ele>115</ele>
        <time>2017-07-23T08:29:56.128Z</time>
      </trkpt>
      <trkpt lat="47.78218" lon="2.28698">
        <ele>116</ele>
        <time>2017-07-23T08:29:57.134Z</time>
      </trkpt>
      <trkpt lat="47.78218" lon="2.28698">
        <ele>116</ele>
        <time>2017-07-23T08:29:58.124Z</time>
      </trkpt>
      <trkpt lat="47.78213" lon="2.28685">
        <ele>115</ele>
        <time>2017-07-23T08:29:59.132Z</time>
      </trkpt>
      <trkpt lat="47.78209" lon="2.28679">
        <ele>115</ele>
        <time>2017-07-23T08:30:00.140Z</time>
      </trkpt>
      <trkpt lat="47.78209" lon="2.28679">
        <ele>115</ele>
        <time>2017-07-23T08:30:01.126Z</time>
      </trkpt>
      <trkpt lat="47.78204" lon="2.28667">
        <ele>115</ele>
        <time>2017-07-23T08:30:02.138Z</time>
      </trkpt>
      <trkpt lat="47.78201" lon="2.2866">
        <ele>115</ele>
        <time>2017-07-23T08:30:03.119Z</time>
      </trkpt>
      <trkpt lat="47.78198" lon="2.28655">
        <ele>115</ele>
        <time>2017-07-23T08:30:04.145Z</time>
      </trkpt>
      <trkpt lat="47.78198" lon="2.28655">
        <ele>115</ele>
        <time>2017-07-23T08:30:05.110Z</time>
      </trkpt>
      <trkpt lat="47.78193" lon="2.28642">
        <ele>115</ele>
        <time>2017-07-23T08:30:06.117Z</time>
      </trkpt>
      <trkpt lat="47.7819" lon="2.28635">
        <ele>115</ele>
        <time>2017-07-23T08:30:07.126Z</time>
      </trkpt>
      <trkpt lat="47.7819" lon="2.28635">
        <ele>115</ele>
        <time>2017-07-23T08:30:08.138Z</time>
      </trkpt>
      <trkpt lat="47.78188" lon="2.2862">
        <ele>115</ele>
        <time>2017-07-23T08:30:09.128Z</time>
      </trkpt>
      <trkpt lat="47.78187" lon="2.28613">
        <ele>115</ele>
        <time>2017-07-23T08:30:10.144Z</time>
      </trkpt>
      <trkpt lat="47.78187" lon="2.28613">
        <ele>115</ele>
        <time>2017-07-23T08:30:11.131Z</time>
      </trkpt>
      <trkpt lat="47.78184" lon="2.286">
        <ele>115</ele>
        <time>2017-07-23T08:30:12.138Z</time>
      </trkpt>
      <trkpt lat="47.78181" lon="2.28595">
        <ele>116</ele>
        <time>2017-07-23T08:30:13.128Z</time>
      </trkpt>
      <trkpt lat="47.78181" lon="2.28595">
        <ele>116</ele>
        <time>2017-07-23T08:30:14.116Z</time>
      </trkpt>
      <trkpt lat="47.78173" lon="2.28585">
        <ele>116</ele>
        <time>2017-07-23T08:30:15.143Z</time>
      </trkpt>
      <trkpt lat="47.78173" lon="2.28585">
        <ele>116</ele>
        <time>2017-07-23T08:30:16.144Z</time>
      </trkpt>
      <trkpt lat="47.78164" lon="2.28578">
        <ele>116</ele>
        <time>2017-07-23T08:30:17.119Z</time>
      </trkpt>
      <trkpt lat="47.78164" lon="2.28578">
        <ele>116</ele>
        <time>2017-07-23T08:30:18.128Z</time>
      </trkpt>
      <trkpt lat="47.78155" lon="2.28573">
        <ele>116</ele>
        <time>2017-07-23T08:30:19.143Z</time>
      </trkpt>
      <trkpt lat="47.78155" lon="2.28573">
        <ele>116</ele>
        <time>2017-07-23T08:30:20.121Z</time>
      </trkpt>
      <trkpt lat="47.78146" lon="2.28569">
        <ele>116</ele>
        <time>2017-07-23T08:30:21.128Z</time>
      </trkpt>
      <trkpt lat="47.78141" lon="2.28566">
        <ele>116</ele>
        <time>2017-07-23T08:30:22.146Z</time>
      </trkpt>
      <trkpt lat="47.78141" lon="2.28566">
        <ele>116</ele>
        <time>2017-07-23T08:30:23.134Z</time>
      </trkpt>
      <trkpt lat="47.78133" lon="2.2856">
        <ele>116</ele>
        <time>2017-07-23T08:30:24.139Z</time>
      </trkpt>
      <trkpt lat="47.78128" lon="2.28556">
        <ele>116</ele>
        <time>2017-07-23T08:30:25.140Z</time>
      </trkpt>
      <trkpt lat="47.78123" lon="2.28553">
        <ele>116</ele>
        <time>2017-07-23T08:30:26.119Z</time>
      </trkpt>
      <trkpt lat="47.78123" lon="2.28553">
        <ele>116</ele>
        <time>2017-07-23T08:30:27.145Z</time>
      </trkpt>
      <trkpt lat="47.78115" lon="2.28546">
        <ele>116</ele>
        <time>2017-07-23T08:30:28.143Z</time>
      </trkpt>
      <trkpt lat="47.78115" lon="2.28546">
        <ele>116</ele>
        <time>2017-07-23T08:30:29.131Z</time>
      </trkpt>
      <trkpt lat="47.78106" lon="2.28539">
        <ele>116</ele>
        <time>2017-07-23T08:30:30.137Z</time>
      </trkpt>
      <trkpt lat="47.78106" lon="2.28539">
        <ele>116</ele>
        <time>2017-07-23T08:30:31.118Z</time>
      </trkpt>
      <trkpt lat="47.78097" lon="2.28533">
        <ele>116</ele>
        <time>2017-07-23T08:30:32.143Z</time>
      </trkpt>
      <trkpt lat="47.78097" lon="2.28533">
        <ele>116</ele>
        <time>2017-07-23T08:30:33.136Z</time>
      </trkpt>
      <trkpt lat="47.78087" lon="2.28527">
        <ele>116</ele>
        <time>2017-07-23T08:30:34.142Z</time>
      </trkpt>
      <trkpt lat="47.78081" lon="2.28525">
        <ele>117</ele>
        <time>2017-07-23T08:30:35.139Z</time>
      </trkpt>
      <trkpt lat="47.78081" lon="2.28525">
        <ele>117</ele>
        <time>2017-07-23T08:30:36.127Z</time>
      </trkpt>
      <trkpt lat="47.78071" lon="2.28521">
        <ele>117</ele>
        <time>2017-07-23T08:30:37.133Z</time>
      </trkpt>
      <trkpt lat="47.78066" lon="2.28518">
        <ele>117</ele>
        <time>2017-07-23T08:30:38.137Z</time>
      </trkpt>
      <trkpt lat="47.78066" lon="2.28518">
        <ele>117</ele>
        <time>2017-07-23T08:30:39.134Z</time>
      </trkpt>
      <trkpt lat="47.78056" lon="2.28511">
        <ele>117</ele>
        <time>2017-07-23T08:30:40.140Z</time>
      </trkpt>
      <trkpt lat="47.78051" lon="2.28509">
        <ele>117</ele>
        <time>2017-07-23T08:30:41.131Z</time>
      </trkpt>
      <trkpt lat="47.78051" lon="2.28509">
        <ele>117</ele>
        <time>2017-07-23T08:30:42.118Z</time>
      </trkpt>
      <trkpt lat="47.7804" lon="2.28504">
        <ele>117</ele>
        <time>2017-07-23T08:30:43.139Z</time>
      </trkpt>
      <trkpt lat="47.7804" lon="2.28504">
        <ele>117</ele>
        <time>2017-07-23T08:30:44.123Z</time>
      </trkpt>
      <trkpt lat="47.78029" lon="2.28498">
        <ele>117</ele>
        <time>2017-07-23T08:30:45.137Z</time>
      </trkpt>
      <trkpt lat="47.78029" lon="2.28498">
        <ele>117</ele>
        <time>2017-07-23T08:30:46.123Z</time>
      </trkpt>
      <trkpt lat="47.78019" lon="2.28493">
        <ele>117</ele>
        <time>2017-07-23T08:30:47.141Z</time>
      </trkpt>
      <trkpt lat="47.78019" lon="2.28493">
        <ele>117</ele>
        <time>2017-07-23T08:30:48.124Z</time>
      </trkpt>
      <trkpt lat="47.78009" lon="2.28487">
        <ele>118</ele>
        <time>2017-07-23T08:30:49.130Z</time>
      </trkpt>
      <trkpt lat="47.78005" lon="2.28484">
        <ele>118</ele>
        <time>2017-07-23T08:30:50.121Z</time>
      </trkpt>
      <trkpt lat="47.78" lon="2.2848">
        <ele>118</ele>
        <time>2017-07-23T08:30:51.123Z</time>
      </trkpt>
      <trkpt lat="47.78" lon="2.2848">
        <ele>118</ele>
        <time>2017-07-23T08:30:52.141Z</time>
      </trkpt>
      <trkpt lat="47.77992" lon="2.28473">
        <ele>118</ele>
        <time>2017-07-23T08:30:53.148Z</time>
      </trkpt>
      <trkpt lat="47.77992" lon="2.28473">
        <ele>118</ele>
        <time>2017-07-23T08:30:54.117Z</time>
      </trkpt>
      <trkpt lat="47.77984" lon="2.28464">
        <ele>118</ele>
        <time>2017-07-23T08:30:55.126Z</time>
      </trkpt>
      <trkpt lat="47.77984" lon="2.28464">
        <ele>118</ele>
        <time>2017-07-23T08:30:56.120Z</time>
      </trkpt>
      <trkpt lat="47.77977" lon="2.28454">
        <ele>118</ele>
        <time>2017-07-23T08:30:57.143Z</time>
      </trkpt>
      <trkpt lat="47.77977" lon="2.28454">
        <ele>118</ele>
        <time>2017-07-23T08:30:58.129Z</time>
      </trkpt>
      <trkpt lat="47.7797" lon="2.28444">
        <ele>118</ele>
        <time>2017-07-23T08:30:59.134Z</time>
      </trkpt>
      <trkpt lat="47.77967" lon="2.28439">
        <ele>118</ele>
        <time>2017-07-23T08:31:00.143Z</time>
      </trkpt>
      <trkpt lat="47.77967" lon="2.28439">
        <ele>118</ele>
        <time>2017-07-23T08:31:01.145Z</time>
      </trkpt>
      <trkpt lat="47.77959" lon="2.28429">
        <ele>117</ele>
        <time>2017-07-23T08:31:02.118Z</time>
      </trkpt>
      <trkpt lat="47.77955" lon="2.28423">
        <ele>117</ele>
        <time>2017-07-23T08:31:03.141Z</time>
      </trkpt>
      <trkpt lat="47.77955" lon="2.28423">
        <ele>117</ele>
        <time>2017-07-23T08:31:04.112Z</time>
      </trkpt>
      <trkpt lat="47.77946" lon="2.28412">
        <ele>116</ele>
        <time>2017-07-23T08:31:05.119Z</time>
      </trkpt>
      <trkpt lat="47.77946" lon="2.28412">
        <ele>116</ele>
        <time>2017-07-23T08:31:06.145Z</time>
      </trkpt>
      <trkpt lat="47.77939" lon="2.28401">
        <ele>115</ele>
        <time>2017-07-23T08:31:07.119Z</time>
      </trkpt>
      <trkpt lat="47.77939" lon="2.28401">
        <ele>115</ele>
        <time>2017-07-23T08:31:08.133Z</time>
      </trkpt>
      <trkpt lat="47.77933" lon="2.28389">
        <ele>115</ele>
        <time>2017-07-23T08:31:09.138Z</time>
      </trkpt>
      <trkpt lat="47.7793" lon="2.28384">
        <ele>115</ele>
        <time>2017-07-23T08:31:10.142Z</time>
      </trkpt>
      <trkpt lat="47.7793" lon="2.28384">
        <ele>115</ele>
        <time>2017-07-23T08:31:11.112Z</time>
      </trkpt>
      <trkpt lat="47.77922" lon="2.28372">
        <ele>115</ele>
        <time>2017-07-23T08:31:12.120Z</time>
      </trkpt>
      <trkpt lat="47.77919" lon="2.28366">
        <ele>115</ele>
        <time>2017-07-23T08:31:13.143Z</time>
      </trkpt>
      <trkpt lat="47.77919" lon="2.28366">
        <ele>115</ele>
        <time>2017-07-23T08:31:14.142Z</time>
      </trkpt>
      <trkpt lat="47.77912" lon="2.28356">
        <ele>114</ele>
        <time>2017-07-23T08:31:15.116Z</time>
      </trkpt>
      <trkpt lat="47.77912" lon="2.28356">
        <ele>114</ele>
        <time>2017-07-23T08:31:16.141Z</time>
      </trkpt>
      <trkpt lat="47.77907" lon="2.28346">
        <ele>114</ele>
        <time>2017-07-23T08:31:17.143Z</time>
      </trkpt>
      <trkpt lat="47.77907" lon="2.28346">
        <ele>114</ele>
        <time>2017-07-23T08:31:18.135Z</time>
      </trkpt>
      <trkpt lat="47.77902" lon="2.28336">
        <ele>115</ele>
        <time>2017-07-23T08:31:19.109Z</time>
      </trkpt>
      <trkpt lat="47.77902" lon="2.28336">
        <ele>115</ele>
        <time>2017-07-23T08:31:20.134Z</time>
      </trkpt>
      <trkpt lat="47.77898" lon="2.2833">
        <ele>116</ele>
        <time>2017-07-23T08:31:21.130Z</time>
      </trkpt>
      <trkpt lat="47.77896" lon="2.28328">
        <ele>116</ele>
        <time>2017-07-23T08:31:22.132Z</time>
      </trkpt>
      <trkpt lat="47.77896" lon="2.28328">
        <ele>116</ele>
        <time>2017-07-23T08:31:23.120Z</time>
      </trkpt>
      <trkpt lat="47.77893" lon="2.28324">
        <ele>117</ele>
        <time>2017-07-23T08:31:24.143Z</time>
      </trkpt>
      <trkpt lat="47.77893" lon="2.28324">
        <ele>117</ele>
        <time>2017-07-23T08:31:25.142Z</time>
      </trkpt>
      <trkpt lat="47.77892" lon="2.28321">
        <ele>117</ele>
        <time>2017-07-23T08:31:26.147Z</time>
      </trkpt>
      <trkpt lat="47.77892" lon="2.28321">
        <ele>117</ele>
        <time>2017-07-23T08:31:27.145Z</time>
      </trkpt>
      <trkpt lat="47.77892" lon="2.28321">
        <ele>117</ele>
        <time>2017-07-23T08:31:28.136Z</time>
      </trkpt>
      <trkpt lat="47.77892" lon="2.28321">
        <ele>117</ele>
        <time>2017-07-23T08:31:29.118Z</time>
      </trkpt>
      <trkpt lat="47.77892" lon="2.28321">
        <ele>117</ele>
        <time>2017-07-23T08:31:30.117Z</time>
      </trkpt>
      <trkpt lat="47.77889" lon="2.28298">
        <ele>110</ele>
        <time>2017-07-23T08:31:31.119Z</time>
      </trkpt>
      <trkpt lat="47.77889" lon="2.28298">
        <ele>110</ele>
        <time>2017-07-23T08:31:32.122Z</time>
      </trkpt>
      <trkpt lat="47.77888" lon="2.28288">
        <ele>110</ele>
        <time>2017-07-23T08:31:33.111Z</time>
      </trkpt>
      <trkpt lat="47.77888" lon="2.28288">
        <ele>110</ele>
        <time>2017-07-23T08:31:34.116Z</time>
      </trkpt>
      <trkpt lat="47.77887" lon="2.28277">
        <ele>110</ele>
        <time>2017-07-23T08:31:35.123Z</time>
      </trkpt>
      <trkpt lat="47.77887" lon="2.28277">
        <ele>110</ele>
        <time>2017-07-23T08:31:36.133Z</time>
      </trkpt>
      <trkpt lat="47.77886" lon="2.28265">
        <ele>110</ele>
        <time>2017-07-23T08:31:37.122Z</time>
      </trkpt>
      <trkpt lat="47.77886" lon="2.28265">
        <ele>110</ele>
        <time>2017-07-23T08:31:38.136Z</time>
      </trkpt>
      <trkpt lat="47.77886" lon="2.28253">
        <ele>111</ele>
        <time>2017-07-23T08:31:39.140Z</time>
      </trkpt>
      <trkpt lat="47.77886" lon="2.28247">
        <ele>111</ele>
        <time>2017-07-23T08:31:40.121Z</time>
      </trkpt>
      <trkpt lat="47.77886" lon="2.28247">
        <ele>111</ele>
        <time>2017-07-23T08:31:41.132Z</time>
      </trkpt>
      <trkpt lat="47.77885" lon="2.28233">
        <ele>112</ele>
        <time>2017-07-23T08:31:42.110Z</time>
      </trkpt>
      <trkpt lat="47.77885" lon="2.28233">
        <ele>112</ele>
        <time>2017-07-23T08:31:43.117Z</time>
      </trkpt>
      <trkpt lat="47.77884" lon="2.2822">
        <ele>112</ele>
        <time>2017-07-23T08:31:44.141Z</time>
      </trkpt>
      <trkpt lat="47.77884" lon="2.2822">
        <ele>112</ele>
        <time>2017-07-23T08:31:45.110Z</time>
      </trkpt>
      <trkpt lat="47.77883" lon="2.28205">
        <ele>112</ele>
        <time>2017-07-23T08:31:46.131Z</time>
      </trkpt>
      <trkpt lat="47.77882" lon="2.28198">
        <ele>112</ele>
        <time>2017-07-23T08:31:47.132Z</time>
      </trkpt>
      <trkpt lat="47.77882" lon="2.28198">
        <ele>112</ele>
        <time>2017-07-23T08:31:48.119Z</time>
      </trkpt>
      <trkpt lat="47.77881" lon="2.28184">
        <ele>112</ele>
        <time>2017-07-23T08:31:49.140Z</time>
      </trkpt>
      <trkpt lat="47.7788" lon="2.28176">
        <ele>113</ele>
        <time>2017-07-23T08:31:50.144Z</time>
      </trkpt>
      <trkpt lat="47.7788" lon="2.28176">
        <ele>113</ele>
        <time>2017-07-23T08:31:51.109Z</time>
      </trkpt>
      <trkpt lat="47.77878" lon="2.28161">
        <ele>113</ele>
        <time>2017-07-23T08:31:52.133Z</time>
      </trkpt>
      <trkpt lat="47.77878" lon="2.28161">
        <ele>113</ele>
        <time>2017-07-23T08:31:53.138Z</time>
      </trkpt>
      <trkpt lat="47.77877" lon="2.28146">
        <ele>113</ele>
        <time>2017-07-23T08:31:54.145Z</time>
      </trkpt>
      <trkpt lat="47.77876" lon="2.28138">
        <ele>113</ele>
        <time>2017-07-23T08:31:55.121Z</time>
      </trkpt>
      <trkpt lat="47.77876" lon="2.28138">
        <ele>113</ele>
        <time>2017-07-23T08:31:56.126Z</time>
      </trkpt>
      <trkpt lat="47.77873" lon="2.28123">
        <ele>113</ele>
        <time>2017-07-23T08:31:57.118Z</time>
      </trkpt>
      <trkpt lat="47.77872" lon="2.28115">
        <ele>113</ele>
        <time>2017-07-23T08:31:58.141Z</time>
      </trkpt>
      <trkpt lat="47.77872" lon="2.28115">
        <ele>113</ele>
        <time>2017-07-23T08:31:59.146Z</time>
      </trkpt>
      <trkpt lat="47.77869" lon="2.281">
        <ele>113</ele>
        <time>2017-07-23T08:32:00.123Z</time>
      </trkpt>
      <trkpt lat="47.77868" lon="2.28093">
        <ele>113</ele>
        <time>2017-07-23T08:32:01.135Z</time>
      </trkpt>
      <trkpt lat="47.77868" lon="2.28093">
        <ele>113</ele>
        <time>2017-07-23T08:32:02.140Z</time>
      </trkpt>
      <trkpt lat="47.77865" lon="2.28078">
        <ele>113</ele>
        <time>2017-07-23T08:32:03.138Z</time>
      </trkpt>
      <trkpt lat="47.77865" lon="2.28078">
        <ele>113</ele>
        <time>2017-07-23T08:32:04.143Z</time>
      </trkpt>
      <trkpt lat="47.77861" lon="2.28062">
        <ele>113</ele>
        <time>2017-07-23T08:32:05.109Z</time>
      </trkpt>
      <trkpt lat="47.77861" lon="2.28062">
        <ele>113</ele>
        <time>2017-07-23T08:32:06.113Z</time>
      </trkpt>
      <trkpt lat="47.77856" lon="2.28047">
        <ele>113</ele>
        <time>2017-07-23T08:32:07.110Z</time>
      </trkpt>
      <trkpt lat="47.77856" lon="2.28047">
        <ele>113</ele>
        <time>2017-07-23T08:32:08.119Z</time>
      </trkpt>
      <trkpt lat="47.77852" lon="2.28033">
        <ele>114</ele>
        <time>2017-07-23T08:32:09.128Z</time>
      </trkpt>
      <trkpt lat="47.77849" lon="2.28026">
        <ele>114</ele>
        <time>2017-07-23T08:32:10.133Z</time>
      </trkpt>
      <trkpt lat="47.77849" lon="2.28026">
        <ele>114</ele>
        <time>2017-07-23T08:32:11.138Z</time>
      </trkpt>
      <trkpt lat="47.77843" lon="2.28013">
        <ele>114</ele>
        <time>2017-07-23T08:32:12.144Z</time>
      </trkpt>
      <trkpt lat="47.77843" lon="2.28013">
        <ele>114</ele>
        <time>2017-07-23T08:32:13.108Z</time>
      </trkpt>
      <trkpt lat="47.77838" lon="2.27999">
        <ele>114</ele>
        <time>2017-07-23T08:32:14.111Z</time>
      </trkpt>
      <trkpt lat="47.77838" lon="2.27999">
        <ele>114</ele>
        <time>2017-07-23T08:32:15.133Z</time>
      </trkpt>
      <trkpt lat="47.77834" lon="2.27984">
        <ele>114</ele>
        <time>2017-07-23T08:32:16.144Z</time>
      </trkpt>
      <trkpt lat="47.77834" lon="2.27984">
        <ele>114</ele>
        <time>2017-07-23T08:32:17.109Z</time>
      </trkpt>
      <trkpt lat="47.77833" lon="2.27968">
        <ele>114</ele>
        <time>2017-07-23T08:32:18.129Z</time>
      </trkpt>
      <trkpt lat="47.77833" lon="2.27968">
        <ele>114</ele>
        <time>2017-07-23T08:32:19.135Z</time>
      </trkpt>
      <trkpt lat="47.77835" lon="2.27953">
        <ele>115</ele>
        <time>2017-07-23T08:32:20.145Z</time>
      </trkpt>
      <trkpt lat="47.77838" lon="2.27945">
        <ele>115</ele>
        <time>2017-07-23T08:32:21.112Z</time>
      </trkpt>
      <trkpt lat="47.77838" lon="2.27945">
        <ele>115</ele>
        <time>2017-07-23T08:32:22.117Z</time>
      </trkpt>
      <trkpt lat="47.77844" lon="2.27932">
        <ele>115</ele>
        <time>2017-07-23T08:32:23.125Z</time>
      </trkpt>
      <trkpt lat="47.77844" lon="2.27932">
        <ele>115</ele>
        <time>2017-07-23T08:32:24.137Z</time>
      </trkpt>
      <trkpt lat="47.77849" lon="2.27917">
        <ele>114</ele>
        <time>2017-07-23T08:32:25.134Z</time>
      </trkpt>
      <trkpt lat="47.77849" lon="2.27917">
        <ele>114</ele>
        <time>2017-07-23T08:32:26.139Z</time>
      </trkpt>
      <trkpt lat="47.77854" lon="2.27901">
        <ele>114</ele>
        <time>2017-07-23T08:32:27.131Z</time>
      </trkpt>
      <trkpt lat="47.77856" lon="2.27893">
        <ele>114</ele>
        <time>2017-07-23T08:32:28.113Z</time>
      </trkpt>
      <trkpt lat="47.77856" lon="2.27893">
        <ele>114</ele>
        <time>2017-07-23T08:32:29.117Z</time>
      </trkpt>
      <trkpt lat="47.7786" lon="2.27878">
        <ele>115</ele>
        <time>2017-07-23T08:32:30.138Z</time>
      </trkpt>
      <trkpt lat="47.77861" lon="2.27871">
        <ele>115</ele>
        <time>2017-07-23T08:32:31.137Z</time>
      </trkpt>
      <trkpt lat="47.77861" lon="2.27871">
        <ele>115</ele>
        <time>2017-07-23T08:32:32.142Z</time>
      </trkpt>
      <trkpt lat="47.77864" lon="2.27856">
        <ele>115</ele>
        <time>2017-07-23T08:32:33.108Z</time>
      </trkpt>
      <trkpt lat="47.77865" lon="2.27848">
        <ele>115</ele>
        <time>2017-07-23T08:32:34.129Z</time>
      </trkpt>
      <trkpt lat="47.77866" lon="2.27839">
        <ele>115</ele>
        <time>2017-07-23T08:32:35.135Z</time>
      </trkpt>
      <trkpt lat="47.77866" lon="2.27839">
        <ele>115</ele>
        <time>2017-07-23T08:32:36.140Z</time>
      </trkpt>
      <trkpt lat="47.77868" lon="2.27825">
        <ele>114</ele>
        <time>2017-07-23T08:32:37.117Z</time>
      </trkpt>
      <trkpt lat="47.77868" lon="2.27825">
        <ele>114</ele>
        <time>2017-07-23T08:32:38.145Z</time>
      </trkpt>
      <trkpt lat="47.77873" lon="2.27809">
        <ele>115</ele>
        <time>2017-07-23T08:32:39.133Z</time>
      </trkpt>
      <trkpt lat="47.77875" lon="2.27802">
        <ele>115</ele>
        <time>2017-07-23T08:32:40.116Z</time>
      </trkpt>
      <trkpt lat="47.77875" lon="2.27802">
        <ele>115</ele>
        <time>2017-07-23T08:32:41.120Z</time>
      </trkpt>
      <trkpt lat="47.77881" lon="2.27786">
        <ele>115</ele>
        <time>2017-07-23T08:32:42.143Z</time>
      </trkpt>
      <trkpt lat="47.77881" lon="2.27786">
        <ele>115</ele>
        <time>2017-07-23T08:32:43.108Z</time>
      </trkpt>
      <trkpt lat="47.77886" lon="2.27771">
        <ele>115</ele>
        <time>2017-07-23T08:32:44.114Z</time>
      </trkpt>
      <trkpt lat="47.77886" lon="2.27771">
        <ele>115</ele>
        <time>2017-07-23T08:32:45.119Z</time>
      </trkpt>
      <trkpt lat="47.77891" lon="2.27756">
        <ele>115</ele>
        <time>2017-07-23T08:32:46.120Z</time>
      </trkpt>
      <trkpt lat="47.77891" lon="2.27756">
        <ele>115</ele>
        <time>2017-07-23T08:32:47.126Z</time>
      </trkpt>
      <trkpt lat="47.77897" lon="2.27741">
        <ele>115</ele>
        <time>2017-07-23T08:32:48.116Z</time>
      </trkpt>
      <trkpt lat="47.779" lon="2.27734">
        <ele>115</ele>
        <time>2017-07-23T08:32:49.136Z</time>
      </trkpt>
      <trkpt lat="47.779" lon="2.27734">
        <ele>115</ele>
        <time>2017-07-23T08:32:50.142Z</time>
      </trkpt>
      <trkpt lat="47.77906" lon="2.27721">
        <ele>115</ele>
        <time>2017-07-23T08:32:51.127Z</time>
      </trkpt>
      <trkpt lat="47.77908" lon="2.27714">
        <ele>115</ele>
        <time>2017-07-23T08:32:52.122Z</time>
      </trkpt>
      <trkpt lat="47.77908" lon="2.27714">
        <ele>115</ele>
        <time>2017-07-23T08:32:53.144Z</time>
      </trkpt>
      <trkpt lat="47.77915" lon="2.27699">
        <ele>115</ele>
        <time>2017-07-23T08:32:54.111Z</time>
      </trkpt>
      <trkpt lat="47.77917" lon="2.27692">
        <ele>116</ele>
        <time>2017-07-23T08:32:55.127Z</time>
      </trkpt>
      <trkpt lat="47.77917" lon="2.27692">
        <ele>116</ele>
        <time>2017-07-23T08:32:56.139Z</time>
      </trkpt>
      <trkpt lat="47.77925" lon="2.27678">
        <ele>116</ele>
        <time>2017-07-23T08:32:57.146Z</time>
      </trkpt>
      <trkpt lat="47.77929" lon="2.27671">
        <ele>116</ele>
        <time>2017-07-23T08:32:58.132Z</time>
      </trkpt>
      <trkpt lat="47.77929" lon="2.27671">
        <ele>116</ele>
        <time>2017-07-23T08:32:59.141Z</time>
      </trkpt>
      <trkpt lat="47.77938" lon="2.27659">
        <ele>116</ele>
        <time>2017-07-23T08:33:00.111Z</time>
      </trkpt>
      <trkpt lat="47.77942" lon="2.27654">
        <ele>116</ele>
        <time>2017-07-23T08:33:01.126Z</time>
      </trkpt>
      <trkpt lat="47.77942" lon="2.27654">
        <ele>116</ele>
        <time>2017-07-23T08:33:02.133Z</time>
      </trkpt>
      <trkpt lat="47.77953" lon="2.27643">
        <ele>117</ele>
        <time>2017-07-23T08:33:03.140Z</time>
      </trkpt>
      <trkpt lat="47.77953" lon="2.27643">
        <ele>117</ele>
        <time>2017-07-23T08:33:04.145Z</time>
      </trkpt>
      <trkpt lat="47.77963" lon="2.27633">
        <ele>117</ele>
        <time>2017-07-23T08:33:05.114Z</time>
      </trkpt>
      <trkpt lat="47.77963" lon="2.27633">
        <ele>117</ele>
        <time>2017-07-23T08:33:06.138Z</time>
      </trkpt>
      <trkpt lat="47.77972" lon="2.27621">
        <ele>117</ele>
        <time>2017-07-23T08:33:07.130Z</time>
      </trkpt>
      <trkpt lat="47.77972" lon="2.27621">
        <ele>117</ele>
        <time>2017-07-23T08:33:08.113Z</time>
      </trkpt>
      <trkpt lat="47.7798" lon="2.27609">
        <ele>117</ele>
        <time>2017-07-23T08:33:09.120Z</time>
      </trkpt>
      <trkpt lat="47.7798" lon="2.27609">
        <ele>117</ele>
        <time>2017-07-23T08:33:10.132Z</time>
      </trkpt>
      <trkpt lat="47.77988" lon="2.27597">
        <ele>117</ele>
        <time>2017-07-23T08:33:11.134Z</time>
      </trkpt>
      <trkpt lat="47.77988" lon="2.27597">
        <ele>117</ele>
        <time>2017-07-23T08:33:12.139Z</time>
      </trkpt>
      <trkpt lat="47.77996" lon="2.27584">
        <ele>117</ele>
        <time>2017-07-23T08:33:13.146Z</time>
      </trkpt>
      <trkpt lat="47.77996" lon="2.27584">
        <ele>117</ele>
        <time>2017-07-23T08:33:14.111Z</time>
      </trkpt>
      <trkpt lat="47.78004" lon="2.2757">
        <ele>117</ele>
        <time>2017-07-23T08:33:15.110Z</time>
      </trkpt>
      <trkpt lat="47.78004" lon="2.2757">
        <ele>117</ele>
        <time>2017-07-23T08:33:16.121Z</time>
      </trkpt>
      <trkpt lat="47.78011" lon="2.27556">
        <ele>117</ele>
        <time>2017-07-23T08:33:17.128Z</time>
      </trkpt>
      <trkpt lat="47.78011" lon="2.27556">
        <ele>117</ele>
        <time>2017-07-23T08:33:18.139Z</time>
      </trkpt>
      <trkpt lat="47.78019" lon="2.27542">
        <ele>117</ele>
        <time>2017-07-23T08:33:19.145Z</time>
      </trkpt>
      <trkpt lat="47.78019" lon="2.27542">
        <ele>117</ele>
        <time>2017-07-23T08:33:20.110Z</time>
      </trkpt>
      <trkpt lat="47.78026" lon="2.27529">
        <ele>116</ele>
        <time>2017-07-23T08:33:21.116Z</time>
      </trkpt>
      <trkpt lat="47.7803" lon="2.27522">
        <ele>116</ele>
        <time>2017-07-23T08:33:22.142Z</time>
      </trkpt>
      <trkpt lat="47.7803" lon="2.27522">
        <ele>116</ele>
        <time>2017-07-23T08:33:23.147Z</time>
      </trkpt>
      <trkpt lat="47.78037" lon="2.27508">
        <ele>116</ele>
        <time>2017-07-23T08:33:24.113Z</time>
      </trkpt>
      <trkpt lat="47.78041" lon="2.27502">
        <ele>116</ele>
        <time>2017-07-23T08:33:25.132Z</time>
      </trkpt>
      <trkpt lat="47.78041" lon="2.27502">
        <ele>116</ele>
        <time>2017-07-23T08:33:26.137Z</time>
      </trkpt>
      <trkpt lat="47.78048" lon="2.27488">
        <ele>116</ele>
        <time>2017-07-23T08:33:27.143Z</time>
      </trkpt>
      <trkpt lat="47.78048" lon="2.27488">
        <ele>116</ele>
        <time>2017-07-23T08:33:28.108Z</time>
      </trkpt>
      <trkpt lat="47.78054" lon="2.27475">
        <ele>116</ele>
        <time>2017-07-23T08:33:29.141Z</time>
      </trkpt>
      <trkpt lat="47.78054" lon="2.27475">
        <ele>116</ele>
        <time>2017-07-23T08:33:30.146Z</time>
      </trkpt>
      <trkpt lat="47.78061" lon="2.27462">
        <ele>116</ele>
        <time>2017-07-23T08:33:31.112Z</time>
      </trkpt>
      <trkpt lat="47.78064" lon="2.27456">
        <ele>116</ele>
        <time>2017-07-23T08:33:32.111Z</time>
      </trkpt>
      <trkpt lat="47.78064" lon="2.27456">
        <ele>116</ele>
        <time>2017-07-23T08:33:33.116Z</time>
      </trkpt>
      <trkpt lat="47.78071" lon="2.27443">
        <ele>116</ele>
        <time>2017-07-23T08:33:34.133Z</time>
      </trkpt>
      <trkpt lat="47.78071" lon="2.27443">
        <ele>116</ele>
        <time>2017-07-23T08:33:35.141Z</time>
      </trkpt>
      <trkpt lat="47.78078" lon="2.2743">
        <ele>116</ele>
        <time>2017-07-23T08:33:36.132Z</time>
      </trkpt>
      <trkpt lat="47.78078" lon="2.2743">
        <ele>116</ele>
        <time>2017-07-23T08:33:37.137Z</time>
      </trkpt>
      <trkpt lat="47.78086" lon="2.27417">
        <ele>116</ele>
        <time>2017-07-23T08:33:38.131Z</time>
      </trkpt>
      <trkpt lat="47.78089" lon="2.2741">
        <ele>116</ele>
        <time>2017-07-23T08:33:39.108Z</time>
      </trkpt>
      <trkpt lat="47.78089" lon="2.2741">
        <ele>116</ele>
        <time>2017-07-23T08:33:40.130Z</time>
      </trkpt>
      <trkpt lat="47.78095" lon="2.27397">
        <ele>116</ele>
        <time>2017-07-23T08:33:41.120Z</time>
      </trkpt>
      <trkpt lat="47.78095" lon="2.27397">
        <ele>116</ele>
        <time>2017-07-23T08:33:42.134Z</time>
      </trkpt>
      <trkpt lat="47.781" lon="2.27383">
        <ele>116</ele>
        <time>2017-07-23T08:33:43.141Z</time>
      </trkpt>
      <trkpt lat="47.781" lon="2.27383">
        <ele>116</ele>
        <time>2017-07-23T08:33:44.146Z</time>
      </trkpt>
      <trkpt lat="47.78106" lon="2.27368">
        <ele>116</ele>
        <time>2017-07-23T08:33:45.111Z</time>
      </trkpt>
      <trkpt lat="47.78106" lon="2.27368">
        <ele>116</ele>
        <time>2017-07-23T08:33:46.117Z</time>
      </trkpt>
      <trkpt lat="47.78109" lon="2.27353">
        <ele>116</ele>
        <time>2017-07-23T08:33:47.131Z</time>
      </trkpt>
      <trkpt lat="47.78111" lon="2.27345">
        <ele>116</ele>
        <time>2017-07-23T08:33:48.123Z</time>
      </trkpt>
      <trkpt lat="47.78111" lon="2.27345">
        <ele>116</ele>
        <time>2017-07-23T08:33:49.143Z</time>
      </trkpt>
      <trkpt lat="47.78113" lon="2.27329">
        <ele>117</ele>
        <time>2017-07-23T08:33:50.109Z</time>
      </trkpt>
      <trkpt lat="47.78113" lon="2.27329">
        <ele>117</ele>
        <time>2017-07-23T08:33:51.114Z</time>
      </trkpt>
      <trkpt lat="47.78115" lon="2.27313">
        <ele>117</ele>
        <time>2017-07-23T08:33:52.137Z</time>
      </trkpt>
      <trkpt lat="47.78115" lon="2.27313">
        <ele>117</ele>
        <time>2017-07-23T08:33:53.142Z</time>
      </trkpt>
      <trkpt lat="47.78118" lon="2.27297">
        <ele>117</ele>
        <time>2017-07-23T08:33:54.108Z</time>
      </trkpt>
      <trkpt lat="47.78119" lon="2.27289">
        <ele>117</ele>
        <time>2017-07-23T08:33:55.112Z</time>
      </trkpt>
      <trkpt lat="47.7812" lon="2.27281">
        <ele>117</ele>
        <time>2017-07-23T08:33:56.119Z</time>
      </trkpt>
      <trkpt lat="47.7812" lon="2.27281">
        <ele>117</ele>
        <time>2017-07-23T08:33:57.124Z</time>
      </trkpt>
      <trkpt lat="47.78121" lon="2.27266">
        <ele>117</ele>
        <time>2017-07-23T08:33:58.111Z</time>
      </trkpt>
      <trkpt lat="47.78122" lon="2.27258">
        <ele>117</ele>
        <time>2017-07-23T08:33:59.116Z</time>
      </trkpt>
      <trkpt lat="47.78122" lon="2.27258">
        <ele>117</ele>
        <time>2017-07-23T08:34:00.121Z</time>
      </trkpt>
      <trkpt lat="47.78124" lon="2.27242">
        <ele>117</ele>
        <time>2017-07-23T08:34:01.112Z</time>
      </trkpt>
      <trkpt lat="47.78124" lon="2.27242">
        <ele>117</ele>
        <time>2017-07-23T08:34:02.117Z</time>
      </trkpt>
      <trkpt lat="47.78125" lon="2.27226">
        <ele>117</ele>
        <time>2017-07-23T08:34:03.125Z</time>
      </trkpt>
      <trkpt lat="47.78126" lon="2.27218">
        <ele>117</ele>
        <time>2017-07-23T08:34:04.147Z</time>
      </trkpt>
      <trkpt lat="47.78126" lon="2.27218">
        <ele>117</ele>
        <time>2017-07-23T08:34:05.112Z</time>
      </trkpt>
      <trkpt lat="47.78128" lon="2.27203">
        <ele>117</ele>
        <time>2017-07-23T08:34:06.119Z</time>
      </trkpt>
      <trkpt lat="47.78128" lon="2.27203">
        <ele>117</ele>
        <time>2017-07-23T08:34:07.142Z</time>
      </trkpt>
      <trkpt lat="47.7813" lon="2.27188">
        <ele>117</ele>
        <time>2017-07-23T08:34:08.109Z</time>
      </trkpt>
      <trkpt lat="47.7813" lon="2.27188">
        <ele>117</ele>
        <time>2017-07-23T08:34:09.115Z</time>
      </trkpt>
      <trkpt lat="47.78132" lon="2.27172">
        <ele>117</ele>
        <time>2017-07-23T08:34:10.121Z</time>
      </trkpt>
      <trkpt lat="47.78133" lon="2.27164">
        <ele>117</ele>
        <time>2017-07-23T08:34:11.134Z</time>
      </trkpt>
      <trkpt lat="47.78134" lon="2.27156">
        <ele>117</ele>
        <time>2017-07-23T08:34:12.143Z</time>
      </trkpt>
      <trkpt lat="47.78134" lon="2.27156">
        <ele>117</ele>
        <time>2017-07-23T08:34:13.108Z</time>
      </trkpt>
      <trkpt lat="47.78137" lon="2.27143">
        <ele>118</ele>
        <time>2017-07-23T08:34:14.111Z</time>
      </trkpt>
      <trkpt lat="47.78137" lon="2.27143">
        <ele>118</ele>
        <time>2017-07-23T08:34:15.116Z</time>
      </trkpt>
      <trkpt lat="47.78139" lon="2.27129">
        <ele>118</ele>
        <time>2017-07-23T08:34:16.125Z</time>
      </trkpt>
      <trkpt lat="47.78138" lon="2.27121">
        <ele>118</ele>
        <time>2017-07-23T08:34:17.108Z</time>
      </trkpt>
      <trkpt lat="47.78138" lon="2.27121">
        <ele>118</ele>
        <time>2017-07-23T08:34:18.116Z</time>
      </trkpt>
      <trkpt lat="47.78138" lon="2.27105">
        <ele>118</ele>
        <time>2017-07-23T08:34:19.123Z</time>
      </trkpt>
      <trkpt lat="47.78138" lon="2.27105">
        <ele>118</ele>
        <time>2017-07-23T08:34:20.138Z</time>
      </trkpt>
      <trkpt lat="47.78138" lon="2.27089">
        <ele>118</ele>
        <time>2017-07-23T08:34:21.139Z</time>
      </trkpt>
      <trkpt lat="47.78138" lon="2.27089">
        <ele>118</ele>
        <time>2017-07-23T08:34:22.144Z</time>
      </trkpt>
      <trkpt lat="47.78138" lon="2.27074">
        <ele>118</ele>
        <time>2017-07-23T08:34:23.116Z</time>
      </trkpt>
      <trkpt lat="47.78138" lon="2.27066">
        <ele>118</ele>
        <time>2017-07-23T08:34:24.141Z</time>
      </trkpt>
      <trkpt lat="47.78138" lon="2.27066">
        <ele>118</ele>
        <time>2017-07-23T08:34:25.146Z</time>
      </trkpt>
      <trkpt lat="47.78139" lon="2.27051">
        <ele>118</ele>
        <time>2017-07-23T08:34:26.113Z</time>
      </trkpt>
      <trkpt lat="47.78138" lon="2.27043">
        <ele>117</ele>
        <time>2017-07-23T08:34:27.133Z</time>
      </trkpt>
      <trkpt lat="47.78138" lon="2.27043">
        <ele>117</ele>
        <time>2017-07-23T08:34:28.138Z</time>
      </trkpt>
      <trkpt lat="47.78139" lon="2.27027">
        <ele>117</ele>
        <time>2017-07-23T08:34:29.144Z</time>
      </trkpt>
      <trkpt lat="47.78139" lon="2.27027">
        <ele>117</ele>
        <time>2017-07-23T08:34:30.112Z</time>
      </trkpt>
      <trkpt lat="47.78139" lon="2.27011">
        <ele>117</ele>
        <time>2017-07-23T08:34:31.144Z</time>
      </trkpt>
      <trkpt lat="47.78139" lon="2.27004">
        <ele>117</ele>
        <time>2017-07-23T08:34:32.139Z</time>
      </trkpt>
      <trkpt lat="47.78139" lon="2.27004">
        <ele>117</ele>
        <time>2017-07-23T08:34:33.145Z</time>
      </trkpt>
      <trkpt lat="47.78139" lon="2.26988">
        <ele>117</ele>
        <time>2017-07-23T08:34:34.114Z</time>
      </trkpt>
      <trkpt lat="47.78139" lon="2.26988">
        <ele>117</ele>
        <time>2017-07-23T08:34:35.119Z</time>
      </trkpt>
      <trkpt lat="47.7814" lon="2.26972">
        <ele>117</ele>
        <time>2017-07-23T08:34:36.139Z</time>
      </trkpt>
      <trkpt lat="47.7814" lon="2.26972">
        <ele>117</ele>
        <time>2017-07-23T08:34:37.144Z</time>
      </trkpt>
      <trkpt lat="47.78139" lon="2.26954">
        <ele>117</ele>
        <time>2017-07-23T08:34:38.133Z</time>
      </trkpt>
      <trkpt lat="47.7814" lon="2.26946">
        <ele>118</ele>
        <time>2017-07-23T08:34:39.135Z</time>
      </trkpt>
      <trkpt lat="47.7814" lon="2.26946">
        <ele>118</ele>
        <time>2017-07-23T08:34:40.140Z</time>
      </trkpt>
      <trkpt lat="47.7814" lon="2.2693">
        <ele>118</ele>
        <time>2017-07-23T08:34:41.122Z</time>
      </trkpt>
      <trkpt lat="47.78139" lon="2.26923">
        <ele>118</ele>
        <time>2017-07-23T08:34:42.135Z</time>
      </trkpt>
      <trkpt lat="47.78139" lon="2.26915">
        <ele>118</ele>
        <time>2017-07-23T08:34:43.111Z</time>
      </trkpt>
      <trkpt lat="47.78139" lon="2.26915">
        <ele>118</ele>
        <time>2017-07-23T08:34:44.117Z</time>
      </trkpt>
      <trkpt lat="47.7814" lon="2.26899">
        <ele>118</ele>
        <time>2017-07-23T08:34:45.126Z</time>
      </trkpt>
      <trkpt lat="47.7814" lon="2.26899">
        <ele>118</ele>
        <time>2017-07-23T08:34:46.131Z</time>
      </trkpt>
      <trkpt lat="47.7814" lon="2.26884">
        <ele>118</ele>
        <time>2017-07-23T08:34:47.142Z</time>
      </trkpt>
      <trkpt lat="47.7814" lon="2.26884">
        <ele>118</ele>
        <time>2017-07-23T08:34:48.147Z</time>
      </trkpt>
      <trkpt lat="47.7814" lon="2.26868">
        <ele>118</ele>
        <time>2017-07-23T08:34:49.114Z</time>
      </trkpt>
      <trkpt lat="47.7814" lon="2.26868">
        <ele>118</ele>
        <time>2017-07-23T08:34:50.118Z</time>
      </trkpt>
      <trkpt lat="47.7814" lon="2.26852">
        <ele>117</ele>
        <time>2017-07-23T08:34:51.137Z</time>
      </trkpt>
      <trkpt lat="47.7814" lon="2.26852">
        <ele>117</ele>
        <time>2017-07-23T08:34:52.142Z</time>
      </trkpt>
      <trkpt lat="47.78141" lon="2.26836">
        <ele>118</ele>
        <time>2017-07-23T08:34:53.108Z</time>
      </trkpt>
      <trkpt lat="47.78141" lon="2.26836">
        <ele>118</ele>
        <time>2017-07-23T08:34:54.113Z</time>
      </trkpt>
      <trkpt lat="47.78141" lon="2.26821">
        <ele>118</ele>
        <time>2017-07-23T08:34:55.123Z</time>
      </trkpt>
      <trkpt lat="47.78141" lon="2.26821">
        <ele>118</ele>
        <time>2017-07-23T08:34:56.128Z</time>
      </trkpt>
      <trkpt lat="47.78141" lon="2.26805">
        <ele>118</ele>
        <time>2017-07-23T08:34:57.135Z</time>
      </trkpt>
      <trkpt lat="47.78142" lon="2.26797">
        <ele>119</ele>
        <time>2017-07-23T08:34:58.111Z</time>
      </trkpt>
      <trkpt lat="47.78142" lon="2.26797">
        <ele>119</ele>
        <time>2017-07-23T08:34:59.117Z</time>
      </trkpt>
      <trkpt lat="47.78142" lon="2.26781">
        <ele>119</ele>
        <time>2017-07-23T08:35:00.131Z</time>
      </trkpt>
      <trkpt lat="47.78142" lon="2.26773">
        <ele>118</ele>
        <time>2017-07-23T08:35:01.117Z</time>
      </trkpt>
      <trkpt lat="47.78142" lon="2.26773">
        <ele>118</ele>
        <time>2017-07-23T08:35:02.132Z</time>
      </trkpt>
      <trkpt lat="47.78138" lon="2.26759">
        <ele>118</ele>
        <time>2017-07-23T08:35:03.139Z</time>
      </trkpt>
      <trkpt lat="47.78138" lon="2.26759">
        <ele>118</ele>
        <time>2017-07-23T08:35:04.111Z</time>
      </trkpt>
      <trkpt lat="47.78132" lon="2.26745">
        <ele>117</ele>
        <time>2017-07-23T08:35:05.138Z</time>
      </trkpt>
      <trkpt lat="47.78132" lon="2.26745">
        <ele>117</ele>
        <time>2017-07-23T08:35:06.143Z</time>
      </trkpt>
      <trkpt lat="47.78127" lon="2.26731">
        <ele>117</ele>
        <time>2017-07-23T08:35:07.141Z</time>
      </trkpt>
      <trkpt lat="47.78127" lon="2.26731">
        <ele>117</ele>
        <time>2017-07-23T08:35:08.146Z</time>
      </trkpt>
      <trkpt lat="47.78123" lon="2.26716">
        <ele>117</ele>
        <time>2017-07-23T08:35:09.112Z</time>
      </trkpt>
      <trkpt lat="47.78122" lon="2.26708">
        <ele>116</ele>
        <time>2017-07-23T08:35:10.114Z</time>
      </trkpt>
      <trkpt lat="47.78122" lon="2.26708">
        <ele>116</ele>
        <time>2017-07-23T08:35:11.120Z</time>
      </trkpt>
      <trkpt lat="47.78119" lon="2.26691">
        <ele>117</ele>
        <time>2017-07-23T08:35:12.134Z</time>
      </trkpt>
      <trkpt lat="47.78117" lon="2.26683">
        <ele>117</ele>
        <time>2017-07-23T08:35:13.117Z</time>
      </trkpt>
      <trkpt lat="47.78117" lon="2.26683">
        <ele>117</ele>
        <time>2017-07-23T08:35:14.122Z</time>
      </trkpt>
      <trkpt lat="47.78115" lon="2.26668">
        <ele>117</ele>
        <time>2017-07-23T08:35:15.136Z</time>
      </trkpt>
      <trkpt lat="47.78113" lon="2.2666">
        <ele>117</ele>
        <time>2017-07-23T08:35:16.131Z</time>
      </trkpt>
      <trkpt lat="47.78113" lon="2.2666">
        <ele>117</ele>
        <time>2017-07-23T08:35:17.136Z</time>
      </trkpt>
      <trkpt lat="47.78111" lon="2.26645">
        <ele>117</ele>
        <time>2017-07-23T08:35:18.143Z</time>
      </trkpt>
      <trkpt lat="47.78111" lon="2.26645">
        <ele>117</ele>
        <time>2017-07-23T08:35:19.108Z</time>
      </trkpt>
      <trkpt lat="47.78108" lon="2.2663">
        <ele>117</ele>
        <time>2017-07-23T08:35:20.109Z</time>
      </trkpt>
      <trkpt lat="47.78108" lon="2.2663">
        <ele>117</ele>
        <time>2017-07-23T08:35:21.114Z</time>
      </trkpt>
      <trkpt lat="47.78108" lon="2.26615">
        <ele>117</ele>
        <time>2017-07-23T08:35:22.121Z</time>
      </trkpt>
      <trkpt lat="47.78109" lon="2.26608">
        <ele>117</ele>
        <time>2017-07-23T08:35:23.143Z</time>
      </trkpt>
      <trkpt lat="47.78109" lon="2.26608">
        <ele>117</ele>
        <time>2017-07-23T08:35:24.108Z</time>
      </trkpt>
      <trkpt lat="47.78112" lon="2.26593">
        <ele>117</ele>
        <time>2017-07-23T08:35:25.114Z</time>
      </trkpt>
      <trkpt lat="47.78114" lon="2.26586">
        <ele>117</ele>
        <time>2017-07-23T08:35:26.131Z</time>
      </trkpt>
      <trkpt lat="47.78114" lon="2.26586">
        <ele>117</ele>
        <time>2017-07-23T08:35:27.116Z</time>
      </trkpt>
      <trkpt lat="47.78118" lon="2.26571">
        <ele>117</ele>
        <time>2017-07-23T08:35:28.124Z</time>
      </trkpt>
      <trkpt lat="47.7812" lon="2.26564">
        <ele>117</ele>
        <time>2017-07-23T08:35:29.118Z</time>
      </trkpt>
      <trkpt lat="47.7812" lon="2.26564">
        <ele>117</ele>
        <time>2017-07-23T08:35:30.127Z</time>
      </trkpt>
      <trkpt lat="47.78123" lon="2.26549">
        <ele>117</ele>
        <time>2017-07-23T08:35:31.134Z</time>
      </trkpt>
      <trkpt lat="47.78123" lon="2.26549">
        <ele>117</ele>
        <time>2017-07-23T08:35:32.140Z</time>
      </trkpt>
      <trkpt lat="47.78127" lon="2.26534">
        <ele>118</ele>
        <time>2017-07-23T08:35:33.140Z</time>
      </trkpt>
      <trkpt lat="47.78129" lon="2.26527">
        <ele>118</ele>
        <time>2017-07-23T08:35:34.146Z</time>
      </trkpt>
      <trkpt lat="47.78129" lon="2.26527">
        <ele>118</ele>
        <time>2017-07-23T08:35:35.111Z</time>
      </trkpt>
      <trkpt lat="47.78134" lon="2.26511">
        <ele>118</ele>
        <time>2017-07-23T08:35:36.110Z</time>
      </trkpt>
      <trkpt lat="47.78136" lon="2.26504">
        <ele>118</ele>
        <time>2017-07-23T08:35:37.135Z</time>
      </trkpt>
      <trkpt lat="47.78136" lon="2.26504">
        <ele>118</ele>
        <time>2017-07-23T08:35:38.139Z</time>
      </trkpt>
      <trkpt lat="47.7814" lon="2.26489">
        <ele>118</ele>
        <time>2017-07-23T08:35:39.146Z</time>
      </trkpt>
      <trkpt lat="47.7814" lon="2.26489">
        <ele>118</ele>
        <time>2017-07-23T08:35:40.112Z</time>
      </trkpt>
      <trkpt lat="47.78145" lon="2.26475">
        <ele>118</ele>
        <time>2017-07-23T08:35:41.118Z</time>
      </trkpt>
      <trkpt lat="47.78147" lon="2.26467">
        <ele>119</ele>
        <time>2017-07-23T08:35:42.142Z</time>
      </trkpt>
      <trkpt lat="47.78147" lon="2.26467">
        <ele>119</ele>
        <time>2017-07-23T08:35:43.147Z</time>
      </trkpt>
      <trkpt lat="47.78152" lon="2.2645">
        <ele>119</ele>
        <time>2017-07-23T08:35:44.115Z</time>
      </trkpt>
      <trkpt lat="47.78152" lon="2.2645">
        <ele>119</ele>
        <time>2017-07-23T08:35:45.120Z</time>
      </trkpt>
      <trkpt lat="47.78156" lon="2.26434">
        <ele>119</ele>
        <time>2017-07-23T08:35:46.111Z</time>
      </trkpt>
      <trkpt lat="47.78156" lon="2.26434">
        <ele>119</ele>
        <time>2017-07-23T08:35:47.119Z</time>
      </trkpt>
      <trkpt lat="47.7816" lon="2.26418">
        <ele>118</ele>
        <time>2017-07-23T08:35:48.129Z</time>
      </trkpt>
      <trkpt lat="47.7816" lon="2.26418">
        <ele>118</ele>
        <time>2017-07-23T08:35:49.134Z</time>
      </trkpt>
      <trkpt lat="47.78164" lon="2.26402">
        <ele>118</ele>
        <time>2017-07-23T08:35:50.135Z</time>
      </trkpt>
      <trkpt lat="47.78166" lon="2.26394">
        <ele>118</ele>
        <time>2017-07-23T08:35:51.141Z</time>
      </trkpt>
      <trkpt lat="47.78167" lon="2.26386">
        <ele>118</ele>
        <time>2017-07-23T08:35:52.131Z</time>
      </trkpt>
      <trkpt lat="47.78167" lon="2.26386">
        <ele>118</ele>
        <time>2017-07-23T08:35:53.143Z</time>
      </trkpt>
      <trkpt lat="47.78171" lon="2.26369">
        <ele>118</ele>
        <time>2017-07-23T08:35:54.113Z</time>
      </trkpt>
      <trkpt lat="47.78173" lon="2.26361">
        <ele>117</ele>
        <time>2017-07-23T08:35:55.108Z</time>
      </trkpt>
      <trkpt lat="47.78173" lon="2.26361">
        <ele>117</ele>
        <time>2017-07-23T08:35:56.113Z</time>
      </trkpt>
      <trkpt lat="47.78177" lon="2.26344">
        <ele>117</ele>
        <time>2017-07-23T08:35:57.144Z</time>
      </trkpt>
      <trkpt lat="47.78177" lon="2.26344">
        <ele>117</ele>
        <time>2017-07-23T08:35:58.108Z</time>
      </trkpt>
      <trkpt lat="47.78181" lon="2.26327">
        <ele>117</ele>
        <time>2017-07-23T08:35:59.119Z</time>
      </trkpt>
      <trkpt lat="47.78181" lon="2.26327">
        <ele>117</ele>
        <time>2017-07-23T08:36:00.142Z</time>
      </trkpt>
      <trkpt lat="47.78184" lon="2.2631">
        <ele>117</ele>
        <time>2017-07-23T08:36:01.141Z</time>
      </trkpt>
      <trkpt lat="47.78184" lon="2.2631">
        <ele>117</ele>
        <time>2017-07-23T08:36:02.147Z</time>
      </trkpt>
      <trkpt lat="47.78187" lon="2.26293">
        <ele>117</ele>
        <time>2017-07-23T08:36:03.113Z</time>
      </trkpt>
      <trkpt lat="47.78188" lon="2.26285">
        <ele>117</ele>
        <time>2017-07-23T08:36:04.118Z</time>
      </trkpt>
      <trkpt lat="47.78188" lon="2.26285">
        <ele>117</ele>
        <time>2017-07-23T08:36:05.144Z</time>
      </trkpt>
      <trkpt lat="47.78192" lon="2.26268">
        <ele>117</ele>
        <time>2017-07-23T08:36:06.133Z</time>
      </trkpt>
      <trkpt lat="47.78192" lon="2.26268">
        <ele>117</ele>
        <time>2017-07-23T08:36:07.139Z</time>
      </trkpt>
      <trkpt lat="47.78197" lon="2.26251">
        <ele>116</ele>
        <time>2017-07-23T08:36:08.145Z</time>
      </trkpt>
      <trkpt lat="47.78197" lon="2.26251">
        <ele>116</ele>
        <time>2017-07-23T08:36:09.110Z</time>
      </trkpt>
      <trkpt lat="47.78203" lon="2.26232">
        <ele>116</ele>
        <time>2017-07-23T08:36:10.113Z</time>
      </trkpt>
      <trkpt lat="47.78203" lon="2.26232">
        <ele>116</ele>
        <time>2017-07-23T08:36:11.132Z</time>
      </trkpt>
      <trkpt lat="47.78208" lon="2.26214">
        <ele>116</ele>
        <time>2017-07-23T08:36:12.138Z</time>
      </trkpt>
      <trkpt lat="47.78211" lon="2.26205">
        <ele>116</ele>
        <time>2017-07-23T08:36:13.145Z</time>
      </trkpt>
      <trkpt lat="47.78211" lon="2.26205">
        <ele>116</ele>
        <time>2017-07-23T08:36:14.110Z</time>
      </trkpt>
      <trkpt lat="47.78216" lon="2.26187">
        <ele>117</ele>
        <time>2017-07-23T08:36:15.117Z</time>
      </trkpt>
      <trkpt lat="47.78216" lon="2.26187">
        <ele>117</ele>
        <time>2017-07-23T08:36:16.126Z</time>
      </trkpt>
      <trkpt lat="47.7822" lon="2.26168">
        <ele>117</ele>
        <time>2017-07-23T08:36:17.113Z</time>
      </trkpt>
      <trkpt lat="47.7822" lon="2.26168">
        <ele>117</ele>
        <time>2017-07-23T08:36:18.126Z</time>
      </trkpt>
      <trkpt lat="47.78224" lon="2.2615">
        <ele>117</ele>
        <time>2017-07-23T08:36:19.145Z</time>
      </trkpt>
      <trkpt lat="47.78224" lon="2.2615">
        <ele>117</ele>
        <time>2017-07-23T08:36:20.112Z</time>
      </trkpt>
      <trkpt lat="47.78227" lon="2.26132">
        <ele>116</ele>
        <time>2017-07-23T08:36:21.119Z</time>
      </trkpt>
      <trkpt lat="47.78229" lon="2.26123">
        <ele>116</ele>
        <time>2017-07-23T08:36:22.132Z</time>
      </trkpt>
      <trkpt lat="47.78229" lon="2.26123">
        <ele>116</ele>
        <time>2017-07-23T08:36:23.138Z</time>
      </trkpt>
      <trkpt lat="47.78232" lon="2.26104">
        <ele>115</ele>
        <time>2017-07-23T08:36:24.115Z</time>
      </trkpt>
      <trkpt lat="47.78234" lon="2.26095">
        <ele>115</ele>
        <time>2017-07-23T08:36:25.141Z</time>
      </trkpt>
      <trkpt lat="47.78234" lon="2.26095">
        <ele>115</ele>
        <time>2017-07-23T08:36:26.146Z</time>
      </trkpt>
      <trkpt lat="47.78238" lon="2.26078">
        <ele>114</ele>
        <time>2017-07-23T08:36:27.121Z</time>
      </trkpt>
      <trkpt lat="47.7824" lon="2.26069">
        <ele>114</ele>
        <time>2017-07-23T08:36:28.110Z</time>
      </trkpt>
      <trkpt lat="47.7824" lon="2.26069">
        <ele>114</ele>
        <time>2017-07-23T08:36:29.115Z</time>
      </trkpt>
      <trkpt lat="47.78244" lon="2.2605">
        <ele>113</ele>
        <time>2017-07-23T08:36:30.124Z</time>
      </trkpt>
      <trkpt lat="47.78244" lon="2.2605">
        <ele>113</ele>
        <time>2017-07-23T08:36:31.133Z</time>
      </trkpt>
      <trkpt lat="47.78248" lon="2.2603">
        <ele>113</ele>
        <time>2017-07-23T08:36:32.141Z</time>
      </trkpt>
      <trkpt lat="47.78248" lon="2.2603">
        <ele>113</ele>
        <time>2017-07-23T08:36:33.146Z</time>
      </trkpt>
      <trkpt lat="47.78252" lon="2.2601">
        <ele>112</ele>
        <time>2017-07-23T08:36:34.119Z</time>
      </trkpt>
      <trkpt lat="47.78252" lon="2.2601">
        <ele>112</ele>
        <time>2017-07-23T08:36:35.140Z</time>
      </trkpt>
      <trkpt lat="47.78256" lon="2.25989">
        <ele>111</ele>
        <time>2017-07-23T08:36:36.144Z</time>
      </trkpt>
      <trkpt lat="47.78256" lon="2.25989">
        <ele>111</ele>
        <time>2017-07-23T08:36:37.109Z</time>
      </trkpt>
      <trkpt lat="47.7826" lon="2.25968">
        <ele>112</ele>
        <time>2017-07-23T08:36:38.131Z</time>
      </trkpt>
      <trkpt lat="47.78262" lon="2.25958">
        <ele>112</ele>
        <time>2017-07-23T08:36:39.145Z</time>
      </trkpt>
      <trkpt lat="47.78262" lon="2.25958">
        <ele>112</ele>
        <time>2017-07-23T08:36:40.111Z</time>
      </trkpt>
      <trkpt lat="47.78268" lon="2.25936">
        <ele>112</ele>
        <time>2017-07-23T08:36:41.141Z</time>
      </trkpt>
      <trkpt lat="47.78268" lon="2.25936">
        <ele>112</ele>
        <time>2017-07-23T08:36:42.146Z</time>
      </trkpt>
      <trkpt lat="47.78274" lon="2.25916">
        <ele>112</ele>
        <time>2017-07-23T08:36:43.112Z</time>
      </trkpt>
      <trkpt lat="47.78274" lon="2.25916">
        <ele>112</ele>
        <time>2017-07-23T08:36:44.117Z</time>
      </trkpt>
      <trkpt lat="47.78279" lon="2.25895">
        <ele>113</ele>
        <time>2017-07-23T08:36:45.147Z</time>
      </trkpt>
      <trkpt lat="47.78281" lon="2.25886">
        <ele>113</ele>
        <time>2017-07-23T08:36:46.113Z</time>
      </trkpt>
      <trkpt lat="47.78281" lon="2.25886">
        <ele>113</ele>
        <time>2017-07-23T08:36:47.118Z</time>
      </trkpt>
      <trkpt lat="47.78285" lon="2.25867">
        <ele>113</ele>
        <time>2017-07-23T08:36:48.141Z</time>
      </trkpt>
      <trkpt lat="47.78287" lon="2.25857">
        <ele>113</ele>
        <time>2017-07-23T08:36:49.147Z</time>
      </trkpt>
      <trkpt lat="47.78287" lon="2.25857">
        <ele>113</ele>
        <time>2017-07-23T08:36:50.112Z</time>
      </trkpt>
      <trkpt lat="47.7829" lon="2.25839">
        <ele>114</ele>
        <time>2017-07-23T08:36:51.131Z</time>
      </trkpt>
      <trkpt lat="47.7829" lon="2.25839">
        <ele>114</ele>
        <time>2017-07-23T08:36:52.136Z</time>
      </trkpt>
      <trkpt lat="47.78294" lon="2.25821">
        <ele>115</ele>
        <time>2017-07-23T08:36:53.143Z</time>
      </trkpt>
      <trkpt lat="47.78294" lon="2.25821">
        <ele>115</ele>
        <time>2017-07-23T08:36:54.148Z</time>
      </trkpt>
      <trkpt lat="47.78299" lon="2.25806">
        <ele>114</ele>
        <time>2017-07-23T08:36:55.141Z</time>
      </trkpt>
      <trkpt lat="47.78299" lon="2.25806">
        <ele>114</ele>
        <time>2017-07-23T08:36:56.146Z</time>
      </trkpt>
      <trkpt lat="47.78309" lon="2.25794">
        <ele>114</ele>
        <time>2017-07-23T08:36:57.120Z</time>
      </trkpt>
      <trkpt lat="47.78315" lon="2.2579">
        <ele>114</ele>
        <time>2017-07-23T08:36:58.119Z</time>
      </trkpt>
      <trkpt lat="47.78315" lon="2.2579">
        <ele>114</ele>
        <time>2017-07-23T08:36:59.129Z</time>
      </trkpt>
      <trkpt lat="47.78326" lon="2.25786">
        <ele>114</ele>
        <time>2017-07-23T08:37:00.128Z</time>
      </trkpt>
      <trkpt lat="47.78332" lon="2.25785">
        <ele>114</ele>
        <time>2017-07-23T08:37:01.134Z</time>
      </trkpt>
      <trkpt lat="47.78332" lon="2.25785">
        <ele>114</ele>
        <time>2017-07-23T08:37:02.139Z</time>
      </trkpt>
      <trkpt lat="47.78344" lon="2.25785">
        <ele>114</ele>
        <time>2017-07-23T08:37:03.139Z</time>
      </trkpt>
      <trkpt lat="47.78349" lon="2.25784">
        <ele>114</ele>
        <time>2017-07-23T08:37:04.133Z</time>
      </trkpt>
      <trkpt lat="47.78349" lon="2.25784">
        <ele>114</ele>
        <time>2017-07-23T08:37:05.138Z</time>
      </trkpt>
      <trkpt lat="47.7836" lon="2.25783">
        <ele>114</ele>
        <time>2017-07-23T08:37:06.132Z</time>
      </trkpt>
      <trkpt lat="47.78365" lon="2.25783">
        <ele>115</ele>
        <time>2017-07-23T08:37:07.147Z</time>
      </trkpt>
      <trkpt lat="47.78365" lon="2.25783">
        <ele>115</ele>
        <time>2017-07-23T08:37:08.113Z</time>
      </trkpt>
      <trkpt lat="47.78375" lon="2.25781">
        <ele>115</ele>
        <time>2017-07-23T08:37:09.119Z</time>
      </trkpt>
      <trkpt lat="47.78375" lon="2.25781">
        <ele>115</ele>
        <time>2017-07-23T08:37:10.126Z</time>
      </trkpt>
      <trkpt lat="47.78386" lon="2.25779">
        <ele>116</ele>
        <time>2017-07-23T08:37:11.113Z</time>
      </trkpt>
      <trkpt lat="47.78386" lon="2.25779">
        <ele>116</ele>
        <time>2017-07-23T08:37:12.132Z</time>
      </trkpt>
      <trkpt lat="47.78396" lon="2.25777">
        <ele>115</ele>
        <time>2017-07-23T08:37:13.141Z</time>
      </trkpt>
      <trkpt lat="47.784" lon="2.25776">
        <ele>115</ele>
        <time>2017-07-23T08:37:14.146Z</time>
      </trkpt>
      <trkpt lat="47.784" lon="2.25776">
        <ele>115</ele>
        <time>2017-07-23T08:37:15.139Z</time>
      </trkpt>
      <trkpt lat="47.7841" lon="2.25775">
        <ele>116</ele>
        <time>2017-07-23T08:37:16.111Z</time>
      </trkpt>
      <trkpt lat="47.7841" lon="2.25775">
        <ele>116</ele>
        <time>2017-07-23T08:37:17.137Z</time>
      </trkpt>
      <trkpt lat="47.78418" lon="2.25775">
        <ele>116</ele>
        <time>2017-07-23T08:37:18.143Z</time>
      </trkpt>
      <trkpt lat="47.78422" lon="2.25774">
        <ele>117</ele>
        <time>2017-07-23T08:37:19.138Z</time>
      </trkpt>
      <trkpt lat="47.78422" lon="2.25774">
        <ele>117</ele>
        <time>2017-07-23T08:37:20.143Z</time>
      </trkpt>
      <trkpt lat="47.7843" lon="2.25774">
        <ele>117</ele>
        <time>2017-07-23T08:37:21.109Z</time>
      </trkpt>
      <trkpt lat="47.7843" lon="2.25774">
        <ele>117</ele>
        <time>2017-07-23T08:37:22.121Z</time>
      </trkpt>
      <trkpt lat="47.78436" lon="2.25772">
        <ele>117</ele>
        <time>2017-07-23T08:37:23.142Z</time>
      </trkpt>
      <trkpt lat="47.78436" lon="2.25772">
        <ele>117</ele>
        <time>2017-07-23T08:37:24.147Z</time>
      </trkpt>
      <trkpt lat="47.7844" lon="2.2577">
        <ele>117</ele>
        <time>2017-07-23T08:37:25.113Z</time>
      </trkpt>
      <trkpt lat="47.7844" lon="2.2577">
        <ele>117</ele>
        <time>2017-07-23T08:37:26.118Z</time>
      </trkpt>
      <trkpt lat="47.78441" lon="2.25769">
        <ele>117</ele>
        <time>2017-07-23T08:37:27.111Z</time>
      </trkpt>
      <trkpt lat="47.78441" lon="2.25769">
        <ele>117</ele>
        <time>2017-07-23T08:37:28.118Z</time>
      </trkpt>
      <trkpt lat="47.78441" lon="2.25769">
        <ele>117</ele>
        <time>2017-07-23T08:37:29.125Z</time>
      </trkpt>
      <trkpt lat="47.78441" lon="2.25769">
        <ele>117</ele>
        <time>2017-07-23T08:37:30.114Z</time>
      </trkpt>
      <trkpt lat="47.78449" lon="2.25772">
        <ele>112</ele>
        <time>2017-07-23T08:37:31.144Z</time>
      </trkpt>
      <trkpt lat="47.78453" lon="2.25772">
        <ele>112</ele>
        <time>2017-07-23T08:37:32.145Z</time>
      </trkpt>
      <trkpt lat="47.78457" lon="2.25771">
        <ele>112</ele>
        <time>2017-07-23T08:37:33.108Z</time>
      </trkpt>
      <trkpt lat="47.78457" lon="2.25771">
        <ele>112</ele>
        <time>2017-07-23T08:37:34.122Z</time>
      </trkpt>
      <trkpt lat="47.78464" lon="2.25771">
        <ele>112</ele>
        <time>2017-07-23T08:37:35.129Z</time>
      </trkpt>
      <trkpt lat="47.78468" lon="2.2577">
        <ele>113</ele>
        <time>2017-07-23T08:37:36.120Z</time>
      </trkpt>
      <trkpt lat="47.78472" lon="2.2577">
        <ele>113</ele>
        <time>2017-07-23T08:37:37.115Z</time>
      </trkpt>
      <trkpt lat="47.78472" lon="2.2577">
        <ele>113</ele>
        <time>2017-07-23T08:37:38.142Z</time>
      </trkpt>
      <trkpt lat="47.7848" lon="2.25768">
        <ele>113</ele>
        <time>2017-07-23T08:37:39.138Z</time>
      </trkpt>
      <trkpt lat="47.7848" lon="2.25768">
        <ele>113</ele>
        <time>2017-07-23T08:37:40.119Z</time>
      </trkpt>
      <trkpt lat="47.78489" lon="2.25766">
        <ele>113</ele>
        <time>2017-07-23T08:37:41.127Z</time>
      </trkpt>
      <trkpt lat="47.78493" lon="2.25765">
        <ele>114</ele>
        <time>2017-07-23T08:37:42.115Z</time>
      </trkpt>
      <trkpt lat="47.78493" lon="2.25765">
        <ele>114</ele>
        <time>2017-07-23T08:37:43.121Z</time>
      </trkpt>
      <trkpt lat="47.78504" lon="2.25763">
        <ele>114</ele>
        <time>2017-07-23T08:37:44.130Z</time>
      </trkpt>
      <trkpt lat="47.78504" lon="2.25763">
        <ele>114</ele>
        <time>2017-07-23T08:37:45.110Z</time>
      </trkpt>
      <trkpt lat="47.78514" lon="2.25761">
        <ele>114</ele>
        <time>2017-07-23T08:37:46.126Z</time>
      </trkpt>
      <trkpt lat="47.78519" lon="2.2576">
        <ele>114</ele>
        <time>2017-07-23T08:37:47.147Z</time>
      </trkpt>
      <trkpt lat="47.78519" lon="2.2576">
        <ele>114</ele>
        <time>2017-07-23T08:37:48.131Z</time>
      </trkpt>
      <trkpt lat="47.7853" lon="2.25758">
        <ele>114</ele>
        <time>2017-07-23T08:37:49.139Z</time>
      </trkpt>
      <trkpt lat="47.7853" lon="2.25758">
        <ele>114</ele>
        <time>2017-07-23T08:37:50.116Z</time>
      </trkpt>
      <trkpt lat="47.7854" lon="2.25756">
        <ele>114</ele>
        <time>2017-07-23T08:37:51.126Z</time>
      </trkpt>
      <trkpt lat="47.78545" lon="2.25755">
        <ele>114</ele>
        <time>2017-07-23T08:37:52.117Z</time>
      </trkpt>
      <trkpt lat="47.78545" lon="2.25755">
        <ele>114</ele>
        <time>2017-07-23T08:37:53.132Z</time>
      </trkpt>
      <trkpt lat="47.78555" lon="2.25752">
        <ele>115</ele>
        <time>2017-07-23T08:37:54.138Z</time>
      </trkpt>
      <trkpt lat="47.78555" lon="2.25752">
        <ele>115</ele>
        <time>2017-07-23T08:37:55.128Z</time>
      </trkpt>
      <trkpt lat="47.78565" lon="2.2575">
        <ele>115</ele>
        <time>2017-07-23T08:37:56.126Z</time>
      </trkpt>
      <trkpt lat="47.78565" lon="2.2575">
        <ele>115</ele>
        <time>2017-07-23T08:37:57.139Z</time>
      </trkpt>
      <trkpt lat="47.78575" lon="2.25748">
        <ele>116</ele>
        <time>2017-07-23T08:37:58.145Z</time>
      </trkpt>
      <trkpt lat="47.7858" lon="2.25746">
        <ele>116</ele>
        <time>2017-07-23T08:37:59.133Z</time>
      </trkpt>
      <trkpt lat="47.7858" lon="2.25746">
        <ele>116</ele>
        <time>2017-07-23T08:38:00.110Z</time>
      </trkpt>
      <trkpt lat="47.7859" lon="2.25744">
        <ele>116</ele>
        <time>2017-07-23T08:38:01.116Z</time>
      </trkpt>
      <trkpt lat="47.78595" lon="2.25743">
        <ele>116</ele>
        <time>2017-07-23T08:38:02.139Z</time>
      </trkpt>
      <trkpt lat="47.78595" lon="2.25743">
        <ele>116</ele>
        <time>2017-07-23T08:38:03.117Z</time>
      </trkpt>
      <trkpt lat="47.78606" lon="2.2574">
        <ele>117</ele>
        <time>2017-07-23T08:38:04.123Z</time>
      </trkpt>
      <trkpt lat="47.78606" lon="2.2574">
        <ele>117</ele>
        <time>2017-07-23T08:38:05.110Z</time>
      </trkpt>
      <trkpt lat="47.78617" lon="2.25738">
        <ele>117</ele>
        <time>2017-07-23T08:38:06.115Z</time>
      </trkpt>
      <trkpt lat="47.78617" lon="2.25738">
        <ele>117</ele>
        <time>2017-07-23T08:38:07.144Z</time>
      </trkpt>
      <trkpt lat="47.78627" lon="2.25735">
        <ele>118</ele>
        <time>2017-07-23T08:38:08.111Z</time>
      </trkpt>
      <trkpt lat="47.78627" lon="2.25735">
        <ele>118</ele>
        <time>2017-07-23T08:38:09.112Z</time>
      </trkpt>
      <trkpt lat="47.78638" lon="2.25732">
        <ele>117</ele>
        <time>2017-07-23T08:38:10.113Z</time>
      </trkpt>
      <trkpt lat="47.78638" lon="2.25732">
        <ele>117</ele>
        <time>2017-07-23T08:38:11.122Z</time>
      </trkpt>
      <trkpt lat="47.78648" lon="2.25728">
        <ele>117</ele>
        <time>2017-07-23T08:38:12.131Z</time>
      </trkpt>
      <trkpt lat="47.78653" lon="2.25725">
        <ele>117</ele>
        <time>2017-07-23T08:38:13.136Z</time>
      </trkpt>
      <trkpt lat="47.78659" lon="2.25722">
        <ele>117</ele>
        <time>2017-07-23T08:38:14.125Z</time>
      </trkpt>
      <trkpt lat="47.78659" lon="2.25722">
        <ele>117</ele>
        <time>2017-07-23T08:38:15.132Z</time>
      </trkpt>
      <trkpt lat="47.78669" lon="2.25714">
        <ele>118</ele>
        <time>2017-07-23T08:38:16.148Z</time>
      </trkpt>
      <trkpt lat="47.78674" lon="2.2571">
        <ele>118</ele>
        <time>2017-07-23T08:38:17.114Z</time>
      </trkpt>
      <trkpt lat="47.78674" lon="2.2571">
        <ele>118</ele>
        <time>2017-07-23T08:38:18.132Z</time>
      </trkpt>
      <trkpt lat="47.78684" lon="2.25702">
        <ele>117</ele>
        <time>2017-07-23T08:38:19.123Z</time>
      </trkpt>
      <trkpt lat="47.78688" lon="2.25699">
        <ele>117</ele>
        <time>2017-07-23T08:38:20.134Z</time>
      </trkpt>
      <trkpt lat="47.78693" lon="2.25695">
        <ele>117</ele>
        <time>2017-07-23T08:38:21.121Z</time>
      </trkpt>
      <trkpt lat="47.78693" lon="2.25695">
        <ele>117</ele>
        <time>2017-07-23T08:38:22.108Z</time>
      </trkpt>
      <trkpt lat="47.78702" lon="2.25687">
        <ele>117</ele>
        <time>2017-07-23T08:38:23.114Z</time>
      </trkpt>
      <trkpt lat="47.78702" lon="2.25687">
        <ele>117</ele>
        <time>2017-07-23T08:38:24.109Z</time>
      </trkpt>
      <trkpt lat="47.78711" lon="2.2568">
        <ele>117</ele>
        <time>2017-07-23T08:38:25.136Z</time>
      </trkpt>
      <trkpt lat="47.78716" lon="2.25676">
        <ele>117</ele>
        <time>2017-07-23T08:38:26.137Z</time>
      </trkpt>
      <trkpt lat="47.78716" lon="2.25676">
        <ele>117</ele>
        <time>2017-07-23T08:38:27.143Z</time>
      </trkpt>
      <trkpt lat="47.78726" lon="2.25668">
        <ele>117</ele>
        <time>2017-07-23T08:38:28.114Z</time>
      </trkpt>
      <trkpt lat="47.78726" lon="2.25668">
        <ele>117</ele>
        <time>2017-07-23T08:38:29.128Z</time>
      </trkpt>
      <trkpt lat="47.78735" lon="2.2566">
        <ele>117</ele>
        <time>2017-07-23T08:38:30.134Z</time>
      </trkpt>
      <trkpt lat="47.7874" lon="2.25656">
        <ele>117</ele>
        <time>2017-07-23T08:38:31.122Z</time>
      </trkpt>
      <trkpt lat="47.7874" lon="2.25656">
        <ele>117</ele>
        <time>2017-07-23T08:38:32.140Z</time>
      </trkpt>
      <trkpt lat="47.78749" lon="2.25649">
        <ele>116</ele>
        <time>2017-07-23T08:38:33.146Z</time>
      </trkpt>
      <trkpt lat="47.78749" lon="2.25649">
        <ele>116</ele>
        <time>2017-07-23T08:38:34.131Z</time>
      </trkpt>
      <trkpt lat="47.78758" lon="2.25642">
        <ele>116</ele>
        <time>2017-07-23T08:38:35.116Z</time>
      </trkpt>
      <trkpt lat="47.78758" lon="2.25642">
        <ele>116</ele>
        <time>2017-07-23T08:38:36.129Z</time>
      </trkpt>
      <trkpt lat="47.78767" lon="2.25635">
        <ele>116</ele>
        <time>2017-07-23T08:38:37.117Z</time>
      </trkpt>
      <trkpt lat="47.78771" lon="2.25631">
        <ele>116</ele>
        <time>2017-07-23T08:38:38.145Z</time>
      </trkpt>
      <trkpt lat="47.78775" lon="2.25627">
        <ele>116</ele>
        <time>2017-07-23T08:38:39.130Z</time>
      </trkpt>
      <trkpt lat="47.78779" lon="2.25623">
        <ele>116</ele>
        <time>2017-07-23T08:38:40.118Z</time>
      </trkpt>
      <trkpt lat="47.78779" lon="2.25623">
        <ele>116</ele>
        <time>2017-07-23T08:38:41.143Z</time>
      </trkpt>
      <trkpt lat="47.78788" lon="2.25615">
        <ele>116</ele>
        <time>2017-07-23T08:38:42.146Z</time>
      </trkpt>
      <trkpt lat="47.78793" lon="2.25611">
        <ele>116</ele>
        <time>2017-07-23T08:38:43.123Z</time>
      </trkpt>
      <trkpt lat="47.78793" lon="2.25611">
        <ele>116</ele>
        <time>2017-07-23T08:38:44.143Z</time>
      </trkpt>
      <trkpt lat="47.78802" lon="2.25604">
        <ele>116</ele>
        <time>2017-07-23T08:38:45.109Z</time>
      </trkpt>
      <trkpt lat="47.78806" lon="2.256">
        <ele>115</ele>
        <time>2017-07-23T08:38:46.120Z</time>
      </trkpt>
      <trkpt lat="47.78811" lon="2.25597">
        <ele>115</ele>
        <time>2017-07-23T08:38:47.132Z</time>
      </trkpt>
      <trkpt lat="47.78815" lon="2.25593">
        <ele>115</ele>
        <time>2017-07-23T08:38:48.109Z</time>
      </trkpt>
      <trkpt lat="47.78815" lon="2.25593">
        <ele>115</ele>
        <time>2017-07-23T08:38:49.136Z</time>
      </trkpt>
      <trkpt lat="47.78823" lon="2.25585">
        <ele>115</ele>
        <time>2017-07-23T08:38:50.141Z</time>
      </trkpt>
      <trkpt lat="47.78823" lon="2.25585">
        <ele>115</ele>
        <time>2017-07-23T08:38:51.115Z</time>
      </trkpt>
      <trkpt lat="47.78833" lon="2.25577">
        <ele>115</ele>
        <time>2017-07-23T08:38:52.121Z</time>
      </trkpt>
      <trkpt lat="47.78837" lon="2.25573">
        <ele>115</ele>
        <time>2017-07-23T08:38:53.124Z</time>
      </trkpt>
      <trkpt lat="47.78837" lon="2.25573">
        <ele>115</ele>
        <time>2017-07-23T08:38:54.131Z</time>
      </trkpt>
      <trkpt lat="47.78845" lon="2.25565">
        <ele>115</ele>
        <time>2017-07-23T08:38:55.141Z</time>
      </trkpt>
      <trkpt lat="47.78849" lon="2.25561">
        <ele>115</ele>
        <time>2017-07-23T08:38:56.113Z</time>
      </trkpt>
      <trkpt lat="47.78849" lon="2.25561">
        <ele>115</ele>
        <time>2017-07-23T08:38:57.136Z</time>
      </trkpt>
      <trkpt lat="47.78856" lon="2.25554">
        <ele>115</ele>
        <time>2017-07-23T08:38:58.142Z</time>
      </trkpt>
      <trkpt lat="47.78856" lon="2.25554">
        <ele>115</ele>
        <time>2017-07-23T08:38:59.131Z</time>
      </trkpt>
      <trkpt lat="47.78861" lon="2.25548">
        <ele>115</ele>
        <time>2017-07-23T08:39:00.113Z</time>
      </trkpt>
      <trkpt lat="47.78861" lon="2.25548">
        <ele>115</ele>
        <time>2017-07-23T08:39:01.109Z</time>
      </trkpt>
      <trkpt lat="47.78866" lon="2.2554">
        <ele>114</ele>
        <time>2017-07-23T08:39:02.115Z</time>
      </trkpt>
      <trkpt lat="47.78866" lon="2.2554">
        <ele>114</ele>
        <time>2017-07-23T08:39:03.143Z</time>
      </trkpt>
      <trkpt lat="47.78873" lon="2.25531">
        <ele>114</ele>
        <time>2017-07-23T08:39:04.147Z</time>
      </trkpt>
      <trkpt lat="47.78873" lon="2.25531">
        <ele>114</ele>
        <time>2017-07-23T08:39:05.114Z</time>
      </trkpt>
      <trkpt lat="47.7888" lon="2.25521">
        <ele>114</ele>
        <time>2017-07-23T08:39:06.120Z</time>
      </trkpt>
      <trkpt lat="47.78884" lon="2.25516">
        <ele>114</ele>
        <time>2017-07-23T08:39:07.117Z</time>
      </trkpt>
      <trkpt lat="47.78884" lon="2.25516">
        <ele>114</ele>
        <time>2017-07-23T08:39:08.120Z</time>
      </trkpt>
      <trkpt lat="47.78891" lon="2.25507">
        <ele>114</ele>
        <time>2017-07-23T08:39:09.126Z</time>
      </trkpt>
      <trkpt lat="47.78894" lon="2.25502">
        <ele>114</ele>
        <time>2017-07-23T08:39:10.115Z</time>
      </trkpt>
      <trkpt lat="47.78894" lon="2.25502">
        <ele>114</ele>
        <time>2017-07-23T08:39:11.122Z</time>
      </trkpt>
      <trkpt lat="47.78901" lon="2.25491">
        <ele>114</ele>
        <time>2017-07-23T08:39:12.128Z</time>
      </trkpt>
      <trkpt lat="47.78905" lon="2.25486">
        <ele>114</ele>
        <time>2017-07-23T08:39:13.115Z</time>
      </trkpt>
      <trkpt lat="47.78905" lon="2.25486">
        <ele>114</ele>
        <time>2017-07-23T08:39:14.142Z</time>
      </trkpt>
      <trkpt lat="47.78912" lon="2.25476">
        <ele>114</ele>
        <time>2017-07-23T08:39:15.108Z</time>
      </trkpt>
      <trkpt lat="47.78915" lon="2.25472">
        <ele>114</ele>
        <time>2017-07-23T08:39:16.115Z</time>
      </trkpt>
      <trkpt lat="47.7892" lon="2.25466">
        <ele>114</ele>
        <time>2017-07-23T08:39:17.111Z</time>
      </trkpt>
      <trkpt lat="47.78924" lon="2.25462">
        <ele>114</ele>
        <time>2017-07-23T08:39:18.136Z</time>
      </trkpt>
      <trkpt lat="47.78924" lon="2.25462">
        <ele>114</ele>
        <time>2017-07-23T08:39:19.130Z</time>
      </trkpt>
      <trkpt lat="47.78933" lon="2.25453">
        <ele>115</ele>
        <time>2017-07-23T08:39:20.136Z</time>
      </trkpt>
      <trkpt lat="47.78933" lon="2.25453">
        <ele>115</ele>
        <time>2017-07-23T08:39:21.109Z</time>
      </trkpt>
      <trkpt lat="47.78941" lon="2.25444">
        <ele>115</ele>
        <time>2017-07-23T08:39:22.115Z</time>
      </trkpt>
      <trkpt lat="47.78941" lon="2.25444">
        <ele>115</ele>
        <time>2017-07-23T08:39:23.112Z</time>
      </trkpt>
      <trkpt lat="47.7895" lon="2.25435">
        <ele>115</ele>
        <time>2017-07-23T08:39:24.117Z</time>
      </trkpt>
      <trkpt lat="47.78954" lon="2.2543">
        <ele>115</ele>
        <time>2017-07-23T08:39:25.115Z</time>
      </trkpt>
      <trkpt lat="47.78954" lon="2.2543">
        <ele>115</ele>
        <time>2017-07-23T08:39:26.112Z</time>
      </trkpt>
      <trkpt lat="47.78962" lon="2.2542">
        <ele>116</ele>
        <time>2017-07-23T08:39:27.119Z</time>
      </trkpt>
      <trkpt lat="47.78967" lon="2.25416">
        <ele>116</ele>
        <time>2017-07-23T08:39:28.115Z</time>
      </trkpt>
      <trkpt lat="47.78967" lon="2.25416">
        <ele>116</ele>
        <time>2017-07-23T08:39:29.142Z</time>
      </trkpt>
      <trkpt lat="47.78975" lon="2.25407">
        <ele>116</ele>
        <time>2017-07-23T08:39:30.108Z</time>
      </trkpt>
      <trkpt lat="47.78975" lon="2.25407">
        <ele>116</ele>
        <time>2017-07-23T08:39:31.135Z</time>
      </trkpt>
      <trkpt lat="47.78984" lon="2.25399">
        <ele>116</ele>
        <time>2017-07-23T08:39:32.115Z</time>
      </trkpt>
      <trkpt lat="47.78984" lon="2.25399">
        <ele>116</ele>
        <time>2017-07-23T08:39:33.112Z</time>
      </trkpt>
      <trkpt lat="47.78993" lon="2.25392">
        <ele>116</ele>
        <time>2017-07-23T08:39:34.118Z</time>
      </trkpt>
      <trkpt lat="47.78993" lon="2.25392">
        <ele>116</ele>
        <time>2017-07-23T08:39:35.110Z</time>
      </trkpt>
      <trkpt lat="47.79002" lon="2.25383">
        <ele>117</ele>
        <time>2017-07-23T08:39:36.126Z</time>
      </trkpt>
      <trkpt lat="47.79007" lon="2.25378">
        <ele>117</ele>
        <time>2017-07-23T08:39:37.122Z</time>
      </trkpt>
      <trkpt lat="47.79007" lon="2.25378">
        <ele>117</ele>
        <time>2017-07-23T08:39:38.111Z</time>
      </trkpt>
      <trkpt lat="47.79017" lon="2.25369">
        <ele>117</ele>
        <time>2017-07-23T08:39:39.146Z</time>
      </trkpt>
      <trkpt lat="47.79017" lon="2.25369">
        <ele>117</ele>
        <time>2017-07-23T08:39:40.127Z</time>
      </trkpt>
      <trkpt lat="47.79026" lon="2.2536">
        <ele>118</ele>
        <time>2017-07-23T08:39:41.135Z</time>
      </trkpt>
      <trkpt lat="47.79026" lon="2.2536">
        <ele>118</ele>
        <time>2017-07-23T08:39:42.112Z</time>
      </trkpt>
      <trkpt lat="47.79034" lon="2.25349">
        <ele>118</ele>
        <time>2017-07-23T08:39:43.118Z</time>
      </trkpt>
      <trkpt lat="47.79039" lon="2.25343">
        <ele>118</ele>
        <time>2017-07-23T08:39:44.145Z</time>
      </trkpt>
      <trkpt lat="47.79039" lon="2.25343">
        <ele>118</ele>
        <time>2017-07-23T08:39:45.141Z</time>
      </trkpt>
      <trkpt lat="47.79048" lon="2.25332">
        <ele>118</ele>
        <time>2017-07-23T08:39:46.114Z</time>
      </trkpt>
      <trkpt lat="47.79048" lon="2.25332">
        <ele>118</ele>
        <time>2017-07-23T08:39:47.140Z</time>
      </trkpt>
      <trkpt lat="47.79057" lon="2.25321">
        <ele>118</ele>
        <time>2017-07-23T08:39:48.108Z</time>
      </trkpt>
      <trkpt lat="47.79057" lon="2.25321">
        <ele>118</ele>
        <time>2017-07-23T08:39:49.138Z</time>
      </trkpt>
      <trkpt lat="47.79067" lon="2.25309">
        <ele>118</ele>
        <time>2017-07-23T08:39:50.110Z</time>
      </trkpt>
      <trkpt lat="47.79067" lon="2.25309">
        <ele>118</ele>
        <time>2017-07-23T08:39:51.125Z</time>
      </trkpt>
      <trkpt lat="47.79077" lon="2.25298">
        <ele>119</ele>
        <time>2017-07-23T08:39:52.133Z</time>
      </trkpt>
      <trkpt lat="47.79081" lon="2.25292">
        <ele>119</ele>
        <time>2017-07-23T08:39:53.114Z</time>
      </trkpt>
      <trkpt lat="47.79081" lon="2.25292">
        <ele>119</ele>
        <time>2017-07-23T08:39:54.111Z</time>
      </trkpt>
      <trkpt lat="47.79088" lon="2.25279">
        <ele>118</ele>
        <time>2017-07-23T08:39:55.121Z</time>
      </trkpt>
      <trkpt lat="47.79092" lon="2.25273">
        <ele>117</ele>
        <time>2017-07-23T08:39:56.130Z</time>
      </trkpt>
      <trkpt lat="47.79092" lon="2.25273">
        <ele>117</ele>
        <time>2017-07-23T08:39:57.129Z</time>
      </trkpt>
      <trkpt lat="47.79101" lon="2.25261">
        <ele>116</ele>
        <time>2017-07-23T08:39:58.112Z</time>
      </trkpt>
      <trkpt lat="47.79101" lon="2.25261">
        <ele>116</ele>
        <time>2017-07-23T08:39:59.112Z</time>
      </trkpt>
      <trkpt lat="47.7911" lon="2.25249">
        <ele>116</ele>
        <time>2017-07-23T08:40:00.118Z</time>
      </trkpt>
      <trkpt lat="47.7911" lon="2.25249">
        <ele>116</ele>
        <time>2017-07-23T08:40:01.111Z</time>
      </trkpt>
      <trkpt lat="47.79118" lon="2.25237">
        <ele>115</ele>
        <time>2017-07-23T08:40:02.111Z</time>
      </trkpt>
      <trkpt lat="47.79123" lon="2.25231">
        <ele>115</ele>
        <time>2017-07-23T08:40:03.145Z</time>
      </trkpt>
      <trkpt lat="47.79123" lon="2.25231">
        <ele>115</ele>
        <time>2017-07-23T08:40:04.127Z</time>
      </trkpt>
      <trkpt lat="47.79131" lon="2.2522">
        <ele>115</ele>
        <time>2017-07-23T08:40:05.134Z</time>
      </trkpt>
      <trkpt lat="47.79135" lon="2.25214">
        <ele>115</ele>
        <time>2017-07-23T08:40:06.119Z</time>
      </trkpt>
      <trkpt lat="47.79135" lon="2.25214">
        <ele>115</ele>
        <time>2017-07-23T08:40:07.133Z</time>
      </trkpt>
      <trkpt lat="47.79142" lon="2.25204">
        <ele>115</ele>
        <time>2017-07-23T08:40:08.140Z</time>
      </trkpt>
      <trkpt lat="47.79142" lon="2.25204">
        <ele>115</ele>
        <time>2017-07-23T08:40:09.114Z</time>
      </trkpt>
      <trkpt lat="47.7915" lon="2.25193">
        <ele>115</ele>
        <time>2017-07-23T08:40:10.114Z</time>
      </trkpt>
      <trkpt lat="47.7915" lon="2.25193">
        <ele>115</ele>
        <time>2017-07-23T08:40:11.131Z</time>
      </trkpt>
      <trkpt lat="47.79157" lon="2.25183">
        <ele>114</ele>
        <time>2017-07-23T08:40:12.139Z</time>
      </trkpt>
      <trkpt lat="47.7916" lon="2.25178">
        <ele>114</ele>
        <time>2017-07-23T08:40:13.124Z</time>
      </trkpt>
      <trkpt lat="47.7916" lon="2.25178">
        <ele>114</ele>
        <time>2017-07-23T08:40:14.123Z</time>
      </trkpt>
      <trkpt lat="47.79167" lon="2.25169">
        <ele>114</ele>
        <time>2017-07-23T08:40:15.128Z</time>
      </trkpt>
      <trkpt lat="47.79167" lon="2.25169">
        <ele>114</ele>
        <time>2017-07-23T08:40:16.115Z</time>
      </trkpt>
      <trkpt lat="47.79172" lon="2.2516">
        <ele>114</ele>
        <time>2017-07-23T08:40:17.115Z</time>
      </trkpt>
      <trkpt lat="47.79175" lon="2.25157">
        <ele>114</ele>
        <time>2017-07-23T08:40:18.142Z</time>
      </trkpt>
      <trkpt lat="47.79175" lon="2.25157">
        <ele>114</ele>
        <time>2017-07-23T08:40:19.131Z</time>
      </trkpt>
      <trkpt lat="47.79179" lon="2.2515">
        <ele>114</ele>
        <time>2017-07-23T08:40:20.115Z</time>
      </trkpt>
      <trkpt lat="47.79179" lon="2.2515">
        <ele>114</ele>
        <time>2017-07-23T08:40:21.110Z</time>
      </trkpt>
      <trkpt lat="47.79182" lon="2.25145">
        <ele>114</ele>
        <time>2017-07-23T08:40:22.116Z</time>
      </trkpt>
      <trkpt lat="47.79182" lon="2.25145">
        <ele>114</ele>
        <time>2017-07-23T08:40:23.142Z</time>
      </trkpt>
      <trkpt lat="47.79185" lon="2.2514">
        <ele>114</ele>
        <time>2017-07-23T08:40:24.110Z</time>
      </trkpt>
      <trkpt lat="47.79185" lon="2.2514">
        <ele>114</ele>
        <time>2017-07-23T08:40:25.142Z</time>
      </trkpt>
      <trkpt lat="47.79188" lon="2.25132">
        <ele>115</ele>
        <time>2017-07-23T08:40:26.108Z</time>
      </trkpt>
      <trkpt lat="47.79188" lon="2.25132">
        <ele>115</ele>
        <time>2017-07-23T08:40:27.109Z</time>
      </trkpt>
      <trkpt lat="47.79189" lon="2.2512">
        <ele>115</ele>
        <time>2017-07-23T08:40:28.146Z</time>
      </trkpt>
      <trkpt lat="47.79189" lon="2.2512">
        <ele>115</ele>
        <time>2017-07-23T08:40:29.138Z</time>
      </trkpt>
      <trkpt lat="47.7919" lon="2.25107">
        <ele>115</ele>
        <time>2017-07-23T08:40:30.147Z</time>
      </trkpt>
      <trkpt lat="47.7919" lon="2.251">
        <ele>115</ele>
        <time>2017-07-23T08:40:31.119Z</time>
      </trkpt>
      <trkpt lat="47.79191" lon="2.25092">
        <ele>115</ele>
        <time>2017-07-23T08:40:32.122Z</time>
      </trkpt>
      <trkpt lat="47.79191" lon="2.25092">
        <ele>115</ele>
        <time>2017-07-23T08:40:33.109Z</time>
      </trkpt>
      <trkpt lat="47.79192" lon="2.25076">
        <ele>115</ele>
        <time>2017-07-23T08:40:34.115Z</time>
      </trkpt>
      <trkpt lat="47.79192" lon="2.25076">
        <ele>115</ele>
        <time>2017-07-23T08:40:35.112Z</time>
      </trkpt>
      <trkpt lat="47.79193" lon="2.25061">
        <ele>115</ele>
        <time>2017-07-23T08:40:36.122Z</time>
      </trkpt>
      <trkpt lat="47.79193" lon="2.25061">
        <ele>115</ele>
        <time>2017-07-23T08:40:37.110Z</time>
      </trkpt>
      <trkpt lat="47.79194" lon="2.25045">
        <ele>115</ele>
        <time>2017-07-23T08:40:38.134Z</time>
      </trkpt>
      <trkpt lat="47.79194" lon="2.25045">
        <ele>115</ele>
        <time>2017-07-23T08:40:39.144Z</time>
      </trkpt>
      <trkpt lat="47.79195" lon="2.25029">
        <ele>115</ele>
        <time>2017-07-23T08:40:40.122Z</time>
      </trkpt>
      <trkpt lat="47.79195" lon="2.25029">
        <ele>115</ele>
        <time>2017-07-23T08:40:41.122Z</time>
      </trkpt>
      <trkpt lat="47.79196" lon="2.25014">
        <ele>115</ele>
        <time>2017-07-23T08:40:42.132Z</time>
      </trkpt>
      <trkpt lat="47.79196" lon="2.25014">
        <ele>115</ele>
        <time>2017-07-23T08:40:43.122Z</time>
      </trkpt>
      <trkpt lat="47.79197" lon="2.24997">
        <ele>115</ele>
        <time>2017-07-23T08:40:44.113Z</time>
      </trkpt>
      <trkpt lat="47.79197" lon="2.24997">
        <ele>115</ele>
        <time>2017-07-23T08:40:45.128Z</time>
      </trkpt>
      <trkpt lat="47.79199" lon="2.24981">
        <ele>115</ele>
        <time>2017-07-23T08:40:46.136Z</time>
      </trkpt>
      <trkpt lat="47.79199" lon="2.24981">
        <ele>115</ele>
        <time>2017-07-23T08:40:47.139Z</time>
      </trkpt>
      <trkpt lat="47.792" lon="2.24964">
        <ele>114</ele>
        <time>2017-07-23T08:40:48.110Z</time>
      </trkpt>
      <trkpt lat="47.792" lon="2.24964">
        <ele>114</ele>
        <time>2017-07-23T08:40:49.112Z</time>
      </trkpt>
      <trkpt lat="47.79201" lon="2.24947">
        <ele>114</ele>
        <time>2017-07-23T08:40:50.119Z</time>
      </trkpt>
      <trkpt lat="47.79201" lon="2.24947">
        <ele>114</ele>
        <time>2017-07-23T08:40:51.139Z</time>
      </trkpt>
      <trkpt lat="47.79202" lon="2.2493">
        <ele>114</ele>
        <time>2017-07-23T08:40:52.115Z</time>
      </trkpt>
      <trkpt lat="47.79203" lon="2.24923">
        <ele>114</ele>
        <time>2017-07-23T08:40:53.134Z</time>
      </trkpt>
      <trkpt lat="47.79203" lon="2.24923">
        <ele>114</ele>
        <time>2017-07-23T08:40:54.121Z</time>
      </trkpt>
      <trkpt lat="47.79204" lon="2.24906">
        <ele>113</ele>
        <time>2017-07-23T08:40:55.137Z</time>
      </trkpt>
      <trkpt lat="47.79204" lon="2.24898">
        <ele>113</ele>
        <time>2017-07-23T08:40:56.111Z</time>
      </trkpt>
      <trkpt lat="47.79205" lon="2.2489">
        <ele>113</ele>
        <time>2017-07-23T08:40:57.142Z</time>
      </trkpt>
      <trkpt lat="47.79205" lon="2.2489">
        <ele>113</ele>
        <time>2017-07-23T08:40:58.134Z</time>
      </trkpt>
      <trkpt lat="47.79205" lon="2.24873">
        <ele>113</ele>
        <time>2017-07-23T08:40:59.140Z</time>
      </trkpt>
      <trkpt lat="47.79205" lon="2.24873">
        <ele>113</ele>
        <time>2017-07-23T08:41:00.131Z</time>
      </trkpt>
      <trkpt lat="47.79206" lon="2.24855">
        <ele>113</ele>
        <time>2017-07-23T08:41:01.124Z</time>
      </trkpt>
      <trkpt lat="47.79206" lon="2.24855">
        <ele>113</ele>
        <time>2017-07-23T08:41:02.122Z</time>
      </trkpt>
      <trkpt lat="47.79207" lon="2.24839">
        <ele>113</ele>
        <time>2017-07-23T08:41:03.133Z</time>
      </trkpt>
      <trkpt lat="47.79207" lon="2.24839">
        <ele>113</ele>
        <time>2017-07-23T08:41:04.129Z</time>
      </trkpt>
      <trkpt lat="47.79208" lon="2.24823">
        <ele>113</ele>
        <time>2017-07-23T08:41:05.115Z</time>
      </trkpt>
      <trkpt lat="47.79208" lon="2.24823">
        <ele>113</ele>
        <time>2017-07-23T08:41:06.125Z</time>
      </trkpt>
      <trkpt lat="47.7921" lon="2.24807">
        <ele>113</ele>
        <time>2017-07-23T08:41:07.131Z</time>
      </trkpt>
      <trkpt lat="47.7921" lon="2.24798">
        <ele>113</ele>
        <time>2017-07-23T08:41:08.144Z</time>
      </trkpt>
      <trkpt lat="47.7921" lon="2.24798">
        <ele>113</ele>
        <time>2017-07-23T08:41:09.131Z</time>
      </trkpt>
      <trkpt lat="47.79212" lon="2.24782">
        <ele>112</ele>
        <time>2017-07-23T08:41:10.139Z</time>
      </trkpt>
      <trkpt lat="47.79212" lon="2.24782">
        <ele>112</ele>
        <time>2017-07-23T08:41:11.136Z</time>
      </trkpt>
      <trkpt lat="47.79213" lon="2.24764">
        <ele>112</ele>
        <time>2017-07-23T08:41:12.110Z</time>
      </trkpt>
      <trkpt lat="47.79213" lon="2.24764">
        <ele>112</ele>
        <time>2017-07-23T08:41:13.116Z</time>
      </trkpt>
      <trkpt lat="47.79214" lon="2.24747">
        <ele>113</ele>
        <time>2017-07-23T08:41:14.123Z</time>
      </trkpt>
      <trkpt lat="47.79214" lon="2.24747">
        <ele>113</ele>
        <time>2017-07-23T08:41:15.142Z</time>
      </trkpt>
      <trkpt lat="47.79215" lon="2.2473">
        <ele>113</ele>
        <time>2017-07-23T08:41:16.123Z</time>
      </trkpt>
      <trkpt lat="47.79215" lon="2.2473">
        <ele>113</ele>
        <time>2017-07-23T08:41:17.130Z</time>
      </trkpt>
      <trkpt lat="47.79216" lon="2.24713">
        <ele>113</ele>
        <time>2017-07-23T08:41:18.136Z</time>
      </trkpt>
      <trkpt lat="47.79216" lon="2.24704">
        <ele>113</ele>
        <time>2017-07-23T08:41:19.115Z</time>
      </trkpt>
      <trkpt lat="47.79217" lon="2.24695">
        <ele>113</ele>
        <time>2017-07-23T08:41:20.109Z</time>
      </trkpt>
      <trkpt lat="47.79217" lon="2.24695">
        <ele>113</ele>
        <time>2017-07-23T08:41:21.135Z</time>
      </trkpt>
      <trkpt lat="47.79218" lon="2.24678">
        <ele>113</ele>
        <time>2017-07-23T08:41:22.115Z</time>
      </trkpt>
      <trkpt lat="47.79218" lon="2.24678">
        <ele>113</ele>
        <time>2017-07-23T08:41:23.135Z</time>
      </trkpt>
      <trkpt lat="47.7922" lon="2.24662">
        <ele>113</ele>
        <time>2017-07-23T08:41:24.141Z</time>
      </trkpt>
      <trkpt lat="47.7922" lon="2.24662">
        <ele>113</ele>
        <time>2017-07-23T08:41:25.138Z</time>
      </trkpt>
      <trkpt lat="47.79221" lon="2.24646">
        <ele>113</ele>
        <time>2017-07-23T08:41:26.114Z</time>
      </trkpt>
      <trkpt lat="47.79221" lon="2.24646">
        <ele>113</ele>
        <time>2017-07-23T08:41:27.132Z</time>
      </trkpt>
      <trkpt lat="47.79222" lon="2.24628">
        <ele>113</ele>
        <time>2017-07-23T08:41:28.141Z</time>
      </trkpt>
      <trkpt lat="47.79222" lon="2.24628">
        <ele>113</ele>
        <time>2017-07-23T08:41:29.136Z</time>
      </trkpt>
      <trkpt lat="47.79223" lon="2.24612">
        <ele>113</ele>
        <time>2017-07-23T08:41:30.115Z</time>
      </trkpt>
      <trkpt lat="47.79223" lon="2.24612">
        <ele>113</ele>
        <time>2017-07-23T08:41:31.122Z</time>
      </trkpt>
      <trkpt lat="47.79223" lon="2.24597">
        <ele>114</ele>
        <time>2017-07-23T08:41:32.128Z</time>
      </trkpt>
      <trkpt lat="47.79224" lon="2.24591">
        <ele>114</ele>
        <time>2017-07-23T08:41:33.143Z</time>
      </trkpt>
      <trkpt lat="47.79224" lon="2.24586">
        <ele>114</ele>
        <time>2017-07-23T08:41:34.118Z</time>
      </trkpt>
      <trkpt lat="47.79224" lon="2.24586">
        <ele>114</ele>
        <time>2017-07-23T08:41:35.138Z</time>
      </trkpt>
      <trkpt lat="47.79224" lon="2.2458">
        <ele>114</ele>
        <time>2017-07-23T08:41:36.144Z</time>
      </trkpt>
      <trkpt lat="47.79224" lon="2.24578">
        <ele>114</ele>
        <time>2017-07-23T08:41:37.122Z</time>
      </trkpt>
      <trkpt lat="47.79224" lon="2.24576">
        <ele>114</ele>
        <time>2017-07-23T08:41:38.145Z</time>
      </trkpt>
      <trkpt lat="47.79224" lon="2.24576">
        <ele>114</ele>
        <time>2017-07-23T08:41:39.113Z</time>
      </trkpt>
      <trkpt lat="47.79224" lon="2.24575">
        <ele>114</ele>
        <time>2017-07-23T08:41:40.119Z</time>
      </trkpt>
      <trkpt lat="47.79224" lon="2.24575">
        <ele>114</ele>
        <time>2017-07-23T08:41:41.147Z</time>
      </trkpt>
      <trkpt lat="47.79224" lon="2.24575">
        <ele>114</ele>
        <time>2017-07-23T08:41:42.140Z</time>
      </trkpt>
      <trkpt lat="47.79226" lon="2.24565">
        <ele>112</ele>
        <time>2017-07-23T08:41:43.133Z</time>
      </trkpt>
      <trkpt lat="47.79227" lon="2.2456">
        <ele>112</ele>
        <time>2017-07-23T08:41:44.116Z</time>
      </trkpt>
      <trkpt lat="47.79227" lon="2.2456">
        <ele>112</ele>
        <time>2017-07-23T08:41:45.147Z</time>
      </trkpt>
      <trkpt lat="47.79228" lon="2.24547">
        <ele>112</ele>
        <time>2017-07-23T08:41:46.118Z</time>
      </trkpt>
      <trkpt lat="47.79228" lon="2.24547">
        <ele>112</ele>
        <time>2017-07-23T08:41:47.140Z</time>
      </trkpt>
      <trkpt lat="47.79228" lon="2.24531">
        <ele>113</ele>
        <time>2017-07-23T08:41:48.146Z</time>
      </trkpt>
      <trkpt lat="47.79228" lon="2.24531">
        <ele>113</ele>
        <time>2017-07-23T08:41:49.136Z</time>
      </trkpt>
      <trkpt lat="47.7923" lon="2.24514">
        <ele>113</ele>
        <time>2017-07-23T08:41:50.127Z</time>
      </trkpt>
      <trkpt lat="47.7923" lon="2.24514">
        <ele>113</ele>
        <time>2017-07-23T08:41:51.126Z</time>
      </trkpt>
      <trkpt lat="47.79231" lon="2.24497">
        <ele>113</ele>
        <time>2017-07-23T08:41:52.132Z</time>
      </trkpt>
      <trkpt lat="47.79231" lon="2.24488">
        <ele>113</ele>
        <time>2017-07-23T08:41:53.148Z</time>
      </trkpt>
      <trkpt lat="47.79231" lon="2.24488">
        <ele>113</ele>
        <time>2017-07-23T08:41:54.123Z</time>
      </trkpt>
      <trkpt lat="47.79232" lon="2.24469">
        <ele>114</ele>
        <time>2017-07-23T08:41:55.130Z</time>
      </trkpt>
      <trkpt lat="47.79233" lon="2.2446">
        <ele>114</ele>
        <time>2017-07-23T08:41:56.148Z</time>
      </trkpt>
      <trkpt lat="47.79233" lon="2.2446">
        <ele>114</ele>
        <time>2017-07-23T08:41:57.140Z</time>
      </trkpt>
      <trkpt lat="47.79234" lon="2.24442">
        <ele>114</ele>
        <time>2017-07-23T08:41:58.146Z</time>
      </trkpt>
      <trkpt lat="47.79235" lon="2.24433">
        <ele>114</ele>
        <time>2017-07-23T08:41:59.126Z</time>
      </trkpt>
      <trkpt lat="47.79235" lon="2.24433">
        <ele>114</ele>
        <time>2017-07-23T08:42:00.136Z</time>
      </trkpt>
      <trkpt lat="47.79235" lon="2.24414">
        <ele>114</ele>
        <time>2017-07-23T08:42:01.113Z</time>
      </trkpt>
      <trkpt lat="47.79235" lon="2.24414">
        <ele>114</ele>
        <time>2017-07-23T08:42:02.136Z</time>
      </trkpt>
      <trkpt lat="47.79237" lon="2.24395">
        <ele>114</ele>
        <time>2017-07-23T08:42:03.141Z</time>
      </trkpt>
      <trkpt lat="47.79237" lon="2.24395">
        <ele>114</ele>
        <time>2017-07-23T08:42:04.130Z</time>
      </trkpt>
      <trkpt lat="47.79239" lon="2.24376">
        <ele>115</ele>
        <time>2017-07-23T08:42:05.111Z</time>
      </trkpt>
      <trkpt lat="47.79239" lon="2.24376">
        <ele>115</ele>
        <time>2017-07-23T08:42:06.132Z</time>
      </trkpt>
      <trkpt lat="47.7924" lon="2.24357">
        <ele>115</ele>
        <time>2017-07-23T08:42:07.139Z</time>
      </trkpt>
      <trkpt lat="47.7924" lon="2.24357">
        <ele>115</ele>
        <time>2017-07-23T08:42:08.115Z</time>
      </trkpt>
      <trkpt lat="47.79241" lon="2.24337">
        <ele>115</ele>
        <time>2017-07-23T08:42:09.145Z</time>
      </trkpt>
      <trkpt lat="47.79242" lon="2.24328">
        <ele>115</ele>
        <time>2017-07-23T08:42:10.139Z</time>
      </trkpt>
      <trkpt lat="47.79242" lon="2.24328">
        <ele>115</ele>
        <time>2017-07-23T08:42:11.127Z</time>
      </trkpt>
      <trkpt lat="47.79243" lon="2.24308">
        <ele>115</ele>
        <time>2017-07-23T08:42:12.137Z</time>
      </trkpt>
      <trkpt lat="47.79243" lon="2.24308">
        <ele>115</ele>
        <time>2017-07-23T08:42:13.137Z</time>
      </trkpt>
      <trkpt lat="47.79244" lon="2.24289">
        <ele>115</ele>
        <time>2017-07-23T08:42:14.145Z</time>
      </trkpt>
      <trkpt lat="47.79244" lon="2.24279">
        <ele>115</ele>
        <time>2017-07-23T08:42:15.111Z</time>
      </trkpt>
      <trkpt lat="47.79244" lon="2.24279">
        <ele>115</ele>
        <time>2017-07-23T08:42:16.131Z</time>
      </trkpt>
      <trkpt lat="47.79246" lon="2.2426">
        <ele>115</ele>
        <time>2017-07-23T08:42:17.137Z</time>
      </trkpt>
      <trkpt lat="47.79246" lon="2.2426">
        <ele>115</ele>
        <time>2017-07-23T08:42:18.118Z</time>
      </trkpt>
      <trkpt lat="47.79247" lon="2.24239">
        <ele>114</ele>
        <time>2017-07-23T08:42:19.147Z</time>
      </trkpt>
      <trkpt lat="47.79247" lon="2.24239">
        <ele>114</ele>
        <time>2017-07-23T08:42:20.125Z</time>
      </trkpt>
      <trkpt lat="47.79249" lon="2.24218">
        <ele>114</ele>
        <time>2017-07-23T08:42:21.134Z</time>
      </trkpt>
      <trkpt lat="47.79249" lon="2.24218">
        <ele>114</ele>
        <time>2017-07-23T08:42:22.112Z</time>
      </trkpt>
      <trkpt lat="47.79251" lon="2.24197">
        <ele>114</ele>
        <time>2017-07-23T08:42:23.148Z</time>
      </trkpt>
      <trkpt lat="47.79251" lon="2.24197">
        <ele>114</ele>
        <time>2017-07-23T08:42:24.114Z</time>
      </trkpt>
      <trkpt lat="47.79253" lon="2.24176">
        <ele>114</ele>
        <time>2017-07-23T08:42:25.123Z</time>
      </trkpt>
      <trkpt lat="47.79253" lon="2.24176">
        <ele>114</ele>
        <time>2017-07-23T08:42:26.112Z</time>
      </trkpt>
      <trkpt lat="47.79255" lon="2.24155">
        <ele>113</ele>
        <time>2017-07-23T08:42:27.112Z</time>
      </trkpt>
      <trkpt lat="47.79255" lon="2.24155">
        <ele>113</ele>
        <time>2017-07-23T08:42:28.109Z</time>
      </trkpt>
      <trkpt lat="47.79256" lon="2.24134">
        <ele>113</ele>
        <time>2017-07-23T08:42:29.124Z</time>
      </trkpt>
      <trkpt lat="47.79256" lon="2.24134">
        <ele>113</ele>
        <time>2017-07-23T08:42:30.144Z</time>
      </trkpt>
      <trkpt lat="47.79258" lon="2.24113">
        <ele>113</ele>
        <time>2017-07-23T08:42:31.145Z</time>
      </trkpt>
      <trkpt lat="47.79259" lon="2.24102">
        <ele>113</ele>
        <time>2017-07-23T08:42:32.140Z</time>
      </trkpt>
      <trkpt lat="47.79259" lon="2.24102">
        <ele>113</ele>
        <time>2017-07-23T08:42:33.120Z</time>
      </trkpt>
      <trkpt lat="47.79259" lon="2.24082">
        <ele>113</ele>
        <time>2017-07-23T08:42:34.127Z</time>
      </trkpt>
      <trkpt lat="47.79259" lon="2.24082">
        <ele>113</ele>
        <time>2017-07-23T08:42:35.134Z</time>
      </trkpt>
      <trkpt lat="47.79261" lon="2.24062">
        <ele>113</ele>
        <time>2017-07-23T08:42:36.139Z</time>
      </trkpt>
      <trkpt lat="47.79261" lon="2.24062">
        <ele>113</ele>
        <time>2017-07-23T08:42:37.127Z</time>
      </trkpt>
      <trkpt lat="47.79263" lon="2.2404">
        <ele>113</ele>
        <time>2017-07-23T08:42:38.116Z</time>
      </trkpt>
      <trkpt lat="47.79263" lon="2.2403">
        <ele>113</ele>
        <time>2017-07-23T08:42:39.144Z</time>
      </trkpt>
      <trkpt lat="47.79264" lon="2.2402">
        <ele>114</ele>
        <time>2017-07-23T08:42:40.118Z</time>
      </trkpt>
      <trkpt lat="47.79264" lon="2.2402">
        <ele>114</ele>
        <time>2017-07-23T08:42:41.147Z</time>
      </trkpt>
      <trkpt lat="47.79265" lon="2.23999">
        <ele>113</ele>
        <time>2017-07-23T08:42:42.137Z</time>
      </trkpt>
      <trkpt lat="47.79265" lon="2.23999">
        <ele>113</ele>
        <time>2017-07-23T08:42:43.129Z</time>
      </trkpt>
      <trkpt lat="47.79266" lon="2.23978">
        <ele>113</ele>
        <time>2017-07-23T08:42:44.148Z</time>
      </trkpt>
      <trkpt lat="47.79266" lon="2.23978">
        <ele>113</ele>
        <time>2017-07-23T08:42:45.122Z</time>
      </trkpt>
      <trkpt lat="47.79268" lon="2.23957">
        <ele>113</ele>
        <time>2017-07-23T08:42:46.132Z</time>
      </trkpt>
      <trkpt lat="47.79268" lon="2.23957">
        <ele>113</ele>
        <time>2017-07-23T08:42:47.143Z</time>
      </trkpt>
      <trkpt lat="47.79269" lon="2.23937">
        <ele>113</ele>
        <time>2017-07-23T08:42:48.109Z</time>
      </trkpt>
      <trkpt lat="47.79269" lon="2.23937">
        <ele>113</ele>
        <time>2017-07-23T08:42:49.126Z</time>
      </trkpt>
      <trkpt lat="47.79271" lon="2.23916">
        <ele>113</ele>
        <time>2017-07-23T08:42:50.111Z</time>
      </trkpt>
      <trkpt lat="47.79271" lon="2.23916">
        <ele>113</ele>
        <time>2017-07-23T08:42:51.118Z</time>
      </trkpt>
      <trkpt lat="47.79272" lon="2.23896">
        <ele>113</ele>
        <time>2017-07-23T08:42:52.125Z</time>
      </trkpt>
      <trkpt lat="47.79272" lon="2.23886">
        <ele>113</ele>
        <time>2017-07-23T08:42:53.136Z</time>
      </trkpt>
      <trkpt lat="47.79272" lon="2.23886">
        <ele>113</ele>
        <time>2017-07-23T08:42:54.125Z</time>
      </trkpt>
      <trkpt lat="47.79274" lon="2.23866">
        <ele>113</ele>
        <time>2017-07-23T08:42:55.131Z</time>
      </trkpt>
      <trkpt lat="47.79274" lon="2.23857">
        <ele>113</ele>
        <time>2017-07-23T08:42:56.131Z</time>
      </trkpt>
      <trkpt lat="47.79274" lon="2.23857">
        <ele>113</ele>
        <time>2017-07-23T08:42:57.123Z</time>
      </trkpt>
      <trkpt lat="47.79276" lon="2.23837">
        <ele>113</ele>
        <time>2017-07-23T08:42:58.129Z</time>
      </trkpt>
      <trkpt lat="47.79276" lon="2.23827">
        <ele>113</ele>
        <time>2017-07-23T08:42:59.111Z</time>
      </trkpt>
      <trkpt lat="47.79276" lon="2.23827">
        <ele>113</ele>
        <time>2017-07-23T08:43:00.138Z</time>
      </trkpt>
      <trkpt lat="47.79277" lon="2.23807">
        <ele>114</ele>
        <time>2017-07-23T08:43:01.138Z</time>
      </trkpt>
      <trkpt lat="47.79277" lon="2.23807">
        <ele>114</ele>
        <time>2017-07-23T08:43:02.127Z</time>
      </trkpt>
      <trkpt lat="47.79279" lon="2.23785">
        <ele>113</ele>
        <time>2017-07-23T08:43:03.116Z</time>
      </trkpt>
      <trkpt lat="47.79279" lon="2.23785">
        <ele>113</ele>
        <time>2017-07-23T08:43:04.138Z</time>
      </trkpt>
      <trkpt lat="47.7928" lon="2.23765">
        <ele>113</ele>
        <time>2017-07-23T08:43:05.144Z</time>
      </trkpt>
      <trkpt lat="47.7928" lon="2.23765">
        <ele>113</ele>
        <time>2017-07-23T08:43:06.112Z</time>
      </trkpt>
      <trkpt lat="47.79281" lon="2.23745">
        <ele>113</ele>
        <time>2017-07-23T08:43:07.144Z</time>
      </trkpt>
      <trkpt lat="47.79281" lon="2.23745">
        <ele>113</ele>
        <time>2017-07-23T08:43:08.141Z</time>
      </trkpt>
      <trkpt lat="47.79282" lon="2.23725">
        <ele>113</ele>
        <time>2017-07-23T08:43:09.147Z</time>
      </trkpt>
      <trkpt lat="47.79282" lon="2.23725">
        <ele>113</ele>
        <time>2017-07-23T08:43:10.134Z</time>
      </trkpt>
      <trkpt lat="47.79284" lon="2.23706">
        <ele>113</ele>
        <time>2017-07-23T08:43:11.147Z</time>
      </trkpt>
      <trkpt lat="47.79284" lon="2.23706">
        <ele>113</ele>
        <time>2017-07-23T08:43:12.135Z</time>
      </trkpt>
      <trkpt lat="47.79285" lon="2.23687">
        <ele>113</ele>
        <time>2017-07-23T08:43:13.141Z</time>
      </trkpt>
      <trkpt lat="47.79285" lon="2.23677">
        <ele>113</ele>
        <time>2017-07-23T08:43:14.121Z</time>
      </trkpt>
      <trkpt lat="47.79286" lon="2.23667">
        <ele>113</ele>
        <time>2017-07-23T08:43:15.139Z</time>
      </trkpt>
      <trkpt lat="47.79286" lon="2.23667">
        <ele>113</ele>
        <time>2017-07-23T08:43:16.127Z</time>
      </trkpt>
      <trkpt lat="47.79287" lon="2.23647">
        <ele>113</ele>
        <time>2017-07-23T08:43:17.133Z</time>
      </trkpt>
      <trkpt lat="47.79287" lon="2.23647">
        <ele>113</ele>
        <time>2017-07-23T08:43:18.139Z</time>
      </trkpt>
      <trkpt lat="47.79289" lon="2.23627">
        <ele>113</ele>
        <time>2017-07-23T08:43:19.117Z</time>
      </trkpt>
      <trkpt lat="47.79289" lon="2.23616">
        <ele>113</ele>
        <time>2017-07-23T08:43:20.125Z</time>
      </trkpt>
      <trkpt lat="47.79289" lon="2.23616">
        <ele>113</ele>
        <time>2017-07-23T08:43:21.112Z</time>
      </trkpt>
      <trkpt lat="47.79291" lon="2.23595">
        <ele>113</ele>
        <time>2017-07-23T08:43:22.147Z</time>
      </trkpt>
      <trkpt lat="47.79292" lon="2.23585">
        <ele>113</ele>
        <time>2017-07-23T08:43:23.125Z</time>
      </trkpt>
      <trkpt lat="47.79292" lon="2.23585">
        <ele>113</ele>
        <time>2017-07-23T08:43:24.111Z</time>
      </trkpt>
      <trkpt lat="47.79293" lon="2.23564">
        <ele>113</ele>
        <time>2017-07-23T08:43:25.114Z</time>
      </trkpt>
      <trkpt lat="47.79294" lon="2.23554">
        <ele>113</ele>
        <time>2017-07-23T08:43:26.109Z</time>
      </trkpt>
      <trkpt lat="47.79294" lon="2.23554">
        <ele>113</ele>
        <time>2017-07-23T08:43:27.134Z</time>
      </trkpt>
      <trkpt lat="47.79295" lon="2.23533">
        <ele>113</ele>
        <time>2017-07-23T08:43:28.148Z</time>
      </trkpt>
      <trkpt lat="47.79296" lon="2.23523">
        <ele>113</ele>
        <time>2017-07-23T08:43:29.133Z</time>
      </trkpt>
      <trkpt lat="47.79296" lon="2.23523">
        <ele>113</ele>
        <time>2017-07-23T08:43:30.118Z</time>
      </trkpt>
      <trkpt lat="47.79297" lon="2.23503">
        <ele>113</ele>
        <time>2017-07-23T08:43:31.148Z</time>
      </trkpt>
      <trkpt lat="47.79297" lon="2.23503">
        <ele>113</ele>
        <time>2017-07-23T08:43:32.124Z</time>
      </trkpt>
      <trkpt lat="47.79299" lon="2.23482">
        <ele>113</ele>
        <time>2017-07-23T08:43:33.130Z</time>
      </trkpt>
      <trkpt lat="47.79299" lon="2.23472">
        <ele>114</ele>
        <time>2017-07-23T08:43:34.117Z</time>
      </trkpt>
      <trkpt lat="47.793" lon="2.23462">
        <ele>114</ele>
        <time>2017-07-23T08:43:35.126Z</time>
      </trkpt>
      <trkpt lat="47.793" lon="2.23462">
        <ele>114</ele>
        <time>2017-07-23T08:43:36.114Z</time>
      </trkpt>
      <trkpt lat="47.79302" lon="2.23442">
        <ele>113</ele>
        <time>2017-07-23T08:43:37.129Z</time>
      </trkpt>
      <trkpt lat="47.79302" lon="2.23442">
        <ele>113</ele>
        <time>2017-07-23T08:43:38.132Z</time>
      </trkpt>
      <trkpt lat="47.79303" lon="2.23422">
        <ele>113</ele>
        <time>2017-07-23T08:43:39.121Z</time>
      </trkpt>
      <trkpt lat="47.79304" lon="2.23411">
        <ele>114</ele>
        <time>2017-07-23T08:43:40.110Z</time>
      </trkpt>
      <trkpt lat="47.79305" lon="2.23401">
        <ele>114</ele>
        <time>2017-07-23T08:43:41.136Z</time>
      </trkpt>
      <trkpt lat="47.79305" lon="2.23401">
        <ele>114</ele>
        <time>2017-07-23T08:43:42.112Z</time>
      </trkpt>
      <trkpt lat="47.79305" lon="2.23381">
        <ele>114</ele>
        <time>2017-07-23T08:43:43.118Z</time>
      </trkpt>
      <trkpt lat="47.79305" lon="2.23381">
        <ele>114</ele>
        <time>2017-07-23T08:43:44.130Z</time>
      </trkpt>
      <trkpt lat="47.79307" lon="2.23361">
        <ele>113</ele>
        <time>2017-07-23T08:43:45.146Z</time>
      </trkpt>
      <trkpt lat="47.79307" lon="2.23361">
        <ele>113</ele>
        <time>2017-07-23T08:43:46.122Z</time>
      </trkpt>
      <trkpt lat="47.79308" lon="2.23341">
        <ele>113</ele>
        <time>2017-07-23T08:43:47.128Z</time>
      </trkpt>
      <trkpt lat="47.79308" lon="2.23341">
        <ele>113</ele>
        <time>2017-07-23T08:43:48.116Z</time>
      </trkpt>
      <trkpt lat="47.79309" lon="2.23322">
        <ele>113</ele>
        <time>2017-07-23T08:43:49.116Z</time>
      </trkpt>
      <trkpt lat="47.79309" lon="2.23322">
        <ele>113</ele>
        <time>2017-07-23T08:43:50.113Z</time>
      </trkpt>
      <trkpt lat="47.7931" lon="2.23303">
        <ele>113</ele>
        <time>2017-07-23T08:43:51.124Z</time>
      </trkpt>
      <trkpt lat="47.7931" lon="2.23303">
        <ele>113</ele>
        <time>2017-07-23T08:43:52.111Z</time>
      </trkpt>
      <trkpt lat="47.79312" lon="2.23284">
        <ele>113</ele>
        <time>2017-07-23T08:43:53.148Z</time>
      </trkpt>
      <trkpt lat="47.79312" lon="2.23284">
        <ele>113</ele>
        <time>2017-07-23T08:43:54.121Z</time>
      </trkpt>
      <trkpt lat="47.79312" lon="2.23267">
        <ele>113</ele>
        <time>2017-07-23T08:43:55.127Z</time>
      </trkpt>
      <trkpt lat="47.79313" lon="2.23259">
        <ele>113</ele>
        <time>2017-07-23T08:43:56.148Z</time>
      </trkpt>
      <trkpt lat="47.79313" lon="2.23259">
        <ele>113</ele>
        <time>2017-07-23T08:43:57.134Z</time>
      </trkpt>
      <trkpt lat="47.79313" lon="2.23242">
        <ele>113</ele>
        <time>2017-07-23T08:43:58.140Z</time>
      </trkpt>
      <trkpt lat="47.79314" lon="2.23233">
        <ele>113</ele>
        <time>2017-07-23T08:43:59.111Z</time>
      </trkpt>
      <trkpt lat="47.79314" lon="2.23233">
        <ele>113</ele>
        <time>2017-07-23T08:44:00.138Z</time>
      </trkpt>
      <trkpt lat="47.79315" lon="2.23215">
        <ele>113</ele>
        <time>2017-07-23T08:44:01.144Z</time>
      </trkpt>
      <trkpt lat="47.79316" lon="2.23206">
        <ele>113</ele>
        <time>2017-07-23T08:44:02.134Z</time>
      </trkpt>
      <trkpt lat="47.79316" lon="2.23206">
        <ele>113</ele>
        <time>2017-07-23T08:44:03.109Z</time>
      </trkpt>
      <trkpt lat="47.79317" lon="2.23187">
        <ele>113</ele>
        <time>2017-07-23T08:44:04.123Z</time>
      </trkpt>
      <trkpt lat="47.79317" lon="2.23187">
        <ele>113</ele>
        <time>2017-07-23T08:44:05.128Z</time>
      </trkpt>
      <trkpt lat="47.79318" lon="2.23167">
        <ele>113</ele>
        <time>2017-07-23T08:44:06.116Z</time>
      </trkpt>
      <trkpt lat="47.79318" lon="2.23167">
        <ele>113</ele>
        <time>2017-07-23T08:44:07.145Z</time>
      </trkpt>
      <trkpt lat="47.7932" lon="2.23148">
        <ele>113</ele>
        <time>2017-07-23T08:44:08.110Z</time>
      </trkpt>
      <trkpt lat="47.79321" lon="2.23138">
        <ele>113</ele>
        <time>2017-07-23T08:44:09.146Z</time>
      </trkpt>
      <trkpt lat="47.79321" lon="2.23129">
        <ele>113</ele>
        <time>2017-07-23T08:44:10.108Z</time>
      </trkpt>
      <trkpt lat="47.79321" lon="2.23129">
        <ele>113</ele>
        <time>2017-07-23T08:44:11.125Z</time>
      </trkpt>
      <trkpt lat="47.79323" lon="2.23111">
        <ele>113</ele>
        <time>2017-07-23T08:44:12.115Z</time>
      </trkpt>
      <trkpt lat="47.79323" lon="2.23111">
        <ele>113</ele>
        <time>2017-07-23T08:44:13.124Z</time>
      </trkpt>
      <trkpt lat="47.79324" lon="2.23091">
        <ele>113</ele>
        <time>2017-07-23T08:44:14.130Z</time>
      </trkpt>
      <trkpt lat="47.79325" lon="2.23082">
        <ele>113</ele>
        <time>2017-07-23T08:44:15.129Z</time>
      </trkpt>
      <trkpt lat="47.79325" lon="2.23082">
        <ele>113</ele>
        <time>2017-07-23T08:44:16.127Z</time>
      </trkpt>
      <trkpt lat="47.79326" lon="2.23063">
        <ele>112</ele>
        <time>2017-07-23T08:44:17.133Z</time>
      </trkpt>
      <trkpt lat="47.79326" lon="2.23063">
        <ele>112</ele>
        <time>2017-07-23T08:44:18.124Z</time>
      </trkpt>
      <trkpt lat="47.79328" lon="2.23044">
        <ele>112</ele>
        <time>2017-07-23T08:44:19.149Z</time>
      </trkpt>
      <trkpt lat="47.79328" lon="2.23044">
        <ele>112</ele>
        <time>2017-07-23T08:44:20.124Z</time>
      </trkpt>
      <trkpt lat="47.79329" lon="2.23026">
        <ele>112</ele>
        <time>2017-07-23T08:44:21.130Z</time>
      </trkpt>
      <trkpt lat="47.7933" lon="2.23017">
        <ele>112</ele>
        <time>2017-07-23T08:44:22.117Z</time>
      </trkpt>
      <trkpt lat="47.7933" lon="2.23017">
        <ele>112</ele>
        <time>2017-07-23T08:44:23.135Z</time>
      </trkpt>
      <trkpt lat="47.79331" lon="2.22998">
        <ele>112</ele>
        <time>2017-07-23T08:44:24.141Z</time>
      </trkpt>
      <trkpt lat="47.79331" lon="2.22998">
        <ele>112</ele>
        <time>2017-07-23T08:44:25.127Z</time>
      </trkpt>
      <trkpt lat="47.79332" lon="2.22979">
        <ele>112</ele>
        <time>2017-07-23T08:44:26.109Z</time>
      </trkpt>
      <trkpt lat="47.79332" lon="2.22979">
        <ele>112</ele>
        <time>2017-07-23T08:44:27.130Z</time>
      </trkpt>
      <trkpt lat="47.79333" lon="2.2296">
        <ele>112</ele>
        <time>2017-07-23T08:44:28.136Z</time>
      </trkpt>
      <trkpt lat="47.79333" lon="2.2296">
        <ele>112</ele>
        <time>2017-07-23T08:44:29.123Z</time>
      </trkpt>
      <trkpt lat="47.79334" lon="2.2294">
        <ele>112</ele>
        <time>2017-07-23T08:44:30.111Z</time>
      </trkpt>
      <trkpt lat="47.79335" lon="2.2293">
        <ele>112</ele>
        <time>2017-07-23T08:44:31.113Z</time>
      </trkpt>
      <trkpt lat="47.79335" lon="2.2293">
        <ele>112</ele>
        <time>2017-07-23T08:44:32.139Z</time>
      </trkpt>
      <trkpt lat="47.79338" lon="2.2291">
        <ele>112</ele>
        <time>2017-07-23T08:44:33.148Z</time>
      </trkpt>
      <trkpt lat="47.79338" lon="2.229">
        <ele>112</ele>
        <time>2017-07-23T08:44:34.126Z</time>
      </trkpt>
      <trkpt lat="47.79339" lon="2.22889">
        <ele>112</ele>
        <time>2017-07-23T08:44:35.146Z</time>
      </trkpt>
      <trkpt lat="47.79339" lon="2.22889">
        <ele>112</ele>
        <time>2017-07-23T08:44:36.108Z</time>
      </trkpt>
      <trkpt lat="47.79341" lon="2.22868">
        <ele>112</ele>
        <time>2017-07-23T08:44:37.115Z</time>
      </trkpt>
      <trkpt lat="47.79341" lon="2.22868">
        <ele>112</ele>
        <time>2017-07-23T08:44:38.129Z</time>
      </trkpt>
      <trkpt lat="47.79342" lon="2.22847">
        <ele>112</ele>
        <time>2017-07-23T08:44:39.140Z</time>
      </trkpt>
      <trkpt lat="47.79343" lon="2.22837">
        <ele>112</ele>
        <time>2017-07-23T08:44:40.148Z</time>
      </trkpt>
      <trkpt lat="47.79344" lon="2.22827">
        <ele>112</ele>
        <time>2017-07-23T08:44:41.113Z</time>
      </trkpt>
      <trkpt lat="47.79344" lon="2.22827">
        <ele>112</ele>
        <time>2017-07-23T08:44:42.140Z</time>
      </trkpt>
      <trkpt lat="47.79345" lon="2.22807">
        <ele>112</ele>
        <time>2017-07-23T08:44:43.148Z</time>
      </trkpt>
      <trkpt lat="47.79345" lon="2.22807">
        <ele>112</ele>
        <time>2017-07-23T08:44:44.133Z</time>
      </trkpt>
      <trkpt lat="47.79346" lon="2.22788">
        <ele>112</ele>
        <time>2017-07-23T08:44:45.139Z</time>
      </trkpt>
      <trkpt lat="47.79346" lon="2.22788">
        <ele>112</ele>
        <time>2017-07-23T08:44:46.130Z</time>
      </trkpt>
      <trkpt lat="47.79347" lon="2.22768">
        <ele>113</ele>
        <time>2017-07-23T08:44:47.148Z</time>
      </trkpt>
      <trkpt lat="47.79347" lon="2.22768">
        <ele>113</ele>
        <time>2017-07-23T08:44:48.115Z</time>
      </trkpt>
      <trkpt lat="47.79349" lon="2.22748">
        <ele>112</ele>
        <time>2017-07-23T08:44:49.122Z</time>
      </trkpt>
      <trkpt lat="47.79349" lon="2.22748">
        <ele>112</ele>
        <time>2017-07-23T08:44:50.109Z</time>
      </trkpt>
      <trkpt lat="47.7935" lon="2.22729">
        <ele>113</ele>
        <time>2017-07-23T08:44:51.148Z</time>
      </trkpt>
      <trkpt lat="47.7935" lon="2.22729">
        <ele>113</ele>
        <time>2017-07-23T08:44:52.133Z</time>
      </trkpt>
      <trkpt lat="47.79351" lon="2.2271">
        <ele>112</ele>
        <time>2017-07-23T08:44:53.139Z</time>
      </trkpt>
      <trkpt lat="47.79351" lon="2.2271">
        <ele>112</ele>
        <time>2017-07-23T08:44:54.132Z</time>
      </trkpt>
      <trkpt lat="47.79352" lon="2.22691">
        <ele>113</ele>
        <time>2017-07-23T08:44:55.128Z</time>
      </trkpt>
      <trkpt lat="47.79352" lon="2.22691">
        <ele>113</ele>
        <time>2017-07-23T08:44:56.124Z</time>
      </trkpt>
      <trkpt lat="47.79354" lon="2.22672">
        <ele>112</ele>
        <time>2017-07-23T08:44:57.131Z</time>
      </trkpt>
      <trkpt lat="47.79354" lon="2.22672">
        <ele>112</ele>
        <time>2017-07-23T08:44:58.130Z</time>
      </trkpt>
      <trkpt lat="47.79355" lon="2.22653">
        <ele>113</ele>
        <time>2017-07-23T08:44:59.126Z</time>
      </trkpt>
      <trkpt lat="47.79355" lon="2.22653">
        <ele>113</ele>
        <time>2017-07-23T08:45:00.116Z</time>
      </trkpt>
      <trkpt lat="47.79356" lon="2.22634">
        <ele>113</ele>
        <time>2017-07-23T08:45:01.124Z</time>
      </trkpt>
      <trkpt lat="47.79356" lon="2.22634">
        <ele>113</ele>
        <time>2017-07-23T08:45:02.112Z</time>
      </trkpt>
      <trkpt lat="47.79356" lon="2.22616">
        <ele>113</ele>
        <time>2017-07-23T08:45:03.126Z</time>
      </trkpt>
      <trkpt lat="47.79356" lon="2.22616">
        <ele>113</ele>
        <time>2017-07-23T08:45:04.145Z</time>
      </trkpt>
      <trkpt lat="47.79358" lon="2.22596">
        <ele>113</ele>
        <time>2017-07-23T08:45:05.137Z</time>
      </trkpt>
      <trkpt lat="47.79358" lon="2.22596">
        <ele>113</ele>
        <time>2017-07-23T08:45:06.144Z</time>
      </trkpt>
      <trkpt lat="47.79358" lon="2.22578">
        <ele>113</ele>
        <time>2017-07-23T08:45:07.110Z</time>
      </trkpt>
      <trkpt lat="47.79358" lon="2.22578">
        <ele>113</ele>
        <time>2017-07-23T08:45:08.142Z</time>
      </trkpt>
      <trkpt lat="47.79359" lon="2.2256">
        <ele>113</ele>
        <time>2017-07-23T08:45:09.148Z</time>
      </trkpt>
      <trkpt lat="47.79359" lon="2.22551">
        <ele>113</ele>
        <time>2017-07-23T08:45:10.144Z</time>
      </trkpt>
      <trkpt lat="47.7936" lon="2.22543">
        <ele>113</ele>
        <time>2017-07-23T08:45:11.127Z</time>
      </trkpt>
      <trkpt lat="47.7936" lon="2.22543">
        <ele>113</ele>
        <time>2017-07-23T08:45:12.113Z</time>
      </trkpt>
      <trkpt lat="47.7936" lon="2.22525">
        <ele>113</ele>
        <time>2017-07-23T08:45:13.120Z</time>
      </trkpt>
      <trkpt lat="47.79361" lon="2.22517">
        <ele>114</ele>
        <time>2017-07-23T08:45:14.147Z</time>
      </trkpt>
      <trkpt lat="47.79362" lon="2.22508">
        <ele>113</ele>
        <time>2017-07-23T08:45:15.125Z</time>
      </trkpt>
      <trkpt lat="47.79362" lon="2.22508">
        <ele>113</ele>
        <time>2017-07-23T08:45:16.144Z</time>
      </trkpt>
      <trkpt lat="47.79363" lon="2.2249">
        <ele>113</ele>
        <time>2017-07-23T08:45:17.109Z</time>
      </trkpt>
      <trkpt lat="47.79363" lon="2.2249">
        <ele>113</ele>
        <time>2017-07-23T08:45:18.123Z</time>
      </trkpt>
      <trkpt lat="47.79364" lon="2.22471">
        <ele>113</ele>
        <time>2017-07-23T08:45:19.141Z</time>
      </trkpt>
      <trkpt lat="47.79365" lon="2.22462">
        <ele>113</ele>
        <time>2017-07-23T08:45:20.127Z</time>
      </trkpt>
      <trkpt lat="47.79365" lon="2.22462">
        <ele>113</ele>
        <time>2017-07-23T08:45:21.134Z</time>
      </trkpt>
      <trkpt lat="47.79366" lon="2.22443">
        <ele>112</ele>
        <time>2017-07-23T08:45:22.140Z</time>
      </trkpt>
      <trkpt lat="47.79367" lon="2.22434">
        <ele>112</ele>
        <time>2017-07-23T08:45:23.148Z</time>
      </trkpt>
      <trkpt lat="47.79367" lon="2.22434">
        <ele>112</ele>
        <time>2017-07-23T08:45:24.113Z</time>
      </trkpt>
      <trkpt lat="47.79369" lon="2.22415">
        <ele>112</ele>
        <time>2017-07-23T08:45:25.121Z</time>
      </trkpt>
      <trkpt lat="47.79369" lon="2.22406">
        <ele>112</ele>
        <time>2017-07-23T08:45:26.142Z</time>
      </trkpt>
      <trkpt lat="47.79369" lon="2.22406">
        <ele>112</ele>
        <time>2017-07-23T08:45:27.143Z</time>
      </trkpt>
      <trkpt lat="47.79371" lon="2.22387">
        <ele>111</ele>
        <time>2017-07-23T08:45:28.109Z</time>
      </trkpt>
      <trkpt lat="47.79372" lon="2.22378">
        <ele>111</ele>
        <time>2017-07-23T08:45:29.132Z</time>
      </trkpt>
      <trkpt lat="47.79372" lon="2.22378">
        <ele>111</ele>
        <time>2017-07-23T08:45:30.123Z</time>
      </trkpt>
      <trkpt lat="47.79373" lon="2.22359">
        <ele>112</ele>
        <time>2017-07-23T08:45:31.132Z</time>
      </trkpt>
      <trkpt lat="47.79373" lon="2.22359">
        <ele>112</ele>
        <time>2017-07-23T08:45:32.131Z</time>
      </trkpt>
      <trkpt lat="47.79374" lon="2.2234">
        <ele>112</ele>
        <time>2017-07-23T08:45:33.147Z</time>
      </trkpt>
      <trkpt lat="47.79374" lon="2.22331">
        <ele>112</ele>
        <time>2017-07-23T08:45:34.122Z</time>
      </trkpt>
      <trkpt lat="47.79374" lon="2.22331">
        <ele>112</ele>
        <time>2017-07-23T08:45:35.145Z</time>
      </trkpt>
      <trkpt lat="47.79376" lon="2.22312">
        <ele>111</ele>
        <time>2017-07-23T08:45:36.119Z</time>
      </trkpt>
      <trkpt lat="47.79376" lon="2.22312">
        <ele>111</ele>
        <time>2017-07-23T08:45:37.146Z</time>
      </trkpt>
      <trkpt lat="47.79377" lon="2.22293">
        <ele>111</ele>
        <time>2017-07-23T08:45:38.128Z</time>
      </trkpt>
      <trkpt lat="47.79378" lon="2.22283">
        <ele>112</ele>
        <time>2017-07-23T08:45:39.123Z</time>
      </trkpt>
      <trkpt lat="47.79378" lon="2.22274">
        <ele>112</ele>
        <time>2017-07-23T08:45:40.148Z</time>
      </trkpt>
      <trkpt lat="47.79379" lon="2.22265">
        <ele>111</ele>
        <time>2017-07-23T08:45:41.127Z</time>
      </trkpt>
      <trkpt lat="47.79379" lon="2.22265">
        <ele>111</ele>
        <time>2017-07-23T08:45:42.114Z</time>
      </trkpt>
      <trkpt lat="47.7938" lon="2.22246">
        <ele>112</ele>
        <time>2017-07-23T08:45:43.135Z</time>
      </trkpt>
      <trkpt lat="47.79381" lon="2.22236">
        <ele>112</ele>
        <time>2017-07-23T08:45:44.112Z</time>
      </trkpt>
      <trkpt lat="47.79381" lon="2.22236">
        <ele>112</ele>
        <time>2017-07-23T08:45:45.127Z</time>
      </trkpt>
      <trkpt lat="47.79382" lon="2.22216">
        <ele>111</ele>
        <time>2017-07-23T08:45:46.148Z</time>
      </trkpt>
      <trkpt lat="47.79383" lon="2.22207">
        <ele>111</ele>
        <time>2017-07-23T08:45:47.134Z</time>
      </trkpt>
      <trkpt lat="47.79383" lon="2.22207">
        <ele>111</ele>
        <time>2017-07-23T08:45:48.123Z</time>
      </trkpt>
      <trkpt lat="47.79384" lon="2.22187">
        <ele>111</ele>
        <time>2017-07-23T08:45:49.113Z</time>
      </trkpt>
      <trkpt lat="47.79385" lon="2.22178">
        <ele>111</ele>
        <time>2017-07-23T08:45:50.123Z</time>
      </trkpt>
      <trkpt lat="47.79385" lon="2.22178">
        <ele>111</ele>
        <time>2017-07-23T08:45:51.140Z</time>
      </trkpt>
      <trkpt lat="47.79386" lon="2.22159">
        <ele>111</ele>
        <time>2017-07-23T08:45:52.116Z</time>
      </trkpt>
      <trkpt lat="47.79386" lon="2.2215">
        <ele>111</ele>
        <time>2017-07-23T08:45:53.147Z</time>
      </trkpt>
      <trkpt lat="47.79386" lon="2.2215">
        <ele>111</ele>
        <time>2017-07-23T08:45:54.134Z</time>
      </trkpt>
      <trkpt lat="47.79388" lon="2.22131">
        <ele>111</ele>
        <time>2017-07-23T08:45:55.147Z</time>
      </trkpt>
      <trkpt lat="47.79388" lon="2.22131">
        <ele>111</ele>
        <time>2017-07-23T08:45:56.134Z</time>
      </trkpt>
      <trkpt lat="47.79389" lon="2.22112">
        <ele>111</ele>
        <time>2017-07-23T08:45:57.142Z</time>
      </trkpt>
      <trkpt lat="47.79389" lon="2.22112">
        <ele>111</ele>
        <time>2017-07-23T08:45:58.123Z</time>
      </trkpt>
      <trkpt lat="47.7939" lon="2.22092">
        <ele>112</ele>
        <time>2017-07-23T08:45:59.116Z</time>
      </trkpt>
      <trkpt lat="47.7939" lon="2.22092">
        <ele>112</ele>
        <time>2017-07-23T08:46:00.139Z</time>
      </trkpt>
      <trkpt lat="47.79391" lon="2.22072">
        <ele>112</ele>
        <time>2017-07-23T08:46:01.145Z</time>
      </trkpt>
      <trkpt lat="47.79391" lon="2.22072">
        <ele>112</ele>
        <time>2017-07-23T08:46:02.130Z</time>
      </trkpt>
      <trkpt lat="47.79393" lon="2.22052">
        <ele>112</ele>
        <time>2017-07-23T08:46:03.113Z</time>
      </trkpt>
      <trkpt lat="47.79393" lon="2.22052">
        <ele>112</ele>
        <time>2017-07-23T08:46:04.113Z</time>
      </trkpt>
      <trkpt lat="47.79394" lon="2.22031">
        <ele>112</ele>
        <time>2017-07-23T08:46:05.122Z</time>
      </trkpt>
      <trkpt lat="47.79394" lon="2.22031">
        <ele>112</ele>
        <time>2017-07-23T08:46:06.131Z</time>
      </trkpt>
      <trkpt lat="47.79394" lon="2.2201">
        <ele>112</ele>
        <time>2017-07-23T08:46:07.148Z</time>
      </trkpt>
      <trkpt lat="47.79394" lon="2.2201">
        <ele>112</ele>
        <time>2017-07-23T08:46:08.133Z</time>
      </trkpt>
      <trkpt lat="47.79396" lon="2.2199">
        <ele>112</ele>
        <time>2017-07-23T08:46:09.140Z</time>
      </trkpt>
      <trkpt lat="47.79396" lon="2.2199">
        <ele>112</ele>
        <time>2017-07-23T08:46:10.128Z</time>
      </trkpt>
      <trkpt lat="47.794" lon="2.21971">
        <ele>113</ele>
        <time>2017-07-23T08:46:11.143Z</time>
      </trkpt>
      <trkpt lat="47.794" lon="2.21971">
        <ele>113</ele>
        <time>2017-07-23T08:46:12.123Z</time>
      </trkpt>
      <trkpt lat="47.79402" lon="2.21953">
        <ele>114</ele>
        <time>2017-07-23T08:46:13.129Z</time>
      </trkpt>
      <trkpt lat="47.79402" lon="2.21953">
        <ele>114</ele>
        <time>2017-07-23T08:46:14.130Z</time>
      </trkpt>
      <trkpt lat="47.79403" lon="2.21934">
        <ele>114</ele>
        <time>2017-07-23T08:46:15.114Z</time>
      </trkpt>
      <trkpt lat="47.79404" lon="2.21924">
        <ele>114</ele>
        <time>2017-07-23T08:46:16.134Z</time>
      </trkpt>
      <trkpt lat="47.79404" lon="2.21924">
        <ele>114</ele>
        <time>2017-07-23T08:46:17.123Z</time>
      </trkpt>
      <trkpt lat="47.79404" lon="2.21905">
        <ele>114</ele>
        <time>2017-07-23T08:46:18.148Z</time>
      </trkpt>
      <trkpt lat="47.79404" lon="2.21905">
        <ele>114</ele>
        <time>2017-07-23T08:46:19.140Z</time>
      </trkpt>
      <trkpt lat="47.79406" lon="2.21888">
        <ele>115</ele>
        <time>2017-07-23T08:46:20.146Z</time>
      </trkpt>
      <trkpt lat="47.79406" lon="2.21888">
        <ele>115</ele>
        <time>2017-07-23T08:46:21.127Z</time>
      </trkpt>
      <trkpt lat="47.79407" lon="2.21869">
        <ele>115</ele>
        <time>2017-07-23T08:46:22.148Z</time>
      </trkpt>
      <trkpt lat="47.79408" lon="2.2186">
        <ele>115</ele>
        <time>2017-07-23T08:46:23.125Z</time>
      </trkpt>
      <trkpt lat="47.79408" lon="2.2186">
        <ele>115</ele>
        <time>2017-07-23T08:46:24.124Z</time>
      </trkpt>
      <trkpt lat="47.79408" lon="2.21842">
        <ele>115</ele>
        <time>2017-07-23T08:46:25.111Z</time>
      </trkpt>
      <trkpt lat="47.79408" lon="2.21842">
        <ele>115</ele>
        <time>2017-07-23T08:46:26.116Z</time>
      </trkpt>
      <trkpt lat="47.79409" lon="2.21825">
        <ele>116</ele>
        <time>2017-07-23T08:46:27.125Z</time>
      </trkpt>
      <trkpt lat="47.79409" lon="2.21825">
        <ele>116</ele>
        <time>2017-07-23T08:46:28.145Z</time>
      </trkpt>
      <trkpt lat="47.7941" lon="2.21808">
        <ele>115</ele>
        <time>2017-07-23T08:46:29.115Z</time>
      </trkpt>
      <trkpt lat="47.7941" lon="2.21808">
        <ele>115</ele>
        <time>2017-07-23T08:46:30.111Z</time>
      </trkpt>
      <trkpt lat="47.79411" lon="2.21793">
        <ele>115</ele>
        <time>2017-07-23T08:46:31.117Z</time>
      </trkpt>
      <trkpt lat="47.79412" lon="2.21787">
        <ele>115</ele>
        <time>2017-07-23T08:46:32.131Z</time>
      </trkpt>
      <trkpt lat="47.79412" lon="2.21787">
        <ele>115</ele>
        <time>2017-07-23T08:46:33.123Z</time>
      </trkpt>
      <trkpt lat="47.7942" lon="2.21781">
        <ele>115</ele>
        <time>2017-07-23T08:46:34.129Z</time>
      </trkpt>
      <trkpt lat="47.7942" lon="2.21781">
        <ele>115</ele>
        <time>2017-07-23T08:46:35.129Z</time>
      </trkpt>
      <trkpt lat="47.79428" lon="2.21784">
        <ele>115</ele>
        <time>2017-07-23T08:46:36.109Z</time>
      </trkpt>
      <trkpt lat="47.79428" lon="2.21784">
        <ele>115</ele>
        <time>2017-07-23T08:46:37.112Z</time>
      </trkpt>
      <trkpt lat="47.79436" lon="2.21787">
        <ele>115</ele>
        <time>2017-07-23T08:46:38.134Z</time>
      </trkpt>
      <trkpt lat="47.79441" lon="2.21788">
        <ele>116</ele>
        <time>2017-07-23T08:46:39.127Z</time>
      </trkpt>
      <trkpt lat="47.79441" lon="2.21788">
        <ele>116</ele>
        <time>2017-07-23T08:46:40.145Z</time>
      </trkpt>
      <trkpt lat="47.79449" lon="2.21791">
        <ele>116</ele>
        <time>2017-07-23T08:46:41.137Z</time>
      </trkpt>
      <trkpt lat="47.79453" lon="2.21793">
        <ele>116</ele>
        <time>2017-07-23T08:46:42.143Z</time>
      </trkpt>
      <trkpt lat="47.79453" lon="2.21793">
        <ele>116</ele>
        <time>2017-07-23T08:46:43.131Z</time>
      </trkpt>
      <trkpt lat="47.79461" lon="2.21795">
        <ele>115</ele>
        <time>2017-07-23T08:46:44.111Z</time>
      </trkpt>
      <trkpt lat="47.79461" lon="2.21795">
        <ele>115</ele>
        <time>2017-07-23T08:46:45.113Z</time>
      </trkpt>
      <trkpt lat="47.7947" lon="2.21797">
        <ele>115</ele>
        <time>2017-07-23T08:46:46.123Z</time>
      </trkpt>
      <trkpt lat="47.79474" lon="2.21799">
        <ele>115</ele>
        <time>2017-07-23T08:46:47.115Z</time>
      </trkpt>
      <trkpt lat="47.79474" lon="2.21799">
        <ele>115</ele>
        <time>2017-07-23T08:46:48.145Z</time>
      </trkpt>
      <trkpt lat="47.79483" lon="2.21802">
        <ele>114</ele>
        <time>2017-07-23T08:46:49.114Z</time>
      </trkpt>
      <trkpt lat="47.79488" lon="2.21803">
        <ele>114</ele>
        <time>2017-07-23T08:46:50.147Z</time>
      </trkpt>
      <trkpt lat="47.79488" lon="2.21803">
        <ele>114</ele>
        <time>2017-07-23T08:46:51.111Z</time>
      </trkpt>
      <trkpt lat="47.79498" lon="2.21807">
        <ele>114</ele>
        <time>2017-07-23T08:46:52.124Z</time>
      </trkpt>
      <trkpt lat="47.79504" lon="2.21809">
        <ele>114</ele>
        <time>2017-07-23T08:46:53.147Z</time>
      </trkpt>
      <trkpt lat="47.79504" lon="2.21809">
        <ele>114</ele>
        <time>2017-07-23T08:46:54.108Z</time>
      </trkpt>
      <trkpt lat="47.79514" lon="2.21813">
        <ele>114</ele>
        <time>2017-07-23T08:46:55.114Z</time>
      </trkpt>
      <trkpt lat="47.79514" lon="2.21813">
        <ele>114</ele>
        <time>2017-07-23T08:46:56.123Z</time>
      </trkpt>
      <trkpt lat="47.79523" lon="2.21816">
        <ele>114</ele>
        <time>2017-07-23T08:46:57.132Z</time>
      </trkpt>
      <trkpt lat="47.79523" lon="2.21816">
        <ele>114</ele>
        <time>2017-07-23T08:46:58.137Z</time>
      </trkpt>
      <trkpt lat="47.7953" lon="2.21817">
        <ele>113</ele>
        <time>2017-07-23T08:46:59.117Z</time>
      </trkpt>
      <trkpt lat="47.7953" lon="2.21817">
        <ele>113</ele>
        <time>2017-07-23T08:47:00.132Z</time>
      </trkpt>
      <trkpt lat="47.79532" lon="2.21813">
        <ele>115</ele>
        <time>2017-07-23T08:47:01.138Z</time>
      </trkpt>
      <trkpt lat="47.79532" lon="2.21814">
        <ele>115</ele>
        <time>2017-07-23T08:47:02.130Z</time>
      </trkpt>
      <trkpt lat="47.79532" lon="2.21814">
        <ele>115</ele>
        <time>2017-07-23T08:47:03.143Z</time>
      </trkpt>
      <trkpt lat="47.79532" lon="2.21814">
        <ele>114</ele>
        <time>2017-07-23T08:47:04.109Z</time>
      </trkpt>
      <trkpt lat="47.79532" lon="2.21814">
        <ele>114</ele>
        <time>2017-07-23T08:47:05.122Z</time>
      </trkpt>
      <trkpt lat="47.79532" lon="2.21814">
        <ele>114</ele>
        <time>2017-07-23T08:47:06.127Z</time>
      </trkpt>
      <trkpt lat="47.79537" lon="2.21811">
        <ele>109</ele>
        <time>2017-07-23T08:47:07.127Z</time>
      </trkpt>
      <trkpt lat="47.79537" lon="2.21808">
        <ele>109</ele>
        <time>2017-07-23T08:47:08.119Z</time>
      </trkpt>
      <trkpt lat="47.79538" lon="2.21806">
        <ele>109</ele>
        <time>2017-07-23T08:47:09.116Z</time>
      </trkpt>
      <trkpt lat="47.79538" lon="2.21806">
        <ele>109</ele>
        <time>2017-07-23T08:47:10.121Z</time>
      </trkpt>
      <trkpt lat="47.79538" lon="2.21801">
        <ele>109</ele>
        <time>2017-07-23T08:47:11.128Z</time>
      </trkpt>
      <trkpt lat="47.79539" lon="2.21798">
        <ele>109</ele>
        <time>2017-07-23T08:47:12.143Z</time>
      </trkpt>
      <trkpt lat="47.7954" lon="2.21794">
        <ele>109</ele>
        <time>2017-07-23T08:47:13.112Z</time>
      </trkpt>
      <trkpt lat="47.7954" lon="2.21794">
        <ele>109</ele>
        <time>2017-07-23T08:47:14.117Z</time>
      </trkpt>
      <trkpt lat="47.79543" lon="2.21783">
        <ele>109</ele>
        <time>2017-07-23T08:47:15.133Z</time>
      </trkpt>
      <trkpt lat="47.79543" lon="2.21783">
        <ele>109</ele>
        <time>2017-07-23T08:47:16.139Z</time>
      </trkpt>
      <trkpt lat="47.79547" lon="2.21773">
        <ele>109</ele>
        <time>2017-07-23T08:47:17.116Z</time>
      </trkpt>
      <trkpt lat="47.79547" lon="2.21773">
        <ele>109</ele>
        <time>2017-07-23T08:47:18.121Z</time>
      </trkpt>
      <trkpt lat="47.7955" lon="2.21762">
        <ele>110</ele>
        <time>2017-07-23T08:47:19.110Z</time>
      </trkpt>
      <trkpt lat="47.7955" lon="2.21762">
        <ele>110</ele>
        <time>2017-07-23T08:47:20.115Z</time>
      </trkpt>
      <trkpt lat="47.79553" lon="2.2175">
        <ele>110</ele>
        <time>2017-07-23T08:47:21.122Z</time>
      </trkpt>
      <trkpt lat="47.79555" lon="2.21744">
        <ele>110</ele>
        <time>2017-07-23T08:47:22.145Z</time>
      </trkpt>
      <trkpt lat="47.79556" lon="2.21738">
        <ele>110</ele>
        <time>2017-07-23T08:47:23.112Z</time>
      </trkpt>
      <trkpt lat="47.79556" lon="2.21738">
        <ele>110</ele>
        <time>2017-07-23T08:47:24.117Z</time>
      </trkpt>
      <trkpt lat="47.79559" lon="2.21725">
        <ele>111</ele>
        <time>2017-07-23T08:47:25.127Z</time>
      </trkpt>
      <trkpt lat="47.79559" lon="2.21725">
        <ele>111</ele>
        <time>2017-07-23T08:47:26.133Z</time>
      </trkpt>
      <trkpt lat="47.79563" lon="2.21713">
        <ele>111</ele>
        <time>2017-07-23T08:47:27.118Z</time>
      </trkpt>
      <trkpt lat="47.79566" lon="2.21708">
        <ele>111</ele>
        <time>2017-07-23T08:47:28.118Z</time>
      </trkpt>
      <trkpt lat="47.79566" lon="2.21708">
        <ele>111</ele>
        <time>2017-07-23T08:47:29.123Z</time>
      </trkpt>
      <trkpt lat="47.79569" lon="2.21698">
        <ele>111</ele>
        <time>2017-07-23T08:47:30.132Z</time>
      </trkpt>
      <trkpt lat="47.79569" lon="2.21698">
        <ele>111</ele>
        <time>2017-07-23T08:47:31.137Z</time>
      </trkpt>
      <trkpt lat="47.79573" lon="2.21689">
        <ele>112</ele>
        <time>2017-07-23T08:47:32.109Z</time>
      </trkpt>
      <trkpt lat="47.79573" lon="2.21689">
        <ele>112</ele>
        <time>2017-07-23T08:47:33.119Z</time>
      </trkpt>
      <trkpt lat="47.79578" lon="2.21679">
        <ele>112</ele>
        <time>2017-07-23T08:47:34.126Z</time>
      </trkpt>
      <trkpt lat="47.7958" lon="2.21672">
        <ele>112</ele>
        <time>2017-07-23T08:47:35.145Z</time>
      </trkpt>
      <trkpt lat="47.7958" lon="2.21672">
        <ele>112</ele>
        <time>2017-07-23T08:47:36.112Z</time>
      </trkpt>
      <trkpt lat="47.79582" lon="2.21659">
        <ele>113</ele>
        <time>2017-07-23T08:47:37.124Z</time>
      </trkpt>
      <trkpt lat="47.79582" lon="2.21659">
        <ele>113</ele>
        <time>2017-07-23T08:47:38.115Z</time>
      </trkpt>
      <trkpt lat="47.79584" lon="2.21642">
        <ele>113</ele>
        <time>2017-07-23T08:47:39.130Z</time>
      </trkpt>
      <trkpt lat="47.79584" lon="2.21642">
        <ele>113</ele>
        <time>2017-07-23T08:47:40.136Z</time>
      </trkpt>
      <trkpt lat="47.79588" lon="2.2162">
        <ele>113</ele>
        <time>2017-07-23T08:47:41.143Z</time>
      </trkpt>
      <trkpt lat="47.79588" lon="2.2162">
        <ele>113</ele>
        <time>2017-07-23T08:47:42.108Z</time>
      </trkpt>
      <trkpt lat="47.79592" lon="2.21604">
        <ele>114</ele>
        <time>2017-07-23T08:47:43.144Z</time>
      </trkpt>
      <trkpt lat="47.79592" lon="2.21604">
        <ele>114</ele>
        <time>2017-07-23T08:47:44.109Z</time>
      </trkpt>
      <trkpt lat="47.79595" lon="2.21592">
        <ele>114</ele>
        <time>2017-07-23T08:47:45.136Z</time>
      </trkpt>
      <trkpt lat="47.79595" lon="2.21592">
        <ele>114</ele>
        <time>2017-07-23T08:47:46.117Z</time>
      </trkpt>
      <trkpt lat="47.796" lon="2.21578">
        <ele>114</ele>
        <time>2017-07-23T08:47:47.129Z</time>
      </trkpt>
      <trkpt lat="47.796" lon="2.21578">
        <ele>114</ele>
        <time>2017-07-23T08:47:48.134Z</time>
      </trkpt>
      <trkpt lat="47.79608" lon="2.21563">
        <ele>114</ele>
        <time>2017-07-23T08:47:49.144Z</time>
      </trkpt>
      <trkpt lat="47.7961" lon="2.21554">
        <ele>114</ele>
        <time>2017-07-23T08:47:50.131Z</time>
      </trkpt>
      <trkpt lat="47.7961" lon="2.21554">
        <ele>114</ele>
        <time>2017-07-23T08:47:51.136Z</time>
      </trkpt>
      <trkpt lat="47.79617" lon="2.21536">
        <ele>115</ele>
        <time>2017-07-23T08:47:52.126Z</time>
      </trkpt>
      <trkpt lat="47.79617" lon="2.21536">
        <ele>115</ele>
        <time>2017-07-23T08:47:53.131Z</time>
      </trkpt>
      <trkpt lat="47.79623" lon="2.21519">
        <ele>115</ele>
        <time>2017-07-23T08:47:54.138Z</time>
      </trkpt>
      <trkpt lat="47.79623" lon="2.21519">
        <ele>115</ele>
        <time>2017-07-23T08:47:55.146Z</time>
      </trkpt>
      <trkpt lat="47.7963" lon="2.21505">
        <ele>116</ele>
        <time>2017-07-23T08:47:56.132Z</time>
      </trkpt>
      <trkpt lat="47.79634" lon="2.21498">
        <ele>116</ele>
        <time>2017-07-23T08:47:57.139Z</time>
      </trkpt>
      <trkpt lat="47.79634" lon="2.21498">
        <ele>116</ele>
        <time>2017-07-23T08:47:58.145Z</time>
      </trkpt>
      <trkpt lat="47.79639" lon="2.21483">
        <ele>115</ele>
        <time>2017-07-23T08:47:59.116Z</time>
      </trkpt>
      <trkpt lat="47.79639" lon="2.21483">
        <ele>115</ele>
        <time>2017-07-23T08:48:00.121Z</time>
      </trkpt>
      <trkpt lat="47.79645" lon="2.21467">
        <ele>116</ele>
        <time>2017-07-23T08:48:01.128Z</time>
      </trkpt>
      <trkpt lat="47.79648" lon="2.2146">
        <ele>116</ele>
        <time>2017-07-23T08:48:02.143Z</time>
      </trkpt>
      <trkpt lat="47.79648" lon="2.2146">
        <ele>116</ele>
        <time>2017-07-23T08:48:03.109Z</time>
      </trkpt>
      <trkpt lat="47.79654" lon="2.21443">
        <ele>116</ele>
        <time>2017-07-23T08:48:04.120Z</time>
      </trkpt>
      <trkpt lat="47.79657" lon="2.21434">
        <ele>116</ele>
        <time>2017-07-23T08:48:05.128Z</time>
      </trkpt>
      <trkpt lat="47.79657" lon="2.21434">
        <ele>116</ele>
        <time>2017-07-23T08:48:06.134Z</time>
      </trkpt>
      <trkpt lat="47.79665" lon="2.21418">
        <ele>116</ele>
        <time>2017-07-23T08:48:07.108Z</time>
      </trkpt>
      <trkpt lat="47.79665" lon="2.21418">
        <ele>116</ele>
        <time>2017-07-23T08:48:08.131Z</time>
      </trkpt>
      <trkpt lat="47.79674" lon="2.21399">
        <ele>116</ele>
        <time>2017-07-23T08:48:09.139Z</time>
      </trkpt>
      <trkpt lat="47.79674" lon="2.21399">
        <ele>116</ele>
        <time>2017-07-23T08:48:10.144Z</time>
      </trkpt>
      <trkpt lat="47.79682" lon="2.21383">
        <ele>117</ele>
        <time>2017-07-23T08:48:11.114Z</time>
      </trkpt>
      <trkpt lat="47.79682" lon="2.21383">
        <ele>117</ele>
        <time>2017-07-23T08:48:12.118Z</time>
      </trkpt>
      <trkpt lat="47.7969" lon="2.21363">
        <ele>117</ele>
        <time>2017-07-23T08:48:13.122Z</time>
      </trkpt>
      <trkpt lat="47.7969" lon="2.21363">
        <ele>117</ele>
        <time>2017-07-23T08:48:14.127Z</time>
      </trkpt>
      <trkpt lat="47.79696" lon="2.21343">
        <ele>117</ele>
        <time>2017-07-23T08:48:15.133Z</time>
      </trkpt>
      <trkpt lat="47.797" lon="2.21331">
        <ele>117</ele>
        <time>2017-07-23T08:48:16.119Z</time>
      </trkpt>
      <trkpt lat="47.797" lon="2.21331">
        <ele>117</ele>
        <time>2017-07-23T08:48:17.124Z</time>
      </trkpt>
      <trkpt lat="47.79704" lon="2.21311">
        <ele>116</ele>
        <time>2017-07-23T08:48:18.116Z</time>
      </trkpt>
      <trkpt lat="47.79705" lon="2.21301">
        <ele>116</ele>
        <time>2017-07-23T08:48:19.115Z</time>
      </trkpt>
      <trkpt lat="47.79705" lon="2.21301">
        <ele>116</ele>
        <time>2017-07-23T08:48:20.121Z</time>
      </trkpt>
      <trkpt lat="47.79706" lon="2.2128">
        <ele>116</ele>
        <time>2017-07-23T08:48:21.128Z</time>
      </trkpt>
      <trkpt lat="47.79706" lon="2.2128">
        <ele>116</ele>
        <time>2017-07-23T08:48:22.132Z</time>
      </trkpt>
      <trkpt lat="47.79706" lon="2.21261">
        <ele>116</ele>
        <time>2017-07-23T08:48:23.129Z</time>
      </trkpt>
      <trkpt lat="47.79706" lon="2.21261">
        <ele>116</ele>
        <time>2017-07-23T08:48:24.134Z</time>
      </trkpt>
      <trkpt lat="47.79706" lon="2.21243">
        <ele>116</ele>
        <time>2017-07-23T08:48:25.141Z</time>
      </trkpt>
      <trkpt lat="47.79706" lon="2.21243">
        <ele>116</ele>
        <time>2017-07-23T08:48:26.117Z</time>
      </trkpt>
      <trkpt lat="47.79703" lon="2.21226">
        <ele>116</ele>
        <time>2017-07-23T08:48:27.125Z</time>
      </trkpt>
      <trkpt lat="47.79703" lon="2.21226">
        <ele>116</ele>
        <time>2017-07-23T08:48:28.114Z</time>
      </trkpt>
      <trkpt lat="47.79699" lon="2.21208">
        <ele>116</ele>
        <time>2017-07-23T08:48:29.121Z</time>
      </trkpt>
      <trkpt lat="47.79699" lon="2.21199">
        <ele>116</ele>
        <time>2017-07-23T08:48:30.109Z</time>
      </trkpt>
      <trkpt lat="47.79699" lon="2.21199">
        <ele>116</ele>
        <time>2017-07-23T08:48:31.114Z</time>
      </trkpt>
      <trkpt lat="47.79698" lon="2.21181">
        <ele>116</ele>
        <time>2017-07-23T08:48:32.122Z</time>
      </trkpt>
      <trkpt lat="47.79698" lon="2.21181">
        <ele>116</ele>
        <time>2017-07-23T08:48:33.127Z</time>
      </trkpt>
      <trkpt lat="47.79698" lon="2.21162">
        <ele>115</ele>
        <time>2017-07-23T08:48:34.112Z</time>
      </trkpt>
      <trkpt lat="47.79698" lon="2.21152">
        <ele>115</ele>
        <time>2017-07-23T08:48:35.118Z</time>
      </trkpt>
      <trkpt lat="47.79698" lon="2.21152">
        <ele>115</ele>
        <time>2017-07-23T08:48:36.124Z</time>
      </trkpt>
      <trkpt lat="47.79697" lon="2.21131">
        <ele>114</ele>
        <time>2017-07-23T08:48:37.139Z</time>
      </trkpt>
      <trkpt lat="47.79697" lon="2.21131">
        <ele>114</ele>
        <time>2017-07-23T08:48:38.123Z</time>
      </trkpt>
      <trkpt lat="47.79698" lon="2.21109">
        <ele>114</ele>
        <time>2017-07-23T08:48:39.118Z</time>
      </trkpt>
      <trkpt lat="47.79695" lon="2.21097">
        <ele>114</ele>
        <time>2017-07-23T08:48:40.124Z</time>
      </trkpt>
      <trkpt lat="47.79693" lon="2.21086">
        <ele>114</ele>
        <time>2017-07-23T08:48:41.130Z</time>
      </trkpt>
      <trkpt lat="47.79693" lon="2.21086">
        <ele>114</ele>
        <time>2017-07-23T08:48:42.135Z</time>
      </trkpt>
      <trkpt lat="47.79692" lon="2.21066">
        <ele>114</ele>
        <time>2017-07-23T08:48:43.109Z</time>
      </trkpt>
      <trkpt lat="47.79692" lon="2.21057">
        <ele>115</ele>
        <time>2017-07-23T08:48:44.116Z</time>
      </trkpt>
      <trkpt lat="47.79692" lon="2.21057">
        <ele>115</ele>
        <time>2017-07-23T08:48:45.122Z</time>
      </trkpt>
      <trkpt lat="47.79693" lon="2.21037">
        <ele>115</ele>
        <time>2017-07-23T08:48:46.119Z</time>
      </trkpt>
      <trkpt lat="47.79694" lon="2.21027">
        <ele>115</ele>
        <time>2017-07-23T08:48:47.125Z</time>
      </trkpt>
      <trkpt lat="47.79694" lon="2.21027">
        <ele>115</ele>
        <time>2017-07-23T08:48:48.130Z</time>
      </trkpt>
      <trkpt lat="47.79698" lon="2.21005">
        <ele>115</ele>
        <time>2017-07-23T08:48:49.119Z</time>
      </trkpt>
      <trkpt lat="47.79698" lon="2.21005">
        <ele>115</ele>
        <time>2017-07-23T08:48:50.124Z</time>
      </trkpt>
      <trkpt lat="47.79699" lon="2.20985">
        <ele>115</ele>
        <time>2017-07-23T08:48:51.135Z</time>
      </trkpt>
      <trkpt lat="47.797" lon="2.20975">
        <ele>116</ele>
        <time>2017-07-23T08:48:52.110Z</time>
      </trkpt>
      <trkpt lat="47.797" lon="2.20975">
        <ele>116</ele>
        <time>2017-07-23T08:48:53.115Z</time>
      </trkpt>
      <trkpt lat="47.79698" lon="2.20955">
        <ele>116</ele>
        <time>2017-07-23T08:48:54.121Z</time>
      </trkpt>
      <trkpt lat="47.79698" lon="2.20944">
        <ele>116</ele>
        <time>2017-07-23T08:48:55.117Z</time>
      </trkpt>
      <trkpt lat="47.79698" lon="2.20944">
        <ele>116</ele>
        <time>2017-07-23T08:48:56.122Z</time>
      </trkpt>
      <trkpt lat="47.79698" lon="2.20924">
        <ele>116</ele>
        <time>2017-07-23T08:48:57.145Z</time>
      </trkpt>
      <trkpt lat="47.79698" lon="2.20924">
        <ele>116</ele>
        <time>2017-07-23T08:48:58.140Z</time>
      </trkpt>
      <trkpt lat="47.79698" lon="2.20905">
        <ele>116</ele>
        <time>2017-07-23T08:48:59.134Z</time>
      </trkpt>
      <trkpt lat="47.79698" lon="2.20905">
        <ele>116</ele>
        <time>2017-07-23T08:49:00.139Z</time>
      </trkpt>
      <trkpt lat="47.79701" lon="2.20885">
        <ele>117</ele>
        <time>2017-07-23T08:49:01.146Z</time>
      </trkpt>
      <trkpt lat="47.79701" lon="2.20885">
        <ele>117</ele>
        <time>2017-07-23T08:49:02.137Z</time>
      </trkpt>
      <trkpt lat="47.797" lon="2.20862">
        <ele>117</ele>
        <time>2017-07-23T08:49:03.109Z</time>
      </trkpt>
      <trkpt lat="47.797" lon="2.20862">
        <ele>117</ele>
        <time>2017-07-23T08:49:04.114Z</time>
      </trkpt>
      <trkpt lat="47.79697" lon="2.2084">
        <ele>116</ele>
        <time>2017-07-23T08:49:05.122Z</time>
      </trkpt>
      <trkpt lat="47.79697" lon="2.2084">
        <ele>116</ele>
        <time>2017-07-23T08:49:06.128Z</time>
      </trkpt>
      <trkpt lat="47.79694" lon="2.20819">
        <ele>116</ele>
        <time>2017-07-23T08:49:07.144Z</time>
      </trkpt>
      <trkpt lat="47.79694" lon="2.20819">
        <ele>116</ele>
        <time>2017-07-23T08:49:08.111Z</time>
      </trkpt>
      <trkpt lat="47.79691" lon="2.20799">
        <ele>116</ele>
        <time>2017-07-23T08:49:09.138Z</time>
      </trkpt>
      <trkpt lat="47.79689" lon="2.20789">
        <ele>116</ele>
        <time>2017-07-23T08:49:10.140Z</time>
      </trkpt>
      <trkpt lat="47.79689" lon="2.20789">
        <ele>116</ele>
        <time>2017-07-23T08:49:11.146Z</time>
      </trkpt>
      <trkpt lat="47.79687" lon="2.20768">
        <ele>115</ele>
        <time>2017-07-23T08:49:12.128Z</time>
      </trkpt>
      <trkpt lat="47.79684" lon="2.20758">
        <ele>115</ele>
        <time>2017-07-23T08:49:13.117Z</time>
      </trkpt>
      <trkpt lat="47.79684" lon="2.20758">
        <ele>115</ele>
        <time>2017-07-23T08:49:14.123Z</time>
      </trkpt>
      <trkpt lat="47.79678" lon="2.2074">
        <ele>115</ele>
        <time>2017-07-23T08:49:15.129Z</time>
      </trkpt>
      <trkpt lat="47.79678" lon="2.2074">
        <ele>115</ele>
        <time>2017-07-23T08:49:16.135Z</time>
      </trkpt>
      <trkpt lat="47.79673" lon="2.20726">
        <ele>113</ele>
        <time>2017-07-23T08:49:17.116Z</time>
      </trkpt>
      <trkpt lat="47.79673" lon="2.20726">
        <ele>113</ele>
        <time>2017-07-23T08:49:18.122Z</time>
      </trkpt>
      <trkpt lat="47.79667" lon="2.20712">
        <ele>112</ele>
        <time>2017-07-23T08:49:19.108Z</time>
      </trkpt>
      <trkpt lat="47.79667" lon="2.20712">
        <ele>112</ele>
        <time>2017-07-23T08:49:20.130Z</time>
      </trkpt>
      <trkpt lat="47.79666" lon="2.20694">
        <ele>112</ele>
        <time>2017-07-23T08:49:21.143Z</time>
      </trkpt>
      <trkpt lat="47.79666" lon="2.20694">
        <ele>112</ele>
        <time>2017-07-23T08:49:22.112Z</time>
      </trkpt>
      <trkpt lat="47.79667" lon="2.20674">
        <ele>111</ele>
        <time>2017-07-23T08:49:23.126Z</time>
      </trkpt>
      <trkpt lat="47.79667" lon="2.20674">
        <ele>111</ele>
        <time>2017-07-23T08:49:24.117Z</time>
      </trkpt>
      <trkpt lat="47.79666" lon="2.20654">
        <ele>111</ele>
        <time>2017-07-23T08:49:25.121Z</time>
      </trkpt>
      <trkpt lat="47.79666" lon="2.20654">
        <ele>111</ele>
        <time>2017-07-23T08:49:26.126Z</time>
      </trkpt>
      <trkpt lat="47.79664" lon="2.20635">
        <ele>111</ele>
        <time>2017-07-23T08:49:27.133Z</time>
      </trkpt>
      <trkpt lat="47.79664" lon="2.20635">
        <ele>111</ele>
        <time>2017-07-23T08:49:28.141Z</time>
      </trkpt>
      <trkpt lat="47.79664" lon="2.20616">
        <ele>111</ele>
        <time>2017-07-23T08:49:29.109Z</time>
      </trkpt>
      <trkpt lat="47.79664" lon="2.20616">
        <ele>111</ele>
        <time>2017-07-23T08:49:30.114Z</time>
      </trkpt>
      <trkpt lat="47.79663" lon="2.20598">
        <ele>111</ele>
        <time>2017-07-23T08:49:31.122Z</time>
      </trkpt>
      <trkpt lat="47.79663" lon="2.20598">
        <ele>111</ele>
        <time>2017-07-23T08:49:32.117Z</time>
      </trkpt>
      <trkpt lat="47.79661" lon="2.2058">
        <ele>112</ele>
        <time>2017-07-23T08:49:33.118Z</time>
      </trkpt>
      <trkpt lat="47.7966" lon="2.20571">
        <ele>112</ele>
        <time>2017-07-23T08:49:34.135Z</time>
      </trkpt>
      <trkpt lat="47.79661" lon="2.20562">
        <ele>112</ele>
        <time>2017-07-23T08:49:35.143Z</time>
      </trkpt>
      <trkpt lat="47.79661" lon="2.20562">
        <ele>112</ele>
        <time>2017-07-23T08:49:36.121Z</time>
      </trkpt>
      <trkpt lat="47.7966" lon="2.20545">
        <ele>112</ele>
        <time>2017-07-23T08:49:37.110Z</time>
      </trkpt>
      <trkpt lat="47.7966" lon="2.20545">
        <ele>112</ele>
        <time>2017-07-23T08:49:38.126Z</time>
      </trkpt>
      <trkpt lat="47.79658" lon="2.20529">
        <ele>112</ele>
        <time>2017-07-23T08:49:39.137Z</time>
      </trkpt>
      <trkpt lat="47.79658" lon="2.20529">
        <ele>112</ele>
        <time>2017-07-23T08:49:40.142Z</time>
      </trkpt>
      <trkpt lat="47.79655" lon="2.20514">
        <ele>113</ele>
        <time>2017-07-23T08:49:41.109Z</time>
      </trkpt>
      <trkpt lat="47.79657" lon="2.20506">
        <ele>113</ele>
        <time>2017-07-23T08:49:42.145Z</time>
      </trkpt>
      <trkpt lat="47.79657" lon="2.20496">
        <ele>114</ele>
        <time>2017-07-23T08:49:43.116Z</time>
      </trkpt>
      <trkpt lat="47.79657" lon="2.20496">
        <ele>114</ele>
        <time>2017-07-23T08:49:44.121Z</time>
      </trkpt>
      <trkpt lat="47.79649" lon="2.20476">
        <ele>113</ele>
        <time>2017-07-23T08:49:45.138Z</time>
      </trkpt>
      <trkpt lat="47.79649" lon="2.20476">
        <ele>113</ele>
        <time>2017-07-23T08:49:46.132Z</time>
      </trkpt>
      <trkpt lat="47.79643" lon="2.20457">
        <ele>113</ele>
        <time>2017-07-23T08:49:47.124Z</time>
      </trkpt>
      <trkpt lat="47.79643" lon="2.20457">
        <ele>113</ele>
        <time>2017-07-23T08:49:48.129Z</time>
      </trkpt>
      <trkpt lat="47.79636" lon="2.2044">
        <ele>113</ele>
        <time>2017-07-23T08:49:49.136Z</time>
      </trkpt>
      <trkpt lat="47.79636" lon="2.2044">
        <ele>113</ele>
        <time>2017-07-23T08:49:50.147Z</time>
      </trkpt>
      <trkpt lat="47.79631" lon="2.20424">
        <ele>113</ele>
        <time>2017-07-23T08:49:51.136Z</time>
      </trkpt>
      <trkpt lat="47.79631" lon="2.20424">
        <ele>113</ele>
        <time>2017-07-23T08:49:52.141Z</time>
      </trkpt>
      <trkpt lat="47.79625" lon="2.20408">
        <ele>113</ele>
        <time>2017-07-23T08:49:53.111Z</time>
      </trkpt>
      <trkpt lat="47.79623" lon="2.20399">
        <ele>112</ele>
        <time>2017-07-23T08:49:54.147Z</time>
      </trkpt>
      <trkpt lat="47.79621" lon="2.20391">
        <ele>112</ele>
        <time>2017-07-23T08:49:55.114Z</time>
      </trkpt>
      <trkpt lat="47.79621" lon="2.20391">
        <ele>112</ele>
        <time>2017-07-23T08:49:56.119Z</time>
      </trkpt>
      <trkpt lat="47.79616" lon="2.20374">
        <ele>113</ele>
        <time>2017-07-23T08:49:57.126Z</time>
      </trkpt>
      <trkpt lat="47.79616" lon="2.20374">
        <ele>113</ele>
        <time>2017-07-23T08:49:58.132Z</time>
      </trkpt>
      <trkpt lat="47.79612" lon="2.20355">
        <ele>112</ele>
        <time>2017-07-23T08:49:59.147Z</time>
      </trkpt>
      <trkpt lat="47.79612" lon="2.20355">
        <ele>112</ele>
        <time>2017-07-23T08:50:00.112Z</time>
      </trkpt>
      <trkpt lat="47.79611" lon="2.20337">
        <ele>112</ele>
        <time>2017-07-23T08:50:01.142Z</time>
      </trkpt>
      <trkpt lat="47.79611" lon="2.20337">
        <ele>112</ele>
        <time>2017-07-23T08:50:02.110Z</time>
      </trkpt>
      <trkpt lat="47.79608" lon="2.2032">
        <ele>112</ele>
        <time>2017-07-23T08:50:03.117Z</time>
      </trkpt>
      <trkpt lat="47.79608" lon="2.2032">
        <ele>112</ele>
        <time>2017-07-23T08:50:04.130Z</time>
      </trkpt>
      <trkpt lat="47.79608" lon="2.20303">
        <ele>112</ele>
        <time>2017-07-23T08:50:05.142Z</time>
      </trkpt>
      <trkpt lat="47.79608" lon="2.20294">
        <ele>112</ele>
        <time>2017-07-23T08:50:06.115Z</time>
      </trkpt>
      <trkpt lat="47.79608" lon="2.20285">
        <ele>112</ele>
        <time>2017-07-23T08:50:07.121Z</time>
      </trkpt>
      <trkpt lat="47.79608" lon="2.20285">
        <ele>112</ele>
        <time>2017-07-23T08:50:08.127Z</time>
      </trkpt>
      <trkpt lat="47.79608" lon="2.20268">
        <ele>112</ele>
        <time>2017-07-23T08:50:09.133Z</time>
      </trkpt>
      <trkpt lat="47.79608" lon="2.20268">
        <ele>112</ele>
        <time>2017-07-23T08:50:10.138Z</time>
      </trkpt>
      <trkpt lat="47.79606" lon="2.20251">
        <ele>112</ele>
        <time>2017-07-23T08:50:11.129Z</time>
      </trkpt>
      <trkpt lat="47.79606" lon="2.20251">
        <ele>112</ele>
        <time>2017-07-23T08:50:12.134Z</time>
      </trkpt>
      <trkpt lat="47.79606" lon="2.20235">
        <ele>112</ele>
        <time>2017-07-23T08:50:13.141Z</time>
      </trkpt>
      <trkpt lat="47.79604" lon="2.20226">
        <ele>112</ele>
        <time>2017-07-23T08:50:14.128Z</time>
      </trkpt>
      <trkpt lat="47.79604" lon="2.20226">
        <ele>112</ele>
        <time>2017-07-23T08:50:15.133Z</time>
      </trkpt>
      <trkpt lat="47.79602" lon="2.20209">
        <ele>111</ele>
        <time>2017-07-23T08:50:16.140Z</time>
      </trkpt>
      <trkpt lat="47.79602" lon="2.20209">
        <ele>111</ele>
        <time>2017-07-23T08:50:17.119Z</time>
      </trkpt>
      <trkpt lat="47.79599" lon="2.20194">
        <ele>112</ele>
        <time>2017-07-23T08:50:18.144Z</time>
      </trkpt>
      <trkpt lat="47.79599" lon="2.20194">
        <ele>112</ele>
        <time>2017-07-23T08:50:19.109Z</time>
      </trkpt>
      <trkpt lat="47.79596" lon="2.2018">
        <ele>112</ele>
        <time>2017-07-23T08:50:20.129Z</time>
      </trkpt>
      <trkpt lat="47.79595" lon="2.20173">
        <ele>112</ele>
        <time>2017-07-23T08:50:21.128Z</time>
      </trkpt>
      <trkpt lat="47.79595" lon="2.20173">
        <ele>112</ele>
        <time>2017-07-23T08:50:22.134Z</time>
      </trkpt>
      <trkpt lat="47.79594" lon="2.20163">
        <ele>113</ele>
        <time>2017-07-23T08:50:23.140Z</time>
      </trkpt>
      <trkpt lat="47.79594" lon="2.20163">
        <ele>113</ele>
        <time>2017-07-23T08:50:24.147Z</time>
      </trkpt>
      <trkpt lat="47.79594" lon="2.20154">
        <ele>113</ele>
        <time>2017-07-23T08:50:25.125Z</time>
      </trkpt>
      <trkpt lat="47.79594" lon="2.20154">
        <ele>113</ele>
        <time>2017-07-23T08:50:26.130Z</time>
      </trkpt>
      <trkpt lat="47.79593" lon="2.20145">
        <ele>112</ele>
        <time>2017-07-23T08:50:27.136Z</time>
      </trkpt>
      <trkpt lat="47.79593" lon="2.20145">
        <ele>112</ele>
        <time>2017-07-23T08:50:28.146Z</time>
      </trkpt>
      <trkpt lat="47.79595" lon="2.20142">
        <ele>112</ele>
        <time>2017-07-23T08:50:29.120Z</time>
      </trkpt>
      <trkpt lat="47.79595" lon="2.20142">
        <ele>112</ele>
        <time>2017-07-23T08:50:30.126Z</time>
      </trkpt>
      <trkpt lat="47.79601" lon="2.20144">
        <ele>111</ele>
        <time>2017-07-23T08:50:31.133Z</time>
      </trkpt>
      <trkpt lat="47.79601" lon="2.20144">
        <ele>111</ele>
        <time>2017-07-23T08:50:32.138Z</time>
      </trkpt>
      <trkpt lat="47.79606" lon="2.20146">
        <ele>111</ele>
        <time>2017-07-23T08:50:33.128Z</time>
      </trkpt>
      <trkpt lat="47.79606" lon="2.20146">
        <ele>111</ele>
        <time>2017-07-23T08:50:34.133Z</time>
      </trkpt>
      <trkpt lat="47.7961" lon="2.20148">
        <ele>112</ele>
        <time>2017-07-23T08:50:35.139Z</time>
      </trkpt>
      <trkpt lat="47.7961" lon="2.20148">
        <ele>112</ele>
        <time>2017-07-23T08:50:36.146Z</time>
      </trkpt>
      <trkpt lat="47.79612" lon="2.20148">
        <ele>113</ele>
        <time>2017-07-23T08:50:37.117Z</time>
      </trkpt>
      <trkpt lat="47.79612" lon="2.20148">
        <ele>113</ele>
        <time>2017-07-23T08:50:38.132Z</time>
      </trkpt>
      <trkpt lat="47.79613" lon="2.20148">
        <ele>113</ele>
        <time>2017-07-23T08:50:39.128Z</time>
      </trkpt>
      <trkpt lat="47.79613" lon="2.20148">
        <ele>113</ele>
        <time>2017-07-23T08:50:40.133Z</time>
      </trkpt>
      <trkpt lat="47.79615" lon="2.20148">
        <ele>112</ele>
        <time>2017-07-23T08:50:41.140Z</time>
      </trkpt>
      <trkpt lat="47.79615" lon="2.20148">
        <ele>112</ele>
        <time>2017-07-23T08:50:42.111Z</time>
      </trkpt>
      <trkpt lat="47.79618" lon="2.20148">
        <ele>112</ele>
        <time>2017-07-23T08:50:43.118Z</time>
      </trkpt>
      <trkpt lat="47.79618" lon="2.20148">
        <ele>112</ele>
        <time>2017-07-23T08:50:44.123Z</time>
      </trkpt>
      <trkpt lat="47.79622" lon="2.20147">
        <ele>111</ele>
        <time>2017-07-23T08:50:45.130Z</time>
      </trkpt>
      <trkpt lat="47.79624" lon="2.20146">
        <ele>110</ele>
        <time>2017-07-23T08:50:46.147Z</time>
      </trkpt>
      <trkpt lat="47.79626" lon="2.20145">
        <ele>110</ele>
        <time>2017-07-23T08:50:47.116Z</time>
      </trkpt>
      <trkpt lat="47.79626" lon="2.20145">
        <ele>110</ele>
        <time>2017-07-23T08:50:48.121Z</time>
      </trkpt>
      <trkpt lat="47.7963" lon="2.20143">
        <ele>110</ele>
        <time>2017-07-23T08:50:49.137Z</time>
      </trkpt>
      <trkpt lat="47.7963" lon="2.20143">
        <ele>110</ele>
        <time>2017-07-23T08:50:50.144Z</time>
      </trkpt>
      <trkpt lat="47.79637" lon="2.20142">
        <ele>109</ele>
        <time>2017-07-23T08:50:51.110Z</time>
      </trkpt>
      <trkpt lat="47.79637" lon="2.20142">
        <ele>109</ele>
        <time>2017-07-23T08:50:52.119Z</time>
      </trkpt>
      <trkpt lat="47.79643" lon="2.20142">
        <ele>109</ele>
        <time>2017-07-23T08:50:53.147Z</time>
      </trkpt>
      <trkpt lat="47.79645" lon="2.20142">
        <ele>109</ele>
        <time>2017-07-23T08:50:54.115Z</time>
      </trkpt>
      <trkpt lat="47.79645" lon="2.20142">
        <ele>109</ele>
        <time>2017-07-23T08:50:55.121Z</time>
      </trkpt>
      <trkpt lat="47.79646" lon="2.2014">
        <ele>109</ele>
        <time>2017-07-23T08:50:56.113Z</time>
      </trkpt>
      <trkpt lat="47.79646" lon="2.2014">
        <ele>109</ele>
        <time>2017-07-23T08:50:57.118Z</time>
      </trkpt>
      <trkpt lat="47.79646" lon="2.20134">
        <ele>109</ele>
        <time>2017-07-23T08:50:58.124Z</time>
      </trkpt>
      <trkpt lat="47.79646" lon="2.20134">
        <ele>109</ele>
        <time>2017-07-23T08:50:59.129Z</time>
      </trkpt>
      <trkpt lat="47.79643" lon="2.20128">
        <ele>110</ele>
        <time>2017-07-23T08:51:00.134Z</time>
      </trkpt>
      <trkpt lat="47.79642" lon="2.20124">
        <ele>110</ele>
        <time>2017-07-23T08:51:01.147Z</time>
      </trkpt>
      <trkpt lat="47.79642" lon="2.20124">
        <ele>110</ele>
        <time>2017-07-23T08:51:02.113Z</time>
      </trkpt>
      <trkpt lat="47.7964" lon="2.20115">
        <ele>110</ele>
        <time>2017-07-23T08:51:03.138Z</time>
      </trkpt>
      <trkpt lat="47.79638" lon="2.2011">
        <ele>111</ele>
        <time>2017-07-23T08:51:04.144Z</time>
      </trkpt>
      <trkpt lat="47.79638" lon="2.2011">
        <ele>111</ele>
        <time>2017-07-23T08:51:05.110Z</time>
      </trkpt>
      <trkpt lat="47.79634" lon="2.20103">
        <ele>112</ele>
        <time>2017-07-23T08:51:06.138Z</time>
      </trkpt>
      <trkpt lat="47.79632" lon="2.20098">
        <ele>112</ele>
        <time>2017-07-23T08:51:07.145Z</time>
      </trkpt>
      <trkpt lat="47.79632" lon="2.20098">
        <ele>112</ele>
        <time>2017-07-23T08:51:08.111Z</time>
      </trkpt>
      <trkpt lat="47.79628" lon="2.20089">
        <ele>113</ele>
        <time>2017-07-23T08:51:09.128Z</time>
      </trkpt>
      <trkpt lat="47.79626" lon="2.20083">
        <ele>114</ele>
        <time>2017-07-23T08:51:10.134Z</time>
      </trkpt>
      <trkpt lat="47.79626" lon="2.20083">
        <ele>114</ele>
        <time>2017-07-23T08:51:11.139Z</time>
      </trkpt>
      <trkpt lat="47.79623" lon="2.20072">
        <ele>114</ele>
        <time>2017-07-23T08:51:12.125Z</time>
      </trkpt>
      <trkpt lat="47.79622" lon="2.20066">
        <ele>114</ele>
        <time>2017-07-23T08:51:13.131Z</time>
      </trkpt>
      <trkpt lat="47.79622" lon="2.20066">
        <ele>114</ele>
        <time>2017-07-23T08:51:14.136Z</time>
      </trkpt>
      <trkpt lat="47.7962" lon="2.20054">
        <ele>116</ele>
        <time>2017-07-23T08:51:15.125Z</time>
      </trkpt>
      <trkpt lat="47.79618" lon="2.20048">
        <ele>116</ele>
        <time>2017-07-23T08:51:16.132Z</time>
      </trkpt>
      <trkpt lat="47.79618" lon="2.20048">
        <ele>116</ele>
        <time>2017-07-23T08:51:17.137Z</time>
      </trkpt>
      <trkpt lat="47.79613" lon="2.20037">
        <ele>117</ele>
        <time>2017-07-23T08:51:18.109Z</time>
      </trkpt>
      <trkpt lat="47.79611" lon="2.20032">
        <ele>117</ele>
        <time>2017-07-23T08:51:19.126Z</time>
      </trkpt>
      <trkpt lat="47.79611" lon="2.20032">
        <ele>117</ele>
        <time>2017-07-23T08:51:20.131Z</time>
      </trkpt>
      <trkpt lat="47.79612" lon="2.20021">
        <ele>118</ele>
        <time>2017-07-23T08:51:21.122Z</time>
      </trkpt>
      <trkpt lat="47.79605" lon="2.20015">
        <ele>119</ele>
        <time>2017-07-23T08:51:22.128Z</time>
      </trkpt>
      <trkpt lat="47.79604" lon="2.20009">
        <ele>119</ele>
        <time>2017-07-23T08:51:23.118Z</time>
      </trkpt>
      <trkpt lat="47.79604" lon="2.20009">
        <ele>119</ele>
        <time>2017-07-23T08:51:24.123Z</time>
      </trkpt>
      <trkpt lat="47.79604" lon="2.19998">
        <ele>120</ele>
        <time>2017-07-23T08:51:25.130Z</time>
      </trkpt>
      <trkpt lat="47.79604" lon="2.19998">
        <ele>120</ele>
        <time>2017-07-23T08:51:26.134Z</time>
      </trkpt>
      <trkpt lat="47.79605" lon="2.19986">
        <ele>120</ele>
        <time>2017-07-23T08:51:27.121Z</time>
      </trkpt>
      <trkpt lat="47.79605" lon="2.19986">
        <ele>120</ele>
        <time>2017-07-23T08:51:28.126Z</time>
      </trkpt>
      <trkpt lat="47.79604" lon="2.19971">
        <ele>119</ele>
        <time>2017-07-23T08:51:29.135Z</time>
      </trkpt>
      <trkpt lat="47.79604" lon="2.19971">
        <ele>119</ele>
        <time>2017-07-23T08:51:30.140Z</time>
      </trkpt>
      <trkpt lat="47.79605" lon="2.19956">
        <ele>119</ele>
        <time>2017-07-23T08:51:31.120Z</time>
      </trkpt>
      <trkpt lat="47.79605" lon="2.19956">
        <ele>119</ele>
        <time>2017-07-23T08:51:32.125Z</time>
      </trkpt>
      <trkpt lat="47.79605" lon="2.19941">
        <ele>119</ele>
        <time>2017-07-23T08:51:33.132Z</time>
      </trkpt>
      <trkpt lat="47.79605" lon="2.19941">
        <ele>119</ele>
        <time>2017-07-23T08:51:34.120Z</time>
      </trkpt>
      <trkpt lat="47.79607" lon="2.19927">
        <ele>119</ele>
        <time>2017-07-23T08:51:35.112Z</time>
      </trkpt>
      <trkpt lat="47.79607" lon="2.19921">
        <ele>119</ele>
        <time>2017-07-23T08:51:36.118Z</time>
      </trkpt>
      <trkpt lat="47.79607" lon="2.19921">
        <ele>119</ele>
        <time>2017-07-23T08:51:37.124Z</time>
      </trkpt>
      <trkpt lat="47.79609" lon="2.19909">
        <ele>119</ele>
        <time>2017-07-23T08:51:38.142Z</time>
      </trkpt>
      <trkpt lat="47.79609" lon="2.19909">
        <ele>119</ele>
        <time>2017-07-23T08:51:39.130Z</time>
      </trkpt>
      <trkpt lat="47.79611" lon="2.19899">
        <ele>119</ele>
        <time>2017-07-23T08:51:40.137Z</time>
      </trkpt>
      <trkpt lat="47.79613" lon="2.19893">
        <ele>119</ele>
        <time>2017-07-23T08:51:41.144Z</time>
      </trkpt>
      <trkpt lat="47.79613" lon="2.19893">
        <ele>119</ele>
        <time>2017-07-23T08:51:42.111Z</time>
      </trkpt>
      <trkpt lat="47.79609" lon="2.19883">
        <ele>119</ele>
        <time>2017-07-23T08:51:43.145Z</time>
      </trkpt>
      <trkpt lat="47.79609" lon="2.19883">
        <ele>119</ele>
        <time>2017-07-23T08:51:44.112Z</time>
      </trkpt>
      <trkpt lat="47.79606" lon="2.19869">
        <ele>119</ele>
        <time>2017-07-23T08:51:45.118Z</time>
      </trkpt>
      <trkpt lat="47.79606" lon="2.19869">
        <ele>119</ele>
        <time>2017-07-23T08:51:46.124Z</time>
      </trkpt>
      <trkpt lat="47.79601" lon="2.19851">
        <ele>120</ele>
        <time>2017-07-23T08:51:47.138Z</time>
      </trkpt>
      <trkpt lat="47.79601" lon="2.19851">
        <ele>120</ele>
        <time>2017-07-23T08:51:48.143Z</time>
      </trkpt>
      <trkpt lat="47.79606" lon="2.19838">
        <ele>120</ele>
        <time>2017-07-23T08:51:49.121Z</time>
      </trkpt>
      <trkpt lat="47.79606" lon="2.19838">
        <ele>120</ele>
        <time>2017-07-23T08:51:50.126Z</time>
      </trkpt>
      <trkpt lat="47.7961" lon="2.19828">
        <ele>120</ele>
        <time>2017-07-23T08:51:51.147Z</time>
      </trkpt>
      <trkpt lat="47.7961" lon="2.19828">
        <ele>120</ele>
        <time>2017-07-23T08:51:52.113Z</time>
      </trkpt>
      <trkpt lat="47.79614" lon="2.19821">
        <ele>120</ele>
        <time>2017-07-23T08:51:53.120Z</time>
      </trkpt>
      <trkpt lat="47.79614" lon="2.19821">
        <ele>120</ele>
        <time>2017-07-23T08:51:54.129Z</time>
      </trkpt>
      <trkpt lat="47.79617" lon="2.19811">
        <ele>120</ele>
        <time>2017-07-23T08:51:55.140Z</time>
      </trkpt>
      <trkpt lat="47.79617" lon="2.19811">
        <ele>120</ele>
        <time>2017-07-23T08:51:56.146Z</time>
      </trkpt>
      <trkpt lat="47.79618" lon="2.19802">
        <ele>120</ele>
        <time>2017-07-23T08:51:57.138Z</time>
      </trkpt>
      <trkpt lat="47.79618" lon="2.19795">
        <ele>120</ele>
        <time>2017-07-23T08:51:58.123Z</time>
      </trkpt>
      <trkpt lat="47.79618" lon="2.19795">
        <ele>120</ele>
        <time>2017-07-23T08:51:59.128Z</time>
      </trkpt>
      <trkpt lat="47.79616" lon="2.19791">
        <ele>120</ele>
        <time>2017-07-23T08:52:00.138Z</time>
      </trkpt>
      <trkpt lat="47.79617" lon="2.19791">
        <ele>121</ele>
        <time>2017-07-23T08:52:01.118Z</time>
      </trkpt>
      <trkpt lat="47.79617" lon="2.19791">
        <ele>121</ele>
        <time>2017-07-23T08:52:02.123Z</time>
      </trkpt>
      <trkpt lat="47.79617" lon="2.19785">
        <ele>121</ele>
        <time>2017-07-23T08:52:03.108Z</time>
      </trkpt>
      <trkpt lat="47.79615" lon="2.19784">
        <ele>121</ele>
        <time>2017-07-23T08:52:04.139Z</time>
      </trkpt>
      <trkpt lat="47.79615" lon="2.19784">
        <ele>121</ele>
        <time>2017-07-23T08:52:05.145Z</time>
      </trkpt>
      <trkpt lat="47.79612" lon="2.19783">
        <ele>121</ele>
        <time>2017-07-23T08:52:06.112Z</time>
      </trkpt>
      <trkpt lat="47.79611" lon="2.19783">
        <ele>122</ele>
        <time>2017-07-23T08:52:07.124Z</time>
      </trkpt>
      <trkpt lat="47.79611" lon="2.19783">
        <ele>122</ele>
        <time>2017-07-23T08:52:08.129Z</time>
      </trkpt>
      <trkpt lat="47.79608" lon="2.19782">
        <ele>122</ele>
        <time>2017-07-23T08:52:09.138Z</time>
      </trkpt>
      <trkpt lat="47.79608" lon="2.19782">
        <ele>122</ele>
        <time>2017-07-23T08:52:10.130Z</time>
      </trkpt>
      <trkpt lat="47.79607" lon="2.19781">
        <ele>122</ele>
        <time>2017-07-23T08:52:11.115Z</time>
      </trkpt>
      <trkpt lat="47.79607" lon="2.19781">
        <ele>122</ele>
        <time>2017-07-23T08:52:12.120Z</time>
      </trkpt>
      <trkpt lat="47.79605" lon="2.1978">
        <ele>122</ele>
        <time>2017-07-23T08:52:13.127Z</time>
      </trkpt>
      <trkpt lat="47.79605" lon="2.1978">
        <ele>122</ele>
        <time>2017-07-23T08:52:14.132Z</time>
      </trkpt>
      <trkpt lat="47.79605" lon="2.19779">
        <ele>122</ele>
        <time>2017-07-23T08:52:15.127Z</time>
      </trkpt>
      <trkpt lat="47.79605" lon="2.19779">
        <ele>122</ele>
        <time>2017-07-23T08:52:16.134Z</time>
      </trkpt>
      <trkpt lat="47.79605" lon="2.19778">
        <ele>122</ele>
        <time>2017-07-23T08:52:17.146Z</time>
      </trkpt>
      <trkpt lat="47.79605" lon="2.19778">
        <ele>122</ele>
        <time>2017-07-23T08:52:18.142Z</time>
      </trkpt>
      <trkpt lat="47.79591" lon="2.19773">
        <ele>111</ele>
        <time>2017-07-23T08:52:19.147Z</time>
      </trkpt>
      <trkpt lat="47.79591" lon="2.19773">
        <ele>111</ele>
        <time>2017-07-23T08:52:20.146Z</time>
      </trkpt>
      <trkpt lat="47.79584" lon="2.19775">
        <ele>111</ele>
        <time>2017-07-23T08:52:21.129Z</time>
      </trkpt>
      <trkpt lat="47.79581" lon="2.19777">
        <ele>112</ele>
        <time>2017-07-23T08:52:22.144Z</time>
      </trkpt>
      <trkpt lat="47.79577" lon="2.19778">
        <ele>112</ele>
        <time>2017-07-23T08:52:23.134Z</time>
      </trkpt>
      <trkpt lat="47.79577" lon="2.19778">
        <ele>112</ele>
        <time>2017-07-23T08:52:24.137Z</time>
      </trkpt>
      <trkpt lat="47.79569" lon="2.19781">
        <ele>112</ele>
        <time>2017-07-23T08:52:25.143Z</time>
      </trkpt>
      <trkpt lat="47.79569" lon="2.19781">
        <ele>112</ele>
        <time>2017-07-23T08:52:26.127Z</time>
      </trkpt>
      <trkpt lat="47.79562" lon="2.19783">
        <ele>112</ele>
        <time>2017-07-23T08:52:27.128Z</time>
      </trkpt>
      <trkpt lat="47.79562" lon="2.19783">
        <ele>112</ele>
        <time>2017-07-23T08:52:28.113Z</time>
      </trkpt>
      <trkpt lat="47.79556" lon="2.19784">
        <ele>113</ele>
        <time>2017-07-23T08:52:29.121Z</time>
      </trkpt>
      <trkpt lat="47.79556" lon="2.19784">
        <ele>113</ele>
        <time>2017-07-23T08:52:30.137Z</time>
      </trkpt>
      <trkpt lat="47.79556" lon="2.19776">
        <ele>114</ele>
        <time>2017-07-23T08:52:31.128Z</time>
      </trkpt>
      <trkpt lat="47.79556" lon="2.19776">
        <ele>114</ele>
        <time>2017-07-23T08:52:32.143Z</time>
      </trkpt>
      <trkpt lat="47.79557" lon="2.19765">
        <ele>114</ele>
        <time>2017-07-23T08:52:33.109Z</time>
      </trkpt>
      <trkpt lat="47.79557" lon="2.19765">
        <ele>114</ele>
        <time>2017-07-23T08:52:34.132Z</time>
      </trkpt>
      <trkpt lat="47.79559" lon="2.19752">
        <ele>115</ele>
        <time>2017-07-23T08:52:35.116Z</time>
      </trkpt>
      <trkpt lat="47.79559" lon="2.19752">
        <ele>115</ele>
        <time>2017-07-23T08:52:36.113Z</time>
      </trkpt>
      <trkpt lat="47.79561" lon="2.19739">
        <ele>115</ele>
        <time>2017-07-23T08:52:37.124Z</time>
      </trkpt>
      <trkpt lat="47.79561" lon="2.19739">
        <ele>115</ele>
        <time>2017-07-23T08:52:38.142Z</time>
      </trkpt>
      <trkpt lat="47.79564" lon="2.19726">
        <ele>116</ele>
        <time>2017-07-23T08:52:39.111Z</time>
      </trkpt>
      <trkpt lat="47.79564" lon="2.19726">
        <ele>116</ele>
        <time>2017-07-23T08:52:40.129Z</time>
      </trkpt>
      <trkpt lat="47.79561" lon="2.19714">
        <ele>114</ele>
        <time>2017-07-23T08:52:41.118Z</time>
      </trkpt>
      <trkpt lat="47.79563" lon="2.19707">
        <ele>114</ele>
        <time>2017-07-23T08:52:42.145Z</time>
      </trkpt>
      <trkpt lat="47.79563" lon="2.19707">
        <ele>114</ele>
        <time>2017-07-23T08:52:43.136Z</time>
      </trkpt>
      <trkpt lat="47.79566" lon="2.19691">
        <ele>114</ele>
        <time>2017-07-23T08:52:44.118Z</time>
      </trkpt>
      <trkpt lat="47.79567" lon="2.19683">
        <ele>114</ele>
        <time>2017-07-23T08:52:45.146Z</time>
      </trkpt>
      <trkpt lat="47.79567" lon="2.19683">
        <ele>114</ele>
        <time>2017-07-23T08:52:46.137Z</time>
      </trkpt>
      <trkpt lat="47.79568" lon="2.19666">
        <ele>113</ele>
        <time>2017-07-23T08:52:47.108Z</time>
      </trkpt>
      <trkpt lat="47.79568" lon="2.19666">
        <ele>113</ele>
        <time>2017-07-23T08:52:48.114Z</time>
      </trkpt>
      <trkpt lat="47.79569" lon="2.19648">
        <ele>113</ele>
        <time>2017-07-23T08:52:49.124Z</time>
      </trkpt>
      <trkpt lat="47.79569" lon="2.19648">
        <ele>113</ele>
        <time>2017-07-23T08:52:50.110Z</time>
      </trkpt>
      <trkpt lat="47.79569" lon="2.19631">
        <ele>113</ele>
        <time>2017-07-23T08:52:51.118Z</time>
      </trkpt>
      <trkpt lat="47.79569" lon="2.19631">
        <ele>113</ele>
        <time>2017-07-23T08:52:52.134Z</time>
      </trkpt>
      <trkpt lat="47.79568" lon="2.19614">
        <ele>113</ele>
        <time>2017-07-23T08:52:53.141Z</time>
      </trkpt>
      <trkpt lat="47.79569" lon="2.19606">
        <ele>113</ele>
        <time>2017-07-23T08:52:54.138Z</time>
      </trkpt>
      <trkpt lat="47.79569" lon="2.19606">
        <ele>113</ele>
        <time>2017-07-23T08:52:55.126Z</time>
      </trkpt>
      <trkpt lat="47.79569" lon="2.19589">
        <ele>113</ele>
        <time>2017-07-23T08:52:56.146Z</time>
      </trkpt>
      <trkpt lat="47.79569" lon="2.19589">
        <ele>113</ele>
        <time>2017-07-23T08:52:57.131Z</time>
      </trkpt>
      <trkpt lat="47.79567" lon="2.19574">
        <ele>112</ele>
        <time>2017-07-23T08:52:58.137Z</time>
      </trkpt>
      <trkpt lat="47.79564" lon="2.19568">
        <ele>112</ele>
        <time>2017-07-23T08:52:59.148Z</time>
      </trkpt>
      <trkpt lat="47.79564" lon="2.19568">
        <ele>112</ele>
        <time>2017-07-23T08:53:00.145Z</time>
      </trkpt>
      <trkpt lat="47.79556" lon="2.19558">
        <ele>112</ele>
        <time>2017-07-23T08:53:01.112Z</time>
      </trkpt>
      <trkpt lat="47.79556" lon="2.19558">
        <ele>112</ele>
        <time>2017-07-23T08:53:02.139Z</time>
      </trkpt>
      <trkpt lat="47.7955" lon="2.19547">
        <ele>112</ele>
        <time>2017-07-23T08:53:03.117Z</time>
      </trkpt>
      <trkpt lat="47.79547" lon="2.1954">
        <ele>112</ele>
        <time>2017-07-23T08:53:04.129Z</time>
      </trkpt>
      <trkpt lat="47.79546" lon="2.19533">
        <ele>112</ele>
        <time>2017-07-23T08:53:05.114Z</time>
      </trkpt>
      <trkpt lat="47.79546" lon="2.19533">
        <ele>112</ele>
        <time>2017-07-23T08:53:06.128Z</time>
      </trkpt>
      <trkpt lat="47.79547" lon="2.19518">
        <ele>113</ele>
        <time>2017-07-23T08:53:07.118Z</time>
      </trkpt>
      <trkpt lat="47.79547" lon="2.19518">
        <ele>113</ele>
        <time>2017-07-23T08:53:08.143Z</time>
      </trkpt>
      <trkpt lat="47.79549" lon="2.19502">
        <ele>113</ele>
        <time>2017-07-23T08:53:09.109Z</time>
      </trkpt>
      <trkpt lat="47.79549" lon="2.19502">
        <ele>113</ele>
        <time>2017-07-23T08:53:10.128Z</time>
      </trkpt>
      <trkpt lat="47.79551" lon="2.19486">
        <ele>113</ele>
        <time>2017-07-23T08:53:11.108Z</time>
      </trkpt>
      <trkpt lat="47.79551" lon="2.19486">
        <ele>113</ele>
        <time>2017-07-23T08:53:12.138Z</time>
      </trkpt>
      <trkpt lat="47.79553" lon="2.19469">
        <ele>113</ele>
        <time>2017-07-23T08:53:13.144Z</time>
      </trkpt>
      <trkpt lat="47.79553" lon="2.19469">
        <ele>113</ele>
        <time>2017-07-23T08:53:14.130Z</time>
      </trkpt>
      <trkpt lat="47.79554" lon="2.19453">
        <ele>114</ele>
        <time>2017-07-23T08:53:15.118Z</time>
      </trkpt>
      <trkpt lat="47.79554" lon="2.19453">
        <ele>114</ele>
        <time>2017-07-23T08:53:16.123Z</time>
      </trkpt>
      <trkpt lat="47.79554" lon="2.19436">
        <ele>114</ele>
        <time>2017-07-23T08:53:17.130Z</time>
      </trkpt>
      <trkpt lat="47.79554" lon="2.19436">
        <ele>114</ele>
        <time>2017-07-23T08:53:18.115Z</time>
      </trkpt>
      <trkpt lat="47.79555" lon="2.19418">
        <ele>115</ele>
        <time>2017-07-23T08:53:19.118Z</time>
      </trkpt>
      <trkpt lat="47.79555" lon="2.19418">
        <ele>115</ele>
        <time>2017-07-23T08:53:20.125Z</time>
      </trkpt>
      <trkpt lat="47.79555" lon="2.19401">
        <ele>115</ele>
        <time>2017-07-23T08:53:21.133Z</time>
      </trkpt>
      <trkpt lat="47.79555" lon="2.19392">
        <ele>115</ele>
        <time>2017-07-23T08:53:22.126Z</time>
      </trkpt>
      <trkpt lat="47.79555" lon="2.19383">
        <ele>115</ele>
        <time>2017-07-23T08:53:23.127Z</time>
      </trkpt>
      <trkpt lat="47.79555" lon="2.19383">
        <ele>115</ele>
        <time>2017-07-23T08:53:24.110Z</time>
      </trkpt>
      <trkpt lat="47.79555" lon="2.19365">
        <ele>114</ele>
        <time>2017-07-23T08:53:25.117Z</time>
      </trkpt>
      <trkpt lat="47.79555" lon="2.19365">
        <ele>114</ele>
        <time>2017-07-23T08:53:26.109Z</time>
      </trkpt>
      <trkpt lat="47.79555" lon="2.19347">
        <ele>114</ele>
        <time>2017-07-23T08:53:27.115Z</time>
      </trkpt>
      <trkpt lat="47.79555" lon="2.19347">
        <ele>114</ele>
        <time>2017-07-23T08:53:28.140Z</time>
      </trkpt>
      <trkpt lat="47.79554" lon="2.19329">
        <ele>114</ele>
        <time>2017-07-23T08:53:29.149Z</time>
      </trkpt>
      <trkpt lat="47.79554" lon="2.19329">
        <ele>114</ele>
        <time>2017-07-23T08:53:30.143Z</time>
      </trkpt>
      <trkpt lat="47.79554" lon="2.19312">
        <ele>114</ele>
        <time>2017-07-23T08:53:31.125Z</time>
      </trkpt>
      <trkpt lat="47.79554" lon="2.19303">
        <ele>114</ele>
        <time>2017-07-23T08:53:32.117Z</time>
      </trkpt>
      <trkpt lat="47.79554" lon="2.19303">
        <ele>114</ele>
        <time>2017-07-23T08:53:33.144Z</time>
      </trkpt>
      <trkpt lat="47.79556" lon="2.19286">
        <ele>114</ele>
        <time>2017-07-23T08:53:34.110Z</time>
      </trkpt>
      <trkpt lat="47.79557" lon="2.19278">
        <ele>114</ele>
        <time>2017-07-23T08:53:35.146Z</time>
      </trkpt>
      <trkpt lat="47.79557" lon="2.19278">
        <ele>114</ele>
        <time>2017-07-23T08:53:36.133Z</time>
      </trkpt>
      <trkpt lat="47.7956" lon="2.19261">
        <ele>114</ele>
        <time>2017-07-23T08:53:37.139Z</time>
      </trkpt>
      <trkpt lat="47.7956" lon="2.19252">
        <ele>114</ele>
        <time>2017-07-23T08:53:38.143Z</time>
      </trkpt>
      <trkpt lat="47.7956" lon="2.19252">
        <ele>114</ele>
        <time>2017-07-23T08:53:39.112Z</time>
      </trkpt>
      <trkpt lat="47.79563" lon="2.19235">
        <ele>114</ele>
        <time>2017-07-23T08:53:40.127Z</time>
      </trkpt>
      <trkpt lat="47.79564" lon="2.19227">
        <ele>114</ele>
        <time>2017-07-23T08:53:41.139Z</time>
      </trkpt>
      <trkpt lat="47.79564" lon="2.19227">
        <ele>114</ele>
        <time>2017-07-23T08:53:42.116Z</time>
      </trkpt>
      <trkpt lat="47.79567" lon="2.19211">
        <ele>114</ele>
        <time>2017-07-23T08:53:43.131Z</time>
      </trkpt>
      <trkpt lat="47.79569" lon="2.19202">
        <ele>113</ele>
        <time>2017-07-23T08:53:44.142Z</time>
      </trkpt>
      <trkpt lat="47.79569" lon="2.19202">
        <ele>113</ele>
        <time>2017-07-23T08:53:45.131Z</time>
      </trkpt>
      <trkpt lat="47.79574" lon="2.19184">
        <ele>113</ele>
        <time>2017-07-23T08:53:46.109Z</time>
      </trkpt>
      <trkpt lat="47.79574" lon="2.19184">
        <ele>113</ele>
        <time>2017-07-23T08:53:47.146Z</time>
      </trkpt>
      <trkpt lat="47.79579" lon="2.19166">
        <ele>113</ele>
        <time>2017-07-23T08:53:48.134Z</time>
      </trkpt>
      <trkpt lat="47.79579" lon="2.19166">
        <ele>113</ele>
        <time>2017-07-23T08:53:49.127Z</time>
      </trkpt>
      <trkpt lat="47.79585" lon="2.19147">
        <ele>113</ele>
        <time>2017-07-23T08:53:50.118Z</time>
      </trkpt>
      <trkpt lat="47.79588" lon="2.19137">
        <ele>113</ele>
        <time>2017-07-23T08:53:51.147Z</time>
      </trkpt>
      <trkpt lat="47.79588" lon="2.19137">
        <ele>113</ele>
        <time>2017-07-23T08:53:52.140Z</time>
      </trkpt>
      <trkpt lat="47.79594" lon="2.19119">
        <ele>113</ele>
        <time>2017-07-23T08:53:53.139Z</time>
      </trkpt>
      <trkpt lat="47.79594" lon="2.19119">
        <ele>113</ele>
        <time>2017-07-23T08:53:54.119Z</time>
      </trkpt>
      <trkpt lat="47.796" lon="2.191">
        <ele>113</ele>
        <time>2017-07-23T08:53:55.126Z</time>
      </trkpt>
      <trkpt lat="47.79603" lon="2.19091">
        <ele>113</ele>
        <time>2017-07-23T08:53:56.128Z</time>
      </trkpt>
      <trkpt lat="47.79606" lon="2.19081">
        <ele>113</ele>
        <time>2017-07-23T08:53:57.147Z</time>
      </trkpt>
      <trkpt lat="47.79606" lon="2.19081">
        <ele>113</ele>
        <time>2017-07-23T08:53:58.118Z</time>
      </trkpt>
      <trkpt lat="47.79612" lon="2.19061">
        <ele>113</ele>
        <time>2017-07-23T08:53:59.126Z</time>
      </trkpt>
      <trkpt lat="47.79612" lon="2.19061">
        <ele>113</ele>
        <time>2017-07-23T08:54:00.113Z</time>
      </trkpt>
      <trkpt lat="47.79618" lon="2.19041">
        <ele>113</ele>
        <time>2017-07-23T08:54:01.121Z</time>
      </trkpt>
      <trkpt lat="47.79618" lon="2.19041">
        <ele>113</ele>
        <time>2017-07-23T08:54:02.140Z</time>
      </trkpt>
      <trkpt lat="47.79624" lon="2.19021">
        <ele>113</ele>
        <time>2017-07-23T08:54:03.146Z</time>
      </trkpt>
      <trkpt lat="47.79626" lon="2.19011">
        <ele>113</ele>
        <time>2017-07-23T08:54:04.149Z</time>
      </trkpt>
      <trkpt lat="47.79626" lon="2.19011">
        <ele>113</ele>
        <time>2017-07-23T08:54:05.127Z</time>
      </trkpt>
      <trkpt lat="47.79632" lon="2.18991">
        <ele>113</ele>
        <time>2017-07-23T08:54:06.135Z</time>
      </trkpt>
      <trkpt lat="47.79635" lon="2.18981">
        <ele>113</ele>
        <time>2017-07-23T08:54:07.129Z</time>
      </trkpt>
      <trkpt lat="47.79638" lon="2.18972">
        <ele>113</ele>
        <time>2017-07-23T08:54:08.131Z</time>
      </trkpt>
      <trkpt lat="47.79638" lon="2.18972">
        <ele>113</ele>
        <time>2017-07-23T08:54:09.141Z</time>
      </trkpt>
      <trkpt lat="47.79643" lon="2.18953">
        <ele>113</ele>
        <time>2017-07-23T08:54:10.117Z</time>
      </trkpt>
      <trkpt lat="47.79646" lon="2.18944">
        <ele>113</ele>
        <time>2017-07-23T08:54:11.108Z</time>
      </trkpt>
      <trkpt lat="47.79646" lon="2.18944">
        <ele>113</ele>
        <time>2017-07-23T08:54:12.129Z</time>
      </trkpt>
      <trkpt lat="47.79651" lon="2.18927">
        <ele>112</ele>
        <time>2017-07-23T08:54:13.128Z</time>
      </trkpt>
      <trkpt lat="47.79651" lon="2.18927">
        <ele>112</ele>
        <time>2017-07-23T08:54:14.122Z</time>
      </trkpt>
      <trkpt lat="47.79657" lon="2.18911">
        <ele>112</ele>
        <time>2017-07-23T08:54:15.131Z</time>
      </trkpt>
      <trkpt lat="47.79657" lon="2.18911">
        <ele>112</ele>
        <time>2017-07-23T08:54:16.115Z</time>
      </trkpt>
      <trkpt lat="47.79663" lon="2.18893">
        <ele>111</ele>
        <time>2017-07-23T08:54:17.118Z</time>
      </trkpt>
      <trkpt lat="47.79663" lon="2.18893">
        <ele>111</ele>
        <time>2017-07-23T08:54:18.112Z</time>
      </trkpt>
      <trkpt lat="47.7967" lon="2.18874">
        <ele>110</ele>
        <time>2017-07-23T08:54:19.121Z</time>
      </trkpt>
      <trkpt lat="47.7967" lon="2.18874">
        <ele>110</ele>
        <time>2017-07-23T08:54:20.136Z</time>
      </trkpt>
      <trkpt lat="47.79679" lon="2.18856">
        <ele>109</ele>
        <time>2017-07-23T08:54:21.118Z</time>
      </trkpt>
      <trkpt lat="47.79679" lon="2.18856">
        <ele>109</ele>
        <time>2017-07-23T08:54:22.143Z</time>
      </trkpt>
      <trkpt lat="47.79691" lon="2.18837">
        <ele>108</ele>
        <time>2017-07-23T08:54:23.109Z</time>
      </trkpt>
      <trkpt lat="47.79697" lon="2.1883">
        <ele>108</ele>
        <time>2017-07-23T08:54:24.144Z</time>
      </trkpt>
      <trkpt lat="47.79697" lon="2.1883">
        <ele>108</ele>
        <time>2017-07-23T08:54:25.137Z</time>
      </trkpt>
      <trkpt lat="47.79709" lon="2.1882">
        <ele>107</ele>
        <time>2017-07-23T08:54:26.143Z</time>
      </trkpt>
      <trkpt lat="47.79715" lon="2.18817">
        <ele>107</ele>
        <time>2017-07-23T08:54:27.134Z</time>
      </trkpt>
      <trkpt lat="47.79715" lon="2.18817">
        <ele>107</ele>
        <time>2017-07-23T08:54:28.143Z</time>
      </trkpt>
      <trkpt lat="47.79728" lon="2.18811">
        <ele>107</ele>
        <time>2017-07-23T08:54:29.108Z</time>
      </trkpt>
      <trkpt lat="47.79728" lon="2.18811">
        <ele>107</ele>
        <time>2017-07-23T08:54:30.136Z</time>
      </trkpt>
      <trkpt lat="47.79739" lon="2.18804">
        <ele>107</ele>
        <time>2017-07-23T08:54:31.118Z</time>
      </trkpt>
      <trkpt lat="47.79744" lon="2.18799">
        <ele>108</ele>
        <time>2017-07-23T08:54:32.143Z</time>
      </trkpt>
      <trkpt lat="47.79748" lon="2.18792">
        <ele>108</ele>
        <time>2017-07-23T08:54:33.135Z</time>
      </trkpt>
      <trkpt lat="47.79748" lon="2.18792">
        <ele>108</ele>
        <time>2017-07-23T08:54:34.142Z</time>
      </trkpt>
      <trkpt lat="47.79756" lon="2.18776">
        <ele>108</ele>
        <time>2017-07-23T08:54:35.108Z</time>
      </trkpt>
      <trkpt lat="47.79756" lon="2.18776">
        <ele>108</ele>
        <time>2017-07-23T08:54:36.136Z</time>
      </trkpt>
      <trkpt lat="47.79764" lon="2.18759">
        <ele>108</ele>
        <time>2017-07-23T08:54:37.108Z</time>
      </trkpt>
      <trkpt lat="47.79764" lon="2.18759">
        <ele>108</ele>
        <time>2017-07-23T08:54:38.128Z</time>
      </trkpt>
      <trkpt lat="47.7977" lon="2.18743">
        <ele>109</ele>
        <time>2017-07-23T08:54:39.142Z</time>
      </trkpt>
      <trkpt lat="47.79773" lon="2.18734">
        <ele>108</ele>
        <time>2017-07-23T08:54:40.132Z</time>
      </trkpt>
      <trkpt lat="47.79773" lon="2.18734">
        <ele>108</ele>
        <time>2017-07-23T08:54:41.118Z</time>
      </trkpt>
      <trkpt lat="47.7978" lon="2.18718">
        <ele>109</ele>
        <time>2017-07-23T08:54:42.125Z</time>
      </trkpt>
      <trkpt lat="47.7978" lon="2.18718">
        <ele>109</ele>
        <time>2017-07-23T08:54:43.136Z</time>
      </trkpt>
      <trkpt lat="47.79787" lon="2.187">
        <ele>109</ele>
        <time>2017-07-23T08:54:44.108Z</time>
      </trkpt>
      <trkpt lat="47.79787" lon="2.187">
        <ele>109</ele>
        <time>2017-07-23T08:54:45.113Z</time>
      </trkpt>
      <trkpt lat="47.79794" lon="2.18683">
        <ele>109</ele>
        <time>2017-07-23T08:54:46.122Z</time>
      </trkpt>
      <trkpt lat="47.79797" lon="2.18675">
        <ele>110</ele>
        <time>2017-07-23T08:54:47.108Z</time>
      </trkpt>
      <trkpt lat="47.79797" lon="2.18675">
        <ele>110</ele>
        <time>2017-07-23T08:54:48.123Z</time>
      </trkpt>
      <trkpt lat="47.79803" lon="2.18659">
        <ele>109</ele>
        <time>2017-07-23T08:54:49.130Z</time>
      </trkpt>
      <trkpt lat="47.79803" lon="2.18659">
        <ele>109</ele>
        <time>2017-07-23T08:54:50.116Z</time>
      </trkpt>
      <trkpt lat="47.79809" lon="2.18643">
        <ele>110</ele>
        <time>2017-07-23T08:54:51.118Z</time>
      </trkpt>
      <trkpt lat="47.79809" lon="2.18643">
        <ele>110</ele>
        <time>2017-07-23T08:54:52.123Z</time>
      </trkpt>
      <trkpt lat="47.79817" lon="2.18626">
        <ele>110</ele>
        <time>2017-07-23T08:54:53.130Z</time>
      </trkpt>
      <trkpt lat="47.79817" lon="2.18626">
        <ele>110</ele>
        <time>2017-07-23T08:54:54.130Z</time>
      </trkpt>
      <trkpt lat="47.79825" lon="2.18611">
        <ele>110</ele>
        <time>2017-07-23T08:54:55.108Z</time>
      </trkpt>
      <trkpt lat="47.79825" lon="2.18611">
        <ele>110</ele>
        <time>2017-07-23T08:54:56.146Z</time>
      </trkpt>
      <trkpt lat="47.79831" lon="2.18595">
        <ele>111</ele>
        <time>2017-07-23T08:54:57.112Z</time>
      </trkpt>
      <trkpt lat="47.79835" lon="2.18588">
        <ele>111</ele>
        <time>2017-07-23T08:54:58.136Z</time>
      </trkpt>
      <trkpt lat="47.79839" lon="2.1858">
        <ele>111</ele>
        <time>2017-07-23T08:54:59.143Z</time>
      </trkpt>
      <trkpt lat="47.79839" lon="2.1858">
        <ele>111</ele>
        <time>2017-07-23T08:55:00.133Z</time>
      </trkpt>
      <trkpt lat="47.79845" lon="2.18565">
        <ele>111</ele>
        <time>2017-07-23T08:55:01.138Z</time>
      </trkpt>
      <trkpt lat="47.79849" lon="2.18557">
        <ele>111</ele>
        <time>2017-07-23T08:55:02.127Z</time>
      </trkpt>
      <trkpt lat="47.79849" lon="2.18557">
        <ele>111</ele>
        <time>2017-07-23T08:55:03.125Z</time>
      </trkpt>
      <trkpt lat="47.79856" lon="2.18542">
        <ele>112</ele>
        <time>2017-07-23T08:55:04.132Z</time>
      </trkpt>
      <trkpt lat="47.79856" lon="2.18542">
        <ele>112</ele>
        <time>2017-07-23T08:55:05.139Z</time>
      </trkpt>
      <trkpt lat="47.79861" lon="2.18525">
        <ele>113</ele>
        <time>2017-07-23T08:55:06.108Z</time>
      </trkpt>
      <trkpt lat="47.79861" lon="2.18525">
        <ele>113</ele>
        <time>2017-07-23T08:55:07.115Z</time>
      </trkpt>
      <trkpt lat="47.79869" lon="2.18509">
        <ele>113</ele>
        <time>2017-07-23T08:55:08.122Z</time>
      </trkpt>
      <trkpt lat="47.79872" lon="2.185">
        <ele>112</ele>
        <time>2017-07-23T08:55:09.140Z</time>
      </trkpt>
      <trkpt lat="47.79872" lon="2.185">
        <ele>112</ele>
        <time>2017-07-23T08:55:10.128Z</time>
      </trkpt>
      <trkpt lat="47.79879" lon="2.18484">
        <ele>113</ele>
        <time>2017-07-23T08:55:11.137Z</time>
      </trkpt>
      <trkpt lat="47.79879" lon="2.18484">
        <ele>113</ele>
        <time>2017-07-23T08:55:12.113Z</time>
      </trkpt>
      <trkpt lat="47.79886" lon="2.18467">
        <ele>112</ele>
        <time>2017-07-23T08:55:13.126Z</time>
      </trkpt>
      <trkpt lat="47.79886" lon="2.18467">
        <ele>112</ele>
        <time>2017-07-23T08:55:14.112Z</time>
      </trkpt>
      <trkpt lat="47.79891" lon="2.1845">
        <ele>112</ele>
        <time>2017-07-23T08:55:15.108Z</time>
      </trkpt>
      <trkpt lat="47.79891" lon="2.1845">
        <ele>112</ele>
        <time>2017-07-23T08:55:16.121Z</time>
      </trkpt>
      <trkpt lat="47.79895" lon="2.18432">
        <ele>112</ele>
        <time>2017-07-23T08:55:17.128Z</time>
      </trkpt>
      <trkpt lat="47.79895" lon="2.18432">
        <ele>112</ele>
        <time>2017-07-23T08:55:18.143Z</time>
      </trkpt>
      <trkpt lat="47.799" lon="2.18414">
        <ele>112</ele>
        <time>2017-07-23T08:55:19.119Z</time>
      </trkpt>
      <trkpt lat="47.799" lon="2.18414">
        <ele>112</ele>
        <time>2017-07-23T08:55:20.145Z</time>
      </trkpt>
      <trkpt lat="47.79903" lon="2.18397">
        <ele>113</ele>
        <time>2017-07-23T08:55:21.112Z</time>
      </trkpt>
      <trkpt lat="47.79905" lon="2.18388">
        <ele>113</ele>
        <time>2017-07-23T08:55:22.144Z</time>
      </trkpt>
      <trkpt lat="47.79906" lon="2.18378">
        <ele>113</ele>
        <time>2017-07-23T08:55:23.108Z</time>
      </trkpt>
      <trkpt lat="47.79906" lon="2.18378">
        <ele>113</ele>
        <time>2017-07-23T08:55:24.137Z</time>
      </trkpt>
      <trkpt lat="47.7991" lon="2.18359">
        <ele>113</ele>
        <time>2017-07-23T08:55:25.129Z</time>
      </trkpt>
      <trkpt lat="47.7991" lon="2.18359">
        <ele>113</ele>
        <time>2017-07-23T08:55:26.129Z</time>
      </trkpt>
      <trkpt lat="47.79915" lon="2.1834">
        <ele>113</ele>
        <time>2017-07-23T08:55:27.136Z</time>
      </trkpt>
      <trkpt lat="47.79915" lon="2.1834">
        <ele>113</ele>
        <time>2017-07-23T08:55:28.132Z</time>
      </trkpt>
      <trkpt lat="47.79919" lon="2.18321">
        <ele>113</ele>
        <time>2017-07-23T08:55:29.118Z</time>
      </trkpt>
      <trkpt lat="47.79919" lon="2.18321">
        <ele>113</ele>
        <time>2017-07-23T08:55:30.125Z</time>
      </trkpt>
      <trkpt lat="47.79924" lon="2.18302">
        <ele>113</ele>
        <time>2017-07-23T08:55:31.131Z</time>
      </trkpt>
      <trkpt lat="47.79924" lon="2.18302">
        <ele>113</ele>
        <time>2017-07-23T08:55:32.111Z</time>
      </trkpt>
      <trkpt lat="47.79928" lon="2.18283">
        <ele>113</ele>
        <time>2017-07-23T08:55:33.147Z</time>
      </trkpt>
      <trkpt lat="47.79928" lon="2.18283">
        <ele>113</ele>
        <time>2017-07-23T08:55:34.130Z</time>
      </trkpt>
      <trkpt lat="47.79932" lon="2.18266">
        <ele>113</ele>
        <time>2017-07-23T08:55:35.138Z</time>
      </trkpt>
      <trkpt lat="47.79932" lon="2.18266">
        <ele>113</ele>
        <time>2017-07-23T08:55:36.123Z</time>
      </trkpt>
      <trkpt lat="47.79936" lon="2.18248">
        <ele>113</ele>
        <time>2017-07-23T08:55:37.149Z</time>
      </trkpt>
      <trkpt lat="47.79936" lon="2.18248">
        <ele>113</ele>
        <time>2017-07-23T08:55:38.141Z</time>
      </trkpt>
      <trkpt lat="47.79941" lon="2.1823">
        <ele>113</ele>
        <time>2017-07-23T08:55:39.126Z</time>
      </trkpt>
      <trkpt lat="47.79943" lon="2.18221">
        <ele>113</ele>
        <time>2017-07-23T08:55:40.112Z</time>
      </trkpt>
      <trkpt lat="47.79945" lon="2.18212">
        <ele>112</ele>
        <time>2017-07-23T08:55:41.139Z</time>
      </trkpt>
      <trkpt lat="47.79945" lon="2.18212">
        <ele>112</ele>
        <time>2017-07-23T08:55:42.115Z</time>
      </trkpt>
      <trkpt lat="47.79949" lon="2.18194">
        <ele>112</ele>
        <time>2017-07-23T08:55:43.127Z</time>
      </trkpt>
      <trkpt lat="47.79949" lon="2.18194">
        <ele>112</ele>
        <time>2017-07-23T08:55:44.111Z</time>
      </trkpt>
      <trkpt lat="47.79953" lon="2.18175">
        <ele>112</ele>
        <time>2017-07-23T08:55:45.117Z</time>
      </trkpt>
      <trkpt lat="47.79953" lon="2.18175">
        <ele>112</ele>
        <time>2017-07-23T08:55:46.122Z</time>
      </trkpt>
      <trkpt lat="47.79957" lon="2.18155">
        <ele>111</ele>
        <time>2017-07-23T08:55:47.131Z</time>
      </trkpt>
      <trkpt lat="47.79957" lon="2.18155">
        <ele>111</ele>
        <time>2017-07-23T08:55:48.145Z</time>
      </trkpt>
      <trkpt lat="47.79962" lon="2.18135">
        <ele>111</ele>
        <time>2017-07-23T08:55:49.149Z</time>
      </trkpt>
      <trkpt lat="47.79962" lon="2.18135">
        <ele>111</ele>
        <time>2017-07-23T08:55:50.143Z</time>
      </trkpt>
      <trkpt lat="47.79967" lon="2.18114">
        <ele>110</ele>
        <time>2017-07-23T08:55:51.109Z</time>
      </trkpt>
      <trkpt lat="47.79969" lon="2.18103">
        <ele>110</ele>
        <time>2017-07-23T08:55:52.119Z</time>
      </trkpt>
      <trkpt lat="47.79971" lon="2.18092">
        <ele>110</ele>
        <time>2017-07-23T08:55:53.137Z</time>
      </trkpt>
      <trkpt lat="47.79971" lon="2.18092">
        <ele>110</ele>
        <time>2017-07-23T08:55:54.125Z</time>
      </trkpt>
      <trkpt lat="47.79975" lon="2.18068">
        <ele>109</ele>
        <time>2017-07-23T08:55:55.131Z</time>
      </trkpt>
      <trkpt lat="47.79975" lon="2.18068">
        <ele>109</ele>
        <time>2017-07-23T08:55:56.133Z</time>
      </trkpt>
      <trkpt lat="47.7998" lon="2.18045">
        <ele>109</ele>
        <time>2017-07-23T08:55:57.118Z</time>
      </trkpt>
      <trkpt lat="47.7998" lon="2.18045">
        <ele>109</ele>
        <time>2017-07-23T08:55:58.131Z</time>
      </trkpt>
      <trkpt lat="47.79985" lon="2.18025">
        <ele>109</ele>
        <time>2017-07-23T08:55:59.112Z</time>
      </trkpt>
      <trkpt lat="47.79985" lon="2.18025">
        <ele>109</ele>
        <time>2017-07-23T08:56:00.141Z</time>
      </trkpt>
      <trkpt lat="47.7999" lon="2.18004">
        <ele>108</ele>
        <time>2017-07-23T08:56:01.118Z</time>
      </trkpt>
      <trkpt lat="47.7999" lon="2.18004">
        <ele>108</ele>
        <time>2017-07-23T08:56:02.128Z</time>
      </trkpt>
      <trkpt lat="47.79995" lon="2.17983">
        <ele>108</ele>
        <time>2017-07-23T08:56:03.134Z</time>
      </trkpt>
      <trkpt lat="47.79998" lon="2.17972">
        <ele>109</ele>
        <time>2017-07-23T08:56:04.108Z</time>
      </trkpt>
      <trkpt lat="47.8" lon="2.17961">
        <ele>109</ele>
        <time>2017-07-23T08:56:05.134Z</time>
      </trkpt>
      <trkpt lat="47.8" lon="2.17961">
        <ele>109</ele>
        <time>2017-07-23T08:56:06.123Z</time>
      </trkpt>
      <trkpt lat="47.80006" lon="2.1794">
        <ele>110</ele>
        <time>2017-07-23T08:56:07.118Z</time>
      </trkpt>
      <trkpt lat="47.80006" lon="2.1794">
        <ele>110</ele>
        <time>2017-07-23T08:56:08.134Z</time>
      </trkpt>
      <trkpt lat="47.80011" lon="2.17918">
        <ele>111</ele>
        <time>2017-07-23T08:56:09.141Z</time>
      </trkpt>
      <trkpt lat="47.80013" lon="2.17907">
        <ele>111</ele>
        <time>2017-07-23T08:56:10.108Z</time>
      </trkpt>
      <trkpt lat="47.80013" lon="2.17907">
        <ele>111</ele>
        <time>2017-07-23T08:56:11.112Z</time>
      </trkpt>
      <trkpt lat="47.80016" lon="2.17886">
        <ele>112</ele>
        <time>2017-07-23T08:56:12.121Z</time>
      </trkpt>
      <trkpt lat="47.80016" lon="2.17886">
        <ele>112</ele>
        <time>2017-07-23T08:56:13.132Z</time>
      </trkpt>
      <trkpt lat="47.80021" lon="2.17866">
        <ele>112</ele>
        <time>2017-07-23T08:56:14.123Z</time>
      </trkpt>
      <trkpt lat="47.80024" lon="2.17857">
        <ele>112</ele>
        <time>2017-07-23T08:56:15.135Z</time>
      </trkpt>
      <trkpt lat="47.80024" lon="2.17857">
        <ele>112</ele>
        <time>2017-07-23T08:56:16.122Z</time>
      </trkpt>
      <trkpt lat="47.80029" lon="2.17836">
        <ele>113</ele>
        <time>2017-07-23T08:56:17.119Z</time>
      </trkpt>
      <trkpt lat="47.80029" lon="2.17836">
        <ele>113</ele>
        <time>2017-07-23T08:56:18.110Z</time>
      </trkpt>
      <trkpt lat="47.80033" lon="2.17818">
        <ele>114</ele>
        <time>2017-07-23T08:56:19.121Z</time>
      </trkpt>
      <trkpt lat="47.80033" lon="2.17818">
        <ele>114</ele>
        <time>2017-07-23T08:56:20.138Z</time>
      </trkpt>
      <trkpt lat="47.80039" lon="2.17798">
        <ele>114</ele>
        <time>2017-07-23T08:56:21.118Z</time>
      </trkpt>
      <trkpt lat="47.80039" lon="2.17798">
        <ele>114</ele>
        <time>2017-07-23T08:56:22.142Z</time>
      </trkpt>
      <trkpt lat="47.80047" lon="2.1778">
        <ele>114</ele>
        <time>2017-07-23T08:56:23.110Z</time>
      </trkpt>
      <trkpt lat="47.80047" lon="2.1778">
        <ele>114</ele>
        <time>2017-07-23T08:56:24.138Z</time>
      </trkpt>
      <trkpt lat="47.80056" lon="2.1776">
        <ele>114</ele>
        <time>2017-07-23T08:56:25.115Z</time>
      </trkpt>
      <trkpt lat="47.80056" lon="2.1776">
        <ele>114</ele>
        <time>2017-07-23T08:56:26.143Z</time>
      </trkpt>
      <trkpt lat="47.80066" lon="2.1774">
        <ele>115</ele>
        <time>2017-07-23T08:56:27.109Z</time>
      </trkpt>
      <trkpt lat="47.80069" lon="2.17732">
        <ele>116</ele>
        <time>2017-07-23T08:56:28.140Z</time>
      </trkpt>
      <trkpt lat="47.80073" lon="2.17724">
        <ele>116</ele>
        <time>2017-07-23T08:56:29.124Z</time>
      </trkpt>
      <trkpt lat="47.80078" lon="2.17714">
        <ele>117</ele>
        <time>2017-07-23T08:56:30.111Z</time>
      </trkpt>
      <trkpt lat="47.80078" lon="2.17714">
        <ele>117</ele>
        <time>2017-07-23T08:56:31.127Z</time>
      </trkpt>
      <trkpt lat="47.80085" lon="2.17696">
        <ele>117</ele>
        <time>2017-07-23T08:56:32.150Z</time>
      </trkpt>
      <trkpt lat="47.80085" lon="2.17696">
        <ele>117</ele>
        <time>2017-07-23T08:56:33.134Z</time>
      </trkpt>
      <trkpt lat="47.8009" lon="2.17679">
        <ele>118</ele>
        <time>2017-07-23T08:56:34.117Z</time>
      </trkpt>
      <trkpt lat="47.80093" lon="2.1767">
        <ele>118</ele>
        <time>2017-07-23T08:56:35.137Z</time>
      </trkpt>
      <trkpt lat="47.80093" lon="2.1767">
        <ele>118</ele>
        <time>2017-07-23T08:56:36.126Z</time>
      </trkpt>
      <trkpt lat="47.80097" lon="2.17653">
        <ele>119</ele>
        <time>2017-07-23T08:56:37.141Z</time>
      </trkpt>
      <trkpt lat="47.80098" lon="2.17646">
        <ele>119</ele>
        <time>2017-07-23T08:56:38.143Z</time>
      </trkpt>
      <trkpt lat="47.80098" lon="2.17646">
        <ele>119</ele>
        <time>2017-07-23T08:56:39.143Z</time>
      </trkpt>
      <trkpt lat="47.801" lon="2.17631">
        <ele>120</ele>
        <time>2017-07-23T08:56:40.109Z</time>
      </trkpt>
      <trkpt lat="47.801" lon="2.17631">
        <ele>120</ele>
        <time>2017-07-23T08:56:41.129Z</time>
      </trkpt>
      <trkpt lat="47.80102" lon="2.17615">
        <ele>121</ele>
        <time>2017-07-23T08:56:42.136Z</time>
      </trkpt>
      <trkpt lat="47.80102" lon="2.17615">
        <ele>121</ele>
        <time>2017-07-23T08:56:43.132Z</time>
      </trkpt>
      <trkpt lat="47.80104" lon="2.17598">
        <ele>121</ele>
        <time>2017-07-23T08:56:44.114Z</time>
      </trkpt>
      <trkpt lat="47.80104" lon="2.17598">
        <ele>121</ele>
        <time>2017-07-23T08:56:45.141Z</time>
      </trkpt>
      <trkpt lat="47.80107" lon="2.17581">
        <ele>122</ele>
        <time>2017-07-23T08:56:46.147Z</time>
      </trkpt>
      <trkpt lat="47.80107" lon="2.17574">
        <ele>123</ele>
        <time>2017-07-23T08:56:47.118Z</time>
      </trkpt>
      <trkpt lat="47.80107" lon="2.17574">
        <ele>123</ele>
        <time>2017-07-23T08:56:48.133Z</time>
      </trkpt>
      <trkpt lat="47.80109" lon="2.17556">
        <ele>124</ele>
        <time>2017-07-23T08:56:49.140Z</time>
      </trkpt>
      <trkpt lat="47.80109" lon="2.17556">
        <ele>124</ele>
        <time>2017-07-23T08:56:50.131Z</time>
      </trkpt>
      <trkpt lat="47.80113" lon="2.17535">
        <ele>124</ele>
        <time>2017-07-23T08:56:51.128Z</time>
      </trkpt>
      <trkpt lat="47.80113" lon="2.17535">
        <ele>124</ele>
        <time>2017-07-23T08:56:52.139Z</time>
      </trkpt>
      <trkpt lat="47.80117" lon="2.17515">
        <ele>125</ele>
        <time>2017-07-23T08:56:53.145Z</time>
      </trkpt>
      <trkpt lat="47.80117" lon="2.17515">
        <ele>125</ele>
        <time>2017-07-23T08:56:54.133Z</time>
      </trkpt>
      <trkpt lat="47.8012" lon="2.17495">
        <ele>125</ele>
        <time>2017-07-23T08:56:55.118Z</time>
      </trkpt>
      <trkpt lat="47.8012" lon="2.17495">
        <ele>125</ele>
        <time>2017-07-23T08:56:56.108Z</time>
      </trkpt>
      <trkpt lat="47.80125" lon="2.17468">
        <ele>126</ele>
        <time>2017-07-23T08:56:57.114Z</time>
      </trkpt>
      <trkpt lat="47.80125" lon="2.17468">
        <ele>126</ele>
        <time>2017-07-23T08:56:58.146Z</time>
      </trkpt>
      <trkpt lat="47.80129" lon="2.17446">
        <ele>126</ele>
        <time>2017-07-23T08:56:59.116Z</time>
      </trkpt>
      <trkpt lat="47.80129" lon="2.17446">
        <ele>126</ele>
        <time>2017-07-23T08:57:00.145Z</time>
      </trkpt>
      <trkpt lat="47.80132" lon="2.17427">
        <ele>127</ele>
        <time>2017-07-23T08:57:01.111Z</time>
      </trkpt>
      <trkpt lat="47.80132" lon="2.17427">
        <ele>127</ele>
        <time>2017-07-23T08:57:02.131Z</time>
      </trkpt>
      <trkpt lat="47.80136" lon="2.17403">
        <ele>126</ele>
        <time>2017-07-23T08:57:03.118Z</time>
      </trkpt>
      <trkpt lat="47.80138" lon="2.17394">
        <ele>127</ele>
        <time>2017-07-23T08:57:04.135Z</time>
      </trkpt>
      <trkpt lat="47.80138" lon="2.17394">
        <ele>127</ele>
        <time>2017-07-23T08:57:05.112Z</time>
      </trkpt>
      <trkpt lat="47.80142" lon="2.17375">
        <ele>127</ele>
        <time>2017-07-23T08:57:06.118Z</time>
      </trkpt>
      <trkpt lat="47.80142" lon="2.17375">
        <ele>127</ele>
        <time>2017-07-23T08:57:07.127Z</time>
      </trkpt>
      <trkpt lat="47.80144" lon="2.17356">
        <ele>127</ele>
        <time>2017-07-23T08:57:08.134Z</time>
      </trkpt>
      <trkpt lat="47.80146" lon="2.17346">
        <ele>127</ele>
        <time>2017-07-23T08:57:09.118Z</time>
      </trkpt>
      <trkpt lat="47.80146" lon="2.17346">
        <ele>127</ele>
        <time>2017-07-23T08:57:10.133Z</time>
      </trkpt>
      <trkpt lat="47.80149" lon="2.17328">
        <ele>127</ele>
        <time>2017-07-23T08:57:11.140Z</time>
      </trkpt>
      <trkpt lat="47.80149" lon="2.17328">
        <ele>127</ele>
        <time>2017-07-23T08:57:12.145Z</time>
      </trkpt>
      <trkpt lat="47.80153" lon="2.17308">
        <ele>127</ele>
        <time>2017-07-23T08:57:13.130Z</time>
      </trkpt>
      <trkpt lat="47.80153" lon="2.17308">
        <ele>127</ele>
        <time>2017-07-23T08:57:14.108Z</time>
      </trkpt>
      <trkpt lat="47.80157" lon="2.17287">
        <ele>127</ele>
        <time>2017-07-23T08:57:15.115Z</time>
      </trkpt>
      <trkpt lat="47.80157" lon="2.17287">
        <ele>127</ele>
        <time>2017-07-23T08:57:16.138Z</time>
      </trkpt>
      <trkpt lat="47.80161" lon="2.17266">
        <ele>126</ele>
        <time>2017-07-23T08:57:17.150Z</time>
      </trkpt>
      <trkpt lat="47.80161" lon="2.17266">
        <ele>126</ele>
        <time>2017-07-23T08:57:18.128Z</time>
      </trkpt>
      <trkpt lat="47.80165" lon="2.17246">
        <ele>126</ele>
        <time>2017-07-23T08:57:19.134Z</time>
      </trkpt>
      <trkpt lat="47.80168" lon="2.17235">
        <ele>126</ele>
        <time>2017-07-23T08:57:20.134Z</time>
      </trkpt>
      <trkpt lat="47.80168" lon="2.17235">
        <ele>126</ele>
        <time>2017-07-23T08:57:21.130Z</time>
      </trkpt>
      <trkpt lat="47.80171" lon="2.17215">
        <ele>125</ele>
        <time>2017-07-23T08:57:22.138Z</time>
      </trkpt>
      <trkpt lat="47.80173" lon="2.17205">
        <ele>124</ele>
        <time>2017-07-23T08:57:23.118Z</time>
      </trkpt>
      <trkpt lat="47.80173" lon="2.17205">
        <ele>124</ele>
        <time>2017-07-23T08:57:24.137Z</time>
      </trkpt>
      <trkpt lat="47.80178" lon="2.17185">
        <ele>124</ele>
        <time>2017-07-23T08:57:25.143Z</time>
      </trkpt>
      <trkpt lat="47.80179" lon="2.17175">
        <ele>124</ele>
        <time>2017-07-23T08:57:26.120Z</time>
      </trkpt>
      <trkpt lat="47.80179" lon="2.17175">
        <ele>124</ele>
        <time>2017-07-23T08:57:27.135Z</time>
      </trkpt>
      <trkpt lat="47.80183" lon="2.17153">
        <ele>124</ele>
        <time>2017-07-23T08:57:28.141Z</time>
      </trkpt>
      <trkpt lat="47.80183" lon="2.17153">
        <ele>124</ele>
        <time>2017-07-23T08:57:29.127Z</time>
      </trkpt>
      <trkpt lat="47.80186" lon="2.1713">
        <ele>124</ele>
        <time>2017-07-23T08:57:30.118Z</time>
      </trkpt>
      <trkpt lat="47.80186" lon="2.1713">
        <ele>124</ele>
        <time>2017-07-23T08:57:31.131Z</time>
      </trkpt>
      <trkpt lat="47.8019" lon="2.17108">
        <ele>123</ele>
        <time>2017-07-23T08:57:32.137Z</time>
      </trkpt>
      <trkpt lat="47.8019" lon="2.17108">
        <ele>123</ele>
        <time>2017-07-23T08:57:33.117Z</time>
      </trkpt>
      <trkpt lat="47.80194" lon="2.17087">
        <ele>122</ele>
        <time>2017-07-23T08:57:34.118Z</time>
      </trkpt>
      <trkpt lat="47.80196" lon="2.17077">
        <ele>122</ele>
        <time>2017-07-23T08:57:35.113Z</time>
      </trkpt>
      <trkpt lat="47.80196" lon="2.17077">
        <ele>122</ele>
        <time>2017-07-23T08:57:36.141Z</time>
      </trkpt>
      <trkpt lat="47.80199" lon="2.17059">
        <ele>121</ele>
        <time>2017-07-23T08:57:37.146Z</time>
      </trkpt>
      <trkpt lat="47.80201" lon="2.1705">
        <ele>121</ele>
        <time>2017-07-23T08:57:38.121Z</time>
      </trkpt>
      <trkpt lat="47.80201" lon="2.1705">
        <ele>121</ele>
        <time>2017-07-23T08:57:39.115Z</time>
      </trkpt>
      <trkpt lat="47.80205" lon="2.17033">
        <ele>121</ele>
        <time>2017-07-23T08:57:40.125Z</time>
      </trkpt>
      <trkpt lat="47.80205" lon="2.17033">
        <ele>121</ele>
        <time>2017-07-23T08:57:41.144Z</time>
      </trkpt>
      <trkpt lat="47.80207" lon="2.17015">
        <ele>120</ele>
        <time>2017-07-23T08:57:42.111Z</time>
      </trkpt>
      <trkpt lat="47.80209" lon="2.17006">
        <ele>120</ele>
        <time>2017-07-23T08:57:43.118Z</time>
      </trkpt>
      <trkpt lat="47.80209" lon="2.17006">
        <ele>120</ele>
        <time>2017-07-23T08:57:44.143Z</time>
      </trkpt>
      <trkpt lat="47.80211" lon="2.16987">
        <ele>119</ele>
        <time>2017-07-23T08:57:45.109Z</time>
      </trkpt>
      <trkpt lat="47.80212" lon="2.16978">
        <ele>119</ele>
        <time>2017-07-23T08:57:46.149Z</time>
      </trkpt>
      <trkpt lat="47.80213" lon="2.16967">
        <ele>119</ele>
        <time>2017-07-23T08:57:47.118Z</time>
      </trkpt>
      <trkpt lat="47.80213" lon="2.16967">
        <ele>119</ele>
        <time>2017-07-23T08:57:48.146Z</time>
      </trkpt>
      <trkpt lat="47.80215" lon="2.16945">
        <ele>118</ele>
        <time>2017-07-23T08:57:49.109Z</time>
      </trkpt>
      <trkpt lat="47.80215" lon="2.16934">
        <ele>118</ele>
        <time>2017-07-23T08:57:50.143Z</time>
      </trkpt>
      <trkpt lat="47.80215" lon="2.16934">
        <ele>118</ele>
        <time>2017-07-23T08:57:51.141Z</time>
      </trkpt>
      <trkpt lat="47.80221" lon="2.16915">
        <ele>117</ele>
        <time>2017-07-23T08:57:52.147Z</time>
      </trkpt>
      <trkpt lat="47.80224" lon="2.16907">
        <ele>117</ele>
        <time>2017-07-23T08:57:53.125Z</time>
      </trkpt>
      <trkpt lat="47.80224" lon="2.16907">
        <ele>117</ele>
        <time>2017-07-23T08:57:54.111Z</time>
      </trkpt>
      <trkpt lat="47.80229" lon="2.16889">
        <ele>117</ele>
        <time>2017-07-23T08:57:55.118Z</time>
      </trkpt>
      <trkpt lat="47.80229" lon="2.16889">
        <ele>117</ele>
        <time>2017-07-23T08:57:56.139Z</time>
      </trkpt>
      <trkpt lat="47.80233" lon="2.16869">
        <ele>117</ele>
        <time>2017-07-23T08:57:57.147Z</time>
      </trkpt>
      <trkpt lat="47.80233" lon="2.16869">
        <ele>117</ele>
        <time>2017-07-23T08:57:58.135Z</time>
      </trkpt>
      <trkpt lat="47.80237" lon="2.16849">
        <ele>117</ele>
        <time>2017-07-23T08:57:59.118Z</time>
      </trkpt>
      <trkpt lat="47.80237" lon="2.16849">
        <ele>117</ele>
        <time>2017-07-23T08:58:00.144Z</time>
      </trkpt>
      <trkpt lat="47.80241" lon="2.16828">
        <ele>116</ele>
        <time>2017-07-23T08:58:01.110Z</time>
      </trkpt>
      <trkpt lat="47.80243" lon="2.16817">
        <ele>117</ele>
        <time>2017-07-23T08:58:02.137Z</time>
      </trkpt>
      <trkpt lat="47.80243" lon="2.16817">
        <ele>117</ele>
        <time>2017-07-23T08:58:03.143Z</time>
      </trkpt>
      <trkpt lat="47.80247" lon="2.16797">
        <ele>116</ele>
        <time>2017-07-23T08:58:04.109Z</time>
      </trkpt>
      <trkpt lat="47.80249" lon="2.16788">
        <ele>116</ele>
        <time>2017-07-23T08:58:05.139Z</time>
      </trkpt>
      <trkpt lat="47.80249" lon="2.16788">
        <ele>116</ele>
        <time>2017-07-23T08:58:06.143Z</time>
      </trkpt>
      <trkpt lat="47.80253" lon="2.16769">
        <ele>116</ele>
        <time>2017-07-23T08:58:07.110Z</time>
      </trkpt>
      <trkpt lat="47.80255" lon="2.16759">
        <ele>116</ele>
        <time>2017-07-23T08:58:08.144Z</time>
      </trkpt>
      <trkpt lat="47.80255" lon="2.16759">
        <ele>116</ele>
        <time>2017-07-23T08:58:09.120Z</time>
      </trkpt>
      <trkpt lat="47.80259" lon="2.16739">
        <ele>116</ele>
        <time>2017-07-23T08:58:10.128Z</time>
      </trkpt>
      <trkpt lat="47.80261" lon="2.1673">
        <ele>116</ele>
        <time>2017-07-23T08:58:11.122Z</time>
      </trkpt>
      <trkpt lat="47.80261" lon="2.1673">
        <ele>116</ele>
        <time>2017-07-23T08:58:12.145Z</time>
      </trkpt>
      <trkpt lat="47.80265" lon="2.16711">
        <ele>116</ele>
        <time>2017-07-23T08:58:13.110Z</time>
      </trkpt>
      <trkpt lat="47.80265" lon="2.16711">
        <ele>116</ele>
        <time>2017-07-23T08:58:14.139Z</time>
      </trkpt>
      <trkpt lat="47.80269" lon="2.16691">
        <ele>116</ele>
        <time>2017-07-23T08:58:15.118Z</time>
      </trkpt>
      <trkpt lat="47.80269" lon="2.16691">
        <ele>116</ele>
        <time>2017-07-23T08:58:16.126Z</time>
      </trkpt>
      <trkpt lat="47.80273" lon="2.16673">
        <ele>116</ele>
        <time>2017-07-23T08:58:17.133Z</time>
      </trkpt>
      <trkpt lat="47.80273" lon="2.16673">
        <ele>116</ele>
        <time>2017-07-23T08:58:18.143Z</time>
      </trkpt>
      <trkpt lat="47.80277" lon="2.16652">
        <ele>116</ele>
        <time>2017-07-23T08:58:19.118Z</time>
      </trkpt>
      <trkpt lat="47.80277" lon="2.16652">
        <ele>116</ele>
        <time>2017-07-23T08:58:20.116Z</time>
      </trkpt>
      <trkpt lat="47.80281" lon="2.16632">
        <ele>116</ele>
        <time>2017-07-23T08:58:21.123Z</time>
      </trkpt>
      <trkpt lat="47.80283" lon="2.16622">
        <ele>116</ele>
        <time>2017-07-23T08:58:22.108Z</time>
      </trkpt>
      <trkpt lat="47.80286" lon="2.16611">
        <ele>116</ele>
        <time>2017-07-23T08:58:23.129Z</time>
      </trkpt>
      <trkpt lat="47.80286" lon="2.16611">
        <ele>116</ele>
        <time>2017-07-23T08:58:24.108Z</time>
      </trkpt>
      <trkpt lat="47.8029" lon="2.16591">
        <ele>117</ele>
        <time>2017-07-23T08:58:25.114Z</time>
      </trkpt>
      <trkpt lat="47.8029" lon="2.16591">
        <ele>117</ele>
        <time>2017-07-23T08:58:26.133Z</time>
      </trkpt>
      <trkpt lat="47.80294" lon="2.16572">
        <ele>117</ele>
        <time>2017-07-23T08:58:27.140Z</time>
      </trkpt>
      <trkpt lat="47.80294" lon="2.16572">
        <ele>117</ele>
        <time>2017-07-23T08:58:28.129Z</time>
      </trkpt>
      <trkpt lat="47.80299" lon="2.16553">
        <ele>117</ele>
        <time>2017-07-23T08:58:29.118Z</time>
      </trkpt>
      <trkpt lat="47.80299" lon="2.16553">
        <ele>117</ele>
        <time>2017-07-23T08:58:30.147Z</time>
      </trkpt>
      <trkpt lat="47.80303" lon="2.16535">
        <ele>117</ele>
        <time>2017-07-23T08:58:31.114Z</time>
      </trkpt>
      <trkpt lat="47.80303" lon="2.16535">
        <ele>117</ele>
        <time>2017-07-23T08:58:32.139Z</time>
      </trkpt>
      <trkpt lat="47.80306" lon="2.16518">
        <ele>118</ele>
        <time>2017-07-23T08:58:33.118Z</time>
      </trkpt>
      <trkpt lat="47.80307" lon="2.16508">
        <ele>118</ele>
        <time>2017-07-23T08:58:34.127Z</time>
      </trkpt>
      <trkpt lat="47.80307" lon="2.16508">
        <ele>118</ele>
        <time>2017-07-23T08:58:35.108Z</time>
      </trkpt>
      <trkpt lat="47.80313" lon="2.16485">
        <ele>117</ele>
        <time>2017-07-23T08:58:36.121Z</time>
      </trkpt>
      <trkpt lat="47.80315" lon="2.16475">
        <ele>117</ele>
        <time>2017-07-23T08:58:37.128Z</time>
      </trkpt>
      <trkpt lat="47.80317" lon="2.16466">
        <ele>117</ele>
        <time>2017-07-23T08:58:38.143Z</time>
      </trkpt>
      <trkpt lat="47.8032" lon="2.16456">
        <ele>117</ele>
        <time>2017-07-23T08:58:39.137Z</time>
      </trkpt>
      <trkpt lat="47.8032" lon="2.16456">
        <ele>117</ele>
        <time>2017-07-23T08:58:40.126Z</time>
      </trkpt>
      <trkpt lat="47.80325" lon="2.16437">
        <ele>117</ele>
        <time>2017-07-23T08:58:41.133Z</time>
      </trkpt>
      <trkpt lat="47.80325" lon="2.16437">
        <ele>117</ele>
        <time>2017-07-23T08:58:42.122Z</time>
      </trkpt>
      <trkpt lat="47.80329" lon="2.16419">
        <ele>117</ele>
        <time>2017-07-23T08:58:43.111Z</time>
      </trkpt>
      <trkpt lat="47.80329" lon="2.16419">
        <ele>117</ele>
        <time>2017-07-23T08:58:44.123Z</time>
      </trkpt>
      <trkpt lat="47.80334" lon="2.16401">
        <ele>116</ele>
        <time>2017-07-23T08:58:45.130Z</time>
      </trkpt>
      <trkpt lat="47.80334" lon="2.16401">
        <ele>116</ele>
        <time>2017-07-23T08:58:46.111Z</time>
      </trkpt>
      <trkpt lat="47.80338" lon="2.16382">
        <ele>116</ele>
        <time>2017-07-23T08:58:47.121Z</time>
      </trkpt>
      <trkpt lat="47.80338" lon="2.16382">
        <ele>116</ele>
        <time>2017-07-23T08:58:48.143Z</time>
      </trkpt>
      <trkpt lat="47.80342" lon="2.16366">
        <ele>116</ele>
        <time>2017-07-23T08:58:49.109Z</time>
      </trkpt>
      <trkpt lat="47.80342" lon="2.16366">
        <ele>116</ele>
        <time>2017-07-23T08:58:50.138Z</time>
      </trkpt>
      <trkpt lat="47.80345" lon="2.16353">
        <ele>116</ele>
        <time>2017-07-23T08:58:51.118Z</time>
      </trkpt>
      <trkpt lat="47.80347" lon="2.16348">
        <ele>116</ele>
        <time>2017-07-23T08:58:52.113Z</time>
      </trkpt>
      <trkpt lat="47.80347" lon="2.16343">
        <ele>115</ele>
        <time>2017-07-23T08:58:53.147Z</time>
      </trkpt>
      <trkpt lat="47.80347" lon="2.16343">
        <ele>115</ele>
        <time>2017-07-23T08:58:54.117Z</time>
      </trkpt>
      <trkpt lat="47.80348" lon="2.16337">
        <ele>116</ele>
        <time>2017-07-23T08:58:55.125Z</time>
      </trkpt>
      <trkpt lat="47.80348" lon="2.16337">
        <ele>116</ele>
        <time>2017-07-23T08:58:56.138Z</time>
      </trkpt>
      <trkpt lat="47.80348" lon="2.16333">
        <ele>116</ele>
        <time>2017-07-23T08:58:57.118Z</time>
      </trkpt>
      <trkpt lat="47.80348" lon="2.16332">
        <ele>116</ele>
        <time>2017-07-23T08:58:58.116Z</time>
      </trkpt>
      <trkpt lat="47.80349" lon="2.16329">
        <ele>115</ele>
        <time>2017-07-23T08:58:59.142Z</time>
      </trkpt>
      <trkpt lat="47.80349" lon="2.16329">
        <ele>115</ele>
        <time>2017-07-23T08:59:00.131Z</time>
      </trkpt>
      <trkpt lat="47.80352" lon="2.16321">
        <ele>115</ele>
        <time>2017-07-23T08:59:01.136Z</time>
      </trkpt>
      <trkpt lat="47.80352" lon="2.16321">
        <ele>115</ele>
        <time>2017-07-23T08:59:02.129Z</time>
      </trkpt>
      <trkpt lat="47.80352" lon="2.16312">
        <ele>115</ele>
        <time>2017-07-23T08:59:03.147Z</time>
      </trkpt>
      <trkpt lat="47.80352" lon="2.16312">
        <ele>115</ele>
        <time>2017-07-23T08:59:04.111Z</time>
      </trkpt>
      <trkpt lat="47.80352" lon="2.16303">
        <ele>114</ele>
        <time>2017-07-23T08:59:05.126Z</time>
      </trkpt>
      <trkpt lat="47.80352" lon="2.16303">
        <ele>114</ele>
        <time>2017-07-23T08:59:06.121Z</time>
      </trkpt>
      <trkpt lat="47.80353" lon="2.16298">
        <ele>114</ele>
        <time>2017-07-23T08:59:07.109Z</time>
      </trkpt>
      <trkpt lat="47.80353" lon="2.16298">
        <ele>114</ele>
        <time>2017-07-23T08:59:08.132Z</time>
      </trkpt>
      <trkpt lat="47.80354" lon="2.16293">
        <ele>114</ele>
        <time>2017-07-23T08:59:09.139Z</time>
      </trkpt>
      <trkpt lat="47.80354" lon="2.16293">
        <ele>114</ele>
        <time>2017-07-23T08:59:10.127Z</time>
      </trkpt>
      <trkpt lat="47.80355" lon="2.1629">
        <ele>114</ele>
        <time>2017-07-23T08:59:11.149Z</time>
      </trkpt>
      <trkpt lat="47.80355" lon="2.1629">
        <ele>114</ele>
        <time>2017-07-23T08:59:12.130Z</time>
      </trkpt>
      <trkpt lat="47.80355" lon="2.16287">
        <ele>114</ele>
        <time>2017-07-23T08:59:13.141Z</time>
      </trkpt>
      <trkpt lat="47.80355" lon="2.16287">
        <ele>114</ele>
        <time>2017-07-23T08:59:14.146Z</time>
      </trkpt>
      <trkpt lat="47.80355" lon="2.16287">
        <ele>114</ele>
        <time>2017-07-23T08:59:15.128Z</time>
      </trkpt>
      <trkpt lat="47.80362" lon="2.16269">
        <ele>107</ele>
        <time>2017-07-23T08:59:16.133Z</time>
      </trkpt>
      <trkpt lat="47.80362" lon="2.16269">
        <ele>107</ele>
        <time>2017-07-23T08:59:17.123Z</time>
      </trkpt>
      <trkpt lat="47.80363" lon="2.16261">
        <ele>107</ele>
        <time>2017-07-23T08:59:18.128Z</time>
      </trkpt>
      <trkpt lat="47.80363" lon="2.16257">
        <ele>107</ele>
        <time>2017-07-23T08:59:19.118Z</time>
      </trkpt>
      <trkpt lat="47.80363" lon="2.16257">
        <ele>107</ele>
        <time>2017-07-23T08:59:20.116Z</time>
      </trkpt>
      <trkpt lat="47.80364" lon="2.16248">
        <ele>108</ele>
        <time>2017-07-23T08:59:21.124Z</time>
      </trkpt>
      <trkpt lat="47.80365" lon="2.16243">
        <ele>108</ele>
        <time>2017-07-23T08:59:22.109Z</time>
      </trkpt>
      <trkpt lat="47.80365" lon="2.16243">
        <ele>108</ele>
        <time>2017-07-23T08:59:23.144Z</time>
      </trkpt>
      <trkpt lat="47.80367" lon="2.16234">
        <ele>108</ele>
        <time>2017-07-23T08:59:24.110Z</time>
      </trkpt>
      <trkpt lat="47.80367" lon="2.16234">
        <ele>108</ele>
        <time>2017-07-23T08:59:25.131Z</time>
      </trkpt>
      <trkpt lat="47.80368" lon="2.16225">
        <ele>108</ele>
        <time>2017-07-23T08:59:26.131Z</time>
      </trkpt>
      <trkpt lat="47.80368" lon="2.16225">
        <ele>108</ele>
        <time>2017-07-23T08:59:27.144Z</time>
      </trkpt>
      <trkpt lat="47.80371" lon="2.16215">
        <ele>109</ele>
        <time>2017-07-23T08:59:28.121Z</time>
      </trkpt>
      <trkpt lat="47.80371" lon="2.16215">
        <ele>109</ele>
        <time>2017-07-23T08:59:29.144Z</time>
      </trkpt>
      <trkpt lat="47.80374" lon="2.16204">
        <ele>109</ele>
        <time>2017-07-23T08:59:30.109Z</time>
      </trkpt>
      <trkpt lat="47.80374" lon="2.16204">
        <ele>109</ele>
        <time>2017-07-23T08:59:31.144Z</time>
      </trkpt>
      <trkpt lat="47.80378" lon="2.16193">
        <ele>109</ele>
        <time>2017-07-23T08:59:32.112Z</time>
      </trkpt>
      <trkpt lat="47.80378" lon="2.16193">
        <ele>109</ele>
        <time>2017-07-23T08:59:33.130Z</time>
      </trkpt>
      <trkpt lat="47.80381" lon="2.16181">
        <ele>109</ele>
        <time>2017-07-23T08:59:34.109Z</time>
      </trkpt>
      <trkpt lat="47.80381" lon="2.16181">
        <ele>109</ele>
        <time>2017-07-23T08:59:35.108Z</time>
      </trkpt>
      <trkpt lat="47.80383" lon="2.16169">
        <ele>110</ele>
        <time>2017-07-23T08:59:36.116Z</time>
      </trkpt>
      <trkpt lat="47.80383" lon="2.16169">
        <ele>110</ele>
        <time>2017-07-23T08:59:37.141Z</time>
      </trkpt>
      <trkpt lat="47.80384" lon="2.16157">
        <ele>110</ele>
        <time>2017-07-23T08:59:38.116Z</time>
      </trkpt>
      <trkpt lat="47.80384" lon="2.16157">
        <ele>110</ele>
        <time>2017-07-23T08:59:39.126Z</time>
      </trkpt>
      <trkpt lat="47.80386" lon="2.16145">
        <ele>111</ele>
        <time>2017-07-23T08:59:40.142Z</time>
      </trkpt>
      <trkpt lat="47.80386" lon="2.16138">
        <ele>111</ele>
        <time>2017-07-23T08:59:41.119Z</time>
      </trkpt>
      <trkpt lat="47.80386" lon="2.16138">
        <ele>111</ele>
        <time>2017-07-23T08:59:42.147Z</time>
      </trkpt>
      <trkpt lat="47.80387" lon="2.16127">
        <ele>112</ele>
        <time>2017-07-23T08:59:43.116Z</time>
      </trkpt>
      <trkpt lat="47.80388" lon="2.16124">
        <ele>112</ele>
        <time>2017-07-23T08:59:44.129Z</time>
      </trkpt>
      <trkpt lat="47.80388" lon="2.16124">
        <ele>112</ele>
        <time>2017-07-23T08:59:45.146Z</time>
      </trkpt>
      <trkpt lat="47.8039" lon="2.16113">
        <ele>113</ele>
        <time>2017-07-23T08:59:46.129Z</time>
      </trkpt>
      <trkpt lat="47.80391" lon="2.16107">
        <ele>113</ele>
        <time>2017-07-23T08:59:47.121Z</time>
      </trkpt>
      <trkpt lat="47.80391" lon="2.16107">
        <ele>113</ele>
        <time>2017-07-23T08:59:48.140Z</time>
      </trkpt>
      <trkpt lat="47.80394" lon="2.16089">
        <ele>113</ele>
        <time>2017-07-23T08:59:49.109Z</time>
      </trkpt>
      <trkpt lat="47.80395" lon="2.16079">
        <ele>114</ele>
        <time>2017-07-23T08:59:50.142Z</time>
      </trkpt>
      <trkpt lat="47.80395" lon="2.16079">
        <ele>114</ele>
        <time>2017-07-23T08:59:51.120Z</time>
      </trkpt>
      <trkpt lat="47.80397" lon="2.16062">
        <ele>114</ele>
        <time>2017-07-23T08:59:52.128Z</time>
      </trkpt>
      <trkpt lat="47.80397" lon="2.16062">
        <ele>114</ele>
        <time>2017-07-23T08:59:53.144Z</time>
      </trkpt>
      <trkpt lat="47.804" lon="2.16044">
        <ele>114</ele>
        <time>2017-07-23T08:59:54.116Z</time>
      </trkpt>
      <trkpt lat="47.80401" lon="2.16036">
        <ele>115</ele>
        <time>2017-07-23T08:59:55.132Z</time>
      </trkpt>
      <trkpt lat="47.80401" lon="2.16036">
        <ele>115</ele>
        <time>2017-07-23T08:59:56.117Z</time>
      </trkpt>
      <trkpt lat="47.80405" lon="2.1602">
        <ele>115</ele>
        <time>2017-07-23T08:59:57.124Z</time>
      </trkpt>
      <trkpt lat="47.80408" lon="2.16012">
        <ele>115</ele>
        <time>2017-07-23T08:59:58.108Z</time>
      </trkpt>
      <trkpt lat="47.80408" lon="2.16012">
        <ele>115</ele>
        <time>2017-07-23T08:59:59.131Z</time>
      </trkpt>
      <trkpt lat="47.80413" lon="2.15995">
        <ele>115</ele>
        <time>2017-07-23T09:00:00.138Z</time>
      </trkpt>
      <trkpt lat="47.80416" lon="2.15987">
        <ele>115</ele>
        <time>2017-07-23T09:00:01.108Z</time>
      </trkpt>
      <trkpt lat="47.80417" lon="2.15979">
        <ele>115</ele>
        <time>2017-07-23T09:00:02.132Z</time>
      </trkpt>
      <trkpt lat="47.80417" lon="2.15979">
        <ele>115</ele>
        <time>2017-07-23T09:00:03.122Z</time>
      </trkpt>
      <trkpt lat="47.80422" lon="2.15965">
        <ele>115</ele>
        <time>2017-07-23T09:00:04.108Z</time>
      </trkpt>
      <trkpt lat="47.80422" lon="2.15965">
        <ele>115</ele>
        <time>2017-07-23T09:00:05.115Z</time>
      </trkpt>
      <trkpt lat="47.80426" lon="2.15949">
        <ele>114</ele>
        <time>2017-07-23T09:00:06.122Z</time>
      </trkpt>
      <trkpt lat="47.80428" lon="2.15941">
        <ele>114</ele>
        <time>2017-07-23T09:00:07.144Z</time>
      </trkpt>
      <trkpt lat="47.80428" lon="2.15941">
        <ele>114</ele>
        <time>2017-07-23T09:00:08.135Z</time>
      </trkpt>
      <trkpt lat="47.80432" lon="2.15925">
        <ele>113</ele>
        <time>2017-07-23T09:00:09.141Z</time>
      </trkpt>
      <trkpt lat="47.80432" lon="2.15925">
        <ele>113</ele>
        <time>2017-07-23T09:00:10.132Z</time>
      </trkpt>
      <trkpt lat="47.80437" lon="2.15909">
        <ele>112</ele>
        <time>2017-07-23T09:00:11.122Z</time>
      </trkpt>
      <trkpt lat="47.80437" lon="2.15909">
        <ele>112</ele>
        <time>2017-07-23T09:00:12.113Z</time>
      </trkpt>
      <trkpt lat="47.80441" lon="2.15891">
        <ele>112</ele>
        <time>2017-07-23T09:00:13.119Z</time>
      </trkpt>
      <trkpt lat="47.80441" lon="2.15891">
        <ele>112</ele>
        <time>2017-07-23T09:00:14.145Z</time>
      </trkpt>
      <trkpt lat="47.80444" lon="2.15871">
        <ele>111</ele>
        <time>2017-07-23T09:00:15.118Z</time>
      </trkpt>
      <trkpt lat="47.80444" lon="2.15871">
        <ele>111</ele>
        <time>2017-07-23T09:00:16.142Z</time>
      </trkpt>
      <trkpt lat="47.80448" lon="2.1585">
        <ele>111</ele>
        <time>2017-07-23T09:00:17.108Z</time>
      </trkpt>
      <trkpt lat="47.80448" lon="2.1585">
        <ele>111</ele>
        <time>2017-07-23T09:00:18.129Z</time>
      </trkpt>
      <trkpt lat="47.80454" lon="2.15832">
        <ele>110</ele>
        <time>2017-07-23T09:00:19.109Z</time>
      </trkpt>
      <trkpt lat="47.80458" lon="2.15825">
        <ele>110</ele>
        <time>2017-07-23T09:00:20.146Z</time>
      </trkpt>
      <trkpt lat="47.80458" lon="2.15825">
        <ele>110</ele>
        <time>2017-07-23T09:00:21.134Z</time>
      </trkpt>
      <trkpt lat="47.80463" lon="2.15814">
        <ele>109</ele>
        <time>2017-07-23T09:00:22.115Z</time>
      </trkpt>
      <trkpt lat="47.80466" lon="2.15808">
        <ele>108</ele>
        <time>2017-07-23T09:00:23.126Z</time>
      </trkpt>
      <trkpt lat="47.80466" lon="2.15808">
        <ele>108</ele>
        <time>2017-07-23T09:00:24.111Z</time>
      </trkpt>
      <trkpt lat="47.80473" lon="2.15799">
        <ele>108</ele>
        <time>2017-07-23T09:00:25.109Z</time>
      </trkpt>
      <trkpt lat="47.80475" lon="2.15794">
        <ele>108</ele>
        <time>2017-07-23T09:00:26.125Z</time>
      </trkpt>
      <trkpt lat="47.80475" lon="2.15794">
        <ele>108</ele>
        <time>2017-07-23T09:00:27.114Z</time>
      </trkpt>
      <trkpt lat="47.80483" lon="2.15783">
        <ele>108</ele>
        <time>2017-07-23T09:00:28.131Z</time>
      </trkpt>
      <trkpt lat="47.80483" lon="2.15783">
        <ele>108</ele>
        <time>2017-07-23T09:00:29.133Z</time>
      </trkpt>
      <trkpt lat="47.8049" lon="2.15769">
        <ele>107</ele>
        <time>2017-07-23T09:00:30.139Z</time>
      </trkpt>
      <trkpt lat="47.8049" lon="2.15769">
        <ele>107</ele>
        <time>2017-07-23T09:00:31.126Z</time>
      </trkpt>
      <trkpt lat="47.80495" lon="2.15755">
        <ele>107</ele>
        <time>2017-07-23T09:00:32.140Z</time>
      </trkpt>
      <trkpt lat="47.80495" lon="2.15755">
        <ele>107</ele>
        <time>2017-07-23T09:00:33.147Z</time>
      </trkpt>
      <trkpt lat="47.80497" lon="2.15741">
        <ele>107</ele>
        <time>2017-07-23T09:00:34.114Z</time>
      </trkpt>
      <trkpt lat="47.80497" lon="2.15741">
        <ele>107</ele>
        <time>2017-07-23T09:00:35.129Z</time>
      </trkpt>
      <trkpt lat="47.805" lon="2.15726">
        <ele>106</ele>
        <time>2017-07-23T09:00:36.109Z</time>
      </trkpt>
      <trkpt lat="47.805" lon="2.15726">
        <ele>106</ele>
        <time>2017-07-23T09:00:37.125Z</time>
      </trkpt>
      <trkpt lat="47.80502" lon="2.15712">
        <ele>106</ele>
        <time>2017-07-23T09:00:38.143Z</time>
      </trkpt>
      <trkpt lat="47.80502" lon="2.15712">
        <ele>106</ele>
        <time>2017-07-23T09:00:39.125Z</time>
      </trkpt>
      <trkpt lat="47.80503" lon="2.15698">
        <ele>106</ele>
        <time>2017-07-23T09:00:40.131Z</time>
      </trkpt>
      <trkpt lat="47.80503" lon="2.15698">
        <ele>106</ele>
        <time>2017-07-23T09:00:41.116Z</time>
      </trkpt>
      <trkpt lat="47.80507" lon="2.15686">
        <ele>106</ele>
        <time>2017-07-23T09:00:42.141Z</time>
      </trkpt>
      <trkpt lat="47.80507" lon="2.15686">
        <ele>106</ele>
        <time>2017-07-23T09:00:43.115Z</time>
      </trkpt>
      <trkpt lat="47.80513" lon="2.15679">
        <ele>106</ele>
        <time>2017-07-23T09:00:44.122Z</time>
      </trkpt>
      <trkpt lat="47.80515" lon="2.15673">
        <ele>106</ele>
        <time>2017-07-23T09:00:45.146Z</time>
      </trkpt>
      <trkpt lat="47.80515" lon="2.15673">
        <ele>106</ele>
        <time>2017-07-23T09:00:46.114Z</time>
      </trkpt>
      <trkpt lat="47.80514" lon="2.15658">
        <ele>106</ele>
        <time>2017-07-23T09:00:47.121Z</time>
      </trkpt>
      <trkpt lat="47.80512" lon="2.1565">
        <ele>107</ele>
        <time>2017-07-23T09:00:48.119Z</time>
      </trkpt>
      <trkpt lat="47.80512" lon="2.1565">
        <ele>107</ele>
        <time>2017-07-23T09:00:49.115Z</time>
      </trkpt>
      <trkpt lat="47.8051" lon="2.15633">
        <ele>106</ele>
        <time>2017-07-23T09:00:50.122Z</time>
      </trkpt>
      <trkpt lat="47.8051" lon="2.15633">
        <ele>106</ele>
        <time>2017-07-23T09:00:51.134Z</time>
      </trkpt>
      <trkpt lat="47.80507" lon="2.15615">
        <ele>106</ele>
        <time>2017-07-23T09:00:52.109Z</time>
      </trkpt>
      <trkpt lat="47.80507" lon="2.15615">
        <ele>106</ele>
        <time>2017-07-23T09:00:53.126Z</time>
      </trkpt>
      <trkpt lat="47.80505" lon="2.15597">
        <ele>106</ele>
        <time>2017-07-23T09:00:54.136Z</time>
      </trkpt>
      <trkpt lat="47.80503" lon="2.15588">
        <ele>106</ele>
        <time>2017-07-23T09:00:55.119Z</time>
      </trkpt>
      <trkpt lat="47.80502" lon="2.15579">
        <ele>106</ele>
        <time>2017-07-23T09:00:56.122Z</time>
      </trkpt>
      <trkpt lat="47.80502" lon="2.15579">
        <ele>106</ele>
        <time>2017-07-23T09:00:57.139Z</time>
      </trkpt>
      <trkpt lat="47.80499" lon="2.15561">
        <ele>106</ele>
        <time>2017-07-23T09:00:58.146Z</time>
      </trkpt>
      <trkpt lat="47.80498" lon="2.15552">
        <ele>106</ele>
        <time>2017-07-23T09:00:59.109Z</time>
      </trkpt>
      <trkpt lat="47.80498" lon="2.15552">
        <ele>106</ele>
        <time>2017-07-23T09:01:00.146Z</time>
      </trkpt>
      <trkpt lat="47.80495" lon="2.15533">
        <ele>106</ele>
        <time>2017-07-23T09:01:01.117Z</time>
      </trkpt>
      <trkpt lat="47.80494" lon="2.15524">
        <ele>105</ele>
        <time>2017-07-23T09:01:02.126Z</time>
      </trkpt>
      <trkpt lat="47.80494" lon="2.15524">
        <ele>105</ele>
        <time>2017-07-23T09:01:03.115Z</time>
      </trkpt>
      <trkpt lat="47.80491" lon="2.15507">
        <ele>105</ele>
        <time>2017-07-23T09:01:04.130Z</time>
      </trkpt>
      <trkpt lat="47.80491" lon="2.15507">
        <ele>105</ele>
        <time>2017-07-23T09:01:05.241Z</time>
      </trkpt>
      <trkpt lat="47.80488" lon="2.15489">
        <ele>105</ele>
        <time>2017-07-23T09:01:06.123Z</time>
      </trkpt>
      <trkpt lat="47.80487" lon="2.15481">
        <ele>106</ele>
        <time>2017-07-23T09:01:07.116Z</time>
      </trkpt>
      <trkpt lat="47.80486" lon="2.15472">
        <ele>106</ele>
        <time>2017-07-23T09:01:08.143Z</time>
      </trkpt>
      <trkpt lat="47.80486" lon="2.15472">
        <ele>106</ele>
        <time>2017-07-23T09:01:09.131Z</time>
      </trkpt>
      <trkpt lat="47.80484" lon="2.15455">
        <ele>105</ele>
        <time>2017-07-23T09:01:10.138Z</time>
      </trkpt>
      <trkpt lat="47.80484" lon="2.15455">
        <ele>105</ele>
        <time>2017-07-23T09:01:11.126Z</time>
      </trkpt>
      <trkpt lat="47.80482" lon="2.15439">
        <ele>106</ele>
        <time>2017-07-23T09:01:12.140Z</time>
      </trkpt>
      <trkpt lat="47.80482" lon="2.15439">
        <ele>106</ele>
        <time>2017-07-23T09:01:13.111Z</time>
      </trkpt>
      <trkpt lat="47.80481" lon="2.15424">
        <ele>106</ele>
        <time>2017-07-23T09:01:14.122Z</time>
      </trkpt>
      <trkpt lat="47.80481" lon="2.15424">
        <ele>106</ele>
        <time>2017-07-23T09:01:15.115Z</time>
      </trkpt>
      <trkpt lat="47.80481" lon="2.15409">
        <ele>105</ele>
        <time>2017-07-23T09:01:16.110Z</time>
      </trkpt>
      <trkpt lat="47.80481" lon="2.15409">
        <ele>105</ele>
        <time>2017-07-23T09:01:17.147Z</time>
      </trkpt>
      <trkpt lat="47.80481" lon="2.15392">
        <ele>105</ele>
        <time>2017-07-23T09:01:18.120Z</time>
      </trkpt>
      <trkpt lat="47.80481" lon="2.15384">
        <ele>105</ele>
        <time>2017-07-23T09:01:19.141Z</time>
      </trkpt>
      <trkpt lat="47.80481" lon="2.15375">
        <ele>105</ele>
        <time>2017-07-23T09:01:20.131Z</time>
      </trkpt>
      <trkpt lat="47.80481" lon="2.15375">
        <ele>105</ele>
        <time>2017-07-23T09:01:21.119Z</time>
      </trkpt>
      <trkpt lat="47.80481" lon="2.15358">
        <ele>105</ele>
        <time>2017-07-23T09:01:22.134Z</time>
      </trkpt>
      <trkpt lat="47.80481" lon="2.15358">
        <ele>105</ele>
        <time>2017-07-23T09:01:23.131Z</time>
      </trkpt>
      <trkpt lat="47.80482" lon="2.15341">
        <ele>105</ele>
        <time>2017-07-23T09:01:24.139Z</time>
      </trkpt>
      <trkpt lat="47.80482" lon="2.15341">
        <ele>105</ele>
        <time>2017-07-23T09:01:25.132Z</time>
      </trkpt>
      <trkpt lat="47.80483" lon="2.15325">
        <ele>104</ele>
        <time>2017-07-23T09:01:26.109Z</time>
      </trkpt>
      <trkpt lat="47.80483" lon="2.15325">
        <ele>104</ele>
        <time>2017-07-23T09:01:27.113Z</time>
      </trkpt>
      <trkpt lat="47.80484" lon="2.15309">
        <ele>104</ele>
        <time>2017-07-23T09:01:28.121Z</time>
      </trkpt>
      <trkpt lat="47.80484" lon="2.15309">
        <ele>104</ele>
        <time>2017-07-23T09:01:29.145Z</time>
      </trkpt>
      <trkpt lat="47.80485" lon="2.15292">
        <ele>104</ele>
        <time>2017-07-23T09:01:30.109Z</time>
      </trkpt>
      <trkpt lat="47.80485" lon="2.15292">
        <ele>104</ele>
        <time>2017-07-23T09:01:31.124Z</time>
      </trkpt>
      <trkpt lat="47.80485" lon="2.15276">
        <ele>104</ele>
        <time>2017-07-23T09:01:32.130Z</time>
      </trkpt>
      <trkpt lat="47.80485" lon="2.15276">
        <ele>104</ele>
        <time>2017-07-23T09:01:33.119Z</time>
      </trkpt>
      <trkpt lat="47.80485" lon="2.15258">
        <ele>104</ele>
        <time>2017-07-23T09:01:34.139Z</time>
      </trkpt>
      <trkpt lat="47.80485" lon="2.15248">
        <ele>104</ele>
        <time>2017-07-23T09:01:35.121Z</time>
      </trkpt>
      <trkpt lat="47.80485" lon="2.15248">
        <ele>104</ele>
        <time>2017-07-23T09:01:36.109Z</time>
      </trkpt>
      <trkpt lat="47.80485" lon="2.15229">
        <ele>104</ele>
        <time>2017-07-23T09:01:37.135Z</time>
      </trkpt>
      <trkpt lat="47.80486" lon="2.15219">
        <ele>104</ele>
        <time>2017-07-23T09:01:38.115Z</time>
      </trkpt>
      <trkpt lat="47.80486" lon="2.15219">
        <ele>104</ele>
        <time>2017-07-23T09:01:39.125Z</time>
      </trkpt>
      <trkpt lat="47.80487" lon="2.15197">
        <ele>104</ele>
        <time>2017-07-23T09:01:40.131Z</time>
      </trkpt>
      <trkpt lat="47.80487" lon="2.15197">
        <ele>104</ele>
        <time>2017-07-23T09:01:41.118Z</time>
      </trkpt>
      <trkpt lat="47.80487" lon="2.15175">
        <ele>104</ele>
        <time>2017-07-23T09:01:42.125Z</time>
      </trkpt>
      <trkpt lat="47.80488" lon="2.15164">
        <ele>104</ele>
        <time>2017-07-23T09:01:43.144Z</time>
      </trkpt>
      <trkpt lat="47.80488" lon="2.15153">
        <ele>103</ele>
        <time>2017-07-23T09:01:44.144Z</time>
      </trkpt>
      <trkpt lat="47.80488" lon="2.15153">
        <ele>103</ele>
        <time>2017-07-23T09:01:45.136Z</time>
      </trkpt>
      <trkpt lat="47.80489" lon="2.1513">
        <ele>103</ele>
        <time>2017-07-23T09:01:46.142Z</time>
      </trkpt>
      <trkpt lat="47.80489" lon="2.1513">
        <ele>103</ele>
        <time>2017-07-23T09:01:47.123Z</time>
      </trkpt>
      <trkpt lat="47.8049" lon="2.15107">
        <ele>103</ele>
        <time>2017-07-23T09:01:48.148Z</time>
      </trkpt>
      <trkpt lat="47.8049" lon="2.15107">
        <ele>103</ele>
        <time>2017-07-23T09:01:49.140Z</time>
      </trkpt>
      <trkpt lat="47.8049" lon="2.15084">
        <ele>103</ele>
        <time>2017-07-23T09:01:50.146Z</time>
      </trkpt>
      <trkpt lat="47.80491" lon="2.15072">
        <ele>103</ele>
        <time>2017-07-23T09:01:51.139Z</time>
      </trkpt>
      <trkpt lat="47.80491" lon="2.15072">
        <ele>103</ele>
        <time>2017-07-23T09:01:52.136Z</time>
      </trkpt>
      <trkpt lat="47.80492" lon="2.15048">
        <ele>103</ele>
        <time>2017-07-23T09:01:53.142Z</time>
      </trkpt>
      <trkpt lat="47.80492" lon="2.15048">
        <ele>103</ele>
        <time>2017-07-23T09:01:54.130Z</time>
      </trkpt>
      <trkpt lat="47.80492" lon="2.15026">
        <ele>102</ele>
        <time>2017-07-23T09:01:55.109Z</time>
      </trkpt>
      <trkpt lat="47.80493" lon="2.15015">
        <ele>102</ele>
        <time>2017-07-23T09:01:56.135Z</time>
      </trkpt>
      <trkpt lat="47.80493" lon="2.15015">
        <ele>102</ele>
        <time>2017-07-23T09:01:57.123Z</time>
      </trkpt>
      <trkpt lat="47.80494" lon="2.14992">
        <ele>101</ele>
        <time>2017-07-23T09:01:58.136Z</time>
      </trkpt>
      <trkpt lat="47.80494" lon="2.14992">
        <ele>101</ele>
        <time>2017-07-23T09:01:59.129Z</time>
      </trkpt>
      <trkpt lat="47.80495" lon="2.14971">
        <ele>101</ele>
        <time>2017-07-23T09:02:00.136Z</time>
      </trkpt>
      <trkpt lat="47.80495" lon="2.14971">
        <ele>101</ele>
        <time>2017-07-23T09:02:01.125Z</time>
      </trkpt>
      <trkpt lat="47.80497" lon="2.14951">
        <ele>101</ele>
        <time>2017-07-23T09:02:02.110Z</time>
      </trkpt>
      <trkpt lat="47.80497" lon="2.14951">
        <ele>101</ele>
        <time>2017-07-23T09:02:03.132Z</time>
      </trkpt>
      <trkpt lat="47.80498" lon="2.14932">
        <ele>101</ele>
        <time>2017-07-23T09:02:04.122Z</time>
      </trkpt>
      <trkpt lat="47.80498" lon="2.14932">
        <ele>101</ele>
        <time>2017-07-23T09:02:05.125Z</time>
      </trkpt>
      <trkpt lat="47.80499" lon="2.14914">
        <ele>102</ele>
        <time>2017-07-23T09:02:06.109Z</time>
      </trkpt>
      <trkpt lat="47.80499" lon="2.14914">
        <ele>102</ele>
        <time>2017-07-23T09:02:07.144Z</time>
      </trkpt>
      <trkpt lat="47.80499" lon="2.14895">
        <ele>102</ele>
        <time>2017-07-23T09:02:08.116Z</time>
      </trkpt>
      <trkpt lat="47.80499" lon="2.14895">
        <ele>102</ele>
        <time>2017-07-23T09:02:09.145Z</time>
      </trkpt>
      <trkpt lat="47.805" lon="2.14876">
        <ele>102</ele>
        <time>2017-07-23T09:02:10.125Z</time>
      </trkpt>
      <trkpt lat="47.805" lon="2.14876">
        <ele>102</ele>
        <time>2017-07-23T09:02:11.129Z</time>
      </trkpt>
      <trkpt lat="47.805" lon="2.14862">
        <ele>102</ele>
        <time>2017-07-23T09:02:12.135Z</time>
      </trkpt>
      <trkpt lat="47.805" lon="2.14862">
        <ele>102</ele>
        <time>2017-07-23T09:02:13.123Z</time>
      </trkpt>
      <trkpt lat="47.80501" lon="2.1485">
        <ele>102</ele>
        <time>2017-07-23T09:02:14.109Z</time>
      </trkpt>
      <trkpt lat="47.80501" lon="2.1485">
        <ele>102</ele>
        <time>2017-07-23T09:02:15.124Z</time>
      </trkpt>
      <trkpt lat="47.80502" lon="2.14837">
        <ele>102</ele>
        <time>2017-07-23T09:02:16.130Z</time>
      </trkpt>
      <trkpt lat="47.80502" lon="2.14829">
        <ele>103</ele>
        <time>2017-07-23T09:02:17.109Z</time>
      </trkpt>
      <trkpt lat="47.80503" lon="2.14821">
        <ele>103</ele>
        <time>2017-07-23T09:02:18.134Z</time>
      </trkpt>
      <trkpt lat="47.80503" lon="2.14821">
        <ele>103</ele>
        <time>2017-07-23T09:02:19.123Z</time>
      </trkpt>
      <trkpt lat="47.80504" lon="2.14804">
        <ele>102</ele>
        <time>2017-07-23T09:02:20.137Z</time>
      </trkpt>
      <trkpt lat="47.80505" lon="2.14795">
        <ele>102</ele>
        <time>2017-07-23T09:02:21.109Z</time>
      </trkpt>
      <trkpt lat="47.80505" lon="2.14795">
        <ele>102</ele>
        <time>2017-07-23T09:02:22.128Z</time>
      </trkpt>
      <trkpt lat="47.80506" lon="2.14777">
        <ele>102</ele>
        <time>2017-07-23T09:02:23.109Z</time>
      </trkpt>
      <trkpt lat="47.80506" lon="2.14777">
        <ele>102</ele>
        <time>2017-07-23T09:02:24.136Z</time>
      </trkpt>
      <trkpt lat="47.80507" lon="2.14757">
        <ele>102</ele>
        <time>2017-07-23T09:02:25.142Z</time>
      </trkpt>
      <trkpt lat="47.80508" lon="2.14747">
        <ele>102</ele>
        <time>2017-07-23T09:02:26.109Z</time>
      </trkpt>
      <trkpt lat="47.80508" lon="2.14747">
        <ele>102</ele>
        <time>2017-07-23T09:02:27.144Z</time>
      </trkpt>
      <trkpt lat="47.8051" lon="2.14728">
        <ele>102</ele>
        <time>2017-07-23T09:02:28.110Z</time>
      </trkpt>
      <trkpt lat="47.8051" lon="2.14728">
        <ele>102</ele>
        <time>2017-07-23T09:02:29.136Z</time>
      </trkpt>
      <trkpt lat="47.80511" lon="2.14709">
        <ele>102</ele>
        <time>2017-07-23T09:02:30.109Z</time>
      </trkpt>
      <trkpt lat="47.80512" lon="2.147">
        <ele>102</ele>
        <time>2017-07-23T09:02:31.118Z</time>
      </trkpt>
      <trkpt lat="47.80512" lon="2.147">
        <ele>102</ele>
        <time>2017-07-23T09:02:32.142Z</time>
      </trkpt>
      <trkpt lat="47.80514" lon="2.14681">
        <ele>102</ele>
        <time>2017-07-23T09:02:33.108Z</time>
      </trkpt>
      <trkpt lat="47.80515" lon="2.14671">
        <ele>102</ele>
        <time>2017-07-23T09:02:34.111Z</time>
      </trkpt>
      <trkpt lat="47.80515" lon="2.14671">
        <ele>102</ele>
        <time>2017-07-23T09:02:35.116Z</time>
      </trkpt>
      <trkpt lat="47.80517" lon="2.14652">
        <ele>103</ele>
        <time>2017-07-23T09:02:36.124Z</time>
      </trkpt>
      <trkpt lat="47.80518" lon="2.14642">
        <ele>103</ele>
        <time>2017-07-23T09:02:37.109Z</time>
      </trkpt>
      <trkpt lat="47.80518" lon="2.14642">
        <ele>103</ele>
        <time>2017-07-23T09:02:38.116Z</time>
      </trkpt>
      <trkpt lat="47.8052" lon="2.14622">
        <ele>103</ele>
        <time>2017-07-23T09:02:39.147Z</time>
      </trkpt>
      <trkpt lat="47.8052" lon="2.14622">
        <ele>103</ele>
        <time>2017-07-23T09:02:40.122Z</time>
      </trkpt>
      <trkpt lat="47.80522" lon="2.14602">
        <ele>102</ele>
        <time>2017-07-23T09:02:41.133Z</time>
      </trkpt>
      <trkpt lat="47.80522" lon="2.14602">
        <ele>102</ele>
        <time>2017-07-23T09:02:42.122Z</time>
      </trkpt>
      <trkpt lat="47.80525" lon="2.14583">
        <ele>102</ele>
        <time>2017-07-23T09:02:43.113Z</time>
      </trkpt>
      <trkpt lat="47.80525" lon="2.14583">
        <ele>102</ele>
        <time>2017-07-23T09:02:44.118Z</time>
      </trkpt>
      <trkpt lat="47.80527" lon="2.14564">
        <ele>102</ele>
        <time>2017-07-23T09:02:45.124Z</time>
      </trkpt>
      <trkpt lat="47.80529" lon="2.14554">
        <ele>102</ele>
        <time>2017-07-23T09:02:46.147Z</time>
      </trkpt>
      <trkpt lat="47.80529" lon="2.14544">
        <ele>102</ele>
        <time>2017-07-23T09:02:47.126Z</time>
      </trkpt>
      <trkpt lat="47.8053" lon="2.14535">
        <ele>102</ele>
        <time>2017-07-23T09:02:48.116Z</time>
      </trkpt>
      <trkpt lat="47.8053" lon="2.14535">
        <ele>102</ele>
        <time>2017-07-23T09:02:49.144Z</time>
      </trkpt>
      <trkpt lat="47.80532" lon="2.14517">
        <ele>102</ele>
        <time>2017-07-23T09:02:50.110Z</time>
      </trkpt>
      <trkpt lat="47.80532" lon="2.14517">
        <ele>102</ele>
        <time>2017-07-23T09:02:51.130Z</time>
      </trkpt>
      <trkpt lat="47.80534" lon="2.14499">
        <ele>102</ele>
        <time>2017-07-23T09:02:52.109Z</time>
      </trkpt>
      <trkpt lat="47.80534" lon="2.14499">
        <ele>102</ele>
        <time>2017-07-23T09:02:53.124Z</time>
      </trkpt>
      <trkpt lat="47.80536" lon="2.14482">
        <ele>103</ele>
        <time>2017-07-23T09:02:54.131Z</time>
      </trkpt>
      <trkpt lat="47.80536" lon="2.14482">
        <ele>103</ele>
        <time>2017-07-23T09:02:55.115Z</time>
      </trkpt>
      <trkpt lat="47.80538" lon="2.14464">
        <ele>102</ele>
        <time>2017-07-23T09:02:56.109Z</time>
      </trkpt>
      <trkpt lat="47.80538" lon="2.14464">
        <ele>102</ele>
        <time>2017-07-23T09:02:57.134Z</time>
      </trkpt>
      <trkpt lat="47.8054" lon="2.14446">
        <ele>102</ele>
        <time>2017-07-23T09:02:58.140Z</time>
      </trkpt>
      <trkpt lat="47.80541" lon="2.14437">
        <ele>102</ele>
        <time>2017-07-23T09:02:59.134Z</time>
      </trkpt>
      <trkpt lat="47.80542" lon="2.14427">
        <ele>102</ele>
        <time>2017-07-23T09:03:00.128Z</time>
      </trkpt>
      <trkpt lat="47.80543" lon="2.14419">
        <ele>102</ele>
        <time>2017-07-23T09:03:01.112Z</time>
      </trkpt>
      <trkpt lat="47.80543" lon="2.14419">
        <ele>102</ele>
        <time>2017-07-23T09:03:02.128Z</time>
      </trkpt>
      <trkpt lat="47.80546" lon="2.144">
        <ele>102</ele>
        <time>2017-07-23T09:03:03.134Z</time>
      </trkpt>
      <trkpt lat="47.80546" lon="2.144">
        <ele>102</ele>
        <time>2017-07-23T09:03:04.112Z</time>
      </trkpt>
      <trkpt lat="47.80547" lon="2.14383">
        <ele>101</ele>
        <time>2017-07-23T09:03:05.114Z</time>
      </trkpt>
      <trkpt lat="47.80548" lon="2.14375">
        <ele>102</ele>
        <time>2017-07-23T09:03:06.145Z</time>
      </trkpt>
      <trkpt lat="47.80549" lon="2.14367">
        <ele>102</ele>
        <time>2017-07-23T09:03:07.135Z</time>
      </trkpt>
      <trkpt lat="47.8055" lon="2.14359">
        <ele>102</ele>
        <time>2017-07-23T09:03:08.116Z</time>
      </trkpt>
      <trkpt lat="47.8055" lon="2.14359">
        <ele>102</ele>
        <time>2017-07-23T09:03:09.147Z</time>
      </trkpt>
      <trkpt lat="47.80551" lon="2.14344">
        <ele>102</ele>
        <time>2017-07-23T09:03:10.117Z</time>
      </trkpt>
      <trkpt lat="47.80551" lon="2.14344">
        <ele>102</ele>
        <time>2017-07-23T09:03:11.145Z</time>
      </trkpt>
      <trkpt lat="47.80552" lon="2.14331">
        <ele>102</ele>
        <time>2017-07-23T09:03:12.119Z</time>
      </trkpt>
      <trkpt lat="47.80552" lon="2.14331">
        <ele>102</ele>
        <time>2017-07-23T09:03:13.122Z</time>
      </trkpt>
      <trkpt lat="47.80552" lon="2.1432">
        <ele>103</ele>
        <time>2017-07-23T09:03:14.129Z</time>
      </trkpt>
      <trkpt lat="47.80552" lon="2.14317">
        <ele>103</ele>
        <time>2017-07-23T09:03:15.156Z</time>
      </trkpt>
      <trkpt lat="47.80552" lon="2.14317">
        <ele>103</ele>
        <time>2017-07-23T09:03:16.121Z</time>
      </trkpt>
      <trkpt lat="47.80552" lon="2.1431">
        <ele>104</ele>
        <time>2017-07-23T09:03:17.127Z</time>
      </trkpt>
      <trkpt lat="47.80552" lon="2.1431">
        <ele>104</ele>
        <time>2017-07-23T09:03:18.123Z</time>
      </trkpt>
      <trkpt lat="47.80549" lon="2.14306">
        <ele>104</ele>
        <time>2017-07-23T09:03:19.119Z</time>
      </trkpt>
      <trkpt lat="47.80547" lon="2.14304">
        <ele>105</ele>
        <time>2017-07-23T09:03:20.134Z</time>
      </trkpt>
      <trkpt lat="47.80545" lon="2.14302">
        <ele>105</ele>
        <time>2017-07-23T09:03:21.123Z</time>
      </trkpt>
      <trkpt lat="47.80545" lon="2.14302">
        <ele>105</ele>
        <time>2017-07-23T09:03:22.110Z</time>
      </trkpt>
      <trkpt lat="47.80541" lon="2.14299">
        <ele>105</ele>
        <time>2017-07-23T09:03:23.139Z</time>
      </trkpt>
      <trkpt lat="47.80541" lon="2.14299">
        <ele>105</ele>
        <time>2017-07-23T09:03:24.126Z</time>
      </trkpt>
      <trkpt lat="47.80537" lon="2.14294">
        <ele>105</ele>
        <time>2017-07-23T09:03:25.132Z</time>
      </trkpt>
      <trkpt lat="47.80534" lon="2.14292">
        <ele>105</ele>
        <time>2017-07-23T09:03:26.109Z</time>
      </trkpt>
      <trkpt lat="47.80534" lon="2.14292">
        <ele>105</ele>
        <time>2017-07-23T09:03:27.123Z</time>
      </trkpt>
      <trkpt lat="47.80529" lon="2.14286">
        <ele>105</ele>
        <time>2017-07-23T09:03:28.129Z</time>
      </trkpt>
      <trkpt lat="47.80529" lon="2.14286">
        <ele>105</ele>
        <time>2017-07-23T09:03:29.146Z</time>
      </trkpt>
      <trkpt lat="47.80524" lon="2.1428">
        <ele>105</ele>
        <time>2017-07-23T09:03:30.147Z</time>
      </trkpt>
      <trkpt lat="47.80524" lon="2.1428">
        <ele>105</ele>
        <time>2017-07-23T09:03:31.129Z</time>
      </trkpt>
      <trkpt lat="47.80519" lon="2.14274">
        <ele>104</ele>
        <time>2017-07-23T09:03:32.142Z</time>
      </trkpt>
      <trkpt lat="47.80519" lon="2.14274">
        <ele>104</ele>
        <time>2017-07-23T09:03:33.119Z</time>
      </trkpt>
      <trkpt lat="47.80513" lon="2.14268">
        <ele>104</ele>
        <time>2017-07-23T09:03:34.130Z</time>
      </trkpt>
      <trkpt lat="47.80513" lon="2.14268">
        <ele>104</ele>
        <time>2017-07-23T09:03:35.134Z</time>
      </trkpt>
      <trkpt lat="47.80507" lon="2.14262">
        <ele>103</ele>
        <time>2017-07-23T09:03:36.140Z</time>
      </trkpt>
      <trkpt lat="47.80504" lon="2.14258">
        <ele>103</ele>
        <time>2017-07-23T09:03:37.108Z</time>
      </trkpt>
      <trkpt lat="47.80504" lon="2.14258">
        <ele>103</ele>
        <time>2017-07-23T09:03:38.122Z</time>
      </trkpt>
      <trkpt lat="47.80498" lon="2.14252">
        <ele>103</ele>
        <time>2017-07-23T09:03:39.127Z</time>
      </trkpt>
      <trkpt lat="47.80498" lon="2.14252">
        <ele>103</ele>
        <time>2017-07-23T09:03:40.118Z</time>
      </trkpt>
      <trkpt lat="47.80491" lon="2.14245">
        <ele>103</ele>
        <time>2017-07-23T09:03:41.124Z</time>
      </trkpt>
      <trkpt lat="47.80491" lon="2.14245">
        <ele>103</ele>
        <time>2017-07-23T09:03:42.127Z</time>
      </trkpt>
      <trkpt lat="47.80485" lon="2.14239">
        <ele>103</ele>
        <time>2017-07-23T09:03:43.147Z</time>
      </trkpt>
      <trkpt lat="47.80485" lon="2.14239">
        <ele>103</ele>
        <time>2017-07-23T09:03:44.118Z</time>
      </trkpt>
      <trkpt lat="47.80478" lon="2.14232">
        <ele>103</ele>
        <time>2017-07-23T09:03:45.124Z</time>
      </trkpt>
      <trkpt lat="47.80475" lon="2.14228">
        <ele>103</ele>
        <time>2017-07-23T09:03:46.117Z</time>
      </trkpt>
      <trkpt lat="47.80475" lon="2.14228">
        <ele>103</ele>
        <time>2017-07-23T09:03:47.145Z</time>
      </trkpt>
      <trkpt lat="47.80468" lon="2.14221">
        <ele>103</ele>
        <time>2017-07-23T09:03:48.109Z</time>
      </trkpt>
      <trkpt lat="47.80468" lon="2.14221">
        <ele>103</ele>
        <time>2017-07-23T09:03:49.122Z</time>
      </trkpt>
      <trkpt lat="47.80462" lon="2.14213">
        <ele>103</ele>
        <time>2017-07-23T09:03:50.129Z</time>
      </trkpt>
      <trkpt lat="47.80462" lon="2.14213">
        <ele>103</ele>
        <time>2017-07-23T09:03:51.123Z</time>
      </trkpt>
      <trkpt lat="47.80455" lon="2.14206">
        <ele>102</ele>
        <time>2017-07-23T09:03:52.148Z</time>
      </trkpt>
      <trkpt lat="47.80455" lon="2.14206">
        <ele>102</ele>
        <time>2017-07-23T09:03:53.117Z</time>
      </trkpt>
      <trkpt lat="47.80449" lon="2.14199">
        <ele>102</ele>
        <time>2017-07-23T09:03:54.126Z</time>
      </trkpt>
      <trkpt lat="47.80445" lon="2.14195">
        <ele>102</ele>
        <time>2017-07-23T09:03:55.133Z</time>
      </trkpt>
      <trkpt lat="47.80442" lon="2.14192">
        <ele>102</ele>
        <time>2017-07-23T09:03:56.145Z</time>
      </trkpt>
      <trkpt lat="47.80442" lon="2.14192">
        <ele>102</ele>
        <time>2017-07-23T09:03:57.136Z</time>
      </trkpt>
      <trkpt lat="47.80435" lon="2.14185">
        <ele>102</ele>
        <time>2017-07-23T09:03:58.146Z</time>
      </trkpt>
      <trkpt lat="47.80435" lon="2.14185">
        <ele>102</ele>
        <time>2017-07-23T09:03:59.117Z</time>
      </trkpt>
      <trkpt lat="47.80429" lon="2.14178">
        <ele>101</ele>
        <time>2017-07-23T09:04:00.131Z</time>
      </trkpt>
      <trkpt lat="47.80429" lon="2.14178">
        <ele>101</ele>
        <time>2017-07-23T09:04:01.123Z</time>
      </trkpt>
      <trkpt lat="47.80421" lon="2.14171">
        <ele>101</ele>
        <time>2017-07-23T09:04:02.109Z</time>
      </trkpt>
      <trkpt lat="47.80421" lon="2.14171">
        <ele>101</ele>
        <time>2017-07-23T09:04:03.124Z</time>
      </trkpt>
      <trkpt lat="47.80414" lon="2.14163">
        <ele>101</ele>
        <time>2017-07-23T09:04:04.130Z</time>
      </trkpt>
      <trkpt lat="47.80414" lon="2.14163">
        <ele>101</ele>
        <time>2017-07-23T09:04:05.118Z</time>
      </trkpt>
      <trkpt lat="47.80407" lon="2.14155">
        <ele>101</ele>
        <time>2017-07-23T09:04:06.109Z</time>
      </trkpt>
      <trkpt lat="47.80407" lon="2.14155">
        <ele>101</ele>
        <time>2017-07-23T09:04:07.134Z</time>
      </trkpt>
      <trkpt lat="47.80399" lon="2.14147">
        <ele>101</ele>
        <time>2017-07-23T09:04:08.140Z</time>
      </trkpt>
      <trkpt lat="47.80399" lon="2.14147">
        <ele>101</ele>
        <time>2017-07-23T09:04:09.133Z</time>
      </trkpt>
      <trkpt lat="47.80392" lon="2.1414">
        <ele>102</ele>
        <time>2017-07-23T09:04:10.122Z</time>
      </trkpt>
      <trkpt lat="47.80389" lon="2.14138">
        <ele>102</ele>
        <time>2017-07-23T09:04:11.132Z</time>
      </trkpt>
      <trkpt lat="47.80389" lon="2.14138">
        <ele>102</ele>
        <time>2017-07-23T09:04:12.120Z</time>
      </trkpt>
      <trkpt lat="47.80383" lon="2.14133">
        <ele>103</ele>
        <time>2017-07-23T09:04:13.140Z</time>
      </trkpt>
      <trkpt lat="47.8038" lon="2.14131">
        <ele>103</ele>
        <time>2017-07-23T09:04:14.130Z</time>
      </trkpt>
      <trkpt lat="47.8038" lon="2.14131">
        <ele>103</ele>
        <time>2017-07-23T09:04:15.135Z</time>
      </trkpt>
      <trkpt lat="47.80372" lon="2.14127">
        <ele>104</ele>
        <time>2017-07-23T09:04:16.147Z</time>
      </trkpt>
      <trkpt lat="47.80372" lon="2.14127">
        <ele>104</ele>
        <time>2017-07-23T09:04:17.140Z</time>
      </trkpt>
      <trkpt lat="47.80363" lon="2.14121">
        <ele>105</ele>
        <time>2017-07-23T09:04:18.146Z</time>
      </trkpt>
      <trkpt lat="47.80363" lon="2.14121">
        <ele>105</ele>
        <time>2017-07-23T09:04:19.136Z</time>
      </trkpt>
      <trkpt lat="47.80356" lon="2.14116">
        <ele>106</ele>
        <time>2017-07-23T09:04:20.109Z</time>
      </trkpt>
      <trkpt lat="47.80356" lon="2.14116">
        <ele>106</ele>
        <time>2017-07-23T09:04:21.144Z</time>
      </trkpt>
      <trkpt lat="47.80349" lon="2.14112">
        <ele>107</ele>
        <time>2017-07-23T09:04:22.110Z</time>
      </trkpt>
      <trkpt lat="47.80347" lon="2.14109">
        <ele>108</ele>
        <time>2017-07-23T09:04:23.146Z</time>
      </trkpt>
      <trkpt lat="47.80347" lon="2.14109">
        <ele>108</ele>
        <time>2017-07-23T09:04:24.147Z</time>
      </trkpt>
      <trkpt lat="47.80344" lon="2.14103">
        <ele>108</ele>
        <time>2017-07-23T09:04:25.118Z</time>
      </trkpt>
      <trkpt lat="47.80343" lon="2.14101">
        <ele>108</ele>
        <time>2017-07-23T09:04:26.147Z</time>
      </trkpt>
      <trkpt lat="47.80343" lon="2.14101">
        <ele>108</ele>
        <time>2017-07-23T09:04:27.142Z</time>
      </trkpt>
      <trkpt lat="47.80335" lon="2.141">
        <ele>109</ele>
        <time>2017-07-23T09:04:28.148Z</time>
      </trkpt>
      <trkpt lat="47.80331" lon="2.14101">
        <ele>109</ele>
        <time>2017-07-23T09:04:29.137Z</time>
      </trkpt>
      <trkpt lat="47.80331" lon="2.14101">
        <ele>109</ele>
        <time>2017-07-23T09:04:30.147Z</time>
      </trkpt>
      <trkpt lat="47.80323" lon="2.14099">
        <ele>110</ele>
        <time>2017-07-23T09:04:31.118Z</time>
      </trkpt>
      <trkpt lat="47.80318" lon="2.14097">
        <ele>110</ele>
        <time>2017-07-23T09:04:32.113Z</time>
      </trkpt>
      <trkpt lat="47.80318" lon="2.14097">
        <ele>110</ele>
        <time>2017-07-23T09:04:33.127Z</time>
      </trkpt>
      <trkpt lat="47.80309" lon="2.14091">
        <ele>109</ele>
        <time>2017-07-23T09:04:34.134Z</time>
      </trkpt>
      <trkpt lat="47.80309" lon="2.14091">
        <ele>109</ele>
        <time>2017-07-23T09:04:35.122Z</time>
      </trkpt>
      <trkpt lat="47.80301" lon="2.14085">
        <ele>109</ele>
        <time>2017-07-23T09:04:36.141Z</time>
      </trkpt>
      <trkpt lat="47.80297" lon="2.14083">
        <ele>109</ele>
        <time>2017-07-23T09:04:37.139Z</time>
      </trkpt>
      <trkpt lat="47.80292" lon="2.1408">
        <ele>109</ele>
        <time>2017-07-23T09:04:38.134Z</time>
      </trkpt>
      <trkpt lat="47.80292" lon="2.1408">
        <ele>109</ele>
        <time>2017-07-23T09:04:39.138Z</time>
      </trkpt>
      <trkpt lat="47.80283" lon="2.14074">
        <ele>109</ele>
        <time>2017-07-23T09:04:40.144Z</time>
      </trkpt>
      <trkpt lat="47.80279" lon="2.14072">
        <ele>109</ele>
        <time>2017-07-23T09:04:41.110Z</time>
      </trkpt>
      <trkpt lat="47.80274" lon="2.14071">
        <ele>109</ele>
        <time>2017-07-23T09:04:42.144Z</time>
      </trkpt>
      <trkpt lat="47.80274" lon="2.14071">
        <ele>109</ele>
        <time>2017-07-23T09:04:43.132Z</time>
      </trkpt>
      <trkpt lat="47.80265" lon="2.14078">
        <ele>110</ele>
        <time>2017-07-23T09:04:44.139Z</time>
      </trkpt>
      <trkpt lat="47.80262" lon="2.14084">
        <ele>110</ele>
        <time>2017-07-23T09:04:45.119Z</time>
      </trkpt>
      <trkpt lat="47.80262" lon="2.14084">
        <ele>110</ele>
        <time>2017-07-23T09:04:46.129Z</time>
      </trkpt>
      <trkpt lat="47.80258" lon="2.14098">
        <ele>110</ele>
        <time>2017-07-23T09:04:47.135Z</time>
      </trkpt>
      <trkpt lat="47.80258" lon="2.14098">
        <ele>110</ele>
        <time>2017-07-23T09:04:48.125Z</time>
      </trkpt>
      <trkpt lat="47.80254" lon="2.14112">
        <ele>110</ele>
        <time>2017-07-23T09:04:49.139Z</time>
      </trkpt>
      <trkpt lat="47.80252" lon="2.14119">
        <ele>110</ele>
        <time>2017-07-23T09:04:50.122Z</time>
      </trkpt>
      <trkpt lat="47.80252" lon="2.14119">
        <ele>110</ele>
        <time>2017-07-23T09:04:51.129Z</time>
      </trkpt>
      <trkpt lat="47.80249" lon="2.14131">
        <ele>110</ele>
        <time>2017-07-23T09:04:52.112Z</time>
      </trkpt>
      <trkpt lat="47.80247" lon="2.14137">
        <ele>109</ele>
        <time>2017-07-23T09:04:53.126Z</time>
      </trkpt>
      <trkpt lat="47.80247" lon="2.14137">
        <ele>109</ele>
        <time>2017-07-23T09:04:54.118Z</time>
      </trkpt>
      <trkpt lat="47.80243" lon="2.14151">
        <ele>110</ele>
        <time>2017-07-23T09:04:55.130Z</time>
      </trkpt>
      <trkpt lat="47.80242" lon="2.14158">
        <ele>109</ele>
        <time>2017-07-23T09:04:56.133Z</time>
      </trkpt>
      <trkpt lat="47.80242" lon="2.14158">
        <ele>109</ele>
        <time>2017-07-23T09:04:57.148Z</time>
      </trkpt>
      <trkpt lat="47.80241" lon="2.14174">
        <ele>110</ele>
        <time>2017-07-23T09:04:58.109Z</time>
      </trkpt>
      <trkpt lat="47.80241" lon="2.14174">
        <ele>110</ele>
        <time>2017-07-23T09:04:59.135Z</time>
      </trkpt>
      <trkpt lat="47.80242" lon="2.1419">
        <ele>110</ele>
        <time>2017-07-23T09:05:00.141Z</time>
      </trkpt>
      <trkpt lat="47.80242" lon="2.14198">
        <ele>111</ele>
        <time>2017-07-23T09:05:01.140Z</time>
      </trkpt>
      <trkpt lat="47.80242" lon="2.14198">
        <ele>111</ele>
        <time>2017-07-23T09:05:02.129Z</time>
      </trkpt>
      <trkpt lat="47.80244" lon="2.14214">
        <ele>111</ele>
        <time>2017-07-23T09:05:03.108Z</time>
      </trkpt>
      <trkpt lat="47.80244" lon="2.14214">
        <ele>111</ele>
        <time>2017-07-23T09:05:04.133Z</time>
      </trkpt>
      <trkpt lat="47.80243" lon="2.14229">
        <ele>111</ele>
        <time>2017-07-23T09:05:05.129Z</time>
      </trkpt>
      <trkpt lat="47.80242" lon="2.14235">
        <ele>110</ele>
        <time>2017-07-23T09:05:06.110Z</time>
      </trkpt>
      <trkpt lat="47.80242" lon="2.14235">
        <ele>110</ele>
        <time>2017-07-23T09:05:07.121Z</time>
      </trkpt>
      <trkpt lat="47.80235" lon="2.14244">
        <ele>111</ele>
        <time>2017-07-23T09:05:08.134Z</time>
      </trkpt>
      <trkpt lat="47.80235" lon="2.14244">
        <ele>111</ele>
        <time>2017-07-23T09:05:09.141Z</time>
      </trkpt>
      <trkpt lat="47.80225" lon="2.14246">
        <ele>111</ele>
        <time>2017-07-23T09:05:10.148Z</time>
      </trkpt>
      <trkpt lat="47.8022" lon="2.14246">
        <ele>110</ele>
        <time>2017-07-23T09:05:11.122Z</time>
      </trkpt>
      <trkpt lat="47.8022" lon="2.14246">
        <ele>110</ele>
        <time>2017-07-23T09:05:12.111Z</time>
      </trkpt>
      <trkpt lat="47.80211" lon="2.14246">
        <ele>110</ele>
        <time>2017-07-23T09:05:13.119Z</time>
      </trkpt>
      <trkpt lat="47.80207" lon="2.14246">
        <ele>110</ele>
        <time>2017-07-23T09:05:14.114Z</time>
      </trkpt>
      <trkpt lat="47.80207" lon="2.14246">
        <ele>110</ele>
        <time>2017-07-23T09:05:15.132Z</time>
      </trkpt>
      <trkpt lat="47.80199" lon="2.14246">
        <ele>111</ele>
        <time>2017-07-23T09:05:16.124Z</time>
      </trkpt>
      <trkpt lat="47.80199" lon="2.14246">
        <ele>111</ele>
        <time>2017-07-23T09:05:17.119Z</time>
      </trkpt>
      <trkpt lat="47.80193" lon="2.14246">
        <ele>111</ele>
        <time>2017-07-23T09:05:18.124Z</time>
      </trkpt>
      <trkpt lat="47.80191" lon="2.14246">
        <ele>111</ele>
        <time>2017-07-23T09:05:19.108Z</time>
      </trkpt>
      <trkpt lat="47.8019" lon="2.14246">
        <ele>111</ele>
        <time>2017-07-23T09:05:20.147Z</time>
      </trkpt>
      <trkpt lat="47.80188" lon="2.14245">
        <ele>111</ele>
        <time>2017-07-23T09:05:21.134Z</time>
      </trkpt>
      <trkpt lat="47.80188" lon="2.14245">
        <ele>111</ele>
        <time>2017-07-23T09:05:22.121Z</time>
      </trkpt>
      <trkpt lat="47.80184" lon="2.1424">
        <ele>111</ele>
        <time>2017-07-23T09:05:23.127Z</time>
      </trkpt>
      <trkpt lat="47.80184" lon="2.1424">
        <ele>111</ele>
        <time>2017-07-23T09:05:24.144Z</time>
      </trkpt>
      <trkpt lat="47.8018" lon="2.14233">
        <ele>110</ele>
        <time>2017-07-23T09:05:25.111Z</time>
      </trkpt>
      <trkpt lat="47.8018" lon="2.14233">
        <ele>110</ele>
        <time>2017-07-23T09:05:26.140Z</time>
      </trkpt>
      <trkpt lat="47.80172" lon="2.14232">
        <ele>110</ele>
        <time>2017-07-23T09:05:27.146Z</time>
      </trkpt>
      <trkpt lat="47.80168" lon="2.14233">
        <ele>110</ele>
        <time>2017-07-23T09:05:28.119Z</time>
      </trkpt>
      <trkpt lat="47.80168" lon="2.14233">
        <ele>110</ele>
        <time>2017-07-23T09:05:29.136Z</time>
      </trkpt>
      <trkpt lat="47.80158" lon="2.14234">
        <ele>110</ele>
        <time>2017-07-23T09:05:30.142Z</time>
      </trkpt>
      <trkpt lat="47.80152" lon="2.14234">
        <ele>110</ele>
        <time>2017-07-23T09:05:31.144Z</time>
      </trkpt>
      <trkpt lat="47.80147" lon="2.14235">
        <ele>110</ele>
        <time>2017-07-23T09:05:32.120Z</time>
      </trkpt>
      <trkpt lat="47.80147" lon="2.14235">
        <ele>110</ele>
        <time>2017-07-23T09:05:33.120Z</time>
      </trkpt>
      <trkpt lat="47.80136" lon="2.14236">
        <ele>110</ele>
        <time>2017-07-23T09:05:34.138Z</time>
      </trkpt>
      <trkpt lat="47.8013" lon="2.14238">
        <ele>109</ele>
        <time>2017-07-23T09:05:35.128Z</time>
      </trkpt>
      <trkpt lat="47.80125" lon="2.14239">
        <ele>109</ele>
        <time>2017-07-23T09:05:36.137Z</time>
      </trkpt>
      <trkpt lat="47.80125" lon="2.14239">
        <ele>109</ele>
        <time>2017-07-23T09:05:37.128Z</time>
      </trkpt>
      <trkpt lat="47.80114" lon="2.1424">
        <ele>109</ele>
        <time>2017-07-23T09:05:38.110Z</time>
      </trkpt>
      <trkpt lat="47.80114" lon="2.1424">
        <ele>109</ele>
        <time>2017-07-23T09:05:39.141Z</time>
      </trkpt>
      <trkpt lat="47.80103" lon="2.14242">
        <ele>108</ele>
        <time>2017-07-23T09:05:40.108Z</time>
      </trkpt>
      <trkpt lat="47.80097" lon="2.14244">
        <ele>108</ele>
        <time>2017-07-23T09:05:41.109Z</time>
      </trkpt>
      <trkpt lat="47.80097" lon="2.14244">
        <ele>108</ele>
        <time>2017-07-23T09:05:42.116Z</time>
      </trkpt>
      <trkpt lat="47.80087" lon="2.14246">
        <ele>109</ele>
        <time>2017-07-23T09:05:43.122Z</time>
      </trkpt>
      <trkpt lat="47.80082" lon="2.14247">
        <ele>109</ele>
        <time>2017-07-23T09:05:44.136Z</time>
      </trkpt>
      <trkpt lat="47.80082" lon="2.14247">
        <ele>109</ele>
        <time>2017-07-23T09:05:45.118Z</time>
      </trkpt>
      <trkpt lat="47.80074" lon="2.14249">
        <ele>109</ele>
        <time>2017-07-23T09:05:46.124Z</time>
      </trkpt>
      <trkpt lat="47.80074" lon="2.14249">
        <ele>109</ele>
        <time>2017-07-23T09:05:47.124Z</time>
      </trkpt>
      <trkpt lat="47.80071" lon="2.14246">
        <ele>109</ele>
        <time>2017-07-23T09:05:48.140Z</time>
      </trkpt>
      <trkpt lat="47.80071" lon="2.14246">
        <ele>109</ele>
        <time>2017-07-23T09:05:49.116Z</time>
      </trkpt>
      <trkpt lat="47.80071" lon="2.14246">
        <ele>110</ele>
        <time>2017-07-23T09:05:50.123Z</time>
      </trkpt>
    </trkseg>
  </trk>
</gpx>